<?xml version="1.0" encoding="UTF-8"?>
<gpx version="1.1" creator="https://www.youtrack.es" xsi:schemaLocation="http://www.topografix.com/GPX/1/1 http://www.topografix.com/GPX/1/1/gpx.xsd http://www.garmin.com/xmlschemas/GpxExtensions/v3 http://www.garmin.com/xmlschemas/GpxExtensionsv3.xsd http://www.garmin.com/xmlschemas/TrackPointExtension/v1 http://www.garmin.com/xmlschemas/TrackPointExtensionv1.xsd" xmlns:gpxtpx="http://www.garmin.com/xmlschemas/TrackPointExtension/v1" xmlns:gpxx="http://www.garmin.com/xmlschemas/GpxExtensions/v3" xmlns:xsi="http://www.w3.org/2001/XMLSchema-instance">
  <metadata>
    <link href="https://www.youtrack.es">
      <text>YouTrack.es</text>
    </link>
    <time>2026-05-08T18:31:58Z</time>
  </metadata>
  <trk>
    <src>https://www.youtrack.es</src>
    <link href="https://www.youtrack.es/ruta/35212-duros">
      <text>YouTrack.es</text>
    </link>
    <trkseg>
      <trkpt lat="40.744214" lon="-8.357713">
        <ele>397.2</ele>
        <time>2022-08-14T06:50:21Z</time>
      </trkpt>
      <trkpt lat="40.744261" lon="-8.357635">
        <ele>397.6</ele>
        <time>2022-08-14T06:50:24Z</time>
      </trkpt>
      <trkpt lat="40.74431" lon="-8.357587">
        <ele>398</ele>
        <time>2022-08-14T06:50:26Z</time>
      </trkpt>
      <trkpt lat="40.744396" lon="-8.357541">
        <ele>399</ele>
        <time>2022-08-14T06:50:30Z</time>
      </trkpt>
      <trkpt lat="40.74448" lon="-8.357513">
        <ele>400.2</ele>
        <time>2022-08-14T06:50:34Z</time>
      </trkpt>
      <trkpt lat="40.744519" lon="-8.35751">
        <ele>400.8</ele>
        <time>2022-08-14T06:50:37Z</time>
      </trkpt>
      <trkpt lat="40.744543" lon="-8.357507">
        <ele>401.2</ele>
        <time>2022-08-14T06:50:39Z</time>
      </trkpt>
      <trkpt lat="40.744611" lon="-8.357513">
        <ele>402</ele>
        <time>2022-08-14T06:50:43Z</time>
      </trkpt>
      <trkpt lat="40.744645" lon="-8.357511">
        <ele>402.2</ele>
        <time>2022-08-14T06:50:45Z</time>
      </trkpt>
      <trkpt lat="40.744663" lon="-8.357514">
        <ele>402.2</ele>
        <time>2022-08-14T06:50:46Z</time>
      </trkpt>
      <trkpt lat="40.744697" lon="-8.357512">
        <ele>402.6</ele>
        <time>2022-08-14T06:50:48Z</time>
      </trkpt>
      <trkpt lat="40.744735" lon="-8.357478">
        <ele>403.2</ele>
        <time>2022-08-14T06:50:51Z</time>
      </trkpt>
      <trkpt lat="40.744778" lon="-8.357417">
        <ele>403.6</ele>
        <time>2022-08-14T06:50:54Z</time>
      </trkpt>
      <trkpt lat="40.744802" lon="-8.357337">
        <ele>404.2</ele>
        <time>2022-08-14T06:50:57Z</time>
      </trkpt>
      <trkpt lat="40.744828" lon="-8.357214">
        <ele>404.8</ele>
        <time>2022-08-14T06:51:01Z</time>
      </trkpt>
      <trkpt lat="40.744833" lon="-8.357045">
        <ele>405.2</ele>
        <time>2022-08-14T06:51:06Z</time>
      </trkpt>
      <trkpt lat="40.74485" lon="-8.356859">
        <ele>405.4</ele>
        <time>2022-08-14T06:51:11Z</time>
      </trkpt>
      <trkpt lat="40.744935" lon="-8.356457">
        <ele>405.4</ele>
        <time>2022-08-14T06:51:21Z</time>
      </trkpt>
      <trkpt lat="40.74509" lon="-8.35618">
        <ele>405.2</ele>
        <time>2022-08-14T06:51:28Z</time>
      </trkpt>
      <trkpt lat="40.745269" lon="-8.355825">
        <ele>404.2</ele>
        <time>2022-08-14T06:51:35Z</time>
      </trkpt>
      <trkpt lat="40.745345" lon="-8.355692">
        <ele>404</ele>
        <time>2022-08-14T06:51:37Z</time>
      </trkpt>
      <trkpt lat="40.745363" lon="-8.355614">
        <ele>403.8</ele>
        <time>2022-08-14T06:51:38Z</time>
      </trkpt>
      <trkpt lat="40.74536" lon="-8.355533">
        <ele>403.6</ele>
        <time>2022-08-14T06:51:39Z</time>
      </trkpt>
      <trkpt lat="40.745333" lon="-8.35546">
        <ele>403.2</ele>
        <time>2022-08-14T06:51:40Z</time>
      </trkpt>
      <trkpt lat="40.745289" lon="-8.355404">
        <ele>403</ele>
        <time>2022-08-14T06:51:41Z</time>
      </trkpt>
      <trkpt lat="40.745186" lon="-8.355326">
        <ele>402.6</ele>
        <time>2022-08-14T06:51:43Z</time>
      </trkpt>
      <trkpt lat="40.745138" lon="-8.355289">
        <ele>402.4</ele>
        <time>2022-08-14T06:51:44Z</time>
      </trkpt>
      <trkpt lat="40.745063" lon="-8.355197">
        <ele>402.2</ele>
        <time>2022-08-14T06:51:46Z</time>
      </trkpt>
      <trkpt lat="40.745031" lon="-8.355148">
        <ele>401.8</ele>
        <time>2022-08-14T06:51:47Z</time>
      </trkpt>
      <trkpt lat="40.745006" lon="-8.355092">
        <ele>402</ele>
        <time>2022-08-14T06:51:48Z</time>
      </trkpt>
      <trkpt lat="40.744983" lon="-8.354969">
        <ele>401.6</ele>
        <time>2022-08-14T06:51:50Z</time>
      </trkpt>
      <trkpt lat="40.744986" lon="-8.354908">
        <ele>401.6</ele>
        <time>2022-08-14T06:51:51Z</time>
      </trkpt>
      <trkpt lat="40.744997" lon="-8.354798">
        <ele>401.4</ele>
        <time>2022-08-14T06:51:53Z</time>
      </trkpt>
      <trkpt lat="40.745031" lon="-8.354709">
        <ele>401.2</ele>
        <time>2022-08-14T06:51:55Z</time>
      </trkpt>
      <trkpt lat="40.745083" lon="-8.354632">
        <ele>401</ele>
        <time>2022-08-14T06:51:57Z</time>
      </trkpt>
      <trkpt lat="40.745116" lon="-8.354602">
        <ele>400.8</ele>
        <time>2022-08-14T06:51:58Z</time>
      </trkpt>
      <trkpt lat="40.745153" lon="-8.354574">
        <ele>400.8</ele>
        <time>2022-08-14T06:51:59Z</time>
      </trkpt>
      <trkpt lat="40.745189" lon="-8.354553">
        <ele>400.8</ele>
        <time>2022-08-14T06:52:00Z</time>
      </trkpt>
      <trkpt lat="40.745517" lon="-8.354341">
        <ele>400.8</ele>
        <time>2022-08-14T06:52:09Z</time>
      </trkpt>
      <trkpt lat="40.745601" lon="-8.3542">
        <ele>400.8</ele>
        <time>2022-08-14T06:52:13Z</time>
      </trkpt>
      <trkpt lat="40.745608" lon="-8.35399">
        <ele>400.8</ele>
        <time>2022-08-14T06:52:17Z</time>
      </trkpt>
      <trkpt lat="40.745572" lon="-8.35366">
        <ele>400.8</ele>
        <time>2022-08-14T06:52:23Z</time>
      </trkpt>
      <trkpt lat="40.745531" lon="-8.353343">
        <ele>400.8</ele>
        <time>2022-08-14T06:52:29Z</time>
      </trkpt>
      <trkpt lat="40.745533" lon="-8.353285">
        <ele>400.8</ele>
        <time>2022-08-14T06:52:30Z</time>
      </trkpt>
      <trkpt lat="40.745534" lon="-8.353225">
        <ele>400.8</ele>
        <time>2022-08-14T06:52:31Z</time>
      </trkpt>
      <trkpt lat="40.745541" lon="-8.353162">
        <ele>400.8</ele>
        <time>2022-08-14T06:52:32Z</time>
      </trkpt>
      <trkpt lat="40.745576" lon="-8.35305">
        <ele>400.6</ele>
        <time>2022-08-14T06:52:34Z</time>
      </trkpt>
      <trkpt lat="40.745629" lon="-8.352953">
        <ele>400.6</ele>
        <time>2022-08-14T06:52:36Z</time>
      </trkpt>
      <trkpt lat="40.745765" lon="-8.352783">
        <ele>400.4</ele>
        <time>2022-08-14T06:52:40Z</time>
      </trkpt>
      <trkpt lat="40.745796" lon="-8.352738">
        <ele>400.4</ele>
        <time>2022-08-14T06:52:41Z</time>
      </trkpt>
      <trkpt lat="40.745861" lon="-8.352677">
        <ele>400.4</ele>
        <time>2022-08-14T06:52:43Z</time>
      </trkpt>
      <trkpt lat="40.745934" lon="-8.352626">
        <ele>400.2</ele>
        <time>2022-08-14T06:52:45Z</time>
      </trkpt>
      <trkpt lat="40.746006" lon="-8.352572">
        <ele>400.2</ele>
        <time>2022-08-14T06:52:47Z</time>
      </trkpt>
      <trkpt lat="40.746176" lon="-8.352458">
        <ele>400.2</ele>
        <time>2022-08-14T06:52:52Z</time>
      </trkpt>
      <trkpt lat="40.746429" lon="-8.352393">
        <ele>400.2</ele>
        <time>2022-08-14T06:52:58Z</time>
      </trkpt>
      <trkpt lat="40.746773" lon="-8.352385">
        <ele>400</ele>
        <time>2022-08-14T06:53:06Z</time>
      </trkpt>
      <trkpt lat="40.746848" lon="-8.352387">
        <ele>400</ele>
        <time>2022-08-14T06:53:08Z</time>
      </trkpt>
      <trkpt lat="40.746938" lon="-8.352381">
        <ele>400</ele>
        <time>2022-08-14T06:53:10Z</time>
      </trkpt>
      <trkpt lat="40.747007" lon="-8.352383">
        <ele>400</ele>
        <time>2022-08-14T06:53:12Z</time>
      </trkpt>
      <trkpt lat="40.747157" lon="-8.352401">
        <ele>400</ele>
        <time>2022-08-14T06:53:16Z</time>
      </trkpt>
      <trkpt lat="40.747366" lon="-8.352343">
        <ele>400</ele>
        <time>2022-08-14T06:53:20Z</time>
      </trkpt>
      <trkpt lat="40.747404" lon="-8.352336">
        <ele>400</ele>
        <time>2022-08-14T06:53:21Z</time>
      </trkpt>
      <trkpt lat="40.747554" lon="-8.352294">
        <ele>400</ele>
        <time>2022-08-14T06:53:25Z</time>
      </trkpt>
      <trkpt lat="40.747776" lon="-8.352155">
        <ele>400</ele>
        <time>2022-08-14T06:53:32Z</time>
      </trkpt>
      <trkpt lat="40.747866" lon="-8.352038">
        <ele>399.8</ele>
        <time>2022-08-14T06:53:36Z</time>
      </trkpt>
      <trkpt lat="40.747935" lon="-8.351977">
        <ele>399.4</ele>
        <time>2022-08-14T06:53:39Z</time>
      </trkpt>
      <trkpt lat="40.748094" lon="-8.351873">
        <ele>399.2</ele>
        <time>2022-08-14T06:53:44Z</time>
      </trkpt>
      <trkpt lat="40.748181" lon="-8.351835">
        <ele>399.6</ele>
        <time>2022-08-14T06:53:46Z</time>
      </trkpt>
      <trkpt lat="40.74826" lon="-8.351829">
        <ele>400</ele>
        <time>2022-08-14T06:53:48Z</time>
      </trkpt>
      <trkpt lat="40.74838" lon="-8.351832">
        <ele>400.8</ele>
        <time>2022-08-14T06:53:51Z</time>
      </trkpt>
      <trkpt lat="40.748488" lon="-8.351842">
        <ele>401</ele>
        <time>2022-08-14T06:53:54Z</time>
      </trkpt>
      <trkpt lat="40.748706" lon="-8.351869">
        <ele>399.8</ele>
        <time>2022-08-14T06:53:59Z</time>
      </trkpt>
      <trkpt lat="40.748745" lon="-8.35188">
        <ele>399.8</ele>
        <time>2022-08-14T06:54:00Z</time>
      </trkpt>
      <trkpt lat="40.748779" lon="-8.351892">
        <ele>399.6</ele>
        <time>2022-08-14T06:54:01Z</time>
      </trkpt>
      <trkpt lat="40.748868" lon="-8.351913">
        <ele>399.2</ele>
        <time>2022-08-14T06:54:03Z</time>
      </trkpt>
      <trkpt lat="40.748913" lon="-8.351932">
        <ele>399.4</ele>
        <time>2022-08-14T06:54:04Z</time>
      </trkpt>
      <trkpt lat="40.74905" lon="-8.352029">
        <ele>400.4</ele>
        <time>2022-08-14T06:54:09Z</time>
      </trkpt>
      <trkpt lat="40.749075" lon="-8.352059">
        <ele>400.8</ele>
        <time>2022-08-14T06:54:10Z</time>
      </trkpt>
      <trkpt lat="40.749182" lon="-8.352165">
        <ele>401</ele>
        <time>2022-08-14T06:54:14Z</time>
      </trkpt>
      <trkpt lat="40.749337" lon="-8.352436">
        <ele>400.6</ele>
        <time>2022-08-14T06:54:22Z</time>
      </trkpt>
      <trkpt lat="40.749454" lon="-8.352743">
        <ele>400.6</ele>
        <time>2022-08-14T06:54:30Z</time>
      </trkpt>
      <trkpt lat="40.749581" lon="-8.353079">
        <ele>401.2</ele>
        <time>2022-08-14T06:54:38Z</time>
      </trkpt>
      <trkpt lat="40.749688" lon="-8.353405">
        <ele>402</ele>
        <time>2022-08-14T06:54:46Z</time>
      </trkpt>
      <trkpt lat="40.74973" lon="-8.353528">
        <ele>402</ele>
        <time>2022-08-14T06:54:49Z</time>
      </trkpt>
      <trkpt lat="40.749797" lon="-8.353778">
        <ele>402.8</ele>
        <time>2022-08-14T06:54:55Z</time>
      </trkpt>
      <trkpt lat="40.74984" lon="-8.353897">
        <ele>403.2</ele>
        <time>2022-08-14T06:54:58Z</time>
      </trkpt>
      <trkpt lat="40.74993" lon="-8.354026">
        <ele>403.2</ele>
        <time>2022-08-14T06:55:02Z</time>
      </trkpt>
      <trkpt lat="40.749961" lon="-8.354049">
        <ele>403.2</ele>
        <time>2022-08-14T06:55:03Z</time>
      </trkpt>
      <trkpt lat="40.750215" lon="-8.354182">
        <ele>403.4</ele>
        <time>2022-08-14T06:55:11Z</time>
      </trkpt>
      <trkpt lat="40.750328" lon="-8.354245">
        <ele>403.8</ele>
        <time>2022-08-14T06:55:15Z</time>
      </trkpt>
      <trkpt lat="40.750436" lon="-8.354306">
        <ele>404.6</ele>
        <time>2022-08-14T06:55:19Z</time>
      </trkpt>
      <trkpt lat="40.750489" lon="-8.354336">
        <ele>405</ele>
        <time>2022-08-14T06:55:21Z</time>
      </trkpt>
      <trkpt lat="40.750697" lon="-8.354413">
        <ele>406</ele>
        <time>2022-08-14T06:55:28Z</time>
      </trkpt>
      <trkpt lat="40.750897" lon="-8.35447">
        <ele>407.2</ele>
        <time>2022-08-14T06:55:35Z</time>
      </trkpt>
      <trkpt lat="40.750956" lon="-8.35448">
        <ele>407.6</ele>
        <time>2022-08-14T06:55:37Z</time>
      </trkpt>
      <trkpt lat="40.751138" lon="-8.354457">
        <ele>408.2</ele>
        <time>2022-08-14T06:55:43Z</time>
      </trkpt>
      <trkpt lat="40.751195" lon="-8.354437">
        <ele>408.6</ele>
        <time>2022-08-14T06:55:45Z</time>
      </trkpt>
      <trkpt lat="40.751414" lon="-8.354266">
        <ele>408.8</ele>
        <time>2022-08-14T06:55:53Z</time>
      </trkpt>
      <trkpt lat="40.751553" lon="-8.354092">
        <ele>409.2</ele>
        <time>2022-08-14T06:55:59Z</time>
      </trkpt>
      <trkpt lat="40.751574" lon="-8.354061">
        <ele>409.4</ele>
        <time>2022-08-14T06:56:00Z</time>
      </trkpt>
      <trkpt lat="40.751656" lon="-8.353897">
        <ele>409.8</ele>
        <time>2022-08-14T06:56:05Z</time>
      </trkpt>
      <trkpt lat="40.751699" lon="-8.353743">
        <ele>410</ele>
        <time>2022-08-14T06:56:08Z</time>
      </trkpt>
      <trkpt lat="40.751743" lon="-8.353631">
        <ele>410</ele>
        <time>2022-08-14T06:56:10Z</time>
      </trkpt>
      <trkpt lat="40.751781" lon="-8.353514">
        <ele>409.8</ele>
        <time>2022-08-14T06:56:12Z</time>
      </trkpt>
      <trkpt lat="40.751804" lon="-8.353374">
        <ele>409.6</ele>
        <time>2022-08-14T06:56:14Z</time>
      </trkpt>
      <trkpt lat="40.751828" lon="-8.35303">
        <ele>408.6</ele>
        <time>2022-08-14T06:56:18Z</time>
      </trkpt>
      <trkpt lat="40.75186" lon="-8.352841">
        <ele>407.8</ele>
        <time>2022-08-14T06:56:20Z</time>
      </trkpt>
      <trkpt lat="40.751903" lon="-8.352658">
        <ele>406.8</ele>
        <time>2022-08-14T06:56:22Z</time>
      </trkpt>
      <trkpt lat="40.751945" lon="-8.35258">
        <ele>406.2</ele>
        <time>2022-08-14T06:56:23Z</time>
      </trkpt>
      <trkpt lat="40.752003" lon="-8.352528">
        <ele>405.6</ele>
        <time>2022-08-14T06:56:24Z</time>
      </trkpt>
      <trkpt lat="40.752084" lon="-8.352523">
        <ele>405.2</ele>
        <time>2022-08-14T06:56:25Z</time>
      </trkpt>
      <trkpt lat="40.752176" lon="-8.352551">
        <ele>404.6</ele>
        <time>2022-08-14T06:56:26Z</time>
      </trkpt>
      <trkpt lat="40.75227" lon="-8.352595">
        <ele>404</ele>
        <time>2022-08-14T06:56:27Z</time>
      </trkpt>
      <trkpt lat="40.752363" lon="-8.352645">
        <ele>403.2</ele>
        <time>2022-08-14T06:56:28Z</time>
      </trkpt>
      <trkpt lat="40.752452" lon="-8.352698">
        <ele>403</ele>
        <time>2022-08-14T06:56:29Z</time>
      </trkpt>
      <trkpt lat="40.752637" lon="-8.352786">
        <ele>401.2</ele>
        <time>2022-08-14T06:56:31Z</time>
      </trkpt>
      <trkpt lat="40.752728" lon="-8.352797">
        <ele>400.6</ele>
        <time>2022-08-14T06:56:32Z</time>
      </trkpt>
      <trkpt lat="40.752818" lon="-8.352779">
        <ele>399.8</ele>
        <time>2022-08-14T06:56:33Z</time>
      </trkpt>
      <trkpt lat="40.752907" lon="-8.352713">
        <ele>399.2</ele>
        <time>2022-08-14T06:56:34Z</time>
      </trkpt>
      <trkpt lat="40.752979" lon="-8.352618">
        <ele>398.4</ele>
        <time>2022-08-14T06:56:35Z</time>
      </trkpt>
      <trkpt lat="40.753028" lon="-8.352501">
        <ele>398</ele>
        <time>2022-08-14T06:56:36Z</time>
      </trkpt>
      <trkpt lat="40.753053" lon="-8.352377">
        <ele>397.2</ele>
        <time>2022-08-14T06:56:37Z</time>
      </trkpt>
      <trkpt lat="40.753084" lon="-8.352124">
        <ele>396.2</ele>
        <time>2022-08-14T06:56:39Z</time>
      </trkpt>
      <trkpt lat="40.753094" lon="-8.352004">
        <ele>395.4</ele>
        <time>2022-08-14T06:56:40Z</time>
      </trkpt>
      <trkpt lat="40.753111" lon="-8.351678">
        <ele>394.4</ele>
        <time>2022-08-14T06:56:43Z</time>
      </trkpt>
      <trkpt lat="40.753132" lon="-8.351476">
        <ele>393.6</ele>
        <time>2022-08-14T06:56:45Z</time>
      </trkpt>
      <trkpt lat="40.753156" lon="-8.351211">
        <ele>393.6</ele>
        <time>2022-08-14T06:56:48Z</time>
      </trkpt>
      <trkpt lat="40.753169" lon="-8.351135">
        <ele>393.4</ele>
        <time>2022-08-14T06:56:49Z</time>
      </trkpt>
      <trkpt lat="40.753186" lon="-8.351066">
        <ele>393.4</ele>
        <time>2022-08-14T06:56:50Z</time>
      </trkpt>
      <trkpt lat="40.753231" lon="-8.350851">
        <ele>394</ele>
        <time>2022-08-14T06:56:54Z</time>
      </trkpt>
      <trkpt lat="40.753285" lon="-8.350605">
        <ele>395</ele>
        <time>2022-08-14T06:57:00Z</time>
      </trkpt>
      <trkpt lat="40.753289" lon="-8.350499">
        <ele>395.6</ele>
        <time>2022-08-14T06:57:03Z</time>
      </trkpt>
      <trkpt lat="40.753291" lon="-8.350423">
        <ele>396</ele>
        <time>2022-08-14T06:57:05Z</time>
      </trkpt>
      <trkpt lat="40.753331" lon="-8.350224">
        <ele>396.8</ele>
        <time>2022-08-14T06:57:10Z</time>
      </trkpt>
      <trkpt lat="40.753364" lon="-8.35015">
        <ele>397.2</ele>
        <time>2022-08-14T06:57:12Z</time>
      </trkpt>
      <trkpt lat="40.753538" lon="-8.349981">
        <ele>397.8</ele>
        <time>2022-08-14T06:57:19Z</time>
      </trkpt>
      <trkpt lat="40.753721" lon="-8.349928">
        <ele>398.8</ele>
        <time>2022-08-14T06:57:25Z</time>
      </trkpt>
      <trkpt lat="40.75375" lon="-8.349922">
        <ele>399</ele>
        <time>2022-08-14T06:57:26Z</time>
      </trkpt>
      <trkpt lat="40.754019" lon="-8.349832">
        <ele>400</ele>
        <time>2022-08-14T06:57:35Z</time>
      </trkpt>
      <trkpt lat="40.754238" lon="-8.349725">
        <ele>401</ele>
        <time>2022-08-14T06:57:42Z</time>
      </trkpt>
      <trkpt lat="40.754492" lon="-8.349584">
        <ele>402</ele>
        <time>2022-08-14T06:57:49Z</time>
      </trkpt>
      <trkpt lat="40.754524" lon="-8.349564">
        <ele>402</ele>
        <time>2022-08-14T06:57:50Z</time>
      </trkpt>
      <trkpt lat="40.754718" lon="-8.349422">
        <ele>402.8</ele>
        <time>2022-08-14T06:57:56Z</time>
      </trkpt>
      <trkpt lat="40.754832" lon="-8.349369">
        <ele>403.2</ele>
        <time>2022-08-14T06:57:59Z</time>
      </trkpt>
      <trkpt lat="40.754979" lon="-8.34936">
        <ele>403.4</ele>
        <time>2022-08-14T06:58:03Z</time>
      </trkpt>
      <trkpt lat="40.755256" lon="-8.349434">
        <ele>404</ele>
        <time>2022-08-14T06:58:10Z</time>
      </trkpt>
      <trkpt lat="40.75538" lon="-8.349473">
        <ele>404.2</ele>
        <time>2022-08-14T06:58:13Z</time>
      </trkpt>
      <trkpt lat="40.755537" lon="-8.349497">
        <ele>404.2</ele>
        <time>2022-08-14T06:58:17Z</time>
      </trkpt>
      <trkpt lat="40.755617" lon="-8.349489">
        <ele>404.2</ele>
        <time>2022-08-14T06:58:19Z</time>
      </trkpt>
      <trkpt lat="40.755698" lon="-8.349451">
        <ele>404</ele>
        <time>2022-08-14T06:58:21Z</time>
      </trkpt>
      <trkpt lat="40.755725" lon="-8.349418">
        <ele>403.8</ele>
        <time>2022-08-14T06:58:22Z</time>
      </trkpt>
      <trkpt lat="40.755744" lon="-8.349373">
        <ele>403.6</ele>
        <time>2022-08-14T06:58:23Z</time>
      </trkpt>
      <trkpt lat="40.755751" lon="-8.349276">
        <ele>403.6</ele>
        <time>2022-08-14T06:58:25Z</time>
      </trkpt>
      <trkpt lat="40.75575" lon="-8.349044">
        <ele>403.4</ele>
        <time>2022-08-14T06:58:29Z</time>
      </trkpt>
      <trkpt lat="40.755772" lon="-8.348953">
        <ele>403.4</ele>
        <time>2022-08-14T06:58:31Z</time>
      </trkpt>
      <trkpt lat="40.755794" lon="-8.348897">
        <ele>403.4</ele>
        <time>2022-08-14T06:58:32Z</time>
      </trkpt>
      <trkpt lat="40.755842" lon="-8.348813">
        <ele>403.4</ele>
        <time>2022-08-14T06:58:34Z</time>
      </trkpt>
      <trkpt lat="40.755904" lon="-8.348734">
        <ele>403.4</ele>
        <time>2022-08-14T06:58:36Z</time>
      </trkpt>
      <trkpt lat="40.755938" lon="-8.348701">
        <ele>403.4</ele>
        <time>2022-08-14T06:58:37Z</time>
      </trkpt>
      <trkpt lat="40.7561" lon="-8.348603">
        <ele>403.6</ele>
        <time>2022-08-14T06:58:41Z</time>
      </trkpt>
      <trkpt lat="40.756356" lon="-8.348495">
        <ele>403.8</ele>
        <time>2022-08-14T06:58:47Z</time>
      </trkpt>
      <trkpt lat="40.756434" lon="-8.348433">
        <ele>403.8</ele>
        <time>2022-08-14T06:58:49Z</time>
      </trkpt>
      <trkpt lat="40.75647" lon="-8.348396">
        <ele>403.8</ele>
        <time>2022-08-14T06:58:50Z</time>
      </trkpt>
      <trkpt lat="40.756525" lon="-8.348307">
        <ele>403.6</ele>
        <time>2022-08-14T06:58:52Z</time>
      </trkpt>
      <trkpt lat="40.756541" lon="-8.348266">
        <ele>403.6</ele>
        <time>2022-08-14T06:58:53Z</time>
      </trkpt>
      <trkpt lat="40.756563" lon="-8.348198">
        <ele>403.6</ele>
        <time>2022-08-14T06:58:54Z</time>
      </trkpt>
      <trkpt lat="40.756572" lon="-8.348074">
        <ele>403.6</ele>
        <time>2022-08-14T06:58:56Z</time>
      </trkpt>
      <trkpt lat="40.756557" lon="-8.348009">
        <ele>403.4</ele>
        <time>2022-08-14T06:58:57Z</time>
      </trkpt>
      <trkpt lat="40.756536" lon="-8.347945">
        <ele>403.4</ele>
        <time>2022-08-14T06:58:58Z</time>
      </trkpt>
      <trkpt lat="40.756472" lon="-8.347834">
        <ele>403.4</ele>
        <time>2022-08-14T06:59:00Z</time>
      </trkpt>
      <trkpt lat="40.756432" lon="-8.347785">
        <ele>403.2</ele>
        <time>2022-08-14T06:59:01Z</time>
      </trkpt>
      <trkpt lat="40.756297" lon="-8.347652">
        <ele>402.8</ele>
        <time>2022-08-14T06:59:04Z</time>
      </trkpt>
      <trkpt lat="40.756249" lon="-8.347617">
        <ele>402.6</ele>
        <time>2022-08-14T06:59:05Z</time>
      </trkpt>
      <trkpt lat="40.756151" lon="-8.347567">
        <ele>402.2</ele>
        <time>2022-08-14T06:59:07Z</time>
      </trkpt>
      <trkpt lat="40.755889" lon="-8.347429">
        <ele>401.6</ele>
        <time>2022-08-14T06:59:12Z</time>
      </trkpt>
      <trkpt lat="40.75584" lon="-8.347395">
        <ele>401.2</ele>
        <time>2022-08-14T06:59:13Z</time>
      </trkpt>
      <trkpt lat="40.755796" lon="-8.347349">
        <ele>401</ele>
        <time>2022-08-14T06:59:14Z</time>
      </trkpt>
      <trkpt lat="40.755761" lon="-8.347291">
        <ele>401</ele>
        <time>2022-08-14T06:59:15Z</time>
      </trkpt>
      <trkpt lat="40.755725" lon="-8.347161">
        <ele>400.8</ele>
        <time>2022-08-14T06:59:17Z</time>
      </trkpt>
      <trkpt lat="40.755757" lon="-8.347012">
        <ele>400.4</ele>
        <time>2022-08-14T06:59:19Z</time>
      </trkpt>
      <trkpt lat="40.755794" lon="-8.346946">
        <ele>400.4</ele>
        <time>2022-08-14T06:59:20Z</time>
      </trkpt>
      <trkpt lat="40.755837" lon="-8.346879">
        <ele>400</ele>
        <time>2022-08-14T06:59:21Z</time>
      </trkpt>
      <trkpt lat="40.755936" lon="-8.346763">
        <ele>399.4</ele>
        <time>2022-08-14T06:59:23Z</time>
      </trkpt>
      <trkpt lat="40.755994" lon="-8.346713">
        <ele>399.4</ele>
        <time>2022-08-14T06:59:24Z</time>
      </trkpt>
      <trkpt lat="40.756194" lon="-8.346574">
        <ele>398.4</ele>
        <time>2022-08-14T06:59:27Z</time>
      </trkpt>
      <trkpt lat="40.756347" lon="-8.346495">
        <ele>397.6</ele>
        <time>2022-08-14T06:59:29Z</time>
      </trkpt>
      <trkpt lat="40.756431" lon="-8.346466">
        <ele>397.2</ele>
        <time>2022-08-14T06:59:30Z</time>
      </trkpt>
      <trkpt lat="40.756635" lon="-8.346431">
        <ele>396.8</ele>
        <time>2022-08-14T06:59:32Z</time>
      </trkpt>
      <trkpt lat="40.756714" lon="-8.346425">
        <ele>396.4</ele>
        <time>2022-08-14T06:59:33Z</time>
      </trkpt>
      <trkpt lat="40.756816" lon="-8.346411">
        <ele>395.8</ele>
        <time>2022-08-14T06:59:34Z</time>
      </trkpt>
      <trkpt lat="40.75692" lon="-8.346392">
        <ele>395.2</ele>
        <time>2022-08-14T06:59:35Z</time>
      </trkpt>
      <trkpt lat="40.757134" lon="-8.346337">
        <ele>394.2</ele>
        <time>2022-08-14T06:59:37Z</time>
      </trkpt>
      <trkpt lat="40.757241" lon="-8.34632">
        <ele>393.8</ele>
        <time>2022-08-14T06:59:38Z</time>
      </trkpt>
      <trkpt lat="40.757464" lon="-8.346303">
        <ele>392.6</ele>
        <time>2022-08-14T06:59:40Z</time>
      </trkpt>
      <trkpt lat="40.757572" lon="-8.346344">
        <ele>391.8</ele>
        <time>2022-08-14T06:59:41Z</time>
      </trkpt>
      <trkpt lat="40.75768" lon="-8.346402">
        <ele>390.8</ele>
        <time>2022-08-14T06:59:42Z</time>
      </trkpt>
      <trkpt lat="40.757779" lon="-8.346486">
        <ele>390.4</ele>
        <time>2022-08-14T06:59:43Z</time>
      </trkpt>
      <trkpt lat="40.757861" lon="-8.346584">
        <ele>389.6</ele>
        <time>2022-08-14T06:59:44Z</time>
      </trkpt>
      <trkpt lat="40.757923" lon="-8.346701">
        <ele>389.2</ele>
        <time>2022-08-14T06:59:45Z</time>
      </trkpt>
      <trkpt lat="40.757968" lon="-8.346863">
        <ele>388.2</ele>
        <time>2022-08-14T06:59:46Z</time>
      </trkpt>
      <trkpt lat="40.757979" lon="-8.34698">
        <ele>388</ele>
        <time>2022-08-14T06:59:47Z</time>
      </trkpt>
      <trkpt lat="40.757997" lon="-8.347126">
        <ele>387</ele>
        <time>2022-08-14T06:59:48Z</time>
      </trkpt>
      <trkpt lat="40.758024" lon="-8.347271">
        <ele>386.4</ele>
        <time>2022-08-14T06:59:49Z</time>
      </trkpt>
      <trkpt lat="40.758063" lon="-8.347412">
        <ele>385.8</ele>
        <time>2022-08-14T06:59:50Z</time>
      </trkpt>
      <trkpt lat="40.758113" lon="-8.347548">
        <ele>384.6</ele>
        <time>2022-08-14T06:59:51Z</time>
      </trkpt>
      <trkpt lat="40.758173" lon="-8.347675">
        <ele>384</ele>
        <time>2022-08-14T06:59:52Z</time>
      </trkpt>
      <trkpt lat="40.758251" lon="-8.347786">
        <ele>383.2</ele>
        <time>2022-08-14T06:59:53Z</time>
      </trkpt>
      <trkpt lat="40.758345" lon="-8.347864">
        <ele>382.4</ele>
        <time>2022-08-14T06:59:54Z</time>
      </trkpt>
      <trkpt lat="40.758454" lon="-8.347889">
        <ele>381.4</ele>
        <time>2022-08-14T06:59:55Z</time>
      </trkpt>
      <trkpt lat="40.758548" lon="-8.347871">
        <ele>381</ele>
        <time>2022-08-14T06:59:56Z</time>
      </trkpt>
      <trkpt lat="40.758611" lon="-8.347822">
        <ele>379.8</ele>
        <time>2022-08-14T06:59:57Z</time>
      </trkpt>
      <trkpt lat="40.758666" lon="-8.347755">
        <ele>378.8</ele>
        <time>2022-08-14T06:59:58Z</time>
      </trkpt>
      <trkpt lat="40.758711" lon="-8.347685">
        <ele>378.2</ele>
        <time>2022-08-14T06:59:59Z</time>
      </trkpt>
      <trkpt lat="40.758756" lon="-8.347616">
        <ele>377</ele>
        <time>2022-08-14T07:00:00Z</time>
      </trkpt>
      <trkpt lat="40.758851" lon="-8.347497">
        <ele>376.2</ele>
        <time>2022-08-14T07:00:02Z</time>
      </trkpt>
      <trkpt lat="40.758947" lon="-8.347384">
        <ele>375.8</ele>
        <time>2022-08-14T07:00:04Z</time>
      </trkpt>
      <trkpt lat="40.759181" lon="-8.3471">
        <ele>374.6</ele>
        <time>2022-08-14T07:00:09Z</time>
      </trkpt>
      <trkpt lat="40.759363" lon="-8.346887">
        <ele>373.6</ele>
        <time>2022-08-14T07:00:13Z</time>
      </trkpt>
      <trkpt lat="40.75955" lon="-8.346686">
        <ele>372.8</ele>
        <time>2022-08-14T07:00:17Z</time>
      </trkpt>
      <trkpt lat="40.759599" lon="-8.346651">
        <ele>372.6</ele>
        <time>2022-08-14T07:00:18Z</time>
      </trkpt>
      <trkpt lat="40.759901" lon="-8.346474">
        <ele>371.4</ele>
        <time>2022-08-14T07:00:24Z</time>
      </trkpt>
      <trkpt lat="40.759998" lon="-8.346412">
        <ele>371.4</ele>
        <time>2022-08-14T07:00:26Z</time>
      </trkpt>
      <trkpt lat="40.760089" lon="-8.346338">
        <ele>371</ele>
        <time>2022-08-14T07:00:28Z</time>
      </trkpt>
      <trkpt lat="40.760145" lon="-8.34624">
        <ele>370.8</ele>
        <time>2022-08-14T07:00:30Z</time>
      </trkpt>
      <trkpt lat="40.760164" lon="-8.346129">
        <ele>370.6</ele>
        <time>2022-08-14T07:00:32Z</time>
      </trkpt>
      <trkpt lat="40.760157" lon="-8.346074">
        <ele>370.6</ele>
        <time>2022-08-14T07:00:33Z</time>
      </trkpt>
      <trkpt lat="40.760135" lon="-8.346023">
        <ele>370.6</ele>
        <time>2022-08-14T07:00:34Z</time>
      </trkpt>
      <trkpt lat="40.760058" lon="-8.34592">
        <ele>370.6</ele>
        <time>2022-08-14T07:00:37Z</time>
      </trkpt>
      <trkpt lat="40.759975" lon="-8.345798">
        <ele>371.4</ele>
        <time>2022-08-14T07:00:42Z</time>
      </trkpt>
      <trkpt lat="40.759946" lon="-8.345633">
        <ele>372.4</ele>
        <time>2022-08-14T07:00:47Z</time>
      </trkpt>
      <trkpt lat="40.759924" lon="-8.345495">
        <ele>373.2</ele>
        <time>2022-08-14T07:00:51Z</time>
      </trkpt>
      <trkpt lat="40.759928" lon="-8.345434">
        <ele>373.6</ele>
        <time>2022-08-14T07:00:53Z</time>
      </trkpt>
      <trkpt lat="40.759915" lon="-8.345307">
        <ele>374.4</ele>
        <time>2022-08-14T07:00:57Z</time>
      </trkpt>
      <trkpt lat="40.759911" lon="-8.345278">
        <ele>374.8</ele>
        <time>2022-08-14T07:00:58Z</time>
      </trkpt>
      <trkpt lat="40.759904" lon="-8.345248">
        <ele>375</ele>
        <time>2022-08-14T07:00:59Z</time>
      </trkpt>
      <trkpt lat="40.759876" lon="-8.345124">
        <ele>376</ele>
        <time>2022-08-14T07:01:03Z</time>
      </trkpt>
      <trkpt lat="40.759837" lon="-8.345018">
        <ele>377</ele>
        <time>2022-08-14T07:01:07Z</time>
      </trkpt>
      <trkpt lat="40.759825" lon="-8.34499">
        <ele>377.2</ele>
        <time>2022-08-14T07:01:08Z</time>
      </trkpt>
      <trkpt lat="40.759785" lon="-8.344883">
        <ele>378.2</ele>
        <time>2022-08-14T07:01:12Z</time>
      </trkpt>
      <trkpt lat="40.759736" lon="-8.344766">
        <ele>379.2</ele>
        <time>2022-08-14T07:01:16Z</time>
      </trkpt>
      <trkpt lat="40.759709" lon="-8.344711">
        <ele>379.6</ele>
        <time>2022-08-14T07:01:18Z</time>
      </trkpt>
      <trkpt lat="40.759648" lon="-8.344603">
        <ele>380.4</ele>
        <time>2022-08-14T07:01:22Z</time>
      </trkpt>
      <trkpt lat="40.759592" lon="-8.344496">
        <ele>381.2</ele>
        <time>2022-08-14T07:01:26Z</time>
      </trkpt>
      <trkpt lat="40.759583" lon="-8.344471">
        <ele>381.4</ele>
        <time>2022-08-14T07:01:27Z</time>
      </trkpt>
      <trkpt lat="40.759518" lon="-8.344241">
        <ele>382.6</ele>
        <time>2022-08-14T07:01:34Z</time>
      </trkpt>
      <trkpt lat="40.759509" lon="-8.344206">
        <ele>382.8</ele>
        <time>2022-08-14T07:01:35Z</time>
      </trkpt>
      <trkpt lat="40.759494" lon="-8.344173">
        <ele>382.8</ele>
        <time>2022-08-14T07:01:36Z</time>
      </trkpt>
      <trkpt lat="40.759473" lon="-8.344106">
        <ele>383.2</ele>
        <time>2022-08-14T07:01:38Z</time>
      </trkpt>
      <trkpt lat="40.759473" lon="-8.34397">
        <ele>383.8</ele>
        <time>2022-08-14T07:01:42Z</time>
      </trkpt>
      <trkpt lat="40.75949" lon="-8.343872">
        <ele>384.2</ele>
        <time>2022-08-14T07:01:45Z</time>
      </trkpt>
      <trkpt lat="40.759524" lon="-8.343733">
        <ele>384.8</ele>
        <time>2022-08-14T07:01:49Z</time>
      </trkpt>
      <trkpt lat="40.759541" lon="-8.343668">
        <ele>385.2</ele>
        <time>2022-08-14T07:01:51Z</time>
      </trkpt>
      <trkpt lat="40.759614" lon="-8.343534">
        <ele>385.8</ele>
        <time>2022-08-14T07:01:57Z</time>
      </trkpt>
      <trkpt lat="40.759622" lon="-8.343522">
        <ele>386</ele>
        <time>2022-08-14T07:01:58Z</time>
      </trkpt>
      <trkpt lat="40.759632" lon="-8.343502">
        <ele>386.2</ele>
        <time>2022-08-14T07:01:59Z</time>
      </trkpt>
      <trkpt lat="40.759639" lon="-8.343448">
        <ele>386.4</ele>
        <time>2022-08-14T07:02:01Z</time>
      </trkpt>
      <trkpt lat="40.759652" lon="-8.343358">
        <ele>387</ele>
        <time>2022-08-14T07:02:04Z</time>
      </trkpt>
      <trkpt lat="40.759635" lon="-8.343202">
        <ele>387.8</ele>
        <time>2022-08-14T07:02:09Z</time>
      </trkpt>
      <trkpt lat="40.759627" lon="-8.343144">
        <ele>388</ele>
        <time>2022-08-14T07:02:11Z</time>
      </trkpt>
      <trkpt lat="40.759597" lon="-8.343069">
        <ele>388.8</ele>
        <time>2022-08-14T07:02:14Z</time>
      </trkpt>
      <trkpt lat="40.759578" lon="-8.343014">
        <ele>389.2</ele>
        <time>2022-08-14T07:02:16Z</time>
      </trkpt>
      <trkpt lat="40.75951" lon="-8.342892">
        <ele>390.2</ele>
        <time>2022-08-14T07:02:21Z</time>
      </trkpt>
      <trkpt lat="40.759499" lon="-8.342866">
        <ele>390.4</ele>
        <time>2022-08-14T07:02:22Z</time>
      </trkpt>
      <trkpt lat="40.75947" lon="-8.342757">
        <ele>391.4</ele>
        <time>2022-08-14T07:02:26Z</time>
      </trkpt>
      <trkpt lat="40.759474" lon="-8.342697">
        <ele>392</ele>
        <time>2022-08-14T07:02:28Z</time>
      </trkpt>
      <trkpt lat="40.759482" lon="-8.342643">
        <ele>392.4</ele>
        <time>2022-08-14T07:02:30Z</time>
      </trkpt>
      <trkpt lat="40.759531" lon="-8.342547">
        <ele>393.4</ele>
        <time>2022-08-14T07:02:34Z</time>
      </trkpt>
      <trkpt lat="40.759544" lon="-8.342528">
        <ele>393.6</ele>
        <time>2022-08-14T07:02:35Z</time>
      </trkpt>
      <trkpt lat="40.759622" lon="-8.342448">
        <ele>394.4</ele>
        <time>2022-08-14T07:02:40Z</time>
      </trkpt>
      <trkpt lat="40.75966" lon="-8.342412">
        <ele>394.8</ele>
        <time>2022-08-14T07:02:42Z</time>
      </trkpt>
      <trkpt lat="40.759804" lon="-8.342261">
        <ele>395.8</ele>
        <time>2022-08-14T07:02:50Z</time>
      </trkpt>
      <trkpt lat="40.759823" lon="-8.342244">
        <ele>396</ele>
        <time>2022-08-14T07:02:51Z</time>
      </trkpt>
      <trkpt lat="40.759916" lon="-8.342184">
        <ele>397</ele>
        <time>2022-08-14T07:02:56Z</time>
      </trkpt>
      <trkpt lat="40.759959" lon="-8.342158">
        <ele>397.4</ele>
        <time>2022-08-14T07:02:58Z</time>
      </trkpt>
      <trkpt lat="40.760081" lon="-8.342101">
        <ele>398</ele>
        <time>2022-08-14T07:03:03Z</time>
      </trkpt>
      <trkpt lat="40.76016" lon="-8.342078">
        <ele>398.2</ele>
        <time>2022-08-14T07:03:06Z</time>
      </trkpt>
      <trkpt lat="40.760345" lon="-8.342043">
        <ele>399</ele>
        <time>2022-08-14T07:03:13Z</time>
      </trkpt>
      <trkpt lat="40.760485" lon="-8.341889">
        <ele>399.6</ele>
        <time>2022-08-14T07:03:20Z</time>
      </trkpt>
      <trkpt lat="40.760528" lon="-8.341717">
        <ele>400.2</ele>
        <time>2022-08-14T07:03:25Z</time>
      </trkpt>
      <trkpt lat="40.760536" lon="-8.341649">
        <ele>400.4</ele>
        <time>2022-08-14T07:03:27Z</time>
      </trkpt>
      <trkpt lat="40.760594" lon="-8.341466">
        <ele>401.2</ele>
        <time>2022-08-14T07:03:33Z</time>
      </trkpt>
      <trkpt lat="40.760615" lon="-8.341438">
        <ele>401.2</ele>
        <time>2022-08-14T07:03:34Z</time>
      </trkpt>
      <trkpt lat="40.760703" lon="-8.341292">
        <ele>402.4</ele>
        <time>2022-08-14T07:03:40Z</time>
      </trkpt>
      <trkpt lat="40.76072" lon="-8.341238">
        <ele>402.4</ele>
        <time>2022-08-14T07:03:42Z</time>
      </trkpt>
      <trkpt lat="40.76077" lon="-8.341071">
        <ele>403.2</ele>
        <time>2022-08-14T07:03:48Z</time>
      </trkpt>
      <trkpt lat="40.760779" lon="-8.341044">
        <ele>403.2</ele>
        <time>2022-08-14T07:03:49Z</time>
      </trkpt>
      <trkpt lat="40.760865" lon="-8.340855">
        <ele>404</ele>
        <time>2022-08-14T07:03:56Z</time>
      </trkpt>
      <trkpt lat="40.76089" lon="-8.340793">
        <ele>404.2</ele>
        <time>2022-08-14T07:03:58Z</time>
      </trkpt>
      <trkpt lat="40.760938" lon="-8.340679">
        <ele>404.8</ele>
        <time>2022-08-14T07:04:02Z</time>
      </trkpt>
      <trkpt lat="40.761015" lon="-8.340548">
        <ele>405.4</ele>
        <time>2022-08-14T07:04:07Z</time>
      </trkpt>
      <trkpt lat="40.761084" lon="-8.340494">
        <ele>405.6</ele>
        <time>2022-08-14T07:04:10Z</time>
      </trkpt>
      <trkpt lat="40.761273" lon="-8.340458">
        <ele>406</ele>
        <time>2022-08-14T07:04:17Z</time>
      </trkpt>
      <trkpt lat="40.761352" lon="-8.340466">
        <ele>406.4</ele>
        <time>2022-08-14T07:04:20Z</time>
      </trkpt>
      <trkpt lat="40.761485" lon="-8.340453">
        <ele>407.2</ele>
        <time>2022-08-14T07:04:25Z</time>
      </trkpt>
      <trkpt lat="40.761536" lon="-8.340456">
        <ele>407.4</ele>
        <time>2022-08-14T07:04:27Z</time>
      </trkpt>
      <trkpt lat="40.761647" lon="-8.340442">
        <ele>408.4</ele>
        <time>2022-08-14T07:04:32Z</time>
      </trkpt>
      <trkpt lat="40.761774" lon="-8.340331">
        <ele>409.6</ele>
        <time>2022-08-14T07:04:39Z</time>
      </trkpt>
      <trkpt lat="40.761793" lon="-8.340317">
        <ele>409.8</ele>
        <time>2022-08-14T07:04:40Z</time>
      </trkpt>
      <trkpt lat="40.761872" lon="-8.340278">
        <ele>410.6</ele>
        <time>2022-08-14T07:04:44Z</time>
      </trkpt>
      <trkpt lat="40.761953" lon="-8.34025">
        <ele>411.6</ele>
        <time>2022-08-14T07:04:48Z</time>
      </trkpt>
      <trkpt lat="40.761996" lon="-8.340243">
        <ele>412</ele>
        <time>2022-08-14T07:04:50Z</time>
      </trkpt>
      <trkpt lat="40.762085" lon="-8.340233">
        <ele>413</ele>
        <time>2022-08-14T07:04:54Z</time>
      </trkpt>
      <trkpt lat="40.762148" lon="-8.340227">
        <ele>413.4</ele>
        <time>2022-08-14T07:04:57Z</time>
      </trkpt>
      <trkpt lat="40.762207" lon="-8.340212">
        <ele>414</ele>
        <time>2022-08-14T07:05:00Z</time>
      </trkpt>
      <trkpt lat="40.76226" lon="-8.340183">
        <ele>414.6</ele>
        <time>2022-08-14T07:05:03Z</time>
      </trkpt>
      <trkpt lat="40.762319" lon="-8.340162">
        <ele>415.2</ele>
        <time>2022-08-14T07:05:06Z</time>
      </trkpt>
      <trkpt lat="40.762381" lon="-8.340165">
        <ele>415.8</ele>
        <time>2022-08-14T07:05:09Z</time>
      </trkpt>
      <trkpt lat="40.762413" lon="-8.340149">
        <ele>416.2</ele>
        <time>2022-08-14T07:05:11Z</time>
      </trkpt>
      <trkpt lat="40.762459" lon="-8.3401">
        <ele>416.8</ele>
        <time>2022-08-14T07:05:14Z</time>
      </trkpt>
      <trkpt lat="40.762471" lon="-8.340078">
        <ele>417</ele>
        <time>2022-08-14T07:05:15Z</time>
      </trkpt>
      <trkpt lat="40.762484" lon="-8.340061">
        <ele>417.2</ele>
        <time>2022-08-14T07:05:16Z</time>
      </trkpt>
      <trkpt lat="40.762502" lon="-8.340049">
        <ele>417.4</ele>
        <time>2022-08-14T07:05:17Z</time>
      </trkpt>
      <trkpt lat="40.762547" lon="-8.340027">
        <ele>418</ele>
        <time>2022-08-14T07:05:20Z</time>
      </trkpt>
      <trkpt lat="40.762556" lon="-8.34001">
        <ele>418</ele>
        <time>2022-08-14T07:05:21Z</time>
      </trkpt>
      <trkpt lat="40.762568" lon="-8.339963">
        <ele>418.4</ele>
        <time>2022-08-14T07:05:23Z</time>
      </trkpt>
      <trkpt lat="40.762589" lon="-8.339923">
        <ele>419</ele>
        <time>2022-08-14T07:05:25Z</time>
      </trkpt>
      <trkpt lat="40.762623" lon="-8.3399">
        <ele>419.4</ele>
        <time>2022-08-14T07:05:27Z</time>
      </trkpt>
      <trkpt lat="40.762669" lon="-8.339825">
        <ele>420.2</ele>
        <time>2022-08-14T07:05:32Z</time>
      </trkpt>
      <trkpt lat="40.762678" lon="-8.339785">
        <ele>420.6</ele>
        <time>2022-08-14T07:05:34Z</time>
      </trkpt>
      <trkpt lat="40.762687" lon="-8.339772">
        <ele>421</ele>
        <time>2022-08-14T07:05:35Z</time>
      </trkpt>
      <trkpt lat="40.762721" lon="-8.339755">
        <ele>421.2</ele>
        <time>2022-08-14T07:05:37Z</time>
      </trkpt>
      <trkpt lat="40.762757" lon="-8.33972">
        <ele>421.6</ele>
        <time>2022-08-14T07:05:40Z</time>
      </trkpt>
      <trkpt lat="40.762778" lon="-8.33966">
        <ele>422</ele>
        <time>2022-08-14T07:05:43Z</time>
      </trkpt>
      <trkpt lat="40.762815" lon="-8.339598">
        <ele>422.6</ele>
        <time>2022-08-14T07:05:47Z</time>
      </trkpt>
      <trkpt lat="40.762855" lon="-8.33957">
        <ele>423.2</ele>
        <time>2022-08-14T07:05:50Z</time>
      </trkpt>
      <trkpt lat="40.762865" lon="-8.339556">
        <ele>423.2</ele>
        <time>2022-08-14T07:05:51Z</time>
      </trkpt>
      <trkpt lat="40.762876" lon="-8.339527">
        <ele>423.6</ele>
        <time>2022-08-14T07:05:53Z</time>
      </trkpt>
      <trkpt lat="40.762897" lon="-8.3395">
        <ele>424</ele>
        <time>2022-08-14T07:05:55Z</time>
      </trkpt>
      <trkpt lat="40.762934" lon="-8.339458">
        <ele>424.8</ele>
        <time>2022-08-14T07:05:58Z</time>
      </trkpt>
      <trkpt lat="40.762945" lon="-8.339418">
        <ele>425.2</ele>
        <time>2022-08-14T07:06:00Z</time>
      </trkpt>
      <trkpt lat="40.762982" lon="-8.339382">
        <ele>425.8</ele>
        <time>2022-08-14T07:06:03Z</time>
      </trkpt>
      <trkpt lat="40.763006" lon="-8.339328">
        <ele>426.4</ele>
        <time>2022-08-14T07:06:06Z</time>
      </trkpt>
      <trkpt lat="40.763022" lon="-8.339285">
        <ele>426.8</ele>
        <time>2022-08-14T07:06:08Z</time>
      </trkpt>
      <trkpt lat="40.76305" lon="-8.339183">
        <ele>427.6</ele>
        <time>2022-08-14T07:06:13Z</time>
      </trkpt>
      <trkpt lat="40.763053" lon="-8.339161">
        <ele>428</ele>
        <time>2022-08-14T07:06:14Z</time>
      </trkpt>
      <trkpt lat="40.763066" lon="-8.339013">
        <ele>429</ele>
        <time>2022-08-14T07:06:20Z</time>
      </trkpt>
      <trkpt lat="40.763068" lon="-8.338989">
        <ele>429.2</ele>
        <time>2022-08-14T07:06:21Z</time>
      </trkpt>
      <trkpt lat="40.763052" lon="-8.338881">
        <ele>430.2</ele>
        <time>2022-08-14T07:06:26Z</time>
      </trkpt>
      <trkpt lat="40.763041" lon="-8.338861">
        <ele>430.4</ele>
        <time>2022-08-14T07:06:27Z</time>
      </trkpt>
      <trkpt lat="40.762944" lon="-8.338815">
        <ele>430.8</ele>
        <time>2022-08-14T07:06:32Z</time>
      </trkpt>
      <trkpt lat="40.762925" lon="-8.338817">
        <ele>431</ele>
        <time>2022-08-14T07:06:33Z</time>
      </trkpt>
      <trkpt lat="40.762783" lon="-8.338795">
        <ele>431.8</ele>
        <time>2022-08-14T07:06:39Z</time>
      </trkpt>
      <trkpt lat="40.762746" lon="-8.338801">
        <ele>432.2</ele>
        <time>2022-08-14T07:06:41Z</time>
      </trkpt>
      <trkpt lat="40.762666" lon="-8.338811">
        <ele>432.4</ele>
        <time>2022-08-14T07:06:45Z</time>
      </trkpt>
      <trkpt lat="40.762611" lon="-8.338813">
        <ele>433</ele>
        <time>2022-08-14T07:06:48Z</time>
      </trkpt>
      <trkpt lat="40.762573" lon="-8.338797">
        <ele>433</ele>
        <time>2022-08-14T07:06:50Z</time>
      </trkpt>
      <trkpt lat="40.762557" lon="-8.338787">
        <ele>433.2</ele>
        <time>2022-08-14T07:06:51Z</time>
      </trkpt>
      <trkpt lat="40.762472" lon="-8.338782">
        <ele>434.2</ele>
        <time>2022-08-14T07:06:56Z</time>
      </trkpt>
      <trkpt lat="40.762399" lon="-8.338713">
        <ele>434.8</ele>
        <time>2022-08-14T07:07:01Z</time>
      </trkpt>
      <trkpt lat="40.762369" lon="-8.338695">
        <ele>435.4</ele>
        <time>2022-08-14T07:07:03Z</time>
      </trkpt>
      <trkpt lat="40.762341" lon="-8.338675">
        <ele>435.8</ele>
        <time>2022-08-14T07:07:05Z</time>
      </trkpt>
      <trkpt lat="40.762309" lon="-8.338613">
        <ele>436.4</ele>
        <time>2022-08-14T07:07:08Z</time>
      </trkpt>
      <trkpt lat="40.762239" lon="-8.338535">
        <ele>437.6</ele>
        <time>2022-08-14T07:07:14Z</time>
      </trkpt>
      <trkpt lat="40.762232" lon="-8.338517">
        <ele>437.8</ele>
        <time>2022-08-14T07:07:15Z</time>
      </trkpt>
      <trkpt lat="40.76224" lon="-8.338433">
        <ele>438.2</ele>
        <time>2022-08-14T07:07:19Z</time>
      </trkpt>
      <trkpt lat="40.762252" lon="-8.338387">
        <ele>438.6</ele>
        <time>2022-08-14T07:07:21Z</time>
      </trkpt>
      <trkpt lat="40.762246" lon="-8.338297">
        <ele>439.2</ele>
        <time>2022-08-14T07:07:25Z</time>
      </trkpt>
      <trkpt lat="40.762258" lon="-8.338205">
        <ele>440</ele>
        <time>2022-08-14T07:07:29Z</time>
      </trkpt>
      <trkpt lat="40.762266" lon="-8.338159">
        <ele>440</ele>
        <time>2022-08-14T07:07:31Z</time>
      </trkpt>
      <trkpt lat="40.762275" lon="-8.338117">
        <ele>440.4</ele>
        <time>2022-08-14T07:07:33Z</time>
      </trkpt>
      <trkpt lat="40.762272" lon="-8.338048">
        <ele>441</ele>
        <time>2022-08-14T07:07:36Z</time>
      </trkpt>
      <trkpt lat="40.76227" lon="-8.338024">
        <ele>441</ele>
        <time>2022-08-14T07:07:37Z</time>
      </trkpt>
      <trkpt lat="40.762268" lon="-8.338005">
        <ele>441.4</ele>
        <time>2022-08-14T07:07:38Z</time>
      </trkpt>
      <trkpt lat="40.762294" lon="-8.337921">
        <ele>442</ele>
        <time>2022-08-14T07:07:42Z</time>
      </trkpt>
      <trkpt lat="40.762296" lon="-8.337899">
        <ele>442.2</ele>
        <time>2022-08-14T07:07:43Z</time>
      </trkpt>
      <trkpt lat="40.762293" lon="-8.337878">
        <ele>442.4</ele>
        <time>2022-08-14T07:07:44Z</time>
      </trkpt>
      <trkpt lat="40.762286" lon="-8.337809">
        <ele>442.8</ele>
        <time>2022-08-14T07:07:47Z</time>
      </trkpt>
      <trkpt lat="40.76229" lon="-8.337714">
        <ele>443.4</ele>
        <time>2022-08-14T07:07:51Z</time>
      </trkpt>
      <trkpt lat="40.762278" lon="-8.337671">
        <ele>443.8</ele>
        <time>2022-08-14T07:07:53Z</time>
      </trkpt>
      <trkpt lat="40.762266" lon="-8.337629">
        <ele>444.4</ele>
        <time>2022-08-14T07:07:55Z</time>
      </trkpt>
      <trkpt lat="40.762268" lon="-8.337606">
        <ele>444.6</ele>
        <time>2022-08-14T07:07:56Z</time>
      </trkpt>
      <trkpt lat="40.762287" lon="-8.337564">
        <ele>445</ele>
        <time>2022-08-14T07:07:58Z</time>
      </trkpt>
      <trkpt lat="40.762291" lon="-8.337517">
        <ele>445.2</ele>
        <time>2022-08-14T07:08:00Z</time>
      </trkpt>
      <trkpt lat="40.762279" lon="-8.337474">
        <ele>445.6</ele>
        <time>2022-08-14T07:08:02Z</time>
      </trkpt>
      <trkpt lat="40.762273" lon="-8.337454">
        <ele>446</ele>
        <time>2022-08-14T07:08:03Z</time>
      </trkpt>
      <trkpt lat="40.762289" lon="-8.337343">
        <ele>446.6</ele>
        <time>2022-08-14T07:08:08Z</time>
      </trkpt>
      <trkpt lat="40.762287" lon="-8.33732">
        <ele>446.8</ele>
        <time>2022-08-14T07:08:09Z</time>
      </trkpt>
      <trkpt lat="40.7623" lon="-8.337156">
        <ele>447.8</ele>
        <time>2022-08-14T07:08:16Z</time>
      </trkpt>
      <trkpt lat="40.762326" lon="-8.337032">
        <ele>448.6</ele>
        <time>2022-08-14T07:08:22Z</time>
      </trkpt>
      <trkpt lat="40.762332" lon="-8.336978">
        <ele>449.2</ele>
        <time>2022-08-14T07:08:24Z</time>
      </trkpt>
      <trkpt lat="40.762345" lon="-8.33678">
        <ele>450.2</ele>
        <time>2022-08-14T07:08:32Z</time>
      </trkpt>
      <trkpt lat="40.762268" lon="-8.336627">
        <ele>450.8</ele>
        <time>2022-08-14T07:08:39Z</time>
      </trkpt>
      <trkpt lat="40.762235" lon="-8.336601">
        <ele>451</ele>
        <time>2022-08-14T07:08:41Z</time>
      </trkpt>
      <trkpt lat="40.76217" lon="-8.336499">
        <ele>452</ele>
        <time>2022-08-14T07:08:46Z</time>
      </trkpt>
      <trkpt lat="40.762149" lon="-8.336454">
        <ele>452</ele>
        <time>2022-08-14T07:08:48Z</time>
      </trkpt>
      <trkpt lat="40.762099" lon="-8.336418">
        <ele>452.4</ele>
        <time>2022-08-14T07:08:51Z</time>
      </trkpt>
      <trkpt lat="40.762001" lon="-8.336345">
        <ele>453.2</ele>
        <time>2022-08-14T07:08:57Z</time>
      </trkpt>
      <trkpt lat="40.761993" lon="-8.336322">
        <ele>453.2</ele>
        <time>2022-08-14T07:08:58Z</time>
      </trkpt>
      <trkpt lat="40.761968" lon="-8.336114">
        <ele>454.2</ele>
        <time>2022-08-14T07:09:06Z</time>
      </trkpt>
      <trkpt lat="40.761972" lon="-8.336087">
        <ele>454.4</ele>
        <time>2022-08-14T07:09:07Z</time>
      </trkpt>
      <trkpt lat="40.761978" lon="-8.335967">
        <ele>454.8</ele>
        <time>2022-08-14T07:09:12Z</time>
      </trkpt>
      <trkpt lat="40.761941" lon="-8.335839">
        <ele>455.4</ele>
        <time>2022-08-14T07:09:18Z</time>
      </trkpt>
      <trkpt lat="40.761888" lon="-8.33566">
        <ele>456.4</ele>
        <time>2022-08-14T07:09:26Z</time>
      </trkpt>
      <trkpt lat="40.761881" lon="-8.335638">
        <ele>456.6</ele>
        <time>2022-08-14T07:09:27Z</time>
      </trkpt>
      <trkpt lat="40.761836" lon="-8.335539">
        <ele>457.6</ele>
        <time>2022-08-14T07:09:32Z</time>
      </trkpt>
      <trkpt lat="40.761821" lon="-8.335523">
        <ele>457.6</ele>
        <time>2022-08-14T07:09:33Z</time>
      </trkpt>
      <trkpt lat="40.761784" lon="-8.335419">
        <ele>458.6</ele>
        <time>2022-08-14T07:09:38Z</time>
      </trkpt>
      <trkpt lat="40.761776" lon="-8.335402">
        <ele>458.8</ele>
        <time>2022-08-14T07:09:39Z</time>
      </trkpt>
      <trkpt lat="40.761728" lon="-8.335325">
        <ele>459.8</ele>
        <time>2022-08-14T07:09:44Z</time>
      </trkpt>
      <trkpt lat="40.761718" lon="-8.33531">
        <ele>459.8</ele>
        <time>2022-08-14T07:09:45Z</time>
      </trkpt>
      <trkpt lat="40.761691" lon="-8.335226">
        <ele>460.8</ele>
        <time>2022-08-14T07:09:50Z</time>
      </trkpt>
      <trkpt lat="40.761673" lon="-8.335191">
        <ele>461.4</ele>
        <time>2022-08-14T07:09:52Z</time>
      </trkpt>
      <trkpt lat="40.761646" lon="-8.335136">
        <ele>462</ele>
        <time>2022-08-14T07:09:55Z</time>
      </trkpt>
      <trkpt lat="40.761603" lon="-8.335054">
        <ele>463.4</ele>
        <time>2022-08-14T07:10:00Z</time>
      </trkpt>
      <trkpt lat="40.761591" lon="-8.335019">
        <ele>463.6</ele>
        <time>2022-08-14T07:10:02Z</time>
      </trkpt>
      <trkpt lat="40.761569" lon="-8.334913">
        <ele>464.4</ele>
        <time>2022-08-14T07:10:07Z</time>
      </trkpt>
      <trkpt lat="40.761547" lon="-8.334842">
        <ele>465</ele>
        <time>2022-08-14T07:10:10Z</time>
      </trkpt>
      <trkpt lat="40.761534" lon="-8.33477">
        <ele>465.4</ele>
        <time>2022-08-14T07:10:13Z</time>
      </trkpt>
      <trkpt lat="40.761508" lon="-8.334599">
        <ele>466.6</ele>
        <time>2022-08-14T07:10:20Z</time>
      </trkpt>
      <trkpt lat="40.761504" lon="-8.334575">
        <ele>467</ele>
        <time>2022-08-14T07:10:21Z</time>
      </trkpt>
      <trkpt lat="40.761503" lon="-8.334434">
        <ele>467.6</ele>
        <time>2022-08-14T07:10:27Z</time>
      </trkpt>
      <trkpt lat="40.761498" lon="-8.334391">
        <ele>468</ele>
        <time>2022-08-14T07:10:29Z</time>
      </trkpt>
      <trkpt lat="40.761482" lon="-8.334215">
        <ele>468.6</ele>
        <time>2022-08-14T07:10:36Z</time>
      </trkpt>
      <trkpt lat="40.761463" lon="-8.333988">
        <ele>469.4</ele>
        <time>2022-08-14T07:10:44Z</time>
      </trkpt>
      <trkpt lat="40.761464" lon="-8.33388">
        <ele>469.6</ele>
        <time>2022-08-14T07:10:48Z</time>
      </trkpt>
      <trkpt lat="40.761475" lon="-8.333862">
        <ele>469.6</ele>
        <time>2022-08-14T07:10:49Z</time>
      </trkpt>
      <trkpt lat="40.761493" lon="-8.333816">
        <ele>469.6</ele>
        <time>2022-08-14T07:10:51Z</time>
      </trkpt>
      <trkpt lat="40.761488" lon="-8.333737">
        <ele>469.8</ele>
        <time>2022-08-14T07:10:54Z</time>
      </trkpt>
      <trkpt lat="40.761488" lon="-8.333499">
        <ele>470</ele>
        <time>2022-08-14T07:11:02Z</time>
      </trkpt>
      <trkpt lat="40.761553" lon="-8.333234">
        <ele>470.4</ele>
        <time>2022-08-14T07:11:11Z</time>
      </trkpt>
      <trkpt lat="40.761584" lon="-8.333165">
        <ele>470.4</ele>
        <time>2022-08-14T07:11:14Z</time>
      </trkpt>
      <trkpt lat="40.761633" lon="-8.333052">
        <ele>470.6</ele>
        <time>2022-08-14T07:11:18Z</time>
      </trkpt>
      <trkpt lat="40.76178" lon="-8.332773">
        <ele>471.2</ele>
        <time>2022-08-14T07:11:28Z</time>
      </trkpt>
      <trkpt lat="40.761918" lon="-8.332599">
        <ele>471.6</ele>
        <time>2022-08-14T07:11:35Z</time>
      </trkpt>
      <trkpt lat="40.76198" lon="-8.33254">
        <ele>471.6</ele>
        <time>2022-08-14T07:11:38Z</time>
      </trkpt>
      <trkpt lat="40.762132" lon="-8.33246">
        <ele>472</ele>
        <time>2022-08-14T07:11:45Z</time>
      </trkpt>
      <trkpt lat="40.7623" lon="-8.332419">
        <ele>472.6</ele>
        <time>2022-08-14T07:11:53Z</time>
      </trkpt>
      <trkpt lat="40.762476" lon="-8.332398">
        <ele>473.8</ele>
        <time>2022-08-14T07:12:01Z</time>
      </trkpt>
      <trkpt lat="40.762518" lon="-8.332382">
        <ele>474</ele>
        <time>2022-08-14T07:12:03Z</time>
      </trkpt>
      <trkpt lat="40.762628" lon="-8.332321">
        <ele>475</ele>
        <time>2022-08-14T07:12:08Z</time>
      </trkpt>
      <trkpt lat="40.762735" lon="-8.332271">
        <ele>475.6</ele>
        <time>2022-08-14T07:12:13Z</time>
      </trkpt>
      <trkpt lat="40.762809" lon="-8.33227">
        <ele>476</ele>
        <time>2022-08-14T07:12:17Z</time>
      </trkpt>
      <trkpt lat="40.762869" lon="-8.332268">
        <ele>476.4</ele>
        <time>2022-08-14T07:12:20Z</time>
      </trkpt>
      <trkpt lat="40.762901" lon="-8.332261">
        <ele>477</ele>
        <time>2022-08-14T07:12:22Z</time>
      </trkpt>
      <trkpt lat="40.762958" lon="-8.332295">
        <ele>477.6</ele>
        <time>2022-08-14T07:12:25Z</time>
      </trkpt>
      <trkpt lat="40.763032" lon="-8.332314">
        <ele>478.4</ele>
        <time>2022-08-14T07:12:28Z</time>
      </trkpt>
      <trkpt lat="40.763178" lon="-8.332374">
        <ele>479.2</ele>
        <time>2022-08-14T07:12:34Z</time>
      </trkpt>
      <trkpt lat="40.763236" lon="-8.332383">
        <ele>479.4</ele>
        <time>2022-08-14T07:12:36Z</time>
      </trkpt>
      <trkpt lat="40.763384" lon="-8.332383">
        <ele>479.8</ele>
        <time>2022-08-14T07:12:41Z</time>
      </trkpt>
      <trkpt lat="40.763631" lon="-8.332359">
        <ele>480.2</ele>
        <time>2022-08-14T07:12:50Z</time>
      </trkpt>
      <trkpt lat="40.763702" lon="-8.332368">
        <ele>480.4</ele>
        <time>2022-08-14T07:12:53Z</time>
      </trkpt>
      <trkpt lat="40.763799" lon="-8.332369">
        <ele>481.4</ele>
        <time>2022-08-14T07:12:57Z</time>
      </trkpt>
      <trkpt lat="40.763844" lon="-8.332374">
        <ele>481.8</ele>
        <time>2022-08-14T07:12:59Z</time>
      </trkpt>
      <trkpt lat="40.763927" lon="-8.332396">
        <ele>482.2</ele>
        <time>2022-08-14T07:13:03Z</time>
      </trkpt>
      <trkpt lat="40.764003" lon="-8.332403">
        <ele>482.8</ele>
        <time>2022-08-14T07:13:06Z</time>
      </trkpt>
      <trkpt lat="40.76417" lon="-8.332437">
        <ele>483.8</ele>
        <time>2022-08-14T07:13:12Z</time>
      </trkpt>
      <trkpt lat="40.764204" lon="-8.332451">
        <ele>484</ele>
        <time>2022-08-14T07:13:13Z</time>
      </trkpt>
      <trkpt lat="40.764396" lon="-8.332525">
        <ele>484.2</ele>
        <time>2022-08-14T07:13:18Z</time>
      </trkpt>
      <trkpt lat="40.764548" lon="-8.332437">
        <ele>483.8</ele>
        <time>2022-08-14T07:13:22Z</time>
      </trkpt>
      <trkpt lat="40.7648" lon="-8.332235">
        <ele>483.2</ele>
        <time>2022-08-14T07:13:29Z</time>
      </trkpt>
      <trkpt lat="40.764937" lon="-8.332134">
        <ele>483.2</ele>
        <time>2022-08-14T07:13:34Z</time>
      </trkpt>
      <trkpt lat="40.765112" lon="-8.332035">
        <ele>483.2</ele>
        <time>2022-08-14T07:13:39Z</time>
      </trkpt>
      <trkpt lat="40.765152" lon="-8.332012">
        <ele>483.2</ele>
        <time>2022-08-14T07:13:40Z</time>
      </trkpt>
      <trkpt lat="40.765276" lon="-8.331973">
        <ele>483</ele>
        <time>2022-08-14T07:13:43Z</time>
      </trkpt>
      <trkpt lat="40.765368" lon="-8.33197">
        <ele>482.6</ele>
        <time>2022-08-14T07:13:45Z</time>
      </trkpt>
      <trkpt lat="40.765497" lon="-8.332065">
        <ele>482.2</ele>
        <time>2022-08-14T07:13:48Z</time>
      </trkpt>
      <trkpt lat="40.765535" lon="-8.332106">
        <ele>482.2</ele>
        <time>2022-08-14T07:13:49Z</time>
      </trkpt>
      <trkpt lat="40.765605" lon="-8.332189">
        <ele>481.6</ele>
        <time>2022-08-14T07:13:51Z</time>
      </trkpt>
      <trkpt lat="40.76576" lon="-8.332392">
        <ele>480.4</ele>
        <time>2022-08-14T07:13:56Z</time>
      </trkpt>
      <trkpt lat="40.765846" lon="-8.332513">
        <ele>480.2</ele>
        <time>2022-08-14T07:13:59Z</time>
      </trkpt>
      <trkpt lat="40.765983" lon="-8.332698">
        <ele>480</ele>
        <time>2022-08-14T07:14:04Z</time>
      </trkpt>
      <trkpt lat="40.766055" lon="-8.332796">
        <ele>480</ele>
        <time>2022-08-14T07:14:07Z</time>
      </trkpt>
      <trkpt lat="40.766193" lon="-8.332958">
        <ele>480.4</ele>
        <time>2022-08-14T07:14:13Z</time>
      </trkpt>
      <trkpt lat="40.766324" lon="-8.333059">
        <ele>481.2</ele>
        <time>2022-08-14T07:14:19Z</time>
      </trkpt>
      <trkpt lat="40.766395" lon="-8.333106">
        <ele>481.6</ele>
        <time>2022-08-14T07:14:22Z</time>
      </trkpt>
      <trkpt lat="40.766523" lon="-8.333196">
        <ele>482.6</ele>
        <time>2022-08-14T07:14:28Z</time>
      </trkpt>
      <trkpt lat="40.76661" lon="-8.333282">
        <ele>483.2</ele>
        <time>2022-08-14T07:14:33Z</time>
      </trkpt>
      <trkpt lat="40.766657" lon="-8.333322">
        <ele>483.6</ele>
        <time>2022-08-14T07:14:36Z</time>
      </trkpt>
      <trkpt lat="40.766739" lon="-8.333394">
        <ele>484.2</ele>
        <time>2022-08-14T07:14:40Z</time>
      </trkpt>
      <trkpt lat="40.766884" lon="-8.33345">
        <ele>484.6</ele>
        <time>2022-08-14T07:14:45Z</time>
      </trkpt>
      <trkpt lat="40.766927" lon="-8.333445">
        <ele>484.8</ele>
        <time>2022-08-14T07:14:46Z</time>
      </trkpt>
      <trkpt lat="40.767063" lon="-8.333471">
        <ele>484.6</ele>
        <time>2022-08-14T07:14:50Z</time>
      </trkpt>
      <trkpt lat="40.767096" lon="-8.3335">
        <ele>484.8</ele>
        <time>2022-08-14T07:14:51Z</time>
      </trkpt>
      <trkpt lat="40.767323" lon="-8.333534">
        <ele>484.6</ele>
        <time>2022-08-14T07:14:57Z</time>
      </trkpt>
      <trkpt lat="40.767634" lon="-8.33349">
        <ele>484.4</ele>
        <time>2022-08-14T07:15:03Z</time>
      </trkpt>
      <trkpt lat="40.767687" lon="-8.33345">
        <ele>484.2</ele>
        <time>2022-08-14T07:15:04Z</time>
      </trkpt>
      <trkpt lat="40.767868" lon="-8.33335">
        <ele>483.4</ele>
        <time>2022-08-14T07:15:07Z</time>
      </trkpt>
      <trkpt lat="40.76793" lon="-8.33332">
        <ele>483.2</ele>
        <time>2022-08-14T07:15:08Z</time>
      </trkpt>
      <trkpt lat="40.768113" lon="-8.33324">
        <ele>482.2</ele>
        <time>2022-08-14T07:15:11Z</time>
      </trkpt>
      <trkpt lat="40.768304" lon="-8.333177">
        <ele>480.8</ele>
        <time>2022-08-14T07:15:14Z</time>
      </trkpt>
      <trkpt lat="40.768527" lon="-8.333136">
        <ele>480</ele>
        <time>2022-08-14T07:15:17Z</time>
      </trkpt>
      <trkpt lat="40.768604" lon="-8.333102">
        <ele>479.8</ele>
        <time>2022-08-14T07:15:18Z</time>
      </trkpt>
      <trkpt lat="40.768684" lon="-8.333065">
        <ele>479.4</ele>
        <time>2022-08-14T07:15:19Z</time>
      </trkpt>
      <trkpt lat="40.768755" lon="-8.333036">
        <ele>478.6</ele>
        <time>2022-08-14T07:15:20Z</time>
      </trkpt>
      <trkpt lat="40.768824" lon="-8.333009">
        <ele>478</ele>
        <time>2022-08-14T07:15:21Z</time>
      </trkpt>
      <trkpt lat="40.768893" lon="-8.332975">
        <ele>477.6</ele>
        <time>2022-08-14T07:15:22Z</time>
      </trkpt>
      <trkpt lat="40.768969" lon="-8.33294">
        <ele>477.2</ele>
        <time>2022-08-14T07:15:23Z</time>
      </trkpt>
      <trkpt lat="40.769146" lon="-8.332893">
        <ele>476.4</ele>
        <time>2022-08-14T07:15:25Z</time>
      </trkpt>
      <trkpt lat="40.769241" lon="-8.332877">
        <ele>476</ele>
        <time>2022-08-14T07:15:26Z</time>
      </trkpt>
      <trkpt lat="40.769336" lon="-8.332875">
        <ele>475.2</ele>
        <time>2022-08-14T07:15:27Z</time>
      </trkpt>
      <trkpt lat="40.769525" lon="-8.332887">
        <ele>474.2</ele>
        <time>2022-08-14T07:15:29Z</time>
      </trkpt>
      <trkpt lat="40.769714" lon="-8.332856">
        <ele>473.4</ele>
        <time>2022-08-14T07:15:31Z</time>
      </trkpt>
      <trkpt lat="40.769806" lon="-8.332832">
        <ele>472.8</ele>
        <time>2022-08-14T07:15:32Z</time>
      </trkpt>
      <trkpt lat="40.769991" lon="-8.332762">
        <ele>471.8</ele>
        <time>2022-08-14T07:15:34Z</time>
      </trkpt>
      <trkpt lat="40.770082" lon="-8.332723">
        <ele>471</ele>
        <time>2022-08-14T07:15:35Z</time>
      </trkpt>
      <trkpt lat="40.770173" lon="-8.332681">
        <ele>470.8</ele>
        <time>2022-08-14T07:15:36Z</time>
      </trkpt>
      <trkpt lat="40.770265" lon="-8.332635">
        <ele>469.8</ele>
        <time>2022-08-14T07:15:37Z</time>
      </trkpt>
      <trkpt lat="40.770357" lon="-8.332604">
        <ele>469.4</ele>
        <time>2022-08-14T07:15:38Z</time>
      </trkpt>
      <trkpt lat="40.770453" lon="-8.332594">
        <ele>468.6</ele>
        <time>2022-08-14T07:15:39Z</time>
      </trkpt>
      <trkpt lat="40.770621" lon="-8.332605">
        <ele>468</ele>
        <time>2022-08-14T07:15:41Z</time>
      </trkpt>
      <trkpt lat="40.770689" lon="-8.332618">
        <ele>467</ele>
        <time>2022-08-14T07:15:42Z</time>
      </trkpt>
      <trkpt lat="40.770748" lon="-8.332628">
        <ele>466.6</ele>
        <time>2022-08-14T07:15:43Z</time>
      </trkpt>
      <trkpt lat="40.770802" lon="-8.33263">
        <ele>465.6</ele>
        <time>2022-08-14T07:15:44Z</time>
      </trkpt>
      <trkpt lat="40.770908" lon="-8.332629">
        <ele>464.4</ele>
        <time>2022-08-14T07:15:46Z</time>
      </trkpt>
      <trkpt lat="40.77096" lon="-8.332626">
        <ele>464</ele>
        <time>2022-08-14T07:15:47Z</time>
      </trkpt>
      <trkpt lat="40.771005" lon="-8.332614">
        <ele>463.2</ele>
        <time>2022-08-14T07:15:48Z</time>
      </trkpt>
      <trkpt lat="40.771076" lon="-8.332575">
        <ele>462</ele>
        <time>2022-08-14T07:15:50Z</time>
      </trkpt>
      <trkpt lat="40.771103" lon="-8.332557">
        <ele>461.4</ele>
        <time>2022-08-14T07:15:51Z</time>
      </trkpt>
      <trkpt lat="40.771137" lon="-8.332501">
        <ele>460.6</ele>
        <time>2022-08-14T07:15:53Z</time>
      </trkpt>
      <trkpt lat="40.771145" lon="-8.332489">
        <ele>459.6</ele>
        <time>2022-08-14T07:15:55Z</time>
      </trkpt>
      <trkpt lat="40.771149" lon="-8.332487">
        <ele>459.2</ele>
        <time>2022-08-14T07:15:56Z</time>
      </trkpt>
      <trkpt lat="40.771149" lon="-8.332487">
        <ele>459</ele>
        <time>2022-08-14T07:15:57Z</time>
      </trkpt>
      <trkpt lat="40.771149" lon="-8.332487">
        <ele>458.6</ele>
        <time>2022-08-14T07:15:59Z</time>
      </trkpt>
      <trkpt lat="40.77111" lon="-8.33225">
        <ele>457.6</ele>
        <time>2022-08-14T07:16:22Z</time>
      </trkpt>
      <trkpt lat="40.771089" lon="-8.332208">
        <ele>457.6</ele>
        <time>2022-08-14T07:16:24Z</time>
      </trkpt>
      <trkpt lat="40.770968" lon="-8.332129">
        <ele>457.6</ele>
        <time>2022-08-14T07:16:29Z</time>
      </trkpt>
      <trkpt lat="40.77084" lon="-8.332086">
        <ele>458</ele>
        <time>2022-08-14T07:16:34Z</time>
      </trkpt>
      <trkpt lat="40.770793" lon="-8.332061">
        <ele>458.4</ele>
        <time>2022-08-14T07:16:36Z</time>
      </trkpt>
      <trkpt lat="40.770662" lon="-8.332018">
        <ele>458.6</ele>
        <time>2022-08-14T07:16:41Z</time>
      </trkpt>
      <trkpt lat="40.770532" lon="-8.331934">
        <ele>459.2</ele>
        <time>2022-08-14T07:16:46Z</time>
      </trkpt>
      <trkpt lat="40.770507" lon="-8.331921">
        <ele>459.2</ele>
        <time>2022-08-14T07:16:47Z</time>
      </trkpt>
      <trkpt lat="40.770365" lon="-8.331854">
        <ele>459.4</ele>
        <time>2022-08-14T07:16:52Z</time>
      </trkpt>
      <trkpt lat="40.770125" lon="-8.331762">
        <ele>460.2</ele>
        <time>2022-08-14T07:17:00Z</time>
      </trkpt>
      <trkpt lat="40.769934" lon="-8.331701">
        <ele>460.6</ele>
        <time>2022-08-14T07:17:06Z</time>
      </trkpt>
      <trkpt lat="40.769913" lon="-8.33169">
        <ele>460.6</ele>
        <time>2022-08-14T07:17:07Z</time>
      </trkpt>
      <trkpt lat="40.769757" lon="-8.331634">
        <ele>460.8</ele>
        <time>2022-08-14T07:17:12Z</time>
      </trkpt>
      <trkpt lat="40.769489" lon="-8.331536">
        <ele>461</ele>
        <time>2022-08-14T07:17:20Z</time>
      </trkpt>
      <trkpt lat="40.769389" lon="-8.331496">
        <ele>461</ele>
        <time>2022-08-14T07:17:23Z</time>
      </trkpt>
      <trkpt lat="40.769271" lon="-8.331438">
        <ele>461</ele>
        <time>2022-08-14T07:17:27Z</time>
      </trkpt>
      <trkpt lat="40.769059" lon="-8.33136">
        <ele>461.2</ele>
        <time>2022-08-14T07:17:33Z</time>
      </trkpt>
      <trkpt lat="40.768887" lon="-8.33128">
        <ele>461.4</ele>
        <time>2022-08-14T07:17:38Z</time>
      </trkpt>
      <trkpt lat="40.768706" lon="-8.331199">
        <ele>461.8</ele>
        <time>2022-08-14T07:17:43Z</time>
      </trkpt>
      <trkpt lat="40.768676" lon="-8.331172">
        <ele>461.8</ele>
        <time>2022-08-14T07:17:44Z</time>
      </trkpt>
      <trkpt lat="40.768572" lon="-8.331006">
        <ele>462</ele>
        <time>2022-08-14T07:17:49Z</time>
      </trkpt>
      <trkpt lat="40.768529" lon="-8.330867">
        <ele>462.2</ele>
        <time>2022-08-14T07:17:53Z</time>
      </trkpt>
      <trkpt lat="40.768512" lon="-8.330783">
        <ele>462.4</ele>
        <time>2022-08-14T07:17:55Z</time>
      </trkpt>
      <trkpt lat="40.768428" lon="-8.330508">
        <ele>462.8</ele>
        <time>2022-08-14T07:18:02Z</time>
      </trkpt>
      <trkpt lat="40.768411" lon="-8.330471">
        <ele>463</ele>
        <time>2022-08-14T07:18:03Z</time>
      </trkpt>
      <trkpt lat="40.76825" lon="-8.33022">
        <ele>463.8</ele>
        <time>2022-08-14T07:18:11Z</time>
      </trkpt>
      <trkpt lat="40.768225" lon="-8.330193">
        <ele>464</ele>
        <time>2022-08-14T07:18:12Z</time>
      </trkpt>
      <trkpt lat="40.768146" lon="-8.330083">
        <ele>464.6</ele>
        <time>2022-08-14T07:18:16Z</time>
      </trkpt>
      <trkpt lat="40.768052" lon="-8.32996">
        <ele>464.8</ele>
        <time>2022-08-14T07:18:20Z</time>
      </trkpt>
      <trkpt lat="40.768024" lon="-8.329929">
        <ele>465</ele>
        <time>2022-08-14T07:18:21Z</time>
      </trkpt>
      <trkpt lat="40.767906" lon="-8.329765">
        <ele>465.6</ele>
        <time>2022-08-14T07:18:26Z</time>
      </trkpt>
      <trkpt lat="40.767848" lon="-8.329688">
        <ele>465.8</ele>
        <time>2022-08-14T07:18:28Z</time>
      </trkpt>
      <trkpt lat="40.767764" lon="-8.329483">
        <ele>466.6</ele>
        <time>2022-08-14T07:18:33Z</time>
      </trkpt>
      <trkpt lat="40.767747" lon="-8.329397">
        <ele>467</ele>
        <time>2022-08-14T07:18:35Z</time>
      </trkpt>
      <trkpt lat="40.767722" lon="-8.329189">
        <ele>467.4</ele>
        <time>2022-08-14T07:18:40Z</time>
      </trkpt>
      <trkpt lat="40.767734" lon="-8.328928">
        <ele>468</ele>
        <time>2022-08-14T07:18:46Z</time>
      </trkpt>
      <trkpt lat="40.767761" lon="-8.328841">
        <ele>468.2</ele>
        <time>2022-08-14T07:18:48Z</time>
      </trkpt>
      <trkpt lat="40.767811" lon="-8.328633">
        <ele>468.4</ele>
        <time>2022-08-14T07:18:53Z</time>
      </trkpt>
      <trkpt lat="40.767874" lon="-8.328559">
        <ele>468.4</ele>
        <time>2022-08-14T07:18:55Z</time>
      </trkpt>
      <trkpt lat="40.767972" lon="-8.328496">
        <ele>468.4</ele>
        <time>2022-08-14T07:18:57Z</time>
      </trkpt>
      <trkpt lat="40.76823" lon="-8.328293">
        <ele>467.6</ele>
        <time>2022-08-14T07:19:02Z</time>
      </trkpt>
      <trkpt lat="40.768278" lon="-8.328235">
        <ele>467</ele>
        <time>2022-08-14T07:19:03Z</time>
      </trkpt>
      <trkpt lat="40.768318" lon="-8.328182">
        <ele>466.8</ele>
        <time>2022-08-14T07:19:04Z</time>
      </trkpt>
      <trkpt lat="40.768357" lon="-8.328119">
        <ele>466.4</ele>
        <time>2022-08-14T07:19:05Z</time>
      </trkpt>
      <trkpt lat="40.768438" lon="-8.32798">
        <ele>465.4</ele>
        <time>2022-08-14T07:19:07Z</time>
      </trkpt>
      <trkpt lat="40.768564" lon="-8.327854">
        <ele>465</ele>
        <time>2022-08-14T07:19:09Z</time>
      </trkpt>
      <trkpt lat="40.768642" lon="-8.327801">
        <ele>464.8</ele>
        <time>2022-08-14T07:19:10Z</time>
      </trkpt>
      <trkpt lat="40.768724" lon="-8.327761">
        <ele>464.6</ele>
        <time>2022-08-14T07:19:11Z</time>
      </trkpt>
      <trkpt lat="40.768892" lon="-8.327675">
        <ele>464.2</ele>
        <time>2022-08-14T07:19:13Z</time>
      </trkpt>
      <trkpt lat="40.768962" lon="-8.327599">
        <ele>463.6</ele>
        <time>2022-08-14T07:19:14Z</time>
      </trkpt>
      <trkpt lat="40.76902" lon="-8.327497">
        <ele>463.2</ele>
        <time>2022-08-14T07:19:15Z</time>
      </trkpt>
      <trkpt lat="40.769071" lon="-8.32739">
        <ele>461.6</ele>
        <time>2022-08-14T07:19:16Z</time>
      </trkpt>
      <trkpt lat="40.769159" lon="-8.327196">
        <ele>460.6</ele>
        <time>2022-08-14T07:19:18Z</time>
      </trkpt>
      <trkpt lat="40.769286" lon="-8.32705">
        <ele>459.2</ele>
        <time>2022-08-14T07:19:20Z</time>
      </trkpt>
      <trkpt lat="40.769338" lon="-8.326978">
        <ele>458.4</ele>
        <time>2022-08-14T07:19:21Z</time>
      </trkpt>
      <trkpt lat="40.769381" lon="-8.32689">
        <ele>457.8</ele>
        <time>2022-08-14T07:19:22Z</time>
      </trkpt>
      <trkpt lat="40.769412" lon="-8.32679">
        <ele>456.6</ele>
        <time>2022-08-14T07:19:23Z</time>
      </trkpt>
      <trkpt lat="40.769424" lon="-8.326674">
        <ele>456.4</ele>
        <time>2022-08-14T07:19:24Z</time>
      </trkpt>
      <trkpt lat="40.76942" lon="-8.326544">
        <ele>455.2</ele>
        <time>2022-08-14T07:19:25Z</time>
      </trkpt>
      <trkpt lat="40.769412" lon="-8.326416">
        <ele>453.6</ele>
        <time>2022-08-14T07:19:26Z</time>
      </trkpt>
      <trkpt lat="40.769408" lon="-8.326287">
        <ele>453</ele>
        <time>2022-08-14T07:19:27Z</time>
      </trkpt>
      <trkpt lat="40.769419" lon="-8.326169">
        <ele>451.6</ele>
        <time>2022-08-14T07:19:28Z</time>
      </trkpt>
      <trkpt lat="40.769448" lon="-8.326065">
        <ele>451</ele>
        <time>2022-08-14T07:19:29Z</time>
      </trkpt>
      <trkpt lat="40.769493" lon="-8.325974">
        <ele>449.8</ele>
        <time>2022-08-14T07:19:30Z</time>
      </trkpt>
      <trkpt lat="40.76955" lon="-8.325905">
        <ele>449.4</ele>
        <time>2022-08-14T07:19:31Z</time>
      </trkpt>
      <trkpt lat="40.769607" lon="-8.325848">
        <ele>448.4</ele>
        <time>2022-08-14T07:19:32Z</time>
      </trkpt>
      <trkpt lat="40.769659" lon="-8.325775">
        <ele>447</ele>
        <time>2022-08-14T07:19:33Z</time>
      </trkpt>
      <trkpt lat="40.769668" lon="-8.325687">
        <ele>446.2</ele>
        <time>2022-08-14T07:19:34Z</time>
      </trkpt>
      <trkpt lat="40.769644" lon="-8.325593">
        <ele>445.4</ele>
        <time>2022-08-14T07:19:35Z</time>
      </trkpt>
      <trkpt lat="40.769592" lon="-8.325518">
        <ele>445.2</ele>
        <time>2022-08-14T07:19:36Z</time>
      </trkpt>
      <trkpt lat="40.769539" lon="-8.325463">
        <ele>444.2</ele>
        <time>2022-08-14T07:19:37Z</time>
      </trkpt>
      <trkpt lat="40.769431" lon="-8.325356">
        <ele>442.6</ele>
        <time>2022-08-14T07:19:39Z</time>
      </trkpt>
      <trkpt lat="40.769284" lon="-8.325176">
        <ele>441.4</ele>
        <time>2022-08-14T07:19:42Z</time>
      </trkpt>
      <trkpt lat="40.769239" lon="-8.325114">
        <ele>441.2</ele>
        <time>2022-08-14T07:19:43Z</time>
      </trkpt>
      <trkpt lat="40.769056" lon="-8.324871">
        <ele>440.2</ele>
        <time>2022-08-14T07:19:47Z</time>
      </trkpt>
      <trkpt lat="40.768973" lon="-8.324757">
        <ele>439</ele>
        <time>2022-08-14T07:19:49Z</time>
      </trkpt>
      <trkpt lat="40.768903" lon="-8.324622">
        <ele>438.4</ele>
        <time>2022-08-14T07:19:51Z</time>
      </trkpt>
      <trkpt lat="40.768872" lon="-8.324545">
        <ele>438</ele>
        <time>2022-08-14T07:19:52Z</time>
      </trkpt>
      <trkpt lat="40.76885" lon="-8.324464">
        <ele>437.6</ele>
        <time>2022-08-14T07:19:53Z</time>
      </trkpt>
      <trkpt lat="40.768827" lon="-8.324381">
        <ele>437.6</ele>
        <time>2022-08-14T07:19:54Z</time>
      </trkpt>
      <trkpt lat="40.768804" lon="-8.324302">
        <ele>436.8</ele>
        <time>2022-08-14T07:19:55Z</time>
      </trkpt>
      <trkpt lat="40.768775" lon="-8.324225">
        <ele>436.2</ele>
        <time>2022-08-14T07:19:56Z</time>
      </trkpt>
      <trkpt lat="40.768671" lon="-8.323965">
        <ele>434.6</ele>
        <time>2022-08-14T07:20:00Z</time>
      </trkpt>
      <trkpt lat="40.768655" lon="-8.32391">
        <ele>434.4</ele>
        <time>2022-08-14T07:20:01Z</time>
      </trkpt>
      <trkpt lat="40.76864" lon="-8.323818">
        <ele>433.4</ele>
        <time>2022-08-14T07:20:03Z</time>
      </trkpt>
      <trkpt lat="40.768637" lon="-8.323794">
        <ele>433.2</ele>
        <time>2022-08-14T07:20:04Z</time>
      </trkpt>
      <trkpt lat="40.768642" lon="-8.323788">
        <ele>432.6</ele>
        <time>2022-08-14T07:20:05Z</time>
      </trkpt>
      <trkpt lat="40.768652" lon="-8.323794">
        <ele>432.4</ele>
        <time>2022-08-14T07:20:06Z</time>
      </trkpt>
      <trkpt lat="40.768646" lon="-8.323836">
        <ele>431.4</ele>
        <time>2022-08-14T07:20:09Z</time>
      </trkpt>
      <trkpt lat="40.768636" lon="-8.323837">
        <ele>431.2</ele>
        <time>2022-08-14T07:20:10Z</time>
      </trkpt>
      <trkpt lat="40.768632" lon="-8.323837">
        <ele>430.8</ele>
        <time>2022-08-14T07:20:11Z</time>
      </trkpt>
      <trkpt lat="40.768628" lon="-8.323835">
        <ele>430.6</ele>
        <time>2022-08-14T07:20:13Z</time>
      </trkpt>
      <trkpt lat="40.76862" lon="-8.32382">
        <ele>430.2</ele>
        <time>2022-08-14T07:20:17Z</time>
      </trkpt>
      <trkpt lat="40.768645" lon="-8.323745">
        <ele>429.4</ele>
        <time>2022-08-14T07:25:45Z</time>
      </trkpt>
      <trkpt lat="40.768699" lon="-8.323513">
        <ele>429</ele>
        <time>2022-08-14T07:25:52Z</time>
      </trkpt>
      <trkpt lat="40.76874" lon="-8.323348">
        <ele>428.2</ele>
        <time>2022-08-14T07:25:56Z</time>
      </trkpt>
      <trkpt lat="40.768767" lon="-8.323243">
        <ele>428</ele>
        <time>2022-08-14T07:25:58Z</time>
      </trkpt>
      <trkpt lat="40.768822" lon="-8.323123">
        <ele>427</ele>
        <time>2022-08-14T07:26:01Z</time>
      </trkpt>
      <trkpt lat="40.768841" lon="-8.323087">
        <ele>426.6</ele>
        <time>2022-08-14T07:26:02Z</time>
      </trkpt>
      <trkpt lat="40.768906" lon="-8.323002">
        <ele>425.8</ele>
        <time>2022-08-14T07:26:05Z</time>
      </trkpt>
      <trkpt lat="40.768946" lon="-8.322973">
        <ele>425.4</ele>
        <time>2022-08-14T07:26:07Z</time>
      </trkpt>
      <trkpt lat="40.768997" lon="-8.322944">
        <ele>424.6</ele>
        <time>2022-08-14T07:26:10Z</time>
      </trkpt>
      <trkpt lat="40.769026" lon="-8.322922">
        <ele>423.8</ele>
        <time>2022-08-14T07:26:12Z</time>
      </trkpt>
      <trkpt lat="40.769065" lon="-8.322877">
        <ele>423.2</ele>
        <time>2022-08-14T07:26:14Z</time>
      </trkpt>
      <trkpt lat="40.769128" lon="-8.322791">
        <ele>422.4</ele>
        <time>2022-08-14T07:26:17Z</time>
      </trkpt>
      <trkpt lat="40.769175" lon="-8.322725">
        <ele>422.2</ele>
        <time>2022-08-14T07:26:19Z</time>
      </trkpt>
      <trkpt lat="40.769226" lon="-8.322594">
        <ele>421.6</ele>
        <time>2022-08-14T07:26:22Z</time>
      </trkpt>
      <trkpt lat="40.769279" lon="-8.322283">
        <ele>421.4</ele>
        <time>2022-08-14T07:26:28Z</time>
      </trkpt>
      <trkpt lat="40.769277" lon="-8.322221">
        <ele>420.8</ele>
        <time>2022-08-14T07:26:29Z</time>
      </trkpt>
      <trkpt lat="40.76928" lon="-8.322092">
        <ele>420.2</ele>
        <time>2022-08-14T07:26:31Z</time>
      </trkpt>
      <trkpt lat="40.769293" lon="-8.322031">
        <ele>419.8</ele>
        <time>2022-08-14T07:26:32Z</time>
      </trkpt>
      <trkpt lat="40.769312" lon="-8.321968">
        <ele>419.6</ele>
        <time>2022-08-14T07:26:33Z</time>
      </trkpt>
      <trkpt lat="40.769335" lon="-8.321903">
        <ele>419.4</ele>
        <time>2022-08-14T07:26:34Z</time>
      </trkpt>
      <trkpt lat="40.769414" lon="-8.321697">
        <ele>418.8</ele>
        <time>2022-08-14T07:26:37Z</time>
      </trkpt>
      <trkpt lat="40.769442" lon="-8.321628">
        <ele>418.6</ele>
        <time>2022-08-14T07:26:38Z</time>
      </trkpt>
      <trkpt lat="40.769536" lon="-8.321448">
        <ele>417</ele>
        <time>2022-08-14T07:26:42Z</time>
      </trkpt>
      <trkpt lat="40.769588" lon="-8.321387">
        <ele>415.4</ele>
        <time>2022-08-14T07:26:45Z</time>
      </trkpt>
      <trkpt lat="40.769643" lon="-8.321369">
        <ele>414.6</ele>
        <time>2022-08-14T07:26:47Z</time>
      </trkpt>
      <trkpt lat="40.769686" lon="-8.321372">
        <ele>414.4</ele>
        <time>2022-08-14T07:26:48Z</time>
      </trkpt>
      <trkpt lat="40.769775" lon="-8.321392">
        <ele>413.4</ele>
        <time>2022-08-14T07:26:50Z</time>
      </trkpt>
      <trkpt lat="40.769816" lon="-8.321398">
        <ele>413.2</ele>
        <time>2022-08-14T07:26:51Z</time>
      </trkpt>
      <trkpt lat="40.769935" lon="-8.321442">
        <ele>412.2</ele>
        <time>2022-08-14T07:26:54Z</time>
      </trkpt>
      <trkpt lat="40.769996" lon="-8.321514">
        <ele>411.6</ele>
        <time>2022-08-14T07:26:56Z</time>
      </trkpt>
      <trkpt lat="40.770026" lon="-8.321551">
        <ele>411</ele>
        <time>2022-08-14T07:26:57Z</time>
      </trkpt>
      <trkpt lat="40.770136" lon="-8.32167">
        <ele>410.2</ele>
        <time>2022-08-14T07:27:01Z</time>
      </trkpt>
      <trkpt lat="40.770228" lon="-8.32169">
        <ele>410</ele>
        <time>2022-08-14T07:27:04Z</time>
      </trkpt>
      <trkpt lat="40.7703" lon="-8.321686">
        <ele>410</ele>
        <time>2022-08-14T07:27:06Z</time>
      </trkpt>
      <trkpt lat="40.770448" lon="-8.32165">
        <ele>409.6</ele>
        <time>2022-08-14T07:27:11Z</time>
      </trkpt>
      <trkpt lat="40.77052" lon="-8.321554">
        <ele>409.4</ele>
        <time>2022-08-14T07:27:16Z</time>
      </trkpt>
      <trkpt lat="40.770523" lon="-8.321545">
        <ele>409.4</ele>
        <time>2022-08-14T07:27:17Z</time>
      </trkpt>
      <trkpt lat="40.770493" lon="-8.32151">
        <ele>409.6</ele>
        <time>2022-08-14T07:27:20Z</time>
      </trkpt>
      <trkpt lat="40.770417" lon="-8.321491">
        <ele>410.2</ele>
        <time>2022-08-14T07:27:25Z</time>
      </trkpt>
      <trkpt lat="40.770405" lon="-8.321487">
        <ele>410.4</ele>
        <time>2022-08-14T07:27:26Z</time>
      </trkpt>
      <trkpt lat="40.770385" lon="-8.321466">
        <ele>410.6</ele>
        <time>2022-08-14T07:27:28Z</time>
      </trkpt>
      <trkpt lat="40.770374" lon="-8.321453">
        <ele>411.2</ele>
        <time>2022-08-14T07:27:29Z</time>
      </trkpt>
      <trkpt lat="40.770341" lon="-8.321417">
        <ele>411.6</ele>
        <time>2022-08-14T07:27:32Z</time>
      </trkpt>
      <trkpt lat="40.77033" lon="-8.321301">
        <ele>412</ele>
        <time>2022-08-14T07:27:37Z</time>
      </trkpt>
      <trkpt lat="40.770334" lon="-8.321246">
        <ele>412.4</ele>
        <time>2022-08-14T07:27:39Z</time>
      </trkpt>
      <trkpt lat="40.770311" lon="-8.32111">
        <ele>413</ele>
        <time>2022-08-14T07:27:45Z</time>
      </trkpt>
      <trkpt lat="40.770297" lon="-8.321065">
        <ele>413.2</ele>
        <time>2022-08-14T07:27:47Z</time>
      </trkpt>
      <trkpt lat="40.770281" lon="-8.321007">
        <ele>413.8</ele>
        <time>2022-08-14T07:27:50Z</time>
      </trkpt>
      <trkpt lat="40.770281" lon="-8.320986">
        <ele>413.8</ele>
        <time>2022-08-14T07:27:51Z</time>
      </trkpt>
      <trkpt lat="40.77027" lon="-8.320925">
        <ele>414.2</ele>
        <time>2022-08-14T07:27:54Z</time>
      </trkpt>
      <trkpt lat="40.770247" lon="-8.320866">
        <ele>415</ele>
        <time>2022-08-14T07:27:57Z</time>
      </trkpt>
      <trkpt lat="40.770252" lon="-8.320831">
        <ele>415.4</ele>
        <time>2022-08-14T07:27:59Z</time>
      </trkpt>
      <trkpt lat="40.770265" lon="-8.320776">
        <ele>416.4</ele>
        <time>2022-08-14T07:28:03Z</time>
      </trkpt>
      <trkpt lat="40.770269" lon="-8.320762">
        <ele>416.6</ele>
        <time>2022-08-14T07:28:04Z</time>
      </trkpt>
      <trkpt lat="40.770287" lon="-8.320655">
        <ele>417.8</ele>
        <time>2022-08-14T07:28:11Z</time>
      </trkpt>
      <trkpt lat="40.77031" lon="-8.320634">
        <ele>418</ele>
        <time>2022-08-14T07:28:13Z</time>
      </trkpt>
      <trkpt lat="40.770387" lon="-8.320503">
        <ele>418.6</ele>
        <time>2022-08-14T07:28:21Z</time>
      </trkpt>
      <trkpt lat="40.770397" lon="-8.320485">
        <ele>418.8</ele>
        <time>2022-08-14T07:28:22Z</time>
      </trkpt>
      <trkpt lat="40.770422" lon="-8.320446">
        <ele>419</ele>
        <time>2022-08-14T07:28:24Z</time>
      </trkpt>
      <trkpt lat="40.770446" lon="-8.320379">
        <ele>419.2</ele>
        <time>2022-08-14T07:28:27Z</time>
      </trkpt>
      <trkpt lat="40.77048" lon="-8.320228">
        <ele>419.4</ele>
        <time>2022-08-14T07:28:33Z</time>
      </trkpt>
      <trkpt lat="40.770537" lon="-8.320087">
        <ele>420</ele>
        <time>2022-08-14T07:28:41Z</time>
      </trkpt>
      <trkpt lat="40.770527" lon="-8.319993">
        <ele>420.4</ele>
        <time>2022-08-14T07:28:45Z</time>
      </trkpt>
      <trkpt lat="40.770545" lon="-8.319968">
        <ele>420.4</ele>
        <time>2022-08-14T07:28:47Z</time>
      </trkpt>
      <trkpt lat="40.770599" lon="-8.319855">
        <ele>420.6</ele>
        <time>2022-08-14T07:28:53Z</time>
      </trkpt>
      <trkpt lat="40.770637" lon="-8.319822">
        <ele>420.6</ele>
        <time>2022-08-14T07:28:56Z</time>
      </trkpt>
      <trkpt lat="40.770658" lon="-8.319785">
        <ele>420.6</ele>
        <time>2022-08-14T07:28:58Z</time>
      </trkpt>
      <trkpt lat="40.770721" lon="-8.319703">
        <ele>420.8</ele>
        <time>2022-08-14T07:29:03Z</time>
      </trkpt>
      <trkpt lat="40.770747" lon="-8.319668">
        <ele>421</ele>
        <time>2022-08-14T07:29:05Z</time>
      </trkpt>
      <trkpt lat="40.770798" lon="-8.319597">
        <ele>422.2</ele>
        <time>2022-08-14T07:29:09Z</time>
      </trkpt>
      <trkpt lat="40.770835" lon="-8.319517">
        <ele>423</ele>
        <time>2022-08-14T07:29:13Z</time>
      </trkpt>
      <trkpt lat="40.770847" lon="-8.319502">
        <ele>423.2</ele>
        <time>2022-08-14T07:29:14Z</time>
      </trkpt>
      <trkpt lat="40.770861" lon="-8.319486">
        <ele>423.4</ele>
        <time>2022-08-14T07:29:15Z</time>
      </trkpt>
      <trkpt lat="40.770886" lon="-8.319442">
        <ele>424</ele>
        <time>2022-08-14T07:29:18Z</time>
      </trkpt>
      <trkpt lat="40.770894" lon="-8.319416">
        <ele>424</ele>
        <time>2022-08-14T07:29:19Z</time>
      </trkpt>
      <trkpt lat="40.770896" lon="-8.319388">
        <ele>424.2</ele>
        <time>2022-08-14T07:29:20Z</time>
      </trkpt>
      <trkpt lat="40.770895" lon="-8.319361">
        <ele>424.4</ele>
        <time>2022-08-14T07:29:21Z</time>
      </trkpt>
      <trkpt lat="40.7709" lon="-8.319303">
        <ele>425</ele>
        <time>2022-08-14T07:29:24Z</time>
      </trkpt>
      <trkpt lat="40.770897" lon="-8.319279">
        <ele>425.2</ele>
        <time>2022-08-14T07:29:25Z</time>
      </trkpt>
      <trkpt lat="40.770888" lon="-8.31924">
        <ele>425.6</ele>
        <time>2022-08-14T07:29:27Z</time>
      </trkpt>
      <trkpt lat="40.77086" lon="-8.319118">
        <ele>426.6</ele>
        <time>2022-08-14T07:29:32Z</time>
      </trkpt>
      <trkpt lat="40.770891" lon="-8.319059">
        <ele>427.4</ele>
        <time>2022-08-14T07:29:35Z</time>
      </trkpt>
      <trkpt lat="40.7709" lon="-8.319022">
        <ele>427.8</ele>
        <time>2022-08-14T07:29:37Z</time>
      </trkpt>
      <trkpt lat="40.770902" lon="-8.319011">
        <ele>428</ele>
        <time>2022-08-14T07:29:38Z</time>
      </trkpt>
      <trkpt lat="40.770905" lon="-8.319001">
        <ele>428.4</ele>
        <time>2022-08-14T07:29:39Z</time>
      </trkpt>
      <trkpt lat="40.770915" lon="-8.318981">
        <ele>429</ele>
        <time>2022-08-14T07:29:41Z</time>
      </trkpt>
      <trkpt lat="40.770915" lon="-8.31897">
        <ele>429.2</ele>
        <time>2022-08-14T07:29:43Z</time>
      </trkpt>
      <trkpt lat="40.770917" lon="-8.318954">
        <ele>429.4</ele>
        <time>2022-08-14T07:29:45Z</time>
      </trkpt>
      <trkpt lat="40.770925" lon="-8.318926">
        <ele>430</ele>
        <time>2022-08-14T07:29:47Z</time>
      </trkpt>
      <trkpt lat="40.770936" lon="-8.31887">
        <ele>431</ele>
        <time>2022-08-14T07:29:51Z</time>
      </trkpt>
      <trkpt lat="40.770934" lon="-8.31886">
        <ele>431.2</ele>
        <time>2022-08-14T07:29:52Z</time>
      </trkpt>
      <trkpt lat="40.77095" lon="-8.318815">
        <ele>431.8</ele>
        <time>2022-08-14T07:29:56Z</time>
      </trkpt>
      <trkpt lat="40.770957" lon="-8.318804">
        <ele>432</ele>
        <time>2022-08-14T07:29:57Z</time>
      </trkpt>
      <trkpt lat="40.770965" lon="-8.318795">
        <ele>432.2</ele>
        <time>2022-08-14T07:29:58Z</time>
      </trkpt>
      <trkpt lat="40.770996" lon="-8.318756">
        <ele>433.4</ele>
        <time>2022-08-14T07:30:03Z</time>
      </trkpt>
      <trkpt lat="40.771064" lon="-8.318674">
        <ele>434.4</ele>
        <time>2022-08-14T07:30:10Z</time>
      </trkpt>
      <trkpt lat="40.771086" lon="-8.318653">
        <ele>434.6</ele>
        <time>2022-08-14T07:30:12Z</time>
      </trkpt>
      <trkpt lat="40.771143" lon="-8.318599">
        <ele>435.6</ele>
        <time>2022-08-14T07:30:17Z</time>
      </trkpt>
      <trkpt lat="40.771153" lon="-8.318597">
        <ele>435.8</ele>
        <time>2022-08-14T07:30:18Z</time>
      </trkpt>
      <trkpt lat="40.771169" lon="-8.318585">
        <ele>435.8</ele>
        <time>2022-08-14T07:30:19Z</time>
      </trkpt>
      <trkpt lat="40.77119" lon="-8.31855">
        <ele>436</ele>
        <time>2022-08-14T07:30:21Z</time>
      </trkpt>
      <trkpt lat="40.771228" lon="-8.318525">
        <ele>436.6</ele>
        <time>2022-08-14T07:30:24Z</time>
      </trkpt>
      <trkpt lat="40.771241" lon="-8.318513">
        <ele>436.8</ele>
        <time>2022-08-14T07:30:25Z</time>
      </trkpt>
      <trkpt lat="40.771272" lon="-8.318508">
        <ele>437</ele>
        <time>2022-08-14T07:30:27Z</time>
      </trkpt>
      <trkpt lat="40.771294" lon="-8.31853">
        <ele>437.2</ele>
        <time>2022-08-14T07:30:29Z</time>
      </trkpt>
      <trkpt lat="40.771297" lon="-8.318544">
        <ele>437.2</ele>
        <time>2022-08-14T07:30:30Z</time>
      </trkpt>
      <trkpt lat="40.771264" lon="-8.318568">
        <ele>437.4</ele>
        <time>2022-08-14T07:30:33Z</time>
      </trkpt>
      <trkpt lat="40.771258" lon="-8.318557">
        <ele>437.4</ele>
        <time>2022-08-14T07:30:35Z</time>
      </trkpt>
      <trkpt lat="40.771282" lon="-8.318499">
        <ele>437.6</ele>
        <time>2022-08-14T07:30:38Z</time>
      </trkpt>
      <trkpt lat="40.771302" lon="-8.318479">
        <ele>437.8</ele>
        <time>2022-08-14T07:30:40Z</time>
      </trkpt>
      <trkpt lat="40.771381" lon="-8.318397">
        <ele>437.8</ele>
        <time>2022-08-14T07:30:47Z</time>
      </trkpt>
      <trkpt lat="40.771527" lon="-8.318341">
        <ele>437.8</ele>
        <time>2022-08-14T07:30:52Z</time>
      </trkpt>
      <trkpt lat="40.771792" lon="-8.31832">
        <ele>437.2</ele>
        <time>2022-08-14T07:30:58Z</time>
      </trkpt>
      <trkpt lat="40.771912" lon="-8.318258">
        <ele>436.8</ele>
        <time>2022-08-14T07:31:03Z</time>
      </trkpt>
      <trkpt lat="40.772048" lon="-8.318121">
        <ele>437.2</ele>
        <time>2022-08-14T07:31:09Z</time>
      </trkpt>
      <trkpt lat="40.772125" lon="-8.318016">
        <ele>437.4</ele>
        <time>2022-08-14T07:31:12Z</time>
      </trkpt>
      <trkpt lat="40.772172" lon="-8.31793">
        <ele>437.4</ele>
        <time>2022-08-14T07:31:14Z</time>
      </trkpt>
      <trkpt lat="40.772296" lon="-8.317653">
        <ele>437.2</ele>
        <time>2022-08-14T07:31:19Z</time>
      </trkpt>
      <trkpt lat="40.772367" lon="-8.317488">
        <ele>436.8</ele>
        <time>2022-08-14T07:31:24Z</time>
      </trkpt>
      <trkpt lat="40.772404" lon="-8.317412">
        <ele>436.8</ele>
        <time>2022-08-14T07:31:28Z</time>
      </trkpt>
      <trkpt lat="40.77241" lon="-8.3174">
        <ele>436.8</ele>
        <time>2022-08-14T07:31:30Z</time>
      </trkpt>
      <trkpt lat="40.772434" lon="-8.317321">
        <ele>437</ele>
        <time>2022-08-14T07:31:34Z</time>
      </trkpt>
      <trkpt lat="40.77246" lon="-8.317174">
        <ele>437.8</ele>
        <time>2022-08-14T07:31:40Z</time>
      </trkpt>
      <trkpt lat="40.772476" lon="-8.317107">
        <ele>438.4</ele>
        <time>2022-08-14T07:31:43Z</time>
      </trkpt>
      <trkpt lat="40.772489" lon="-8.317055">
        <ele>438.8</ele>
        <time>2022-08-14T07:31:46Z</time>
      </trkpt>
      <trkpt lat="40.772501" lon="-8.317033">
        <ele>439</ele>
        <time>2022-08-14T07:31:47Z</time>
      </trkpt>
      <trkpt lat="40.772532" lon="-8.316995">
        <ele>439.6</ele>
        <time>2022-08-14T07:31:50Z</time>
      </trkpt>
      <trkpt lat="40.772563" lon="-8.316953">
        <ele>440</ele>
        <time>2022-08-14T07:31:52Z</time>
      </trkpt>
      <trkpt lat="40.772647" lon="-8.31684">
        <ele>441</ele>
        <time>2022-08-14T07:31:59Z</time>
      </trkpt>
      <trkpt lat="40.772672" lon="-8.3168">
        <ele>441.4</ele>
        <time>2022-08-14T07:32:01Z</time>
      </trkpt>
      <trkpt lat="40.772711" lon="-8.316761">
        <ele>441.4</ele>
        <time>2022-08-14T07:32:04Z</time>
      </trkpt>
      <trkpt lat="40.772725" lon="-8.31675">
        <ele>441.6</ele>
        <time>2022-08-14T07:32:05Z</time>
      </trkpt>
      <trkpt lat="40.77282" lon="-8.316637">
        <ele>441.6</ele>
        <time>2022-08-14T07:32:13Z</time>
      </trkpt>
      <trkpt lat="40.772846" lon="-8.316615">
        <ele>441.4</ele>
        <time>2022-08-14T07:32:14Z</time>
      </trkpt>
      <trkpt lat="40.772948" lon="-8.316533">
        <ele>441</ele>
        <time>2022-08-14T07:32:18Z</time>
      </trkpt>
      <trkpt lat="40.773074" lon="-8.316404">
        <ele>439.8</ele>
        <time>2022-08-14T07:32:22Z</time>
      </trkpt>
      <trkpt lat="40.773114" lon="-8.316367">
        <ele>439.6</ele>
        <time>2022-08-14T07:32:23Z</time>
      </trkpt>
      <trkpt lat="40.773201" lon="-8.31628">
        <ele>438.6</ele>
        <time>2022-08-14T07:32:26Z</time>
      </trkpt>
      <trkpt lat="40.773292" lon="-8.316205">
        <ele>438.2</ele>
        <time>2022-08-14T07:32:28Z</time>
      </trkpt>
      <trkpt lat="40.773409" lon="-8.316071">
        <ele>438</ele>
        <time>2022-08-14T07:32:33Z</time>
      </trkpt>
      <trkpt lat="40.773493" lon="-8.31595">
        <ele>438</ele>
        <time>2022-08-14T07:32:37Z</time>
      </trkpt>
      <trkpt lat="40.773629" lon="-8.31577">
        <ele>438.2</ele>
        <time>2022-08-14T07:32:45Z</time>
      </trkpt>
      <trkpt lat="40.773733" lon="-8.315684">
        <ele>438.6</ele>
        <time>2022-08-14T07:32:49Z</time>
      </trkpt>
      <trkpt lat="40.773779" lon="-8.315684">
        <ele>439.2</ele>
        <time>2022-08-14T07:32:52Z</time>
      </trkpt>
      <trkpt lat="40.773808" lon="-8.315657">
        <ele>439.4</ele>
        <time>2022-08-14T07:32:53Z</time>
      </trkpt>
      <trkpt lat="40.773881" lon="-8.315599">
        <ele>440.2</ele>
        <time>2022-08-14T07:32:59Z</time>
      </trkpt>
      <trkpt lat="40.773916" lon="-8.315559">
        <ele>440.4</ele>
        <time>2022-08-14T07:33:02Z</time>
      </trkpt>
      <trkpt lat="40.773926" lon="-8.315547">
        <ele>440.4</ele>
        <time>2022-08-14T07:33:03Z</time>
      </trkpt>
      <trkpt lat="40.773966" lon="-8.315494">
        <ele>440.8</ele>
        <time>2022-08-14T07:33:06Z</time>
      </trkpt>
      <trkpt lat="40.77402" lon="-8.315419">
        <ele>441.2</ele>
        <time>2022-08-14T07:33:10Z</time>
      </trkpt>
      <trkpt lat="40.774059" lon="-8.315369">
        <ele>441.4</ele>
        <time>2022-08-14T07:33:12Z</time>
      </trkpt>
      <trkpt lat="40.774095" lon="-8.31531">
        <ele>441.4</ele>
        <time>2022-08-14T07:33:14Z</time>
      </trkpt>
      <trkpt lat="40.774115" lon="-8.31528">
        <ele>441.6</ele>
        <time>2022-08-14T07:33:15Z</time>
      </trkpt>
      <trkpt lat="40.774167" lon="-8.31522">
        <ele>441.8</ele>
        <time>2022-08-14T07:33:18Z</time>
      </trkpt>
      <trkpt lat="40.774222" lon="-8.315146">
        <ele>442</ele>
        <time>2022-08-14T07:33:21Z</time>
      </trkpt>
      <trkpt lat="40.774247" lon="-8.315123">
        <ele>442.4</ele>
        <time>2022-08-14T07:33:23Z</time>
      </trkpt>
      <trkpt lat="40.774293" lon="-8.31508">
        <ele>442.6</ele>
        <time>2022-08-14T07:33:25Z</time>
      </trkpt>
      <trkpt lat="40.774345" lon="-8.315018">
        <ele>443.2</ele>
        <time>2022-08-14T07:33:29Z</time>
      </trkpt>
      <trkpt lat="40.774372" lon="-8.314981">
        <ele>443.4</ele>
        <time>2022-08-14T07:33:31Z</time>
      </trkpt>
      <trkpt lat="40.774392" lon="-8.314963">
        <ele>443.6</ele>
        <time>2022-08-14T07:33:32Z</time>
      </trkpt>
      <trkpt lat="40.77442" lon="-8.314917">
        <ele>444</ele>
        <time>2022-08-14T07:33:34Z</time>
      </trkpt>
      <trkpt lat="40.774459" lon="-8.314882">
        <ele>444.4</ele>
        <time>2022-08-14T07:33:37Z</time>
      </trkpt>
      <trkpt lat="40.774604" lon="-8.314745">
        <ele>445.2</ele>
        <time>2022-08-14T07:33:45Z</time>
      </trkpt>
      <trkpt lat="40.774614" lon="-8.314732">
        <ele>445.4</ele>
        <time>2022-08-14T07:33:46Z</time>
      </trkpt>
      <trkpt lat="40.774668" lon="-8.314652">
        <ele>446</ele>
        <time>2022-08-14T07:33:50Z</time>
      </trkpt>
      <trkpt lat="40.774688" lon="-8.314628">
        <ele>446.2</ele>
        <time>2022-08-14T07:33:51Z</time>
      </trkpt>
      <trkpt lat="40.774731" lon="-8.314605">
        <ele>446.6</ele>
        <time>2022-08-14T07:33:55Z</time>
      </trkpt>
      <trkpt lat="40.774777" lon="-8.314555">
        <ele>447.2</ele>
        <time>2022-08-14T07:33:57Z</time>
      </trkpt>
      <trkpt lat="40.774788" lon="-8.314548">
        <ele>447.4</ele>
        <time>2022-08-14T07:33:58Z</time>
      </trkpt>
      <trkpt lat="40.774795" lon="-8.31454">
        <ele>447.6</ele>
        <time>2022-08-14T07:33:59Z</time>
      </trkpt>
      <trkpt lat="40.774803" lon="-8.314525">
        <ele>447.8</ele>
        <time>2022-08-14T07:34:00Z</time>
      </trkpt>
      <trkpt lat="40.774827" lon="-8.314495">
        <ele>448</ele>
        <time>2022-08-14T07:34:03Z</time>
      </trkpt>
      <trkpt lat="40.774881" lon="-8.314454">
        <ele>448.8</ele>
        <time>2022-08-14T07:34:07Z</time>
      </trkpt>
      <trkpt lat="40.774932" lon="-8.314398">
        <ele>449.4</ele>
        <time>2022-08-14T07:34:11Z</time>
      </trkpt>
      <trkpt lat="40.774951" lon="-8.314373">
        <ele>449.8</ele>
        <time>2022-08-14T07:34:13Z</time>
      </trkpt>
      <trkpt lat="40.774956" lon="-8.314366">
        <ele>450</ele>
        <time>2022-08-14T07:34:14Z</time>
      </trkpt>
      <trkpt lat="40.774994" lon="-8.31433">
        <ele>450.4</ele>
        <time>2022-08-14T07:34:17Z</time>
      </trkpt>
      <trkpt lat="40.775011" lon="-8.314321">
        <ele>450.6</ele>
        <time>2022-08-14T07:34:18Z</time>
      </trkpt>
      <trkpt lat="40.775058" lon="-8.314272">
        <ele>451</ele>
        <time>2022-08-14T07:34:24Z</time>
      </trkpt>
      <trkpt lat="40.775074" lon="-8.314253">
        <ele>451</ele>
        <time>2022-08-14T07:34:25Z</time>
      </trkpt>
      <trkpt lat="40.775091" lon="-8.314247">
        <ele>451.2</ele>
        <time>2022-08-14T07:34:26Z</time>
      </trkpt>
      <trkpt lat="40.775155" lon="-8.314179">
        <ele>451.6</ele>
        <time>2022-08-14T07:34:30Z</time>
      </trkpt>
      <trkpt lat="40.775313" lon="-8.314006">
        <ele>452</ele>
        <time>2022-08-14T07:34:38Z</time>
      </trkpt>
      <trkpt lat="40.775335" lon="-8.313987">
        <ele>452</ele>
        <time>2022-08-14T07:34:39Z</time>
      </trkpt>
      <trkpt lat="40.775498" lon="-8.313903">
        <ele>452.4</ele>
        <time>2022-08-14T07:34:45Z</time>
      </trkpt>
      <trkpt lat="40.775584" lon="-8.313877">
        <ele>452.4</ele>
        <time>2022-08-14T07:34:49Z</time>
      </trkpt>
      <trkpt lat="40.775606" lon="-8.31388">
        <ele>452.4</ele>
        <time>2022-08-14T07:34:50Z</time>
      </trkpt>
      <trkpt lat="40.775675" lon="-8.313877">
        <ele>452.8</ele>
        <time>2022-08-14T07:34:53Z</time>
      </trkpt>
      <trkpt lat="40.775778" lon="-8.313876">
        <ele>453.2</ele>
        <time>2022-08-14T07:34:57Z</time>
      </trkpt>
      <trkpt lat="40.775833" lon="-8.313904">
        <ele>454</ele>
        <time>2022-08-14T07:35:02Z</time>
      </trkpt>
      <trkpt lat="40.775861" lon="-8.313907">
        <ele>454.4</ele>
        <time>2022-08-14T07:35:04Z</time>
      </trkpt>
      <trkpt lat="40.775902" lon="-8.313903">
        <ele>455.2</ele>
        <time>2022-08-14T07:35:07Z</time>
      </trkpt>
      <trkpt lat="40.775952" lon="-8.313888">
        <ele>455.6</ele>
        <time>2022-08-14T07:35:11Z</time>
      </trkpt>
      <trkpt lat="40.775976" lon="-8.313876">
        <ele>456</ele>
        <time>2022-08-14T07:35:13Z</time>
      </trkpt>
      <trkpt lat="40.775995" lon="-8.313864">
        <ele>456.2</ele>
        <time>2022-08-14T07:35:14Z</time>
      </trkpt>
      <trkpt lat="40.776063" lon="-8.313817">
        <ele>457.4</ele>
        <time>2022-08-14T07:35:19Z</time>
      </trkpt>
      <trkpt lat="40.776084" lon="-8.313794">
        <ele>457.8</ele>
        <time>2022-08-14T07:35:21Z</time>
      </trkpt>
      <trkpt lat="40.776099" lon="-8.313782">
        <ele>457.8</ele>
        <time>2022-08-14T07:35:22Z</time>
      </trkpt>
      <trkpt lat="40.776165" lon="-8.313703">
        <ele>458.2</ele>
        <time>2022-08-14T07:35:26Z</time>
      </trkpt>
      <trkpt lat="40.776207" lon="-8.31363">
        <ele>458.4</ele>
        <time>2022-08-14T07:35:29Z</time>
      </trkpt>
      <trkpt lat="40.77635" lon="-8.313502">
        <ele>458.2</ele>
        <time>2022-08-14T07:35:36Z</time>
      </trkpt>
      <trkpt lat="40.776453" lon="-8.313348">
        <ele>457.4</ele>
        <time>2022-08-14T07:35:42Z</time>
      </trkpt>
      <trkpt lat="40.776549" lon="-8.313213">
        <ele>457.4</ele>
        <time>2022-08-14T07:35:48Z</time>
      </trkpt>
      <trkpt lat="40.776716" lon="-8.312973">
        <ele>457.6</ele>
        <time>2022-08-14T07:35:58Z</time>
      </trkpt>
      <trkpt lat="40.776811" lon="-8.312816">
        <ele>457.2</ele>
        <time>2022-08-14T07:36:04Z</time>
      </trkpt>
      <trkpt lat="40.777002" lon="-8.312611">
        <ele>455.8</ele>
        <time>2022-08-14T07:36:12Z</time>
      </trkpt>
      <trkpt lat="40.77705" lon="-8.312537">
        <ele>454.6</ele>
        <time>2022-08-14T07:36:14Z</time>
      </trkpt>
      <trkpt lat="40.777113" lon="-8.312425">
        <ele>454</ele>
        <time>2022-08-14T07:36:18Z</time>
      </trkpt>
      <trkpt lat="40.777204" lon="-8.312289">
        <ele>454</ele>
        <time>2022-08-14T07:36:25Z</time>
      </trkpt>
      <trkpt lat="40.777276" lon="-8.312208">
        <ele>454.6</ele>
        <time>2022-08-14T07:36:30Z</time>
      </trkpt>
      <trkpt lat="40.777398" lon="-8.312062">
        <ele>455.2</ele>
        <time>2022-08-14T07:36:38Z</time>
      </trkpt>
      <trkpt lat="40.777514" lon="-8.311896">
        <ele>455</ele>
        <time>2022-08-14T07:36:43Z</time>
      </trkpt>
      <trkpt lat="40.777603" lon="-8.31171">
        <ele>454.2</ele>
        <time>2022-08-14T07:36:47Z</time>
      </trkpt>
      <trkpt lat="40.777601" lon="-8.311656">
        <ele>453.6</ele>
        <time>2022-08-14T07:36:48Z</time>
      </trkpt>
      <trkpt lat="40.777547" lon="-8.311548">
        <ele>452.4</ele>
        <time>2022-08-14T07:36:51Z</time>
      </trkpt>
      <trkpt lat="40.77753" lon="-8.311513">
        <ele>452.2</ele>
        <time>2022-08-14T07:36:52Z</time>
      </trkpt>
      <trkpt lat="40.777509" lon="-8.311369">
        <ele>451.8</ele>
        <time>2022-08-14T07:36:56Z</time>
      </trkpt>
      <trkpt lat="40.777537" lon="-8.311233">
        <ele>452</ele>
        <time>2022-08-14T07:37:01Z</time>
      </trkpt>
      <trkpt lat="40.777572" lon="-8.311105">
        <ele>453</ele>
        <time>2022-08-14T07:37:06Z</time>
      </trkpt>
      <trkpt lat="40.77759" lon="-8.311029">
        <ele>453.6</ele>
        <time>2022-08-14T07:37:09Z</time>
      </trkpt>
      <trkpt lat="40.777586" lon="-8.310967">
        <ele>454</ele>
        <time>2022-08-14T07:37:12Z</time>
      </trkpt>
      <trkpt lat="40.777574" lon="-8.310929">
        <ele>454.2</ele>
        <time>2022-08-14T07:37:14Z</time>
      </trkpt>
      <trkpt lat="40.777532" lon="-8.310881">
        <ele>454.6</ele>
        <time>2022-08-14T07:37:18Z</time>
      </trkpt>
      <trkpt lat="40.777519" lon="-8.310871">
        <ele>454.8</ele>
        <time>2022-08-14T07:37:19Z</time>
      </trkpt>
      <trkpt lat="40.777448" lon="-8.310822">
        <ele>455</ele>
        <time>2022-08-14T07:37:25Z</time>
      </trkpt>
      <trkpt lat="40.777392" lon="-8.310806">
        <ele>455.4</ele>
        <time>2022-08-14T07:37:28Z</time>
      </trkpt>
      <trkpt lat="40.777373" lon="-8.310794">
        <ele>455.4</ele>
        <time>2022-08-14T07:37:29Z</time>
      </trkpt>
      <trkpt lat="40.777337" lon="-8.31077">
        <ele>455.8</ele>
        <time>2022-08-14T07:37:31Z</time>
      </trkpt>
      <trkpt lat="40.777235" lon="-8.310716">
        <ele>456.2</ele>
        <time>2022-08-14T07:37:36Z</time>
      </trkpt>
      <trkpt lat="40.777194" lon="-8.310685">
        <ele>456.4</ele>
        <time>2022-08-14T07:37:38Z</time>
      </trkpt>
      <trkpt lat="40.777155" lon="-8.31065">
        <ele>456.8</ele>
        <time>2022-08-14T07:37:40Z</time>
      </trkpt>
      <trkpt lat="40.777112" lon="-8.310594">
        <ele>457</ele>
        <time>2022-08-14T07:37:43Z</time>
      </trkpt>
      <trkpt lat="40.777101" lon="-8.310555">
        <ele>457.4</ele>
        <time>2022-08-14T07:37:45Z</time>
      </trkpt>
      <trkpt lat="40.777058" lon="-8.310441">
        <ele>457.8</ele>
        <time>2022-08-14T07:37:49Z</time>
      </trkpt>
      <trkpt lat="40.777018" lon="-8.310327">
        <ele>458.4</ele>
        <time>2022-08-14T07:37:54Z</time>
      </trkpt>
      <trkpt lat="40.777015" lon="-8.310291">
        <ele>458.8</ele>
        <time>2022-08-14T07:37:56Z</time>
      </trkpt>
      <trkpt lat="40.777018" lon="-8.310198">
        <ele>459.6</ele>
        <time>2022-08-14T07:38:01Z</time>
      </trkpt>
      <trkpt lat="40.777017" lon="-8.310154">
        <ele>459.8</ele>
        <time>2022-08-14T07:38:03Z</time>
      </trkpt>
      <trkpt lat="40.776987" lon="-8.310023">
        <ele>461</ele>
        <time>2022-08-14T07:38:10Z</time>
      </trkpt>
      <trkpt lat="40.776946" lon="-8.309915">
        <ele>461.6</ele>
        <time>2022-08-14T07:38:16Z</time>
      </trkpt>
      <trkpt lat="40.776941" lon="-8.309897">
        <ele>462</ele>
        <time>2022-08-14T07:38:17Z</time>
      </trkpt>
      <trkpt lat="40.776934" lon="-8.30988">
        <ele>462.2</ele>
        <time>2022-08-14T07:38:18Z</time>
      </trkpt>
      <trkpt lat="40.776901" lon="-8.309809">
        <ele>462.6</ele>
        <time>2022-08-14T07:38:22Z</time>
      </trkpt>
      <trkpt lat="40.776877" lon="-8.309784">
        <ele>463</ele>
        <time>2022-08-14T07:38:24Z</time>
      </trkpt>
      <trkpt lat="40.776834" lon="-8.309724">
        <ele>463.2</ele>
        <time>2022-08-14T07:38:28Z</time>
      </trkpt>
      <trkpt lat="40.776788" lon="-8.309683">
        <ele>464</ele>
        <time>2022-08-14T07:38:32Z</time>
      </trkpt>
      <trkpt lat="40.776763" lon="-8.309647">
        <ele>464.2</ele>
        <time>2022-08-14T07:38:35Z</time>
      </trkpt>
      <trkpt lat="40.776713" lon="-8.309537">
        <ele>465</ele>
        <time>2022-08-14T07:38:42Z</time>
      </trkpt>
      <trkpt lat="40.776679" lon="-8.309428">
        <ele>466</ele>
        <time>2022-08-14T07:38:48Z</time>
      </trkpt>
      <trkpt lat="40.776677" lon="-8.309372">
        <ele>466.2</ele>
        <time>2022-08-14T07:38:51Z</time>
      </trkpt>
      <trkpt lat="40.776677" lon="-8.3093">
        <ele>467</ele>
        <time>2022-08-14T07:38:55Z</time>
      </trkpt>
      <trkpt lat="40.776685" lon="-8.309209">
        <ele>467.8</ele>
        <time>2022-08-14T07:39:00Z</time>
      </trkpt>
      <trkpt lat="40.776689" lon="-8.309194">
        <ele>468</ele>
        <time>2022-08-14T07:39:01Z</time>
      </trkpt>
      <trkpt lat="40.776703" lon="-8.30915">
        <ele>468.4</ele>
        <time>2022-08-14T07:39:04Z</time>
      </trkpt>
      <trkpt lat="40.776706" lon="-8.309118">
        <ele>468.8</ele>
        <time>2022-08-14T07:39:06Z</time>
      </trkpt>
      <trkpt lat="40.776711" lon="-8.309086">
        <ele>469.2</ele>
        <time>2022-08-14T07:39:08Z</time>
      </trkpt>
      <trkpt lat="40.776733" lon="-8.308984">
        <ele>469.8</ele>
        <time>2022-08-14T07:39:14Z</time>
      </trkpt>
      <trkpt lat="40.776755" lon="-8.30894">
        <ele>470.2</ele>
        <time>2022-08-14T07:39:17Z</time>
      </trkpt>
      <trkpt lat="40.776793" lon="-8.308842">
        <ele>470.8</ele>
        <time>2022-08-14T07:39:22Z</time>
      </trkpt>
      <trkpt lat="40.776799" lon="-8.308763">
        <ele>470.8</ele>
        <time>2022-08-14T07:39:26Z</time>
      </trkpt>
      <trkpt lat="40.776771" lon="-8.308739">
        <ele>470.8</ele>
        <time>2022-08-14T07:39:28Z</time>
      </trkpt>
      <trkpt lat="40.776673" lon="-8.30872">
        <ele>471</ele>
        <time>2022-08-14T07:39:34Z</time>
      </trkpt>
      <trkpt lat="40.776658" lon="-8.30873">
        <ele>471.2</ele>
        <time>2022-08-14T07:39:35Z</time>
      </trkpt>
      <trkpt lat="40.776628" lon="-8.308753">
        <ele>471.2</ele>
        <time>2022-08-14T07:39:37Z</time>
      </trkpt>
      <trkpt lat="40.776593" lon="-8.308776">
        <ele>471.6</ele>
        <time>2022-08-14T07:39:40Z</time>
      </trkpt>
      <trkpt lat="40.776563" lon="-8.308809">
        <ele>472.2</ele>
        <time>2022-08-14T07:39:43Z</time>
      </trkpt>
      <trkpt lat="40.77654" lon="-8.308838">
        <ele>472.4</ele>
        <time>2022-08-14T07:39:45Z</time>
      </trkpt>
      <trkpt lat="40.776479" lon="-8.308934">
        <ele>473.4</ele>
        <time>2022-08-14T07:39:51Z</time>
      </trkpt>
      <trkpt lat="40.776459" lon="-8.30897">
        <ele>473.6</ele>
        <time>2022-08-14T07:39:53Z</time>
      </trkpt>
      <trkpt lat="40.776392" lon="-8.309045">
        <ele>474.2</ele>
        <time>2022-08-14T07:40:00Z</time>
      </trkpt>
      <trkpt lat="40.776386" lon="-8.309056">
        <ele>474.2</ele>
        <time>2022-08-14T07:40:01Z</time>
      </trkpt>
      <trkpt lat="40.776333" lon="-8.309164">
        <ele>474.8</ele>
        <time>2022-08-14T07:40:09Z</time>
      </trkpt>
      <trkpt lat="40.776273" lon="-8.309246">
        <ele>475.2</ele>
        <time>2022-08-14T07:40:16Z</time>
      </trkpt>
      <trkpt lat="40.776179" lon="-8.309375">
        <ele>476.2</ele>
        <time>2022-08-14T07:40:25Z</time>
      </trkpt>
      <trkpt lat="40.776151" lon="-8.309415">
        <ele>476.4</ele>
        <time>2022-08-14T07:40:28Z</time>
      </trkpt>
      <trkpt lat="40.776084" lon="-8.309487">
        <ele>476.8</ele>
        <time>2022-08-14T07:40:34Z</time>
      </trkpt>
      <trkpt lat="40.776044" lon="-8.309498">
        <ele>477.4</ele>
        <time>2022-08-14T07:40:37Z</time>
      </trkpt>
      <trkpt lat="40.77597" lon="-8.309496">
        <ele>478.4</ele>
        <time>2022-08-14T07:40:43Z</time>
      </trkpt>
      <trkpt lat="40.775932" lon="-8.309465">
        <ele>479.4</ele>
        <time>2022-08-14T07:40:47Z</time>
      </trkpt>
      <trkpt lat="40.775902" lon="-8.309429">
        <ele>480.2</ele>
        <time>2022-08-14T07:40:51Z</time>
      </trkpt>
      <trkpt lat="40.775889" lon="-8.309402">
        <ele>480.6</ele>
        <time>2022-08-14T07:40:53Z</time>
      </trkpt>
      <trkpt lat="40.775874" lon="-8.309376">
        <ele>481</ele>
        <time>2022-08-14T07:40:55Z</time>
      </trkpt>
      <trkpt lat="40.775853" lon="-8.309328">
        <ele>481.4</ele>
        <time>2022-08-14T07:40:58Z</time>
      </trkpt>
      <trkpt lat="40.77583" lon="-8.309255">
        <ele>481.6</ele>
        <time>2022-08-14T07:41:02Z</time>
      </trkpt>
      <trkpt lat="40.775817" lon="-8.30921">
        <ele>481.8</ele>
        <time>2022-08-14T07:41:04Z</time>
      </trkpt>
      <trkpt lat="40.775762" lon="-8.309095">
        <ele>482</ele>
        <time>2022-08-14T07:41:10Z</time>
      </trkpt>
      <trkpt lat="40.775735" lon="-8.309066">
        <ele>482</ele>
        <time>2022-08-14T07:41:12Z</time>
      </trkpt>
      <trkpt lat="40.775687" lon="-8.308992">
        <ele>482.2</ele>
        <time>2022-08-14T07:41:16Z</time>
      </trkpt>
      <trkpt lat="40.775598" lon="-8.308832">
        <ele>482.8</ele>
        <time>2022-08-14T07:41:25Z</time>
      </trkpt>
      <trkpt lat="40.775579" lon="-8.308814">
        <ele>483</ele>
        <time>2022-08-14T07:41:26Z</time>
      </trkpt>
      <trkpt lat="40.775505" lon="-8.308713">
        <ele>483.8</ele>
        <time>2022-08-14T07:41:31Z</time>
      </trkpt>
      <trkpt lat="40.775498" lon="-8.308696">
        <ele>483.8</ele>
        <time>2022-08-14T07:41:32Z</time>
      </trkpt>
      <trkpt lat="40.775482" lon="-8.308667">
        <ele>484</ele>
        <time>2022-08-14T07:41:34Z</time>
      </trkpt>
      <trkpt lat="40.775469" lon="-8.308632">
        <ele>484.2</ele>
        <time>2022-08-14T07:41:36Z</time>
      </trkpt>
      <trkpt lat="40.775465" lon="-8.308615">
        <ele>484.2</ele>
        <time>2022-08-14T07:41:37Z</time>
      </trkpt>
      <trkpt lat="40.775465" lon="-8.308525">
        <ele>484.6</ele>
        <time>2022-08-14T07:41:42Z</time>
      </trkpt>
      <trkpt lat="40.77546" lon="-8.308461">
        <ele>485.2</ele>
        <time>2022-08-14T07:41:46Z</time>
      </trkpt>
      <trkpt lat="40.775453" lon="-8.308359">
        <ele>485.8</ele>
        <time>2022-08-14T07:41:52Z</time>
      </trkpt>
      <trkpt lat="40.775448" lon="-8.308309">
        <ele>486.4</ele>
        <time>2022-08-14T07:41:55Z</time>
      </trkpt>
      <trkpt lat="40.775438" lon="-8.308247">
        <ele>486.8</ele>
        <time>2022-08-14T07:41:59Z</time>
      </trkpt>
      <trkpt lat="40.775416" lon="-8.308184">
        <ele>487.6</ele>
        <time>2022-08-14T07:42:03Z</time>
      </trkpt>
      <trkpt lat="40.775409" lon="-8.308157">
        <ele>488</ele>
        <time>2022-08-14T07:42:05Z</time>
      </trkpt>
      <trkpt lat="40.775387" lon="-8.308082">
        <ele>489</ele>
        <time>2022-08-14T07:42:10Z</time>
      </trkpt>
      <trkpt lat="40.775376" lon="-8.307979">
        <ele>490.4</ele>
        <time>2022-08-14T07:42:17Z</time>
      </trkpt>
      <trkpt lat="40.775377" lon="-8.307934">
        <ele>491</ele>
        <time>2022-08-14T07:42:20Z</time>
      </trkpt>
      <trkpt lat="40.775374" lon="-8.307895">
        <ele>491.4</ele>
        <time>2022-08-14T07:42:23Z</time>
      </trkpt>
      <trkpt lat="40.775379" lon="-8.307845">
        <ele>492.2</ele>
        <time>2022-08-14T07:42:27Z</time>
      </trkpt>
      <trkpt lat="40.775379" lon="-8.307845">
        <ele>492.6</ele>
        <time>2022-08-14T07:42:28Z</time>
      </trkpt>
      <trkpt lat="40.775398" lon="-8.307661">
        <ele>494</ele>
        <time>2022-08-14T07:42:42Z</time>
      </trkpt>
      <trkpt lat="40.7754" lon="-8.307606">
        <ele>494.4</ele>
        <time>2022-08-14T07:42:45Z</time>
      </trkpt>
      <trkpt lat="40.775405" lon="-8.307518">
        <ele>495</ele>
        <time>2022-08-14T07:42:50Z</time>
      </trkpt>
      <trkpt lat="40.775409" lon="-8.307426">
        <ele>495.6</ele>
        <time>2022-08-14T07:42:55Z</time>
      </trkpt>
      <trkpt lat="40.775414" lon="-8.307357">
        <ele>496.2</ele>
        <time>2022-08-14T07:42:59Z</time>
      </trkpt>
      <trkpt lat="40.775416" lon="-8.307268">
        <ele>496.8</ele>
        <time>2022-08-14T07:43:04Z</time>
      </trkpt>
      <trkpt lat="40.775418" lon="-8.307166">
        <ele>497.2</ele>
        <time>2022-08-14T07:43:09Z</time>
      </trkpt>
      <trkpt lat="40.77542" lon="-8.307051">
        <ele>498</ele>
        <time>2022-08-14T07:43:15Z</time>
      </trkpt>
      <trkpt lat="40.775419" lon="-8.30698">
        <ele>498.4</ele>
        <time>2022-08-14T07:43:19Z</time>
      </trkpt>
      <trkpt lat="40.775408" lon="-8.30696">
        <ele>498.6</ele>
        <time>2022-08-14T07:43:21Z</time>
      </trkpt>
      <trkpt lat="40.775399" lon="-8.306953">
        <ele>498.8</ele>
        <time>2022-08-14T07:43:22Z</time>
      </trkpt>
      <trkpt lat="40.775389" lon="-8.306943">
        <ele>498.8</ele>
        <time>2022-08-14T07:43:23Z</time>
      </trkpt>
      <trkpt lat="40.775405" lon="-8.306892">
        <ele>499</ele>
        <time>2022-08-14T07:43:26Z</time>
      </trkpt>
      <trkpt lat="40.775439" lon="-8.306887">
        <ele>499.2</ele>
        <time>2022-08-14T07:43:28Z</time>
      </trkpt>
      <trkpt lat="40.775477" lon="-8.306899">
        <ele>499.2</ele>
        <time>2022-08-14T07:43:30Z</time>
      </trkpt>
      <trkpt lat="40.77551" lon="-8.306914">
        <ele>499.4</ele>
        <time>2022-08-14T07:43:32Z</time>
      </trkpt>
      <trkpt lat="40.775526" lon="-8.306921">
        <ele>499.4</ele>
        <time>2022-08-14T07:43:33Z</time>
      </trkpt>
      <trkpt lat="40.775617" lon="-8.306947">
        <ele>500</ele>
        <time>2022-08-14T07:43:39Z</time>
      </trkpt>
      <trkpt lat="40.775658" lon="-8.306954">
        <ele>500.6</ele>
        <time>2022-08-14T07:43:42Z</time>
      </trkpt>
      <trkpt lat="40.775727" lon="-8.306968">
        <ele>501.2</ele>
        <time>2022-08-14T07:43:46Z</time>
      </trkpt>
      <trkpt lat="40.775782" lon="-8.306974">
        <ele>501.8</ele>
        <time>2022-08-14T07:43:49Z</time>
      </trkpt>
      <trkpt lat="40.775797" lon="-8.306975">
        <ele>502</ele>
        <time>2022-08-14T07:43:50Z</time>
      </trkpt>
      <trkpt lat="40.775846" lon="-8.306962">
        <ele>502.8</ele>
        <time>2022-08-14T07:43:54Z</time>
      </trkpt>
      <trkpt lat="40.775862" lon="-8.30696">
        <ele>502.8</ele>
        <time>2022-08-14T07:43:55Z</time>
      </trkpt>
      <trkpt lat="40.775931" lon="-8.306962">
        <ele>503.8</ele>
        <time>2022-08-14T07:44:00Z</time>
      </trkpt>
      <trkpt lat="40.775958" lon="-8.30695">
        <ele>504</ele>
        <time>2022-08-14T07:44:02Z</time>
      </trkpt>
      <trkpt lat="40.776045" lon="-8.306916">
        <ele>504.8</ele>
        <time>2022-08-14T07:44:08Z</time>
      </trkpt>
      <trkpt lat="40.776076" lon="-8.306897">
        <ele>505.2</ele>
        <time>2022-08-14T07:44:10Z</time>
      </trkpt>
      <trkpt lat="40.776171" lon="-8.306858">
        <ele>506</ele>
        <time>2022-08-14T07:44:16Z</time>
      </trkpt>
      <trkpt lat="40.77621" lon="-8.306841">
        <ele>506.4</ele>
        <time>2022-08-14T07:44:19Z</time>
      </trkpt>
      <trkpt lat="40.776241" lon="-8.306808">
        <ele>507</ele>
        <time>2022-08-14T07:44:22Z</time>
      </trkpt>
      <trkpt lat="40.776291" lon="-8.306753">
        <ele>507.4</ele>
        <time>2022-08-14T07:44:27Z</time>
      </trkpt>
      <trkpt lat="40.776345" lon="-8.306655">
        <ele>508</ele>
        <time>2022-08-14T07:44:33Z</time>
      </trkpt>
      <trkpt lat="40.776379" lon="-8.306618">
        <ele>508.2</ele>
        <time>2022-08-14T07:44:36Z</time>
      </trkpt>
      <trkpt lat="40.776398" lon="-8.306592">
        <ele>508.2</ele>
        <time>2022-08-14T07:44:38Z</time>
      </trkpt>
      <trkpt lat="40.776428" lon="-8.306555">
        <ele>508.4</ele>
        <time>2022-08-14T07:44:41Z</time>
      </trkpt>
      <trkpt lat="40.776447" lon="-8.306524">
        <ele>508.6</ele>
        <time>2022-08-14T07:44:43Z</time>
      </trkpt>
      <trkpt lat="40.776534" lon="-8.306435">
        <ele>509.2</ele>
        <time>2022-08-14T07:44:51Z</time>
      </trkpt>
      <trkpt lat="40.77671" lon="-8.306273">
        <ele>509</ele>
        <time>2022-08-14T07:45:01Z</time>
      </trkpt>
      <trkpt lat="40.776735" lon="-8.306244">
        <ele>509.2</ele>
        <time>2022-08-14T07:45:03Z</time>
      </trkpt>
      <trkpt lat="40.776831" lon="-8.306162">
        <ele>509.6</ele>
        <time>2022-08-14T07:45:09Z</time>
      </trkpt>
      <trkpt lat="40.776944" lon="-8.306063">
        <ele>509.8</ele>
        <time>2022-08-14T07:45:16Z</time>
      </trkpt>
      <trkpt lat="40.77708" lon="-8.305969">
        <ele>510.2</ele>
        <time>2022-08-14T07:45:23Z</time>
      </trkpt>
      <trkpt lat="40.777102" lon="-8.305956">
        <ele>510.2</ele>
        <time>2022-08-14T07:45:24Z</time>
      </trkpt>
      <trkpt lat="40.77724" lon="-8.305864">
        <ele>510.4</ele>
        <time>2022-08-14T07:45:30Z</time>
      </trkpt>
      <trkpt lat="40.777446" lon="-8.305732">
        <ele>510.4</ele>
        <time>2022-08-14T07:45:37Z</time>
      </trkpt>
      <trkpt lat="40.777664" lon="-8.305565">
        <ele>509.6</ele>
        <time>2022-08-14T07:45:45Z</time>
      </trkpt>
      <trkpt lat="40.777794" lon="-8.305474">
        <ele>509.4</ele>
        <time>2022-08-14T07:45:51Z</time>
      </trkpt>
      <trkpt lat="40.777932" lon="-8.30549">
        <ele>509.2</ele>
        <time>2022-08-14T07:45:56Z</time>
      </trkpt>
      <trkpt lat="40.777986" lon="-8.305526">
        <ele>509.2</ele>
        <time>2022-08-14T07:45:58Z</time>
      </trkpt>
      <trkpt lat="40.778054" lon="-8.305608">
        <ele>509.2</ele>
        <time>2022-08-14T07:46:02Z</time>
      </trkpt>
      <trkpt lat="40.778193" lon="-8.305757">
        <ele>509.4</ele>
        <time>2022-08-14T07:46:09Z</time>
      </trkpt>
      <trkpt lat="40.778293" lon="-8.305898">
        <ele>509.6</ele>
        <time>2022-08-14T07:46:16Z</time>
      </trkpt>
      <trkpt lat="40.778437" lon="-8.306076">
        <ele>509.6</ele>
        <time>2022-08-14T07:46:24Z</time>
      </trkpt>
      <trkpt lat="40.778548" lon="-8.306183">
        <ele>509.6</ele>
        <time>2022-08-14T07:46:30Z</time>
      </trkpt>
      <trkpt lat="40.778677" lon="-8.30637">
        <ele>510</ele>
        <time>2022-08-14T07:46:38Z</time>
      </trkpt>
      <trkpt lat="40.778701" lon="-8.306424">
        <ele>510.2</ele>
        <time>2022-08-14T07:46:40Z</time>
      </trkpt>
      <trkpt lat="40.778748" lon="-8.306556">
        <ele>510.2</ele>
        <time>2022-08-14T07:46:45Z</time>
      </trkpt>
      <trkpt lat="40.778825" lon="-8.306798">
        <ele>510</ele>
        <time>2022-08-14T07:46:55Z</time>
      </trkpt>
      <trkpt lat="40.778897" lon="-8.30698">
        <ele>510</ele>
        <time>2022-08-14T07:47:02Z</time>
      </trkpt>
      <trkpt lat="40.778903" lon="-8.306995">
        <ele>510</ele>
        <time>2022-08-14T07:47:03Z</time>
      </trkpt>
      <trkpt lat="40.778905" lon="-8.307028">
        <ele>510</ele>
        <time>2022-08-14T07:47:05Z</time>
      </trkpt>
      <trkpt lat="40.77891" lon="-8.307044">
        <ele>510</ele>
        <time>2022-08-14T07:47:06Z</time>
      </trkpt>
      <trkpt lat="40.778962" lon="-8.307157">
        <ele>510.4</ele>
        <time>2022-08-14T07:47:12Z</time>
      </trkpt>
      <trkpt lat="40.77908" lon="-8.307328">
        <ele>511.2</ele>
        <time>2022-08-14T07:47:20Z</time>
      </trkpt>
      <trkpt lat="40.779093" lon="-8.307349">
        <ele>511.2</ele>
        <time>2022-08-14T07:47:21Z</time>
      </trkpt>
      <trkpt lat="40.779175" lon="-8.307475">
        <ele>511.8</ele>
        <time>2022-08-14T07:47:27Z</time>
      </trkpt>
      <trkpt lat="40.779194" lon="-8.307528">
        <ele>512.2</ele>
        <time>2022-08-14T07:47:29Z</time>
      </trkpt>
      <trkpt lat="40.779263" lon="-8.307735">
        <ele>513</ele>
        <time>2022-08-14T07:47:37Z</time>
      </trkpt>
      <trkpt lat="40.779286" lon="-8.307798">
        <ele>513.4</ele>
        <time>2022-08-14T07:47:40Z</time>
      </trkpt>
      <trkpt lat="40.779292" lon="-8.307877">
        <ele>513.6</ele>
        <time>2022-08-14T07:47:44Z</time>
      </trkpt>
      <trkpt lat="40.779324" lon="-8.308027">
        <ele>514.4</ele>
        <time>2022-08-14T07:47:49Z</time>
      </trkpt>
      <trkpt lat="40.779358" lon="-8.308144">
        <ele>514.6</ele>
        <time>2022-08-14T07:47:53Z</time>
      </trkpt>
      <trkpt lat="40.779373" lon="-8.308202">
        <ele>514.6</ele>
        <time>2022-08-14T07:47:55Z</time>
      </trkpt>
      <trkpt lat="40.779443" lon="-8.308395">
        <ele>514.8</ele>
        <time>2022-08-14T07:48:00Z</time>
      </trkpt>
      <trkpt lat="40.779585" lon="-8.308735">
        <ele>514.8</ele>
        <time>2022-08-14T07:48:09Z</time>
      </trkpt>
      <trkpt lat="40.779709" lon="-8.308986">
        <ele>514.8</ele>
        <time>2022-08-14T07:48:16Z</time>
      </trkpt>
      <trkpt lat="40.779761" lon="-8.309101">
        <ele>515.2</ele>
        <time>2022-08-14T07:48:20Z</time>
      </trkpt>
      <trkpt lat="40.7798" lon="-8.309206">
        <ele>515.8</ele>
        <time>2022-08-14T07:48:24Z</time>
      </trkpt>
      <trkpt lat="40.779823" lon="-8.30929">
        <ele>516.2</ele>
        <time>2022-08-14T07:48:27Z</time>
      </trkpt>
      <trkpt lat="40.779863" lon="-8.309393">
        <ele>516.6</ele>
        <time>2022-08-14T07:48:31Z</time>
      </trkpt>
      <trkpt lat="40.779923" lon="-8.309535">
        <ele>517</ele>
        <time>2022-08-14T07:48:38Z</time>
      </trkpt>
      <trkpt lat="40.779938" lon="-8.309587">
        <ele>517.2</ele>
        <time>2022-08-14T07:48:42Z</time>
      </trkpt>
      <trkpt lat="40.779942" lon="-8.309636">
        <ele>517.8</ele>
        <time>2022-08-14T07:48:45Z</time>
      </trkpt>
      <trkpt lat="40.77995" lon="-8.309669">
        <ele>518.2</ele>
        <time>2022-08-14T07:48:48Z</time>
      </trkpt>
      <trkpt lat="40.779952" lon="-8.309671">
        <ele>518.6</ele>
        <time>2022-08-14T07:48:51Z</time>
      </trkpt>
      <trkpt lat="40.780044" lon="-8.309661">
        <ele>519</ele>
        <time>2022-08-14T07:52:17Z</time>
      </trkpt>
      <trkpt lat="40.780184" lon="-8.309799">
        <ele>519.2</ele>
        <time>2022-08-14T07:52:24Z</time>
      </trkpt>
      <trkpt lat="40.780435" lon="-8.310049">
        <ele>519.4</ele>
        <time>2022-08-14T07:52:36Z</time>
      </trkpt>
      <trkpt lat="40.780552" lon="-8.310155">
        <ele>519.8</ele>
        <time>2022-08-14T07:52:44Z</time>
      </trkpt>
      <trkpt lat="40.780607" lon="-8.310164">
        <ele>520</ele>
        <time>2022-08-14T07:52:48Z</time>
      </trkpt>
      <trkpt lat="40.780658" lon="-8.310142">
        <ele>520.2</ele>
        <time>2022-08-14T07:52:51Z</time>
      </trkpt>
      <trkpt lat="40.780816" lon="-8.310087">
        <ele>520.6</ele>
        <time>2022-08-14T07:52:58Z</time>
      </trkpt>
      <trkpt lat="40.781011" lon="-8.310015">
        <ele>520.8</ele>
        <time>2022-08-14T07:53:05Z</time>
      </trkpt>
      <trkpt lat="40.781059" lon="-8.30999">
        <ele>521.2</ele>
        <time>2022-08-14T07:53:07Z</time>
      </trkpt>
      <trkpt lat="40.781171" lon="-8.309892">
        <ele>521.6</ele>
        <time>2022-08-14T07:53:12Z</time>
      </trkpt>
      <trkpt lat="40.781188" lon="-8.309903">
        <ele>521.6</ele>
        <time>2022-08-14T07:53:13Z</time>
      </trkpt>
      <trkpt lat="40.781185" lon="-8.309946">
        <ele>521.8</ele>
        <time>2022-08-14T07:53:16Z</time>
      </trkpt>
      <trkpt lat="40.781034" lon="-8.310056">
        <ele>521.8</ele>
        <time>2022-08-14T07:53:23Z</time>
      </trkpt>
      <trkpt lat="40.780834" lon="-8.310136">
        <ele>521.6</ele>
        <time>2022-08-14T07:53:30Z</time>
      </trkpt>
      <trkpt lat="40.78061" lon="-8.31018">
        <ele>521.2</ele>
        <time>2022-08-14T07:53:37Z</time>
      </trkpt>
      <trkpt lat="40.780498" lon="-8.310152">
        <ele>521</ele>
        <time>2022-08-14T07:53:42Z</time>
      </trkpt>
      <trkpt lat="40.780481" lon="-8.310118">
        <ele>521</ele>
        <time>2022-08-14T07:53:44Z</time>
      </trkpt>
      <trkpt lat="40.780493" lon="-8.310105">
        <ele>520.8</ele>
        <time>2022-08-14T07:53:46Z</time>
      </trkpt>
      <trkpt lat="40.7806" lon="-8.310158">
        <ele>520.4</ele>
        <time>2022-08-14T07:53:52Z</time>
      </trkpt>
      <trkpt lat="40.780746" lon="-8.310107">
        <ele>520.6</ele>
        <time>2022-08-14T07:53:57Z</time>
      </trkpt>
      <trkpt lat="40.780963" lon="-8.310045">
        <ele>521</ele>
        <time>2022-08-14T07:54:04Z</time>
      </trkpt>
      <trkpt lat="40.781163" lon="-8.309924">
        <ele>521.2</ele>
        <time>2022-08-14T07:54:11Z</time>
      </trkpt>
      <trkpt lat="40.781366" lon="-8.309762">
        <ele>521.6</ele>
        <time>2022-08-14T07:54:18Z</time>
      </trkpt>
      <trkpt lat="40.781429" lon="-8.309715">
        <ele>521.6</ele>
        <time>2022-08-14T07:54:20Z</time>
      </trkpt>
      <trkpt lat="40.781684" lon="-8.309522">
        <ele>521.8</ele>
        <time>2022-08-14T07:54:29Z</time>
      </trkpt>
      <trkpt lat="40.781879" lon="-8.309382">
        <ele>522.2</ele>
        <time>2022-08-14T07:54:37Z</time>
      </trkpt>
      <trkpt lat="40.782086" lon="-8.309301">
        <ele>522.2</ele>
        <time>2022-08-14T07:54:44Z</time>
      </trkpt>
      <trkpt lat="40.782284" lon="-8.309234">
        <ele>522.2</ele>
        <time>2022-08-14T07:54:50Z</time>
      </trkpt>
      <trkpt lat="40.782556" lon="-8.30905">
        <ele>521.8</ele>
        <time>2022-08-14T07:54:57Z</time>
      </trkpt>
      <trkpt lat="40.782774" lon="-8.308883">
        <ele>521.8</ele>
        <time>2022-08-14T07:55:03Z</time>
      </trkpt>
      <trkpt lat="40.782976" lon="-8.308656">
        <ele>522.2</ele>
        <time>2022-08-14T07:55:09Z</time>
      </trkpt>
      <trkpt lat="40.78308" lon="-8.308422">
        <ele>522.4</ele>
        <time>2022-08-14T07:55:14Z</time>
      </trkpt>
      <trkpt lat="40.783096" lon="-8.308358">
        <ele>522.4</ele>
        <time>2022-08-14T07:55:15Z</time>
      </trkpt>
      <trkpt lat="40.783133" lon="-8.308098">
        <ele>522.2</ele>
        <time>2022-08-14T07:55:19Z</time>
      </trkpt>
      <trkpt lat="40.783203" lon="-8.3077">
        <ele>520.2</ele>
        <time>2022-08-14T07:55:24Z</time>
      </trkpt>
      <trkpt lat="40.783233" lon="-8.307454">
        <ele>518.6</ele>
        <time>2022-08-14T07:55:27Z</time>
      </trkpt>
      <trkpt lat="40.783269" lon="-8.3072">
        <ele>517</ele>
        <time>2022-08-14T07:55:30Z</time>
      </trkpt>
      <trkpt lat="40.78331" lon="-8.306863">
        <ele>515.6</ele>
        <time>2022-08-14T07:55:34Z</time>
      </trkpt>
      <trkpt lat="40.783336" lon="-8.30665">
        <ele>514.2</ele>
        <time>2022-08-14T07:55:37Z</time>
      </trkpt>
      <trkpt lat="40.783351" lon="-8.306562">
        <ele>514</ele>
        <time>2022-08-14T07:55:39Z</time>
      </trkpt>
      <trkpt lat="40.783409" lon="-8.3064">
        <ele>513.4</ele>
        <time>2022-08-14T07:55:43Z</time>
      </trkpt>
      <trkpt lat="40.783423" lon="-8.306365">
        <ele>513.4</ele>
        <time>2022-08-14T07:55:44Z</time>
      </trkpt>
      <trkpt lat="40.783441" lon="-8.306335">
        <ele>513.4</ele>
        <time>2022-08-14T07:55:45Z</time>
      </trkpt>
      <trkpt lat="40.783609" lon="-8.306039">
        <ele>513.4</ele>
        <time>2022-08-14T07:55:54Z</time>
      </trkpt>
      <trkpt lat="40.783784" lon="-8.305763">
        <ele>513.8</ele>
        <time>2022-08-14T07:56:02Z</time>
      </trkpt>
      <trkpt lat="40.783977" lon="-8.305466">
        <ele>514</ele>
        <time>2022-08-14T07:56:11Z</time>
      </trkpt>
      <trkpt lat="40.78409" lon="-8.305354">
        <ele>514.4</ele>
        <time>2022-08-14T07:56:16Z</time>
      </trkpt>
      <trkpt lat="40.784142" lon="-8.305316">
        <ele>514.8</ele>
        <time>2022-08-14T07:56:18Z</time>
      </trkpt>
      <trkpt lat="40.784358" lon="-8.305254">
        <ele>515.4</ele>
        <time>2022-08-14T07:56:25Z</time>
      </trkpt>
      <trkpt lat="40.784387" lon="-8.305252">
        <ele>515.6</ele>
        <time>2022-08-14T07:56:26Z</time>
      </trkpt>
      <trkpt lat="40.784588" lon="-8.305196">
        <ele>516.4</ele>
        <time>2022-08-14T07:56:34Z</time>
      </trkpt>
      <trkpt lat="40.784605" lon="-8.305184">
        <ele>516.6</ele>
        <time>2022-08-14T07:56:35Z</time>
      </trkpt>
      <trkpt lat="40.784616" lon="-8.305167">
        <ele>516.6</ele>
        <time>2022-08-14T07:56:36Z</time>
      </trkpt>
      <trkpt lat="40.784607" lon="-8.305127">
        <ele>517</ele>
        <time>2022-08-14T07:56:38Z</time>
      </trkpt>
      <trkpt lat="40.784487" lon="-8.305112">
        <ele>517.2</ele>
        <time>2022-08-14T07:56:42Z</time>
      </trkpt>
      <trkpt lat="40.784334" lon="-8.305023">
        <ele>517.2</ele>
        <time>2022-08-14T07:56:46Z</time>
      </trkpt>
      <trkpt lat="40.784273" lon="-8.304906">
        <ele>516.6</ele>
        <time>2022-08-14T07:56:48Z</time>
      </trkpt>
      <trkpt lat="40.784247" lon="-8.304761">
        <ele>515.4</ele>
        <time>2022-08-14T07:56:50Z</time>
      </trkpt>
      <trkpt lat="40.784242" lon="-8.304627">
        <ele>514.6</ele>
        <time>2022-08-14T07:56:52Z</time>
      </trkpt>
      <trkpt lat="40.784245" lon="-8.304571">
        <ele>513.6</ele>
        <time>2022-08-14T07:56:53Z</time>
      </trkpt>
      <trkpt lat="40.784251" lon="-8.304475">
        <ele>512.6</ele>
        <time>2022-08-14T07:56:55Z</time>
      </trkpt>
      <trkpt lat="40.78426" lon="-8.304437">
        <ele>512.4</ele>
        <time>2022-08-14T07:56:56Z</time>
      </trkpt>
      <trkpt lat="40.784312" lon="-8.304345">
        <ele>512.2</ele>
        <time>2022-08-14T07:56:59Z</time>
      </trkpt>
      <trkpt lat="40.784397" lon="-8.304279">
        <ele>512</ele>
        <time>2022-08-14T07:57:03Z</time>
      </trkpt>
      <trkpt lat="40.784459" lon="-8.304236">
        <ele>512.6</ele>
        <time>2022-08-14T07:57:07Z</time>
      </trkpt>
      <trkpt lat="40.784471" lon="-8.304214">
        <ele>512.8</ele>
        <time>2022-08-14T07:57:08Z</time>
      </trkpt>
      <trkpt lat="40.784535" lon="-8.304113">
        <ele>513.6</ele>
        <time>2022-08-14T07:57:13Z</time>
      </trkpt>
      <trkpt lat="40.784606" lon="-8.304067">
        <ele>514.6</ele>
        <time>2022-08-14T07:57:18Z</time>
      </trkpt>
      <trkpt lat="40.784614" lon="-8.304074">
        <ele>515</ele>
        <time>2022-08-14T07:57:19Z</time>
      </trkpt>
      <trkpt lat="40.784638" lon="-8.304159">
        <ele>515.4</ele>
        <time>2022-08-14T07:57:25Z</time>
      </trkpt>
      <trkpt lat="40.784678" lon="-8.304228">
        <ele>515.8</ele>
        <time>2022-08-14T07:57:30Z</time>
      </trkpt>
      <trkpt lat="40.784708" lon="-8.304297">
        <ele>515.8</ele>
        <time>2022-08-14T07:57:34Z</time>
      </trkpt>
      <trkpt lat="40.78475" lon="-8.304347">
        <ele>516</ele>
        <time>2022-08-14T07:57:38Z</time>
      </trkpt>
      <trkpt lat="40.784766" lon="-8.304334">
        <ele>516</ele>
        <time>2022-08-14T07:57:40Z</time>
      </trkpt>
      <trkpt lat="40.784864" lon="-8.304257">
        <ele>516.2</ele>
        <time>2022-08-14T07:57:46Z</time>
      </trkpt>
      <trkpt lat="40.784884" lon="-8.30426">
        <ele>516.2</ele>
        <time>2022-08-14T07:57:47Z</time>
      </trkpt>
      <trkpt lat="40.784996" lon="-8.304263">
        <ele>515.6</ele>
        <time>2022-08-14T07:57:53Z</time>
      </trkpt>
      <trkpt lat="40.785086" lon="-8.304202">
        <ele>514.8</ele>
        <time>2022-08-14T07:57:57Z</time>
      </trkpt>
      <trkpt lat="40.785152" lon="-8.304169">
        <ele>514.2</ele>
        <time>2022-08-14T07:57:59Z</time>
      </trkpt>
      <trkpt lat="40.785235" lon="-8.304132">
        <ele>513.4</ele>
        <time>2022-08-14T07:58:01Z</time>
      </trkpt>
      <trkpt lat="40.785316" lon="-8.304082">
        <ele>512.4</ele>
        <time>2022-08-14T07:58:03Z</time>
      </trkpt>
      <trkpt lat="40.785351" lon="-8.30405">
        <ele>512.2</ele>
        <time>2022-08-14T07:58:04Z</time>
      </trkpt>
      <trkpt lat="40.78542" lon="-8.303992">
        <ele>510.8</ele>
        <time>2022-08-14T07:58:06Z</time>
      </trkpt>
      <trkpt lat="40.785458" lon="-8.303977">
        <ele>510.8</ele>
        <time>2022-08-14T07:58:07Z</time>
      </trkpt>
      <trkpt lat="40.785498" lon="-8.30397">
        <ele>510.4</ele>
        <time>2022-08-14T07:58:08Z</time>
      </trkpt>
      <trkpt lat="40.785599" lon="-8.303969">
        <ele>509.2</ele>
        <time>2022-08-14T07:58:10Z</time>
      </trkpt>
      <trkpt lat="40.785695" lon="-8.303992">
        <ele>507.6</ele>
        <time>2022-08-14T07:58:12Z</time>
      </trkpt>
      <trkpt lat="40.785742" lon="-8.304005">
        <ele>507</ele>
        <time>2022-08-14T07:58:13Z</time>
      </trkpt>
      <trkpt lat="40.78582" lon="-8.304028">
        <ele>506.4</ele>
        <time>2022-08-14T07:58:15Z</time>
      </trkpt>
      <trkpt lat="40.785947" lon="-8.304078">
        <ele>505.4</ele>
        <time>2022-08-14T07:58:19Z</time>
      </trkpt>
      <trkpt lat="40.785972" lon="-8.304087">
        <ele>505.2</ele>
        <time>2022-08-14T07:58:20Z</time>
      </trkpt>
      <trkpt lat="40.786058" lon="-8.304135">
        <ele>505</ele>
        <time>2022-08-14T07:58:24Z</time>
      </trkpt>
      <trkpt lat="40.786096" lon="-8.304158">
        <ele>505</ele>
        <time>2022-08-14T07:58:26Z</time>
      </trkpt>
      <trkpt lat="40.78624" lon="-8.304286">
        <ele>505.2</ele>
        <time>2022-08-14T07:58:34Z</time>
      </trkpt>
      <trkpt lat="40.786377" lon="-8.30431">
        <ele>505</ele>
        <time>2022-08-14T07:58:39Z</time>
      </trkpt>
      <trkpt lat="40.786435" lon="-8.304202">
        <ele>504.6</ele>
        <time>2022-08-14T07:58:43Z</time>
      </trkpt>
      <trkpt lat="40.78649" lon="-8.303925">
        <ele>504.2</ele>
        <time>2022-08-14T07:58:51Z</time>
      </trkpt>
      <trkpt lat="40.786487" lon="-8.303897">
        <ele>504.2</ele>
        <time>2022-08-14T07:58:52Z</time>
      </trkpt>
      <trkpt lat="40.786471" lon="-8.303814">
        <ele>503.8</ele>
        <time>2022-08-14T07:58:56Z</time>
      </trkpt>
      <trkpt lat="40.786458" lon="-8.303778">
        <ele>503.6</ele>
        <time>2022-08-14T07:58:58Z</time>
      </trkpt>
      <trkpt lat="40.786449" lon="-8.303772">
        <ele>503.6</ele>
        <time>2022-08-14T07:59:00Z</time>
      </trkpt>
      <trkpt lat="40.786449" lon="-8.303772">
        <ele>503.4</ele>
        <time>2022-08-14T07:59:01Z</time>
      </trkpt>
      <trkpt lat="40.786818" lon="-8.303325">
        <ele>510.6</ele>
        <time>2022-08-14T08:00:07Z</time>
      </trkpt>
      <trkpt lat="40.786841" lon="-8.303301">
        <ele>511.2</ele>
        <time>2022-08-14T08:00:10Z</time>
      </trkpt>
      <trkpt lat="40.786855" lon="-8.303283">
        <ele>511.6</ele>
        <time>2022-08-14T08:00:12Z</time>
      </trkpt>
      <trkpt lat="40.786873" lon="-8.303276">
        <ele>511.8</ele>
        <time>2022-08-14T08:00:14Z</time>
      </trkpt>
      <trkpt lat="40.786905" lon="-8.303289">
        <ele>512.4</ele>
        <time>2022-08-14T08:00:17Z</time>
      </trkpt>
      <trkpt lat="40.786958" lon="-8.303318">
        <ele>513.4</ele>
        <time>2022-08-14T08:00:21Z</time>
      </trkpt>
      <trkpt lat="40.786993" lon="-8.303353">
        <ele>514.8</ele>
        <time>2022-08-14T08:00:25Z</time>
      </trkpt>
      <trkpt lat="40.787003" lon="-8.303355">
        <ele>515</ele>
        <time>2022-08-14T08:00:26Z</time>
      </trkpt>
      <trkpt lat="40.787043" lon="-8.303393">
        <ele>515.8</ele>
        <time>2022-08-14T08:00:30Z</time>
      </trkpt>
      <trkpt lat="40.787062" lon="-8.303447">
        <ele>517</ele>
        <time>2022-08-14T08:00:33Z</time>
      </trkpt>
      <trkpt lat="40.787098" lon="-8.303613">
        <ele>518</ele>
        <time>2022-08-14T08:00:39Z</time>
      </trkpt>
      <trkpt lat="40.787098" lon="-8.303639">
        <ele>518.2</ele>
        <time>2022-08-14T08:00:40Z</time>
      </trkpt>
      <trkpt lat="40.787125" lon="-8.303835">
        <ele>518.4</ele>
        <time>2022-08-14T08:00:47Z</time>
      </trkpt>
      <trkpt lat="40.787171" lon="-8.304052">
        <ele>518.6</ele>
        <time>2022-08-14T08:00:55Z</time>
      </trkpt>
      <trkpt lat="40.787174" lon="-8.304235">
        <ele>518.6</ele>
        <time>2022-08-14T08:01:02Z</time>
      </trkpt>
      <trkpt lat="40.787192" lon="-8.304552">
        <ele>519</ele>
        <time>2022-08-14T08:01:12Z</time>
      </trkpt>
      <trkpt lat="40.787233" lon="-8.304766">
        <ele>519</ele>
        <time>2022-08-14T08:01:19Z</time>
      </trkpt>
      <trkpt lat="40.787282" lon="-8.304999">
        <ele>519</ele>
        <time>2022-08-14T08:01:26Z</time>
      </trkpt>
      <trkpt lat="40.787336" lon="-8.305421">
        <ele>519.6</ele>
        <time>2022-08-14T08:01:38Z</time>
      </trkpt>
      <trkpt lat="40.787405" lon="-8.305618">
        <ele>519.6</ele>
        <time>2022-08-14T08:01:46Z</time>
      </trkpt>
      <trkpt lat="40.787468" lon="-8.305837">
        <ele>520.2</ele>
        <time>2022-08-14T08:01:54Z</time>
      </trkpt>
      <trkpt lat="40.787471" lon="-8.305865">
        <ele>520.2</ele>
        <time>2022-08-14T08:01:55Z</time>
      </trkpt>
      <trkpt lat="40.78753" lon="-8.306029">
        <ele>520.4</ele>
        <time>2022-08-14T08:02:01Z</time>
      </trkpt>
      <trkpt lat="40.787661" lon="-8.306232">
        <ele>521</ele>
        <time>2022-08-14T08:02:09Z</time>
      </trkpt>
      <trkpt lat="40.787691" lon="-8.30628">
        <ele>521.2</ele>
        <time>2022-08-14T08:02:11Z</time>
      </trkpt>
      <trkpt lat="40.787758" lon="-8.306391">
        <ele>521.6</ele>
        <time>2022-08-14T08:02:16Z</time>
      </trkpt>
      <trkpt lat="40.78785" lon="-8.306505">
        <ele>522.2</ele>
        <time>2022-08-14T08:02:21Z</time>
      </trkpt>
      <trkpt lat="40.787885" lon="-8.306564">
        <ele>522.6</ele>
        <time>2022-08-14T08:02:23Z</time>
      </trkpt>
      <trkpt lat="40.788024" lon="-8.306815">
        <ele>523</ele>
        <time>2022-08-14T08:02:33Z</time>
      </trkpt>
      <trkpt lat="40.788063" lon="-8.306908">
        <ele>523.2</ele>
        <time>2022-08-14T08:02:37Z</time>
      </trkpt>
      <trkpt lat="40.788075" lon="-8.306928">
        <ele>523.4</ele>
        <time>2022-08-14T08:02:38Z</time>
      </trkpt>
      <trkpt lat="40.788117" lon="-8.307026">
        <ele>523.8</ele>
        <time>2022-08-14T08:02:42Z</time>
      </trkpt>
      <trkpt lat="40.788122" lon="-8.307066">
        <ele>524</ele>
        <time>2022-08-14T08:02:44Z</time>
      </trkpt>
      <trkpt lat="40.788131" lon="-8.307116">
        <ele>524.4</ele>
        <time>2022-08-14T08:02:46Z</time>
      </trkpt>
      <trkpt lat="40.788105" lon="-8.307208">
        <ele>525.4</ele>
        <time>2022-08-14T08:02:50Z</time>
      </trkpt>
      <trkpt lat="40.788095" lon="-8.30723">
        <ele>525.4</ele>
        <time>2022-08-14T08:02:51Z</time>
      </trkpt>
      <trkpt lat="40.78804" lon="-8.307469">
        <ele>526.2</ele>
        <time>2022-08-14T08:02:59Z</time>
      </trkpt>
      <trkpt lat="40.788052" lon="-8.307662">
        <ele>526.6</ele>
        <time>2022-08-14T08:03:04Z</time>
      </trkpt>
      <trkpt lat="40.788064" lon="-8.307733">
        <ele>526.6</ele>
        <time>2022-08-14T08:03:06Z</time>
      </trkpt>
      <trkpt lat="40.788074" lon="-8.307777">
        <ele>526.8</ele>
        <time>2022-08-14T08:03:07Z</time>
      </trkpt>
      <trkpt lat="40.788178" lon="-8.307981">
        <ele>527</ele>
        <time>2022-08-14T08:03:14Z</time>
      </trkpt>
      <trkpt lat="40.788287" lon="-8.307972">
        <ele>527.2</ele>
        <time>2022-08-14T08:03:19Z</time>
      </trkpt>
      <trkpt lat="40.788308" lon="-8.307959">
        <ele>527.4</ele>
        <time>2022-08-14T08:03:20Z</time>
      </trkpt>
      <trkpt lat="40.788436" lon="-8.307883">
        <ele>528.4</ele>
        <time>2022-08-14T08:03:26Z</time>
      </trkpt>
      <trkpt lat="40.788457" lon="-8.307872">
        <ele>528.6</ele>
        <time>2022-08-14T08:03:27Z</time>
      </trkpt>
      <trkpt lat="40.788663" lon="-8.307839">
        <ele>529.2</ele>
        <time>2022-08-14T08:03:34Z</time>
      </trkpt>
      <trkpt lat="40.788829" lon="-8.307894">
        <ele>529.6</ele>
        <time>2022-08-14T08:03:40Z</time>
      </trkpt>
      <trkpt lat="40.788882" lon="-8.30791">
        <ele>529.6</ele>
        <time>2022-08-14T08:03:42Z</time>
      </trkpt>
      <trkpt lat="40.789113" lon="-8.307924">
        <ele>530.2</ele>
        <time>2022-08-14T08:03:51Z</time>
      </trkpt>
      <trkpt lat="40.789297" lon="-8.30782">
        <ele>530.6</ele>
        <time>2022-08-14T08:03:58Z</time>
      </trkpt>
      <trkpt lat="40.789479" lon="-8.307615">
        <ele>530.8</ele>
        <time>2022-08-14T08:04:06Z</time>
      </trkpt>
      <trkpt lat="40.789603" lon="-8.307466">
        <ele>531.2</ele>
        <time>2022-08-14T08:04:12Z</time>
      </trkpt>
      <trkpt lat="40.789675" lon="-8.307366">
        <ele>531.6</ele>
        <time>2022-08-14T08:04:16Z</time>
      </trkpt>
      <trkpt lat="40.789709" lon="-8.307328">
        <ele>532</ele>
        <time>2022-08-14T08:04:18Z</time>
      </trkpt>
      <trkpt lat="40.789742" lon="-8.307283">
        <ele>532.6</ele>
        <time>2022-08-14T08:04:21Z</time>
      </trkpt>
      <trkpt lat="40.789756" lon="-8.307244">
        <ele>532.8</ele>
        <time>2022-08-14T08:04:23Z</time>
      </trkpt>
      <trkpt lat="40.789767" lon="-8.307226">
        <ele>532.8</ele>
        <time>2022-08-14T08:04:24Z</time>
      </trkpt>
      <trkpt lat="40.78988" lon="-8.307152">
        <ele>532.6</ele>
        <time>2022-08-14T08:04:30Z</time>
      </trkpt>
      <trkpt lat="40.79012" lon="-8.30706">
        <ele>532</ele>
        <time>2022-08-14T08:04:37Z</time>
      </trkpt>
      <trkpt lat="40.790232" lon="-8.307">
        <ele>531.8</ele>
        <time>2022-08-14T08:04:41Z</time>
      </trkpt>
      <trkpt lat="40.790277" lon="-8.306965">
        <ele>531.6</ele>
        <time>2022-08-14T08:04:43Z</time>
      </trkpt>
      <trkpt lat="40.790385" lon="-8.306864">
        <ele>531.2</ele>
        <time>2022-08-14T08:04:49Z</time>
      </trkpt>
      <trkpt lat="40.790528" lon="-8.306731">
        <ele>531</ele>
        <time>2022-08-14T08:04:55Z</time>
      </trkpt>
      <trkpt lat="40.790574" lon="-8.306695">
        <ele>530.6</ele>
        <time>2022-08-14T08:04:57Z</time>
      </trkpt>
      <trkpt lat="40.79063" lon="-8.306637">
        <ele>530</ele>
        <time>2022-08-14T08:05:00Z</time>
      </trkpt>
      <trkpt lat="40.790681" lon="-8.306592">
        <ele>529.2</ele>
        <time>2022-08-14T08:05:02Z</time>
      </trkpt>
      <trkpt lat="40.790755" lon="-8.306507">
        <ele>528.4</ele>
        <time>2022-08-14T08:05:05Z</time>
      </trkpt>
      <trkpt lat="40.790803" lon="-8.306454">
        <ele>527.8</ele>
        <time>2022-08-14T08:05:07Z</time>
      </trkpt>
      <trkpt lat="40.790858" lon="-8.306418">
        <ele>527.2</ele>
        <time>2022-08-14T08:05:09Z</time>
      </trkpt>
      <trkpt lat="40.790931" lon="-8.306386">
        <ele>525.8</ele>
        <time>2022-08-14T08:05:11Z</time>
      </trkpt>
      <trkpt lat="40.790987" lon="-8.306342">
        <ele>525</ele>
        <time>2022-08-14T08:05:13Z</time>
      </trkpt>
      <trkpt lat="40.79101" lon="-8.30632">
        <ele>524.4</ele>
        <time>2022-08-14T08:05:14Z</time>
      </trkpt>
      <trkpt lat="40.791105" lon="-8.306218">
        <ele>523.2</ele>
        <time>2022-08-14T08:05:18Z</time>
      </trkpt>
      <trkpt lat="40.791164" lon="-8.30615">
        <ele>522.8</ele>
        <time>2022-08-14T08:05:20Z</time>
      </trkpt>
      <trkpt lat="40.791266" lon="-8.306039">
        <ele>522.2</ele>
        <time>2022-08-14T08:05:23Z</time>
      </trkpt>
      <trkpt lat="40.7913" lon="-8.306">
        <ele>522</ele>
        <time>2022-08-14T08:05:24Z</time>
      </trkpt>
      <trkpt lat="40.791333" lon="-8.30596">
        <ele>521.8</ele>
        <time>2022-08-14T08:05:25Z</time>
      </trkpt>
      <trkpt lat="40.79137" lon="-8.305921">
        <ele>521.4</ele>
        <time>2022-08-14T08:05:26Z</time>
      </trkpt>
      <trkpt lat="40.791449" lon="-8.305854">
        <ele>520.8</ele>
        <time>2022-08-14T08:05:28Z</time>
      </trkpt>
      <trkpt lat="40.791526" lon="-8.305803">
        <ele>520.2</ele>
        <time>2022-08-14T08:05:30Z</time>
      </trkpt>
      <trkpt lat="40.79159" lon="-8.305753">
        <ele>519.8</ele>
        <time>2022-08-14T08:05:32Z</time>
      </trkpt>
      <trkpt lat="40.791623" lon="-8.30572">
        <ele>519.6</ele>
        <time>2022-08-14T08:05:33Z</time>
      </trkpt>
      <trkpt lat="40.791691" lon="-8.30565">
        <ele>519.4</ele>
        <time>2022-08-14T08:05:35Z</time>
      </trkpt>
      <trkpt lat="40.791859" lon="-8.305505">
        <ele>518.8</ele>
        <time>2022-08-14T08:05:40Z</time>
      </trkpt>
      <trkpt lat="40.791895" lon="-8.305476">
        <ele>518.6</ele>
        <time>2022-08-14T08:05:41Z</time>
      </trkpt>
      <trkpt lat="40.792003" lon="-8.305396">
        <ele>518.2</ele>
        <time>2022-08-14T08:05:44Z</time>
      </trkpt>
      <trkpt lat="40.792034" lon="-8.30537">
        <ele>517.8</ele>
        <time>2022-08-14T08:05:45Z</time>
      </trkpt>
      <trkpt lat="40.792055" lon="-8.305357">
        <ele>517.2</ele>
        <time>2022-08-14T08:05:46Z</time>
      </trkpt>
      <trkpt lat="40.792094" lon="-8.305345">
        <ele>516.6</ele>
        <time>2022-08-14T08:05:48Z</time>
      </trkpt>
      <trkpt lat="40.792164" lon="-8.305318">
        <ele>515.8</ele>
        <time>2022-08-14T08:05:51Z</time>
      </trkpt>
      <trkpt lat="40.792287" lon="-8.305212">
        <ele>515.6</ele>
        <time>2022-08-14T08:05:57Z</time>
      </trkpt>
      <trkpt lat="40.792433" lon="-8.305121">
        <ele>515.6</ele>
        <time>2022-08-14T08:06:01Z</time>
      </trkpt>
      <trkpt lat="40.792645" lon="-8.305034">
        <ele>515.4</ele>
        <time>2022-08-14T08:06:05Z</time>
      </trkpt>
      <trkpt lat="40.792708" lon="-8.305017">
        <ele>515.2</ele>
        <time>2022-08-14T08:06:06Z</time>
      </trkpt>
      <trkpt lat="40.792784" lon="-8.305002">
        <ele>514.8</ele>
        <time>2022-08-14T08:06:07Z</time>
      </trkpt>
      <trkpt lat="40.792938" lon="-8.305015">
        <ele>514.2</ele>
        <time>2022-08-14T08:06:09Z</time>
      </trkpt>
      <trkpt lat="40.793017" lon="-8.305028">
        <ele>513.4</ele>
        <time>2022-08-14T08:06:10Z</time>
      </trkpt>
      <trkpt lat="40.793095" lon="-8.305045">
        <ele>513.2</ele>
        <time>2022-08-14T08:06:11Z</time>
      </trkpt>
      <trkpt lat="40.793482" lon="-8.305155">
        <ele>512</ele>
        <time>2022-08-14T08:06:16Z</time>
      </trkpt>
      <trkpt lat="40.793544" lon="-8.305172">
        <ele>511.4</ele>
        <time>2022-08-14T08:06:17Z</time>
      </trkpt>
      <trkpt lat="40.79365" lon="-8.305181">
        <ele>510.8</ele>
        <time>2022-08-14T08:06:19Z</time>
      </trkpt>
      <trkpt lat="40.793715" lon="-8.305185">
        <ele>510.4</ele>
        <time>2022-08-14T08:06:20Z</time>
      </trkpt>
      <trkpt lat="40.793809" lon="-8.305192">
        <ele>509.8</ele>
        <time>2022-08-14T08:06:22Z</time>
      </trkpt>
      <trkpt lat="40.793969" lon="-8.305215">
        <ele>508.6</ele>
        <time>2022-08-14T08:06:26Z</time>
      </trkpt>
      <trkpt lat="40.794154" lon="-8.305271">
        <ele>508.2</ele>
        <time>2022-08-14T08:06:32Z</time>
      </trkpt>
      <trkpt lat="40.794339" lon="-8.305355">
        <ele>508.6</ele>
        <time>2022-08-14T08:06:39Z</time>
      </trkpt>
      <trkpt lat="40.794594" lon="-8.305412">
        <ele>508.8</ele>
        <time>2022-08-14T08:06:46Z</time>
      </trkpt>
      <trkpt lat="40.794686" lon="-8.305421">
        <ele>508.6</ele>
        <time>2022-08-14T08:06:48Z</time>
      </trkpt>
      <trkpt lat="40.794784" lon="-8.305423">
        <ele>507.8</ele>
        <time>2022-08-14T08:06:50Z</time>
      </trkpt>
      <trkpt lat="40.794834" lon="-8.30541">
        <ele>507.6</ele>
        <time>2022-08-14T08:06:51Z</time>
      </trkpt>
      <trkpt lat="40.794894" lon="-8.305391">
        <ele>507.4</ele>
        <time>2022-08-14T08:06:52Z</time>
      </trkpt>
      <trkpt lat="40.795058" lon="-8.305305">
        <ele>506.8</ele>
        <time>2022-08-14T08:06:56Z</time>
      </trkpt>
      <trkpt lat="40.795135" lon="-8.305271">
        <ele>506.8</ele>
        <time>2022-08-14T08:06:58Z</time>
      </trkpt>
      <trkpt lat="40.795317" lon="-8.305186">
        <ele>506.6</ele>
        <time>2022-08-14T08:07:03Z</time>
      </trkpt>
      <trkpt lat="40.795388" lon="-8.30515">
        <ele>506.4</ele>
        <time>2022-08-14T08:07:05Z</time>
      </trkpt>
      <trkpt lat="40.795468" lon="-8.305109">
        <ele>506.2</ele>
        <time>2022-08-14T08:07:07Z</time>
      </trkpt>
      <trkpt lat="40.79565" lon="-8.305089">
        <ele>505.8</ele>
        <time>2022-08-14T08:07:11Z</time>
      </trkpt>
      <trkpt lat="40.795819" lon="-8.3051">
        <ele>505.6</ele>
        <time>2022-08-14T08:07:14Z</time>
      </trkpt>
      <trkpt lat="40.795883" lon="-8.305098">
        <ele>505.4</ele>
        <time>2022-08-14T08:07:15Z</time>
      </trkpt>
      <trkpt lat="40.795946" lon="-8.305091">
        <ele>505</ele>
        <time>2022-08-14T08:07:16Z</time>
      </trkpt>
      <trkpt lat="40.796129" lon="-8.305083">
        <ele>504.4</ele>
        <time>2022-08-14T08:07:19Z</time>
      </trkpt>
      <trkpt lat="40.796329" lon="-8.305061">
        <ele>503.8</ele>
        <time>2022-08-14T08:07:23Z</time>
      </trkpt>
      <trkpt lat="40.796592" lon="-8.305001">
        <ele>503.8</ele>
        <time>2022-08-14T08:07:29Z</time>
      </trkpt>
      <trkpt lat="40.796757" lon="-8.304933">
        <ele>504.4</ele>
        <time>2022-08-14T08:07:35Z</time>
      </trkpt>
      <trkpt lat="40.796922" lon="-8.304966">
        <ele>504.8</ele>
        <time>2022-08-14T08:07:41Z</time>
      </trkpt>
      <trkpt lat="40.797106" lon="-8.305055">
        <ele>504.8</ele>
        <time>2022-08-14T08:07:46Z</time>
      </trkpt>
      <trkpt lat="40.797155" lon="-8.305081">
        <ele>504.6</ele>
        <time>2022-08-14T08:07:47Z</time>
      </trkpt>
      <trkpt lat="40.79725" lon="-8.305098">
        <ele>504</ele>
        <time>2022-08-14T08:07:49Z</time>
      </trkpt>
      <trkpt lat="40.797312" lon="-8.30508">
        <ele>504</ele>
        <time>2022-08-14T08:07:50Z</time>
      </trkpt>
      <trkpt lat="40.797358" lon="-8.305043">
        <ele>503.6</ele>
        <time>2022-08-14T08:07:51Z</time>
      </trkpt>
      <trkpt lat="40.797429" lon="-8.304953">
        <ele>503</ele>
        <time>2022-08-14T08:07:53Z</time>
      </trkpt>
      <trkpt lat="40.797466" lon="-8.304893">
        <ele>502.8</ele>
        <time>2022-08-14T08:07:54Z</time>
      </trkpt>
      <trkpt lat="40.797517" lon="-8.304834">
        <ele>502.6</ele>
        <time>2022-08-14T08:07:55Z</time>
      </trkpt>
      <trkpt lat="40.797625" lon="-8.304717">
        <ele>502</ele>
        <time>2022-08-14T08:07:58Z</time>
      </trkpt>
      <trkpt lat="40.797669" lon="-8.304671">
        <ele>501.8</ele>
        <time>2022-08-14T08:07:59Z</time>
      </trkpt>
      <trkpt lat="40.797717" lon="-8.304615">
        <ele>501.2</ele>
        <time>2022-08-14T08:08:00Z</time>
      </trkpt>
      <trkpt lat="40.797806" lon="-8.304533">
        <ele>500.8</ele>
        <time>2022-08-14T08:08:02Z</time>
      </trkpt>
      <trkpt lat="40.797843" lon="-8.304503">
        <ele>500.6</ele>
        <time>2022-08-14T08:08:03Z</time>
      </trkpt>
      <trkpt lat="40.797912" lon="-8.304447">
        <ele>500.6</ele>
        <time>2022-08-14T08:08:04Z</time>
      </trkpt>
      <trkpt lat="40.798026" lon="-8.304373">
        <ele>500.2</ele>
        <time>2022-08-14T08:08:06Z</time>
      </trkpt>
      <trkpt lat="40.79812" lon="-8.304303">
        <ele>499.8</ele>
        <time>2022-08-14T08:08:08Z</time>
      </trkpt>
      <trkpt lat="40.798243" lon="-8.304177">
        <ele>499.4</ele>
        <time>2022-08-14T08:08:10Z</time>
      </trkpt>
      <trkpt lat="40.798299" lon="-8.304121">
        <ele>499.2</ele>
        <time>2022-08-14T08:08:11Z</time>
      </trkpt>
      <trkpt lat="40.79847" lon="-8.303959">
        <ele>498.6</ele>
        <time>2022-08-14T08:08:14Z</time>
      </trkpt>
      <trkpt lat="40.798537" lon="-8.303918">
        <ele>498.4</ele>
        <time>2022-08-14T08:08:15Z</time>
      </trkpt>
      <trkpt lat="40.798686" lon="-8.303866">
        <ele>497.8</ele>
        <time>2022-08-14T08:08:17Z</time>
      </trkpt>
      <trkpt lat="40.798849" lon="-8.303828">
        <ele>497</ele>
        <time>2022-08-14T08:08:19Z</time>
      </trkpt>
      <trkpt lat="40.79893" lon="-8.30382">
        <ele>496.8</ele>
        <time>2022-08-14T08:08:20Z</time>
      </trkpt>
      <trkpt lat="40.799163" lon="-8.303786">
        <ele>495.6</ele>
        <time>2022-08-14T08:08:23Z</time>
      </trkpt>
      <trkpt lat="40.79938" lon="-8.30377">
        <ele>494.8</ele>
        <time>2022-08-14T08:08:26Z</time>
      </trkpt>
      <trkpt lat="40.799449" lon="-8.303771">
        <ele>494.6</ele>
        <time>2022-08-14T08:08:27Z</time>
      </trkpt>
      <trkpt lat="40.799735" lon="-8.303745">
        <ele>493.4</ele>
        <time>2022-08-14T08:08:31Z</time>
      </trkpt>
      <trkpt lat="40.79981" lon="-8.303735">
        <ele>493.2</ele>
        <time>2022-08-14T08:08:32Z</time>
      </trkpt>
      <trkpt lat="40.799885" lon="-8.303718">
        <ele>493</ele>
        <time>2022-08-14T08:08:33Z</time>
      </trkpt>
      <trkpt lat="40.800044" lon="-8.303643">
        <ele>492.2</ele>
        <time>2022-08-14T08:08:35Z</time>
      </trkpt>
      <trkpt lat="40.800115" lon="-8.303583">
        <ele>492</ele>
        <time>2022-08-14T08:08:36Z</time>
      </trkpt>
      <trkpt lat="40.800244" lon="-8.303473">
        <ele>491.6</ele>
        <time>2022-08-14T08:08:38Z</time>
      </trkpt>
      <trkpt lat="40.80039" lon="-8.303432">
        <ele>491</ele>
        <time>2022-08-14T08:08:40Z</time>
      </trkpt>
      <trkpt lat="40.800534" lon="-8.303408">
        <ele>490.2</ele>
        <time>2022-08-14T08:08:42Z</time>
      </trkpt>
      <trkpt lat="40.800675" lon="-8.303431">
        <ele>489.4</ele>
        <time>2022-08-14T08:08:44Z</time>
      </trkpt>
      <trkpt lat="40.800868" lon="-8.303517">
        <ele>487.8</ele>
        <time>2022-08-14T08:08:47Z</time>
      </trkpt>
      <trkpt lat="40.800944" lon="-8.303522">
        <ele>487.4</ele>
        <time>2022-08-14T08:08:48Z</time>
      </trkpt>
      <trkpt lat="40.800994" lon="-8.30351">
        <ele>486.6</ele>
        <time>2022-08-14T08:08:49Z</time>
      </trkpt>
      <trkpt lat="40.801015" lon="-8.303474">
        <ele>486.2</ele>
        <time>2022-08-14T08:08:50Z</time>
      </trkpt>
      <trkpt lat="40.801013" lon="-8.30345">
        <ele>485.2</ele>
        <time>2022-08-14T08:08:51Z</time>
      </trkpt>
      <trkpt lat="40.801002" lon="-8.30341">
        <ele>483.8</ele>
        <time>2022-08-14T08:08:52Z</time>
      </trkpt>
      <trkpt lat="40.800979" lon="-8.303352">
        <ele>483.2</ele>
        <time>2022-08-14T08:08:53Z</time>
      </trkpt>
      <trkpt lat="40.800951" lon="-8.303283">
        <ele>482</ele>
        <time>2022-08-14T08:08:54Z</time>
      </trkpt>
      <trkpt lat="40.800933" lon="-8.303122">
        <ele>481</ele>
        <time>2022-08-14T08:08:56Z</time>
      </trkpt>
      <trkpt lat="40.800935" lon="-8.303035">
        <ele>480.8</ele>
        <time>2022-08-14T08:08:57Z</time>
      </trkpt>
      <trkpt lat="40.800968" lon="-8.30285">
        <ele>479.2</ele>
        <time>2022-08-14T08:08:59Z</time>
      </trkpt>
      <trkpt lat="40.800973" lon="-8.302759">
        <ele>478.8</ele>
        <time>2022-08-14T08:09:00Z</time>
      </trkpt>
      <trkpt lat="40.800962" lon="-8.302674">
        <ele>478.2</ele>
        <time>2022-08-14T08:09:01Z</time>
      </trkpt>
      <trkpt lat="40.800936" lon="-8.3026">
        <ele>477.8</ele>
        <time>2022-08-14T08:09:02Z</time>
      </trkpt>
      <trkpt lat="40.800904" lon="-8.302543">
        <ele>477.4</ele>
        <time>2022-08-14T08:09:03Z</time>
      </trkpt>
      <trkpt lat="40.800863" lon="-8.3025">
        <ele>477</ele>
        <time>2022-08-14T08:09:04Z</time>
      </trkpt>
      <trkpt lat="40.800752" lon="-8.302406">
        <ele>476.4</ele>
        <time>2022-08-14T08:09:07Z</time>
      </trkpt>
      <trkpt lat="40.800578" lon="-8.302272">
        <ele>476.4</ele>
        <time>2022-08-14T08:09:13Z</time>
      </trkpt>
      <trkpt lat="40.800419" lon="-8.302102">
        <ele>477.4</ele>
        <time>2022-08-14T08:09:20Z</time>
      </trkpt>
      <trkpt lat="40.800318" lon="-8.302006">
        <ele>478</ele>
        <time>2022-08-14T08:09:24Z</time>
      </trkpt>
      <trkpt lat="40.800201" lon="-8.301945">
        <ele>478.6</ele>
        <time>2022-08-14T08:09:28Z</time>
      </trkpt>
      <trkpt lat="40.800121" lon="-8.301902">
        <ele>479.2</ele>
        <time>2022-08-14T08:09:31Z</time>
      </trkpt>
      <trkpt lat="40.800016" lon="-8.30185">
        <ele>479.8</ele>
        <time>2022-08-14T08:09:36Z</time>
      </trkpt>
      <trkpt lat="40.799994" lon="-8.301828">
        <ele>479.8</ele>
        <time>2022-08-14T08:09:37Z</time>
      </trkpt>
      <trkpt lat="40.799971" lon="-8.301725">
        <ele>480</ele>
        <time>2022-08-14T08:09:40Z</time>
      </trkpt>
      <trkpt lat="40.799936" lon="-8.301613">
        <ele>480.4</ele>
        <time>2022-08-14T08:09:43Z</time>
      </trkpt>
      <trkpt lat="40.799905" lon="-8.301546">
        <ele>480.6</ele>
        <time>2022-08-14T08:09:45Z</time>
      </trkpt>
      <trkpt lat="40.799809" lon="-8.301239">
        <ele>481.4</ele>
        <time>2022-08-14T08:09:53Z</time>
      </trkpt>
      <trkpt lat="40.799802" lon="-8.30121">
        <ele>481.4</ele>
        <time>2022-08-14T08:09:54Z</time>
      </trkpt>
      <trkpt lat="40.799753" lon="-8.301038">
        <ele>482.2</ele>
        <time>2022-08-14T08:09:59Z</time>
      </trkpt>
      <trkpt lat="40.799747" lon="-8.300973">
        <ele>482.6</ele>
        <time>2022-08-14T08:10:01Z</time>
      </trkpt>
      <trkpt lat="40.799718" lon="-8.300809">
        <ele>483</ele>
        <time>2022-08-14T08:10:05Z</time>
      </trkpt>
      <trkpt lat="40.799656" lon="-8.300624">
        <ele>483</ele>
        <time>2022-08-14T08:10:11Z</time>
      </trkpt>
      <trkpt lat="40.799634" lon="-8.300553">
        <ele>483.2</ele>
        <time>2022-08-14T08:10:16Z</time>
      </trkpt>
      <trkpt lat="40.799634" lon="-8.300553">
        <ele>483.2</ele>
        <time>2022-08-14T08:10:17Z</time>
      </trkpt>
      <trkpt lat="40.799653" lon="-8.300386">
        <ele>481.2</ele>
        <time>2022-08-14T08:16:38Z</time>
      </trkpt>
      <trkpt lat="40.799653" lon="-8.300386">
        <ele>481.2</ele>
        <time>2022-08-14T08:16:39Z</time>
      </trkpt>
      <trkpt lat="40.799653" lon="-8.300386">
        <ele>482.2</ele>
        <time>2022-08-14T08:18:23Z</time>
      </trkpt>
      <trkpt lat="40.799653" lon="-8.300386">
        <ele>482.2</ele>
        <time>2022-08-14T08:18:24Z</time>
      </trkpt>
      <trkpt lat="40.799616" lon="-8.30037">
        <ele>482.4</ele>
        <time>2022-08-14T08:23:26Z</time>
      </trkpt>
      <trkpt lat="40.799616" lon="-8.30037">
        <ele>482.6</ele>
        <time>2022-08-14T08:23:27Z</time>
      </trkpt>
      <trkpt lat="40.800537" lon="-8.300506">
        <ele>486.6</ele>
        <time>2022-08-14T08:26:09Z</time>
      </trkpt>
      <trkpt lat="40.800583" lon="-8.300512">
        <ele>487.4</ele>
        <time>2022-08-14T08:26:12Z</time>
      </trkpt>
      <trkpt lat="40.8006" lon="-8.300516">
        <ele>487.8</ele>
        <time>2022-08-14T08:26:13Z</time>
      </trkpt>
      <trkpt lat="40.800638" lon="-8.300516">
        <ele>488.8</ele>
        <time>2022-08-14T08:26:15Z</time>
      </trkpt>
      <trkpt lat="40.800653" lon="-8.300512">
        <ele>489</ele>
        <time>2022-08-14T08:26:16Z</time>
      </trkpt>
      <trkpt lat="40.800679" lon="-8.300484">
        <ele>489.4</ele>
        <time>2022-08-14T08:26:18Z</time>
      </trkpt>
      <trkpt lat="40.800762" lon="-8.300345">
        <ele>490</ele>
        <time>2022-08-14T08:26:26Z</time>
      </trkpt>
      <trkpt lat="40.800818" lon="-8.300308">
        <ele>490.8</ele>
        <time>2022-08-14T08:26:30Z</time>
      </trkpt>
      <trkpt lat="40.800833" lon="-8.300305">
        <ele>491.2</ele>
        <time>2022-08-14T08:26:31Z</time>
      </trkpt>
      <trkpt lat="40.800849" lon="-8.300306">
        <ele>491.4</ele>
        <time>2022-08-14T08:26:32Z</time>
      </trkpt>
      <trkpt lat="40.800891" lon="-8.300316">
        <ele>492</ele>
        <time>2022-08-14T08:26:35Z</time>
      </trkpt>
      <trkpt lat="40.800906" lon="-8.300349">
        <ele>492.2</ele>
        <time>2022-08-14T08:26:37Z</time>
      </trkpt>
      <trkpt lat="40.800949" lon="-8.300458">
        <ele>493.4</ele>
        <time>2022-08-14T08:26:43Z</time>
      </trkpt>
      <trkpt lat="40.800959" lon="-8.300465">
        <ele>493.6</ele>
        <time>2022-08-14T08:26:44Z</time>
      </trkpt>
      <trkpt lat="40.800997" lon="-8.300518">
        <ele>494.4</ele>
        <time>2022-08-14T08:26:48Z</time>
      </trkpt>
      <trkpt lat="40.801002" lon="-8.300535">
        <ele>494.6</ele>
        <time>2022-08-14T08:26:49Z</time>
      </trkpt>
      <trkpt lat="40.801003" lon="-8.300554">
        <ele>494.8</ele>
        <time>2022-08-14T08:26:50Z</time>
      </trkpt>
      <trkpt lat="40.801008" lon="-8.300591">
        <ele>495</ele>
        <time>2022-08-14T08:26:52Z</time>
      </trkpt>
      <trkpt lat="40.801036" lon="-8.300625">
        <ele>495.6</ele>
        <time>2022-08-14T08:26:55Z</time>
      </trkpt>
      <trkpt lat="40.801043" lon="-8.300638">
        <ele>495.8</ele>
        <time>2022-08-14T08:26:56Z</time>
      </trkpt>
      <trkpt lat="40.801045" lon="-8.300666">
        <ele>496</ele>
        <time>2022-08-14T08:26:58Z</time>
      </trkpt>
      <trkpt lat="40.801028" lon="-8.300692">
        <ele>496.2</ele>
        <time>2022-08-14T08:27:00Z</time>
      </trkpt>
      <trkpt lat="40.801025" lon="-8.30071">
        <ele>496.6</ele>
        <time>2022-08-14T08:27:01Z</time>
      </trkpt>
      <trkpt lat="40.80103" lon="-8.300724">
        <ele>496.8</ele>
        <time>2022-08-14T08:27:02Z</time>
      </trkpt>
      <trkpt lat="40.801048" lon="-8.300768">
        <ele>497.2</ele>
        <time>2022-08-14T08:27:05Z</time>
      </trkpt>
      <trkpt lat="40.801045" lon="-8.300787">
        <ele>497.4</ele>
        <time>2022-08-14T08:27:06Z</time>
      </trkpt>
      <trkpt lat="40.80104" lon="-8.300804">
        <ele>497.4</ele>
        <time>2022-08-14T08:27:07Z</time>
      </trkpt>
      <trkpt lat="40.801037" lon="-8.300839">
        <ele>497.8</ele>
        <time>2022-08-14T08:27:09Z</time>
      </trkpt>
      <trkpt lat="40.801039" lon="-8.300857">
        <ele>498</ele>
        <time>2022-08-14T08:27:10Z</time>
      </trkpt>
      <trkpt lat="40.801042" lon="-8.30089">
        <ele>498.6</ele>
        <time>2022-08-14T08:27:12Z</time>
      </trkpt>
      <trkpt lat="40.801038" lon="-8.300907">
        <ele>498.8</ele>
        <time>2022-08-14T08:27:13Z</time>
      </trkpt>
      <trkpt lat="40.801031" lon="-8.301">
        <ele>500</ele>
        <time>2022-08-14T08:27:19Z</time>
      </trkpt>
      <trkpt lat="40.801037" lon="-8.301024">
        <ele>500.4</ele>
        <time>2022-08-14T08:27:21Z</time>
      </trkpt>
      <trkpt lat="40.801054" lon="-8.301044">
        <ele>501.2</ele>
        <time>2022-08-14T08:27:23Z</time>
      </trkpt>
      <trkpt lat="40.801074" lon="-8.301119">
        <ele>501.8</ele>
        <time>2022-08-14T08:27:28Z</time>
      </trkpt>
      <trkpt lat="40.801095" lon="-8.301139">
        <ele>502.4</ele>
        <time>2022-08-14T08:27:30Z</time>
      </trkpt>
      <trkpt lat="40.801125" lon="-8.301145">
        <ele>503</ele>
        <time>2022-08-14T08:27:33Z</time>
      </trkpt>
      <trkpt lat="40.801131" lon="-8.301158">
        <ele>503</ele>
        <time>2022-08-14T08:27:34Z</time>
      </trkpt>
      <trkpt lat="40.801135" lon="-8.301202">
        <ele>503.4</ele>
        <time>2022-08-14T08:27:37Z</time>
      </trkpt>
      <trkpt lat="40.801134" lon="-8.301215">
        <ele>503.4</ele>
        <time>2022-08-14T08:27:38Z</time>
      </trkpt>
      <trkpt lat="40.801149" lon="-8.301232">
        <ele>503.8</ele>
        <time>2022-08-14T08:27:40Z</time>
      </trkpt>
      <trkpt lat="40.801169" lon="-8.301254">
        <ele>504.2</ele>
        <time>2022-08-14T08:27:42Z</time>
      </trkpt>
      <trkpt lat="40.801179" lon="-8.301288">
        <ele>504.4</ele>
        <time>2022-08-14T08:27:44Z</time>
      </trkpt>
      <trkpt lat="40.801193" lon="-8.30131">
        <ele>504.6</ele>
        <time>2022-08-14T08:27:46Z</time>
      </trkpt>
      <trkpt lat="40.801255" lon="-8.301351">
        <ele>505.8</ele>
        <time>2022-08-14T08:27:51Z</time>
      </trkpt>
      <trkpt lat="40.801281" lon="-8.301373">
        <ele>506</ele>
        <time>2022-08-14T08:27:53Z</time>
      </trkpt>
      <trkpt lat="40.801346" lon="-8.301423">
        <ele>506.8</ele>
        <time>2022-08-14T08:27:59Z</time>
      </trkpt>
      <trkpt lat="40.801386" lon="-8.301428">
        <ele>507.4</ele>
        <time>2022-08-14T08:28:02Z</time>
      </trkpt>
      <trkpt lat="40.801416" lon="-8.301418">
        <ele>507.8</ele>
        <time>2022-08-14T08:28:05Z</time>
      </trkpt>
      <trkpt lat="40.801474" lon="-8.301424">
        <ele>508.8</ele>
        <time>2022-08-14T08:28:10Z</time>
      </trkpt>
      <trkpt lat="40.801483" lon="-8.301427">
        <ele>509.2</ele>
        <time>2022-08-14T08:28:11Z</time>
      </trkpt>
      <trkpt lat="40.801508" lon="-8.301442">
        <ele>509.6</ele>
        <time>2022-08-14T08:28:14Z</time>
      </trkpt>
      <trkpt lat="40.801535" lon="-8.301437">
        <ele>510.2</ele>
        <time>2022-08-14T08:28:16Z</time>
      </trkpt>
      <trkpt lat="40.801606" lon="-8.301431">
        <ele>511.4</ele>
        <time>2022-08-14T08:28:23Z</time>
      </trkpt>
      <trkpt lat="40.801617" lon="-8.301429">
        <ele>511.8</ele>
        <time>2022-08-14T08:28:24Z</time>
      </trkpt>
      <trkpt lat="40.801635" lon="-8.301441">
        <ele>512</ele>
        <time>2022-08-14T08:28:26Z</time>
      </trkpt>
      <trkpt lat="40.801651" lon="-8.301458">
        <ele>512.6</ele>
        <time>2022-08-14T08:28:28Z</time>
      </trkpt>
      <trkpt lat="40.801661" lon="-8.301457">
        <ele>512.8</ele>
        <time>2022-08-14T08:28:29Z</time>
      </trkpt>
      <trkpt lat="40.80168" lon="-8.301456">
        <ele>513.4</ele>
        <time>2022-08-14T08:28:31Z</time>
      </trkpt>
      <trkpt lat="40.801704" lon="-8.301446">
        <ele>513.4</ele>
        <time>2022-08-14T08:28:33Z</time>
      </trkpt>
      <trkpt lat="40.801734" lon="-8.301458">
        <ele>513.8</ele>
        <time>2022-08-14T08:28:35Z</time>
      </trkpt>
      <trkpt lat="40.801746" lon="-8.301472">
        <ele>513.8</ele>
        <time>2022-08-14T08:28:36Z</time>
      </trkpt>
      <trkpt lat="40.801777" lon="-8.301485">
        <ele>514.4</ele>
        <time>2022-08-14T08:28:39Z</time>
      </trkpt>
      <trkpt lat="40.801803" lon="-8.301486">
        <ele>514.6</ele>
        <time>2022-08-14T08:28:41Z</time>
      </trkpt>
      <trkpt lat="40.801816" lon="-8.301477">
        <ele>514.8</ele>
        <time>2022-08-14T08:28:42Z</time>
      </trkpt>
      <trkpt lat="40.801857" lon="-8.301475">
        <ele>515.4</ele>
        <time>2022-08-14T08:28:45Z</time>
      </trkpt>
      <trkpt lat="40.801895" lon="-8.301499">
        <ele>515.8</ele>
        <time>2022-08-14T08:28:48Z</time>
      </trkpt>
      <trkpt lat="40.801975" lon="-8.301492">
        <ele>516.8</ele>
        <time>2022-08-14T08:28:54Z</time>
      </trkpt>
      <trkpt lat="40.802057" lon="-8.301503">
        <ele>518</ele>
        <time>2022-08-14T08:29:01Z</time>
      </trkpt>
      <trkpt lat="40.80207" lon="-8.3015">
        <ele>518.2</ele>
        <time>2022-08-14T08:29:02Z</time>
      </trkpt>
      <trkpt lat="40.802092" lon="-8.301499">
        <ele>518.4</ele>
        <time>2022-08-14T08:29:04Z</time>
      </trkpt>
      <trkpt lat="40.802143" lon="-8.301506">
        <ele>519.4</ele>
        <time>2022-08-14T08:29:08Z</time>
      </trkpt>
      <trkpt lat="40.802158" lon="-8.301499">
        <ele>519.4</ele>
        <time>2022-08-14T08:29:09Z</time>
      </trkpt>
      <trkpt lat="40.802218" lon="-8.301479">
        <ele>520.2</ele>
        <time>2022-08-14T08:29:14Z</time>
      </trkpt>
      <trkpt lat="40.80223" lon="-8.301486">
        <ele>520.6</ele>
        <time>2022-08-14T08:29:15Z</time>
      </trkpt>
      <trkpt lat="40.802246" lon="-8.301493">
        <ele>520.8</ele>
        <time>2022-08-14T08:29:16Z</time>
      </trkpt>
      <trkpt lat="40.802302" lon="-8.301473">
        <ele>521.4</ele>
        <time>2022-08-14T08:29:21Z</time>
      </trkpt>
      <trkpt lat="40.802307" lon="-8.301456">
        <ele>521.6</ele>
        <time>2022-08-14T08:29:22Z</time>
      </trkpt>
      <trkpt lat="40.802309" lon="-8.301439">
        <ele>521.8</ele>
        <time>2022-08-14T08:29:23Z</time>
      </trkpt>
      <trkpt lat="40.802338" lon="-8.301397">
        <ele>522.4</ele>
        <time>2022-08-14T08:29:26Z</time>
      </trkpt>
      <trkpt lat="40.802358" lon="-8.301381">
        <ele>522.6</ele>
        <time>2022-08-14T08:29:28Z</time>
      </trkpt>
      <trkpt lat="40.802384" lon="-8.301392">
        <ele>522.8</ele>
        <time>2022-08-14T08:29:30Z</time>
      </trkpt>
      <trkpt lat="40.802396" lon="-8.3014">
        <ele>523</ele>
        <time>2022-08-14T08:29:31Z</time>
      </trkpt>
      <trkpt lat="40.802411" lon="-8.301407">
        <ele>523</ele>
        <time>2022-08-14T08:29:32Z</time>
      </trkpt>
      <trkpt lat="40.802445" lon="-8.301413">
        <ele>523.4</ele>
        <time>2022-08-14T08:29:35Z</time>
      </trkpt>
      <trkpt lat="40.80247" lon="-8.301428">
        <ele>523.8</ele>
        <time>2022-08-14T08:29:38Z</time>
      </trkpt>
      <trkpt lat="40.802496" lon="-8.301446">
        <ele>523.8</ele>
        <time>2022-08-14T08:29:40Z</time>
      </trkpt>
      <trkpt lat="40.802513" lon="-8.301452">
        <ele>524.2</ele>
        <time>2022-08-14T08:29:43Z</time>
      </trkpt>
      <trkpt lat="40.802557" lon="-8.301469">
        <ele>524.2</ele>
        <time>2022-08-14T08:29:46Z</time>
      </trkpt>
      <trkpt lat="40.802575" lon="-8.301484">
        <ele>524.8</ele>
        <time>2022-08-14T08:29:48Z</time>
      </trkpt>
      <trkpt lat="40.802587" lon="-8.301493">
        <ele>525</ele>
        <time>2022-08-14T08:29:49Z</time>
      </trkpt>
      <trkpt lat="40.802644" lon="-8.301541">
        <ele>525.8</ele>
        <time>2022-08-14T08:29:55Z</time>
      </trkpt>
      <trkpt lat="40.802656" lon="-8.301559">
        <ele>526</ele>
        <time>2022-08-14T08:29:56Z</time>
      </trkpt>
      <trkpt lat="40.8027" lon="-8.301609">
        <ele>527</ele>
        <time>2022-08-14T08:30:00Z</time>
      </trkpt>
      <trkpt lat="40.802739" lon="-8.301652">
        <ele>527.6</ele>
        <time>2022-08-14T08:30:04Z</time>
      </trkpt>
      <trkpt lat="40.802754" lon="-8.301671">
        <ele>528</ele>
        <time>2022-08-14T08:30:06Z</time>
      </trkpt>
      <trkpt lat="40.802762" lon="-8.301683">
        <ele>528</ele>
        <time>2022-08-14T08:30:07Z</time>
      </trkpt>
      <trkpt lat="40.802768" lon="-8.301694">
        <ele>528.4</ele>
        <time>2022-08-14T08:30:08Z</time>
      </trkpt>
      <trkpt lat="40.802797" lon="-8.301725">
        <ele>528.8</ele>
        <time>2022-08-14T08:30:10Z</time>
      </trkpt>
      <trkpt lat="40.802804" lon="-8.301735">
        <ele>529</ele>
        <time>2022-08-14T08:30:11Z</time>
      </trkpt>
      <trkpt lat="40.80282" lon="-8.30175">
        <ele>529.4</ele>
        <time>2022-08-14T08:30:13Z</time>
      </trkpt>
      <trkpt lat="40.802834" lon="-8.301767">
        <ele>529.8</ele>
        <time>2022-08-14T08:30:15Z</time>
      </trkpt>
      <trkpt lat="40.802856" lon="-8.301804">
        <ele>530.2</ele>
        <time>2022-08-14T08:30:18Z</time>
      </trkpt>
      <trkpt lat="40.802886" lon="-8.301837">
        <ele>530.6</ele>
        <time>2022-08-14T08:30:21Z</time>
      </trkpt>
      <trkpt lat="40.802926" lon="-8.30187">
        <ele>531.2</ele>
        <time>2022-08-14T08:30:24Z</time>
      </trkpt>
      <trkpt lat="40.802981" lon="-8.301918">
        <ele>532</ele>
        <time>2022-08-14T08:30:29Z</time>
      </trkpt>
      <trkpt lat="40.802993" lon="-8.30193">
        <ele>532.4</ele>
        <time>2022-08-14T08:30:30Z</time>
      </trkpt>
      <trkpt lat="40.803059" lon="-8.301954">
        <ele>533</ele>
        <time>2022-08-14T08:30:36Z</time>
      </trkpt>
      <trkpt lat="40.803117" lon="-8.301984">
        <ele>533.6</ele>
        <time>2022-08-14T08:30:41Z</time>
      </trkpt>
      <trkpt lat="40.80312" lon="-8.302016">
        <ele>533.8</ele>
        <time>2022-08-14T08:30:43Z</time>
      </trkpt>
      <trkpt lat="40.803144" lon="-8.302035">
        <ele>534</ele>
        <time>2022-08-14T08:30:45Z</time>
      </trkpt>
      <trkpt lat="40.803174" lon="-8.302075">
        <ele>534.4</ele>
        <time>2022-08-14T08:30:48Z</time>
      </trkpt>
      <trkpt lat="40.803182" lon="-8.302089">
        <ele>534.4</ele>
        <time>2022-08-14T08:30:49Z</time>
      </trkpt>
      <trkpt lat="40.80319" lon="-8.302101">
        <ele>534.6</ele>
        <time>2022-08-14T08:30:50Z</time>
      </trkpt>
      <trkpt lat="40.803222" lon="-8.302137">
        <ele>534.8</ele>
        <time>2022-08-14T08:30:53Z</time>
      </trkpt>
      <trkpt lat="40.803254" lon="-8.302161">
        <ele>534.8</ele>
        <time>2022-08-14T08:30:55Z</time>
      </trkpt>
      <trkpt lat="40.803289" lon="-8.302185">
        <ele>535.2</ele>
        <time>2022-08-14T08:30:58Z</time>
      </trkpt>
      <trkpt lat="40.803292" lon="-8.302194">
        <ele>535.6</ele>
        <time>2022-08-14T08:30:59Z</time>
      </trkpt>
      <trkpt lat="40.803313" lon="-8.302224">
        <ele>535.8</ele>
        <time>2022-08-14T08:31:02Z</time>
      </trkpt>
      <trkpt lat="40.80339" lon="-8.302282">
        <ele>535.8</ele>
        <time>2022-08-14T08:31:08Z</time>
      </trkpt>
      <trkpt lat="40.803401" lon="-8.30229">
        <ele>535.8</ele>
        <time>2022-08-14T08:31:09Z</time>
      </trkpt>
      <trkpt lat="40.803419" lon="-8.302302">
        <ele>535.8</ele>
        <time>2022-08-14T08:31:11Z</time>
      </trkpt>
      <trkpt lat="40.803465" lon="-8.302322">
        <ele>536.2</ele>
        <time>2022-08-14T08:31:15Z</time>
      </trkpt>
      <trkpt lat="40.803513" lon="-8.302362">
        <ele>536.6</ele>
        <time>2022-08-14T08:31:20Z</time>
      </trkpt>
      <trkpt lat="40.803532" lon="-8.30238">
        <ele>536.6</ele>
        <time>2022-08-14T08:31:22Z</time>
      </trkpt>
      <trkpt lat="40.803544" lon="-8.302387">
        <ele>536.8</ele>
        <time>2022-08-14T08:31:23Z</time>
      </trkpt>
      <trkpt lat="40.803568" lon="-8.302394">
        <ele>537</ele>
        <time>2022-08-14T08:31:25Z</time>
      </trkpt>
      <trkpt lat="40.803593" lon="-8.302403">
        <ele>537.2</ele>
        <time>2022-08-14T08:31:27Z</time>
      </trkpt>
      <trkpt lat="40.803616" lon="-8.302423">
        <ele>537.4</ele>
        <time>2022-08-14T08:31:29Z</time>
      </trkpt>
      <trkpt lat="40.803656" lon="-8.30244">
        <ele>538.2</ele>
        <time>2022-08-14T08:31:33Z</time>
      </trkpt>
      <trkpt lat="40.803695" lon="-8.302442">
        <ele>538.4</ele>
        <time>2022-08-14T08:31:36Z</time>
      </trkpt>
      <trkpt lat="40.803706" lon="-8.302443">
        <ele>538.6</ele>
        <time>2022-08-14T08:31:37Z</time>
      </trkpt>
      <trkpt lat="40.803735" lon="-8.302447">
        <ele>538.8</ele>
        <time>2022-08-14T08:31:40Z</time>
      </trkpt>
      <trkpt lat="40.803823" lon="-8.30249">
        <ele>539.4</ele>
        <time>2022-08-14T08:31:48Z</time>
      </trkpt>
      <trkpt lat="40.803842" lon="-8.302498">
        <ele>539.8</ele>
        <time>2022-08-14T08:31:50Z</time>
      </trkpt>
      <trkpt lat="40.803885" lon="-8.30252">
        <ele>540.4</ele>
        <time>2022-08-14T08:31:53Z</time>
      </trkpt>
      <trkpt lat="40.803906" lon="-8.302539">
        <ele>540.6</ele>
        <time>2022-08-14T08:31:55Z</time>
      </trkpt>
      <trkpt lat="40.803933" lon="-8.302545">
        <ele>540.8</ele>
        <time>2022-08-14T08:31:57Z</time>
      </trkpt>
      <trkpt lat="40.803983" lon="-8.302566">
        <ele>541.4</ele>
        <time>2022-08-14T08:32:01Z</time>
      </trkpt>
      <trkpt lat="40.804002" lon="-8.302565">
        <ele>541.8</ele>
        <time>2022-08-14T08:32:04Z</time>
      </trkpt>
      <trkpt lat="40.804021" lon="-8.30257">
        <ele>542</ele>
        <time>2022-08-14T08:32:06Z</time>
      </trkpt>
      <trkpt lat="40.804056" lon="-8.302576">
        <ele>542.4</ele>
        <time>2022-08-14T08:32:09Z</time>
      </trkpt>
      <trkpt lat="40.8041" lon="-8.302586">
        <ele>542.8</ele>
        <time>2022-08-14T08:32:13Z</time>
      </trkpt>
      <trkpt lat="40.804136" lon="-8.302595">
        <ele>543.6</ele>
        <time>2022-08-14T08:32:16Z</time>
      </trkpt>
      <trkpt lat="40.804159" lon="-8.302604">
        <ele>544</ele>
        <time>2022-08-14T08:32:18Z</time>
      </trkpt>
      <trkpt lat="40.804207" lon="-8.302618">
        <ele>544.4</ele>
        <time>2022-08-14T08:32:21Z</time>
      </trkpt>
      <trkpt lat="40.804263" lon="-8.302635">
        <ele>545.2</ele>
        <time>2022-08-14T08:32:25Z</time>
      </trkpt>
      <trkpt lat="40.804307" lon="-8.302641">
        <ele>545.8</ele>
        <time>2022-08-14T08:32:27Z</time>
      </trkpt>
      <trkpt lat="40.804328" lon="-8.302653">
        <ele>546.2</ele>
        <time>2022-08-14T08:32:29Z</time>
      </trkpt>
      <trkpt lat="40.804409" lon="-8.302654">
        <ele>547.4</ele>
        <time>2022-08-14T08:32:34Z</time>
      </trkpt>
      <trkpt lat="40.804499" lon="-8.302651">
        <ele>548.6</ele>
        <time>2022-08-14T08:32:41Z</time>
      </trkpt>
      <trkpt lat="40.804509" lon="-8.302648">
        <ele>548.8</ele>
        <time>2022-08-14T08:32:42Z</time>
      </trkpt>
      <trkpt lat="40.804534" lon="-8.302621">
        <ele>549</ele>
        <time>2022-08-14T08:32:45Z</time>
      </trkpt>
      <trkpt lat="40.804552" lon="-8.302564">
        <ele>549.8</ele>
        <time>2022-08-14T08:32:49Z</time>
      </trkpt>
      <trkpt lat="40.804563" lon="-8.302533">
        <ele>549.8</ele>
        <time>2022-08-14T08:32:51Z</time>
      </trkpt>
      <trkpt lat="40.804594" lon="-8.302427">
        <ele>550.8</ele>
        <time>2022-08-14T08:32:58Z</time>
      </trkpt>
      <trkpt lat="40.804594" lon="-8.302411">
        <ele>550.8</ele>
        <time>2022-08-14T08:32:59Z</time>
      </trkpt>
      <trkpt lat="40.80459" lon="-8.302373">
        <ele>551.2</ele>
        <time>2022-08-14T08:33:01Z</time>
      </trkpt>
      <trkpt lat="40.804595" lon="-8.302336">
        <ele>551.4</ele>
        <time>2022-08-14T08:33:03Z</time>
      </trkpt>
      <trkpt lat="40.804594" lon="-8.302242">
        <ele>551.8</ele>
        <time>2022-08-14T08:33:08Z</time>
      </trkpt>
      <trkpt lat="40.804595" lon="-8.302201">
        <ele>552</ele>
        <time>2022-08-14T08:33:10Z</time>
      </trkpt>
      <trkpt lat="40.804615" lon="-8.302063">
        <ele>552.6</ele>
        <time>2022-08-14T08:33:17Z</time>
      </trkpt>
      <trkpt lat="40.80462" lon="-8.302052">
        <ele>552.6</ele>
        <time>2022-08-14T08:33:18Z</time>
      </trkpt>
      <trkpt lat="40.804604" lon="-8.302015">
        <ele>552.6</ele>
        <time>2022-08-14T08:33:20Z</time>
      </trkpt>
      <trkpt lat="40.804624" lon="-8.30197">
        <ele>552.8</ele>
        <time>2022-08-14T08:33:22Z</time>
      </trkpt>
      <trkpt lat="40.804636" lon="-8.301956">
        <ele>552.8</ele>
        <time>2022-08-14T08:33:23Z</time>
      </trkpt>
      <trkpt lat="40.804673" lon="-8.301914">
        <ele>553.2</ele>
        <time>2022-08-14T08:33:26Z</time>
      </trkpt>
      <trkpt lat="40.804671" lon="-8.301886">
        <ele>553.8</ele>
        <time>2022-08-14T08:33:28Z</time>
      </trkpt>
      <trkpt lat="40.804675" lon="-8.301867">
        <ele>553.8</ele>
        <time>2022-08-14T08:33:29Z</time>
      </trkpt>
      <trkpt lat="40.804674" lon="-8.301848">
        <ele>554</ele>
        <time>2022-08-14T08:33:30Z</time>
      </trkpt>
      <trkpt lat="40.804686" lon="-8.301817">
        <ele>554.2</ele>
        <time>2022-08-14T08:33:32Z</time>
      </trkpt>
      <trkpt lat="40.804705" lon="-8.301786">
        <ele>554.4</ele>
        <time>2022-08-14T08:33:35Z</time>
      </trkpt>
      <trkpt lat="40.804741" lon="-8.301744">
        <ele>554.8</ele>
        <time>2022-08-14T08:33:40Z</time>
      </trkpt>
      <trkpt lat="40.804764" lon="-8.301716">
        <ele>555.2</ele>
        <time>2022-08-14T08:33:43Z</time>
      </trkpt>
      <trkpt lat="40.804813" lon="-8.301682">
        <ele>556</ele>
        <time>2022-08-14T08:33:48Z</time>
      </trkpt>
      <trkpt lat="40.80485" lon="-8.301647">
        <ele>556.8</ele>
        <time>2022-08-14T08:33:52Z</time>
      </trkpt>
      <trkpt lat="40.80487" lon="-8.301637">
        <ele>557</ele>
        <time>2022-08-14T08:33:54Z</time>
      </trkpt>
      <trkpt lat="40.804948" lon="-8.301585">
        <ele>557.8</ele>
        <time>2022-08-14T08:34:01Z</time>
      </trkpt>
      <trkpt lat="40.805025" lon="-8.301562">
        <ele>558.2</ele>
        <time>2022-08-14T08:34:07Z</time>
      </trkpt>
      <trkpt lat="40.805058" lon="-8.301553">
        <ele>558.2</ele>
        <time>2022-08-14T08:34:09Z</time>
      </trkpt>
      <trkpt lat="40.805086" lon="-8.301547">
        <ele>558.8</ele>
        <time>2022-08-14T08:34:12Z</time>
      </trkpt>
      <trkpt lat="40.805115" lon="-8.301542">
        <ele>559</ele>
        <time>2022-08-14T08:34:14Z</time>
      </trkpt>
      <trkpt lat="40.805129" lon="-8.301543">
        <ele>559.2</ele>
        <time>2022-08-14T08:34:15Z</time>
      </trkpt>
      <trkpt lat="40.805179" lon="-8.301516">
        <ele>559.6</ele>
        <time>2022-08-14T08:34:19Z</time>
      </trkpt>
      <trkpt lat="40.805231" lon="-8.301484">
        <ele>560.2</ele>
        <time>2022-08-14T08:34:23Z</time>
      </trkpt>
      <trkpt lat="40.805297" lon="-8.301444">
        <ele>561</ele>
        <time>2022-08-14T08:34:28Z</time>
      </trkpt>
      <trkpt lat="40.805311" lon="-8.301431">
        <ele>561.2</ele>
        <time>2022-08-14T08:34:29Z</time>
      </trkpt>
      <trkpt lat="40.805413" lon="-8.301343">
        <ele>561.8</ele>
        <time>2022-08-14T08:34:36Z</time>
      </trkpt>
      <trkpt lat="40.805433" lon="-8.301302">
        <ele>562</ele>
        <time>2022-08-14T08:34:40Z</time>
      </trkpt>
      <trkpt lat="40.805464" lon="-8.30127">
        <ele>562.2</ele>
        <time>2022-08-14T08:34:42Z</time>
      </trkpt>
      <trkpt lat="40.805561" lon="-8.301226">
        <ele>563</ele>
        <time>2022-08-14T08:34:49Z</time>
      </trkpt>
      <trkpt lat="40.80558" lon="-8.301234">
        <ele>563.2</ele>
        <time>2022-08-14T08:34:50Z</time>
      </trkpt>
      <trkpt lat="40.805588" lon="-8.301236">
        <ele>563.2</ele>
        <time>2022-08-14T08:34:51Z</time>
      </trkpt>
      <trkpt lat="40.805601" lon="-8.301245">
        <ele>563.4</ele>
        <time>2022-08-14T08:34:53Z</time>
      </trkpt>
      <trkpt lat="40.805629" lon="-8.301284">
        <ele>563.8</ele>
        <time>2022-08-14T08:34:56Z</time>
      </trkpt>
      <trkpt lat="40.805646" lon="-8.301325">
        <ele>564.2</ele>
        <time>2022-08-14T08:34:59Z</time>
      </trkpt>
      <trkpt lat="40.80567" lon="-8.301408">
        <ele>565</ele>
        <time>2022-08-14T08:35:04Z</time>
      </trkpt>
      <trkpt lat="40.805683" lon="-8.301443">
        <ele>565.2</ele>
        <time>2022-08-14T08:35:06Z</time>
      </trkpt>
      <trkpt lat="40.805726" lon="-8.301509">
        <ele>566.2</ele>
        <time>2022-08-14T08:35:12Z</time>
      </trkpt>
      <trkpt lat="40.805742" lon="-8.301526">
        <ele>566.4</ele>
        <time>2022-08-14T08:35:13Z</time>
      </trkpt>
      <trkpt lat="40.805802" lon="-8.301647">
        <ele>567.6</ele>
        <time>2022-08-14T08:35:20Z</time>
      </trkpt>
      <trkpt lat="40.805808" lon="-8.301661">
        <ele>567.8</ele>
        <time>2022-08-14T08:35:21Z</time>
      </trkpt>
      <trkpt lat="40.805862" lon="-8.301749">
        <ele>568.6</ele>
        <time>2022-08-14T08:35:26Z</time>
      </trkpt>
      <trkpt lat="40.805885" lon="-8.301811">
        <ele>569.2</ele>
        <time>2022-08-14T08:35:30Z</time>
      </trkpt>
      <trkpt lat="40.805892" lon="-8.301834">
        <ele>569.8</ele>
        <time>2022-08-14T08:35:32Z</time>
      </trkpt>
      <trkpt lat="40.805925" lon="-8.301923">
        <ele>570.4</ele>
        <time>2022-08-14T08:35:38Z</time>
      </trkpt>
      <trkpt lat="40.806019" lon="-8.302016">
        <ele>570.8</ele>
        <time>2022-08-14T08:35:47Z</time>
      </trkpt>
      <trkpt lat="40.806035" lon="-8.302022">
        <ele>570.8</ele>
        <time>2022-08-14T08:35:48Z</time>
      </trkpt>
      <trkpt lat="40.806132" lon="-8.302042">
        <ele>571.6</ele>
        <time>2022-08-14T08:35:55Z</time>
      </trkpt>
      <trkpt lat="40.806157" lon="-8.302048">
        <ele>571.8</ele>
        <time>2022-08-14T08:35:57Z</time>
      </trkpt>
      <trkpt lat="40.806181" lon="-8.302054">
        <ele>572</ele>
        <time>2022-08-14T08:35:59Z</time>
      </trkpt>
      <trkpt lat="40.8062" lon="-8.302041">
        <ele>572.2</ele>
        <time>2022-08-14T08:36:01Z</time>
      </trkpt>
      <trkpt lat="40.806206" lon="-8.302026">
        <ele>572.4</ele>
        <time>2022-08-14T08:36:02Z</time>
      </trkpt>
      <trkpt lat="40.806206" lon="-8.301938">
        <ele>573</ele>
        <time>2022-08-14T08:36:07Z</time>
      </trkpt>
      <trkpt lat="40.806207" lon="-8.301921">
        <ele>573</ele>
        <time>2022-08-14T08:36:08Z</time>
      </trkpt>
      <trkpt lat="40.806208" lon="-8.301902">
        <ele>573.2</ele>
        <time>2022-08-14T08:36:09Z</time>
      </trkpt>
      <trkpt lat="40.806205" lon="-8.301883">
        <ele>573.4</ele>
        <time>2022-08-14T08:36:10Z</time>
      </trkpt>
      <trkpt lat="40.806186" lon="-8.301819">
        <ele>574</ele>
        <time>2022-08-14T08:36:14Z</time>
      </trkpt>
      <trkpt lat="40.80618" lon="-8.301803">
        <ele>574</ele>
        <time>2022-08-14T08:36:15Z</time>
      </trkpt>
      <trkpt lat="40.806162" lon="-8.301749">
        <ele>574.6</ele>
        <time>2022-08-14T08:36:18Z</time>
      </trkpt>
      <trkpt lat="40.806172" lon="-8.301686">
        <ele>575</ele>
        <time>2022-08-14T08:36:22Z</time>
      </trkpt>
      <trkpt lat="40.806188" lon="-8.301581">
        <ele>576</ele>
        <time>2022-08-14T08:36:28Z</time>
      </trkpt>
      <trkpt lat="40.806189" lon="-8.301541">
        <ele>576.4</ele>
        <time>2022-08-14T08:36:30Z</time>
      </trkpt>
      <trkpt lat="40.806189" lon="-8.301522">
        <ele>576.6</ele>
        <time>2022-08-14T08:36:31Z</time>
      </trkpt>
      <trkpt lat="40.806214" lon="-8.301439">
        <ele>577</ele>
        <time>2022-08-14T08:36:36Z</time>
      </trkpt>
      <trkpt lat="40.806251" lon="-8.301363">
        <ele>578.2</ele>
        <time>2022-08-14T08:36:41Z</time>
      </trkpt>
      <trkpt lat="40.806264" lon="-8.30133">
        <ele>578.4</ele>
        <time>2022-08-14T08:36:43Z</time>
      </trkpt>
      <trkpt lat="40.806305" lon="-8.301274">
        <ele>579.2</ele>
        <time>2022-08-14T08:36:48Z</time>
      </trkpt>
      <trkpt lat="40.806325" lon="-8.301249">
        <ele>579.6</ele>
        <time>2022-08-14T08:36:50Z</time>
      </trkpt>
      <trkpt lat="40.806352" lon="-8.301229">
        <ele>580.4</ele>
        <time>2022-08-14T08:36:53Z</time>
      </trkpt>
      <trkpt lat="40.806391" lon="-8.301157">
        <ele>580.8</ele>
        <time>2022-08-14T08:36:58Z</time>
      </trkpt>
      <trkpt lat="40.806442" lon="-8.301106">
        <ele>581.4</ele>
        <time>2022-08-14T08:37:02Z</time>
      </trkpt>
      <trkpt lat="40.806482" lon="-8.301085">
        <ele>581.8</ele>
        <time>2022-08-14T08:37:05Z</time>
      </trkpt>
      <trkpt lat="40.806527" lon="-8.301046">
        <ele>582.8</ele>
        <time>2022-08-14T08:37:09Z</time>
      </trkpt>
      <trkpt lat="40.806556" lon="-8.301031">
        <ele>583.2</ele>
        <time>2022-08-14T08:37:11Z</time>
      </trkpt>
      <trkpt lat="40.806587" lon="-8.301016">
        <ele>583.6</ele>
        <time>2022-08-14T08:37:14Z</time>
      </trkpt>
      <trkpt lat="40.806607" lon="-8.301008">
        <ele>583.6</ele>
        <time>2022-08-14T08:37:15Z</time>
      </trkpt>
      <trkpt lat="40.806636" lon="-8.300977">
        <ele>583.8</ele>
        <time>2022-08-14T08:37:17Z</time>
      </trkpt>
      <trkpt lat="40.806737" lon="-8.300856">
        <ele>584.8</ele>
        <time>2022-08-14T08:37:26Z</time>
      </trkpt>
      <trkpt lat="40.806743" lon="-8.300842">
        <ele>585</ele>
        <time>2022-08-14T08:37:27Z</time>
      </trkpt>
      <trkpt lat="40.80678" lon="-8.300741">
        <ele>586</ele>
        <time>2022-08-14T08:37:34Z</time>
      </trkpt>
      <trkpt lat="40.806804" lon="-8.300659">
        <ele>586.4</ele>
        <time>2022-08-14T08:37:39Z</time>
      </trkpt>
      <trkpt lat="40.80682" lon="-8.300534">
        <ele>586.8</ele>
        <time>2022-08-14T08:37:46Z</time>
      </trkpt>
      <trkpt lat="40.806828" lon="-8.30046">
        <ele>587</ele>
        <time>2022-08-14T08:37:50Z</time>
      </trkpt>
      <trkpt lat="40.80684" lon="-8.300365">
        <ele>587.2</ele>
        <time>2022-08-14T08:37:55Z</time>
      </trkpt>
      <trkpt lat="40.806857" lon="-8.300298">
        <ele>587.6</ele>
        <time>2022-08-14T08:37:59Z</time>
      </trkpt>
      <trkpt lat="40.806863" lon="-8.300246">
        <ele>588</ele>
        <time>2022-08-14T08:38:02Z</time>
      </trkpt>
      <trkpt lat="40.806864" lon="-8.300227">
        <ele>588.2</ele>
        <time>2022-08-14T08:38:03Z</time>
      </trkpt>
      <trkpt lat="40.806901" lon="-8.300078">
        <ele>588.8</ele>
        <time>2022-08-14T08:38:12Z</time>
      </trkpt>
      <trkpt lat="40.806921" lon="-8.300027">
        <ele>589</ele>
        <time>2022-08-14T08:38:15Z</time>
      </trkpt>
      <trkpt lat="40.806957" lon="-8.299959">
        <ele>589.4</ele>
        <time>2022-08-14T08:38:19Z</time>
      </trkpt>
      <trkpt lat="40.806967" lon="-8.299941">
        <ele>589.6</ele>
        <time>2022-08-14T08:38:20Z</time>
      </trkpt>
      <trkpt lat="40.806991" lon="-8.299892">
        <ele>590.2</ele>
        <time>2022-08-14T08:38:23Z</time>
      </trkpt>
      <trkpt lat="40.807037" lon="-8.299786">
        <ele>591</ele>
        <time>2022-08-14T08:38:31Z</time>
      </trkpt>
      <trkpt lat="40.807057" lon="-8.299751">
        <ele>591.2</ele>
        <time>2022-08-14T08:38:33Z</time>
      </trkpt>
      <trkpt lat="40.807122" lon="-8.299647">
        <ele>591.8</ele>
        <time>2022-08-14T08:38:40Z</time>
      </trkpt>
      <trkpt lat="40.807211" lon="-8.299461">
        <ele>592.2</ele>
        <time>2022-08-14T08:38:49Z</time>
      </trkpt>
      <trkpt lat="40.807273" lon="-8.299287">
        <ele>592.6</ele>
        <time>2022-08-14T08:38:58Z</time>
      </trkpt>
      <trkpt lat="40.807295" lon="-8.299232">
        <ele>593</ele>
        <time>2022-08-14T08:39:01Z</time>
      </trkpt>
      <trkpt lat="40.80732" lon="-8.299133">
        <ele>594</ele>
        <time>2022-08-14T08:39:06Z</time>
      </trkpt>
      <trkpt lat="40.807333" lon="-8.299097">
        <ele>594.4</ele>
        <time>2022-08-14T08:39:08Z</time>
      </trkpt>
      <trkpt lat="40.807356" lon="-8.298971">
        <ele>595</ele>
        <time>2022-08-14T08:39:14Z</time>
      </trkpt>
      <trkpt lat="40.807365" lon="-8.298941">
        <ele>595.4</ele>
        <time>2022-08-14T08:39:16Z</time>
      </trkpt>
      <trkpt lat="40.807399" lon="-8.298847">
        <ele>596.2</ele>
        <time>2022-08-14T08:39:21Z</time>
      </trkpt>
      <trkpt lat="40.807411" lon="-8.298813">
        <ele>596.4</ele>
        <time>2022-08-14T08:39:23Z</time>
      </trkpt>
      <trkpt lat="40.807454" lon="-8.298684">
        <ele>597</ele>
        <time>2022-08-14T08:39:29Z</time>
      </trkpt>
      <trkpt lat="40.807523" lon="-8.29857">
        <ele>597.4</ele>
        <time>2022-08-14T08:39:35Z</time>
      </trkpt>
      <trkpt lat="40.807565" lon="-8.298531">
        <ele>597.8</ele>
        <time>2022-08-14T08:39:38Z</time>
      </trkpt>
      <trkpt lat="40.807694" lon="-8.298392">
        <ele>598</ele>
        <time>2022-08-14T08:39:47Z</time>
      </trkpt>
      <trkpt lat="40.807747" lon="-8.298321">
        <ele>598.6</ele>
        <time>2022-08-14T08:39:52Z</time>
      </trkpt>
      <trkpt lat="40.807854" lon="-8.298217">
        <ele>599.4</ele>
        <time>2022-08-14T08:40:00Z</time>
      </trkpt>
      <trkpt lat="40.80788" lon="-8.298189">
        <ele>599.6</ele>
        <time>2022-08-14T08:40:02Z</time>
      </trkpt>
      <trkpt lat="40.807976" lon="-8.29816">
        <ele>600.2</ele>
        <time>2022-08-14T08:40:08Z</time>
      </trkpt>
      <trkpt lat="40.808005" lon="-8.298216">
        <ele>600.4</ele>
        <time>2022-08-14T08:40:11Z</time>
      </trkpt>
      <trkpt lat="40.808008" lon="-8.298255">
        <ele>600.6</ele>
        <time>2022-08-14T08:40:13Z</time>
      </trkpt>
      <trkpt lat="40.808023" lon="-8.29832">
        <ele>601.4</ele>
        <time>2022-08-14T08:40:16Z</time>
      </trkpt>
      <trkpt lat="40.808039" lon="-8.298376">
        <ele>601.8</ele>
        <time>2022-08-14T08:40:19Z</time>
      </trkpt>
      <trkpt lat="40.808047" lon="-8.298414">
        <ele>602</ele>
        <time>2022-08-14T08:40:21Z</time>
      </trkpt>
      <trkpt lat="40.808058" lon="-8.298575">
        <ele>602.8</ele>
        <time>2022-08-14T08:40:28Z</time>
      </trkpt>
      <trkpt lat="40.808064" lon="-8.298681">
        <ele>604</ele>
        <time>2022-08-14T08:40:33Z</time>
      </trkpt>
      <trkpt lat="40.808063" lon="-8.298723">
        <ele>604.4</ele>
        <time>2022-08-14T08:40:35Z</time>
      </trkpt>
      <trkpt lat="40.808066" lon="-8.298795">
        <ele>605</ele>
        <time>2022-08-14T08:40:38Z</time>
      </trkpt>
      <trkpt lat="40.80806" lon="-8.298817">
        <ele>605</ele>
        <time>2022-08-14T08:40:39Z</time>
      </trkpt>
      <trkpt lat="40.808033" lon="-8.298851">
        <ele>605.8</ele>
        <time>2022-08-14T08:40:41Z</time>
      </trkpt>
      <trkpt lat="40.807995" lon="-8.298881">
        <ele>606.2</ele>
        <time>2022-08-14T08:40:43Z</time>
      </trkpt>
      <trkpt lat="40.807875" lon="-8.298993">
        <ele>606.4</ele>
        <time>2022-08-14T08:40:50Z</time>
      </trkpt>
      <trkpt lat="40.807803" lon="-8.299239">
        <ele>606.2</ele>
        <time>2022-08-14T08:40:58Z</time>
      </trkpt>
      <trkpt lat="40.80781" lon="-8.299501">
        <ele>606</ele>
        <time>2022-08-14T08:41:04Z</time>
      </trkpt>
      <trkpt lat="40.807899" lon="-8.299669">
        <ele>606</ele>
        <time>2022-08-14T08:41:09Z</time>
      </trkpt>
      <trkpt lat="40.807951" lon="-8.299874">
        <ele>606.2</ele>
        <time>2022-08-14T08:41:15Z</time>
      </trkpt>
      <trkpt lat="40.807937" lon="-8.300005">
        <ele>606.8</ele>
        <time>2022-08-14T08:41:20Z</time>
      </trkpt>
      <trkpt lat="40.807934" lon="-8.300028">
        <ele>607.4</ele>
        <time>2022-08-14T08:41:21Z</time>
      </trkpt>
      <trkpt lat="40.807922" lon="-8.300115">
        <ele>608.6</ele>
        <time>2022-08-14T08:41:25Z</time>
      </trkpt>
      <trkpt lat="40.807918" lon="-8.300189">
        <ele>609.4</ele>
        <time>2022-08-14T08:41:28Z</time>
      </trkpt>
      <trkpt lat="40.80791" lon="-8.300224">
        <ele>609.6</ele>
        <time>2022-08-14T08:41:30Z</time>
      </trkpt>
      <trkpt lat="40.807906" lon="-8.300272">
        <ele>609.8</ele>
        <time>2022-08-14T08:41:32Z</time>
      </trkpt>
      <trkpt lat="40.807905" lon="-8.300314">
        <ele>610</ele>
        <time>2022-08-14T08:41:34Z</time>
      </trkpt>
      <trkpt lat="40.807863" lon="-8.300496">
        <ele>610.4</ele>
        <time>2022-08-14T08:41:41Z</time>
      </trkpt>
      <trkpt lat="40.807841" lon="-8.300567">
        <ele>610.4</ele>
        <time>2022-08-14T08:41:44Z</time>
      </trkpt>
      <trkpt lat="40.807833" lon="-8.300626">
        <ele>610.6</ele>
        <time>2022-08-14T08:41:46Z</time>
      </trkpt>
      <trkpt lat="40.80783" lon="-8.300685">
        <ele>610.8</ele>
        <time>2022-08-14T08:41:48Z</time>
      </trkpt>
      <trkpt lat="40.80785" lon="-8.300864">
        <ele>611.6</ele>
        <time>2022-08-14T08:41:56Z</time>
      </trkpt>
      <trkpt lat="40.807854" lon="-8.300904">
        <ele>611.8</ele>
        <time>2022-08-14T08:41:58Z</time>
      </trkpt>
      <trkpt lat="40.807888" lon="-8.301021">
        <ele>612.6</ele>
        <time>2022-08-14T08:42:03Z</time>
      </trkpt>
      <trkpt lat="40.807908" lon="-8.301079">
        <ele>612.8</ele>
        <time>2022-08-14T08:42:06Z</time>
      </trkpt>
      <trkpt lat="40.808014" lon="-8.301206">
        <ele>613.4</ele>
        <time>2022-08-14T08:42:14Z</time>
      </trkpt>
      <trkpt lat="40.808111" lon="-8.30133">
        <ele>613.6</ele>
        <time>2022-08-14T08:42:21Z</time>
      </trkpt>
      <trkpt lat="40.808128" lon="-8.301396">
        <ele>613.6</ele>
        <time>2022-08-14T08:42:23Z</time>
      </trkpt>
      <trkpt lat="40.808124" lon="-8.301491">
        <ele>614</ele>
        <time>2022-08-14T08:42:26Z</time>
      </trkpt>
      <trkpt lat="40.808135" lon="-8.301625">
        <ele>615.2</ele>
        <time>2022-08-14T08:42:32Z</time>
      </trkpt>
      <trkpt lat="40.808144" lon="-8.301643">
        <ele>615.4</ele>
        <time>2022-08-14T08:42:33Z</time>
      </trkpt>
      <trkpt lat="40.808224" lon="-8.301719">
        <ele>616.2</ele>
        <time>2022-08-14T08:42:39Z</time>
      </trkpt>
      <trkpt lat="40.808236" lon="-8.301731">
        <ele>616.2</ele>
        <time>2022-08-14T08:42:40Z</time>
      </trkpt>
      <trkpt lat="40.808363" lon="-8.301748">
        <ele>617</ele>
        <time>2022-08-14T08:42:48Z</time>
      </trkpt>
      <trkpt lat="40.808401" lon="-8.301723">
        <ele>617.4</ele>
        <time>2022-08-14T08:42:52Z</time>
      </trkpt>
      <trkpt lat="40.808428" lon="-8.301695">
        <ele>617.8</ele>
        <time>2022-08-14T08:42:54Z</time>
      </trkpt>
      <trkpt lat="40.808518" lon="-8.301597">
        <ele>618.4</ele>
        <time>2022-08-14T08:43:00Z</time>
      </trkpt>
      <trkpt lat="40.808555" lon="-8.301548">
        <ele>618.6</ele>
        <time>2022-08-14T08:43:03Z</time>
      </trkpt>
      <trkpt lat="40.808628" lon="-8.301491">
        <ele>619.4</ele>
        <time>2022-08-14T08:43:09Z</time>
      </trkpt>
      <trkpt lat="40.808644" lon="-8.301484">
        <ele>619.8</ele>
        <time>2022-08-14T08:43:10Z</time>
      </trkpt>
      <trkpt lat="40.808782" lon="-8.301515">
        <ele>620.2</ele>
        <time>2022-08-14T08:43:17Z</time>
      </trkpt>
      <trkpt lat="40.808847" lon="-8.301528">
        <ele>620.6</ele>
        <time>2022-08-14T08:43:20Z</time>
      </trkpt>
      <trkpt lat="40.808935" lon="-8.301571">
        <ele>621</ele>
        <time>2022-08-14T08:43:24Z</time>
      </trkpt>
      <trkpt lat="40.809082" lon="-8.301641">
        <ele>621.8</ele>
        <time>2022-08-14T08:43:31Z</time>
      </trkpt>
      <trkpt lat="40.809102" lon="-8.301649">
        <ele>622</ele>
        <time>2022-08-14T08:43:32Z</time>
      </trkpt>
      <trkpt lat="40.809224" lon="-8.301669">
        <ele>622.8</ele>
        <time>2022-08-14T08:43:39Z</time>
      </trkpt>
      <trkpt lat="40.809387" lon="-8.3017">
        <ele>623.2</ele>
        <time>2022-08-14T08:43:49Z</time>
      </trkpt>
      <trkpt lat="40.809502" lon="-8.301709">
        <ele>624</ele>
        <time>2022-08-14T08:43:56Z</time>
      </trkpt>
      <trkpt lat="40.809516" lon="-8.301712">
        <ele>624</ele>
        <time>2022-08-14T08:43:57Z</time>
      </trkpt>
      <trkpt lat="40.809549" lon="-8.301716">
        <ele>624.2</ele>
        <time>2022-08-14T08:43:59Z</time>
      </trkpt>
      <trkpt lat="40.809595" lon="-8.301769">
        <ele>624.6</ele>
        <time>2022-08-14T08:44:03Z</time>
      </trkpt>
      <trkpt lat="40.80965" lon="-8.301849">
        <ele>625</ele>
        <time>2022-08-14T08:44:08Z</time>
      </trkpt>
      <trkpt lat="40.80967" lon="-8.301871">
        <ele>625.4</ele>
        <time>2022-08-14T08:44:10Z</time>
      </trkpt>
      <trkpt lat="40.809719" lon="-8.301885">
        <ele>626</ele>
        <time>2022-08-14T08:44:14Z</time>
      </trkpt>
      <trkpt lat="40.809727" lon="-8.301878">
        <ele>626</ele>
        <time>2022-08-14T08:44:15Z</time>
      </trkpt>
      <trkpt lat="40.809732" lon="-8.301866">
        <ele>626</ele>
        <time>2022-08-14T08:44:16Z</time>
      </trkpt>
      <trkpt lat="40.809707" lon="-8.301862">
        <ele>626.4</ele>
        <time>2022-08-14T08:44:20Z</time>
      </trkpt>
      <trkpt lat="40.809707" lon="-8.301895">
        <ele>626.6</ele>
        <time>2022-08-14T08:44:22Z</time>
      </trkpt>
      <trkpt lat="40.809737" lon="-8.301946">
        <ele>627</ele>
        <time>2022-08-14T08:44:25Z</time>
      </trkpt>
      <trkpt lat="40.809746" lon="-8.301967">
        <ele>627</ele>
        <time>2022-08-14T08:44:26Z</time>
      </trkpt>
      <trkpt lat="40.809748" lon="-8.302104">
        <ele>627.6</ele>
        <time>2022-08-14T08:44:31Z</time>
      </trkpt>
      <trkpt lat="40.809758" lon="-8.302195">
        <ele>627.8</ele>
        <time>2022-08-14T08:44:36Z</time>
      </trkpt>
      <trkpt lat="40.809793" lon="-8.302392">
        <ele>628</ele>
        <time>2022-08-14T08:44:56Z</time>
      </trkpt>
      <trkpt lat="40.809821" lon="-8.302456">
        <ele>628</ele>
        <time>2022-08-14T08:44:59Z</time>
      </trkpt>
      <trkpt lat="40.809934" lon="-8.302643">
        <ele>628.2</ele>
        <time>2022-08-14T08:45:08Z</time>
      </trkpt>
      <trkpt lat="40.809967" lon="-8.302683">
        <ele>628.2</ele>
        <time>2022-08-14T08:45:10Z</time>
      </trkpt>
      <trkpt lat="40.809992" lon="-8.302767">
        <ele>628.4</ele>
        <time>2022-08-14T08:45:14Z</time>
      </trkpt>
      <trkpt lat="40.810026" lon="-8.302818">
        <ele>629.4</ele>
        <time>2022-08-14T08:45:17Z</time>
      </trkpt>
      <trkpt lat="40.810054" lon="-8.302903">
        <ele>630.4</ele>
        <time>2022-08-14T08:45:21Z</time>
      </trkpt>
      <trkpt lat="40.810056" lon="-8.302926">
        <ele>630.6</ele>
        <time>2022-08-14T08:45:22Z</time>
      </trkpt>
      <trkpt lat="40.810095" lon="-8.303076">
        <ele>631.4</ele>
        <time>2022-08-14T08:45:29Z</time>
      </trkpt>
      <trkpt lat="40.810106" lon="-8.303135">
        <ele>631.6</ele>
        <time>2022-08-14T08:45:31Z</time>
      </trkpt>
      <trkpt lat="40.810134" lon="-8.303316">
        <ele>631.8</ele>
        <time>2022-08-14T08:45:37Z</time>
      </trkpt>
      <trkpt lat="40.810141" lon="-8.303641">
        <ele>632.2</ele>
        <time>2022-08-14T08:45:48Z</time>
      </trkpt>
      <trkpt lat="40.810109" lon="-8.303744">
        <ele>632.4</ele>
        <time>2022-08-14T08:45:53Z</time>
      </trkpt>
      <trkpt lat="40.810025" lon="-8.303872">
        <ele>632.4</ele>
        <time>2022-08-14T08:45:58Z</time>
      </trkpt>
      <trkpt lat="40.809905" lon="-8.304042">
        <ele>632</ele>
        <time>2022-08-14T08:46:06Z</time>
      </trkpt>
      <trkpt lat="40.809798" lon="-8.304121">
        <ele>632.4</ele>
        <time>2022-08-14T08:46:13Z</time>
      </trkpt>
      <trkpt lat="40.809736" lon="-8.304201">
        <ele>632.6</ele>
        <time>2022-08-14T08:46:18Z</time>
      </trkpt>
      <trkpt lat="40.809714" lon="-8.304226">
        <ele>632.8</ele>
        <time>2022-08-14T08:46:20Z</time>
      </trkpt>
      <trkpt lat="40.809655" lon="-8.304376">
        <ele>633.2</ele>
        <time>2022-08-14T08:46:27Z</time>
      </trkpt>
      <trkpt lat="40.809644" lon="-8.304433">
        <ele>633</ele>
        <time>2022-08-14T08:46:29Z</time>
      </trkpt>
      <trkpt lat="40.809635" lon="-8.304482">
        <ele>632.8</ele>
        <time>2022-08-14T08:46:31Z</time>
      </trkpt>
      <trkpt lat="40.809639" lon="-8.304501">
        <ele>632.8</ele>
        <time>2022-08-14T08:46:32Z</time>
      </trkpt>
      <trkpt lat="40.809644" lon="-8.304517">
        <ele>632.8</ele>
        <time>2022-08-14T08:46:33Z</time>
      </trkpt>
      <trkpt lat="40.809672" lon="-8.304521">
        <ele>632.8</ele>
        <time>2022-08-14T08:46:36Z</time>
      </trkpt>
      <trkpt lat="40.809717" lon="-8.304525">
        <ele>632.8</ele>
        <time>2022-08-14T08:46:39Z</time>
      </trkpt>
      <trkpt lat="40.809742" lon="-8.304508">
        <ele>632.8</ele>
        <time>2022-08-14T08:46:42Z</time>
      </trkpt>
      <trkpt lat="40.809742" lon="-8.304508">
        <ele>633.2</ele>
        <time>2022-08-14T08:46:46Z</time>
      </trkpt>
      <trkpt lat="40.809762" lon="-8.304467">
        <ele>633.6</ele>
        <time>2022-08-14T08:47:00Z</time>
      </trkpt>
      <trkpt lat="40.809774" lon="-8.304457">
        <ele>633.6</ele>
        <time>2022-08-14T08:47:01Z</time>
      </trkpt>
      <trkpt lat="40.80987" lon="-8.304459">
        <ele>633.8</ele>
        <time>2022-08-14T08:47:07Z</time>
      </trkpt>
      <trkpt lat="40.809879" lon="-8.304451">
        <ele>634</ele>
        <time>2022-08-14T08:47:08Z</time>
      </trkpt>
      <trkpt lat="40.809888" lon="-8.304439">
        <ele>634.4</ele>
        <time>2022-08-14T08:47:12Z</time>
      </trkpt>
      <trkpt lat="40.810044" lon="-8.304408">
        <ele>637</ele>
        <time>2022-08-14T08:49:39Z</time>
      </trkpt>
      <trkpt lat="40.810057" lon="-8.304417">
        <ele>637.2</ele>
        <time>2022-08-14T08:49:41Z</time>
      </trkpt>
      <trkpt lat="40.810105" lon="-8.304479">
        <ele>637.8</ele>
        <time>2022-08-14T08:49:46Z</time>
      </trkpt>
      <trkpt lat="40.810132" lon="-8.304513">
        <ele>638</ele>
        <time>2022-08-14T08:49:49Z</time>
      </trkpt>
      <trkpt lat="40.81016" lon="-8.304541">
        <ele>638.6</ele>
        <time>2022-08-14T08:49:52Z</time>
      </trkpt>
      <trkpt lat="40.810174" lon="-8.304547">
        <ele>638.6</ele>
        <time>2022-08-14T08:49:53Z</time>
      </trkpt>
      <trkpt lat="40.810201" lon="-8.304584">
        <ele>639</ele>
        <time>2022-08-14T08:49:56Z</time>
      </trkpt>
      <trkpt lat="40.810212" lon="-8.304596">
        <ele>639</ele>
        <time>2022-08-14T08:49:57Z</time>
      </trkpt>
      <trkpt lat="40.810219" lon="-8.304609">
        <ele>639.2</ele>
        <time>2022-08-14T08:49:58Z</time>
      </trkpt>
      <trkpt lat="40.810248" lon="-8.304628">
        <ele>639.6</ele>
        <time>2022-08-14T08:50:01Z</time>
      </trkpt>
      <trkpt lat="40.810292" lon="-8.304568">
        <ele>640.6</ele>
        <time>2022-08-14T08:50:05Z</time>
      </trkpt>
      <trkpt lat="40.810316" lon="-8.304538">
        <ele>641.2</ele>
        <time>2022-08-14T08:50:08Z</time>
      </trkpt>
      <trkpt lat="40.810319" lon="-8.304519">
        <ele>641.4</ele>
        <time>2022-08-14T08:50:09Z</time>
      </trkpt>
      <trkpt lat="40.81033" lon="-8.304508">
        <ele>641.4</ele>
        <time>2022-08-14T08:50:10Z</time>
      </trkpt>
      <trkpt lat="40.810381" lon="-8.304441">
        <ele>641.2</ele>
        <time>2022-08-14T08:50:15Z</time>
      </trkpt>
      <trkpt lat="40.810443" lon="-8.304324">
        <ele>641.6</ele>
        <time>2022-08-14T08:50:22Z</time>
      </trkpt>
      <trkpt lat="40.810458" lon="-8.304311">
        <ele>642</ele>
        <time>2022-08-14T08:50:23Z</time>
      </trkpt>
      <trkpt lat="40.810468" lon="-8.304305">
        <ele>642</ele>
        <time>2022-08-14T08:50:24Z</time>
      </trkpt>
      <trkpt lat="40.810478" lon="-8.304289">
        <ele>642.2</ele>
        <time>2022-08-14T08:50:25Z</time>
      </trkpt>
      <trkpt lat="40.810495" lon="-8.304242">
        <ele>643</ele>
        <time>2022-08-14T08:50:28Z</time>
      </trkpt>
      <trkpt lat="40.810504" lon="-8.304226">
        <ele>643</ele>
        <time>2022-08-14T08:50:29Z</time>
      </trkpt>
      <trkpt lat="40.810543" lon="-8.304151">
        <ele>643.8</ele>
        <time>2022-08-14T08:50:34Z</time>
      </trkpt>
      <trkpt lat="40.810572" lon="-8.304107">
        <ele>644.6</ele>
        <time>2022-08-14T08:50:37Z</time>
      </trkpt>
      <trkpt lat="40.810591" lon="-8.30408">
        <ele>644.8</ele>
        <time>2022-08-14T08:50:39Z</time>
      </trkpt>
      <trkpt lat="40.810634" lon="-8.304018">
        <ele>645</ele>
        <time>2022-08-14T08:50:44Z</time>
      </trkpt>
      <trkpt lat="40.810709" lon="-8.303935">
        <ele>645.8</ele>
        <time>2022-08-14T08:50:52Z</time>
      </trkpt>
      <trkpt lat="40.810719" lon="-8.303919">
        <ele>646.2</ele>
        <time>2022-08-14T08:50:53Z</time>
      </trkpt>
      <trkpt lat="40.810811" lon="-8.303758">
        <ele>646.2</ele>
        <time>2022-08-14T08:51:02Z</time>
      </trkpt>
      <trkpt lat="40.810887" lon="-8.30356">
        <ele>646.2</ele>
        <time>2022-08-14T08:51:12Z</time>
      </trkpt>
      <trkpt lat="40.810901" lon="-8.303528">
        <ele>646.2</ele>
        <time>2022-08-14T08:51:14Z</time>
      </trkpt>
      <trkpt lat="40.810935" lon="-8.303481">
        <ele>646.6</ele>
        <time>2022-08-14T08:51:18Z</time>
      </trkpt>
      <trkpt lat="40.810939" lon="-8.303466">
        <ele>647</ele>
        <time>2022-08-14T08:51:19Z</time>
      </trkpt>
      <trkpt lat="40.810941" lon="-8.303434">
        <ele>647.2</ele>
        <time>2022-08-14T08:51:21Z</time>
      </trkpt>
      <trkpt lat="40.810952" lon="-8.303392">
        <ele>647.8</ele>
        <time>2022-08-14T08:51:24Z</time>
      </trkpt>
      <trkpt lat="40.810956" lon="-8.303385">
        <ele>648</ele>
        <time>2022-08-14T08:51:25Z</time>
      </trkpt>
      <trkpt lat="40.810975" lon="-8.303388">
        <ele>648</ele>
        <time>2022-08-14T08:51:27Z</time>
      </trkpt>
      <trkpt lat="40.810985" lon="-8.303404">
        <ele>648.2</ele>
        <time>2022-08-14T08:51:28Z</time>
      </trkpt>
      <trkpt lat="40.810988" lon="-8.303423">
        <ele>648.2</ele>
        <time>2022-08-14T08:51:29Z</time>
      </trkpt>
      <trkpt lat="40.810977" lon="-8.303464">
        <ele>648.2</ele>
        <time>2022-08-14T08:51:31Z</time>
      </trkpt>
      <trkpt lat="40.810961" lon="-8.303502">
        <ele>648.4</ele>
        <time>2022-08-14T08:51:33Z</time>
      </trkpt>
      <trkpt lat="40.810936" lon="-8.303678">
        <ele>648.6</ele>
        <time>2022-08-14T08:51:41Z</time>
      </trkpt>
      <trkpt lat="40.810928" lon="-8.303725">
        <ele>648.8</ele>
        <time>2022-08-14T08:51:43Z</time>
      </trkpt>
      <trkpt lat="40.810915" lon="-8.303821">
        <ele>649.2</ele>
        <time>2022-08-14T08:51:47Z</time>
      </trkpt>
      <trkpt lat="40.810896" lon="-8.304043">
        <ele>650.4</ele>
        <time>2022-08-14T08:51:56Z</time>
      </trkpt>
      <trkpt lat="40.810877" lon="-8.304204">
        <ele>651</ele>
        <time>2022-08-14T08:52:02Z</time>
      </trkpt>
      <trkpt lat="40.810862" lon="-8.304279">
        <ele>651.4</ele>
        <time>2022-08-14T08:52:05Z</time>
      </trkpt>
      <trkpt lat="40.810839" lon="-8.304359">
        <ele>652.2</ele>
        <time>2022-08-14T08:52:08Z</time>
      </trkpt>
      <trkpt lat="40.810825" lon="-8.304444">
        <ele>652.6</ele>
        <time>2022-08-14T08:52:11Z</time>
      </trkpt>
      <trkpt lat="40.810836" lon="-8.304497">
        <ele>652.8</ele>
        <time>2022-08-14T08:52:13Z</time>
      </trkpt>
      <trkpt lat="40.810855" lon="-8.304509">
        <ele>653</ele>
        <time>2022-08-14T08:52:14Z</time>
      </trkpt>
      <trkpt lat="40.810912" lon="-8.304475">
        <ele>653.6</ele>
        <time>2022-08-14T08:52:17Z</time>
      </trkpt>
      <trkpt lat="40.810923" lon="-8.304463">
        <ele>653.8</ele>
        <time>2022-08-14T08:52:18Z</time>
      </trkpt>
      <trkpt lat="40.811024" lon="-8.304382">
        <ele>654.6</ele>
        <time>2022-08-14T08:52:24Z</time>
      </trkpt>
      <trkpt lat="40.811065" lon="-8.304356">
        <ele>655</ele>
        <time>2022-08-14T08:52:26Z</time>
      </trkpt>
      <trkpt lat="40.811114" lon="-8.304324">
        <ele>655.8</ele>
        <time>2022-08-14T08:52:29Z</time>
      </trkpt>
      <trkpt lat="40.811175" lon="-8.304269">
        <ele>657</ele>
        <time>2022-08-14T08:52:33Z</time>
      </trkpt>
      <trkpt lat="40.811226" lon="-8.304228">
        <ele>657.6</ele>
        <time>2022-08-14T08:52:36Z</time>
      </trkpt>
      <trkpt lat="40.81124" lon="-8.304217">
        <ele>657.8</ele>
        <time>2022-08-14T08:52:37Z</time>
      </trkpt>
      <trkpt lat="40.811367" lon="-8.30413">
        <ele>658.8</ele>
        <time>2022-08-14T08:52:46Z</time>
      </trkpt>
      <trkpt lat="40.811382" lon="-8.304121">
        <ele>659</ele>
        <time>2022-08-14T08:52:47Z</time>
      </trkpt>
      <trkpt lat="40.81143" lon="-8.304068">
        <ele>660</ele>
        <time>2022-08-14T08:52:51Z</time>
      </trkpt>
      <trkpt lat="40.811446" lon="-8.304033">
        <ele>660.8</ele>
        <time>2022-08-14T08:52:53Z</time>
      </trkpt>
      <trkpt lat="40.811479" lon="-8.303999">
        <ele>661.2</ele>
        <time>2022-08-14T08:52:56Z</time>
      </trkpt>
      <trkpt lat="40.811512" lon="-8.303966">
        <ele>662.2</ele>
        <time>2022-08-14T08:52:59Z</time>
      </trkpt>
      <trkpt lat="40.811521" lon="-8.303954">
        <ele>662.4</ele>
        <time>2022-08-14T08:53:00Z</time>
      </trkpt>
      <trkpt lat="40.811561" lon="-8.303911">
        <ele>663.4</ele>
        <time>2022-08-14T08:53:04Z</time>
      </trkpt>
      <trkpt lat="40.811586" lon="-8.303875">
        <ele>664.4</ele>
        <time>2022-08-14T08:53:07Z</time>
      </trkpt>
      <trkpt lat="40.811595" lon="-8.303862">
        <ele>665</ele>
        <time>2022-08-14T08:53:08Z</time>
      </trkpt>
      <trkpt lat="40.811632" lon="-8.303818">
        <ele>666</ele>
        <time>2022-08-14T08:53:12Z</time>
      </trkpt>
      <trkpt lat="40.811646" lon="-8.303786">
        <ele>666.4</ele>
        <time>2022-08-14T08:53:14Z</time>
      </trkpt>
      <trkpt lat="40.811656" lon="-8.303774">
        <ele>666.8</ele>
        <time>2022-08-14T08:53:15Z</time>
      </trkpt>
      <trkpt lat="40.81168" lon="-8.303735">
        <ele>667.4</ele>
        <time>2022-08-14T08:53:18Z</time>
      </trkpt>
      <trkpt lat="40.811717" lon="-8.303675">
        <ele>668.6</ele>
        <time>2022-08-14T08:53:22Z</time>
      </trkpt>
      <trkpt lat="40.811738" lon="-8.303631">
        <ele>669.4</ele>
        <time>2022-08-14T08:53:25Z</time>
      </trkpt>
      <trkpt lat="40.811746" lon="-8.303616">
        <ele>669.6</ele>
        <time>2022-08-14T08:53:26Z</time>
      </trkpt>
      <trkpt lat="40.811783" lon="-8.303549">
        <ele>670.8</ele>
        <time>2022-08-14T08:53:31Z</time>
      </trkpt>
      <trkpt lat="40.81179" lon="-8.303537">
        <ele>671</ele>
        <time>2022-08-14T08:53:32Z</time>
      </trkpt>
      <trkpt lat="40.811811" lon="-8.303494">
        <ele>672</ele>
        <time>2022-08-14T08:53:35Z</time>
      </trkpt>
      <trkpt lat="40.811841" lon="-8.30344">
        <ele>673</ele>
        <time>2022-08-14T08:53:39Z</time>
      </trkpt>
      <trkpt lat="40.811864" lon="-8.303394">
        <ele>673.8</ele>
        <time>2022-08-14T08:53:42Z</time>
      </trkpt>
      <trkpt lat="40.811876" lon="-8.303381">
        <ele>673.8</ele>
        <time>2022-08-14T08:53:43Z</time>
      </trkpt>
      <trkpt lat="40.811908" lon="-8.30334">
        <ele>675</ele>
        <time>2022-08-14T08:53:46Z</time>
      </trkpt>
      <trkpt lat="40.811938" lon="-8.303293">
        <ele>676.2</ele>
        <time>2022-08-14T08:53:50Z</time>
      </trkpt>
      <trkpt lat="40.811941" lon="-8.303279">
        <ele>676.4</ele>
        <time>2022-08-14T08:53:51Z</time>
      </trkpt>
      <trkpt lat="40.811944" lon="-8.303263">
        <ele>676.6</ele>
        <time>2022-08-14T08:53:52Z</time>
      </trkpt>
      <trkpt lat="40.811951" lon="-8.303229">
        <ele>677</ele>
        <time>2022-08-14T08:53:54Z</time>
      </trkpt>
      <trkpt lat="40.811965" lon="-8.303202">
        <ele>677.4</ele>
        <time>2022-08-14T08:53:56Z</time>
      </trkpt>
      <trkpt lat="40.811987" lon="-8.30316">
        <ele>678.4</ele>
        <time>2022-08-14T08:53:59Z</time>
      </trkpt>
      <trkpt lat="40.811996" lon="-8.303142">
        <ele>678.4</ele>
        <time>2022-08-14T08:54:00Z</time>
      </trkpt>
      <trkpt lat="40.812015" lon="-8.303106">
        <ele>679</ele>
        <time>2022-08-14T08:54:02Z</time>
      </trkpt>
      <trkpt lat="40.812036" lon="-8.303067">
        <ele>679.6</ele>
        <time>2022-08-14T08:54:05Z</time>
      </trkpt>
      <trkpt lat="40.812064" lon="-8.303032">
        <ele>680.8</ele>
        <time>2022-08-14T08:54:08Z</time>
      </trkpt>
      <trkpt lat="40.812087" lon="-8.303004">
        <ele>681.4</ele>
        <time>2022-08-14T08:54:10Z</time>
      </trkpt>
      <trkpt lat="40.8121" lon="-8.302978">
        <ele>682</ele>
        <time>2022-08-14T08:54:12Z</time>
      </trkpt>
      <trkpt lat="40.81215" lon="-8.302922">
        <ele>683</ele>
        <time>2022-08-14T08:54:17Z</time>
      </trkpt>
      <trkpt lat="40.812184" lon="-8.302882">
        <ele>683.8</ele>
        <time>2022-08-14T08:54:20Z</time>
      </trkpt>
      <trkpt lat="40.812196" lon="-8.30287">
        <ele>684</ele>
        <time>2022-08-14T08:54:21Z</time>
      </trkpt>
      <trkpt lat="40.812215" lon="-8.302848">
        <ele>684.8</ele>
        <time>2022-08-14T08:54:23Z</time>
      </trkpt>
      <trkpt lat="40.812221" lon="-8.302833">
        <ele>685.2</ele>
        <time>2022-08-14T08:54:24Z</time>
      </trkpt>
      <trkpt lat="40.812249" lon="-8.302788">
        <ele>685.8</ele>
        <time>2022-08-14T08:54:27Z</time>
      </trkpt>
      <trkpt lat="40.812265" lon="-8.302758">
        <ele>686</ele>
        <time>2022-08-14T08:54:29Z</time>
      </trkpt>
      <trkpt lat="40.812294" lon="-8.302692">
        <ele>687.4</ele>
        <time>2022-08-14T08:54:34Z</time>
      </trkpt>
      <trkpt lat="40.81232" lon="-8.302658">
        <ele>688</ele>
        <time>2022-08-14T08:54:37Z</time>
      </trkpt>
      <trkpt lat="40.812336" lon="-8.30263">
        <ele>688.6</ele>
        <time>2022-08-14T08:54:39Z</time>
      </trkpt>
      <trkpt lat="40.812394" lon="-8.302538">
        <ele>689.6</ele>
        <time>2022-08-14T08:54:45Z</time>
      </trkpt>
      <trkpt lat="40.812404" lon="-8.302526">
        <ele>689.8</ele>
        <time>2022-08-14T08:54:46Z</time>
      </trkpt>
      <trkpt lat="40.812485" lon="-8.302433">
        <ele>690.6</ele>
        <time>2022-08-14T08:54:53Z</time>
      </trkpt>
      <trkpt lat="40.812495" lon="-8.302421">
        <ele>690.8</ele>
        <time>2022-08-14T08:54:54Z</time>
      </trkpt>
      <trkpt lat="40.812569" lon="-8.302318">
        <ele>692</ele>
        <time>2022-08-14T08:55:02Z</time>
      </trkpt>
      <trkpt lat="40.81262" lon="-8.302249">
        <ele>693</ele>
        <time>2022-08-14T08:55:08Z</time>
      </trkpt>
      <trkpt lat="40.812643" lon="-8.302209">
        <ele>693.6</ele>
        <time>2022-08-14T08:55:11Z</time>
      </trkpt>
      <trkpt lat="40.812676" lon="-8.30217">
        <ele>694.2</ele>
        <time>2022-08-14T08:55:14Z</time>
      </trkpt>
      <trkpt lat="40.812785" lon="-8.302045">
        <ele>695.4</ele>
        <time>2022-08-14T08:55:23Z</time>
      </trkpt>
      <trkpt lat="40.812865" lon="-8.301903">
        <ele>696.2</ele>
        <time>2022-08-14T08:55:32Z</time>
      </trkpt>
      <trkpt lat="40.812875" lon="-8.301887">
        <ele>696.4</ele>
        <time>2022-08-14T08:55:33Z</time>
      </trkpt>
      <trkpt lat="40.812948" lon="-8.301776">
        <ele>697</ele>
        <time>2022-08-14T08:55:40Z</time>
      </trkpt>
      <trkpt lat="40.812989" lon="-8.301723">
        <ele>697.4</ele>
        <time>2022-08-14T08:55:44Z</time>
      </trkpt>
      <trkpt lat="40.813041" lon="-8.30165">
        <ele>697.6</ele>
        <time>2022-08-14T08:55:49Z</time>
      </trkpt>
      <trkpt lat="40.813101" lon="-8.301567">
        <ele>698.4</ele>
        <time>2022-08-14T08:55:55Z</time>
      </trkpt>
      <trkpt lat="40.813126" lon="-8.301533">
        <ele>698.6</ele>
        <time>2022-08-14T08:55:57Z</time>
      </trkpt>
      <trkpt lat="40.813268" lon="-8.301357">
        <ele>698.8</ele>
        <time>2022-08-14T08:56:08Z</time>
      </trkpt>
      <trkpt lat="40.813315" lon="-8.301302">
        <ele>699</ele>
        <time>2022-08-14T08:56:13Z</time>
      </trkpt>
      <trkpt lat="40.813353" lon="-8.301267">
        <ele>699.4</ele>
        <time>2022-08-14T08:56:17Z</time>
      </trkpt>
      <trkpt lat="40.813399" lon="-8.301223">
        <ele>700.8</ele>
        <time>2022-08-14T08:56:21Z</time>
      </trkpt>
      <trkpt lat="40.813498" lon="-8.301132">
        <ele>701.6</ele>
        <time>2022-08-14T08:56:29Z</time>
      </trkpt>
      <trkpt lat="40.813521" lon="-8.301111">
        <ele>701.8</ele>
        <time>2022-08-14T08:56:31Z</time>
      </trkpt>
      <trkpt lat="40.813601" lon="-8.30104">
        <ele>702.6</ele>
        <time>2022-08-14T08:56:37Z</time>
      </trkpt>
      <trkpt lat="40.813622" lon="-8.301027">
        <ele>702.8</ele>
        <time>2022-08-14T08:56:39Z</time>
      </trkpt>
      <trkpt lat="40.813679" lon="-8.301002">
        <ele>704</ele>
        <time>2022-08-14T08:56:44Z</time>
      </trkpt>
      <trkpt lat="40.813692" lon="-8.300994">
        <ele>704.2</ele>
        <time>2022-08-14T08:56:45Z</time>
      </trkpt>
      <trkpt lat="40.813755" lon="-8.301012">
        <ele>705</ele>
        <time>2022-08-14T08:56:50Z</time>
      </trkpt>
      <trkpt lat="40.813763" lon="-8.30102">
        <ele>705.2</ele>
        <time>2022-08-14T08:56:51Z</time>
      </trkpt>
      <trkpt lat="40.813771" lon="-8.301026">
        <ele>705.4</ele>
        <time>2022-08-14T08:56:52Z</time>
      </trkpt>
      <trkpt lat="40.813792" lon="-8.301033">
        <ele>706</ele>
        <time>2022-08-14T08:56:54Z</time>
      </trkpt>
      <trkpt lat="40.813857" lon="-8.3011">
        <ele>706.8</ele>
        <time>2022-08-14T08:56:59Z</time>
      </trkpt>
      <trkpt lat="40.813951" lon="-8.301219">
        <ele>706.8</ele>
        <time>2022-08-14T08:57:08Z</time>
      </trkpt>
      <trkpt lat="40.814002" lon="-8.30128">
        <ele>707</ele>
        <time>2022-08-14T08:57:13Z</time>
      </trkpt>
      <trkpt lat="40.814011" lon="-8.301292">
        <ele>707</ele>
        <time>2022-08-14T08:57:14Z</time>
      </trkpt>
      <trkpt lat="40.814018" lon="-8.301306">
        <ele>707</ele>
        <time>2022-08-14T08:57:15Z</time>
      </trkpt>
      <trkpt lat="40.814051" lon="-8.301368">
        <ele>707.2</ele>
        <time>2022-08-14T08:57:19Z</time>
      </trkpt>
      <trkpt lat="40.814059" lon="-8.301379">
        <ele>707.2</ele>
        <time>2022-08-14T08:57:20Z</time>
      </trkpt>
      <trkpt lat="40.814118" lon="-8.30146">
        <ele>708</ele>
        <time>2022-08-14T08:57:26Z</time>
      </trkpt>
      <trkpt lat="40.814215" lon="-8.301586">
        <ele>708.4</ele>
        <time>2022-08-14T08:57:35Z</time>
      </trkpt>
      <trkpt lat="40.814256" lon="-8.301642">
        <ele>709.8</ele>
        <time>2022-08-14T08:57:40Z</time>
      </trkpt>
      <trkpt lat="40.814298" lon="-8.30169">
        <ele>711</ele>
        <time>2022-08-14T08:57:44Z</time>
      </trkpt>
      <trkpt lat="40.814415" lon="-8.301883">
        <ele>710.8</ele>
        <time>2022-08-14T08:57:54Z</time>
      </trkpt>
      <trkpt lat="40.814504" lon="-8.302035">
        <ele>711.2</ele>
        <time>2022-08-14T08:58:01Z</time>
      </trkpt>
      <trkpt lat="40.814596" lon="-8.302156">
        <ele>711.6</ele>
        <time>2022-08-14T08:58:08Z</time>
      </trkpt>
      <trkpt lat="40.814704" lon="-8.302275">
        <ele>711.8</ele>
        <time>2022-08-14T08:58:16Z</time>
      </trkpt>
      <trkpt lat="40.814747" lon="-8.302337">
        <ele>712.2</ele>
        <time>2022-08-14T08:58:20Z</time>
      </trkpt>
      <trkpt lat="40.814782" lon="-8.302365">
        <ele>712.8</ele>
        <time>2022-08-14T08:58:23Z</time>
      </trkpt>
      <trkpt lat="40.814829" lon="-8.302407">
        <ele>714</ele>
        <time>2022-08-14T08:58:27Z</time>
      </trkpt>
      <trkpt lat="40.814884" lon="-8.30247">
        <ele>714.6</ele>
        <time>2022-08-14T08:58:31Z</time>
      </trkpt>
      <trkpt lat="40.814926" lon="-8.302517">
        <ele>715</ele>
        <time>2022-08-14T08:58:34Z</time>
      </trkpt>
      <trkpt lat="40.815013" lon="-8.302658">
        <ele>715.4</ele>
        <time>2022-08-14T08:58:41Z</time>
      </trkpt>
      <trkpt lat="40.815092" lon="-8.302805">
        <ele>715.8</ele>
        <time>2022-08-14T08:58:48Z</time>
      </trkpt>
      <trkpt lat="40.815201" lon="-8.303002">
        <ele>715.8</ele>
        <time>2022-08-14T08:58:57Z</time>
      </trkpt>
      <trkpt lat="40.815258" lon="-8.303105">
        <ele>716</ele>
        <time>2022-08-14T08:59:02Z</time>
      </trkpt>
      <trkpt lat="40.815268" lon="-8.303144">
        <ele>716.2</ele>
        <time>2022-08-14T08:59:04Z</time>
      </trkpt>
      <trkpt lat="40.815315" lon="-8.303364">
        <ele>716.4</ele>
        <time>2022-08-14T08:59:10Z</time>
      </trkpt>
      <trkpt lat="40.815357" lon="-8.303488">
        <ele>716.6</ele>
        <time>2022-08-14T08:59:14Z</time>
      </trkpt>
      <trkpt lat="40.815499" lon="-8.303638">
        <ele>716.8</ele>
        <time>2022-08-14T08:59:22Z</time>
      </trkpt>
      <trkpt lat="40.81565" lon="-8.303795">
        <ele>716.6</ele>
        <time>2022-08-14T08:59:28Z</time>
      </trkpt>
      <trkpt lat="40.815711" lon="-8.303942">
        <ele>716.4</ele>
        <time>2022-08-14T08:59:32Z</time>
      </trkpt>
      <trkpt lat="40.815721" lon="-8.303993">
        <ele>716.4</ele>
        <time>2022-08-14T08:59:34Z</time>
      </trkpt>
      <trkpt lat="40.815738" lon="-8.304089">
        <ele>716.6</ele>
        <time>2022-08-14T08:59:38Z</time>
      </trkpt>
      <trkpt lat="40.815747" lon="-8.304132">
        <ele>716.8</ele>
        <time>2022-08-14T08:59:40Z</time>
      </trkpt>
      <trkpt lat="40.815755" lon="-8.304191">
        <ele>717.4</ele>
        <time>2022-08-14T08:59:44Z</time>
      </trkpt>
      <trkpt lat="40.815756" lon="-8.304221">
        <ele>717.6</ele>
        <time>2022-08-14T08:59:46Z</time>
      </trkpt>
      <trkpt lat="40.815765" lon="-8.304252">
        <ele>718</ele>
        <time>2022-08-14T08:59:48Z</time>
      </trkpt>
      <trkpt lat="40.815772" lon="-8.304296">
        <ele>718.4</ele>
        <time>2022-08-14T08:59:50Z</time>
      </trkpt>
      <trkpt lat="40.815772" lon="-8.304386">
        <ele>719.2</ele>
        <time>2022-08-14T08:59:55Z</time>
      </trkpt>
      <trkpt lat="40.815767" lon="-8.304416">
        <ele>719.6</ele>
        <time>2022-08-14T08:59:57Z</time>
      </trkpt>
      <trkpt lat="40.815766" lon="-8.304444">
        <ele>720.2</ele>
        <time>2022-08-14T08:59:59Z</time>
      </trkpt>
      <trkpt lat="40.815761" lon="-8.30446">
        <ele>720.4</ele>
        <time>2022-08-14T09:00:00Z</time>
      </trkpt>
      <trkpt lat="40.815752" lon="-8.304507">
        <ele>720.8</ele>
        <time>2022-08-14T09:00:03Z</time>
      </trkpt>
      <trkpt lat="40.815761" lon="-8.304552">
        <ele>721.6</ele>
        <time>2022-08-14T09:00:06Z</time>
      </trkpt>
      <trkpt lat="40.815765" lon="-8.304569">
        <ele>721.8</ele>
        <time>2022-08-14T09:00:07Z</time>
      </trkpt>
      <trkpt lat="40.815767" lon="-8.304612">
        <ele>722.2</ele>
        <time>2022-08-14T09:00:09Z</time>
      </trkpt>
      <trkpt lat="40.815766" lon="-8.304635">
        <ele>722.4</ele>
        <time>2022-08-14T09:00:10Z</time>
      </trkpt>
      <trkpt lat="40.81575" lon="-8.304737">
        <ele>723.6</ele>
        <time>2022-08-14T09:00:15Z</time>
      </trkpt>
      <trkpt lat="40.815739" lon="-8.304795">
        <ele>724.8</ele>
        <time>2022-08-14T09:00:19Z</time>
      </trkpt>
      <trkpt lat="40.815732" lon="-8.304827">
        <ele>725.4</ele>
        <time>2022-08-14T09:00:21Z</time>
      </trkpt>
      <trkpt lat="40.815722" lon="-8.304856">
        <ele>725.8</ele>
        <time>2022-08-14T09:00:23Z</time>
      </trkpt>
      <trkpt lat="40.815724" lon="-8.304873">
        <ele>725.8</ele>
        <time>2022-08-14T09:00:24Z</time>
      </trkpt>
      <trkpt lat="40.815727" lon="-8.304907">
        <ele>726.2</ele>
        <time>2022-08-14T09:00:26Z</time>
      </trkpt>
      <trkpt lat="40.815727" lon="-8.304943">
        <ele>726.4</ele>
        <time>2022-08-14T09:00:28Z</time>
      </trkpt>
      <trkpt lat="40.815729" lon="-8.304973">
        <ele>727</ele>
        <time>2022-08-14T09:00:30Z</time>
      </trkpt>
      <trkpt lat="40.815724" lon="-8.305008">
        <ele>727.8</ele>
        <time>2022-08-14T09:00:32Z</time>
      </trkpt>
      <trkpt lat="40.815723" lon="-8.305025">
        <ele>728.2</ele>
        <time>2022-08-14T09:00:33Z</time>
      </trkpt>
      <trkpt lat="40.815721" lon="-8.305043">
        <ele>728.2</ele>
        <time>2022-08-14T09:00:34Z</time>
      </trkpt>
      <trkpt lat="40.815717" lon="-8.305093">
        <ele>729.2</ele>
        <time>2022-08-14T09:00:37Z</time>
      </trkpt>
      <trkpt lat="40.815723" lon="-8.305135">
        <ele>730.2</ele>
        <time>2022-08-14T09:00:40Z</time>
      </trkpt>
      <trkpt lat="40.815736" lon="-8.305202">
        <ele>731</ele>
        <time>2022-08-14T09:00:43Z</time>
      </trkpt>
      <trkpt lat="40.815745" lon="-8.305242">
        <ele>731.4</ele>
        <time>2022-08-14T09:00:45Z</time>
      </trkpt>
      <trkpt lat="40.815767" lon="-8.305273">
        <ele>732.2</ele>
        <time>2022-08-14T09:00:47Z</time>
      </trkpt>
      <trkpt lat="40.815777" lon="-8.305279">
        <ele>732.6</ele>
        <time>2022-08-14T09:00:48Z</time>
      </trkpt>
      <trkpt lat="40.815785" lon="-8.305284">
        <ele>733.2</ele>
        <time>2022-08-14T09:00:49Z</time>
      </trkpt>
      <trkpt lat="40.815793" lon="-8.305288">
        <ele>733.8</ele>
        <time>2022-08-14T09:00:50Z</time>
      </trkpt>
      <trkpt lat="40.815816" lon="-8.305303">
        <ele>735.2</ele>
        <time>2022-08-14T09:00:52Z</time>
      </trkpt>
      <trkpt lat="40.815826" lon="-8.305306">
        <ele>735.6</ele>
        <time>2022-08-14T09:00:53Z</time>
      </trkpt>
      <trkpt lat="40.81584" lon="-8.305302">
        <ele>736.2</ele>
        <time>2022-08-14T09:00:56Z</time>
      </trkpt>
      <trkpt lat="40.81584" lon="-8.305302">
        <ele>736.6</ele>
        <time>2022-08-14T09:00:57Z</time>
      </trkpt>
      <trkpt lat="40.815893" lon="-8.305255">
        <ele>737.2</ele>
        <time>2022-08-14T09:02:25Z</time>
      </trkpt>
      <trkpt lat="40.815939" lon="-8.305222">
        <ele>737</ele>
        <time>2022-08-14T09:02:28Z</time>
      </trkpt>
      <trkpt lat="40.816033" lon="-8.305138">
        <ele>736.4</ele>
        <time>2022-08-14T09:02:35Z</time>
      </trkpt>
      <trkpt lat="40.816168" lon="-8.305022">
        <ele>736.4</ele>
        <time>2022-08-14T09:02:42Z</time>
      </trkpt>
      <trkpt lat="40.816306" lon="-8.304976">
        <ele>736.2</ele>
        <time>2022-08-14T09:02:49Z</time>
      </trkpt>
      <trkpt lat="40.816505" lon="-8.305021">
        <ele>736.2</ele>
        <time>2022-08-14T09:02:55Z</time>
      </trkpt>
      <trkpt lat="40.816666" lon="-8.305006">
        <ele>736</ele>
        <time>2022-08-14T09:02:58Z</time>
      </trkpt>
      <trkpt lat="40.81677" lon="-8.304966">
        <ele>735.8</ele>
        <time>2022-08-14T09:03:00Z</time>
      </trkpt>
      <trkpt lat="40.816867" lon="-8.304929">
        <ele>734.8</ele>
        <time>2022-08-14T09:03:02Z</time>
      </trkpt>
      <trkpt lat="40.816913" lon="-8.304915">
        <ele>734.6</ele>
        <time>2022-08-14T09:03:03Z</time>
      </trkpt>
      <trkpt lat="40.816998" lon="-8.304902">
        <ele>734.2</ele>
        <time>2022-08-14T09:03:05Z</time>
      </trkpt>
      <trkpt lat="40.817262" lon="-8.304937">
        <ele>733.8</ele>
        <time>2022-08-14T09:03:11Z</time>
      </trkpt>
      <trkpt lat="40.817303" lon="-8.304946">
        <ele>733.6</ele>
        <time>2022-08-14T09:03:12Z</time>
      </trkpt>
      <trkpt lat="40.817374" lon="-8.304977">
        <ele>733.6</ele>
        <time>2022-08-14T09:03:15Z</time>
      </trkpt>
      <trkpt lat="40.817493" lon="-8.305022">
        <ele>733.4</ele>
        <time>2022-08-14T09:03:20Z</time>
      </trkpt>
      <trkpt lat="40.81769" lon="-8.305057">
        <ele>733</ele>
        <time>2022-08-14T09:03:27Z</time>
      </trkpt>
      <trkpt lat="40.81791" lon="-8.305008">
        <ele>733</ele>
        <time>2022-08-14T09:03:35Z</time>
      </trkpt>
      <trkpt lat="40.818177" lon="-8.304938">
        <ele>733</ele>
        <time>2022-08-14T09:03:44Z</time>
      </trkpt>
      <trkpt lat="40.818363" lon="-8.304857">
        <ele>732.6</ele>
        <time>2022-08-14T09:03:49Z</time>
      </trkpt>
      <trkpt lat="40.81855" lon="-8.304785">
        <ele>731.8</ele>
        <time>2022-08-14T09:03:54Z</time>
      </trkpt>
      <trkpt lat="40.818685" lon="-8.304744">
        <ele>731.8</ele>
        <time>2022-08-14T09:03:59Z</time>
      </trkpt>
      <trkpt lat="40.818767" lon="-8.304703">
        <ele>731.8</ele>
        <time>2022-08-14T09:04:05Z</time>
      </trkpt>
      <trkpt lat="40.818771" lon="-8.304703">
        <ele>731.8</ele>
        <time>2022-08-14T09:04:06Z</time>
      </trkpt>
      <trkpt lat="40.818769" lon="-8.304701">
        <ele>731.8</ele>
        <time>2022-08-14T09:04:08Z</time>
      </trkpt>
      <trkpt lat="40.818769" lon="-8.304701">
        <ele>731.8</ele>
        <time>2022-08-14T09:04:09Z</time>
      </trkpt>
      <trkpt lat="40.8187550" lon="-8.3046840">
        <ele>738.4</ele>
        <time>2022-08-14T09:14:17Z</time>
      </trkpt>
      <trkpt lat="40.8187550" lon="-8.3046840">
        <ele>734.6</ele>
        <time>2022-08-14T09:14:18Z</time>
      </trkpt>
      <trkpt lat="40.8187850" lon="-8.3046870">
        <ele>738.2</ele>
        <time>2022-08-14T09:14:36Z</time>
      </trkpt>
      <trkpt lat="40.8188440" lon="-8.3046710">
        <ele>738.2</ele>
        <time>2022-08-14T09:14:38Z</time>
      </trkpt>
      <trkpt lat="40.8190020" lon="-8.3046570">
        <ele>738.6</ele>
        <time>2022-08-14T09:14:45Z</time>
      </trkpt>
      <trkpt lat="40.8191020" lon="-8.3046480">
        <ele>739.2</ele>
        <time>2022-08-14T09:14:51Z</time>
      </trkpt>
      <trkpt lat="40.8191570" lon="-8.3046450">
        <ele>739.8</ele>
        <time>2022-08-14T09:14:54Z</time>
      </trkpt>
      <trkpt lat="40.8193300" lon="-8.3047100">
        <ele>740.0</ele>
        <time>2022-08-14T09:15:02Z</time>
      </trkpt>
      <trkpt lat="40.8194190" lon="-8.3049020">
        <ele>740.0</ele>
        <time>2022-08-14T09:15:08Z</time>
      </trkpt>
      <trkpt lat="40.8194650" lon="-8.3051390">
        <ele>739.8</ele>
        <time>2022-08-14T09:15:14Z</time>
      </trkpt>
      <trkpt lat="40.8195270" lon="-8.3054190">
        <ele>739.4</ele>
        <time>2022-08-14T09:15:21Z</time>
      </trkpt>
      <trkpt lat="40.8195920" lon="-8.3057110">
        <ele>739.2</ele>
        <time>2022-08-14T09:15:28Z</time>
      </trkpt>
      <trkpt lat="40.8196280" lon="-8.3057650">
        <ele>739.2</ele>
        <time>2022-08-14T09:15:31Z</time>
      </trkpt>
      <trkpt lat="40.8196400" lon="-8.3057720">
        <ele>739.2</ele>
        <time>2022-08-14T09:15:32Z</time>
      </trkpt>
      <trkpt lat="40.8197670" lon="-8.3057820">
        <ele>739.6</ele>
        <time>2022-08-14T09:15:39Z</time>
      </trkpt>
      <trkpt lat="40.8198700" lon="-8.3057790">
        <ele>739.4</ele>
        <time>2022-08-14T09:15:43Z</time>
      </trkpt>
      <trkpt lat="40.8200210" lon="-8.3057540">
        <ele>739.4</ele>
        <time>2022-08-14T09:15:48Z</time>
      </trkpt>
      <trkpt lat="40.8201340" lon="-8.3057350">
        <ele>739.6</ele>
        <time>2022-08-14T09:15:53Z</time>
      </trkpt>
      <trkpt lat="40.8202320" lon="-8.3056970">
        <ele>740.0</ele>
        <time>2022-08-14T09:15:58Z</time>
      </trkpt>
      <trkpt lat="40.8202500" lon="-8.3056810">
        <ele>740.2</ele>
        <time>2022-08-14T09:15:59Z</time>
      </trkpt>
      <trkpt lat="40.8204020" lon="-8.3056090">
        <ele>740.4</ele>
        <time>2022-08-14T09:16:04Z</time>
      </trkpt>
      <trkpt lat="40.8205000" lon="-8.3055310">
        <ele>740.6</ele>
        <time>2022-08-14T09:16:08Z</time>
      </trkpt>
      <trkpt lat="40.8205580" lon="-8.3054870">
        <ele>740.8</ele>
        <time>2022-08-14T09:16:10Z</time>
      </trkpt>
      <trkpt lat="40.8206930" lon="-8.3054190">
        <ele>741.0</ele>
        <time>2022-08-14T09:16:15Z</time>
      </trkpt>
      <trkpt lat="40.8207510" lon="-8.3054250">
        <ele>741.2</ele>
        <time>2022-08-14T09:16:18Z</time>
      </trkpt>
      <trkpt lat="40.8209410" lon="-8.3054560">
        <ele>742.0</ele>
        <time>2022-08-14T09:16:26Z</time>
      </trkpt>
      <trkpt lat="40.8209570" lon="-8.3054610">
        <ele>742.2</ele>
        <time>2022-08-14T09:16:27Z</time>
      </trkpt>
      <trkpt lat="40.8211790" lon="-8.3054670">
        <ele>742.6</ele>
        <time>2022-08-14T09:16:35Z</time>
      </trkpt>
      <trkpt lat="40.8213850" lon="-8.3054390">
        <ele>743.0</ele>
        <time>2022-08-14T09:16:41Z</time>
      </trkpt>
      <trkpt lat="40.8215980" lon="-8.3054060">
        <ele>743.0</ele>
        <time>2022-08-14T09:16:46Z</time>
      </trkpt>
      <trkpt lat="40.8218400" lon="-8.3053960">
        <ele>742.4</ele>
        <time>2022-08-14T09:16:53Z</time>
      </trkpt>
      <trkpt lat="40.8219680" lon="-8.3053050">
        <ele>742.0</ele>
        <time>2022-08-14T09:16:58Z</time>
      </trkpt>
      <trkpt lat="40.8221080" lon="-8.3051490">
        <ele>741.6</ele>
        <time>2022-08-14T09:17:04Z</time>
      </trkpt>
      <trkpt lat="40.8223100" lon="-8.3048960">
        <ele>740.6</ele>
        <time>2022-08-14T09:17:10Z</time>
      </trkpt>
      <trkpt lat="40.8224010" lon="-8.3047130">
        <ele>739.2</ele>
        <time>2022-08-14T09:17:14Z</time>
      </trkpt>
      <trkpt lat="40.8224820" lon="-8.3045810">
        <ele>738.4</ele>
        <time>2022-08-14T09:17:17Z</time>
      </trkpt>
      <trkpt lat="40.8225960" lon="-8.3043660">
        <ele>738.4</ele>
        <time>2022-08-14T09:17:23Z</time>
      </trkpt>
      <trkpt lat="40.8226820" lon="-8.3042220">
        <ele>738.6</ele>
        <time>2022-08-14T09:17:28Z</time>
      </trkpt>
      <trkpt lat="40.8227440" lon="-8.3041510">
        <ele>738.8</ele>
        <time>2022-08-14T09:17:32Z</time>
      </trkpt>
      <trkpt lat="40.8228350" lon="-8.3040330">
        <ele>739.4</ele>
        <time>2022-08-14T09:17:38Z</time>
      </trkpt>
      <trkpt lat="40.8229680" lon="-8.3039700">
        <ele>739.6</ele>
        <time>2022-08-14T09:17:45Z</time>
      </trkpt>
      <trkpt lat="40.8230100" lon="-8.3039790">
        <ele>740.2</ele>
        <time>2022-08-14T09:17:48Z</time>
      </trkpt>
      <trkpt lat="40.8230750" lon="-8.3039890">
        <ele>741.0</ele>
        <time>2022-08-14T09:17:53Z</time>
      </trkpt>
      <trkpt lat="40.8230870" lon="-8.3039930">
        <ele>741.2</ele>
        <time>2022-08-14T09:17:54Z</time>
      </trkpt>
      <trkpt lat="40.8231120" lon="-8.3039980">
        <ele>741.4</ele>
        <time>2022-08-14T09:17:56Z</time>
      </trkpt>
      <trkpt lat="40.8231510" lon="-8.3040010">
        <ele>742.0</ele>
        <time>2022-08-14T09:17:59Z</time>
      </trkpt>
      <trkpt lat="40.8231810" lon="-8.3040060">
        <ele>742.4</ele>
        <time>2022-08-14T09:18:01Z</time>
      </trkpt>
      <trkpt lat="40.8232970" lon="-8.3040160">
        <ele>743.4</ele>
        <time>2022-08-14T09:18:08Z</time>
      </trkpt>
      <trkpt lat="40.8233360" lon="-8.3040120">
        <ele>744.0</ele>
        <time>2022-08-14T09:18:10Z</time>
      </trkpt>
      <trkpt lat="40.8233960" lon="-8.3040050">
        <ele>744.4</ele>
        <time>2022-08-14T09:18:14Z</time>
      </trkpt>
      <trkpt lat="40.8234060" lon="-8.3039970">
        <ele>744.6</ele>
        <time>2022-08-14T09:18:15Z</time>
      </trkpt>
      <trkpt lat="40.8234130" lon="-8.3039920">
        <ele>744.6</ele>
        <time>2022-08-14T09:18:16Z</time>
      </trkpt>
      <trkpt lat="40.8234470" lon="-8.3039980">
        <ele>745.2</ele>
        <time>2022-08-14T09:18:19Z</time>
      </trkpt>
      <trkpt lat="40.8234480" lon="-8.3040090">
        <ele>745.4</ele>
        <time>2022-08-14T09:18:21Z</time>
      </trkpt>
      <trkpt lat="40.8234510" lon="-8.3040100">
        <ele>745.6</ele>
        <time>2022-08-14T09:18:22Z</time>
      </trkpt>
      <trkpt lat="40.8234350" lon="-8.3040060">
        <ele>745.8</ele>
        <time>2022-08-14T09:18:24Z</time>
      </trkpt>
      <trkpt lat="40.8234120" lon="-8.3040020">
        <ele>745.8</ele>
        <time>2022-08-14T09:18:26Z</time>
      </trkpt>
      <trkpt lat="40.8232820" lon="-8.3039940">
        <ele>745.6</ele>
        <time>2022-08-14T09:18:31Z</time>
      </trkpt>
      <trkpt lat="40.8231750" lon="-8.3039800">
        <ele>744.8</ele>
        <time>2022-08-14T09:18:37Z</time>
      </trkpt>
      <trkpt lat="40.8230640" lon="-8.3039870">
        <ele>744.6</ele>
        <time>2022-08-14T09:18:42Z</time>
      </trkpt>
      <trkpt lat="40.8228950" lon="-8.3040260">
        <ele>743.4</ele>
        <time>2022-08-14T09:18:47Z</time>
      </trkpt>
      <trkpt lat="40.8228740" lon="-8.3040380">
        <ele>743.0</ele>
        <time>2022-08-14T09:18:48Z</time>
      </trkpt>
      <trkpt lat="40.8228480" lon="-8.3040710">
        <ele>742.4</ele>
        <time>2022-08-14T09:18:50Z</time>
      </trkpt>
      <trkpt lat="40.8228410" lon="-8.3040840">
        <ele>742.0</ele>
        <time>2022-08-14T09:18:51Z</time>
      </trkpt>
      <trkpt lat="40.8228340" lon="-8.3040910">
        <ele>741.6</ele>
        <time>2022-08-14T09:18:52Z</time>
      </trkpt>
      <trkpt lat="40.8228260" lon="-8.3041020">
        <ele>741.4</ele>
        <time>2022-08-14T09:18:53Z</time>
      </trkpt>
      <trkpt lat="40.8228200" lon="-8.3041040">
        <ele>741.0</ele>
        <time>2022-08-14T09:18:55Z</time>
      </trkpt>
      <trkpt lat="40.8228200" lon="-8.3041040">
        <ele>741.0</ele>
        <time>2022-08-14T09:18:56Z</time>
      </trkpt>
      <trkpt lat="40.8227800" lon="-8.3040080">
        <ele>738.2</ele>
        <time>2022-08-14T09:21:16Z</time>
      </trkpt>
      <trkpt lat="40.8228670" lon="-8.3038890">
        <ele>738.2</ele>
        <time>2022-08-14T09:21:20Z</time>
      </trkpt>
      <trkpt lat="40.8229250" lon="-8.3036270">
        <ele>737.4</ele>
        <time>2022-08-14T09:21:25Z</time>
      </trkpt>
      <trkpt lat="40.8229400" lon="-8.3035890">
        <ele>737.2</ele>
        <time>2022-08-14T09:21:26Z</time>
      </trkpt>
      <trkpt lat="40.8229640" lon="-8.3035280">
        <ele>736.2</ele>
        <time>2022-08-14T09:21:28Z</time>
      </trkpt>
      <trkpt lat="40.8229770" lon="-8.3035040">
        <ele>735.8</ele>
        <time>2022-08-14T09:21:29Z</time>
      </trkpt>
      <trkpt lat="40.8229920" lon="-8.3034750">
        <ele>735.4</ele>
        <time>2022-08-14T09:21:30Z</time>
      </trkpt>
      <trkpt lat="40.8230250" lon="-8.3033900">
        <ele>735.0</ele>
        <time>2022-08-14T09:21:33Z</time>
      </trkpt>
      <trkpt lat="40.8230650" lon="-8.3033380">
        <ele>734.0</ele>
        <time>2022-08-14T09:21:35Z</time>
      </trkpt>
      <trkpt lat="40.8231150" lon="-8.3032790">
        <ele>733.2</ele>
        <time>2022-08-14T09:21:37Z</time>
      </trkpt>
      <trkpt lat="40.8231390" lon="-8.3032530">
        <ele>732.8</ele>
        <time>2022-08-14T09:21:38Z</time>
      </trkpt>
      <trkpt lat="40.8231760" lon="-8.3032010">
        <ele>731.6</ele>
        <time>2022-08-14T09:21:40Z</time>
      </trkpt>
      <trkpt lat="40.8232300" lon="-8.3031160">
        <ele>729.8</ele>
        <time>2022-08-14T09:21:43Z</time>
      </trkpt>
      <trkpt lat="40.8232560" lon="-8.3030860">
        <ele>729.2</ele>
        <time>2022-08-14T09:21:44Z</time>
      </trkpt>
      <trkpt lat="40.8233130" lon="-8.3030180">
        <ele>728.2</ele>
        <time>2022-08-14T09:21:46Z</time>
      </trkpt>
      <trkpt lat="40.8233380" lon="-8.3029390">
        <ele>727.0</ele>
        <time>2022-08-14T09:21:48Z</time>
      </trkpt>
      <trkpt lat="40.8233370" lon="-8.3029040">
        <ele>726.6</ele>
        <time>2022-08-14T09:21:49Z</time>
      </trkpt>
      <trkpt lat="40.8233290" lon="-8.3028610">
        <ele>725.8</ele>
        <time>2022-08-14T09:21:50Z</time>
      </trkpt>
      <trkpt lat="40.8233150" lon="-8.3028150">
        <ele>725.2</ele>
        <time>2022-08-14T09:21:51Z</time>
      </trkpt>
      <trkpt lat="40.8232760" lon="-8.3027420">
        <ele>724.4</ele>
        <time>2022-08-14T09:21:53Z</time>
      </trkpt>
      <trkpt lat="40.8232220" lon="-8.3026790">
        <ele>723.0</ele>
        <time>2022-08-14T09:21:55Z</time>
      </trkpt>
      <trkpt lat="40.8231930" lon="-8.3026560">
        <ele>722.4</ele>
        <time>2022-08-14T09:21:56Z</time>
      </trkpt>
      <trkpt lat="40.8231680" lon="-8.3026390">
        <ele>721.4</ele>
        <time>2022-08-14T09:21:57Z</time>
      </trkpt>
      <trkpt lat="40.8231460" lon="-8.3026250">
        <ele>720.2</ele>
        <time>2022-08-14T09:21:58Z</time>
      </trkpt>
      <trkpt lat="40.8230960" lon="-8.3026070">
        <ele>719.4</ele>
        <time>2022-08-14T09:22:00Z</time>
      </trkpt>
      <trkpt lat="40.8230750" lon="-8.3026030">
        <ele>718.6</ele>
        <time>2022-08-14T09:22:01Z</time>
      </trkpt>
      <trkpt lat="40.8230330" lon="-8.3025880">
        <ele>717.4</ele>
        <time>2022-08-14T09:22:03Z</time>
      </trkpt>
      <trkpt lat="40.8230080" lon="-8.3025700">
        <ele>716.6</ele>
        <time>2022-08-14T09:22:04Z</time>
      </trkpt>
      <trkpt lat="40.8229860" lon="-8.3025480">
        <ele>716.2</ele>
        <time>2022-08-14T09:22:05Z</time>
      </trkpt>
      <trkpt lat="40.8229490" lon="-8.3024960">
        <ele>714.8</ele>
        <time>2022-08-14T09:22:07Z</time>
      </trkpt>
      <trkpt lat="40.8229390" lon="-8.3024750">
        <ele>714.6</ele>
        <time>2022-08-14T09:22:08Z</time>
      </trkpt>
      <trkpt lat="40.8229400" lon="-8.3024540">
        <ele>713.8</ele>
        <time>2022-08-14T09:22:09Z</time>
      </trkpt>
      <trkpt lat="40.8229450" lon="-8.3023900">
        <ele>713.0</ele>
        <time>2022-08-14T09:22:11Z</time>
      </trkpt>
      <trkpt lat="40.8229480" lon="-8.3023610">
        <ele>712.4</ele>
        <time>2022-08-14T09:22:12Z</time>
      </trkpt>
      <trkpt lat="40.8229520" lon="-8.3023280">
        <ele>712.2</ele>
        <time>2022-08-14T09:22:13Z</time>
      </trkpt>
      <trkpt lat="40.8229650" lon="-8.3022430">
        <ele>711.2</ele>
        <time>2022-08-14T09:22:16Z</time>
      </trkpt>
      <trkpt lat="40.8229720" lon="-8.3022190">
        <ele>710.8</ele>
        <time>2022-08-14T09:22:17Z</time>
      </trkpt>
      <trkpt lat="40.8229960" lon="-8.3021600">
        <ele>710.2</ele>
        <time>2022-08-14T09:22:19Z</time>
      </trkpt>
      <trkpt lat="40.8230210" lon="-8.3021310">
        <ele>710.0</ele>
        <time>2022-08-14T09:22:20Z</time>
      </trkpt>
      <trkpt lat="40.8230570" lon="-8.3020760">
        <ele>708.8</ele>
        <time>2022-08-14T09:22:22Z</time>
      </trkpt>
      <trkpt lat="40.8231280" lon="-8.3020390">
        <ele>707.8</ele>
        <time>2022-08-14T09:22:25Z</time>
      </trkpt>
      <trkpt lat="40.8231730" lon="-8.3020290">
        <ele>706.6</ele>
        <time>2022-08-14T09:22:27Z</time>
      </trkpt>
      <trkpt lat="40.8232110" lon="-8.3020270">
        <ele>705.4</ele>
        <time>2022-08-14T09:22:29Z</time>
      </trkpt>
      <trkpt lat="40.8232360" lon="-8.3020280">
        <ele>705.0</ele>
        <time>2022-08-14T09:22:30Z</time>
      </trkpt>
      <trkpt lat="40.8232970" lon="-8.3020130">
        <ele>704.0</ele>
        <time>2022-08-14T09:22:32Z</time>
      </trkpt>
      <trkpt lat="40.8233290" lon="-8.3020030">
        <ele>703.2</ele>
        <time>2022-08-14T09:22:33Z</time>
      </trkpt>
      <trkpt lat="40.8233830" lon="-8.3019850">
        <ele>702.2</ele>
        <time>2022-08-14T09:22:35Z</time>
      </trkpt>
      <trkpt lat="40.8234490" lon="-8.3019560">
        <ele>700.8</ele>
        <time>2022-08-14T09:22:38Z</time>
      </trkpt>
      <trkpt lat="40.8235140" lon="-8.3019310">
        <ele>699.6</ele>
        <time>2022-08-14T09:22:41Z</time>
      </trkpt>
      <trkpt lat="40.8235250" lon="-8.3019260">
        <ele>699.0</ele>
        <time>2022-08-14T09:22:42Z</time>
      </trkpt>
      <trkpt lat="40.8235400" lon="-8.3019200">
        <ele>698.4</ele>
        <time>2022-08-14T09:22:43Z</time>
      </trkpt>
      <trkpt lat="40.8235440" lon="-8.3019040">
        <ele>697.4</ele>
        <time>2022-08-14T09:22:44Z</time>
      </trkpt>
      <trkpt lat="40.8235420" lon="-8.3018940">
        <ele>697.0</ele>
        <time>2022-08-14T09:22:45Z</time>
      </trkpt>
      <trkpt lat="40.8235340" lon="-8.3018810">
        <ele>696.4</ele>
        <time>2022-08-14T09:22:46Z</time>
      </trkpt>
      <trkpt lat="40.8235120" lon="-8.3018730">
        <ele>695.6</ele>
        <time>2022-08-14T09:22:48Z</time>
      </trkpt>
      <trkpt lat="40.8234980" lon="-8.3018790">
        <ele>695.0</ele>
        <time>2022-08-14T09:22:51Z</time>
      </trkpt>
      <trkpt lat="40.8234980" lon="-8.3018790">
        <ele>694.8</ele>
        <time>2022-08-14T09:22:52Z</time>
      </trkpt>
      <trkpt lat="40.8235830" lon="-8.3018950">
        <ele>693.6</ele>
        <time>2022-08-14T09:23:27Z</time>
      </trkpt>
      <trkpt lat="40.8236600" lon="-8.3018690">
        <ele>694.0</ele>
        <time>2022-08-14T09:23:30Z</time>
      </trkpt>
      <trkpt lat="40.8237760" lon="-8.3017330">
        <ele>693.6</ele>
        <time>2022-08-14T09:23:35Z</time>
      </trkpt>
      <trkpt lat="40.8238240" lon="-8.3016450">
        <ele>691.8</ele>
        <time>2022-08-14T09:23:38Z</time>
      </trkpt>
      <trkpt lat="40.8238830" lon="-8.3015670">
        <ele>690.8</ele>
        <time>2022-08-14T09:23:40Z</time>
      </trkpt>
      <trkpt lat="40.8239130" lon="-8.3015200">
        <ele>690.6</ele>
        <time>2022-08-14T09:23:41Z</time>
      </trkpt>
      <trkpt lat="40.8239350" lon="-8.3014640">
        <ele>690.2</ele>
        <time>2022-08-14T09:23:42Z</time>
      </trkpt>
      <trkpt lat="40.8239580" lon="-8.3013830">
        <ele>689.0</ele>
        <time>2022-08-14T09:23:44Z</time>
      </trkpt>
      <trkpt lat="40.8239650" lon="-8.3013580">
        <ele>687.8</ele>
        <time>2022-08-14T09:23:45Z</time>
      </trkpt>
      <trkpt lat="40.8239870" lon="-8.3012970">
        <ele>686.4</ele>
        <time>2022-08-14T09:23:47Z</time>
      </trkpt>
      <trkpt lat="40.8239890" lon="-8.3012610">
        <ele>686.0</ele>
        <time>2022-08-14T09:23:48Z</time>
      </trkpt>
      <trkpt lat="40.8239990" lon="-8.3012400">
        <ele>685.2</ele>
        <time>2022-08-14T09:23:49Z</time>
      </trkpt>
      <trkpt lat="40.8240180" lon="-8.3011930">
        <ele>684.0</ele>
        <time>2022-08-14T09:23:51Z</time>
      </trkpt>
      <trkpt lat="40.8240200" lon="-8.3011780">
        <ele>682.8</ele>
        <time>2022-08-14T09:23:52Z</time>
      </trkpt>
      <trkpt lat="40.8240370" lon="-8.3011760">
        <ele>681.2</ele>
        <time>2022-08-14T09:23:54Z</time>
      </trkpt>
      <trkpt lat="40.8240830" lon="-8.3012010">
        <ele>680.2</ele>
        <time>2022-08-14T09:23:56Z</time>
      </trkpt>
      <trkpt lat="40.8242370" lon="-8.3012710">
        <ele>678.6</ele>
        <time>2022-08-14T09:24:01Z</time>
      </trkpt>
      <trkpt lat="40.8242620" lon="-8.3012800">
        <ele>678.6</ele>
        <time>2022-08-14T09:24:02Z</time>
      </trkpt>
      <trkpt lat="40.8242990" lon="-8.3012670">
        <ele>677.6</ele>
        <time>2022-08-14T09:24:04Z</time>
      </trkpt>
      <trkpt lat="40.8243100" lon="-8.3012540">
        <ele>676.0</ele>
        <time>2022-08-14T09:24:08Z</time>
      </trkpt>
      <trkpt lat="40.8243510" lon="-8.3012160">
        <ele>673.8</ele>
        <time>2022-08-14T09:24:19Z</time>
      </trkpt>
      <trkpt lat="40.8244960" lon="-8.3011240">
        <ele>673.0</ele>
        <time>2022-08-14T09:24:24Z</time>
      </trkpt>
      <trkpt lat="40.8245420" lon="-8.3010790">
        <ele>672.6</ele>
        <time>2022-08-14T09:24:26Z</time>
      </trkpt>
      <trkpt lat="40.8245580" lon="-8.3010540">
        <ele>672.4</ele>
        <time>2022-08-14T09:24:27Z</time>
      </trkpt>
      <trkpt lat="40.8245770" lon="-8.3010250">
        <ele>672.2</ele>
        <time>2022-08-14T09:24:28Z</time>
      </trkpt>
      <trkpt lat="40.8246110" lon="-8.3009570">
        <ele>671.0</ele>
        <time>2022-08-14T09:24:30Z</time>
      </trkpt>
      <trkpt lat="40.8246390" lon="-8.3008810">
        <ele>670.0</ele>
        <time>2022-08-14T09:24:32Z</time>
      </trkpt>
      <trkpt lat="40.8246930" lon="-8.3007270">
        <ele>668.6</ele>
        <time>2022-08-14T09:24:36Z</time>
      </trkpt>
      <trkpt lat="40.8247160" lon="-8.3006600">
        <ele>667.6</ele>
        <time>2022-08-14T09:24:38Z</time>
      </trkpt>
      <trkpt lat="40.8247170" lon="-8.3006300">
        <ele>666.8</ele>
        <time>2022-08-14T09:24:39Z</time>
      </trkpt>
      <trkpt lat="40.8247010" lon="-8.3005180">
        <ele>665.8</ele>
        <time>2022-08-14T09:24:42Z</time>
      </trkpt>
      <trkpt lat="40.8246770" lon="-8.3004650">
        <ele>665.0</ele>
        <time>2022-08-14T09:24:44Z</time>
      </trkpt>
      <trkpt lat="40.8246710" lon="-8.3004420">
        <ele>664.4</ele>
        <time>2022-08-14T09:24:45Z</time>
      </trkpt>
      <trkpt lat="40.8246720" lon="-8.3004240">
        <ele>663.2</ele>
        <time>2022-08-14T09:24:46Z</time>
      </trkpt>
      <trkpt lat="40.8246780" lon="-8.3004130">
        <ele>663.0</ele>
        <time>2022-08-14T09:24:47Z</time>
      </trkpt>
      <trkpt lat="40.8246930" lon="-8.3003960">
        <ele>662.0</ele>
        <time>2022-08-14T09:24:48Z</time>
      </trkpt>
      <trkpt lat="40.8247230" lon="-8.3003670">
        <ele>660.6</ele>
        <time>2022-08-14T09:24:50Z</time>
      </trkpt>
      <trkpt lat="40.8247670" lon="-8.3003240">
        <ele>659.4</ele>
        <time>2022-08-14T09:24:53Z</time>
      </trkpt>
      <trkpt lat="40.8247610" lon="-8.3002430">
        <ele>658.4</ele>
        <time>2022-08-14T09:24:56Z</time>
      </trkpt>
      <trkpt lat="40.8247520" lon="-8.3002300">
        <ele>657.8</ele>
        <time>2022-08-14T09:24:57Z</time>
      </trkpt>
      <trkpt lat="40.8247420" lon="-8.3002210">
        <ele>657.2</ele>
        <time>2022-08-14T09:24:59Z</time>
      </trkpt>
      <trkpt lat="40.8247420" lon="-8.3002210">
        <ele>656.8</ele>
        <time>2022-08-14T09:25:00Z</time>
      </trkpt>
      <trkpt lat="40.8247840" lon="-8.3002370">
        <ele>655.8</ele>
        <time>2022-08-14T09:26:10Z</time>
      </trkpt>
      <trkpt lat="40.8249590" lon="-8.3002770">
        <ele>656.2</ele>
        <time>2022-08-14T09:26:19Z</time>
      </trkpt>
      <trkpt lat="40.8250640" lon="-8.3003190">
        <ele>656.8</ele>
        <time>2022-08-14T09:26:25Z</time>
      </trkpt>
      <trkpt lat="40.8251390" lon="-8.3003090">
        <ele>657.2</ele>
        <time>2022-08-14T09:26:33Z</time>
      </trkpt>
      <trkpt lat="40.8251390" lon="-8.3003090">
        <ele>657.2</ele>
        <time>2022-08-14T09:26:34Z</time>
      </trkpt>
      <trkpt lat="40.8251420" lon="-8.3003350">
        <ele>657.4</ele>
        <time>2022-08-14T09:27:31Z</time>
      </trkpt>
      <trkpt lat="40.8251600" lon="-8.3003860">
        <ele>657.4</ele>
        <time>2022-08-14T09:27:33Z</time>
      </trkpt>
      <trkpt lat="40.8251790" lon="-8.3004080">
        <ele>657.4</ele>
        <time>2022-08-14T09:27:34Z</time>
      </trkpt>
      <trkpt lat="40.8252020" lon="-8.3004290">
        <ele>657.8</ele>
        <time>2022-08-14T09:27:35Z</time>
      </trkpt>
      <trkpt lat="40.8253530" lon="-8.3005460">
        <ele>658.8</ele>
        <time>2022-08-14T09:27:41Z</time>
      </trkpt>
      <trkpt lat="40.8253770" lon="-8.3005670">
        <ele>659.0</ele>
        <time>2022-08-14T09:27:42Z</time>
      </trkpt>
      <trkpt lat="40.8254970" lon="-8.3007260">
        <ele>660.0</ele>
        <time>2022-08-14T09:27:48Z</time>
      </trkpt>
      <trkpt lat="40.8255120" lon="-8.3007560">
        <ele>660.2</ele>
        <time>2022-08-14T09:27:49Z</time>
      </trkpt>
      <trkpt lat="40.8255760" lon="-8.3008730">
        <ele>661.4</ele>
        <time>2022-08-14T09:27:54Z</time>
      </trkpt>
      <trkpt lat="40.8255900" lon="-8.3008850">
        <ele>661.6</ele>
        <time>2022-08-14T09:27:55Z</time>
      </trkpt>
      <trkpt lat="40.8255970" lon="-8.3008990">
        <ele>661.8</ele>
        <time>2022-08-14T09:27:56Z</time>
      </trkpt>
      <trkpt lat="40.8255890" lon="-8.3009280">
        <ele>662.2</ele>
        <time>2022-08-14T09:27:58Z</time>
      </trkpt>
      <trkpt lat="40.8255760" lon="-8.3009260">
        <ele>662.2</ele>
        <time>2022-08-14T09:27:59Z</time>
      </trkpt>
      <trkpt lat="40.8255480" lon="-8.3008770">
        <ele>662.4</ele>
        <time>2022-08-14T09:28:01Z</time>
      </trkpt>
      <trkpt lat="40.8255240" lon="-8.3007950">
        <ele>662.6</ele>
        <time>2022-08-14T09:28:03Z</time>
      </trkpt>
      <trkpt lat="40.8254450" lon="-8.3006730">
        <ele>662.4</ele>
        <time>2022-08-14T09:28:06Z</time>
      </trkpt>
      <trkpt lat="40.8254110" lon="-8.3006430">
        <ele>662.4</ele>
        <time>2022-08-14T09:28:07Z</time>
      </trkpt>
      <trkpt lat="40.8252650" lon="-8.3005200">
        <ele>661.4</ele>
        <time>2022-08-14T09:28:12Z</time>
      </trkpt>
      <trkpt lat="40.8252390" lon="-8.3004970">
        <ele>661.2</ele>
        <time>2022-08-14T09:28:13Z</time>
      </trkpt>
      <trkpt lat="40.8251350" lon="-8.3003980">
        <ele>660.4</ele>
        <time>2022-08-14T09:28:17Z</time>
      </trkpt>
      <trkpt lat="40.8251220" lon="-8.3003640">
        <ele>660.0</ele>
        <time>2022-08-14T09:28:18Z</time>
      </trkpt>
      <trkpt lat="40.8251250" lon="-8.3003390">
        <ele>660.0</ele>
        <time>2022-08-14T09:28:19Z</time>
      </trkpt>
      <trkpt lat="40.8251970" lon="-8.3003490">
        <ele>659.4</ele>
        <time>2022-08-14T09:28:22Z</time>
      </trkpt>
      <trkpt lat="40.8252680" lon="-8.3003780">
        <ele>659.2</ele>
        <time>2022-08-14T09:28:24Z</time>
      </trkpt>
      <trkpt lat="40.8253030" lon="-8.3003920">
        <ele>659.0</ele>
        <time>2022-08-14T09:28:25Z</time>
      </trkpt>
      <trkpt lat="40.8253730" lon="-8.3004180">
        <ele>658.6</ele>
        <time>2022-08-14T09:28:27Z</time>
      </trkpt>
      <trkpt lat="40.8254830" lon="-8.3004750">
        <ele>657.8</ele>
        <time>2022-08-14T09:28:31Z</time>
      </trkpt>
      <trkpt lat="40.8256080" lon="-8.3005550">
        <ele>656.8</ele>
        <time>2022-08-14T09:28:35Z</time>
      </trkpt>
      <trkpt lat="40.8256400" lon="-8.3005740">
        <ele>656.6</ele>
        <time>2022-08-14T09:28:36Z</time>
      </trkpt>
      <trkpt lat="40.8257180" lon="-8.3006520">
        <ele>655.0</ele>
        <time>2022-08-14T09:28:39Z</time>
      </trkpt>
      <trkpt lat="40.8257360" lon="-8.3006920">
        <ele>654.6</ele>
        <time>2022-08-14T09:28:40Z</time>
      </trkpt>
      <trkpt lat="40.8257740" lon="-8.3009130">
        <ele>654.2</ele>
        <time>2022-08-14T09:28:45Z</time>
      </trkpt>
      <trkpt lat="40.8258380" lon="-8.3010820">
        <ele>654.0</ele>
        <time>2022-08-14T09:28:50Z</time>
      </trkpt>
      <trkpt lat="40.8259210" lon="-8.3011030">
        <ele>654.0</ele>
        <time>2022-08-14T09:28:53Z</time>
      </trkpt>
      <trkpt lat="40.8259480" lon="-8.3010910">
        <ele>654.0</ele>
        <time>2022-08-14T09:28:54Z</time>
      </trkpt>
      <trkpt lat="40.8260140" lon="-8.3009980">
        <ele>653.4</ele>
        <time>2022-08-14T09:28:58Z</time>
      </trkpt>
      <trkpt lat="40.8260920" lon="-8.3008970">
        <ele>653.0</ele>
        <time>2022-08-14T09:29:04Z</time>
      </trkpt>
      <trkpt lat="40.8261330" lon="-8.3008570">
        <ele>652.8</ele>
        <time>2022-08-14T09:29:06Z</time>
      </trkpt>
      <trkpt lat="40.8262190" lon="-8.3007420">
        <ele>652.8</ele>
        <time>2022-08-14T09:29:11Z</time>
      </trkpt>
      <trkpt lat="40.8262980" lon="-8.3006200">
        <ele>652.4</ele>
        <time>2022-08-14T09:29:16Z</time>
      </trkpt>
      <trkpt lat="40.8263080" lon="-8.3006070">
        <ele>652.4</ele>
        <time>2022-08-14T09:29:17Z</time>
      </trkpt>
      <trkpt lat="40.8263960" lon="-8.3005800">
        <ele>652.6</ele>
        <time>2022-08-14T09:29:21Z</time>
      </trkpt>
      <trkpt lat="40.8264180" lon="-8.3005800">
        <ele>652.6</ele>
        <time>2022-08-14T09:29:22Z</time>
      </trkpt>
      <trkpt lat="40.8265030" lon="-8.3005570">
        <ele>653.0</ele>
        <time>2022-08-14T09:29:26Z</time>
      </trkpt>
      <trkpt lat="40.8265690" lon="-8.3005260">
        <ele>653.8</ele>
        <time>2022-08-14T09:29:30Z</time>
      </trkpt>
      <trkpt lat="40.8265820" lon="-8.3005270">
        <ele>653.8</ele>
        <time>2022-08-14T09:29:31Z</time>
      </trkpt>
      <trkpt lat="40.8266000" lon="-8.3005210">
        <ele>653.8</ele>
        <time>2022-08-14T09:29:32Z</time>
      </trkpt>
      <trkpt lat="40.8266600" lon="-8.3005100">
        <ele>654.4</ele>
        <time>2022-08-14T09:29:36Z</time>
      </trkpt>
      <trkpt lat="40.8267020" lon="-8.3005110">
        <ele>654.8</ele>
        <time>2022-08-14T09:29:39Z</time>
      </trkpt>
      <trkpt lat="40.8267390" lon="-8.3005180">
        <ele>655.6</ele>
        <time>2022-08-14T09:29:43Z</time>
      </trkpt>
      <trkpt lat="40.8267570" lon="-8.3005180">
        <ele>656.0</ele>
        <time>2022-08-14T09:29:44Z</time>
      </trkpt>
      <trkpt lat="40.8267870" lon="-8.3005070">
        <ele>656.6</ele>
        <time>2022-08-14T09:29:46Z</time>
      </trkpt>
      <trkpt lat="40.8268140" lon="-8.3004840">
        <ele>657.2</ele>
        <time>2022-08-14T09:29:48Z</time>
      </trkpt>
      <trkpt lat="40.8268310" lon="-8.3004690">
        <ele>657.4</ele>
        <time>2022-08-14T09:29:49Z</time>
      </trkpt>
      <trkpt lat="40.8268880" lon="-8.3004080">
        <ele>658.4</ele>
        <time>2022-08-14T09:29:53Z</time>
      </trkpt>
      <trkpt lat="40.8269680" lon="-8.3003390">
        <ele>659.4</ele>
        <time>2022-08-14T09:29:59Z</time>
      </trkpt>
      <trkpt lat="40.8269800" lon="-8.3003270">
        <ele>659.8</ele>
        <time>2022-08-14T09:30:00Z</time>
      </trkpt>
      <trkpt lat="40.8270170" lon="-8.3002950">
        <ele>661.0</ele>
        <time>2022-08-14T09:30:03Z</time>
      </trkpt>
      <trkpt lat="40.8270580" lon="-8.3002690">
        <ele>661.6</ele>
        <time>2022-08-14T09:30:06Z</time>
      </trkpt>
      <trkpt lat="40.8270710" lon="-8.3002720">
        <ele>662.0</ele>
        <time>2022-08-14T09:30:07Z</time>
      </trkpt>
      <trkpt lat="40.8271180" lon="-8.3002930">
        <ele>662.8</ele>
        <time>2022-08-14T09:30:11Z</time>
      </trkpt>
      <trkpt lat="40.8271470" lon="-8.3002900">
        <ele>663.0</ele>
        <time>2022-08-14T09:30:13Z</time>
      </trkpt>
      <trkpt lat="40.8272230" lon="-8.3002500">
        <ele>663.8</ele>
        <time>2022-08-14T09:30:18Z</time>
      </trkpt>
      <trkpt lat="40.8272520" lon="-8.3002200">
        <ele>664.2</ele>
        <time>2022-08-14T09:30:20Z</time>
      </trkpt>
      <trkpt lat="40.8273270" lon="-8.3001890">
        <ele>665.2</ele>
        <time>2022-08-14T09:30:24Z</time>
      </trkpt>
      <trkpt lat="40.8273660" lon="-8.3001790">
        <ele>665.4</ele>
        <time>2022-08-14T09:30:26Z</time>
      </trkpt>
      <trkpt lat="40.8274600" lon="-8.3001480">
        <ele>666.2</ele>
        <time>2022-08-14T09:30:31Z</time>
      </trkpt>
      <trkpt lat="40.8275320" lon="-8.3001100">
        <ele>666.6</ele>
        <time>2022-08-14T09:30:35Z</time>
      </trkpt>
      <trkpt lat="40.8276200" lon="-8.3000320">
        <ele>667.2</ele>
        <time>2022-08-14T09:30:40Z</time>
      </trkpt>
      <trkpt lat="40.8277080" lon="-8.2999630">
        <ele>668.0</ele>
        <time>2022-08-14T09:30:45Z</time>
      </trkpt>
      <trkpt lat="40.8277500" lon="-8.2999430">
        <ele>668.4</ele>
        <time>2022-08-14T09:30:47Z</time>
      </trkpt>
      <trkpt lat="40.8278780" lon="-8.2998580">
        <ele>669.2</ele>
        <time>2022-08-14T09:30:54Z</time>
      </trkpt>
      <trkpt lat="40.8279170" lon="-8.2998280">
        <ele>669.4</ele>
        <time>2022-08-14T09:30:56Z</time>
      </trkpt>
      <trkpt lat="40.8280190" lon="-8.2997670">
        <ele>670.4</ele>
        <time>2022-08-14T09:31:02Z</time>
      </trkpt>
      <trkpt lat="40.8280560" lon="-8.2997440">
        <ele>670.4</ele>
        <time>2022-08-14T09:31:04Z</time>
      </trkpt>
      <trkpt lat="40.8281680" lon="-8.2996870">
        <ele>671.4</ele>
        <time>2022-08-14T09:31:10Z</time>
      </trkpt>
      <trkpt lat="40.8281840" lon="-8.2996770">
        <ele>671.6</ele>
        <time>2022-08-14T09:31:11Z</time>
      </trkpt>
      <trkpt lat="40.8282650" lon="-8.2996020">
        <ele>672.8</ele>
        <time>2022-08-14T09:31:16Z</time>
      </trkpt>
      <trkpt lat="40.8282800" lon="-8.2995920">
        <ele>673.2</ele>
        <time>2022-08-14T09:31:17Z</time>
      </trkpt>
      <trkpt lat="40.8283520" lon="-8.2995630">
        <ele>674.0</ele>
        <time>2022-08-14T09:31:21Z</time>
      </trkpt>
      <trkpt lat="40.8284520" lon="-8.2995400">
        <ele>675.0</ele>
        <time>2022-08-14T09:31:27Z</time>
      </trkpt>
      <trkpt lat="40.8284700" lon="-8.2995380">
        <ele>675.0</ele>
        <time>2022-08-14T09:31:28Z</time>
      </trkpt>
      <trkpt lat="40.8286010" lon="-8.2995330">
        <ele>676.0</ele>
        <time>2022-08-14T09:31:35Z</time>
      </trkpt>
      <trkpt lat="40.8286380" lon="-8.2995400">
        <ele>676.2</ele>
        <time>2022-08-14T09:31:37Z</time>
      </trkpt>
      <trkpt lat="40.8286480" lon="-8.2995530">
        <ele>676.4</ele>
        <time>2022-08-14T09:31:38Z</time>
      </trkpt>
      <trkpt lat="40.8286590" lon="-8.2995790">
        <ele>676.8</ele>
        <time>2022-08-14T09:31:40Z</time>
      </trkpt>
      <trkpt lat="40.8286920" lon="-8.2995800">
        <ele>677.0</ele>
        <time>2022-08-14T09:31:43Z</time>
      </trkpt>
      <trkpt lat="40.8287040" lon="-8.2995830">
        <ele>677.2</ele>
        <time>2022-08-14T09:31:44Z</time>
      </trkpt>
      <trkpt lat="40.8287910" lon="-8.2996740">
        <ele>677.6</ele>
        <time>2022-08-14T09:31:50Z</time>
      </trkpt>
      <trkpt lat="40.8289080" lon="-8.2998000">
        <ele>678.2</ele>
        <time>2022-08-14T09:31:57Z</time>
      </trkpt>
      <trkpt lat="40.8290190" lon="-8.2999540">
        <ele>678.6</ele>
        <time>2022-08-14T09:32:04Z</time>
      </trkpt>
      <trkpt lat="40.8290870" lon="-8.3000600">
        <ele>679.4</ele>
        <time>2022-08-14T09:32:09Z</time>
      </trkpt>
      <trkpt lat="40.8291400" lon="-8.3001390">
        <ele>679.8</ele>
        <time>2022-08-14T09:32:13Z</time>
      </trkpt>
      <trkpt lat="40.8292070" lon="-8.3001750">
        <ele>680.4</ele>
        <time>2022-08-14T09:32:17Z</time>
      </trkpt>
      <trkpt lat="40.8292210" lon="-8.3001920">
        <ele>680.4</ele>
        <time>2022-08-14T09:32:18Z</time>
      </trkpt>
      <trkpt lat="40.8292770" lon="-8.3003120">
        <ele>681.0</ele>
        <time>2022-08-14T09:32:24Z</time>
      </trkpt>
      <trkpt lat="40.8293220" lon="-8.3003580">
        <ele>681.2</ele>
        <time>2022-08-14T09:32:29Z</time>
      </trkpt>
      <trkpt lat="40.8293280" lon="-8.3003760">
        <ele>681.4</ele>
        <time>2022-08-14T09:32:31Z</time>
      </trkpt>
      <trkpt lat="40.8293230" lon="-8.3003890">
        <ele>681.4</ele>
        <time>2022-08-14T09:32:32Z</time>
      </trkpt>
      <trkpt lat="40.8293020" lon="-8.3003740">
        <ele>681.4</ele>
        <time>2022-08-14T09:32:34Z</time>
      </trkpt>
      <trkpt lat="40.8293180" lon="-8.3002520">
        <ele>681.2</ele>
        <time>2022-08-14T09:32:38Z</time>
      </trkpt>
      <trkpt lat="40.8294000" lon="-8.3000890">
        <ele>680.6</ele>
        <time>2022-08-14T09:32:42Z</time>
      </trkpt>
      <trkpt lat="40.8294380" lon="-8.3000520">
        <ele>680.6</ele>
        <time>2022-08-14T09:32:43Z</time>
      </trkpt>
      <trkpt lat="40.8294830" lon="-8.3000150">
        <ele>680.2</ele>
        <time>2022-08-14T09:32:44Z</time>
      </trkpt>
      <trkpt lat="40.8296990" lon="-8.2998610">
        <ele>679.2</ele>
        <time>2022-08-14T09:32:48Z</time>
      </trkpt>
      <trkpt lat="40.8299430" lon="-8.2996630">
        <ele>678.2</ele>
        <time>2022-08-14T09:32:52Z</time>
      </trkpt>
      <trkpt lat="40.8300730" lon="-8.2995520">
        <ele>677.4</ele>
        <time>2022-08-14T09:32:54Z</time>
      </trkpt>
      <trkpt lat="40.8301380" lon="-8.2994970">
        <ele>676.8</ele>
        <time>2022-08-14T09:32:55Z</time>
      </trkpt>
      <trkpt lat="40.8304370" lon="-8.2991960">
        <ele>675.6</ele>
        <time>2022-08-14T09:33:00Z</time>
      </trkpt>
      <trkpt lat="40.8306650" lon="-8.2989540">
        <ele>674.4</ele>
        <time>2022-08-14T09:33:04Z</time>
      </trkpt>
      <trkpt lat="40.8308160" lon="-8.2987770">
        <ele>673.6</ele>
        <time>2022-08-14T09:33:07Z</time>
      </trkpt>
      <trkpt lat="40.8308770" lon="-8.2986470">
        <ele>673.0</ele>
        <time>2022-08-14T09:33:09Z</time>
      </trkpt>
      <trkpt lat="40.8309020" lon="-8.2985210">
        <ele>672.4</ele>
        <time>2022-08-14T09:33:11Z</time>
      </trkpt>
      <trkpt lat="40.8309160" lon="-8.2984540">
        <ele>671.8</ele>
        <time>2022-08-14T09:33:13Z</time>
      </trkpt>
      <trkpt lat="40.8309300" lon="-8.2984510">
        <ele>671.6</ele>
        <time>2022-08-14T09:33:14Z</time>
      </trkpt>
      <trkpt lat="40.8309410" lon="-8.2984880">
        <ele>671.2</ele>
        <time>2022-08-14T09:33:17Z</time>
      </trkpt>
      <trkpt lat="40.8309110" lon="-8.2985550">
        <ele>670.8</ele>
        <time>2022-08-14T09:33:21Z</time>
      </trkpt>
      <trkpt lat="40.8309010" lon="-8.2985760">
        <ele>670.8</ele>
        <time>2022-08-14T09:33:22Z</time>
      </trkpt>
      <trkpt lat="40.8309050" lon="-8.2985960">
        <ele>670.8</ele>
        <time>2022-08-14T09:33:23Z</time>
      </trkpt>
      <trkpt lat="40.8309070" lon="-8.2986940">
        <ele>671.0</ele>
        <time>2022-08-14T09:33:27Z</time>
      </trkpt>
      <trkpt lat="40.8308860" lon="-8.2987440">
        <ele>671.0</ele>
        <time>2022-08-14T09:33:29Z</time>
      </trkpt>
      <trkpt lat="40.8308790" lon="-8.2987670">
        <ele>671.0</ele>
        <time>2022-08-14T09:33:30Z</time>
      </trkpt>
      <trkpt lat="40.8308830" lon="-8.2988140">
        <ele>671.2</ele>
        <time>2022-08-14T09:33:32Z</time>
      </trkpt>
      <trkpt lat="40.8308960" lon="-8.2988280">
        <ele>671.2</ele>
        <time>2022-08-14T09:33:33Z</time>
      </trkpt>
      <trkpt lat="40.8309240" lon="-8.2988240">
        <ele>671.2</ele>
        <time>2022-08-14T09:33:35Z</time>
      </trkpt>
      <trkpt lat="40.8309760" lon="-8.2987800">
        <ele>671.4</ele>
        <time>2022-08-14T09:33:38Z</time>
      </trkpt>
      <trkpt lat="40.8310580" lon="-8.2986740">
        <ele>672.0</ele>
        <time>2022-08-14T09:33:44Z</time>
      </trkpt>
      <trkpt lat="40.8310960" lon="-8.2985830">
        <ele>672.4</ele>
        <time>2022-08-14T09:33:48Z</time>
      </trkpt>
      <trkpt lat="40.8311600" lon="-8.2984730">
        <ele>673.2</ele>
        <time>2022-08-14T09:33:53Z</time>
      </trkpt>
      <trkpt lat="40.8311730" lon="-8.2984570">
        <ele>673.2</ele>
        <time>2022-08-14T09:33:54Z</time>
      </trkpt>
      <trkpt lat="40.8311800" lon="-8.2984440">
        <ele>673.4</ele>
        <time>2022-08-14T09:33:55Z</time>
      </trkpt>
      <trkpt lat="40.8312220" lon="-8.2983990">
        <ele>674.2</ele>
        <time>2022-08-14T09:33:58Z</time>
      </trkpt>
      <trkpt lat="40.8312460" lon="-8.2983740">
        <ele>674.6</ele>
        <time>2022-08-14T09:34:00Z</time>
      </trkpt>
      <trkpt lat="40.8312620" lon="-8.2983550">
        <ele>675.0</ele>
        <time>2022-08-14T09:34:02Z</time>
      </trkpt>
      <trkpt lat="40.8312730" lon="-8.2983440">
        <ele>675.4</ele>
        <time>2022-08-14T09:34:03Z</time>
      </trkpt>
      <trkpt lat="40.8313270" lon="-8.2982960">
        <ele>676.6</ele>
        <time>2022-08-14T09:34:08Z</time>
      </trkpt>
      <trkpt lat="40.8313380" lon="-8.2982830">
        <ele>676.8</ele>
        <time>2022-08-14T09:34:09Z</time>
      </trkpt>
      <trkpt lat="40.8313840" lon="-8.2982310">
        <ele>677.6</ele>
        <time>2022-08-14T09:34:13Z</time>
      </trkpt>
      <trkpt lat="40.8313930" lon="-8.2982200">
        <ele>678.0</ele>
        <time>2022-08-14T09:34:14Z</time>
      </trkpt>
      <trkpt lat="40.8314080" lon="-8.2981870">
        <ele>678.4</ele>
        <time>2022-08-14T09:34:17Z</time>
      </trkpt>
      <trkpt lat="40.8314230" lon="-8.2981560">
        <ele>678.6</ele>
        <time>2022-08-14T09:34:19Z</time>
      </trkpt>
      <trkpt lat="40.8314270" lon="-8.2981400">
        <ele>678.6</ele>
        <time>2022-08-14T09:34:20Z</time>
      </trkpt>
      <trkpt lat="40.8314490" lon="-8.2981160">
        <ele>679.4</ele>
        <time>2022-08-14T09:34:22Z</time>
      </trkpt>
      <trkpt lat="40.8314640" lon="-8.2981020">
        <ele>679.6</ele>
        <time>2022-08-14T09:34:23Z</time>
      </trkpt>
      <trkpt lat="40.8315270" lon="-8.2980630">
        <ele>680.8</ele>
        <time>2022-08-14T09:34:27Z</time>
      </trkpt>
      <trkpt lat="40.8315600" lon="-8.2979820">
        <ele>681.2</ele>
        <time>2022-08-14T09:34:31Z</time>
      </trkpt>
      <trkpt lat="40.8315640" lon="-8.2979740">
        <ele>681.4</ele>
        <time>2022-08-14T09:34:32Z</time>
      </trkpt>
      <trkpt lat="40.8315880" lon="-8.2979440">
        <ele>682.0</ele>
        <time>2022-08-14T09:34:35Z</time>
      </trkpt>
      <trkpt lat="40.8315930" lon="-8.2979090">
        <ele>682.2</ele>
        <time>2022-08-14T09:34:38Z</time>
      </trkpt>
      <trkpt lat="40.8317070" lon="-8.2978330">
        <ele>682.6</ele>
        <time>2022-08-14T09:34:44Z</time>
      </trkpt>
      <trkpt lat="40.8317240" lon="-8.2978250">
        <ele>682.6</ele>
        <time>2022-08-14T09:34:45Z</time>
      </trkpt>
      <trkpt lat="40.8317510" lon="-8.2978160">
        <ele>683.0</ele>
        <time>2022-08-14T09:34:48Z</time>
      </trkpt>
      <trkpt lat="40.8317590" lon="-8.2978040">
        <ele>683.2</ele>
        <time>2022-08-14T09:34:49Z</time>
      </trkpt>
      <trkpt lat="40.8318110" lon="-8.2977850">
        <ele>684.0</ele>
        <time>2022-08-14T09:34:52Z</time>
      </trkpt>
      <trkpt lat="40.8318170" lon="-8.2977850">
        <ele>684.0</ele>
        <time>2022-08-14T09:34:53Z</time>
      </trkpt>
      <trkpt lat="40.8318660" lon="-8.2977610">
        <ele>684.8</ele>
        <time>2022-08-14T09:34:58Z</time>
      </trkpt>
      <trkpt lat="40.8318860" lon="-8.2977360">
        <ele>684.8</ele>
        <time>2022-08-14T09:35:00Z</time>
      </trkpt>
      <trkpt lat="40.8319600" lon="-8.2977190">
        <ele>685.4</ele>
        <time>2022-08-14T09:35:06Z</time>
      </trkpt>
      <trkpt lat="40.8320210" lon="-8.2977020">
        <ele>685.8</ele>
        <time>2022-08-14T09:35:10Z</time>
      </trkpt>
      <trkpt lat="40.8321420" lon="-8.2976700">
        <ele>686.6</ele>
        <time>2022-08-14T09:35:17Z</time>
      </trkpt>
      <trkpt lat="40.8321680" lon="-8.2976590">
        <ele>687.2</ele>
        <time>2022-08-14T09:35:19Z</time>
      </trkpt>
      <trkpt lat="40.8322280" lon="-8.2976280">
        <ele>687.8</ele>
        <time>2022-08-14T09:35:23Z</time>
      </trkpt>
      <trkpt lat="40.8322440" lon="-8.2976190">
        <ele>688.2</ele>
        <time>2022-08-14T09:35:24Z</time>
      </trkpt>
      <trkpt lat="40.8322670" lon="-8.2976120">
        <ele>688.2</ele>
        <time>2022-08-14T09:35:25Z</time>
      </trkpt>
      <trkpt lat="40.8323760" lon="-8.2975920">
        <ele>689.0</ele>
        <time>2022-08-14T09:35:30Z</time>
      </trkpt>
      <trkpt lat="40.8324510" lon="-8.2975830">
        <ele>689.4</ele>
        <time>2022-08-14T09:35:33Z</time>
      </trkpt>
      <trkpt lat="40.8325330" lon="-8.2975650">
        <ele>690.0</ele>
        <time>2022-08-14T09:35:39Z</time>
      </trkpt>
      <trkpt lat="40.8325570" lon="-8.2975610">
        <ele>690.4</ele>
        <time>2022-08-14T09:35:41Z</time>
      </trkpt>
      <trkpt lat="40.8326060" lon="-8.2975670">
        <ele>691.0</ele>
        <time>2022-08-14T09:35:45Z</time>
      </trkpt>
      <trkpt lat="40.8326350" lon="-8.2975750">
        <ele>691.6</ele>
        <time>2022-08-14T09:35:47Z</time>
      </trkpt>
      <trkpt lat="40.8326950" lon="-8.2976230">
        <ele>691.8</ele>
        <time>2022-08-14T09:35:51Z</time>
      </trkpt>
      <trkpt lat="40.8327050" lon="-8.2976380">
        <ele>692.0</ele>
        <time>2022-08-14T09:35:52Z</time>
      </trkpt>
      <trkpt lat="40.8327510" lon="-8.2977140">
        <ele>692.6</ele>
        <time>2022-08-14T09:35:57Z</time>
      </trkpt>
      <trkpt lat="40.8327810" lon="-8.2977630">
        <ele>693.2</ele>
        <time>2022-08-14T09:36:00Z</time>
      </trkpt>
      <trkpt lat="40.8328170" lon="-8.2978420">
        <ele>693.6</ele>
        <time>2022-08-14T09:36:05Z</time>
      </trkpt>
      <trkpt lat="40.8328400" lon="-8.2978640">
        <ele>694.2</ele>
        <time>2022-08-14T09:36:08Z</time>
      </trkpt>
      <trkpt lat="40.8328560" lon="-8.2978890">
        <ele>694.6</ele>
        <time>2022-08-14T09:36:10Z</time>
      </trkpt>
      <trkpt lat="40.8328650" lon="-8.2979070">
        <ele>694.6</ele>
        <time>2022-08-14T09:36:11Z</time>
      </trkpt>
      <trkpt lat="40.8329120" lon="-8.2979400">
        <ele>695.0</ele>
        <time>2022-08-14T09:36:15Z</time>
      </trkpt>
      <trkpt lat="40.8329480" lon="-8.2979360">
        <ele>695.6</ele>
        <time>2022-08-14T09:36:18Z</time>
      </trkpt>
      <trkpt lat="40.8329570" lon="-8.2979320">
        <ele>696.0</ele>
        <time>2022-08-14T09:36:19Z</time>
      </trkpt>
      <trkpt lat="40.8329670" lon="-8.2979250">
        <ele>696.6</ele>
        <time>2022-08-14T09:36:20Z</time>
      </trkpt>
      <trkpt lat="40.8329800" lon="-8.2979150">
        <ele>697.4</ele>
        <time>2022-08-14T09:36:22Z</time>
      </trkpt>
      <trkpt lat="40.8329960" lon="-8.2979050">
        <ele>697.8</ele>
        <time>2022-08-14T09:36:23Z</time>
      </trkpt>
      <trkpt lat="40.8330570" lon="-8.2978620">
        <ele>698.8</ele>
        <time>2022-08-14T09:36:27Z</time>
      </trkpt>
      <trkpt lat="40.8330840" lon="-8.2978310">
        <ele>699.6</ele>
        <time>2022-08-14T09:36:30Z</time>
      </trkpt>
      <trkpt lat="40.8331130" lon="-8.2978150">
        <ele>700.0</ele>
        <time>2022-08-14T09:36:32Z</time>
      </trkpt>
      <trkpt lat="40.8331410" lon="-8.2977880">
        <ele>701.0</ele>
        <time>2022-08-14T09:36:35Z</time>
      </trkpt>
      <trkpt lat="40.8332100" lon="-8.2977390">
        <ele>702.0</ele>
        <time>2022-08-14T09:36:40Z</time>
      </trkpt>
      <trkpt lat="40.8332320" lon="-8.2977010">
        <ele>702.6</ele>
        <time>2022-08-14T09:36:43Z</time>
      </trkpt>
      <trkpt lat="40.8332840" lon="-8.2976570">
        <ele>703.0</ele>
        <time>2022-08-14T09:36:46Z</time>
      </trkpt>
      <trkpt lat="40.8333560" lon="-8.2976210">
        <ele>703.8</ele>
        <time>2022-08-14T09:36:51Z</time>
      </trkpt>
      <trkpt lat="40.8333810" lon="-8.2976150">
        <ele>704.2</ele>
        <time>2022-08-14T09:36:52Z</time>
      </trkpt>
      <trkpt lat="40.8333920" lon="-8.2975980">
        <ele>705.2</ele>
        <time>2022-08-14T09:36:55Z</time>
      </trkpt>
      <trkpt lat="40.8334400" lon="-8.2975780">
        <ele>706.2</ele>
        <time>2022-08-14T09:36:59Z</time>
      </trkpt>
      <trkpt lat="40.8334620" lon="-8.2975680">
        <ele>706.4</ele>
        <time>2022-08-14T09:37:01Z</time>
      </trkpt>
      <trkpt lat="40.8334970" lon="-8.2975610">
        <ele>706.6</ele>
        <time>2022-08-14T09:37:04Z</time>
      </trkpt>
      <trkpt lat="40.8335180" lon="-8.2975600">
        <ele>706.8</ele>
        <time>2022-08-14T09:37:06Z</time>
      </trkpt>
      <trkpt lat="40.8335370" lon="-8.2975590">
        <ele>707.4</ele>
        <time>2022-08-14T09:37:08Z</time>
      </trkpt>
      <trkpt lat="40.8335740" lon="-8.2975450">
        <ele>708.6</ele>
        <time>2022-08-14T09:37:11Z</time>
      </trkpt>
      <trkpt lat="40.8335960" lon="-8.2975360">
        <ele>708.8</ele>
        <time>2022-08-14T09:37:13Z</time>
      </trkpt>
      <trkpt lat="40.8336150" lon="-8.2975290">
        <ele>708.8</ele>
        <time>2022-08-14T09:37:14Z</time>
      </trkpt>
      <trkpt lat="40.8336740" lon="-8.2975070">
        <ele>709.2</ele>
        <time>2022-08-14T09:37:17Z</time>
      </trkpt>
      <trkpt lat="40.8337040" lon="-8.2974960">
        <ele>709.6</ele>
        <time>2022-08-14T09:37:20Z</time>
      </trkpt>
      <trkpt lat="40.8337410" lon="-8.2974860">
        <ele>710.0</ele>
        <time>2022-08-14T09:37:22Z</time>
      </trkpt>
      <trkpt lat="40.8337970" lon="-8.2974640">
        <ele>710.6</ele>
        <time>2022-08-14T09:37:26Z</time>
      </trkpt>
      <trkpt lat="40.8338440" lon="-8.2974520">
        <ele>710.8</ele>
        <time>2022-08-14T09:37:29Z</time>
      </trkpt>
      <trkpt lat="40.8339210" lon="-8.2974160">
        <ele>711.2</ele>
        <time>2022-08-14T09:37:34Z</time>
      </trkpt>
      <trkpt lat="40.8339540" lon="-8.2973980">
        <ele>711.6</ele>
        <time>2022-08-14T09:37:36Z</time>
      </trkpt>
      <trkpt lat="40.8340900" lon="-8.2973630">
        <ele>712.2</ele>
        <time>2022-08-14T09:37:44Z</time>
      </trkpt>
      <trkpt lat="40.8341140" lon="-8.2973590">
        <ele>712.4</ele>
        <time>2022-08-14T09:37:46Z</time>
      </trkpt>
      <trkpt lat="40.8341740" lon="-8.2973410">
        <ele>712.6</ele>
        <time>2022-08-14T09:37:49Z</time>
      </trkpt>
      <trkpt lat="40.8342510" lon="-8.2972280">
        <ele>713.6</ele>
        <time>2022-08-14T09:37:57Z</time>
      </trkpt>
      <trkpt lat="40.8342400" lon="-8.2971490">
        <ele>714.6</ele>
        <time>2022-08-14T09:38:02Z</time>
      </trkpt>
      <trkpt lat="40.8342090" lon="-8.2971260">
        <ele>715.2</ele>
        <time>2022-08-14T09:38:05Z</time>
      </trkpt>
      <trkpt lat="40.8341830" lon="-8.2971080">
        <ele>715.8</ele>
        <time>2022-08-14T09:38:07Z</time>
      </trkpt>
      <trkpt lat="40.8341310" lon="-8.2970590">
        <ele>716.6</ele>
        <time>2022-08-14T09:38:12Z</time>
      </trkpt>
      <trkpt lat="40.8341230" lon="-8.2970430">
        <ele>716.8</ele>
        <time>2022-08-14T09:38:13Z</time>
      </trkpt>
      <trkpt lat="40.8340700" lon="-8.2969800">
        <ele>717.8</ele>
        <time>2022-08-14T09:38:18Z</time>
      </trkpt>
      <trkpt lat="40.8340610" lon="-8.2969690">
        <ele>718.0</ele>
        <time>2022-08-14T09:38:19Z</time>
      </trkpt>
      <trkpt lat="40.8340340" lon="-8.2968670">
        <ele>719.2</ele>
        <time>2022-08-14T09:38:25Z</time>
      </trkpt>
      <trkpt lat="40.8340380" lon="-8.2968500">
        <ele>719.4</ele>
        <time>2022-08-14T09:38:26Z</time>
      </trkpt>
      <trkpt lat="40.8340520" lon="-8.2968290">
        <ele>720.0</ele>
        <time>2022-08-14T09:38:28Z</time>
      </trkpt>
      <trkpt lat="40.8340730" lon="-8.2968210">
        <ele>720.4</ele>
        <time>2022-08-14T09:38:30Z</time>
      </trkpt>
      <trkpt lat="40.8340970" lon="-8.2968150">
        <ele>720.8</ele>
        <time>2022-08-14T09:38:32Z</time>
      </trkpt>
      <trkpt lat="40.8341400" lon="-8.2968040">
        <ele>721.6</ele>
        <time>2022-08-14T09:38:35Z</time>
      </trkpt>
      <trkpt lat="40.8341780" lon="-8.2967760">
        <ele>722.4</ele>
        <time>2022-08-14T09:38:39Z</time>
      </trkpt>
      <trkpt lat="40.8341830" lon="-8.2967740">
        <ele>722.6</ele>
        <time>2022-08-14T09:38:40Z</time>
      </trkpt>
      <trkpt lat="40.8342180" lon="-8.2967600">
        <ele>724.0</ele>
        <time>2022-08-14T09:38:44Z</time>
      </trkpt>
      <trkpt lat="40.8342780" lon="-8.2967370">
        <ele>724.6</ele>
        <time>2022-08-14T09:38:48Z</time>
      </trkpt>
      <trkpt lat="40.8343390" lon="-8.2967000">
        <ele>724.6</ele>
        <time>2022-08-14T09:38:52Z</time>
      </trkpt>
      <trkpt lat="40.8343760" lon="-8.2966990">
        <ele>724.8</ele>
        <time>2022-08-14T09:38:54Z</time>
      </trkpt>
      <trkpt lat="40.8344120" lon="-8.2966620">
        <ele>725.0</ele>
        <time>2022-08-14T09:38:57Z</time>
      </trkpt>
      <trkpt lat="40.8344820" lon="-8.2966090">
        <ele>725.8</ele>
        <time>2022-08-14T09:39:02Z</time>
      </trkpt>
      <trkpt lat="40.8345080" lon="-8.2965860">
        <ele>726.0</ele>
        <time>2022-08-14T09:39:04Z</time>
      </trkpt>
      <trkpt lat="40.8345520" lon="-8.2965440">
        <ele>727.2</ele>
        <time>2022-08-14T09:39:10Z</time>
      </trkpt>
      <trkpt lat="40.8345600" lon="-8.2965350">
        <ele>727.2</ele>
        <time>2022-08-14T09:39:11Z</time>
      </trkpt>
      <trkpt lat="40.8345930" lon="-8.2965100">
        <ele>728.4</ele>
        <time>2022-08-14T09:39:15Z</time>
      </trkpt>
      <trkpt lat="40.8345990" lon="-8.2964990">
        <ele>729.0</ele>
        <time>2022-08-14T09:39:17Z</time>
      </trkpt>
      <trkpt lat="40.8346190" lon="-8.2964780">
        <ele>729.6</ele>
        <time>2022-08-14T09:39:19Z</time>
      </trkpt>
      <trkpt lat="40.8346550" lon="-8.2964530">
        <ele>730.4</ele>
        <time>2022-08-14T09:39:23Z</time>
      </trkpt>
      <trkpt lat="40.8346700" lon="-8.2964460">
        <ele>731.2</ele>
        <time>2022-08-14T09:39:24Z</time>
      </trkpt>
      <trkpt lat="40.8347130" lon="-8.2964310">
        <ele>731.8</ele>
        <time>2022-08-14T09:39:26Z</time>
      </trkpt>
      <trkpt lat="40.8347320" lon="-8.2964220">
        <ele>732.0</ele>
        <time>2022-08-14T09:39:27Z</time>
      </trkpt>
      <trkpt lat="40.8347660" lon="-8.2964180">
        <ele>732.4</ele>
        <time>2022-08-14T09:39:29Z</time>
      </trkpt>
      <trkpt lat="40.8348370" lon="-8.2964260">
        <ele>733.4</ele>
        <time>2022-08-14T09:39:33Z</time>
      </trkpt>
      <trkpt lat="40.8348510" lon="-8.2964360">
        <ele>733.6</ele>
        <time>2022-08-14T09:39:34Z</time>
      </trkpt>
      <trkpt lat="40.8348880" lon="-8.2964640">
        <ele>734.6</ele>
        <time>2022-08-14T09:39:37Z</time>
      </trkpt>
      <trkpt lat="40.8348980" lon="-8.2964690">
        <ele>735.2</ele>
        <time>2022-08-14T09:39:38Z</time>
      </trkpt>
      <trkpt lat="40.8349170" lon="-8.2964850">
        <ele>735.8</ele>
        <time>2022-08-14T09:39:40Z</time>
      </trkpt>
      <trkpt lat="40.8349550" lon="-8.2965130">
        <ele>736.8</ele>
        <time>2022-08-14T09:39:44Z</time>
      </trkpt>
      <trkpt lat="40.8349750" lon="-8.2965190">
        <ele>737.0</ele>
        <time>2022-08-14T09:39:46Z</time>
      </trkpt>
      <trkpt lat="40.8349790" lon="-8.2965180">
        <ele>737.4</ele>
        <time>2022-08-14T09:39:47Z</time>
      </trkpt>
      <trkpt lat="40.8349790" lon="-8.2965180">
        <ele>737.8</ele>
        <time>2022-08-14T09:39:49Z</time>
      </trkpt>
      <trkpt lat="40.8350590" lon="-8.2966040">
        <ele>739.6</ele>
        <time>2022-08-14T09:40:23Z</time>
      </trkpt>
      <trkpt lat="40.8350650" lon="-8.2966010">
        <ele>739.8</ele>
        <time>2022-08-14T09:40:25Z</time>
      </trkpt>
      <trkpt lat="40.8350650" lon="-8.2966010">
        <ele>739.8</ele>
        <time>2022-08-14T09:40:26Z</time>
      </trkpt>
      <trkpt lat="40.8350870" lon="-8.2965880">
        <ele>739.6</ele>
        <time>2022-08-14T09:40:49Z</time>
      </trkpt>
      <trkpt lat="40.8351320" lon="-8.2965660">
        <ele>739.6</ele>
        <time>2022-08-14T09:40:51Z</time>
      </trkpt>
      <trkpt lat="40.8352600" lon="-8.2964930">
        <ele>740.0</ele>
        <time>2022-08-14T09:40:57Z</time>
      </trkpt>
      <trkpt lat="40.8353120" lon="-8.2964650">
        <ele>740.4</ele>
        <time>2022-08-14T09:41:00Z</time>
      </trkpt>
      <trkpt lat="40.8353270" lon="-8.2964480">
        <ele>740.6</ele>
        <time>2022-08-14T09:41:02Z</time>
      </trkpt>
      <trkpt lat="40.8354000" lon="-8.2964420">
        <ele>741.0</ele>
        <time>2022-08-14T09:41:09Z</time>
      </trkpt>
      <trkpt lat="40.8354620" lon="-8.2964300">
        <ele>741.6</ele>
        <time>2022-08-14T09:41:13Z</time>
      </trkpt>
      <trkpt lat="40.8355050" lon="-8.2964380">
        <ele>742.0</ele>
        <time>2022-08-14T09:41:16Z</time>
      </trkpt>
      <trkpt lat="40.8356690" lon="-8.2964630">
        <ele>742.0</ele>
        <time>2022-08-14T09:41:26Z</time>
      </trkpt>
      <trkpt lat="40.8357750" lon="-8.2963880">
        <ele>742.4</ele>
        <time>2022-08-14T09:41:33Z</time>
      </trkpt>
      <trkpt lat="40.8358140" lon="-8.2963400">
        <ele>742.6</ele>
        <time>2022-08-14T09:41:37Z</time>
      </trkpt>
      <trkpt lat="40.8358550" lon="-8.2962930">
        <ele>743.2</ele>
        <time>2022-08-14T09:41:41Z</time>
      </trkpt>
      <trkpt lat="40.8359110" lon="-8.2962180">
        <ele>743.8</ele>
        <time>2022-08-14T09:41:48Z</time>
      </trkpt>
      <trkpt lat="40.8359740" lon="-8.2960920">
        <ele>744.2</ele>
        <time>2022-08-14T09:41:56Z</time>
      </trkpt>
      <trkpt lat="40.8360280" lon="-8.2960240">
        <ele>744.8</ele>
        <time>2022-08-14T09:42:02Z</time>
      </trkpt>
      <trkpt lat="40.8360380" lon="-8.2960180">
        <ele>745.2</ele>
        <time>2022-08-14T09:42:03Z</time>
      </trkpt>
      <trkpt lat="40.8360710" lon="-8.2960000">
        <ele>745.6</ele>
        <time>2022-08-14T09:42:09Z</time>
      </trkpt>
      <trkpt lat="40.8361440" lon="-8.2959940">
        <ele>745.6</ele>
        <time>2022-08-14T09:42:25Z</time>
      </trkpt>
      <trkpt lat="40.8361850" lon="-8.2959880">
        <ele>745.8</ele>
        <time>2022-08-14T09:42:28Z</time>
      </trkpt>
      <trkpt lat="40.8362800" lon="-8.2959960">
        <ele>746.8</ele>
        <time>2022-08-14T09:42:36Z</time>
      </trkpt>
      <trkpt lat="40.8362920" lon="-8.2960000">
        <ele>746.8</ele>
        <time>2022-08-14T09:42:37Z</time>
      </trkpt>
      <trkpt lat="40.8363030" lon="-8.2960030">
        <ele>746.8</ele>
        <time>2022-08-14T09:42:38Z</time>
      </trkpt>
      <trkpt lat="40.8363800" lon="-8.2959900">
        <ele>747.4</ele>
        <time>2022-08-14T09:42:44Z</time>
      </trkpt>
      <trkpt lat="40.8364120" lon="-8.2959770">
        <ele>747.8</ele>
        <time>2022-08-14T09:42:47Z</time>
      </trkpt>
      <trkpt lat="40.8364350" lon="-8.2959700">
        <ele>748.0</ele>
        <time>2022-08-14T09:42:49Z</time>
      </trkpt>
      <trkpt lat="40.8364780" lon="-8.2959490">
        <ele>748.2</ele>
        <time>2022-08-14T09:42:52Z</time>
      </trkpt>
      <trkpt lat="40.8365410" lon="-8.2959060">
        <ele>748.8</ele>
        <time>2022-08-14T09:42:57Z</time>
      </trkpt>
      <trkpt lat="40.8365720" lon="-8.2958770">
        <ele>749.6</ele>
        <time>2022-08-14T09:43:01Z</time>
      </trkpt>
      <trkpt lat="40.8365870" lon="-8.2958540">
        <ele>749.8</ele>
        <time>2022-08-14T09:43:03Z</time>
      </trkpt>
      <trkpt lat="40.8366170" lon="-8.2957960">
        <ele>750.6</ele>
        <time>2022-08-14T09:43:07Z</time>
      </trkpt>
      <trkpt lat="40.8366250" lon="-8.2957620">
        <ele>751.0</ele>
        <time>2022-08-14T09:43:09Z</time>
      </trkpt>
      <trkpt lat="40.8366250" lon="-8.2957540">
        <ele>751.6</ele>
        <time>2022-08-14T09:43:12Z</time>
      </trkpt>
      <trkpt lat="40.8366590" lon="-8.2956910">
        <ele>755.2</ele>
        <time>2022-08-14T09:46:31Z</time>
      </trkpt>
      <trkpt lat="40.8367880" lon="-8.2955200">
        <ele>752.0</ele>
        <time>2022-08-14T09:46:36Z</time>
      </trkpt>
      <trkpt lat="40.8369450" lon="-8.2953430">
        <ele>750.6</ele>
        <time>2022-08-14T09:46:42Z</time>
      </trkpt>
      <trkpt lat="40.8370710" lon="-8.2952550">
        <ele>750.2</ele>
        <time>2022-08-14T09:46:47Z</time>
      </trkpt>
      <trkpt lat="40.8371400" lon="-8.2951970">
        <ele>749.6</ele>
        <time>2022-08-14T09:46:50Z</time>
      </trkpt>
      <trkpt lat="40.8371940" lon="-8.2951530">
        <ele>749.4</ele>
        <time>2022-08-14T09:46:53Z</time>
      </trkpt>
      <trkpt lat="40.8372740" lon="-8.2951210">
        <ele>748.8</ele>
        <time>2022-08-14T09:46:58Z</time>
      </trkpt>
      <trkpt lat="40.8373620" lon="-8.2951080">
        <ele>748.8</ele>
        <time>2022-08-14T09:47:04Z</time>
      </trkpt>
      <trkpt lat="40.8373980" lon="-8.2950880">
        <ele>748.8</ele>
        <time>2022-08-14T09:47:06Z</time>
      </trkpt>
      <trkpt lat="40.8374610" lon="-8.2950550">
        <ele>748.2</ele>
        <time>2022-08-14T09:47:09Z</time>
      </trkpt>
      <trkpt lat="40.8374790" lon="-8.2950530">
        <ele>748.2</ele>
        <time>2022-08-14T09:47:10Z</time>
      </trkpt>
      <trkpt lat="40.8375590" lon="-8.2950700">
        <ele>747.8</ele>
        <time>2022-08-14T09:47:14Z</time>
      </trkpt>
      <trkpt lat="40.8375800" lon="-8.2950730">
        <ele>747.8</ele>
        <time>2022-08-14T09:47:15Z</time>
      </trkpt>
      <trkpt lat="40.8375990" lon="-8.2950730">
        <ele>747.6</ele>
        <time>2022-08-14T09:47:16Z</time>
      </trkpt>
      <trkpt lat="40.8376430" lon="-8.2950800">
        <ele>747.2</ele>
        <time>2022-08-14T09:47:20Z</time>
      </trkpt>
      <trkpt lat="40.8376510" lon="-8.2950770">
        <ele>747.2</ele>
        <time>2022-08-14T09:47:21Z</time>
      </trkpt>
      <trkpt lat="40.8376610" lon="-8.2950650">
        <ele>747.4</ele>
        <time>2022-08-14T09:47:23Z</time>
      </trkpt>
      <trkpt lat="40.8376730" lon="-8.2950660">
        <ele>747.4</ele>
        <time>2022-08-14T09:47:25Z</time>
      </trkpt>
      <trkpt lat="40.8376730" lon="-8.2950660">
        <ele>747.2</ele>
        <time>2022-08-14T09:47:27Z</time>
      </trkpt>
      <trkpt lat="40.8377270" lon="-8.2950650">
        <ele>747.4</ele>
        <time>2022-08-14T09:47:34Z</time>
      </trkpt>
      <trkpt lat="40.8377470" lon="-8.2950640">
        <ele>747.4</ele>
        <time>2022-08-14T09:47:35Z</time>
      </trkpt>
      <trkpt lat="40.8377910" lon="-8.2950550">
        <ele>747.4</ele>
        <time>2022-08-14T09:47:38Z</time>
      </trkpt>
      <trkpt lat="40.8378060" lon="-8.2950410">
        <ele>747.6</ele>
        <time>2022-08-14T09:47:39Z</time>
      </trkpt>
      <trkpt lat="40.8378810" lon="-8.2949540">
        <ele>748.4</ele>
        <time>2022-08-14T09:47:46Z</time>
      </trkpt>
      <trkpt lat="40.8378900" lon="-8.2949370">
        <ele>748.6</ele>
        <time>2022-08-14T09:47:47Z</time>
      </trkpt>
      <trkpt lat="40.8379590" lon="-8.2948430">
        <ele>749.4</ele>
        <time>2022-08-14T09:47:54Z</time>
      </trkpt>
      <trkpt lat="40.8379710" lon="-8.2948290">
        <ele>750.0</ele>
        <time>2022-08-14T09:47:56Z</time>
      </trkpt>
      <trkpt lat="40.8379730" lon="-8.2948260">
        <ele>750.2</ele>
        <time>2022-08-14T09:47:57Z</time>
      </trkpt>
      <trkpt lat="40.8379730" lon="-8.2948260">
        <ele>750.8</ele>
        <time>2022-08-14T09:47:59Z</time>
      </trkpt>
      <trkpt lat="40.8382550" lon="-8.2948850">
        <ele>757.6</ele>
        <time>2022-08-14T09:48:46Z</time>
      </trkpt>
      <trkpt lat="40.8382800" lon="-8.2948830">
        <ele>758.0</ele>
        <time>2022-08-14T09:48:48Z</time>
      </trkpt>
      <trkpt lat="40.8382920" lon="-8.2948760">
        <ele>758.2</ele>
        <time>2022-08-14T09:48:49Z</time>
      </trkpt>
      <trkpt lat="40.8383240" lon="-8.2948640">
        <ele>758.6</ele>
        <time>2022-08-14T09:48:52Z</time>
      </trkpt>
      <trkpt lat="40.8383480" lon="-8.2948590">
        <ele>759.6</ele>
        <time>2022-08-14T09:48:54Z</time>
      </trkpt>
      <trkpt lat="40.8383580" lon="-8.2948530">
        <ele>759.6</ele>
        <time>2022-08-14T09:48:55Z</time>
      </trkpt>
      <trkpt lat="40.8383770" lon="-8.2948470">
        <ele>760.8</ele>
        <time>2022-08-14T09:48:57Z</time>
      </trkpt>
      <trkpt lat="40.8384460" lon="-8.2947980">
        <ele>761.6</ele>
        <time>2022-08-14T09:49:03Z</time>
      </trkpt>
      <trkpt lat="40.8384600" lon="-8.2947920">
        <ele>761.8</ele>
        <time>2022-08-14T09:49:04Z</time>
      </trkpt>
      <trkpt lat="40.8385390" lon="-8.2947540">
        <ele>762.2</ele>
        <time>2022-08-14T09:49:10Z</time>
      </trkpt>
      <trkpt lat="40.8386460" lon="-8.2947320">
        <ele>762.2</ele>
        <time>2022-08-14T09:49:18Z</time>
      </trkpt>
      <trkpt lat="40.8387440" lon="-8.2947090">
        <ele>762.2</ele>
        <time>2022-08-14T09:49:24Z</time>
      </trkpt>
      <trkpt lat="40.8387540" lon="-8.2947070">
        <ele>762.2</ele>
        <time>2022-08-14T09:49:25Z</time>
      </trkpt>
      <trkpt lat="40.8388160" lon="-8.2946170">
        <ele>762.4</ele>
        <time>2022-08-14T09:49:33Z</time>
      </trkpt>
      <trkpt lat="40.8388320" lon="-8.2945890">
        <ele>762.6</ele>
        <time>2022-08-14T09:49:35Z</time>
      </trkpt>
      <trkpt lat="40.8388330" lon="-8.2945730">
        <ele>762.8</ele>
        <time>2022-08-14T09:49:36Z</time>
      </trkpt>
      <trkpt lat="40.8388550" lon="-8.2945380">
        <ele>763.0</ele>
        <time>2022-08-14T09:49:39Z</time>
      </trkpt>
      <trkpt lat="40.8388860" lon="-8.2945310">
        <ele>763.4</ele>
        <time>2022-08-14T09:49:44Z</time>
      </trkpt>
      <trkpt lat="40.8389020" lon="-8.2945810">
        <ele>763.2</ele>
        <time>2022-08-14T09:52:28Z</time>
      </trkpt>
      <trkpt lat="40.8389960" lon="-8.2946490">
        <ele>764.0</ele>
        <time>2022-08-14T09:52:35Z</time>
      </trkpt>
      <trkpt lat="40.8390190" lon="-8.2946700">
        <ele>764.2</ele>
        <time>2022-08-14T09:52:37Z</time>
      </trkpt>
      <trkpt lat="40.8390450" lon="-8.2947050">
        <ele>765.0</ele>
        <time>2022-08-14T09:52:40Z</time>
      </trkpt>
      <trkpt lat="40.8390550" lon="-8.2947060">
        <ele>765.2</ele>
        <time>2022-08-14T09:52:41Z</time>
      </trkpt>
      <trkpt lat="40.8390710" lon="-8.2947090">
        <ele>765.6</ele>
        <time>2022-08-14T09:52:42Z</time>
      </trkpt>
      <trkpt lat="40.8391370" lon="-8.2947310">
        <ele>766.6</ele>
        <time>2022-08-14T09:52:48Z</time>
      </trkpt>
      <trkpt lat="40.8391480" lon="-8.2947360">
        <ele>766.8</ele>
        <time>2022-08-14T09:52:49Z</time>
      </trkpt>
      <trkpt lat="40.8391900" lon="-8.2947540">
        <ele>767.6</ele>
        <time>2022-08-14T09:52:53Z</time>
      </trkpt>
      <trkpt lat="40.8392040" lon="-8.2947550">
        <ele>767.6</ele>
        <time>2022-08-14T09:52:54Z</time>
      </trkpt>
      <trkpt lat="40.8392440" lon="-8.2947630">
        <ele>767.8</ele>
        <time>2022-08-14T09:52:57Z</time>
      </trkpt>
      <trkpt lat="40.8393240" lon="-8.2947850">
        <ele>768.6</ele>
        <time>2022-08-14T09:53:03Z</time>
      </trkpt>
      <trkpt lat="40.8393560" lon="-8.2947920">
        <ele>769.6</ele>
        <time>2022-08-14T09:53:06Z</time>
      </trkpt>
      <trkpt lat="40.8393680" lon="-8.2947940">
        <ele>769.8</ele>
        <time>2022-08-14T09:53:07Z</time>
      </trkpt>
      <trkpt lat="40.8394290" lon="-8.2948100">
        <ele>770.4</ele>
        <time>2022-08-14T09:53:12Z</time>
      </trkpt>
      <trkpt lat="40.8394420" lon="-8.2948080">
        <ele>770.8</ele>
        <time>2022-08-14T09:53:13Z</time>
      </trkpt>
      <trkpt lat="40.8394800" lon="-8.2948170">
        <ele>771.6</ele>
        <time>2022-08-14T09:53:16Z</time>
      </trkpt>
      <trkpt lat="40.8395000" lon="-8.2948250">
        <ele>772.0</ele>
        <time>2022-08-14T09:53:18Z</time>
      </trkpt>
      <trkpt lat="40.8395490" lon="-8.2947940">
        <ele>772.8</ele>
        <time>2022-08-14T09:53:22Z</time>
      </trkpt>
      <trkpt lat="40.8395770" lon="-8.2948180">
        <ele>773.2</ele>
        <time>2022-08-14T09:53:24Z</time>
      </trkpt>
      <trkpt lat="40.8396000" lon="-8.2948590">
        <ele>774.0</ele>
        <time>2022-08-14T09:53:27Z</time>
      </trkpt>
      <trkpt lat="40.8396130" lon="-8.2948600">
        <ele>774.4</ele>
        <time>2022-08-14T09:53:28Z</time>
      </trkpt>
      <trkpt lat="40.8396670" lon="-8.2948010">
        <ele>775.6</ele>
        <time>2022-08-14T09:53:32Z</time>
      </trkpt>
      <trkpt lat="40.8397320" lon="-8.2946730">
        <ele>776.6</ele>
        <time>2022-08-14T09:53:39Z</time>
      </trkpt>
      <trkpt lat="40.8397550" lon="-8.2946070">
        <ele>777.2</ele>
        <time>2022-08-14T09:53:42Z</time>
      </trkpt>
      <trkpt lat="40.8397740" lon="-8.2945680">
        <ele>777.6</ele>
        <time>2022-08-14T09:53:44Z</time>
      </trkpt>
      <trkpt lat="40.8398270" lon="-8.2944160">
        <ele>778.6</ele>
        <time>2022-08-14T09:53:51Z</time>
      </trkpt>
      <trkpt lat="40.8398340" lon="-8.2943960">
        <ele>778.6</ele>
        <time>2022-08-14T09:53:52Z</time>
      </trkpt>
      <trkpt lat="40.8398750" lon="-8.2942910">
        <ele>779.6</ele>
        <time>2022-08-14T09:53:59Z</time>
      </trkpt>
      <trkpt lat="40.8398760" lon="-8.2942560">
        <ele>779.8</ele>
        <time>2022-08-14T09:54:00Z</time>
      </trkpt>
      <trkpt lat="40.8398360" lon="-8.2940370">
        <ele>780.6</ele>
        <time>2022-08-14T09:54:09Z</time>
      </trkpt>
      <trkpt lat="40.8398240" lon="-8.2940170">
        <ele>780.8</ele>
        <time>2022-08-14T09:54:10Z</time>
      </trkpt>
      <trkpt lat="40.8397940" lon="-8.2939650">
        <ele>781.2</ele>
        <time>2022-08-14T09:54:13Z</time>
      </trkpt>
      <trkpt lat="40.8397670" lon="-8.2939400">
        <ele>781.8</ele>
        <time>2022-08-14T09:54:16Z</time>
      </trkpt>
      <trkpt lat="40.8397550" lon="-8.2939220">
        <ele>781.8</ele>
        <time>2022-08-14T09:54:17Z</time>
      </trkpt>
      <trkpt lat="40.8396830" lon="-8.2938610">
        <ele>782.4</ele>
        <time>2022-08-14T09:54:21Z</time>
      </trkpt>
      <trkpt lat="40.8396420" lon="-8.2938300">
        <ele>782.8</ele>
        <time>2022-08-14T09:54:24Z</time>
      </trkpt>
      <trkpt lat="40.8395550" lon="-8.2937600">
        <ele>783.8</ele>
        <time>2022-08-14T09:54:30Z</time>
      </trkpt>
      <trkpt lat="40.8394710" lon="-8.2936700">
        <ele>785.0</ele>
        <time>2022-08-14T09:54:36Z</time>
      </trkpt>
      <trkpt lat="40.8394710" lon="-8.2936700">
        <ele>785.0</ele>
        <time>2022-08-14T09:54:37Z</time>
      </trkpt>
      <trkpt lat="40.8393690" lon="-8.2936050">
        <ele>786.0</ele>
        <time>2022-08-14T09:54:42Z</time>
      </trkpt>
      <trkpt lat="40.8393280" lon="-8.2935610">
        <ele>787.4</ele>
        <time>2022-08-14T09:54:45Z</time>
      </trkpt>
      <trkpt lat="40.8392350" lon="-8.2934990">
        <ele>788.4</ele>
        <time>2022-08-14T09:54:51Z</time>
      </trkpt>
      <trkpt lat="40.8392230" lon="-8.2934870">
        <ele>788.6</ele>
        <time>2022-08-14T09:54:52Z</time>
      </trkpt>
      <trkpt lat="40.8391150" lon="-8.2934070">
        <ele>789.6</ele>
        <time>2022-08-14T09:54:59Z</time>
      </trkpt>
      <trkpt lat="40.8390720" lon="-8.2933710">
        <ele>790.2</ele>
        <time>2022-08-14T09:55:03Z</time>
      </trkpt>
      <trkpt lat="40.8390080" lon="-8.2933420">
        <ele>790.8</ele>
        <time>2022-08-14T09:55:06Z</time>
      </trkpt>
      <trkpt lat="40.8389940" lon="-8.2933310">
        <ele>791.2</ele>
        <time>2022-08-14T09:55:07Z</time>
      </trkpt>
      <trkpt lat="40.8389380" lon="-8.2932860">
        <ele>791.8</ele>
        <time>2022-08-14T09:55:11Z</time>
      </trkpt>
      <trkpt lat="40.8388800" lon="-8.2932490">
        <ele>793.0</ele>
        <time>2022-08-14T09:55:15Z</time>
      </trkpt>
      <trkpt lat="40.8388290" lon="-8.2932240">
        <ele>793.6</ele>
        <time>2022-08-14T09:55:18Z</time>
      </trkpt>
      <trkpt lat="40.8388160" lon="-8.2932070">
        <ele>793.8</ele>
        <time>2022-08-14T09:55:19Z</time>
      </trkpt>
      <trkpt lat="40.8388020" lon="-8.2931900">
        <ele>794.2</ele>
        <time>2022-08-14T09:55:20Z</time>
      </trkpt>
      <trkpt lat="40.8386890" lon="-8.2931450">
        <ele>795.0</ele>
        <time>2022-08-14T09:55:27Z</time>
      </trkpt>
      <trkpt lat="40.8386590" lon="-8.2931240">
        <ele>795.2</ele>
        <time>2022-08-14T09:55:29Z</time>
      </trkpt>
      <trkpt lat="40.8386140" lon="-8.2930620">
        <ele>795.4</ele>
        <time>2022-08-14T09:55:33Z</time>
      </trkpt>
      <trkpt lat="40.8385630" lon="-8.2930460">
        <ele>796.2</ele>
        <time>2022-08-14T09:55:36Z</time>
      </trkpt>
      <trkpt lat="40.8385120" lon="-8.2930250">
        <ele>797.0</ele>
        <time>2022-08-14T09:55:39Z</time>
      </trkpt>
      <trkpt lat="40.8384970" lon="-8.2930160">
        <ele>797.2</ele>
        <time>2022-08-14T09:55:40Z</time>
      </trkpt>
      <trkpt lat="40.8384340" lon="-8.2929520">
        <ele>798.0</ele>
        <time>2022-08-14T09:55:45Z</time>
      </trkpt>
      <trkpt lat="40.8384340" lon="-8.2929520">
        <ele>798.2</ele>
        <time>2022-08-14T09:55:46Z</time>
      </trkpt>
      <trkpt lat="40.8384120" lon="-8.2929280">
        <ele>798.4</ele>
        <time>2022-08-14T09:55:47Z</time>
      </trkpt>
      <trkpt lat="40.8383750" lon="-8.2928950">
        <ele>799.2</ele>
        <time>2022-08-14T09:55:51Z</time>
      </trkpt>
      <trkpt lat="40.8383320" lon="-8.2928680">
        <ele>800.0</ele>
        <time>2022-08-14T09:55:54Z</time>
      </trkpt>
      <trkpt lat="40.8383120" lon="-8.2928420">
        <ele>800.4</ele>
        <time>2022-08-14T09:55:56Z</time>
      </trkpt>
      <trkpt lat="40.8382590" lon="-8.2927750">
        <ele>801.6</ele>
        <time>2022-08-14T09:56:00Z</time>
      </trkpt>
      <trkpt lat="40.8381930" lon="-8.2927010">
        <ele>802.2</ele>
        <time>2022-08-14T09:56:05Z</time>
      </trkpt>
      <trkpt lat="40.8381820" lon="-8.2926860">
        <ele>802.6</ele>
        <time>2022-08-14T09:56:07Z</time>
      </trkpt>
      <trkpt lat="40.8381570" lon="-8.2926330">
        <ele>803.2</ele>
        <time>2022-08-14T09:56:10Z</time>
      </trkpt>
      <trkpt lat="40.8381510" lon="-8.2925740">
        <ele>803.4</ele>
        <time>2022-08-14T09:56:12Z</time>
      </trkpt>
      <trkpt lat="40.8381480" lon="-8.2925330">
        <ele>803.6</ele>
        <time>2022-08-14T09:56:14Z</time>
      </trkpt>
      <trkpt lat="40.8381130" lon="-8.2924470">
        <ele>804.4</ele>
        <time>2022-08-14T09:56:19Z</time>
      </trkpt>
      <trkpt lat="40.8381070" lon="-8.2924060">
        <ele>804.6</ele>
        <time>2022-08-14T09:56:21Z</time>
      </trkpt>
      <trkpt lat="40.8380730" lon="-8.2922950">
        <ele>805.4</ele>
        <time>2022-08-14T09:56:27Z</time>
      </trkpt>
      <trkpt lat="40.8380690" lon="-8.2922750">
        <ele>805.6</ele>
        <time>2022-08-14T09:56:28Z</time>
      </trkpt>
      <trkpt lat="40.8380660" lon="-8.2922360">
        <ele>805.6</ele>
        <time>2022-08-14T09:56:30Z</time>
      </trkpt>
      <trkpt lat="40.8380220" lon="-8.2921260">
        <ele>806.4</ele>
        <time>2022-08-14T09:56:36Z</time>
      </trkpt>
      <trkpt lat="40.8380200" lon="-8.2921060">
        <ele>806.8</ele>
        <time>2022-08-14T09:56:38Z</time>
      </trkpt>
      <trkpt lat="40.8379930" lon="-8.2919890">
        <ele>807.6</ele>
        <time>2022-08-14T09:56:43Z</time>
      </trkpt>
      <trkpt lat="40.8379750" lon="-8.2919540">
        <ele>808.0</ele>
        <time>2022-08-14T09:56:45Z</time>
      </trkpt>
      <trkpt lat="40.8379140" lon="-8.2918290">
        <ele>808.8</ele>
        <time>2022-08-14T09:56:52Z</time>
      </trkpt>
      <trkpt lat="40.8378960" lon="-8.2917920">
        <ele>809.2</ele>
        <time>2022-08-14T09:56:54Z</time>
      </trkpt>
      <trkpt lat="40.8378700" lon="-8.2916950">
        <ele>810.4</ele>
        <time>2022-08-14T09:56:59Z</time>
      </trkpt>
      <trkpt lat="40.8378510" lon="-8.2916660">
        <ele>810.8</ele>
        <time>2022-08-14T09:57:01Z</time>
      </trkpt>
      <trkpt lat="40.8378150" lon="-8.2916330">
        <ele>811.6</ele>
        <time>2022-08-14T09:57:04Z</time>
      </trkpt>
      <trkpt lat="40.8377490" lon="-8.2915840">
        <ele>812.8</ele>
        <time>2022-08-14T09:57:09Z</time>
      </trkpt>
      <trkpt lat="40.8376820" lon="-8.2914920">
        <ele>813.8</ele>
        <time>2022-08-14T09:57:16Z</time>
      </trkpt>
      <trkpt lat="40.8376640" lon="-8.2914860">
        <ele>814.0</ele>
        <time>2022-08-14T09:57:17Z</time>
      </trkpt>
      <trkpt lat="40.8376040" lon="-8.2914240">
        <ele>814.8</ele>
        <time>2022-08-14T09:57:22Z</time>
      </trkpt>
      <trkpt lat="40.8375490" lon="-8.2913900">
        <ele>815.6</ele>
        <time>2022-08-14T09:57:26Z</time>
      </trkpt>
      <trkpt lat="40.8375330" lon="-8.2913860">
        <ele>816.0</ele>
        <time>2022-08-14T09:57:28Z</time>
      </trkpt>
      <trkpt lat="40.8374330" lon="-8.2913340">
        <ele>816.8</ele>
        <time>2022-08-14T09:57:35Z</time>
      </trkpt>
      <trkpt lat="40.8374040" lon="-8.2913220">
        <ele>817.0</ele>
        <time>2022-08-14T09:57:36Z</time>
      </trkpt>
      <trkpt lat="40.8373600" lon="-8.2913050">
        <ele>817.8</ele>
        <time>2022-08-14T09:57:39Z</time>
      </trkpt>
      <trkpt lat="40.8372710" lon="-8.2912690">
        <ele>818.8</ele>
        <time>2022-08-14T09:57:45Z</time>
      </trkpt>
      <trkpt lat="40.8372540" lon="-8.2912640">
        <ele>818.8</ele>
        <time>2022-08-14T09:57:46Z</time>
      </trkpt>
      <trkpt lat="40.8371550" lon="-8.2912490">
        <ele>820.0</ele>
        <time>2022-08-14T09:57:52Z</time>
      </trkpt>
      <trkpt lat="40.8371390" lon="-8.2912460">
        <ele>820.2</ele>
        <time>2022-08-14T09:57:54Z</time>
      </trkpt>
      <trkpt lat="40.8371200" lon="-8.2912230">
        <ele>820.4</ele>
        <time>2022-08-14T09:57:55Z</time>
      </trkpt>
      <trkpt lat="40.8370890" lon="-8.2912030">
        <ele>820.8</ele>
        <time>2022-08-14T09:57:58Z</time>
      </trkpt>
      <trkpt lat="40.8370560" lon="-8.2911950">
        <ele>821.2</ele>
        <time>2022-08-14T09:58:00Z</time>
      </trkpt>
      <trkpt lat="40.8369300" lon="-8.2911360">
        <ele>822.4</ele>
        <time>2022-08-14T09:58:07Z</time>
      </trkpt>
      <trkpt lat="40.8369190" lon="-8.2911190">
        <ele>822.4</ele>
        <time>2022-08-14T09:58:08Z</time>
      </trkpt>
      <trkpt lat="40.8368510" lon="-8.2910390">
        <ele>823.4</ele>
        <time>2022-08-14T09:58:14Z</time>
      </trkpt>
      <trkpt lat="40.8368380" lon="-8.2910270">
        <ele>823.6</ele>
        <time>2022-08-14T09:58:15Z</time>
      </trkpt>
      <trkpt lat="40.8367540" lon="-8.2909660">
        <ele>824.6</ele>
        <time>2022-08-14T09:58:21Z</time>
      </trkpt>
      <trkpt lat="40.8367410" lon="-8.2909520">
        <ele>824.6</ele>
        <time>2022-08-14T09:58:22Z</time>
      </trkpt>
      <trkpt lat="40.8367170" lon="-8.2909190">
        <ele>824.8</ele>
        <time>2022-08-14T09:58:24Z</time>
      </trkpt>
      <trkpt lat="40.8366870" lon="-8.2908260">
        <ele>825.6</ele>
        <time>2022-08-14T09:58:29Z</time>
      </trkpt>
      <trkpt lat="40.8366790" lon="-8.2908070">
        <ele>825.8</ele>
        <time>2022-08-14T09:58:30Z</time>
      </trkpt>
      <trkpt lat="40.8366540" lon="-8.2907300">
        <ele>826.8</ele>
        <time>2022-08-14T09:58:34Z</time>
      </trkpt>
      <trkpt lat="40.8366450" lon="-8.2906880">
        <ele>827.2</ele>
        <time>2022-08-14T09:58:36Z</time>
      </trkpt>
      <trkpt lat="40.8366290" lon="-8.2906120">
        <ele>828.0</ele>
        <time>2022-08-14T09:58:40Z</time>
      </trkpt>
      <trkpt lat="40.8365970" lon="-8.2905410">
        <ele>828.8</ele>
        <time>2022-08-14T09:58:44Z</time>
      </trkpt>
      <trkpt lat="40.8365830" lon="-8.2905020">
        <ele>829.4</ele>
        <time>2022-08-14T09:58:46Z</time>
      </trkpt>
      <trkpt lat="40.8365790" lon="-8.2904600">
        <ele>829.8</ele>
        <time>2022-08-14T09:58:48Z</time>
      </trkpt>
      <trkpt lat="40.8365810" lon="-8.2904150">
        <ele>830.2</ele>
        <time>2022-08-14T09:58:50Z</time>
      </trkpt>
      <trkpt lat="40.8365730" lon="-8.2903540">
        <ele>830.4</ele>
        <time>2022-08-14T09:58:53Z</time>
      </trkpt>
      <trkpt lat="40.8365340" lon="-8.2902850">
        <ele>831.0</ele>
        <time>2022-08-14T09:58:57Z</time>
      </trkpt>
      <trkpt lat="40.8365250" lon="-8.2902190">
        <ele>831.4</ele>
        <time>2022-08-14T09:59:00Z</time>
      </trkpt>
      <trkpt lat="40.8365180" lon="-8.2901270">
        <ele>832.4</ele>
        <time>2022-08-14T09:59:05Z</time>
      </trkpt>
      <trkpt lat="40.8365170" lon="-8.2901060">
        <ele>832.6</ele>
        <time>2022-08-14T09:59:06Z</time>
      </trkpt>
      <trkpt lat="40.8364900" lon="-8.2899980">
        <ele>833.4</ele>
        <time>2022-08-14T09:59:12Z</time>
      </trkpt>
      <trkpt lat="40.8364710" lon="-8.2899630">
        <ele>833.6</ele>
        <time>2022-08-14T09:59:14Z</time>
      </trkpt>
      <trkpt lat="40.8364740" lon="-8.2899000">
        <ele>834.2</ele>
        <time>2022-08-14T09:59:17Z</time>
      </trkpt>
      <trkpt lat="40.8364660" lon="-8.2898330">
        <ele>834.8</ele>
        <time>2022-08-14T09:59:21Z</time>
      </trkpt>
      <trkpt lat="40.8364420" lon="-8.2897810">
        <ele>835.2</ele>
        <time>2022-08-14T09:59:24Z</time>
      </trkpt>
      <trkpt lat="40.8364360" lon="-8.2897440">
        <ele>835.4</ele>
        <time>2022-08-14T09:59:26Z</time>
      </trkpt>
      <trkpt lat="40.8364430" lon="-8.2896830">
        <ele>836.0</ele>
        <time>2022-08-14T09:59:29Z</time>
      </trkpt>
      <trkpt lat="40.8364420" lon="-8.2896640">
        <ele>836.0</ele>
        <time>2022-08-14T09:59:30Z</time>
      </trkpt>
      <trkpt lat="40.8364040" lon="-8.2895510">
        <ele>837.0</ele>
        <time>2022-08-14T09:59:36Z</time>
      </trkpt>
      <trkpt lat="40.8364030" lon="-8.2895090">
        <ele>837.4</ele>
        <time>2022-08-14T09:59:38Z</time>
      </trkpt>
      <trkpt lat="40.8363890" lon="-8.2894270">
        <ele>838.0</ele>
        <time>2022-08-14T09:59:42Z</time>
      </trkpt>
      <trkpt lat="40.8363910" lon="-8.2894050">
        <ele>838.2</ele>
        <time>2022-08-14T09:59:43Z</time>
      </trkpt>
      <trkpt lat="40.8363910" lon="-8.2894050">
        <ele>838.4</ele>
        <time>2022-08-14T09:59:44Z</time>
      </trkpt>
      <trkpt lat="40.8363610" lon="-8.2892460">
        <ele>839.4</ele>
        <time>2022-08-14T09:59:51Z</time>
      </trkpt>
      <trkpt lat="40.8363110" lon="-8.2891190">
        <ele>840.4</ele>
        <time>2022-08-14T09:59:58Z</time>
      </trkpt>
      <trkpt lat="40.8362880" lon="-8.2890900">
        <ele>841.0</ele>
        <time>2022-08-14T10:00:00Z</time>
      </trkpt>
      <trkpt lat="40.8362630" lon="-8.2890640">
        <ele>841.6</ele>
        <time>2022-08-14T10:00:02Z</time>
      </trkpt>
      <trkpt lat="40.8362240" lon="-8.2890140">
        <ele>842.4</ele>
        <time>2022-08-14T10:00:06Z</time>
      </trkpt>
      <trkpt lat="40.8362170" lon="-8.2890000">
        <ele>842.4</ele>
        <time>2022-08-14T10:00:07Z</time>
      </trkpt>
      <trkpt lat="40.8361890" lon="-8.2889800">
        <ele>842.6</ele>
        <time>2022-08-14T10:00:09Z</time>
      </trkpt>
      <trkpt lat="40.8361250" lon="-8.2889260">
        <ele>843.8</ele>
        <time>2022-08-14T10:00:14Z</time>
      </trkpt>
      <trkpt lat="40.8361040" lon="-8.2888970">
        <ele>844.0</ele>
        <time>2022-08-14T10:00:16Z</time>
      </trkpt>
      <trkpt lat="40.8360810" lon="-8.2888690">
        <ele>844.8</ele>
        <time>2022-08-14T10:00:18Z</time>
      </trkpt>
      <trkpt lat="40.8360540" lon="-8.2888230">
        <ele>845.2</ele>
        <time>2022-08-14T10:00:21Z</time>
      </trkpt>
      <trkpt lat="40.8360300" lon="-8.2887950">
        <ele>845.6</ele>
        <time>2022-08-14T10:00:23Z</time>
      </trkpt>
      <trkpt lat="40.8360190" lon="-8.2887820">
        <ele>845.8</ele>
        <time>2022-08-14T10:00:24Z</time>
      </trkpt>
      <trkpt lat="40.8359690" lon="-8.2886910">
        <ele>846.8</ele>
        <time>2022-08-14T10:00:29Z</time>
      </trkpt>
      <trkpt lat="40.8359650" lon="-8.2886730">
        <ele>847.0</ele>
        <time>2022-08-14T10:00:30Z</time>
      </trkpt>
      <trkpt lat="40.8359630" lon="-8.2886530">
        <ele>847.2</ele>
        <time>2022-08-14T10:00:31Z</time>
      </trkpt>
      <trkpt lat="40.8359720" lon="-8.2885980">
        <ele>847.8</ele>
        <time>2022-08-14T10:00:34Z</time>
      </trkpt>
      <trkpt lat="40.8359670" lon="-8.2885770">
        <ele>847.8</ele>
        <time>2022-08-14T10:00:36Z</time>
      </trkpt>
      <trkpt lat="40.8359450" lon="-8.2885440">
        <ele>848.0</ele>
        <time>2022-08-14T10:00:37Z</time>
      </trkpt>
      <trkpt lat="40.8358840" lon="-8.2884780">
        <ele>848.6</ele>
        <time>2022-08-14T10:00:41Z</time>
      </trkpt>
      <trkpt lat="40.8358770" lon="-8.2884600">
        <ele>848.6</ele>
        <time>2022-08-14T10:00:42Z</time>
      </trkpt>
      <trkpt lat="40.8358740" lon="-8.2884410">
        <ele>849.0</ele>
        <time>2022-08-14T10:00:43Z</time>
      </trkpt>
      <trkpt lat="40.8358600" lon="-8.2883660">
        <ele>849.4</ele>
        <time>2022-08-14T10:00:47Z</time>
      </trkpt>
      <trkpt lat="40.8358490" lon="-8.2883110">
        <ele>850.2</ele>
        <time>2022-08-14T10:00:50Z</time>
      </trkpt>
      <trkpt lat="40.8358290" lon="-8.2882190">
        <ele>851.2</ele>
        <time>2022-08-14T10:00:55Z</time>
      </trkpt>
      <trkpt lat="40.8358200" lon="-8.2882040">
        <ele>851.4</ele>
        <time>2022-08-14T10:00:56Z</time>
      </trkpt>
      <trkpt lat="40.8357830" lon="-8.2881640">
        <ele>852.2</ele>
        <time>2022-08-14T10:00:59Z</time>
      </trkpt>
      <trkpt lat="40.8357790" lon="-8.2881460">
        <ele>852.6</ele>
        <time>2022-08-14T10:01:00Z</time>
      </trkpt>
      <trkpt lat="40.8357770" lon="-8.2881040">
        <ele>853.0</ele>
        <time>2022-08-14T10:01:02Z</time>
      </trkpt>
      <trkpt lat="40.8357430" lon="-8.2880210">
        <ele>853.6</ele>
        <time>2022-08-14T10:01:07Z</time>
      </trkpt>
      <trkpt lat="40.8357360" lon="-8.2880060">
        <ele>853.8</ele>
        <time>2022-08-14T10:01:08Z</time>
      </trkpt>
      <trkpt lat="40.8357330" lon="-8.2879890">
        <ele>854.0</ele>
        <time>2022-08-14T10:01:09Z</time>
      </trkpt>
      <trkpt lat="40.8357310" lon="-8.2879690">
        <ele>854.2</ele>
        <time>2022-08-14T10:01:10Z</time>
      </trkpt>
      <trkpt lat="40.8357320" lon="-8.2879500">
        <ele>854.6</ele>
        <time>2022-08-14T10:01:12Z</time>
      </trkpt>
      <trkpt lat="40.8357120" lon="-8.2878550">
        <ele>855.0</ele>
        <time>2022-08-14T10:01:16Z</time>
      </trkpt>
      <trkpt lat="40.8356870" lon="-8.2878260">
        <ele>855.6</ele>
        <time>2022-08-14T10:01:18Z</time>
      </trkpt>
      <trkpt lat="40.8356670" lon="-8.2877220">
        <ele>856.6</ele>
        <time>2022-08-14T10:01:23Z</time>
      </trkpt>
      <trkpt lat="40.8356480" lon="-8.2876630">
        <ele>856.6</ele>
        <time>2022-08-14T10:01:26Z</time>
      </trkpt>
      <trkpt lat="40.8356370" lon="-8.2875860">
        <ele>857.4</ele>
        <time>2022-08-14T10:01:30Z</time>
      </trkpt>
      <trkpt lat="40.8356330" lon="-8.2875490">
        <ele>857.8</ele>
        <time>2022-08-14T10:01:32Z</time>
      </trkpt>
      <trkpt lat="40.8356280" lon="-8.2874740">
        <ele>859.0</ele>
        <time>2022-08-14T10:01:36Z</time>
      </trkpt>
      <trkpt lat="40.8356230" lon="-8.2874150">
        <ele>859.8</ele>
        <time>2022-08-14T10:01:39Z</time>
      </trkpt>
      <trkpt lat="40.8356150" lon="-8.2873780">
        <ele>860.4</ele>
        <time>2022-08-14T10:01:41Z</time>
      </trkpt>
      <trkpt lat="40.8356210" lon="-8.2872790">
        <ele>861.4</ele>
        <time>2022-08-14T10:01:47Z</time>
      </trkpt>
      <trkpt lat="40.8355940" lon="-8.2871450">
        <ele>862.0</ele>
        <time>2022-08-14T10:01:54Z</time>
      </trkpt>
      <trkpt lat="40.8356050" lon="-8.2870840">
        <ele>862.4</ele>
        <time>2022-08-14T10:01:57Z</time>
      </trkpt>
      <trkpt lat="40.8355930" lon="-8.2870240">
        <ele>862.8</ele>
        <time>2022-08-14T10:02:00Z</time>
      </trkpt>
      <trkpt lat="40.8355810" lon="-8.2869920">
        <ele>863.0</ele>
        <time>2022-08-14T10:02:02Z</time>
      </trkpt>
      <trkpt lat="40.8355810" lon="-8.2869070">
        <ele>863.4</ele>
        <time>2022-08-14T10:02:06Z</time>
      </trkpt>
      <trkpt lat="40.8355800" lon="-8.2868860">
        <ele>863.6</ele>
        <time>2022-08-14T10:02:07Z</time>
      </trkpt>
      <trkpt lat="40.8355760" lon="-8.2867550">
        <ele>864.6</ele>
        <time>2022-08-14T10:02:14Z</time>
      </trkpt>
      <trkpt lat="40.8355750" lon="-8.2866790">
        <ele>865.4</ele>
        <time>2022-08-14T10:02:18Z</time>
      </trkpt>
      <trkpt lat="40.8355910" lon="-8.2865880">
        <ele>866.6</ele>
        <time>2022-08-14T10:02:23Z</time>
      </trkpt>
      <trkpt lat="40.8355880" lon="-8.2865090">
        <ele>867.6</ele>
        <time>2022-08-14T10:02:27Z</time>
      </trkpt>
      <trkpt lat="40.8355820" lon="-8.2864930">
        <ele>868.0</ele>
        <time>2022-08-14T10:02:28Z</time>
      </trkpt>
      <trkpt lat="40.8355720" lon="-8.2864010">
        <ele>868.8</ele>
        <time>2022-08-14T10:02:33Z</time>
      </trkpt>
      <trkpt lat="40.8355750" lon="-8.2863820">
        <ele>869.0</ele>
        <time>2022-08-14T10:02:34Z</time>
      </trkpt>
      <trkpt lat="40.8356070" lon="-8.2862400">
        <ele>870.0</ele>
        <time>2022-08-14T10:02:42Z</time>
      </trkpt>
      <trkpt lat="40.8356080" lon="-8.2862260">
        <ele>870.0</ele>
        <time>2022-08-14T10:02:43Z</time>
      </trkpt>
      <trkpt lat="40.8355860" lon="-8.2861760">
        <ele>871.0</ele>
        <time>2022-08-14T10:02:47Z</time>
      </trkpt>
      <trkpt lat="40.8355780" lon="-8.2861660">
        <ele>871.2</ele>
        <time>2022-08-14T10:02:48Z</time>
      </trkpt>
      <trkpt lat="40.8355510" lon="-8.2861490">
        <ele>871.6</ele>
        <time>2022-08-14T10:02:50Z</time>
      </trkpt>
      <trkpt lat="40.8354800" lon="-8.2861550">
        <ele>871.8</ele>
        <time>2022-08-14T10:02:53Z</time>
      </trkpt>
      <trkpt lat="40.8353140" lon="-8.2861280">
        <ele>871.4</ele>
        <time>2022-08-14T10:02:59Z</time>
      </trkpt>
      <trkpt lat="40.8352920" lon="-8.2861340">
        <ele>871.2</ele>
        <time>2022-08-14T10:03:01Z</time>
      </trkpt>
      <trkpt lat="40.8352880" lon="-8.2861370">
        <ele>871.2</ele>
        <time>2022-08-14T10:03:03Z</time>
      </trkpt>
      <trkpt lat="40.8352880" lon="-8.2861360">
        <ele>871.2</ele>
        <time>2022-08-14T10:03:04Z</time>
      </trkpt>
      <trkpt lat="40.8353330" lon="-8.2861120">
        <ele>871.8</ele>
        <time>2022-08-14T10:03:11Z</time>
      </trkpt>
      <trkpt lat="40.8353900" lon="-8.2861270">
        <ele>871.8</ele>
        <time>2022-08-14T10:03:13Z</time>
      </trkpt>
      <trkpt lat="40.8355300" lon="-8.2861720">
        <ele>872.0</ele>
        <time>2022-08-14T10:03:21Z</time>
      </trkpt>
      <trkpt lat="40.8355790" lon="-8.2861810">
        <ele>872.0</ele>
        <time>2022-08-14T10:03:25Z</time>
      </trkpt>
      <trkpt lat="40.8355900" lon="-8.2861760">
        <ele>872.2</ele>
        <time>2022-08-14T10:03:26Z</time>
      </trkpt>
      <trkpt lat="40.8356020" lon="-8.2861650">
        <ele>872.2</ele>
        <time>2022-08-14T10:03:27Z</time>
      </trkpt>
      <trkpt lat="40.8356870" lon="-8.2860520">
        <ele>873.2</ele>
        <time>2022-08-14T10:03:34Z</time>
      </trkpt>
      <trkpt lat="40.8356970" lon="-8.2860360">
        <ele>873.4</ele>
        <time>2022-08-14T10:03:35Z</time>
      </trkpt>
      <trkpt lat="40.8357510" lon="-8.2859810">
        <ele>874.4</ele>
        <time>2022-08-14T10:03:39Z</time>
      </trkpt>
      <trkpt lat="40.8357930" lon="-8.2859480">
        <ele>875.2</ele>
        <time>2022-08-14T10:03:42Z</time>
      </trkpt>
      <trkpt lat="40.8358220" lon="-8.2859230">
        <ele>875.6</ele>
        <time>2022-08-14T10:03:44Z</time>
      </trkpt>
      <trkpt lat="40.8358330" lon="-8.2859110">
        <ele>875.8</ele>
        <time>2022-08-14T10:03:45Z</time>
      </trkpt>
      <trkpt lat="40.8358630" lon="-8.2858990">
        <ele>876.4</ele>
        <time>2022-08-14T10:03:47Z</time>
      </trkpt>
      <trkpt lat="40.8358800" lon="-8.2858930">
        <ele>876.6</ele>
        <time>2022-08-14T10:03:48Z</time>
      </trkpt>
      <trkpt lat="40.8360190" lon="-8.2858980">
        <ele>877.4</ele>
        <time>2022-08-14T10:03:56Z</time>
      </trkpt>
      <trkpt lat="40.8360870" lon="-8.2858990">
        <ele>877.6</ele>
        <time>2022-08-14T10:04:00Z</time>
      </trkpt>
      <trkpt lat="40.8361500" lon="-8.2859270">
        <ele>878.6</ele>
        <time>2022-08-14T10:04:04Z</time>
      </trkpt>
      <trkpt lat="40.8361670" lon="-8.2859340">
        <ele>878.8</ele>
        <time>2022-08-14T10:04:05Z</time>
      </trkpt>
      <trkpt lat="40.8362230" lon="-8.2859450">
        <ele>879.2</ele>
        <time>2022-08-14T10:04:08Z</time>
      </trkpt>
      <trkpt lat="40.8363030" lon="-8.2859710">
        <ele>880.0</ele>
        <time>2022-08-14T10:04:12Z</time>
      </trkpt>
      <trkpt lat="40.8364010" lon="-8.2860160">
        <ele>880.8</ele>
        <time>2022-08-14T10:04:17Z</time>
      </trkpt>
      <trkpt lat="40.8364820" lon="-8.2860550">
        <ele>881.8</ele>
        <time>2022-08-14T10:04:21Z</time>
      </trkpt>
      <trkpt lat="40.8365030" lon="-8.2860660">
        <ele>882.2</ele>
        <time>2022-08-14T10:04:22Z</time>
      </trkpt>
      <trkpt lat="40.8365820" lon="-8.2861050">
        <ele>883.0</ele>
        <time>2022-08-14T10:04:26Z</time>
      </trkpt>
      <trkpt lat="40.8366430" lon="-8.2861210">
        <ele>884.2</ele>
        <time>2022-08-14T10:04:29Z</time>
      </trkpt>
      <trkpt lat="40.8367000" lon="-8.2861290">
        <ele>884.6</ele>
        <time>2022-08-14T10:04:32Z</time>
      </trkpt>
      <trkpt lat="40.8367670" lon="-8.2861230">
        <ele>885.2</ele>
        <time>2022-08-14T10:04:35Z</time>
      </trkpt>
      <trkpt lat="40.8368740" lon="-8.2860790">
        <ele>886.0</ele>
        <time>2022-08-14T10:04:40Z</time>
      </trkpt>
      <trkpt lat="40.8368940" lon="-8.2860690">
        <ele>886.2</ele>
        <time>2022-08-14T10:04:41Z</time>
      </trkpt>
      <trkpt lat="40.8369660" lon="-8.2860120">
        <ele>887.0</ele>
        <time>2022-08-14T10:04:45Z</time>
      </trkpt>
      <trkpt lat="40.8370520" lon="-8.2859290">
        <ele>887.8</ele>
        <time>2022-08-14T10:04:50Z</time>
      </trkpt>
      <trkpt lat="40.8370830" lon="-8.2858990">
        <ele>888.2</ele>
        <time>2022-08-14T10:04:52Z</time>
      </trkpt>
      <trkpt lat="40.8371460" lon="-8.2858330">
        <ele>889.4</ele>
        <time>2022-08-14T10:04:56Z</time>
      </trkpt>
      <trkpt lat="40.8372010" lon="-8.2857580">
        <ele>890.4</ele>
        <time>2022-08-14T10:05:00Z</time>
      </trkpt>
      <trkpt lat="40.8372170" lon="-8.2857240">
        <ele>890.6</ele>
        <time>2022-08-14T10:05:02Z</time>
      </trkpt>
      <trkpt lat="40.8372660" lon="-8.2856410">
        <ele>891.4</ele>
        <time>2022-08-14T10:05:07Z</time>
      </trkpt>
      <trkpt lat="40.8373110" lon="-8.2856000">
        <ele>891.8</ele>
        <time>2022-08-14T10:05:12Z</time>
      </trkpt>
      <trkpt lat="40.8373340" lon="-8.2855710">
        <ele>891.8</ele>
        <time>2022-08-14T10:05:13Z</time>
      </trkpt>
      <trkpt lat="40.8373580" lon="-8.2855290">
        <ele>892.2</ele>
        <time>2022-08-14T10:05:16Z</time>
      </trkpt>
      <trkpt lat="40.8373560" lon="-8.2855140">
        <ele>892.2</ele>
        <time>2022-08-14T10:05:17Z</time>
      </trkpt>
      <trkpt lat="40.8373570" lon="-8.2854830">
        <ele>892.4</ele>
        <time>2022-08-14T10:05:19Z</time>
      </trkpt>
      <trkpt lat="40.8373710" lon="-8.2854270">
        <ele>893.0</ele>
        <time>2022-08-14T10:05:22Z</time>
      </trkpt>
      <trkpt lat="40.8373820" lon="-8.2854150">
        <ele>893.4</ele>
        <time>2022-08-14T10:05:23Z</time>
      </trkpt>
      <trkpt lat="40.8373930" lon="-8.2854050">
        <ele>893.4</ele>
        <time>2022-08-14T10:05:24Z</time>
      </trkpt>
      <trkpt lat="40.8374420" lon="-8.2853660">
        <ele>894.6</ele>
        <time>2022-08-14T10:05:28Z</time>
      </trkpt>
      <trkpt lat="40.8375090" lon="-8.2853180">
        <ele>895.8</ele>
        <time>2022-08-14T10:05:33Z</time>
      </trkpt>
      <trkpt lat="40.8375210" lon="-8.2853120">
        <ele>896.0</ele>
        <time>2022-08-14T10:05:34Z</time>
      </trkpt>
      <trkpt lat="40.8375670" lon="-8.2852830">
        <ele>897.2</ele>
        <time>2022-08-14T10:05:38Z</time>
      </trkpt>
      <trkpt lat="40.8376130" lon="-8.2852590">
        <ele>898.2</ele>
        <time>2022-08-14T10:05:42Z</time>
      </trkpt>
      <trkpt lat="40.8376610" lon="-8.2852310">
        <ele>899.2</ele>
        <time>2022-08-14T10:05:46Z</time>
      </trkpt>
      <trkpt lat="40.8377160" lon="-8.2851640">
        <ele>900.4</ele>
        <time>2022-08-14T10:05:52Z</time>
      </trkpt>
      <trkpt lat="40.8377550" lon="-8.2850930">
        <ele>901.8</ele>
        <time>2022-08-14T10:05:58Z</time>
      </trkpt>
      <trkpt lat="40.8377820" lon="-8.2850520">
        <ele>902.4</ele>
        <time>2022-08-14T10:06:01Z</time>
      </trkpt>
      <trkpt lat="40.8377970" lon="-8.2850280">
        <ele>903.0</ele>
        <time>2022-08-14T10:06:03Z</time>
      </trkpt>
      <trkpt lat="40.8378520" lon="-8.2849500">
        <ele>904.0</ele>
        <time>2022-08-14T10:06:09Z</time>
      </trkpt>
      <trkpt lat="40.8378730" lon="-8.2849250">
        <ele>904.6</ele>
        <time>2022-08-14T10:06:11Z</time>
      </trkpt>
      <trkpt lat="40.8379010" lon="-8.2848910">
        <ele>905.0</ele>
        <time>2022-08-14T10:06:14Z</time>
      </trkpt>
      <trkpt lat="40.8379220" lon="-8.2848580">
        <ele>906.4</ele>
        <time>2022-08-14T10:06:17Z</time>
      </trkpt>
      <trkpt lat="40.8379390" lon="-8.2848400">
        <ele>907.4</ele>
        <time>2022-08-14T10:06:19Z</time>
      </trkpt>
      <trkpt lat="40.8379490" lon="-8.2848320">
        <ele>907.8</ele>
        <time>2022-08-14T10:06:20Z</time>
      </trkpt>
      <trkpt lat="40.8379680" lon="-8.2848120">
        <ele>908.4</ele>
        <time>2022-08-14T10:06:22Z</time>
      </trkpt>
      <trkpt lat="40.8380050" lon="-8.2847780">
        <ele>909.4</ele>
        <time>2022-08-14T10:06:26Z</time>
      </trkpt>
      <trkpt lat="40.8380600" lon="-8.2847360">
        <ele>910.8</ele>
        <time>2022-08-14T10:06:31Z</time>
      </trkpt>
      <trkpt lat="40.8380720" lon="-8.2847260">
        <ele>911.0</ele>
        <time>2022-08-14T10:06:32Z</time>
      </trkpt>
      <trkpt lat="40.8381420" lon="-8.2846730">
        <ele>912.0</ele>
        <time>2022-08-14T10:06:38Z</time>
      </trkpt>
      <trkpt lat="40.8381890" lon="-8.2846450">
        <ele>912.8</ele>
        <time>2022-08-14T10:06:42Z</time>
      </trkpt>
      <trkpt lat="40.8382020" lon="-8.2846440">
        <ele>913.0</ele>
        <time>2022-08-14T10:06:43Z</time>
      </trkpt>
      <trkpt lat="40.8382720" lon="-8.2846090">
        <ele>913.4</ele>
        <time>2022-08-14T10:06:49Z</time>
      </trkpt>
      <trkpt lat="40.8383540" lon="-8.2846050">
        <ele>914.0</ele>
        <time>2022-08-14T10:06:55Z</time>
      </trkpt>
      <trkpt lat="40.8383620" lon="-8.2846130">
        <ele>914.0</ele>
        <time>2022-08-14T10:06:56Z</time>
      </trkpt>
      <trkpt lat="40.8383690" lon="-8.2846290">
        <ele>914.0</ele>
        <time>2022-08-14T10:06:57Z</time>
      </trkpt>
      <trkpt lat="40.8384010" lon="-8.2846760">
        <ele>914.8</ele>
        <time>2022-08-14T10:07:00Z</time>
      </trkpt>
      <trkpt lat="40.8384330" lon="-8.2847000">
        <ele>915.2</ele>
        <time>2022-08-14T10:07:02Z</time>
      </trkpt>
      <trkpt lat="40.8384490" lon="-8.2847120">
        <ele>915.4</ele>
        <time>2022-08-14T10:07:04Z</time>
      </trkpt>
      <trkpt lat="40.8384680" lon="-8.2847540">
        <ele>915.6</ele>
        <time>2022-08-14T10:07:05Z</time>
      </trkpt>
      <trkpt lat="40.8384810" lon="-8.2848060">
        <ele>916.4</ele>
        <time>2022-08-14T10:07:07Z</time>
      </trkpt>
      <trkpt lat="40.8384910" lon="-8.2848600">
        <ele>916.8</ele>
        <time>2022-08-14T10:07:09Z</time>
      </trkpt>
      <trkpt lat="40.8385070" lon="-8.2849050">
        <ele>917.4</ele>
        <time>2022-08-14T10:07:12Z</time>
      </trkpt>
      <trkpt lat="40.8385410" lon="-8.2850030">
        <ele>917.8</ele>
        <time>2022-08-14T10:07:15Z</time>
      </trkpt>
      <trkpt lat="40.8385530" lon="-8.2851450">
        <ele>918.4</ele>
        <time>2022-08-14T10:07:20Z</time>
      </trkpt>
      <trkpt lat="40.8385600" lon="-8.2851980">
        <ele>918.6</ele>
        <time>2022-08-14T10:07:22Z</time>
      </trkpt>
      <trkpt lat="40.8385590" lon="-8.2853550">
        <ele>919.4</ele>
        <time>2022-08-14T10:07:28Z</time>
      </trkpt>
      <trkpt lat="40.8385590" lon="-8.2853820">
        <ele>919.4</ele>
        <time>2022-08-14T10:07:29Z</time>
      </trkpt>
      <trkpt lat="40.8385590" lon="-8.2856470">
        <ele>920.6</ele>
        <time>2022-08-14T10:07:39Z</time>
      </trkpt>
      <trkpt lat="40.8385510" lon="-8.2858390">
        <ele>921.4</ele>
        <time>2022-08-14T10:07:46Z</time>
      </trkpt>
      <trkpt lat="40.8385570" lon="-8.2859190">
        <ele>921.6</ele>
        <time>2022-08-14T10:07:49Z</time>
      </trkpt>
      <trkpt lat="40.8385480" lon="-8.2859870">
        <ele>921.8</ele>
        <time>2022-08-14T10:07:52Z</time>
      </trkpt>
      <trkpt lat="40.8385680" lon="-8.2859800">
        <ele>922.0</ele>
        <time>2022-08-14T10:07:55Z</time>
      </trkpt>
      <trkpt lat="40.8385690" lon="-8.2859620">
        <ele>922.0</ele>
        <time>2022-08-14T10:07:56Z</time>
      </trkpt>
      <trkpt lat="40.8385660" lon="-8.2858230">
        <ele>921.8</ele>
        <time>2022-08-14T10:08:03Z</time>
      </trkpt>
      <trkpt lat="40.8385660" lon="-8.2857270">
        <ele>921.6</ele>
        <time>2022-08-14T10:08:07Z</time>
      </trkpt>
      <trkpt lat="40.8385670" lon="-8.2856470">
        <ele>921.2</ele>
        <time>2022-08-14T10:08:11Z</time>
      </trkpt>
      <trkpt lat="40.8385630" lon="-8.2856160">
        <ele>921.0</ele>
        <time>2022-08-14T10:08:13Z</time>
      </trkpt>
      <trkpt lat="40.8385400" lon="-8.2855720">
        <ele>920.6</ele>
        <time>2022-08-14T10:08:16Z</time>
      </trkpt>
      <trkpt lat="40.8385350" lon="-8.2855570">
        <ele>920.4</ele>
        <time>2022-08-14T10:08:17Z</time>
      </trkpt>
      <trkpt lat="40.8385370" lon="-8.2855220">
        <ele>920.2</ele>
        <time>2022-08-14T10:08:19Z</time>
      </trkpt>
      <trkpt lat="40.8385620" lon="-8.2855100">
        <ele>920.0</ele>
        <time>2022-08-14T10:08:21Z</time>
      </trkpt>
      <trkpt lat="40.8385670" lon="-8.2855560">
        <ele>919.8</ele>
        <time>2022-08-14T10:08:23Z</time>
      </trkpt>
      <trkpt lat="40.8385550" lon="-8.2856300">
        <ele>919.6</ele>
        <time>2022-08-14T10:08:26Z</time>
      </trkpt>
      <trkpt lat="40.8385520" lon="-8.2856790">
        <ele>919.6</ele>
        <time>2022-08-14T10:08:28Z</time>
      </trkpt>
      <trkpt lat="40.8385530" lon="-8.2858590">
        <ele>919.6</ele>
        <time>2022-08-14T10:08:35Z</time>
      </trkpt>
      <trkpt lat="40.8385560" lon="-8.2859680">
        <ele>920.6</ele>
        <time>2022-08-14T10:08:39Z</time>
      </trkpt>
      <trkpt lat="40.8385500" lon="-8.2860980">
        <ele>921.6</ele>
        <time>2022-08-14T10:08:44Z</time>
      </trkpt>
      <trkpt lat="40.8385490" lon="-8.2862590">
        <ele>922.4</ele>
        <time>2022-08-14T10:08:50Z</time>
      </trkpt>
      <trkpt lat="40.8385430" lon="-8.2863080">
        <ele>922.6</ele>
        <time>2022-08-14T10:08:52Z</time>
      </trkpt>
      <trkpt lat="40.8385540" lon="-8.2864270">
        <ele>922.8</ele>
        <time>2022-08-14T10:08:57Z</time>
      </trkpt>
      <trkpt lat="40.8385710" lon="-8.2864900">
        <ele>923.4</ele>
        <time>2022-08-14T10:09:00Z</time>
      </trkpt>
      <trkpt lat="40.8385790" lon="-8.2865110">
        <ele>923.8</ele>
        <time>2022-08-14T10:09:01Z</time>
      </trkpt>
      <trkpt lat="40.8385960" lon="-8.2865510">
        <ele>924.2</ele>
        <time>2022-08-14T10:09:03Z</time>
      </trkpt>
      <trkpt lat="40.8386180" lon="-8.2865890">
        <ele>925.4</ele>
        <time>2022-08-14T10:09:05Z</time>
      </trkpt>
      <trkpt lat="40.8386880" lon="-8.2866700">
        <ele>926.6</ele>
        <time>2022-08-14T10:09:10Z</time>
      </trkpt>
      <trkpt lat="40.8387010" lon="-8.2866860">
        <ele>926.8</ele>
        <time>2022-08-14T10:09:11Z</time>
      </trkpt>
      <trkpt lat="40.8387740" lon="-8.2867650">
        <ele>927.2</ele>
        <time>2022-08-14T10:09:16Z</time>
      </trkpt>
      <trkpt lat="40.8388310" lon="-8.2867990">
        <ele>927.6</ele>
        <time>2022-08-14T10:09:19Z</time>
      </trkpt>
      <trkpt lat="40.8389450" lon="-8.2868430">
        <ele>928.4</ele>
        <time>2022-08-14T10:09:25Z</time>
      </trkpt>
      <trkpt lat="40.8389990" lon="-8.2868510">
        <ele>928.6</ele>
        <time>2022-08-14T10:09:28Z</time>
      </trkpt>
      <trkpt lat="40.8390940" lon="-8.2868640">
        <ele>929.4</ele>
        <time>2022-08-14T10:09:33Z</time>
      </trkpt>
      <trkpt lat="40.8391370" lon="-8.2868630">
        <ele>929.6</ele>
        <time>2022-08-14T10:09:35Z</time>
      </trkpt>
      <trkpt lat="40.8392570" lon="-8.2868500">
        <ele>930.4</ele>
        <time>2022-08-14T10:09:42Z</time>
      </trkpt>
      <trkpt lat="40.8392940" lon="-8.2868400">
        <ele>930.8</ele>
        <time>2022-08-14T10:09:44Z</time>
      </trkpt>
      <trkpt lat="40.8394440" lon="-8.2867940">
        <ele>931.6</ele>
        <time>2022-08-14T10:09:52Z</time>
      </trkpt>
      <trkpt lat="40.8394610" lon="-8.2867900">
        <ele>931.8</ele>
        <time>2022-08-14T10:09:53Z</time>
      </trkpt>
      <trkpt lat="40.8395440" lon="-8.2867550">
        <ele>933.0</ele>
        <time>2022-08-14T10:09:58Z</time>
      </trkpt>
      <trkpt lat="40.8395770" lon="-8.2867380">
        <ele>934.2</ele>
        <time>2022-08-14T10:10:00Z</time>
      </trkpt>
      <trkpt lat="40.8395920" lon="-8.2867290">
        <ele>935.4</ele>
        <time>2022-08-14T10:10:01Z</time>
      </trkpt>
      <trkpt lat="40.8396070" lon="-8.2867200">
        <ele>936.0</ele>
        <time>2022-08-14T10:10:02Z</time>
      </trkpt>
      <trkpt lat="40.8396540" lon="-8.2866830">
        <ele>936.4</ele>
        <time>2022-08-14T10:10:05Z</time>
      </trkpt>
      <trkpt lat="40.8397460" lon="-8.2866310">
        <ele>936.8</ele>
        <time>2022-08-14T10:10:11Z</time>
      </trkpt>
      <trkpt lat="40.8398220" lon="-8.2865260">
        <ele>937.2</ele>
        <time>2022-08-14T10:10:15Z</time>
      </trkpt>
      <trkpt lat="40.8398220" lon="-8.2865260">
        <ele>937.2</ele>
        <time>2022-08-14T10:10:16Z</time>
      </trkpt>
      <trkpt lat="40.8398370" lon="-8.2863530">
        <ele>937.4</ele>
        <time>2022-08-14T10:10:22Z</time>
      </trkpt>
      <trkpt lat="40.8398380" lon="-8.2863050">
        <ele>937.6</ele>
        <time>2022-08-14T10:10:23Z</time>
      </trkpt>
      <trkpt lat="40.8398370" lon="-8.2862560">
        <ele>938.4</ele>
        <time>2022-08-14T10:10:26Z</time>
      </trkpt>
      <trkpt lat="40.8398420" lon="-8.2862190">
        <ele>939.0</ele>
        <time>2022-08-14T10:10:27Z</time>
      </trkpt>
      <trkpt lat="40.8398520" lon="-8.2861980">
        <ele>939.2</ele>
        <time>2022-08-14T10:10:28Z</time>
      </trkpt>
      <trkpt lat="40.8398700" lon="-8.2861710">
        <ele>939.6</ele>
        <time>2022-08-14T10:10:30Z</time>
      </trkpt>
      <trkpt lat="40.8399270" lon="-8.2860790">
        <ele>940.8</ele>
        <time>2022-08-14T10:10:36Z</time>
      </trkpt>
      <trkpt lat="40.8399730" lon="-8.2859850">
        <ele>941.8</ele>
        <time>2022-08-14T10:10:43Z</time>
      </trkpt>
      <trkpt lat="40.8400100" lon="-8.2859120">
        <ele>943.2</ele>
        <time>2022-08-14T10:10:47Z</time>
      </trkpt>
      <trkpt lat="40.8400270" lon="-8.2858210">
        <ele>944.2</ele>
        <time>2022-08-14T10:10:51Z</time>
      </trkpt>
      <trkpt lat="40.8400390" lon="-8.2856910">
        <ele>945.4</ele>
        <time>2022-08-14T10:10:58Z</time>
      </trkpt>
      <trkpt lat="40.8400270" lon="-8.2856420">
        <ele>945.6</ele>
        <time>2022-08-14T10:11:01Z</time>
      </trkpt>
      <trkpt lat="40.8400320" lon="-8.2855880">
        <ele>946.0</ele>
        <time>2022-08-14T10:11:04Z</time>
      </trkpt>
      <trkpt lat="40.8400440" lon="-8.2855370">
        <ele>946.2</ele>
        <time>2022-08-14T10:11:07Z</time>
      </trkpt>
      <trkpt lat="40.8400530" lon="-8.2854990">
        <ele>946.4</ele>
        <time>2022-08-14T10:11:09Z</time>
      </trkpt>
      <trkpt lat="40.8400830" lon="-8.2854080">
        <ele>947.6</ele>
        <time>2022-08-14T10:11:15Z</time>
      </trkpt>
      <trkpt lat="40.8400940" lon="-8.2853730">
        <ele>947.8</ele>
        <time>2022-08-14T10:11:16Z</time>
      </trkpt>
      <trkpt lat="40.8401140" lon="-8.2852330">
        <ele>948.8</ele>
        <time>2022-08-14T10:11:23Z</time>
      </trkpt>
      <trkpt lat="40.8401170" lon="-8.2852110">
        <ele>948.8</ele>
        <time>2022-08-14T10:11:24Z</time>
      </trkpt>
      <trkpt lat="40.8401590" lon="-8.2850660">
        <ele>949.8</ele>
        <time>2022-08-14T10:11:31Z</time>
      </trkpt>
      <trkpt lat="40.8401770" lon="-8.2850030">
        <ele>950.4</ele>
        <time>2022-08-14T10:11:34Z</time>
      </trkpt>
      <trkpt lat="40.8402060" lon="-8.2849050">
        <ele>951.0</ele>
        <time>2022-08-14T10:11:39Z</time>
      </trkpt>
      <trkpt lat="40.8402350" lon="-8.2848490">
        <ele>951.4</ele>
        <time>2022-08-14T10:11:42Z</time>
      </trkpt>
      <trkpt lat="40.8402420" lon="-8.2848080">
        <ele>952.0</ele>
        <time>2022-08-14T10:11:44Z</time>
      </trkpt>
      <trkpt lat="40.8402620" lon="-8.2847270">
        <ele>952.8</ele>
        <time>2022-08-14T10:11:48Z</time>
      </trkpt>
      <trkpt lat="40.8402810" lon="-8.2846410">
        <ele>953.0</ele>
        <time>2022-08-14T10:11:52Z</time>
      </trkpt>
      <trkpt lat="40.8403040" lon="-8.2844920">
        <ele>953.4</ele>
        <time>2022-08-14T10:11:59Z</time>
      </trkpt>
      <trkpt lat="40.8403340" lon="-8.2843470">
        <ele>954.0</ele>
        <time>2022-08-14T10:12:06Z</time>
      </trkpt>
      <trkpt lat="40.8403400" lon="-8.2843260">
        <ele>954.2</ele>
        <time>2022-08-14T10:12:07Z</time>
      </trkpt>
      <trkpt lat="40.8403590" lon="-8.2842170">
        <ele>955.2</ele>
        <time>2022-08-14T10:12:12Z</time>
      </trkpt>
      <trkpt lat="40.8403720" lon="-8.2841790">
        <ele>955.6</ele>
        <time>2022-08-14T10:12:14Z</time>
      </trkpt>
      <trkpt lat="40.8404030" lon="-8.2840720">
        <ele>956.4</ele>
        <time>2022-08-14T10:12:19Z</time>
      </trkpt>
      <trkpt lat="40.8404150" lon="-8.2840490">
        <ele>956.4</ele>
        <time>2022-08-14T10:12:20Z</time>
      </trkpt>
      <trkpt lat="40.8404680" lon="-8.2838300">
        <ele>956.6</ele>
        <time>2022-08-14T10:12:27Z</time>
      </trkpt>
      <trkpt lat="40.8404820" lon="-8.2835710">
        <ele>957.4</ele>
        <time>2022-08-14T10:12:36Z</time>
      </trkpt>
      <trkpt lat="40.8405020" lon="-8.2833800">
        <ele>958.2</ele>
        <time>2022-08-14T10:12:44Z</time>
      </trkpt>
      <trkpt lat="40.8405130" lon="-8.2833100">
        <ele>958.6</ele>
        <time>2022-08-14T10:12:47Z</time>
      </trkpt>
      <trkpt lat="40.8405510" lon="-8.2831260">
        <ele>959.0</ele>
        <time>2022-08-14T10:12:55Z</time>
      </trkpt>
      <trkpt lat="40.8405690" lon="-8.2830810">
        <ele>959.6</ele>
        <time>2022-08-14T10:12:57Z</time>
      </trkpt>
      <trkpt lat="40.8406560" lon="-8.2828620">
        <ele>960.6</ele>
        <time>2022-08-14T10:13:06Z</time>
      </trkpt>
      <trkpt lat="40.8406560" lon="-8.2828620">
        <ele>960.6</ele>
        <time>2022-08-14T10:13:07Z</time>
      </trkpt>
      <trkpt lat="40.8407120" lon="-8.2826180">
        <ele>960.8</ele>
        <time>2022-08-14T10:13:15Z</time>
      </trkpt>
      <trkpt lat="40.8406830" lon="-8.2824790">
        <ele>960.8</ele>
        <time>2022-08-14T10:13:21Z</time>
      </trkpt>
      <trkpt lat="40.8406290" lon="-8.2823470">
        <ele>961.6</ele>
        <time>2022-08-14T10:13:28Z</time>
      </trkpt>
      <trkpt lat="40.8406170" lon="-8.2822190">
        <ele>962.6</ele>
        <time>2022-08-14T10:13:34Z</time>
      </trkpt>
      <trkpt lat="40.8406170" lon="-8.2822000">
        <ele>962.6</ele>
        <time>2022-08-14T10:13:35Z</time>
      </trkpt>
      <trkpt lat="40.8406250" lon="-8.2821200">
        <ele>963.6</ele>
        <time>2022-08-14T10:13:39Z</time>
      </trkpt>
      <trkpt lat="40.8406290" lon="-8.2821020">
        <ele>963.8</ele>
        <time>2022-08-14T10:13:40Z</time>
      </trkpt>
      <trkpt lat="40.8406630" lon="-8.2820130">
        <ele>964.6</ele>
        <time>2022-08-14T10:13:45Z</time>
      </trkpt>
      <trkpt lat="40.8406970" lon="-8.2819430">
        <ele>965.4</ele>
        <time>2022-08-14T10:13:49Z</time>
      </trkpt>
      <trkpt lat="40.8407060" lon="-8.2819260">
        <ele>965.6</ele>
        <time>2022-08-14T10:13:50Z</time>
      </trkpt>
      <trkpt lat="40.8407460" lon="-8.2818390">
        <ele>966.6</ele>
        <time>2022-08-14T10:13:55Z</time>
      </trkpt>
      <trkpt lat="40.8407730" lon="-8.2817860">
        <ele>967.0</ele>
        <time>2022-08-14T10:13:58Z</time>
      </trkpt>
      <trkpt lat="40.8408530" lon="-8.2816230">
        <ele>967.8</ele>
        <time>2022-08-14T10:14:07Z</time>
      </trkpt>
      <trkpt lat="40.8408860" lon="-8.2815670">
        <ele>968.2</ele>
        <time>2022-08-14T10:14:10Z</time>
      </trkpt>
      <trkpt lat="40.8409310" lon="-8.2814260">
        <ele>969.0</ele>
        <time>2022-08-14T10:14:17Z</time>
      </trkpt>
      <trkpt lat="40.8409460" lon="-8.2813830">
        <ele>969.2</ele>
        <time>2022-08-14T10:14:19Z</time>
      </trkpt>
      <trkpt lat="40.8409660" lon="-8.2812440">
        <ele>970.0</ele>
        <time>2022-08-14T10:14:25Z</time>
      </trkpt>
      <trkpt lat="40.8409720" lon="-8.2811690">
        <ele>970.2</ele>
        <time>2022-08-14T10:14:28Z</time>
      </trkpt>
      <trkpt lat="40.8409750" lon="-8.2810080">
        <ele>970.8</ele>
        <time>2022-08-14T10:14:35Z</time>
      </trkpt>
      <trkpt lat="40.8409770" lon="-8.2809840">
        <ele>970.8</ele>
        <time>2022-08-14T10:14:36Z</time>
      </trkpt>
      <trkpt lat="40.8410020" lon="-8.2807150">
        <ele>971.6</ele>
        <time>2022-08-14T10:14:46Z</time>
      </trkpt>
      <trkpt lat="40.8410150" lon="-8.2806190">
        <ele>971.8</ele>
        <time>2022-08-14T10:14:49Z</time>
      </trkpt>
      <trkpt lat="40.8410570" lon="-8.2804390">
        <ele>972.4</ele>
        <time>2022-08-14T10:14:55Z</time>
      </trkpt>
      <trkpt lat="40.8410770" lon="-8.2803340">
        <ele>972.6</ele>
        <time>2022-08-14T10:14:58Z</time>
      </trkpt>
      <trkpt lat="40.8410660" lon="-8.2801800">
        <ele>972.6</ele>
        <time>2022-08-14T10:15:02Z</time>
      </trkpt>
      <trkpt lat="40.8410030" lon="-8.2800030">
        <ele>972.6</ele>
        <time>2022-08-14T10:15:07Z</time>
      </trkpt>
      <trkpt lat="40.8409650" lon="-8.2799160">
        <ele>972.8</ele>
        <time>2022-08-14T10:15:10Z</time>
      </trkpt>
      <trkpt lat="40.8409300" lon="-8.2797910">
        <ele>973.6</ele>
        <time>2022-08-14T10:15:16Z</time>
      </trkpt>
      <trkpt lat="40.8409230" lon="-8.2797740">
        <ele>974.0</ele>
        <time>2022-08-14T10:15:17Z</time>
      </trkpt>
      <trkpt lat="40.8408970" lon="-8.2796890">
        <ele>974.8</ele>
        <time>2022-08-14T10:15:21Z</time>
      </trkpt>
      <trkpt lat="40.8408890" lon="-8.2795960">
        <ele>976.4</ele>
        <time>2022-08-14T10:15:26Z</time>
      </trkpt>
      <trkpt lat="40.8408880" lon="-8.2795770">
        <ele>976.4</ele>
        <time>2022-08-14T10:15:27Z</time>
      </trkpt>
      <trkpt lat="40.8408920" lon="-8.2795200">
        <ele>977.6</ele>
        <time>2022-08-14T10:15:30Z</time>
      </trkpt>
      <trkpt lat="40.8409050" lon="-8.2794480">
        <ele>978.6</ele>
        <time>2022-08-14T10:15:34Z</time>
      </trkpt>
      <trkpt lat="40.8409080" lon="-8.2794300">
        <ele>978.8</ele>
        <time>2022-08-14T10:15:35Z</time>
      </trkpt>
      <trkpt lat="40.8409090" lon="-8.2793680">
        <ele>979.8</ele>
        <time>2022-08-14T10:15:38Z</time>
      </trkpt>
      <trkpt lat="40.8409170" lon="-8.2792770">
        <ele>981.0</ele>
        <time>2022-08-14T10:15:43Z</time>
      </trkpt>
      <trkpt lat="40.8409190" lon="-8.2792620">
        <ele>981.2</ele>
        <time>2022-08-14T10:15:44Z</time>
      </trkpt>
      <trkpt lat="40.8409250" lon="-8.2792340">
        <ele>982.0</ele>
        <time>2022-08-14T10:15:48Z</time>
      </trkpt>
      <trkpt lat="40.8409770" lon="-8.2789250">
        <ele>988.6</ele>
        <time>2022-08-14T10:16:26Z</time>
      </trkpt>
      <trkpt lat="40.8409740" lon="-8.2788890">
        <ele>989.0</ele>
        <time>2022-08-14T10:16:28Z</time>
      </trkpt>
      <trkpt lat="40.8410070" lon="-8.2788290">
        <ele>989.2</ele>
        <time>2022-08-14T10:16:31Z</time>
      </trkpt>
      <trkpt lat="40.8410320" lon="-8.2788200">
        <ele>989.4</ele>
        <time>2022-08-14T10:16:33Z</time>
      </trkpt>
      <trkpt lat="40.8410460" lon="-8.2788260">
        <ele>989.6</ele>
        <time>2022-08-14T10:16:34Z</time>
      </trkpt>
      <trkpt lat="40.8410600" lon="-8.2788400">
        <ele>989.6</ele>
        <time>2022-08-14T10:16:35Z</time>
      </trkpt>
      <trkpt lat="40.8410720" lon="-8.2788540">
        <ele>990.0</ele>
        <time>2022-08-14T10:16:36Z</time>
      </trkpt>
      <trkpt lat="40.8411370" lon="-8.2789680">
        <ele>990.8</ele>
        <time>2022-08-14T10:16:41Z</time>
      </trkpt>
      <trkpt lat="40.8411860" lon="-8.2790910">
        <ele>991.8</ele>
        <time>2022-08-14T10:16:45Z</time>
      </trkpt>
      <trkpt lat="40.8411970" lon="-8.2791160">
        <ele>992.0</ele>
        <time>2022-08-14T10:16:46Z</time>
      </trkpt>
      <trkpt lat="40.8412610" lon="-8.2792500">
        <ele>992.2</ele>
        <time>2022-08-14T10:16:53Z</time>
      </trkpt>
      <trkpt lat="40.8413600" lon="-8.2794100">
        <ele>993.0</ele>
        <time>2022-08-14T10:17:01Z</time>
      </trkpt>
      <trkpt lat="40.8413710" lon="-8.2794200">
        <ele>993.0</ele>
        <time>2022-08-14T10:17:02Z</time>
      </trkpt>
      <trkpt lat="40.8414420" lon="-8.2795130">
        <ele>993.8</ele>
        <time>2022-08-14T10:17:09Z</time>
      </trkpt>
      <trkpt lat="40.8414660" lon="-8.2795450">
        <ele>994.0</ele>
        <time>2022-08-14T10:17:12Z</time>
      </trkpt>
      <trkpt lat="40.8414690" lon="-8.2795520">
        <ele>994.2</ele>
        <time>2022-08-14T10:17:15Z</time>
      </trkpt>
      <trkpt lat="40.8414540" lon="-8.2795240">
        <ele>993.0</ele>
        <time>2022-08-14T10:18:32Z</time>
      </trkpt>
      <trkpt lat="40.8414240" lon="-8.2794740">
        <ele>992.8</ele>
        <time>2022-08-14T10:18:34Z</time>
      </trkpt>
      <trkpt lat="40.8413550" lon="-8.2793780">
        <ele>992.6</ele>
        <time>2022-08-14T10:18:37Z</time>
      </trkpt>
      <trkpt lat="40.8412930" lon="-8.2792760">
        <ele>992.2</ele>
        <time>2022-08-14T10:18:40Z</time>
      </trkpt>
      <trkpt lat="40.8411600" lon="-8.2790110">
        <ele>991.6</ele>
        <time>2022-08-14T10:18:49Z</time>
      </trkpt>
      <trkpt lat="40.8411140" lon="-8.2789200">
        <ele>991.4</ele>
        <time>2022-08-14T10:18:53Z</time>
      </trkpt>
      <trkpt lat="40.8410860" lon="-8.2788710">
        <ele>991.4</ele>
        <time>2022-08-14T10:18:55Z</time>
      </trkpt>
      <trkpt lat="40.8409400" lon="-8.2787890">
        <ele>991.2</ele>
        <time>2022-08-14T10:19:00Z</time>
      </trkpt>
      <trkpt lat="40.8408370" lon="-8.2787230">
        <ele>991.2</ele>
        <time>2022-08-14T10:19:03Z</time>
      </trkpt>
      <trkpt lat="40.8407300" lon="-8.2784790">
        <ele>990.6</ele>
        <time>2022-08-14T10:19:10Z</time>
      </trkpt>
      <trkpt lat="40.8407090" lon="-8.2783250">
        <ele>991.0</ele>
        <time>2022-08-14T10:19:14Z</time>
      </trkpt>
      <trkpt lat="40.8407370" lon="-8.2779900">
        <ele>991.8</ele>
        <time>2022-08-14T10:19:22Z</time>
      </trkpt>
      <trkpt lat="40.8407900" lon="-8.2777620">
        <ele>992.0</ele>
        <time>2022-08-14T10:19:28Z</time>
      </trkpt>
      <trkpt lat="40.8408970" lon="-8.2774600">
        <ele>992.6</ele>
        <time>2022-08-14T10:19:36Z</time>
      </trkpt>
      <trkpt lat="40.8409140" lon="-8.2774240">
        <ele>992.6</ele>
        <time>2022-08-14T10:19:37Z</time>
      </trkpt>
      <trkpt lat="40.8410820" lon="-8.2772330">
        <ele>992.8</ele>
        <time>2022-08-14T10:19:44Z</time>
      </trkpt>
      <trkpt lat="40.8414000" lon="-8.2771130">
        <ele>993.0</ele>
        <time>2022-08-14T10:19:54Z</time>
      </trkpt>
      <trkpt lat="40.8416650" lon="-8.2769720">
        <ele>993.6</ele>
        <time>2022-08-14T10:20:03Z</time>
      </trkpt>
      <trkpt lat="40.8416880" lon="-8.2769500">
        <ele>993.6</ele>
        <time>2022-08-14T10:20:04Z</time>
      </trkpt>
      <trkpt lat="40.8417880" lon="-8.2767910">
        <ele>994.8</ele>
        <time>2022-08-14T10:20:10Z</time>
      </trkpt>
      <trkpt lat="40.8418470" lon="-8.2766300">
        <ele>996.0</ele>
        <time>2022-08-14T10:20:15Z</time>
      </trkpt>
      <trkpt lat="40.8418810" lon="-8.2765260">
        <ele>996.2</ele>
        <time>2022-08-14T10:20:18Z</time>
      </trkpt>
      <trkpt lat="40.8419230" lon="-8.2763870">
        <ele>997.2</ele>
        <time>2022-08-14T10:20:22Z</time>
      </trkpt>
      <trkpt lat="40.8419870" lon="-8.2762050">
        <ele>998.0</ele>
        <time>2022-08-14T10:20:27Z</time>
      </trkpt>
      <trkpt lat="40.8419940" lon="-8.2761740">
        <ele>998.2</ele>
        <time>2022-08-14T10:20:28Z</time>
      </trkpt>
      <trkpt lat="40.8420390" lon="-8.2759860">
        <ele>999.4</ele>
        <time>2022-08-14T10:20:33Z</time>
      </trkpt>
      <trkpt lat="40.8420890" lon="-8.2758140">
        <ele>1000.2</ele>
        <time>2022-08-14T10:20:38Z</time>
      </trkpt>
      <trkpt lat="40.8421010" lon="-8.2757560">
        <ele>1000.6</ele>
        <time>2022-08-14T10:20:40Z</time>
      </trkpt>
      <trkpt lat="40.8421380" lon="-8.2756080">
        <ele>1001.2</ele>
        <time>2022-08-14T10:20:45Z</time>
      </trkpt>
      <trkpt lat="40.8421610" lon="-8.2755210">
        <ele>1001.8</ele>
        <time>2022-08-14T10:20:48Z</time>
      </trkpt>
      <trkpt lat="40.8421800" lon="-8.2754690">
        <ele>1002.4</ele>
        <time>2022-08-14T10:20:50Z</time>
      </trkpt>
      <trkpt lat="40.8422370" lon="-8.2752640">
        <ele>1003.4</ele>
        <time>2022-08-14T10:20:57Z</time>
      </trkpt>
      <trkpt lat="40.8422400" lon="-8.2752330">
        <ele>1003.4</ele>
        <time>2022-08-14T10:20:58Z</time>
      </trkpt>
      <trkpt lat="40.8422970" lon="-8.2750200">
        <ele>1004.0</ele>
        <time>2022-08-14T10:21:06Z</time>
      </trkpt>
      <trkpt lat="40.8422950" lon="-8.2749680">
        <ele>1004.4</ele>
        <time>2022-08-14T10:21:09Z</time>
      </trkpt>
      <trkpt lat="40.8422730" lon="-8.2749190">
        <ele>1005.0</ele>
        <time>2022-08-14T10:21:11Z</time>
      </trkpt>
      <trkpt lat="40.8422110" lon="-8.2748200">
        <ele>1005.6</ele>
        <time>2022-08-14T10:21:16Z</time>
      </trkpt>
      <trkpt lat="40.8421510" lon="-8.2747440">
        <ele>1006.2</ele>
        <time>2022-08-14T10:21:20Z</time>
      </trkpt>
      <trkpt lat="40.8420000" lon="-8.2745810">
        <ele>1006.6</ele>
        <time>2022-08-14T10:21:29Z</time>
      </trkpt>
      <trkpt lat="40.8419600" lon="-8.2745440">
        <ele>1006.6</ele>
        <time>2022-08-14T10:21:31Z</time>
      </trkpt>
      <trkpt lat="40.8417830" lon="-8.2743780">
        <ele>1005.8</ele>
        <time>2022-08-14T10:21:39Z</time>
      </trkpt>
      <trkpt lat="40.8417490" lon="-8.2743330">
        <ele>1005.6</ele>
        <time>2022-08-14T10:21:41Z</time>
      </trkpt>
      <trkpt lat="40.8415930" lon="-8.2741250">
        <ele>1005.4</ele>
        <time>2022-08-14T10:21:48Z</time>
      </trkpt>
      <trkpt lat="40.8415050" lon="-8.2740190">
        <ele>1004.6</ele>
        <time>2022-08-14T10:21:51Z</time>
      </trkpt>
      <trkpt lat="40.8413960" lon="-8.2738980">
        <ele>1004.0</ele>
        <time>2022-08-14T10:21:55Z</time>
      </trkpt>
      <trkpt lat="40.8413000" lon="-8.2738250">
        <ele>1003.4</ele>
        <time>2022-08-14T10:21:59Z</time>
      </trkpt>
      <trkpt lat="40.8412660" lon="-8.2737950">
        <ele>1003.2</ele>
        <time>2022-08-14T10:22:01Z</time>
      </trkpt>
      <trkpt lat="40.8411610" lon="-8.2736850">
        <ele>1003.2</ele>
        <time>2022-08-14T10:22:08Z</time>
      </trkpt>
      <trkpt lat="40.8410490" lon="-8.2735680">
        <ele>1002.6</ele>
        <time>2022-08-14T10:22:14Z</time>
      </trkpt>
      <trkpt lat="40.8408790" lon="-8.2733490">
        <ele>1002.2</ele>
        <time>2022-08-14T10:22:21Z</time>
      </trkpt>
      <trkpt lat="40.8408540" lon="-8.2733160">
        <ele>1002.2</ele>
        <time>2022-08-14T10:22:22Z</time>
      </trkpt>
      <trkpt lat="40.8407280" lon="-8.2731750">
        <ele>1001.2</ele>
        <time>2022-08-14T10:22:26Z</time>
      </trkpt>
      <trkpt lat="40.8406870" lon="-8.2731370">
        <ele>1001.0</ele>
        <time>2022-08-14T10:22:27Z</time>
      </trkpt>
      <trkpt lat="40.8406510" lon="-8.2731020">
        <ele>1000.6</ele>
        <time>2022-08-14T10:22:28Z</time>
      </trkpt>
      <trkpt lat="40.8404330" lon="-8.2729080">
        <ele>1000.0</ele>
        <time>2022-08-14T10:22:32Z</time>
      </trkpt>
      <trkpt lat="40.8403770" lon="-8.2728760">
        <ele>999.4</ele>
        <time>2022-08-14T10:22:33Z</time>
      </trkpt>
      <trkpt lat="40.8402840" lon="-8.2728100">
        <ele>998.8</ele>
        <time>2022-08-14T10:22:35Z</time>
      </trkpt>
      <trkpt lat="40.8402160" lon="-8.2727350">
        <ele>998.0</ele>
        <time>2022-08-14T10:22:37Z</time>
      </trkpt>
      <trkpt lat="40.8401950" lon="-8.2727060">
        <ele>997.2</ele>
        <time>2022-08-14T10:22:38Z</time>
      </trkpt>
      <trkpt lat="40.8401300" lon="-8.2726310">
        <ele>995.8</ele>
        <time>2022-08-14T10:22:40Z</time>
      </trkpt>
      <trkpt lat="40.8400320" lon="-8.2725340">
        <ele>994.8</ele>
        <time>2022-08-14T10:22:43Z</time>
      </trkpt>
      <trkpt lat="40.8399990" lon="-8.2725100">
        <ele>994.8</ele>
        <time>2022-08-14T10:22:44Z</time>
      </trkpt>
      <trkpt lat="40.8399010" lon="-8.2724450">
        <ele>993.6</ele>
        <time>2022-08-14T10:22:47Z</time>
      </trkpt>
      <trkpt lat="40.8398350" lon="-8.2723890">
        <ele>992.8</ele>
        <time>2022-08-14T10:22:49Z</time>
      </trkpt>
      <trkpt lat="40.8398060" lon="-8.2723610">
        <ele>992.2</ele>
        <time>2022-08-14T10:22:50Z</time>
      </trkpt>
      <trkpt lat="40.8397480" lon="-8.2723070">
        <ele>991.0</ele>
        <time>2022-08-14T10:22:52Z</time>
      </trkpt>
      <trkpt lat="40.8396710" lon="-8.2722430">
        <ele>990.4</ele>
        <time>2022-08-14T10:22:55Z</time>
      </trkpt>
      <trkpt lat="40.8396330" lon="-8.2722190">
        <ele>989.8</ele>
        <time>2022-08-14T10:22:57Z</time>
      </trkpt>
      <trkpt lat="40.8395970" lon="-8.2721980">
        <ele>989.0</ele>
        <time>2022-08-14T10:23:01Z</time>
      </trkpt>
      <trkpt lat="40.8395970" lon="-8.2721980">
        <ele>988.8</ele>
        <time>2022-08-14T10:23:02Z</time>
      </trkpt>
      <trkpt lat="40.8395450" lon="-8.2721380">
        <ele>987.8</ele>
        <time>2022-08-14T10:23:35Z</time>
      </trkpt>
      <trkpt lat="40.8394940" lon="-8.2720930">
        <ele>987.8</ele>
        <time>2022-08-14T10:23:37Z</time>
      </trkpt>
      <trkpt lat="40.8393580" lon="-8.2719100">
        <ele>987.8</ele>
        <time>2022-08-14T10:23:42Z</time>
      </trkpt>
      <trkpt lat="40.8392710" lon="-8.2716890">
        <ele>987.2</ele>
        <time>2022-08-14T10:23:45Z</time>
      </trkpt>
      <trkpt lat="40.8392610" lon="-8.2716010">
        <ele>987.0</ele>
        <time>2022-08-14T10:23:46Z</time>
      </trkpt>
      <trkpt lat="40.8392530" lon="-8.2715100">
        <ele>986.8</ele>
        <time>2022-08-14T10:23:47Z</time>
      </trkpt>
      <trkpt lat="40.8392300" lon="-8.2714200">
        <ele>986.6</ele>
        <time>2022-08-14T10:23:48Z</time>
      </trkpt>
      <trkpt lat="40.8392080" lon="-8.2713300">
        <ele>986.6</ele>
        <time>2022-08-14T10:23:49Z</time>
      </trkpt>
      <trkpt lat="40.8391830" lon="-8.2711810">
        <ele>986.2</ele>
        <time>2022-08-14T10:23:51Z</time>
      </trkpt>
      <trkpt lat="40.8391230" lon="-8.2710550">
        <ele>986.0</ele>
        <time>2022-08-14T10:23:53Z</time>
      </trkpt>
      <trkpt lat="40.8390490" lon="-8.2709770">
        <ele>984.4</ele>
        <time>2022-08-14T10:23:55Z</time>
      </trkpt>
      <trkpt lat="40.8390000" lon="-8.2708900">
        <ele>983.2</ele>
        <time>2022-08-14T10:23:57Z</time>
      </trkpt>
      <trkpt lat="40.8389540" lon="-8.2707890">
        <ele>982.8</ele>
        <time>2022-08-14T10:23:59Z</time>
      </trkpt>
      <trkpt lat="40.8389280" lon="-8.2707510">
        <ele>982.0</ele>
        <time>2022-08-14T10:24:00Z</time>
      </trkpt>
      <trkpt lat="40.8388700" lon="-8.2706870">
        <ele>981.4</ele>
        <time>2022-08-14T10:24:02Z</time>
      </trkpt>
      <trkpt lat="40.8388240" lon="-8.2706230">
        <ele>980.6</ele>
        <time>2022-08-14T10:24:04Z</time>
      </trkpt>
      <trkpt lat="40.8387600" lon="-8.2705340">
        <ele>979.6</ele>
        <time>2022-08-14T10:24:07Z</time>
      </trkpt>
      <trkpt lat="40.8387290" lon="-8.2705000">
        <ele>979.4</ele>
        <time>2022-08-14T10:24:08Z</time>
      </trkpt>
      <trkpt lat="40.8386460" lon="-8.2704160">
        <ele>978.4</ele>
        <time>2022-08-14T10:24:11Z</time>
      </trkpt>
      <trkpt lat="40.8385970" lon="-8.2703460">
        <ele>978.0</ele>
        <time>2022-08-14T10:24:13Z</time>
      </trkpt>
      <trkpt lat="40.8384660" lon="-8.2702150">
        <ele>976.8</ele>
        <time>2022-08-14T10:24:17Z</time>
      </trkpt>
      <trkpt lat="40.8384360" lon="-8.2701920">
        <ele>976.2</ele>
        <time>2022-08-14T10:24:18Z</time>
      </trkpt>
      <trkpt lat="40.8384120" lon="-8.2701670">
        <ele>975.6</ele>
        <time>2022-08-14T10:24:19Z</time>
      </trkpt>
      <trkpt lat="40.8383730" lon="-8.2701330">
        <ele>974.6</ele>
        <time>2022-08-14T10:24:21Z</time>
      </trkpt>
      <trkpt lat="40.8383630" lon="-8.2701280">
        <ele>974.2</ele>
        <time>2022-08-14T10:24:22Z</time>
      </trkpt>
      <trkpt lat="40.8383540" lon="-8.2701270">
        <ele>973.6</ele>
        <time>2022-08-14T10:24:24Z</time>
      </trkpt>
      <trkpt lat="40.8383440" lon="-8.2701230">
        <ele>973.4</ele>
        <time>2022-08-14T10:24:26Z</time>
      </trkpt>
      <trkpt lat="40.8383440" lon="-8.2701230">
        <ele>973.2</ele>
        <time>2022-08-14T10:24:27Z</time>
      </trkpt>
      <trkpt lat="40.8382930" lon="-8.2700900">
        <ele>972.6</ele>
        <time>2022-08-14T10:25:09Z</time>
      </trkpt>
      <trkpt lat="40.8382570" lon="-8.2700720">
        <ele>972.8</ele>
        <time>2022-08-14T10:25:11Z</time>
      </trkpt>
      <trkpt lat="40.8382200" lon="-8.2700690">
        <ele>972.8</ele>
        <time>2022-08-14T10:25:13Z</time>
      </trkpt>
      <trkpt lat="40.8381610" lon="-8.2700110">
        <ele>972.8</ele>
        <time>2022-08-14T10:25:16Z</time>
      </trkpt>
      <trkpt lat="40.8380750" lon="-8.2699010">
        <ele>972.4</ele>
        <time>2022-08-14T10:25:21Z</time>
      </trkpt>
      <trkpt lat="40.8380570" lon="-8.2698630">
        <ele>972.0</ele>
        <time>2022-08-14T10:25:22Z</time>
      </trkpt>
      <trkpt lat="40.8380200" lon="-8.2697670">
        <ele>971.6</ele>
        <time>2022-08-14T10:25:25Z</time>
      </trkpt>
      <trkpt lat="40.8379990" lon="-8.2697230">
        <ele>971.2</ele>
        <time>2022-08-14T10:25:27Z</time>
      </trkpt>
      <trkpt lat="40.8379350" lon="-8.2696380">
        <ele>970.6</ele>
        <time>2022-08-14T10:25:32Z</time>
      </trkpt>
      <trkpt lat="40.8378910" lon="-8.2695480">
        <ele>969.4</ele>
        <time>2022-08-14T10:25:37Z</time>
      </trkpt>
      <trkpt lat="40.8378860" lon="-8.2695250">
        <ele>969.0</ele>
        <time>2022-08-14T10:25:38Z</time>
      </trkpt>
      <trkpt lat="40.8378480" lon="-8.2694580">
        <ele>968.2</ele>
        <time>2022-08-14T10:25:42Z</time>
      </trkpt>
      <trkpt lat="40.8378420" lon="-8.2694430">
        <ele>968.0</ele>
        <time>2022-08-14T10:25:44Z</time>
      </trkpt>
      <trkpt lat="40.8378420" lon="-8.2694430">
        <ele>967.6</ele>
        <time>2022-08-14T10:25:46Z</time>
      </trkpt>
      <trkpt lat="40.8378100" lon="-8.2693950">
        <ele>966.0</ele>
        <time>2022-08-14T10:25:53Z</time>
      </trkpt>
      <trkpt lat="40.8377870" lon="-8.2693560">
        <ele>965.6</ele>
        <time>2022-08-14T10:25:55Z</time>
      </trkpt>
      <trkpt lat="40.8377380" lon="-8.2692890">
        <ele>965.0</ele>
        <time>2022-08-14T10:25:59Z</time>
      </trkpt>
      <trkpt lat="40.8377080" lon="-8.2692640">
        <ele>964.4</ele>
        <time>2022-08-14T10:26:01Z</time>
      </trkpt>
      <trkpt lat="40.8376500" lon="-8.2692370">
        <ele>963.6</ele>
        <time>2022-08-14T10:26:04Z</time>
      </trkpt>
      <trkpt lat="40.8375880" lon="-8.2691890">
        <ele>962.8</ele>
        <time>2022-08-14T10:26:08Z</time>
      </trkpt>
      <trkpt lat="40.8375750" lon="-8.2691770">
        <ele>962.6</ele>
        <time>2022-08-14T10:26:09Z</time>
      </trkpt>
      <trkpt lat="40.8375210" lon="-8.2691220">
        <ele>961.4</ele>
        <time>2022-08-14T10:26:15Z</time>
      </trkpt>
      <trkpt lat="40.8374820" lon="-8.2690880">
        <ele>960.6</ele>
        <time>2022-08-14T10:26:19Z</time>
      </trkpt>
      <trkpt lat="40.8374610" lon="-8.2690700">
        <ele>960.4</ele>
        <time>2022-08-14T10:26:20Z</time>
      </trkpt>
      <trkpt lat="40.8374410" lon="-8.2690530">
        <ele>960.4</ele>
        <time>2022-08-14T10:26:21Z</time>
      </trkpt>
      <trkpt lat="40.8374150" lon="-8.2690350">
        <ele>960.0</ele>
        <time>2022-08-14T10:26:24Z</time>
      </trkpt>
      <trkpt lat="40.8380580" lon="-8.2698470">
        <ele>970.4</ele>
        <time>2022-08-14T10:34:15Z</time>
      </trkpt>
      <trkpt lat="40.8380770" lon="-8.2699060">
        <ele>970.4</ele>
        <time>2022-08-14T10:34:18Z</time>
      </trkpt>
      <trkpt lat="40.8380970" lon="-8.2699250">
        <ele>970.6</ele>
        <time>2022-08-14T10:34:20Z</time>
      </trkpt>
      <trkpt lat="40.8381110" lon="-8.2699350">
        <ele>970.8</ele>
        <time>2022-08-14T10:34:24Z</time>
      </trkpt>
      <trkpt lat="40.8381960" lon="-8.2700330">
        <ele>972.0</ele>
        <time>2022-08-14T10:34:40Z</time>
      </trkpt>
      <trkpt lat="40.8382120" lon="-8.2700470">
        <ele>972.2</ele>
        <time>2022-08-14T10:34:41Z</time>
      </trkpt>
      <trkpt lat="40.8383190" lon="-8.2700970">
        <ele>972.6</ele>
        <time>2022-08-14T10:34:48Z</time>
      </trkpt>
      <trkpt lat="40.8383840" lon="-8.2701450">
        <ele>973.2</ele>
        <time>2022-08-14T10:34:53Z</time>
      </trkpt>
      <trkpt lat="40.8384060" lon="-8.2701700">
        <ele>973.6</ele>
        <time>2022-08-14T10:34:55Z</time>
      </trkpt>
      <trkpt lat="40.8384490" lon="-8.2702260">
        <ele>974.2</ele>
        <time>2022-08-14T10:34:59Z</time>
      </trkpt>
      <trkpt lat="40.8384810" lon="-8.2702610">
        <ele>974.6</ele>
        <time>2022-08-14T10:35:02Z</time>
      </trkpt>
      <trkpt lat="40.8386080" lon="-8.2703870">
        <ele>975.2</ele>
        <time>2022-08-14T10:35:12Z</time>
      </trkpt>
      <trkpt lat="40.8386500" lon="-8.2704370">
        <ele>975.6</ele>
        <time>2022-08-14T10:35:16Z</time>
      </trkpt>
      <trkpt lat="40.8386910" lon="-8.2704910">
        <ele>976.2</ele>
        <time>2022-08-14T10:35:20Z</time>
      </trkpt>
      <trkpt lat="40.8387250" lon="-8.2705220">
        <ele>976.8</ele>
        <time>2022-08-14T10:35:23Z</time>
      </trkpt>
      <trkpt lat="40.8387710" lon="-8.2705790">
        <ele>977.4</ele>
        <time>2022-08-14T10:35:28Z</time>
      </trkpt>
      <trkpt lat="40.8387980" lon="-8.2706460">
        <ele>978.0</ele>
        <time>2022-08-14T10:35:32Z</time>
      </trkpt>
      <trkpt lat="40.8388260" lon="-8.2706940">
        <ele>978.4</ele>
        <time>2022-08-14T10:35:35Z</time>
      </trkpt>
      <trkpt lat="40.8388370" lon="-8.2707060">
        <ele>978.4</ele>
        <time>2022-08-14T10:35:36Z</time>
      </trkpt>
      <trkpt lat="40.8388740" lon="-8.2707550">
        <ele>979.2</ele>
        <time>2022-08-14T10:35:40Z</time>
      </trkpt>
      <trkpt lat="40.8389090" lon="-8.2707880">
        <ele>979.6</ele>
        <time>2022-08-14T10:35:43Z</time>
      </trkpt>
      <trkpt lat="40.8389230" lon="-8.2707970">
        <ele>979.8</ele>
        <time>2022-08-14T10:35:44Z</time>
      </trkpt>
      <trkpt lat="40.8389740" lon="-8.2708810">
        <ele>980.2</ele>
        <time>2022-08-14T10:35:51Z</time>
      </trkpt>
      <trkpt lat="40.8389830" lon="-8.2709090">
        <ele>980.4</ele>
        <time>2022-08-14T10:35:53Z</time>
      </trkpt>
      <trkpt lat="40.8390340" lon="-8.2710010">
        <ele>981.4</ele>
        <time>2022-08-14T10:35:58Z</time>
      </trkpt>
      <trkpt lat="40.8390480" lon="-8.2710200">
        <ele>981.4</ele>
        <time>2022-08-14T10:35:59Z</time>
      </trkpt>
      <trkpt lat="40.8391040" lon="-8.2710660">
        <ele>981.8</ele>
        <time>2022-08-14T10:36:04Z</time>
      </trkpt>
      <trkpt lat="40.8391040" lon="-8.2710660">
        <ele>982.0</ele>
        <time>2022-08-14T10:36:05Z</time>
      </trkpt>
      <trkpt lat="40.8391360" lon="-8.2711080">
        <ele>981.6</ele>
        <time>2022-08-14T10:36:36Z</time>
      </trkpt>
      <trkpt lat="40.8391660" lon="-8.2711320">
        <ele>981.6</ele>
        <time>2022-08-14T10:36:38Z</time>
      </trkpt>
      <trkpt lat="40.8391870" lon="-8.2711690">
        <ele>981.8</ele>
        <time>2022-08-14T10:36:40Z</time>
      </trkpt>
      <trkpt lat="40.8391910" lon="-8.2712520">
        <ele>981.8</ele>
        <time>2022-08-14T10:36:43Z</time>
      </trkpt>
      <trkpt lat="40.8391840" lon="-8.2713020">
        <ele>981.8</ele>
        <time>2022-08-14T10:36:45Z</time>
      </trkpt>
      <trkpt lat="40.8392050" lon="-8.2713810">
        <ele>982.0</ele>
        <time>2022-08-14T10:36:48Z</time>
      </trkpt>
      <trkpt lat="40.8392410" lon="-8.2714770">
        <ele>982.4</ele>
        <time>2022-08-14T10:36:52Z</time>
      </trkpt>
      <trkpt lat="40.8392460" lon="-8.2715410">
        <ele>982.6</ele>
        <time>2022-08-14T10:36:55Z</time>
      </trkpt>
      <trkpt lat="40.8392520" lon="-8.2716750">
        <ele>983.4</ele>
        <time>2022-08-14T10:37:01Z</time>
      </trkpt>
      <trkpt lat="40.8392560" lon="-8.2716950">
        <ele>983.4</ele>
        <time>2022-08-14T10:37:02Z</time>
      </trkpt>
      <trkpt lat="40.8392810" lon="-8.2717910">
        <ele>983.6</ele>
        <time>2022-08-14T10:37:07Z</time>
      </trkpt>
      <trkpt lat="40.8392980" lon="-8.2718150">
        <ele>983.6</ele>
        <time>2022-08-14T10:37:09Z</time>
      </trkpt>
      <trkpt lat="40.8393080" lon="-8.2718270">
        <ele>983.6</ele>
        <time>2022-08-14T10:37:10Z</time>
      </trkpt>
      <trkpt lat="40.8393190" lon="-8.2718600">
        <ele>983.8</ele>
        <time>2022-08-14T10:37:12Z</time>
      </trkpt>
      <trkpt lat="40.8393660" lon="-8.2719540">
        <ele>984.4</ele>
        <time>2022-08-14T10:37:18Z</time>
      </trkpt>
      <trkpt lat="40.8393740" lon="-8.2719720">
        <ele>984.6</ele>
        <time>2022-08-14T10:37:19Z</time>
      </trkpt>
      <trkpt lat="40.8393870" lon="-8.2720000">
        <ele>985.0</ele>
        <time>2022-08-14T10:37:21Z</time>
      </trkpt>
      <trkpt lat="40.8394060" lon="-8.2720250">
        <ele>985.4</ele>
        <time>2022-08-14T10:37:23Z</time>
      </trkpt>
      <trkpt lat="40.8394220" lon="-8.2720540">
        <ele>986.0</ele>
        <time>2022-08-14T10:37:25Z</time>
      </trkpt>
      <trkpt lat="40.8394630" lon="-8.2720830">
        <ele>986.6</ele>
        <time>2022-08-14T10:37:29Z</time>
      </trkpt>
      <trkpt lat="40.8395600" lon="-8.2721640">
        <ele>987.6</ele>
        <time>2022-08-14T10:37:37Z</time>
      </trkpt>
      <trkpt lat="40.8395750" lon="-8.2721780">
        <ele>987.8</ele>
        <time>2022-08-14T10:37:38Z</time>
      </trkpt>
      <trkpt lat="40.8396730" lon="-8.2722660">
        <ele>988.8</ele>
        <time>2022-08-14T10:37:45Z</time>
      </trkpt>
      <trkpt lat="40.8396880" lon="-8.2722770">
        <ele>988.8</ele>
        <time>2022-08-14T10:37:46Z</time>
      </trkpt>
      <trkpt lat="40.8397340" lon="-8.2723120">
        <ele>989.2</ele>
        <time>2022-08-14T10:37:49Z</time>
      </trkpt>
      <trkpt lat="40.8398280" lon="-8.2723950">
        <ele>989.8</ele>
        <time>2022-08-14T10:37:55Z</time>
      </trkpt>
      <trkpt lat="40.8398860" lon="-8.2724530">
        <ele>990.6</ele>
        <time>2022-08-14T10:37:59Z</time>
      </trkpt>
      <trkpt lat="40.8399900" lon="-8.2725150">
        <ele>991.0</ele>
        <time>2022-08-14T10:38:06Z</time>
      </trkpt>
      <trkpt lat="40.8400180" lon="-8.2725410">
        <ele>991.0</ele>
        <time>2022-08-14T10:38:08Z</time>
      </trkpt>
      <trkpt lat="40.8400950" lon="-8.2726210">
        <ele>992.0</ele>
        <time>2022-08-14T10:38:14Z</time>
      </trkpt>
      <trkpt lat="40.8401740" lon="-8.2727240">
        <ele>993.0</ele>
        <time>2022-08-14T10:38:21Z</time>
      </trkpt>
      <trkpt lat="40.8401890" lon="-8.2727370">
        <ele>993.0</ele>
        <time>2022-08-14T10:38:22Z</time>
      </trkpt>
      <trkpt lat="40.8402050" lon="-8.2727560">
        <ele>993.2</ele>
        <time>2022-08-14T10:38:23Z</time>
      </trkpt>
      <trkpt lat="40.8402770" lon="-8.2728230">
        <ele>994.2</ele>
        <time>2022-08-14T10:38:28Z</time>
      </trkpt>
      <trkpt lat="40.8403350" lon="-8.2728690">
        <ele>994.8</ele>
        <time>2022-08-14T10:38:32Z</time>
      </trkpt>
      <trkpt lat="40.8403490" lon="-8.2728760">
        <ele>995.2</ele>
        <time>2022-08-14T10:38:33Z</time>
      </trkpt>
      <trkpt lat="40.8403920" lon="-8.2729020">
        <ele>995.4</ele>
        <time>2022-08-14T10:38:36Z</time>
      </trkpt>
      <trkpt lat="40.8404650" lon="-8.2729490">
        <ele>996.0</ele>
        <time>2022-08-14T10:38:41Z</time>
      </trkpt>
      <trkpt lat="40.8404770" lon="-8.2729600">
        <ele>996.2</ele>
        <time>2022-08-14T10:38:42Z</time>
      </trkpt>
      <trkpt lat="40.8405660" lon="-8.2730490">
        <ele>997.4</ele>
        <time>2022-08-14T10:38:49Z</time>
      </trkpt>
      <trkpt lat="40.8405910" lon="-8.2730760">
        <ele>997.6</ele>
        <time>2022-08-14T10:38:51Z</time>
      </trkpt>
      <trkpt lat="40.8407230" lon="-8.2731800">
        <ele>998.4</ele>
        <time>2022-08-14T10:39:00Z</time>
      </trkpt>
      <trkpt lat="40.8407520" lon="-8.2732060">
        <ele>999.0</ele>
        <time>2022-08-14T10:39:02Z</time>
      </trkpt>
      <trkpt lat="40.8407910" lon="-8.2732460">
        <ele>999.4</ele>
        <time>2022-08-14T10:39:05Z</time>
      </trkpt>
      <trkpt lat="40.8408770" lon="-8.2733450">
        <ele>1000.6</ele>
        <time>2022-08-14T10:39:12Z</time>
      </trkpt>
      <trkpt lat="40.8409450" lon="-8.2734380">
        <ele>1001.6</ele>
        <time>2022-08-14T10:39:18Z</time>
      </trkpt>
      <trkpt lat="40.8410060" lon="-8.2735120">
        <ele>1002.4</ele>
        <time>2022-08-14T10:39:23Z</time>
      </trkpt>
      <trkpt lat="40.8410190" lon="-8.2735270">
        <ele>1002.6</ele>
        <time>2022-08-14T10:39:24Z</time>
      </trkpt>
      <trkpt lat="40.8411300" lon="-8.2736580">
        <ele>1003.4</ele>
        <time>2022-08-14T10:39:33Z</time>
      </trkpt>
      <trkpt lat="40.8412240" lon="-8.2737360">
        <ele>1003.6</ele>
        <time>2022-08-14T10:39:40Z</time>
      </trkpt>
      <trkpt lat="40.8412520" lon="-8.2737670">
        <ele>1003.8</ele>
        <time>2022-08-14T10:39:42Z</time>
      </trkpt>
      <trkpt lat="40.8413810" lon="-8.2738510">
        <ele>1004.2</ele>
        <time>2022-08-14T10:39:50Z</time>
      </trkpt>
      <trkpt lat="40.8415130" lon="-8.2738170">
        <ele>1004.2</ele>
        <time>2022-08-14T10:39:58Z</time>
      </trkpt>
      <trkpt lat="40.8416930" lon="-8.2737790">
        <ele>1003.8</ele>
        <time>2022-08-14T10:40:08Z</time>
      </trkpt>
      <trkpt lat="40.8418270" lon="-8.2737830">
        <ele>1003.2</ele>
        <time>2022-08-14T10:40:16Z</time>
      </trkpt>
      <trkpt lat="40.8419240" lon="-8.2737890">
        <ele>1002.6</ele>
        <time>2022-08-14T10:40:23Z</time>
      </trkpt>
      <trkpt lat="40.8419730" lon="-8.2737770">
        <ele>1002.6</ele>
        <time>2022-08-14T10:40:26Z</time>
      </trkpt>
      <trkpt lat="40.8419820" lon="-8.2737770">
        <ele>1002.6</ele>
        <time>2022-08-14T10:40:29Z</time>
      </trkpt>
      <trkpt lat="40.8420200" lon="-8.2737760">
        <ele>1002.8</ele>
        <time>2022-08-14T10:42:13Z</time>
      </trkpt>
      <trkpt lat="40.8422010" lon="-8.2737770">
        <ele>1003.0</ele>
        <time>2022-08-14T10:42:20Z</time>
      </trkpt>
      <trkpt lat="40.8423330" lon="-8.2737970">
        <ele>1002.6</ele>
        <time>2022-08-14T10:42:26Z</time>
      </trkpt>
      <trkpt lat="40.8425150" lon="-8.2738610">
        <ele>1002.4</ele>
        <time>2022-08-14T10:42:34Z</time>
      </trkpt>
      <trkpt lat="40.8426230" lon="-8.2739530">
        <ele>1002.4</ele>
        <time>2022-08-14T10:42:40Z</time>
      </trkpt>
      <trkpt lat="40.8426420" lon="-8.2740190">
        <ele>1002.8</ele>
        <time>2022-08-14T10:42:43Z</time>
      </trkpt>
      <trkpt lat="40.8426300" lon="-8.2740330">
        <ele>1002.6</ele>
        <time>2022-08-14T10:42:44Z</time>
      </trkpt>
      <trkpt lat="40.8425650" lon="-8.2740220">
        <ele>1003.0</ele>
        <time>2022-08-14T10:42:48Z</time>
      </trkpt>
      <trkpt lat="40.8425440" lon="-8.2740020">
        <ele>1003.2</ele>
        <time>2022-08-14T10:42:50Z</time>
      </trkpt>
      <trkpt lat="40.8425450" lon="-8.2739730">
        <ele>1003.2</ele>
        <time>2022-08-14T10:42:52Z</time>
      </trkpt>
      <trkpt lat="40.8425570" lon="-8.2739590">
        <ele>1003.2</ele>
        <time>2022-08-14T10:42:53Z</time>
      </trkpt>
      <trkpt lat="40.8426740" lon="-8.2739570">
        <ele>1003.2</ele>
        <time>2022-08-14T10:42:57Z</time>
      </trkpt>
      <trkpt lat="40.8427420" lon="-8.2740050">
        <ele>1003.2</ele>
        <time>2022-08-14T10:43:00Z</time>
      </trkpt>
      <trkpt lat="40.8427700" lon="-8.2740170">
        <ele>1003.2</ele>
        <time>2022-08-14T10:43:01Z</time>
      </trkpt>
      <trkpt lat="40.8429750" lon="-8.2740360">
        <ele>1003.4</ele>
        <time>2022-08-14T10:43:09Z</time>
      </trkpt>
      <trkpt lat="40.8431430" lon="-8.2738650">
        <ele>1002.6</ele>
        <time>2022-08-14T10:43:16Z</time>
      </trkpt>
      <trkpt lat="40.8433460" lon="-8.2736100">
        <ele>1002.2</ele>
        <time>2022-08-14T10:43:24Z</time>
      </trkpt>
      <trkpt lat="40.8433860" lon="-8.2734860">
        <ele>1001.8</ele>
        <time>2022-08-14T10:43:27Z</time>
      </trkpt>
      <trkpt lat="40.8434150" lon="-8.2734180">
        <ele>1001.8</ele>
        <time>2022-08-14T10:43:29Z</time>
      </trkpt>
      <trkpt lat="40.8434310" lon="-8.2733990">
        <ele>1001.8</ele>
        <time>2022-08-14T10:43:30Z</time>
      </trkpt>
      <trkpt lat="40.8435380" lon="-8.2733090">
        <ele>1002.2</ele>
        <time>2022-08-14T10:43:36Z</time>
      </trkpt>
      <trkpt lat="40.8436440" lon="-8.2731930">
        <ele>1003.2</ele>
        <time>2022-08-14T10:43:41Z</time>
      </trkpt>
      <trkpt lat="40.8437280" lon="-8.2731040">
        <ele>1003.8</ele>
        <time>2022-08-14T10:43:45Z</time>
      </trkpt>
      <trkpt lat="40.8437500" lon="-8.2730860">
        <ele>1004.2</ele>
        <time>2022-08-14T10:43:46Z</time>
      </trkpt>
      <trkpt lat="40.8438900" lon="-8.2730520">
        <ele>1005.0</ele>
        <time>2022-08-14T10:43:51Z</time>
      </trkpt>
      <trkpt lat="40.8439190" lon="-8.2730670">
        <ele>1005.2</ele>
        <time>2022-08-14T10:43:52Z</time>
      </trkpt>
      <trkpt lat="40.8439400" lon="-8.2730940">
        <ele>1005.4</ele>
        <time>2022-08-14T10:43:53Z</time>
      </trkpt>
      <trkpt lat="40.8439650" lon="-8.2731700">
        <ele>1005.6</ele>
        <time>2022-08-14T10:43:55Z</time>
      </trkpt>
      <trkpt lat="40.8440100" lon="-8.2733590">
        <ele>1006.4</ele>
        <time>2022-08-14T10:44:00Z</time>
      </trkpt>
      <trkpt lat="40.8440760" lon="-8.2735020">
        <ele>1007.0</ele>
        <time>2022-08-14T10:44:04Z</time>
      </trkpt>
      <trkpt lat="40.8441370" lon="-8.2736190">
        <ele>1007.6</ele>
        <time>2022-08-14T10:44:08Z</time>
      </trkpt>
      <trkpt lat="40.8442060" lon="-8.2737380">
        <ele>1008.8</ele>
        <time>2022-08-14T10:44:13Z</time>
      </trkpt>
      <trkpt lat="40.8442370" lon="-8.2738140">
        <ele>1009.8</ele>
        <time>2022-08-14T10:44:16Z</time>
      </trkpt>
      <trkpt lat="40.8442780" lon="-8.2739470">
        <ele>1010.8</ele>
        <time>2022-08-14T10:44:21Z</time>
      </trkpt>
      <trkpt lat="40.8442830" lon="-8.2739670">
        <ele>1011.2</ele>
        <time>2022-08-14T10:44:22Z</time>
      </trkpt>
      <trkpt lat="40.8442920" lon="-8.2740340">
        <ele>1012.0</ele>
        <time>2022-08-14T10:44:25Z</time>
      </trkpt>
      <trkpt lat="40.8442920" lon="-8.2741340">
        <ele>1012.4</ele>
        <time>2022-08-14T10:44:29Z</time>
      </trkpt>
      <trkpt lat="40.8442810" lon="-8.2742540">
        <ele>1013.2</ele>
        <time>2022-08-14T10:44:34Z</time>
      </trkpt>
      <trkpt lat="40.8442700" lon="-8.2743220">
        <ele>1013.6</ele>
        <time>2022-08-14T10:44:37Z</time>
      </trkpt>
      <trkpt lat="40.8442580" lon="-8.2744350">
        <ele>1014.4</ele>
        <time>2022-08-14T10:44:42Z</time>
      </trkpt>
      <trkpt lat="40.8442480" lon="-8.2745230">
        <ele>1015.0</ele>
        <time>2022-08-14T10:44:46Z</time>
      </trkpt>
      <trkpt lat="40.8442220" lon="-8.2746250">
        <ele>1015.4</ele>
        <time>2022-08-14T10:44:51Z</time>
      </trkpt>
      <trkpt lat="40.8442100" lon="-8.2747070">
        <ele>1015.8</ele>
        <time>2022-08-14T10:44:55Z</time>
      </trkpt>
      <trkpt lat="40.8441830" lon="-8.2748200">
        <ele>1016.4</ele>
        <time>2022-08-14T10:45:01Z</time>
      </trkpt>
      <trkpt lat="40.8441790" lon="-8.2748390">
        <ele>1016.4</ele>
        <time>2022-08-14T10:45:02Z</time>
      </trkpt>
      <trkpt lat="40.8441540" lon="-8.2749330">
        <ele>1017.8</ele>
        <time>2022-08-14T10:45:07Z</time>
      </trkpt>
      <trkpt lat="40.8441330" lon="-8.2750040">
        <ele>1018.4</ele>
        <time>2022-08-14T10:45:11Z</time>
      </trkpt>
      <trkpt lat="40.8441140" lon="-8.2750790">
        <ele>1018.8</ele>
        <time>2022-08-14T10:45:15Z</time>
      </trkpt>
      <trkpt lat="40.8440880" lon="-8.2751710">
        <ele>1019.2</ele>
        <time>2022-08-14T10:45:20Z</time>
      </trkpt>
      <trkpt lat="40.8440750" lon="-8.2752290">
        <ele>1019.6</ele>
        <time>2022-08-14T10:45:23Z</time>
      </trkpt>
      <trkpt lat="40.8440510" lon="-8.2753420">
        <ele>1020.4</ele>
        <time>2022-08-14T10:45:30Z</time>
      </trkpt>
      <trkpt lat="40.8440440" lon="-8.2753610">
        <ele>1020.6</ele>
        <time>2022-08-14T10:45:31Z</time>
      </trkpt>
      <trkpt lat="40.8440220" lon="-8.2754550">
        <ele>1021.8</ele>
        <time>2022-08-14T10:45:37Z</time>
      </trkpt>
      <trkpt lat="40.8440020" lon="-8.2755400">
        <ele>1022.8</ele>
        <time>2022-08-14T10:45:42Z</time>
      </trkpt>
      <trkpt lat="40.8439970" lon="-8.2755600">
        <ele>1022.8</ele>
        <time>2022-08-14T10:45:43Z</time>
      </trkpt>
      <trkpt lat="40.8439550" lon="-8.2757120">
        <ele>1024.0</ele>
        <time>2022-08-14T10:45:51Z</time>
      </trkpt>
      <trkpt lat="40.8439430" lon="-8.2757730">
        <ele>1024.4</ele>
        <time>2022-08-14T10:45:54Z</time>
      </trkpt>
      <trkpt lat="40.8439230" lon="-8.2758410">
        <ele>1024.8</ele>
        <time>2022-08-14T10:45:58Z</time>
      </trkpt>
      <trkpt lat="40.8439010" lon="-8.2759060">
        <ele>1025.8</ele>
        <time>2022-08-14T10:46:02Z</time>
      </trkpt>
      <trkpt lat="40.8438980" lon="-8.2759210">
        <ele>1026.0</ele>
        <time>2022-08-14T10:46:03Z</time>
      </trkpt>
      <trkpt lat="40.8438750" lon="-8.2760360">
        <ele>1027.4</ele>
        <time>2022-08-14T10:46:10Z</time>
      </trkpt>
      <trkpt lat="40.8438720" lon="-8.2760520">
        <ele>1027.6</ele>
        <time>2022-08-14T10:46:11Z</time>
      </trkpt>
      <trkpt lat="40.8438540" lon="-8.2760980">
        <ele>1028.4</ele>
        <time>2022-08-14T10:46:14Z</time>
      </trkpt>
      <trkpt lat="40.8438330" lon="-8.2761770">
        <ele>1029.6</ele>
        <time>2022-08-14T10:46:19Z</time>
      </trkpt>
      <trkpt lat="40.8438110" lon="-8.2762730">
        <ele>1030.6</ele>
        <time>2022-08-14T10:46:25Z</time>
      </trkpt>
      <trkpt lat="40.8438080" lon="-8.2763290">
        <ele>1031.6</ele>
        <time>2022-08-14T10:46:28Z</time>
      </trkpt>
      <trkpt lat="40.8438060" lon="-8.2763470">
        <ele>1031.8</ele>
        <time>2022-08-14T10:46:29Z</time>
      </trkpt>
      <trkpt lat="40.8437650" lon="-8.2764570">
        <ele>1032.8</ele>
        <time>2022-08-14T10:46:36Z</time>
      </trkpt>
      <trkpt lat="40.8437590" lon="-8.2764720">
        <ele>1033.0</ele>
        <time>2022-08-14T10:46:37Z</time>
      </trkpt>
      <trkpt lat="40.8437260" lon="-8.2766010">
        <ele>1034.0</ele>
        <time>2022-08-14T10:46:45Z</time>
      </trkpt>
      <trkpt lat="40.8436900" lon="-8.2767000">
        <ele>1035.0</ele>
        <time>2022-08-14T10:46:51Z</time>
      </trkpt>
      <trkpt lat="40.8436780" lon="-8.2767320">
        <ele>1035.4</ele>
        <time>2022-08-14T10:46:53Z</time>
      </trkpt>
      <trkpt lat="40.8436570" lon="-8.2767790">
        <ele>1036.2</ele>
        <time>2022-08-14T10:46:56Z</time>
      </trkpt>
      <trkpt lat="40.8436450" lon="-8.2768690">
        <ele>1037.2</ele>
        <time>2022-08-14T10:47:01Z</time>
      </trkpt>
      <trkpt lat="40.8436220" lon="-8.2769600">
        <ele>1038.4</ele>
        <time>2022-08-14T10:47:06Z</time>
      </trkpt>
      <trkpt lat="40.8436160" lon="-8.2770130">
        <ele>1038.8</ele>
        <time>2022-08-14T10:47:09Z</time>
      </trkpt>
      <trkpt lat="40.8436080" lon="-8.2771120">
        <ele>1039.6</ele>
        <time>2022-08-14T10:47:14Z</time>
      </trkpt>
      <trkpt lat="40.8436070" lon="-8.2772210">
        <ele>1040.2</ele>
        <time>2022-08-14T10:47:19Z</time>
      </trkpt>
      <trkpt lat="40.8436110" lon="-8.2772640">
        <ele>1040.6</ele>
        <time>2022-08-14T10:47:21Z</time>
      </trkpt>
      <trkpt lat="40.8436230" lon="-8.2774040">
        <ele>1041.6</ele>
        <time>2022-08-14T10:47:28Z</time>
      </trkpt>
      <trkpt lat="40.8436340" lon="-8.2774460">
        <ele>1042.0</ele>
        <time>2022-08-14T10:47:30Z</time>
      </trkpt>
      <trkpt lat="40.8436540" lon="-8.2775310">
        <ele>1042.6</ele>
        <time>2022-08-14T10:47:34Z</time>
      </trkpt>
      <trkpt lat="40.8436720" lon="-8.2775610">
        <ele>1043.0</ele>
        <time>2022-08-14T10:47:36Z</time>
      </trkpt>
      <trkpt lat="40.8436790" lon="-8.2775750">
        <ele>1043.2</ele>
        <time>2022-08-14T10:47:37Z</time>
      </trkpt>
      <trkpt lat="40.8436800" lon="-8.2775870">
        <ele>1043.8</ele>
        <time>2022-08-14T10:47:39Z</time>
      </trkpt>
      <trkpt lat="40.8436820" lon="-8.2776040">
        <ele>1043.8</ele>
        <time>2022-08-14T10:47:40Z</time>
      </trkpt>
      <trkpt lat="40.8436850" lon="-8.2776200">
        <ele>1044.0</ele>
        <time>2022-08-14T10:47:41Z</time>
      </trkpt>
      <trkpt lat="40.8437250" lon="-8.2776830">
        <ele>1044.2</ele>
        <time>2022-08-14T10:47:45Z</time>
      </trkpt>
      <trkpt lat="40.8437620" lon="-8.2778080">
        <ele>1044.2</ele>
        <time>2022-08-14T10:47:52Z</time>
      </trkpt>
      <trkpt lat="40.8438240" lon="-8.2779380">
        <ele>1044.4</ele>
        <time>2022-08-14T10:47:58Z</time>
      </trkpt>
      <trkpt lat="40.8439040" lon="-8.2781060">
        <ele>1044.6</ele>
        <time>2022-08-14T10:48:05Z</time>
      </trkpt>
      <trkpt lat="40.8440050" lon="-8.2783880">
        <ele>1044.6</ele>
        <time>2022-08-14T10:48:15Z</time>
      </trkpt>
      <trkpt lat="40.8441470" lon="-8.2787030">
        <ele>1044.8</ele>
        <time>2022-08-14T10:48:27Z</time>
      </trkpt>
      <trkpt lat="40.8441880" lon="-8.2787900">
        <ele>1044.8</ele>
        <time>2022-08-14T10:48:30Z</time>
      </trkpt>
      <trkpt lat="40.8442610" lon="-8.2789450">
        <ele>1045.0</ele>
        <time>2022-08-14T10:48:36Z</time>
      </trkpt>
      <trkpt lat="40.8443650" lon="-8.2791530">
        <ele>1045.2</ele>
        <time>2022-08-14T10:48:44Z</time>
      </trkpt>
      <trkpt lat="40.8444510" lon="-8.2793120">
        <ele>1045.4</ele>
        <time>2022-08-14T10:48:51Z</time>
      </trkpt>
      <trkpt lat="40.8445030" lon="-8.2794130">
        <ele>1046.0</ele>
        <time>2022-08-14T10:48:55Z</time>
      </trkpt>
      <trkpt lat="40.8445490" lon="-8.2795170">
        <ele>1046.0</ele>
        <time>2022-08-14T10:48:59Z</time>
      </trkpt>
      <trkpt lat="40.8445690" lon="-8.2795640">
        <ele>1046.6</ele>
        <time>2022-08-14T10:49:01Z</time>
      </trkpt>
      <trkpt lat="40.8446200" lon="-8.2796700">
        <ele>1046.8</ele>
        <time>2022-08-14T10:49:05Z</time>
      </trkpt>
      <trkpt lat="40.8446770" lon="-8.2797950">
        <ele>1047.2</ele>
        <time>2022-08-14T10:49:10Z</time>
      </trkpt>
      <trkpt lat="40.8447230" lon="-8.2799710">
        <ele>1047.4</ele>
        <time>2022-08-14T10:49:18Z</time>
      </trkpt>
      <trkpt lat="40.8447490" lon="-8.2800320">
        <ele>1047.8</ele>
        <time>2022-08-14T10:49:23Z</time>
      </trkpt>
      <trkpt lat="40.8447490" lon="-8.2800320">
        <ele>1047.8</ele>
        <time>2022-08-14T10:49:25Z</time>
      </trkpt>
      <trkpt lat="40.8448140" lon="-8.2801080">
        <ele>1045.8</ele>
        <time>2022-08-14T10:51:28Z</time>
      </trkpt>
      <trkpt lat="40.8448320" lon="-8.2801240">
        <ele>1045.8</ele>
        <time>2022-08-14T10:51:29Z</time>
      </trkpt>
      <trkpt lat="40.8449750" lon="-8.2801850">
        <ele>1045.8</ele>
        <time>2022-08-14T10:51:37Z</time>
      </trkpt>
      <trkpt lat="40.8451790" lon="-8.2802170">
        <ele>1045.2</ele>
        <time>2022-08-14T10:51:47Z</time>
      </trkpt>
      <trkpt lat="40.8453410" lon="-8.2802000">
        <ele>1044.8</ele>
        <time>2022-08-14T10:51:55Z</time>
      </trkpt>
      <trkpt lat="40.8453770" lon="-8.2801790">
        <ele>1045.0</ele>
        <time>2022-08-14T10:52:00Z</time>
      </trkpt>
      <trkpt lat="40.8452910" lon="-8.2802080">
        <ele>1044.6</ele>
        <time>2022-08-14T10:52:24Z</time>
      </trkpt>
      <trkpt lat="40.8451950" lon="-8.2802340">
        <ele>1044.4</ele>
        <time>2022-08-14T10:52:29Z</time>
      </trkpt>
      <trkpt lat="40.8449740" lon="-8.2801850">
        <ele>1044.6</ele>
        <time>2022-08-14T10:52:41Z</time>
      </trkpt>
      <trkpt lat="40.8448140" lon="-8.2801020">
        <ele>1044.6</ele>
        <time>2022-08-14T10:52:49Z</time>
      </trkpt>
      <trkpt lat="40.8447530" lon="-8.2800240">
        <ele>1044.6</ele>
        <time>2022-08-14T10:52:53Z</time>
      </trkpt>
      <trkpt lat="40.8447250" lon="-8.2800140">
        <ele>1044.4</ele>
        <time>2022-08-14T10:52:55Z</time>
      </trkpt>
      <trkpt lat="40.8446960" lon="-8.2799950">
        <ele>1044.2</ele>
        <time>2022-08-14T10:52:58Z</time>
      </trkpt>
      <trkpt lat="40.8446950" lon="-8.2799560">
        <ele>1044.2</ele>
        <time>2022-08-14T10:53:00Z</time>
      </trkpt>
      <trkpt lat="40.8447340" lon="-8.2798610">
        <ele>1044.8</ele>
        <time>2022-08-14T10:53:06Z</time>
      </trkpt>
      <trkpt lat="40.8447310" lon="-8.2798160">
        <ele>1045.2</ele>
        <time>2022-08-14T10:53:09Z</time>
      </trkpt>
      <trkpt lat="40.8447350" lon="-8.2798000">
        <ele>1045.4</ele>
        <time>2022-08-14T10:53:11Z</time>
      </trkpt>
      <trkpt lat="40.8447550" lon="-8.2797780">
        <ele>1045.6</ele>
        <time>2022-08-14T10:53:12Z</time>
      </trkpt>
      <trkpt lat="40.8447810" lon="-8.2797790">
        <ele>1045.6</ele>
        <time>2022-08-14T10:53:14Z</time>
      </trkpt>
      <trkpt lat="40.8447870" lon="-8.2797890">
        <ele>1045.6</ele>
        <time>2022-08-14T10:53:15Z</time>
      </trkpt>
      <trkpt lat="40.8447950" lon="-8.2798030">
        <ele>1045.6</ele>
        <time>2022-08-14T10:53:16Z</time>
      </trkpt>
      <trkpt lat="40.8447920" lon="-8.2798380">
        <ele>1045.6</ele>
        <time>2022-08-14T10:53:18Z</time>
      </trkpt>
      <trkpt lat="40.8447760" lon="-8.2798560">
        <ele>1045.8</ele>
        <time>2022-08-14T10:53:19Z</time>
      </trkpt>
      <trkpt lat="40.8446830" lon="-8.2798290">
        <ele>1045.8</ele>
        <time>2022-08-14T10:53:23Z</time>
      </trkpt>
      <trkpt lat="40.8446120" lon="-8.2796570">
        <ele>1045.4</ele>
        <time>2022-08-14T10:53:28Z</time>
      </trkpt>
      <trkpt lat="40.8445280" lon="-8.2794710">
        <ele>1045.2</ele>
        <time>2022-08-14T10:53:33Z</time>
      </trkpt>
      <trkpt lat="40.8444010" lon="-8.2792180">
        <ele>1044.6</ele>
        <time>2022-08-14T10:53:39Z</time>
      </trkpt>
      <trkpt lat="40.8443760" lon="-8.2791720">
        <ele>1044.4</ele>
        <time>2022-08-14T10:53:40Z</time>
      </trkpt>
      <trkpt lat="40.8442430" lon="-8.2789020">
        <ele>1043.4</ele>
        <time>2022-08-14T10:53:46Z</time>
      </trkpt>
      <trkpt lat="40.8442270" lon="-8.2788660">
        <ele>1043.2</ele>
        <time>2022-08-14T10:53:47Z</time>
      </trkpt>
      <trkpt lat="40.8441100" lon="-8.2786450">
        <ele>1042.8</ele>
        <time>2022-08-14T10:53:53Z</time>
      </trkpt>
      <trkpt lat="40.8440770" lon="-8.2785730">
        <ele>1042.0</ele>
        <time>2022-08-14T10:53:55Z</time>
      </trkpt>
      <trkpt lat="40.8440110" lon="-8.2784160">
        <ele>1041.4</ele>
        <time>2022-08-14T10:54:00Z</time>
      </trkpt>
      <trkpt lat="40.8439550" lon="-8.2782600">
        <ele>1041.4</ele>
        <time>2022-08-14T10:54:06Z</time>
      </trkpt>
      <trkpt lat="40.8438810" lon="-8.2780590">
        <ele>1041.4</ele>
        <time>2022-08-14T10:54:14Z</time>
      </trkpt>
      <trkpt lat="40.8437610" lon="-8.2778130">
        <ele>1041.0</ele>
        <time>2022-08-14T10:54:23Z</time>
      </trkpt>
      <trkpt lat="40.8436900" lon="-8.2777040">
        <ele>1040.8</ele>
        <time>2022-08-14T10:54:28Z</time>
      </trkpt>
      <trkpt lat="40.8436550" lon="-8.2776170">
        <ele>1041.0</ele>
        <time>2022-08-14T10:54:31Z</time>
      </trkpt>
      <trkpt lat="40.8436330" lon="-8.2775600">
        <ele>1040.8</ele>
        <time>2022-08-14T10:54:33Z</time>
      </trkpt>
      <trkpt lat="40.8436200" lon="-8.2774280">
        <ele>1040.8</ele>
        <time>2022-08-14T10:54:37Z</time>
      </trkpt>
      <trkpt lat="40.8435990" lon="-8.2771120">
        <ele>1040.6</ele>
        <time>2022-08-14T10:54:45Z</time>
      </trkpt>
      <trkpt lat="40.8436330" lon="-8.2768570">
        <ele>1039.8</ele>
        <time>2022-08-14T10:54:51Z</time>
      </trkpt>
      <trkpt lat="40.8436430" lon="-8.2768310">
        <ele>1039.6</ele>
        <time>2022-08-14T10:54:52Z</time>
      </trkpt>
      <trkpt lat="40.8436830" lon="-8.2767070">
        <ele>1038.8</ele>
        <time>2022-08-14T10:54:58Z</time>
      </trkpt>
      <trkpt lat="40.8436930" lon="-8.2766850">
        <ele>1038.4</ele>
        <time>2022-08-14T10:54:59Z</time>
      </trkpt>
      <trkpt lat="40.8437590" lon="-8.2765200">
        <ele>1037.6</ele>
        <time>2022-08-14T10:55:06Z</time>
      </trkpt>
      <trkpt lat="40.8437650" lon="-8.2764880">
        <ele>1037.4</ele>
        <time>2022-08-14T10:55:07Z</time>
      </trkpt>
      <trkpt lat="40.8438120" lon="-8.2762600">
        <ele>1036.6</ele>
        <time>2022-08-14T10:55:11Z</time>
      </trkpt>
      <trkpt lat="40.8439050" lon="-8.2758740">
        <ele>1035.6</ele>
        <time>2022-08-14T10:55:15Z</time>
      </trkpt>
      <trkpt lat="40.8439350" lon="-8.2757520">
        <ele>1035.2</ele>
        <time>2022-08-14T10:55:16Z</time>
      </trkpt>
      <trkpt lat="40.8439760" lon="-8.2755970">
        <ele>1034.0</ele>
        <time>2022-08-14T10:55:17Z</time>
      </trkpt>
      <trkpt lat="40.8440420" lon="-8.2753450">
        <ele>1032.2</ele>
        <time>2022-08-14T10:55:19Z</time>
      </trkpt>
      <trkpt lat="40.8441160" lon="-8.2750520">
        <ele>1030.4</ele>
        <time>2022-08-14T10:55:21Z</time>
      </trkpt>
      <trkpt lat="40.8441580" lon="-8.2749020">
        <ele>1029.2</ele>
        <time>2022-08-14T10:55:22Z</time>
      </trkpt>
      <trkpt lat="40.8442340" lon="-8.2746010">
        <ele>1026.8</ele>
        <time>2022-08-14T10:55:24Z</time>
      </trkpt>
      <trkpt lat="40.8442600" lon="-8.2744480">
        <ele>1026.0</ele>
        <time>2022-08-14T10:55:25Z</time>
      </trkpt>
      <trkpt lat="40.8442810" lon="-8.2742730">
        <ele>1024.6</ele>
        <time>2022-08-14T10:55:26Z</time>
      </trkpt>
      <trkpt lat="40.8442910" lon="-8.2741700">
        <ele>1023.4</ele>
        <time>2022-08-14T10:55:27Z</time>
      </trkpt>
      <trkpt lat="40.8442950" lon="-8.2740520">
        <ele>1022.6</ele>
        <time>2022-08-14T10:55:28Z</time>
      </trkpt>
      <trkpt lat="40.8442900" lon="-8.2739440">
        <ele>1021.4</ele>
        <time>2022-08-14T10:55:29Z</time>
      </trkpt>
      <trkpt lat="40.8442710" lon="-8.2738410">
        <ele>1020.4</ele>
        <time>2022-08-14T10:55:30Z</time>
      </trkpt>
      <trkpt lat="40.8442310" lon="-8.2737180">
        <ele>1018.4</ele>
        <time>2022-08-14T10:55:31Z</time>
      </trkpt>
      <trkpt lat="40.8441840" lon="-8.2736170">
        <ele>1017.6</ele>
        <time>2022-08-14T10:55:32Z</time>
      </trkpt>
      <trkpt lat="40.8441400" lon="-8.2735360">
        <ele>1016.6</ele>
        <time>2022-08-14T10:55:33Z</time>
      </trkpt>
      <trkpt lat="40.8440390" lon="-8.2733320">
        <ele>1015.0</ele>
        <time>2022-08-14T10:55:35Z</time>
      </trkpt>
      <trkpt lat="40.8440070" lon="-8.2732420">
        <ele>1013.8</ele>
        <time>2022-08-14T10:55:36Z</time>
      </trkpt>
      <trkpt lat="40.8439800" lon="-8.2731420">
        <ele>1013.2</ele>
        <time>2022-08-14T10:55:37Z</time>
      </trkpt>
      <trkpt lat="40.8439540" lon="-8.2730370">
        <ele>1012.0</ele>
        <time>2022-08-14T10:55:38Z</time>
      </trkpt>
      <trkpt lat="40.8439280" lon="-8.2729320">
        <ele>1010.4</ele>
        <time>2022-08-14T10:55:40Z</time>
      </trkpt>
      <trkpt lat="40.8439000" lon="-8.2728120">
        <ele>1009.2</ele>
        <time>2022-08-14T10:55:42Z</time>
      </trkpt>
      <trkpt lat="40.8438850" lon="-8.2727430">
        <ele>1007.8</ele>
        <time>2022-08-14T10:55:43Z</time>
      </trkpt>
      <trkpt lat="40.8438550" lon="-8.2726080">
        <ele>1006.6</ele>
        <time>2022-08-14T10:55:45Z</time>
      </trkpt>
      <trkpt lat="40.8438140" lon="-8.2724520">
        <ele>1005.6</ele>
        <time>2022-08-14T10:55:48Z</time>
      </trkpt>
      <trkpt lat="40.8438020" lon="-8.2724100">
        <ele>1005.6</ele>
        <time>2022-08-14T10:55:49Z</time>
      </trkpt>
      <trkpt lat="40.8437610" lon="-8.2723210">
        <ele>1004.4</ele>
        <time>2022-08-14T10:55:52Z</time>
      </trkpt>
      <trkpt lat="40.8437460" lon="-8.2722960">
        <ele>1004.2</ele>
        <time>2022-08-14T10:55:53Z</time>
      </trkpt>
      <trkpt lat="40.8437350" lon="-8.2722680">
        <ele>1003.2</ele>
        <time>2022-08-14T10:55:54Z</time>
      </trkpt>
      <trkpt lat="40.8437270" lon="-8.2722340">
        <ele>1002.6</ele>
        <time>2022-08-14T10:55:55Z</time>
      </trkpt>
      <trkpt lat="40.8437390" lon="-8.2721590">
        <ele>1002.4</ele>
        <time>2022-08-14T10:55:57Z</time>
      </trkpt>
      <trkpt lat="40.8437750" lon="-8.2720030">
        <ele>1002.2</ele>
        <time>2022-08-14T10:56:00Z</time>
      </trkpt>
      <trkpt lat="40.8437910" lon="-8.2719240">
        <ele>1002.0</ele>
        <time>2022-08-14T10:56:01Z</time>
      </trkpt>
      <trkpt lat="40.8438740" lon="-8.2715210">
        <ele>1001.4</ele>
        <time>2022-08-14T10:56:06Z</time>
      </trkpt>
      <trkpt lat="40.8439020" lon="-8.2713460">
        <ele>1000.8</ele>
        <time>2022-08-14T10:56:08Z</time>
      </trkpt>
      <trkpt lat="40.8439390" lon="-8.2711280">
        <ele>1000.8</ele>
        <time>2022-08-14T10:56:10Z</time>
      </trkpt>
      <trkpt lat="40.8439590" lon="-8.2710530">
        <ele>1000.8</ele>
        <time>2022-08-14T10:56:11Z</time>
      </trkpt>
      <trkpt lat="40.8440580" lon="-8.2707750">
        <ele>1000.2</ele>
        <time>2022-08-14T10:56:14Z</time>
      </trkpt>
      <trkpt lat="40.8441330" lon="-8.2706550">
        <ele>1000.0</ele>
        <time>2022-08-14T10:56:16Z</time>
      </trkpt>
      <trkpt lat="40.8442260" lon="-8.2705320">
        <ele>999.6</ele>
        <time>2022-08-14T10:56:18Z</time>
      </trkpt>
      <trkpt lat="40.8442990" lon="-8.2704490">
        <ele>999.2</ele>
        <time>2022-08-14T10:56:20Z</time>
      </trkpt>
      <trkpt lat="40.8443220" lon="-8.2704180">
        <ele>999.0</ele>
        <time>2022-08-14T10:56:21Z</time>
      </trkpt>
      <trkpt lat="40.8444390" lon="-8.2703220">
        <ele>998.6</ele>
        <time>2022-08-14T10:56:25Z</time>
      </trkpt>
      <trkpt lat="40.8444690" lon="-8.2703280">
        <ele>998.6</ele>
        <time>2022-08-14T10:56:26Z</time>
      </trkpt>
      <trkpt lat="40.8444900" lon="-8.2703480">
        <ele>998.4</ele>
        <time>2022-08-14T10:56:27Z</time>
      </trkpt>
      <trkpt lat="40.8445070" lon="-8.2703750">
        <ele>998.4</ele>
        <time>2022-08-14T10:56:28Z</time>
      </trkpt>
      <trkpt lat="40.8446130" lon="-8.2704540">
        <ele>998.0</ele>
        <time>2022-08-14T10:56:32Z</time>
      </trkpt>
      <trkpt lat="40.8447850" lon="-8.2704150">
        <ele>997.4</ele>
        <time>2022-08-14T10:56:36Z</time>
      </trkpt>
      <trkpt lat="40.8448360" lon="-8.2703980">
        <ele>997.2</ele>
        <time>2022-08-14T10:56:37Z</time>
      </trkpt>
      <trkpt lat="40.8450530" lon="-8.2703180">
        <ele>996.0</ele>
        <time>2022-08-14T10:56:41Z</time>
      </trkpt>
      <trkpt lat="40.8451080" lon="-8.2703010">
        <ele>995.8</ele>
        <time>2022-08-14T10:56:42Z</time>
      </trkpt>
      <trkpt lat="40.8452370" lon="-8.2702770">
        <ele>994.8</ele>
        <time>2022-08-14T10:56:44Z</time>
      </trkpt>
      <trkpt lat="40.8452860" lon="-8.2702750">
        <ele>994.6</ele>
        <time>2022-08-14T10:56:45Z</time>
      </trkpt>
      <trkpt lat="40.8454010" lon="-8.2702910">
        <ele>994.2</ele>
        <time>2022-08-14T10:56:47Z</time>
      </trkpt>
      <trkpt lat="40.8455070" lon="-8.2703230">
        <ele>993.6</ele>
        <time>2022-08-14T10:56:49Z</time>
      </trkpt>
      <trkpt lat="40.8457180" lon="-8.2703900">
        <ele>992.4</ele>
        <time>2022-08-14T10:56:53Z</time>
      </trkpt>
      <trkpt lat="40.8457560" lon="-8.2704040">
        <ele>992.4</ele>
        <time>2022-08-14T10:56:54Z</time>
      </trkpt>
      <trkpt lat="40.8458410" lon="-8.2704420">
        <ele>991.8</ele>
        <time>2022-08-14T10:56:56Z</time>
      </trkpt>
      <trkpt lat="40.8458830" lon="-8.2704550">
        <ele>991.4</ele>
        <time>2022-08-14T10:56:57Z</time>
      </trkpt>
      <trkpt lat="40.8460150" lon="-8.2705010">
        <ele>990.6</ele>
        <time>2022-08-14T10:57:00Z</time>
      </trkpt>
      <trkpt lat="40.8460700" lon="-8.2705190">
        <ele>990.4</ele>
        <time>2022-08-14T10:57:01Z</time>
      </trkpt>
      <trkpt lat="40.8463030" lon="-8.2706140">
        <ele>989.2</ele>
        <time>2022-08-14T10:57:06Z</time>
      </trkpt>
      <trkpt lat="40.8463930" lon="-8.2706480">
        <ele>988.4</ele>
        <time>2022-08-14T10:57:08Z</time>
      </trkpt>
      <trkpt lat="40.8464390" lon="-8.2706660">
        <ele>988.2</ele>
        <time>2022-08-14T10:57:09Z</time>
      </trkpt>
      <trkpt lat="40.8465280" lon="-8.2707100">
        <ele>987.6</ele>
        <time>2022-08-14T10:57:11Z</time>
      </trkpt>
      <trkpt lat="40.8466060" lon="-8.2707860">
        <ele>987.0</ele>
        <time>2022-08-14T10:57:13Z</time>
      </trkpt>
      <trkpt lat="40.8466760" lon="-8.2708810">
        <ele>986.4</ele>
        <time>2022-08-14T10:57:15Z</time>
      </trkpt>
      <trkpt lat="40.8467300" lon="-8.2710080">
        <ele>985.8</ele>
        <time>2022-08-14T10:57:17Z</time>
      </trkpt>
      <trkpt lat="40.8467440" lon="-8.2710580">
        <ele>985.4</ele>
        <time>2022-08-14T10:57:18Z</time>
      </trkpt>
      <trkpt lat="40.8467940" lon="-8.2713200">
        <ele>984.8</ele>
        <time>2022-08-14T10:57:22Z</time>
      </trkpt>
      <trkpt lat="40.8468330" lon="-8.2714960">
        <ele>984.2</ele>
        <time>2022-08-14T10:57:25Z</time>
      </trkpt>
      <trkpt lat="40.8468460" lon="-8.2715510">
        <ele>984.0</ele>
        <time>2022-08-14T10:57:26Z</time>
      </trkpt>
      <trkpt lat="40.8468780" lon="-8.2716290">
        <ele>983.6</ele>
        <time>2022-08-14T10:57:28Z</time>
      </trkpt>
      <trkpt lat="40.8468870" lon="-8.2716650">
        <ele>983.4</ele>
        <time>2022-08-14T10:57:29Z</time>
      </trkpt>
      <trkpt lat="40.8469200" lon="-8.2718810">
        <ele>982.2</ele>
        <time>2022-08-14T10:57:35Z</time>
      </trkpt>
      <trkpt lat="40.8469480" lon="-8.2719170">
        <ele>981.8</ele>
        <time>2022-08-14T10:57:37Z</time>
      </trkpt>
      <trkpt lat="40.8469650" lon="-8.2718960">
        <ele>981.2</ele>
        <time>2022-08-14T10:57:39Z</time>
      </trkpt>
      <trkpt lat="40.8469690" lon="-8.2718860">
        <ele>981.0</ele>
        <time>2022-08-14T10:57:40Z</time>
      </trkpt>
      <trkpt lat="40.8469740" lon="-8.2718850">
        <ele>980.8</ele>
        <time>2022-08-14T10:57:43Z</time>
      </trkpt>
      <trkpt lat="40.8469580" lon="-8.2718940">
        <ele>979.8</ele>
        <time>2022-08-14T10:58:06Z</time>
      </trkpt>
      <trkpt lat="40.8469580" lon="-8.2719110">
        <ele>979.8</ele>
        <time>2022-08-14T10:58:07Z</time>
      </trkpt>
      <trkpt lat="40.8469550" lon="-8.2719260">
        <ele>979.8</ele>
        <time>2022-08-14T10:58:08Z</time>
      </trkpt>
      <trkpt lat="40.8469080" lon="-8.2719380">
        <ele>979.6</ele>
        <time>2022-08-14T10:58:11Z</time>
      </trkpt>
      <trkpt lat="40.8468900" lon="-8.2720510">
        <ele>979.6</ele>
        <time>2022-08-14T10:58:14Z</time>
      </trkpt>
      <trkpt lat="40.8469460" lon="-8.2724300">
        <ele>978.4</ele>
        <time>2022-08-14T10:58:21Z</time>
      </trkpt>
      <trkpt lat="40.8469600" lon="-8.2726460">
        <ele>977.2</ele>
        <time>2022-08-14T10:58:24Z</time>
      </trkpt>
      <trkpt lat="40.8469720" lon="-8.2727810">
        <ele>976.2</ele>
        <time>2022-08-14T10:58:26Z</time>
      </trkpt>
      <trkpt lat="40.8469810" lon="-8.2728560">
        <ele>975.8</ele>
        <time>2022-08-14T10:58:27Z</time>
      </trkpt>
      <trkpt lat="40.8470160" lon="-8.2731060">
        <ele>974.4</ele>
        <time>2022-08-14T10:58:30Z</time>
      </trkpt>
      <trkpt lat="40.8470450" lon="-8.2733660">
        <ele>973.2</ele>
        <time>2022-08-14T10:58:33Z</time>
      </trkpt>
      <trkpt lat="40.8470760" lon="-8.2736240">
        <ele>972.0</ele>
        <time>2022-08-14T10:58:36Z</time>
      </trkpt>
      <trkpt lat="40.8470950" lon="-8.2737090">
        <ele>971.4</ele>
        <time>2022-08-14T10:58:37Z</time>
      </trkpt>
      <trkpt lat="40.8471180" lon="-8.2737970">
        <ele>970.8</ele>
        <time>2022-08-14T10:58:38Z</time>
      </trkpt>
      <trkpt lat="40.8471470" lon="-8.2738830">
        <ele>970.4</ele>
        <time>2022-08-14T10:58:39Z</time>
      </trkpt>
      <trkpt lat="40.8472000" lon="-8.2740650">
        <ele>969.4</ele>
        <time>2022-08-14T10:58:41Z</time>
      </trkpt>
      <trkpt lat="40.8472660" lon="-8.2743610">
        <ele>968.2</ele>
        <time>2022-08-14T10:58:44Z</time>
      </trkpt>
      <trkpt lat="40.8472750" lon="-8.2744400">
        <ele>967.6</ele>
        <time>2022-08-14T10:58:45Z</time>
      </trkpt>
      <trkpt lat="40.8472800" lon="-8.2745410">
        <ele>967.2</ele>
        <time>2022-08-14T10:58:46Z</time>
      </trkpt>
      <trkpt lat="40.8472720" lon="-8.2747500">
        <ele>966.0</ele>
        <time>2022-08-14T10:58:48Z</time>
      </trkpt>
      <trkpt lat="40.8472740" lon="-8.2749540">
        <ele>965.4</ele>
        <time>2022-08-14T10:58:50Z</time>
      </trkpt>
      <trkpt lat="40.8473000" lon="-8.2750440">
        <ele>964.2</ele>
        <time>2022-08-14T10:58:51Z</time>
      </trkpt>
      <trkpt lat="40.8473340" lon="-8.2751270">
        <ele>963.2</ele>
        <time>2022-08-14T10:58:52Z</time>
      </trkpt>
      <trkpt lat="40.8473700" lon="-8.2751970">
        <ele>962.6</ele>
        <time>2022-08-14T10:58:53Z</time>
      </trkpt>
      <trkpt lat="40.8474530" lon="-8.2753050">
        <ele>961.2</ele>
        <time>2022-08-14T10:58:55Z</time>
      </trkpt>
      <trkpt lat="40.8475250" lon="-8.2753850">
        <ele>960.4</ele>
        <time>2022-08-14T10:58:57Z</time>
      </trkpt>
      <trkpt lat="40.8475580" lon="-8.2754160">
        <ele>959.4</ele>
        <time>2022-08-14T10:58:58Z</time>
      </trkpt>
      <trkpt lat="40.8476040" lon="-8.2754590">
        <ele>958.0</ele>
        <time>2022-08-14T10:59:00Z</time>
      </trkpt>
      <trkpt lat="40.8476340" lon="-8.2754920">
        <ele>957.0</ele>
        <time>2022-08-14T10:59:01Z</time>
      </trkpt>
      <trkpt lat="40.8476500" lon="-8.2755100">
        <ele>956.6</ele>
        <time>2022-08-14T10:59:02Z</time>
      </trkpt>
      <trkpt lat="40.8476660" lon="-8.2755280">
        <ele>955.2</ele>
        <time>2022-08-14T10:59:05Z</time>
      </trkpt>
      <trkpt lat="40.8476820" lon="-8.2755460">
        <ele>954.6</ele>
        <time>2022-08-14T10:59:06Z</time>
      </trkpt>
      <trkpt lat="40.8476990" lon="-8.2755640">
        <ele>954.0</ele>
        <time>2022-08-14T10:59:08Z</time>
      </trkpt>
      <trkpt lat="40.8477150" lon="-8.2755820">
        <ele>951.8</ele>
        <time>2022-08-14T10:59:28Z</time>
      </trkpt>
      <trkpt lat="40.8477310" lon="-8.2755990">
        <ele>951.8</ele>
        <time>2022-08-14T10:59:29Z</time>
      </trkpt>
      <trkpt lat="40.8478600" lon="-8.2757780">
        <ele>951.6</ele>
        <time>2022-08-14T10:59:33Z</time>
      </trkpt>
      <trkpt lat="40.8480520" lon="-8.2760850">
        <ele>950.4</ele>
        <time>2022-08-14T10:59:40Z</time>
      </trkpt>
      <trkpt lat="40.8481180" lon="-8.2761820">
        <ele>949.2</ele>
        <time>2022-08-14T10:59:43Z</time>
      </trkpt>
      <trkpt lat="40.8481680" lon="-8.2762530">
        <ele>948.0</ele>
        <time>2022-08-14T10:59:46Z</time>
      </trkpt>
      <trkpt lat="40.8482220" lon="-8.2763110">
        <ele>947.0</ele>
        <time>2022-08-14T10:59:49Z</time>
      </trkpt>
      <trkpt lat="40.8482490" lon="-8.2763640">
        <ele>946.0</ele>
        <time>2022-08-14T10:59:52Z</time>
      </trkpt>
      <trkpt lat="40.8482870" lon="-8.2763970">
        <ele>945.0</ele>
        <time>2022-08-14T10:59:55Z</time>
      </trkpt>
      <trkpt lat="40.8483440" lon="-8.2764560">
        <ele>944.4</ele>
        <time>2022-08-14T10:59:58Z</time>
      </trkpt>
      <trkpt lat="40.8484030" lon="-8.2765290">
        <ele>943.8</ele>
        <time>2022-08-14T11:00:01Z</time>
      </trkpt>
      <trkpt lat="40.8484670" lon="-8.2766160">
        <ele>943.2</ele>
        <time>2022-08-14T11:00:04Z</time>
      </trkpt>
      <trkpt lat="40.8485170" lon="-8.2766800">
        <ele>942.6</ele>
        <time>2022-08-14T11:00:06Z</time>
      </trkpt>
      <trkpt lat="40.8486010" lon="-8.2768010">
        <ele>941.8</ele>
        <time>2022-08-14T11:00:09Z</time>
      </trkpt>
      <trkpt lat="40.8486660" lon="-8.2768800">
        <ele>941.4</ele>
        <time>2022-08-14T11:00:11Z</time>
      </trkpt>
      <trkpt lat="40.8488050" lon="-8.2770510">
        <ele>940.0</ele>
        <time>2022-08-14T11:00:14Z</time>
      </trkpt>
      <trkpt lat="40.8489380" lon="-8.2772390">
        <ele>938.8</ele>
        <time>2022-08-14T11:00:17Z</time>
      </trkpt>
      <trkpt lat="40.8490270" lon="-8.2774010">
        <ele>938.0</ele>
        <time>2022-08-14T11:00:19Z</time>
      </trkpt>
      <trkpt lat="40.8490670" lon="-8.2774880">
        <ele>937.6</ele>
        <time>2022-08-14T11:00:20Z</time>
      </trkpt>
      <trkpt lat="40.8491660" lon="-8.2777590">
        <ele>936.0</ele>
        <time>2022-08-14T11:00:23Z</time>
      </trkpt>
      <trkpt lat="40.8491940" lon="-8.2778500">
        <ele>935.8</ele>
        <time>2022-08-14T11:00:24Z</time>
      </trkpt>
      <trkpt lat="40.8492210" lon="-8.2779400">
        <ele>935.0</ele>
        <time>2022-08-14T11:00:25Z</time>
      </trkpt>
      <trkpt lat="40.8492680" lon="-8.2781210">
        <ele>933.8</ele>
        <time>2022-08-14T11:00:27Z</time>
      </trkpt>
      <trkpt lat="40.8493200" lon="-8.2782900">
        <ele>932.8</ele>
        <time>2022-08-14T11:00:29Z</time>
      </trkpt>
      <trkpt lat="40.8493580" lon="-8.2783640">
        <ele>932.2</ele>
        <time>2022-08-14T11:00:30Z</time>
      </trkpt>
      <trkpt lat="40.8494030" lon="-8.2784280">
        <ele>932.0</ele>
        <time>2022-08-14T11:00:31Z</time>
      </trkpt>
      <trkpt lat="40.8494530" lon="-8.2784890">
        <ele>931.2</ele>
        <time>2022-08-14T11:00:32Z</time>
      </trkpt>
      <trkpt lat="40.8496020" lon="-8.2786900">
        <ele>930.2</ele>
        <time>2022-08-14T11:00:35Z</time>
      </trkpt>
      <trkpt lat="40.8496490" lon="-8.2787660">
        <ele>930.2</ele>
        <time>2022-08-14T11:00:36Z</time>
      </trkpt>
      <trkpt lat="40.8497700" lon="-8.2790200">
        <ele>928.8</ele>
        <time>2022-08-14T11:00:39Z</time>
      </trkpt>
      <trkpt lat="40.8498020" lon="-8.2791120">
        <ele>928.6</ele>
        <time>2022-08-14T11:00:40Z</time>
      </trkpt>
      <trkpt lat="40.8498260" lon="-8.2792100">
        <ele>928.0</ele>
        <time>2022-08-14T11:00:41Z</time>
      </trkpt>
      <trkpt lat="40.8498420" lon="-8.2793110">
        <ele>927.8</ele>
        <time>2022-08-14T11:00:42Z</time>
      </trkpt>
      <trkpt lat="40.8498680" lon="-8.2795180">
        <ele>926.6</ele>
        <time>2022-08-14T11:00:44Z</time>
      </trkpt>
      <trkpt lat="40.8499050" lon="-8.2798560">
        <ele>925.4</ele>
        <time>2022-08-14T11:00:47Z</time>
      </trkpt>
      <trkpt lat="40.8499360" lon="-8.2800970">
        <ele>924.0</ele>
        <time>2022-08-14T11:00:49Z</time>
      </trkpt>
      <trkpt lat="40.8499660" lon="-8.2803400">
        <ele>922.8</ele>
        <time>2022-08-14T11:00:51Z</time>
      </trkpt>
      <trkpt lat="40.8499890" lon="-8.2805790">
        <ele>921.4</ele>
        <time>2022-08-14T11:00:53Z</time>
      </trkpt>
      <trkpt lat="40.8499980" lon="-8.2808070">
        <ele>920.2</ele>
        <time>2022-08-14T11:00:55Z</time>
      </trkpt>
      <trkpt lat="40.8500020" lon="-8.2809100">
        <ele>919.2</ele>
        <time>2022-08-14T11:00:56Z</time>
      </trkpt>
      <trkpt lat="40.8500100" lon="-8.2810760">
        <ele>917.6</ele>
        <time>2022-08-14T11:00:58Z</time>
      </trkpt>
      <trkpt lat="40.8500150" lon="-8.2811940">
        <ele>916.8</ele>
        <time>2022-08-14T11:01:00Z</time>
      </trkpt>
      <trkpt lat="40.8500160" lon="-8.2812400">
        <ele>916.6</ele>
        <time>2022-08-14T11:01:01Z</time>
      </trkpt>
      <trkpt lat="40.8500170" lon="-8.2813870">
        <ele>916.4</ele>
        <time>2022-08-14T11:01:05Z</time>
      </trkpt>
      <trkpt lat="40.8500510" lon="-8.2816110">
        <ele>917.4</ele>
        <time>2022-08-14T11:01:11Z</time>
      </trkpt>
      <trkpt lat="40.8500750" lon="-8.2817030">
        <ele>917.6</ele>
        <time>2022-08-14T11:01:13Z</time>
      </trkpt>
      <trkpt lat="40.8501170" lon="-8.2818240">
        <ele>918.2</ele>
        <time>2022-08-14T11:01:16Z</time>
      </trkpt>
      <trkpt lat="40.8502320" lon="-8.2820160">
        <ele>918.6</ele>
        <time>2022-08-14T11:01:21Z</time>
      </trkpt>
      <trkpt lat="40.8502870" lon="-8.2820930">
        <ele>918.8</ele>
        <time>2022-08-14T11:01:23Z</time>
      </trkpt>
      <trkpt lat="40.8504620" lon="-8.2822950">
        <ele>919.8</ele>
        <time>2022-08-14T11:01:30Z</time>
      </trkpt>
      <trkpt lat="40.8505740" lon="-8.2824080">
        <ele>920.4</ele>
        <time>2022-08-14T11:01:36Z</time>
      </trkpt>
      <trkpt lat="40.8506070" lon="-8.2824430">
        <ele>920.8</ele>
        <time>2022-08-14T11:01:38Z</time>
      </trkpt>
      <trkpt lat="40.8506890" lon="-8.2825500">
        <ele>921.8</ele>
        <time>2022-08-14T11:01:44Z</time>
      </trkpt>
      <trkpt lat="40.8507030" lon="-8.2825660">
        <ele>922.2</ele>
        <time>2022-08-14T11:01:45Z</time>
      </trkpt>
      <trkpt lat="40.8507950" lon="-8.2826740">
        <ele>923.2</ele>
        <time>2022-08-14T11:01:51Z</time>
      </trkpt>
      <trkpt lat="40.8508160" lon="-8.2826990">
        <ele>923.6</ele>
        <time>2022-08-14T11:01:53Z</time>
      </trkpt>
      <trkpt lat="40.8508310" lon="-8.2827270">
        <ele>924.0</ele>
        <time>2022-08-14T11:01:56Z</time>
      </trkpt>
      <trkpt lat="40.8508210" lon="-8.2827480">
        <ele>924.2</ele>
        <time>2022-08-14T11:01:58Z</time>
      </trkpt>
      <trkpt lat="40.8507910" lon="-8.2827750">
        <ele>924.0</ele>
        <time>2022-08-14T11:02:02Z</time>
      </trkpt>
      <trkpt lat="40.8507700" lon="-8.2828150">
        <ele>924.2</ele>
        <time>2022-08-14T11:02:05Z</time>
      </trkpt>
      <trkpt lat="40.8506970" lon="-8.2828900">
        <ele>924.2</ele>
        <time>2022-08-14T11:02:13Z</time>
      </trkpt>
      <trkpt lat="40.8506230" lon="-8.2829730">
        <ele>925.0</ele>
        <time>2022-08-14T11:02:22Z</time>
      </trkpt>
      <trkpt lat="40.8506160" lon="-8.2829770">
        <ele>925.2</ele>
        <time>2022-08-14T11:02:23Z</time>
      </trkpt>
      <trkpt lat="40.8505660" lon="-8.2829960">
        <ele>926.2</ele>
        <time>2022-08-14T11:02:29Z</time>
      </trkpt>
      <trkpt lat="40.8505630" lon="-8.2830080">
        <ele>926.2</ele>
        <time>2022-08-14T11:02:30Z</time>
      </trkpt>
      <trkpt lat="40.8505570" lon="-8.2830610">
        <ele>926.4</ele>
        <time>2022-08-14T11:02:34Z</time>
      </trkpt>
      <trkpt lat="40.8505430" lon="-8.2831100">
        <ele>926.8</ele>
        <time>2022-08-14T11:02:38Z</time>
      </trkpt>
      <trkpt lat="40.8505380" lon="-8.2831560">
        <ele>927.2</ele>
        <time>2022-08-14T11:02:41Z</time>
      </trkpt>
      <trkpt lat="40.8505320" lon="-8.2831850">
        <ele>927.8</ele>
        <time>2022-08-14T11:02:43Z</time>
      </trkpt>
      <trkpt lat="40.8505070" lon="-8.2832300">
        <ele>928.4</ele>
        <time>2022-08-14T11:02:46Z</time>
      </trkpt>
      <trkpt lat="40.8504600" lon="-8.2832740">
        <ele>929.6</ele>
        <time>2022-08-14T11:02:50Z</time>
      </trkpt>
      <trkpt lat="40.8504470" lon="-8.2832790">
        <ele>930.0</ele>
        <time>2022-08-14T11:02:51Z</time>
      </trkpt>
      <trkpt lat="40.8504130" lon="-8.2832810">
        <ele>930.8</ele>
        <time>2022-08-14T11:02:54Z</time>
      </trkpt>
      <trkpt lat="40.8503760" lon="-8.2832770">
        <ele>932.0</ele>
        <time>2022-08-14T11:02:58Z</time>
      </trkpt>
      <trkpt lat="40.8502890" lon="-8.2833280">
        <ele>932.6</ele>
        <time>2022-08-14T11:03:05Z</time>
      </trkpt>
      <trkpt lat="40.8502770" lon="-8.2833360">
        <ele>933.2</ele>
        <time>2022-08-14T11:03:06Z</time>
      </trkpt>
      <trkpt lat="40.8502340" lon="-8.2833480">
        <ele>934.0</ele>
        <time>2022-08-14T11:03:10Z</time>
      </trkpt>
      <trkpt lat="40.8502050" lon="-8.2833580">
        <ele>935.0</ele>
        <time>2022-08-14T11:03:13Z</time>
      </trkpt>
      <trkpt lat="40.8501960" lon="-8.2833650">
        <ele>935.2</ele>
        <time>2022-08-14T11:03:14Z</time>
      </trkpt>
      <trkpt lat="40.8501410" lon="-8.2833720">
        <ele>936.4</ele>
        <time>2022-08-14T11:03:19Z</time>
      </trkpt>
      <trkpt lat="40.8501160" lon="-8.2833780">
        <ele>936.6</ele>
        <time>2022-08-14T11:03:21Z</time>
      </trkpt>
      <trkpt lat="40.8500690" lon="-8.2833920">
        <ele>937.4</ele>
        <time>2022-08-14T11:03:25Z</time>
      </trkpt>
      <trkpt lat="40.8500560" lon="-8.2834070">
        <ele>938.2</ele>
        <time>2022-08-14T11:03:27Z</time>
      </trkpt>
      <trkpt lat="40.8500480" lon="-8.2834140">
        <ele>938.4</ele>
        <time>2022-08-14T11:03:28Z</time>
      </trkpt>
      <trkpt lat="40.8500390" lon="-8.2834210">
        <ele>938.6</ele>
        <time>2022-08-14T11:03:29Z</time>
      </trkpt>
      <trkpt lat="40.8499940" lon="-8.2834380">
        <ele>939.8</ele>
        <time>2022-08-14T11:03:34Z</time>
      </trkpt>
      <trkpt lat="40.8499750" lon="-8.2834550">
        <ele>940.0</ele>
        <time>2022-08-14T11:03:36Z</time>
      </trkpt>
      <trkpt lat="40.8499690" lon="-8.2834680">
        <ele>940.0</ele>
        <time>2022-08-14T11:03:37Z</time>
      </trkpt>
      <trkpt lat="40.8499640" lon="-8.2834830">
        <ele>940.2</ele>
        <time>2022-08-14T11:03:38Z</time>
      </trkpt>
      <trkpt lat="40.8499560" lon="-8.2835130">
        <ele>940.8</ele>
        <time>2022-08-14T11:03:40Z</time>
      </trkpt>
      <trkpt lat="40.8499480" lon="-8.2835250">
        <ele>940.8</ele>
        <time>2022-08-14T11:03:41Z</time>
      </trkpt>
      <trkpt lat="40.8499380" lon="-8.2835320">
        <ele>940.8</ele>
        <time>2022-08-14T11:03:42Z</time>
      </trkpt>
      <trkpt lat="40.8499160" lon="-8.2835300">
        <ele>941.0</ele>
        <time>2022-08-14T11:03:44Z</time>
      </trkpt>
      <trkpt lat="40.8498960" lon="-8.2835100">
        <ele>941.6</ele>
        <time>2022-08-14T11:03:46Z</time>
      </trkpt>
      <trkpt lat="40.8498890" lon="-8.2834960">
        <ele>942.0</ele>
        <time>2022-08-14T11:03:47Z</time>
      </trkpt>
      <trkpt lat="40.8498850" lon="-8.2834800">
        <ele>942.2</ele>
        <time>2022-08-14T11:03:48Z</time>
      </trkpt>
      <trkpt lat="40.8498940" lon="-8.2834480">
        <ele>943.0</ele>
        <time>2022-08-14T11:03:50Z</time>
      </trkpt>
      <trkpt lat="40.8499150" lon="-8.2834420">
        <ele>943.2</ele>
        <time>2022-08-14T11:03:52Z</time>
      </trkpt>
      <trkpt lat="40.8499280" lon="-8.2834370">
        <ele>943.4</ele>
        <time>2022-08-14T11:03:53Z</time>
      </trkpt>
      <trkpt lat="40.8499340" lon="-8.2834050">
        <ele>943.6</ele>
        <time>2022-08-14T11:03:56Z</time>
      </trkpt>
      <trkpt lat="40.8499260" lon="-8.2833700">
        <ele>943.8</ele>
        <time>2022-08-14T11:04:00Z</time>
      </trkpt>
      <trkpt lat="40.8505700" lon="-8.2830120">
        <ele>928.6</ele>
        <time>2022-08-14T11:07:52Z</time>
      </trkpt>
      <trkpt lat="40.8506860" lon="-8.2828820">
        <ele>927.6</ele>
        <time>2022-08-14T11:07:57Z</time>
      </trkpt>
      <trkpt lat="40.8507050" lon="-8.2828590">
        <ele>927.4</ele>
        <time>2022-08-14T11:07:58Z</time>
      </trkpt>
      <trkpt lat="40.8507610" lon="-8.2827970">
        <ele>926.6</ele>
        <time>2022-08-14T11:08:01Z</time>
      </trkpt>
      <trkpt lat="40.8508410" lon="-8.2827560">
        <ele>925.4</ele>
        <time>2022-08-14T11:08:05Z</time>
      </trkpt>
      <trkpt lat="40.8508730" lon="-8.2827360">
        <ele>924.4</ele>
        <time>2022-08-14T11:08:08Z</time>
      </trkpt>
      <trkpt lat="40.8508730" lon="-8.2827360">
        <ele>923.8</ele>
        <time>2022-08-14T11:08:10Z</time>
      </trkpt>
      <trkpt lat="40.8509060" lon="-8.2826860">
        <ele>922.2</ele>
        <time>2022-08-14T11:09:16Z</time>
      </trkpt>
      <trkpt lat="40.8509370" lon="-8.2826350">
        <ele>922.2</ele>
        <time>2022-08-14T11:09:18Z</time>
      </trkpt>
      <trkpt lat="40.8509760" lon="-8.2825660">
        <ele>921.8</ele>
        <time>2022-08-14T11:09:22Z</time>
      </trkpt>
      <trkpt lat="40.8509730" lon="-8.2825530">
        <ele>921.2</ele>
        <time>2022-08-14T11:09:24Z</time>
      </trkpt>
      <trkpt lat="40.8509620" lon="-8.2825410">
        <ele>920.8</ele>
        <time>2022-08-14T11:09:25Z</time>
      </trkpt>
      <trkpt lat="40.8509460" lon="-8.2825250">
        <ele>920.2</ele>
        <time>2022-08-14T11:09:28Z</time>
      </trkpt>
      <trkpt lat="40.8509340" lon="-8.2825260">
        <ele>920.0</ele>
        <time>2022-08-14T11:09:30Z</time>
      </trkpt>
      <trkpt lat="40.8509250" lon="-8.2825200">
        <ele>919.8</ele>
        <time>2022-08-14T11:09:33Z</time>
      </trkpt>
      <trkpt lat="40.8508130" lon="-8.2826990">
        <ele>923.4</ele>
        <time>2022-08-14T11:11:52Z</time>
      </trkpt>
      <trkpt lat="40.8507990" lon="-8.2826810">
        <ele>923.4</ele>
        <time>2022-08-14T11:11:53Z</time>
      </trkpt>
      <trkpt lat="40.8506920" lon="-8.2825730">
        <ele>923.2</ele>
        <time>2022-08-14T11:11:58Z</time>
      </trkpt>
      <trkpt lat="40.8505870" lon="-8.2824630">
        <ele>922.4</ele>
        <time>2022-08-14T11:12:04Z</time>
      </trkpt>
      <trkpt lat="40.8505420" lon="-8.2824170">
        <ele>922.0</ele>
        <time>2022-08-14T11:12:07Z</time>
      </trkpt>
      <trkpt lat="40.8504760" lon="-8.2823270">
        <ele>921.4</ele>
        <time>2022-08-14T11:12:11Z</time>
      </trkpt>
      <trkpt lat="40.8504200" lon="-8.2822710">
        <ele>921.2</ele>
        <time>2022-08-14T11:12:14Z</time>
      </trkpt>
      <trkpt lat="40.8503280" lon="-8.2821590">
        <ele>920.4</ele>
        <time>2022-08-14T11:12:18Z</time>
      </trkpt>
      <trkpt lat="40.8503030" lon="-8.2821230">
        <ele>920.2</ele>
        <time>2022-08-14T11:12:19Z</time>
      </trkpt>
      <trkpt lat="40.8502050" lon="-8.2819930">
        <ele>919.4</ele>
        <time>2022-08-14T11:12:22Z</time>
      </trkpt>
      <trkpt lat="40.8501470" lon="-8.2819180">
        <ele>919.0</ele>
        <time>2022-08-14T11:12:24Z</time>
      </trkpt>
      <trkpt lat="40.8501280" lon="-8.2818850">
        <ele>919.0</ele>
        <time>2022-08-14T11:12:25Z</time>
      </trkpt>
      <trkpt lat="40.8500430" lon="-8.2815960">
        <ele>918.4</ele>
        <time>2022-08-14T11:12:31Z</time>
      </trkpt>
      <trkpt lat="40.8500290" lon="-8.2815410">
        <ele>918.4</ele>
        <time>2022-08-14T11:12:32Z</time>
      </trkpt>
      <trkpt lat="40.8499920" lon="-8.2812640">
        <ele>918.0</ele>
        <time>2022-08-14T11:12:36Z</time>
      </trkpt>
      <trkpt lat="40.8499770" lon="-8.2808640">
        <ele>917.8</ele>
        <time>2022-08-14T11:12:40Z</time>
      </trkpt>
      <trkpt lat="40.8499730" lon="-8.2807460">
        <ele>917.4</ele>
        <time>2022-08-14T11:12:41Z</time>
      </trkpt>
      <trkpt lat="40.8499680" lon="-8.2806260">
        <ele>917.2</ele>
        <time>2022-08-14T11:12:42Z</time>
      </trkpt>
      <trkpt lat="40.8499400" lon="-8.2802910">
        <ele>916.0</ele>
        <time>2022-08-14T11:12:45Z</time>
      </trkpt>
      <trkpt lat="40.8498820" lon="-8.2798790">
        <ele>915.0</ele>
        <time>2022-08-14T11:12:50Z</time>
      </trkpt>
      <trkpt lat="40.8498520" lon="-8.2796870">
        <ele>915.2</ele>
        <time>2022-08-14T11:12:54Z</time>
      </trkpt>
      <trkpt lat="40.8498410" lon="-8.2794900">
        <ele>916.2</ele>
        <time>2022-08-14T11:12:59Z</time>
      </trkpt>
      <trkpt lat="40.8498310" lon="-8.2793960">
        <ele>917.4</ele>
        <time>2022-08-14T11:13:02Z</time>
      </trkpt>
      <trkpt lat="40.8498150" lon="-8.2793050">
        <ele>918.4</ele>
        <time>2022-08-14T11:13:05Z</time>
      </trkpt>
      <trkpt lat="40.8498020" lon="-8.2792440">
        <ele>919.0</ele>
        <time>2022-08-14T11:13:07Z</time>
      </trkpt>
      <trkpt lat="40.8497820" lon="-8.2791240">
        <ele>919.6</ele>
        <time>2022-08-14T11:13:11Z</time>
      </trkpt>
      <trkpt lat="40.8497440" lon="-8.2789790">
        <ele>920.8</ele>
        <time>2022-08-14T11:13:16Z</time>
      </trkpt>
      <trkpt lat="40.8497250" lon="-8.2789230">
        <ele>921.2</ele>
        <time>2022-08-14T11:13:18Z</time>
      </trkpt>
      <trkpt lat="40.8496780" lon="-8.2788180">
        <ele>921.8</ele>
        <time>2022-08-14T11:13:22Z</time>
      </trkpt>
      <trkpt lat="40.8495970" lon="-8.2786960">
        <ele>922.8</ele>
        <time>2022-08-14T11:13:27Z</time>
      </trkpt>
      <trkpt lat="40.8495830" lon="-8.2786720">
        <ele>923.0</ele>
        <time>2022-08-14T11:13:28Z</time>
      </trkpt>
      <trkpt lat="40.8495070" lon="-8.2785550">
        <ele>924.0</ele>
        <time>2022-08-14T11:13:33Z</time>
      </trkpt>
      <trkpt lat="40.8493940" lon="-8.2784230">
        <ele>924.8</ele>
        <time>2022-08-14T11:13:39Z</time>
      </trkpt>
      <trkpt lat="40.8493770" lon="-8.2783960">
        <ele>925.0</ele>
        <time>2022-08-14T11:13:40Z</time>
      </trkpt>
      <trkpt lat="40.8492590" lon="-8.2781510">
        <ele>925.6</ele>
        <time>2022-08-14T11:13:48Z</time>
      </trkpt>
      <trkpt lat="40.8492030" lon="-8.2779470">
        <ele>926.0</ele>
        <time>2022-08-14T11:13:53Z</time>
      </trkpt>
      <trkpt lat="40.8491480" lon="-8.2777910">
        <ele>926.4</ele>
        <time>2022-08-14T11:13:57Z</time>
      </trkpt>
      <trkpt lat="40.8490880" lon="-8.2776390">
        <ele>927.0</ele>
        <time>2022-08-14T11:14:01Z</time>
      </trkpt>
      <trkpt lat="40.8490090" lon="-8.2774510">
        <ele>927.6</ele>
        <time>2022-08-14T11:14:06Z</time>
      </trkpt>
      <trkpt lat="40.8489350" lon="-8.2773140">
        <ele>928.2</ele>
        <time>2022-08-14T11:14:10Z</time>
      </trkpt>
      <trkpt lat="40.8488660" lon="-8.2771460">
        <ele>928.8</ele>
        <time>2022-08-14T11:14:15Z</time>
      </trkpt>
      <trkpt lat="40.8488270" lon="-8.2770950">
        <ele>929.2</ele>
        <time>2022-08-14T11:14:17Z</time>
      </trkpt>
      <trkpt lat="40.8487460" lon="-8.2769890">
        <ele>930.4</ele>
        <time>2022-08-14T11:14:22Z</time>
      </trkpt>
      <trkpt lat="40.8486790" lon="-8.2768960">
        <ele>932.4</ele>
        <time>2022-08-14T11:14:26Z</time>
      </trkpt>
      <trkpt lat="40.8486280" lon="-8.2768250">
        <ele>933.4</ele>
        <time>2022-08-14T11:14:29Z</time>
      </trkpt>
      <trkpt lat="40.8485930" lon="-8.2767800">
        <ele>933.6</ele>
        <time>2022-08-14T11:14:31Z</time>
      </trkpt>
      <trkpt lat="40.8485280" lon="-8.2767030">
        <ele>934.6</ele>
        <time>2022-08-14T11:14:35Z</time>
      </trkpt>
      <trkpt lat="40.8484730" lon="-8.2766330">
        <ele>935.8</ele>
        <time>2022-08-14T11:14:39Z</time>
      </trkpt>
      <trkpt lat="40.8484570" lon="-8.2766140">
        <ele>936.0</ele>
        <time>2022-08-14T11:14:40Z</time>
      </trkpt>
      <trkpt lat="40.8484180" lon="-8.2765540">
        <ele>936.8</ele>
        <time>2022-08-14T11:14:43Z</time>
      </trkpt>
      <trkpt lat="40.8483330" lon="-8.2764790">
        <ele>937.6</ele>
        <time>2022-08-14T11:14:48Z</time>
      </trkpt>
      <trkpt lat="40.8483160" lon="-8.2764570">
        <ele>938.0</ele>
        <time>2022-08-14T11:14:49Z</time>
      </trkpt>
      <trkpt lat="40.8482510" lon="-8.2763430">
        <ele>939.4</ele>
        <time>2022-08-14T11:14:54Z</time>
      </trkpt>
      <trkpt lat="40.8481830" lon="-8.2762490">
        <ele>940.6</ele>
        <time>2022-08-14T11:14:59Z</time>
      </trkpt>
      <trkpt lat="40.8481230" lon="-8.2761760">
        <ele>941.4</ele>
        <time>2022-08-14T11:15:03Z</time>
      </trkpt>
      <trkpt lat="40.8480930" lon="-8.2761410">
        <ele>941.6</ele>
        <time>2022-08-14T11:15:05Z</time>
      </trkpt>
      <trkpt lat="40.8480480" lon="-8.2760980">
        <ele>942.2</ele>
        <time>2022-08-14T11:15:08Z</time>
      </trkpt>
      <trkpt lat="40.8480290" lon="-8.2760510">
        <ele>942.6</ele>
        <time>2022-08-14T11:15:10Z</time>
      </trkpt>
      <trkpt lat="40.8479750" lon="-8.2759700">
        <ele>943.8</ele>
        <time>2022-08-14T11:15:14Z</time>
      </trkpt>
      <trkpt lat="40.8479530" lon="-8.2759340">
        <ele>944.4</ele>
        <time>2022-08-14T11:15:16Z</time>
      </trkpt>
      <trkpt lat="40.8479260" lon="-8.2758920">
        <ele>945.0</ele>
        <time>2022-08-14T11:15:18Z</time>
      </trkpt>
      <trkpt lat="40.8478360" lon="-8.2757780">
        <ele>946.0</ele>
        <time>2022-08-14T11:15:24Z</time>
      </trkpt>
      <trkpt lat="40.8478210" lon="-8.2757580">
        <ele>946.2</ele>
        <time>2022-08-14T11:15:25Z</time>
      </trkpt>
      <trkpt lat="40.8477550" lon="-8.2756230">
        <ele>947.2</ele>
        <time>2022-08-14T11:15:31Z</time>
      </trkpt>
      <trkpt lat="40.8477020" lon="-8.2755460">
        <ele>947.8</ele>
        <time>2022-08-14T11:15:35Z</time>
      </trkpt>
      <trkpt lat="40.8476900" lon="-8.2755330">
        <ele>948.0</ele>
        <time>2022-08-14T11:15:36Z</time>
      </trkpt>
      <trkpt lat="40.8475980" lon="-8.2754360">
        <ele>949.0</ele>
        <time>2022-08-14T11:15:42Z</time>
      </trkpt>
      <trkpt lat="40.8475310" lon="-8.2753550">
        <ele>950.0</ele>
        <time>2022-08-14T11:15:47Z</time>
      </trkpt>
      <trkpt lat="40.8474990" lon="-8.2753260">
        <ele>950.0</ele>
        <time>2022-08-14T11:15:49Z</time>
      </trkpt>
      <trkpt lat="40.8474130" lon="-8.2752330">
        <ele>951.2</ele>
        <time>2022-08-14T11:15:55Z</time>
      </trkpt>
      <trkpt lat="40.8473330" lon="-8.2750980">
        <ele>952.4</ele>
        <time>2022-08-14T11:16:02Z</time>
      </trkpt>
      <trkpt lat="40.8473050" lon="-8.2750360">
        <ele>953.4</ele>
        <time>2022-08-14T11:16:05Z</time>
      </trkpt>
      <trkpt lat="40.8472930" lon="-8.2750140">
        <ele>953.6</ele>
        <time>2022-08-14T11:16:06Z</time>
      </trkpt>
      <trkpt lat="40.8472650" lon="-8.2748530">
        <ele>954.6</ele>
        <time>2022-08-14T11:16:12Z</time>
      </trkpt>
      <trkpt lat="40.8472780" lon="-8.2746660">
        <ele>955.8</ele>
        <time>2022-08-14T11:16:18Z</time>
      </trkpt>
      <trkpt lat="40.8472810" lon="-8.2745670">
        <ele>956.2</ele>
        <time>2022-08-14T11:16:21Z</time>
      </trkpt>
      <trkpt lat="40.8472820" lon="-8.2745060">
        <ele>957.0</ele>
        <time>2022-08-14T11:16:23Z</time>
      </trkpt>
      <trkpt lat="40.8472780" lon="-8.2743160">
        <ele>958.2</ele>
        <time>2022-08-14T11:16:29Z</time>
      </trkpt>
      <trkpt lat="40.8472690" lon="-8.2742250">
        <ele>959.2</ele>
        <time>2022-08-14T11:16:32Z</time>
      </trkpt>
      <trkpt lat="40.8472260" lon="-8.2741120">
        <ele>960.2</ele>
        <time>2022-08-14T11:16:36Z</time>
      </trkpt>
      <trkpt lat="40.8472160" lon="-8.2740800">
        <ele>960.4</ele>
        <time>2022-08-14T11:16:37Z</time>
      </trkpt>
      <trkpt lat="40.8471530" lon="-8.2738760">
        <ele>961.4</ele>
        <time>2022-08-14T11:16:44Z</time>
      </trkpt>
      <trkpt lat="40.8471360" lon="-8.2738120">
        <ele>961.8</ele>
        <time>2022-08-14T11:16:46Z</time>
      </trkpt>
      <trkpt lat="40.8471000" lon="-8.2736860">
        <ele>962.4</ele>
        <time>2022-08-14T11:16:50Z</time>
      </trkpt>
      <trkpt lat="40.8470930" lon="-8.2736540">
        <ele>962.6</ele>
        <time>2022-08-14T11:16:51Z</time>
      </trkpt>
      <trkpt lat="40.8470730" lon="-8.2735210">
        <ele>963.6</ele>
        <time>2022-08-14T11:16:55Z</time>
      </trkpt>
      <trkpt lat="40.8470630" lon="-8.2734580">
        <ele>964.0</ele>
        <time>2022-08-14T11:16:57Z</time>
      </trkpt>
      <trkpt lat="40.8470420" lon="-8.2732960">
        <ele>964.6</ele>
        <time>2022-08-14T11:17:02Z</time>
      </trkpt>
      <trkpt lat="40.8470140" lon="-8.2731600">
        <ele>965.2</ele>
        <time>2022-08-14T11:17:06Z</time>
      </trkpt>
      <trkpt lat="40.8469990" lon="-8.2730540">
        <ele>965.6</ele>
        <time>2022-08-14T11:17:09Z</time>
      </trkpt>
      <trkpt lat="40.8469770" lon="-8.2728110">
        <ele>967.0</ele>
        <time>2022-08-14T11:17:16Z</time>
      </trkpt>
      <trkpt lat="40.8469710" lon="-8.2726570">
        <ele>968.2</ele>
        <time>2022-08-14T11:17:21Z</time>
      </trkpt>
      <trkpt lat="40.8469660" lon="-8.2724910">
        <ele>969.6</ele>
        <time>2022-08-14T11:17:26Z</time>
      </trkpt>
      <trkpt lat="40.8469550" lon="-8.2723770">
        <ele>971.0</ele>
        <time>2022-08-14T11:17:30Z</time>
      </trkpt>
      <trkpt lat="40.8469450" lon="-8.2722530">
        <ele>972.0</ele>
        <time>2022-08-14T11:17:34Z</time>
      </trkpt>
      <trkpt lat="40.8469470" lon="-8.2722210">
        <ele>972.2</ele>
        <time>2022-08-14T11:17:35Z</time>
      </trkpt>
      <trkpt lat="40.8469370" lon="-8.2721040">
        <ele>973.0</ele>
        <time>2022-08-14T11:17:39Z</time>
      </trkpt>
      <trkpt lat="40.8469160" lon="-8.2719940">
        <ele>974.2</ele>
        <time>2022-08-14T11:17:43Z</time>
      </trkpt>
      <trkpt lat="40.8469070" lon="-8.2719360">
        <ele>974.8</ele>
        <time>2022-08-14T11:17:45Z</time>
      </trkpt>
      <trkpt lat="40.8469050" lon="-8.2718780">
        <ele>975.4</ele>
        <time>2022-08-14T11:17:47Z</time>
      </trkpt>
      <trkpt lat="40.8468730" lon="-8.2717460">
        <ele>976.4</ele>
        <time>2022-08-14T11:17:52Z</time>
      </trkpt>
      <trkpt lat="40.8468610" lon="-8.2716880">
        <ele>977.0</ele>
        <time>2022-08-14T11:17:54Z</time>
      </trkpt>
      <trkpt lat="40.8468480" lon="-8.2716300">
        <ele>977.6</ele>
        <time>2022-08-14T11:17:56Z</time>
      </trkpt>
      <trkpt lat="40.8468170" lon="-8.2714840">
        <ele>978.6</ele>
        <time>2022-08-14T11:18:01Z</time>
      </trkpt>
      <trkpt lat="40.8468090" lon="-8.2714240">
        <ele>979.2</ele>
        <time>2022-08-14T11:18:03Z</time>
      </trkpt>
      <trkpt lat="40.8468000" lon="-8.2713590">
        <ele>979.8</ele>
        <time>2022-08-14T11:18:05Z</time>
      </trkpt>
      <trkpt lat="40.8467590" lon="-8.2711320">
        <ele>980.8</ele>
        <time>2022-08-14T11:18:12Z</time>
      </trkpt>
      <trkpt lat="40.8467060" lon="-8.2709370">
        <ele>981.8</ele>
        <time>2022-08-14T11:18:17Z</time>
      </trkpt>
      <trkpt lat="40.8466480" lon="-8.2708300">
        <ele>982.0</ele>
        <time>2022-08-14T11:18:20Z</time>
      </trkpt>
      <trkpt lat="40.8465500" lon="-8.2707170">
        <ele>982.8</ele>
        <time>2022-08-14T11:18:24Z</time>
      </trkpt>
      <trkpt lat="40.8465030" lon="-8.2706770">
        <ele>983.0</ele>
        <time>2022-08-14T11:18:26Z</time>
      </trkpt>
      <trkpt lat="40.8463760" lon="-8.2706240">
        <ele>983.2</ele>
        <time>2022-08-14T11:18:30Z</time>
      </trkpt>
      <trkpt lat="40.8461110" lon="-8.2705510">
        <ele>984.0</ele>
        <time>2022-08-14T11:18:38Z</time>
      </trkpt>
      <trkpt lat="40.8460180" lon="-8.2705230">
        <ele>984.4</ele>
        <time>2022-08-14T11:18:41Z</time>
      </trkpt>
      <trkpt lat="40.8458560" lon="-8.2704660">
        <ele>985.2</ele>
        <time>2022-08-14T11:18:47Z</time>
      </trkpt>
      <trkpt lat="40.8458270" lon="-8.2704550">
        <ele>985.2</ele>
        <time>2022-08-14T11:18:48Z</time>
      </trkpt>
      <trkpt lat="40.8456560" lon="-8.2704070">
        <ele>986.0</ele>
        <time>2022-08-14T11:18:54Z</time>
      </trkpt>
      <trkpt lat="40.8454710" lon="-8.2703470">
        <ele>987.0</ele>
        <time>2022-08-14T11:19:00Z</time>
      </trkpt>
      <trkpt lat="40.8452950" lon="-8.2703200">
        <ele>988.2</ele>
        <time>2022-08-14T11:19:06Z</time>
      </trkpt>
      <trkpt lat="40.8450580" lon="-8.2703590">
        <ele>989.2</ele>
        <time>2022-08-14T11:19:14Z</time>
      </trkpt>
      <trkpt lat="40.8450280" lon="-8.2703700">
        <ele>989.4</ele>
        <time>2022-08-14T11:19:15Z</time>
      </trkpt>
      <trkpt lat="40.8449350" lon="-8.2704020">
        <ele>990.4</ele>
        <time>2022-08-14T11:19:18Z</time>
      </trkpt>
      <trkpt lat="40.8448230" lon="-8.2704440">
        <ele>991.6</ele>
        <time>2022-08-14T11:19:22Z</time>
      </trkpt>
      <trkpt lat="40.8447330" lon="-8.2704760">
        <ele>992.6</ele>
        <time>2022-08-14T11:19:25Z</time>
      </trkpt>
      <trkpt lat="40.8447060" lon="-8.2704870">
        <ele>992.8</ele>
        <time>2022-08-14T11:19:26Z</time>
      </trkpt>
      <trkpt lat="40.8445760" lon="-8.2705150">
        <ele>994.2</ele>
        <time>2022-08-14T11:19:31Z</time>
      </trkpt>
      <trkpt lat="40.8445520" lon="-8.2705100">
        <ele>994.6</ele>
        <time>2022-08-14T11:19:32Z</time>
      </trkpt>
      <trkpt lat="40.8444920" lon="-8.2704020">
        <ele>995.0</ele>
        <time>2022-08-14T11:19:36Z</time>
      </trkpt>
      <trkpt lat="40.8444910" lon="-8.2703270">
        <ele>995.2</ele>
        <time>2022-08-14T11:19:38Z</time>
      </trkpt>
      <trkpt lat="40.8445100" lon="-8.2702680">
        <ele>995.4</ele>
        <time>2022-08-14T11:19:40Z</time>
      </trkpt>
      <trkpt lat="40.8446040" lon="-8.2701130">
        <ele>996.4</ele>
        <time>2022-08-14T11:19:45Z</time>
      </trkpt>
      <trkpt lat="40.8446450" lon="-8.2700510">
        <ele>996.8</ele>
        <time>2022-08-14T11:19:47Z</time>
      </trkpt>
      <trkpt lat="40.8448740" lon="-8.2697920">
        <ele>997.4</ele>
        <time>2022-08-14T11:19:56Z</time>
      </trkpt>
      <trkpt lat="40.8450780" lon="-8.2695390">
        <ele>997.8</ele>
        <time>2022-08-14T11:20:04Z</time>
      </trkpt>
      <trkpt lat="40.8452970" lon="-8.2692680">
        <ele>997.8</ele>
        <time>2022-08-14T11:20:13Z</time>
      </trkpt>
      <trkpt lat="40.8454970" lon="-8.2689430">
        <ele>998.4</ele>
        <time>2022-08-14T11:20:22Z</time>
      </trkpt>
      <trkpt lat="40.8455170" lon="-8.2688970">
        <ele>998.4</ele>
        <time>2022-08-14T11:20:23Z</time>
      </trkpt>
      <trkpt lat="40.8456280" lon="-8.2686600">
        <ele>999.0</ele>
        <time>2022-08-14T11:20:30Z</time>
      </trkpt>
      <trkpt lat="40.8456890" lon="-8.2684960">
        <ele>999.6</ele>
        <time>2022-08-14T11:20:35Z</time>
      </trkpt>
      <trkpt lat="40.8457530" lon="-8.2683530">
        <ele>1000.2</ele>
        <time>2022-08-14T11:20:39Z</time>
      </trkpt>
      <trkpt lat="40.8458880" lon="-8.2680290">
        <ele>1000.4</ele>
        <time>2022-08-14T11:20:49Z</time>
      </trkpt>
      <trkpt lat="40.8459490" lon="-8.2678890">
        <ele>1000.6</ele>
        <time>2022-08-14T11:20:53Z</time>
      </trkpt>
      <trkpt lat="40.8460040" lon="-8.2677830">
        <ele>1001.8</ele>
        <time>2022-08-14T11:20:56Z</time>
      </trkpt>
      <trkpt lat="40.8460520" lon="-8.2677210">
        <ele>1001.8</ele>
        <time>2022-08-14T11:20:58Z</time>
      </trkpt>
      <trkpt lat="40.8462760" lon="-8.2675410">
        <ele>1001.0</ele>
        <time>2022-08-14T11:21:06Z</time>
      </trkpt>
      <trkpt lat="40.8465420" lon="-8.2674090">
        <ele>1001.0</ele>
        <time>2022-08-14T11:21:14Z</time>
      </trkpt>
      <trkpt lat="40.8468870" lon="-8.2672370">
        <ele>1001.6</ele>
        <time>2022-08-14T11:21:25Z</time>
      </trkpt>
      <trkpt lat="40.8472070" lon="-8.2670710">
        <ele>1002.8</ele>
        <time>2022-08-14T11:21:36Z</time>
      </trkpt>
      <trkpt lat="40.8472300" lon="-8.2670600">
        <ele>1003.0</ele>
        <time>2022-08-14T11:21:37Z</time>
      </trkpt>
      <trkpt lat="40.8473530" lon="-8.2670010">
        <ele>1003.6</ele>
        <time>2022-08-14T11:21:41Z</time>
      </trkpt>
      <trkpt lat="40.8474050" lon="-8.2669760">
        <ele>1003.8</ele>
        <time>2022-08-14T11:21:43Z</time>
      </trkpt>
      <trkpt lat="40.8475520" lon="-8.2669020">
        <ele>1004.2</ele>
        <time>2022-08-14T11:21:48Z</time>
      </trkpt>
      <trkpt lat="40.8477920" lon="-8.2667900">
        <ele>1004.8</ele>
        <time>2022-08-14T11:21:57Z</time>
      </trkpt>
      <trkpt lat="40.8478550" lon="-8.2667690">
        <ele>1005.2</ele>
        <time>2022-08-14T11:21:59Z</time>
      </trkpt>
      <trkpt lat="40.8479900" lon="-8.2667210">
        <ele>1006.0</ele>
        <time>2022-08-14T11:22:04Z</time>
      </trkpt>
      <trkpt lat="40.8481000" lon="-8.2666910">
        <ele>1006.4</ele>
        <time>2022-08-14T11:22:08Z</time>
      </trkpt>
      <trkpt lat="40.8482990" lon="-8.2666450">
        <ele>1007.0</ele>
        <time>2022-08-14T11:22:15Z</time>
      </trkpt>
      <trkpt lat="40.8483680" lon="-8.2666370">
        <ele>1007.2</ele>
        <time>2022-08-14T11:22:17Z</time>
      </trkpt>
      <trkpt lat="40.8486680" lon="-8.2666160">
        <ele>1007.4</ele>
        <time>2022-08-14T11:22:26Z</time>
      </trkpt>
      <trkpt lat="40.8490530" lon="-8.2665700">
        <ele>1007.4</ele>
        <time>2022-08-14T11:22:36Z</time>
      </trkpt>
      <trkpt lat="40.8494700" lon="-8.2665290">
        <ele>1007.6</ele>
        <time>2022-08-14T11:22:47Z</time>
      </trkpt>
      <trkpt lat="40.8498710" lon="-8.2664980">
        <ele>1007.4</ele>
        <time>2022-08-14T11:22:57Z</time>
      </trkpt>
      <trkpt lat="40.8500280" lon="-8.2664810">
        <ele>1007.4</ele>
        <time>2022-08-14T11:23:01Z</time>
      </trkpt>
      <trkpt lat="40.8502180" lon="-8.2664760">
        <ele>1007.6</ele>
        <time>2022-08-14T11:23:06Z</time>
      </trkpt>
      <trkpt lat="40.8504980" lon="-8.2665320">
        <ele>1007.6</ele>
        <time>2022-08-14T11:23:14Z</time>
      </trkpt>
      <trkpt lat="40.8507480" lon="-8.2666360">
        <ele>1008.0</ele>
        <time>2022-08-14T11:23:21Z</time>
      </trkpt>
      <trkpt lat="40.8508490" lon="-8.2666840">
        <ele>1008.2</ele>
        <time>2022-08-14T11:23:24Z</time>
      </trkpt>
      <trkpt lat="40.8510580" lon="-8.2667990">
        <ele>1009.2</ele>
        <time>2022-08-14T11:23:30Z</time>
      </trkpt>
      <trkpt lat="40.8512110" lon="-8.2668890">
        <ele>1009.4</ele>
        <time>2022-08-14T11:23:34Z</time>
      </trkpt>
      <trkpt lat="40.8516470" lon="-8.2671790">
        <ele>1009.2</ele>
        <time>2022-08-14T11:23:45Z</time>
      </trkpt>
      <trkpt lat="40.8520600" lon="-8.2674450">
        <ele>1008.2</ele>
        <time>2022-08-14T11:23:55Z</time>
      </trkpt>
      <trkpt lat="40.8521460" lon="-8.2674960">
        <ele>1008.0</ele>
        <time>2022-08-14T11:23:57Z</time>
      </trkpt>
      <trkpt lat="40.8523180" lon="-8.2675980">
        <ele>1007.8</ele>
        <time>2022-08-14T11:24:01Z</time>
      </trkpt>
      <trkpt lat="40.8524810" lon="-8.2677020">
        <ele>1007.0</ele>
        <time>2022-08-14T11:24:05Z</time>
      </trkpt>
      <trkpt lat="40.8525560" lon="-8.2677540">
        <ele>1006.0</ele>
        <time>2022-08-14T11:24:07Z</time>
      </trkpt>
      <trkpt lat="40.8526300" lon="-8.2678010">
        <ele>1005.4</ele>
        <time>2022-08-14T11:24:09Z</time>
      </trkpt>
      <trkpt lat="40.8528250" lon="-8.2679310">
        <ele>1004.4</ele>
        <time>2022-08-14T11:24:14Z</time>
      </trkpt>
      <trkpt lat="40.8529050" lon="-8.2679970">
        <ele>1004.2</ele>
        <time>2022-08-14T11:24:16Z</time>
      </trkpt>
      <trkpt lat="40.8531680" lon="-8.2682140">
        <ele>1003.6</ele>
        <time>2022-08-14T11:24:22Z</time>
      </trkpt>
      <trkpt lat="40.8532670" lon="-8.2682950">
        <ele>1003.2</ele>
        <time>2022-08-14T11:24:24Z</time>
      </trkpt>
      <trkpt lat="40.8534270" lon="-8.2684190">
        <ele>1002.0</ele>
        <time>2022-08-14T11:24:27Z</time>
      </trkpt>
      <trkpt lat="40.8535340" lon="-8.2685100">
        <ele>1001.2</ele>
        <time>2022-08-14T11:24:29Z</time>
      </trkpt>
      <trkpt lat="40.8536000" lon="-8.2685690">
        <ele>1000.8</ele>
        <time>2022-08-14T11:24:30Z</time>
      </trkpt>
      <trkpt lat="40.8536450" lon="-8.2686100">
        <ele>1000.4</ele>
        <time>2022-08-14T11:24:31Z</time>
      </trkpt>
      <trkpt lat="40.8537650" lon="-8.2687110">
        <ele>999.6</ele>
        <time>2022-08-14T11:24:33Z</time>
      </trkpt>
      <trkpt lat="40.8539580" lon="-8.2688650">
        <ele>998.6</ele>
        <time>2022-08-14T11:24:36Z</time>
      </trkpt>
      <trkpt lat="40.8540260" lon="-8.2689200">
        <ele>998.4</ele>
        <time>2022-08-14T11:24:37Z</time>
      </trkpt>
      <trkpt lat="40.8542320" lon="-8.2690890">
        <ele>997.0</ele>
        <time>2022-08-14T11:24:40Z</time>
      </trkpt>
      <trkpt lat="40.8543750" lon="-8.2692020">
        <ele>995.6</ele>
        <time>2022-08-14T11:24:42Z</time>
      </trkpt>
      <trkpt lat="40.8544480" lon="-8.2692590">
        <ele>995.2</ele>
        <time>2022-08-14T11:24:43Z</time>
      </trkpt>
      <trkpt lat="40.8545920" lon="-8.2693790">
        <ele>994.0</ele>
        <time>2022-08-14T11:24:45Z</time>
      </trkpt>
      <trkpt lat="40.8548090" lon="-8.2695650">
        <ele>992.4</ele>
        <time>2022-08-14T11:24:48Z</time>
      </trkpt>
      <trkpt lat="40.8549580" lon="-8.2696850">
        <ele>991.4</ele>
        <time>2022-08-14T11:24:50Z</time>
      </trkpt>
      <trkpt lat="40.8550330" lon="-8.2697440">
        <ele>990.6</ele>
        <time>2022-08-14T11:24:51Z</time>
      </trkpt>
      <trkpt lat="40.8551220" lon="-8.2698150">
        <ele>989.6</ele>
        <time>2022-08-14T11:24:52Z</time>
      </trkpt>
      <trkpt lat="40.8551810" lon="-8.2698610">
        <ele>989.2</ele>
        <time>2022-08-14T11:24:53Z</time>
      </trkpt>
      <trkpt lat="40.8553320" lon="-8.2699780">
        <ele>988.0</ele>
        <time>2022-08-14T11:24:55Z</time>
      </trkpt>
      <trkpt lat="40.8554870" lon="-8.2701110">
        <ele>986.6</ele>
        <time>2022-08-14T11:24:57Z</time>
      </trkpt>
      <trkpt lat="40.8556150" lon="-8.2702200">
        <ele>985.6</ele>
        <time>2022-08-14T11:24:59Z</time>
      </trkpt>
      <trkpt lat="40.8558410" lon="-8.2703980">
        <ele>984.2</ele>
        <time>2022-08-14T11:25:02Z</time>
      </trkpt>
      <trkpt lat="40.8559670" lon="-8.2704870">
        <ele>983.2</ele>
        <time>2022-08-14T11:25:04Z</time>
      </trkpt>
      <trkpt lat="40.8560520" lon="-8.2705350">
        <ele>982.4</ele>
        <time>2022-08-14T11:25:05Z</time>
      </trkpt>
      <trkpt lat="40.8561230" lon="-8.2705620">
        <ele>981.6</ele>
        <time>2022-08-14T11:25:06Z</time>
      </trkpt>
      <trkpt lat="40.8561950" lon="-8.2705720">
        <ele>981.2</ele>
        <time>2022-08-14T11:25:07Z</time>
      </trkpt>
      <trkpt lat="40.8562530" lon="-8.2705710">
        <ele>980.2</ele>
        <time>2022-08-14T11:25:08Z</time>
      </trkpt>
      <trkpt lat="40.8563400" lon="-8.2705590">
        <ele>979.8</ele>
        <time>2022-08-14T11:25:09Z</time>
      </trkpt>
      <trkpt lat="40.8564110" lon="-8.2705430">
        <ele>979.2</ele>
        <time>2022-08-14T11:25:10Z</time>
      </trkpt>
      <trkpt lat="40.8566140" lon="-8.2704900">
        <ele>977.8</ele>
        <time>2022-08-14T11:25:13Z</time>
      </trkpt>
      <trkpt lat="40.8567040" lon="-8.2704830">
        <ele>977.4</ele>
        <time>2022-08-14T11:25:14Z</time>
      </trkpt>
      <trkpt lat="40.8567800" lon="-8.2704900">
        <ele>976.8</ele>
        <time>2022-08-14T11:25:15Z</time>
      </trkpt>
      <trkpt lat="40.8568410" lon="-8.2705030">
        <ele>976.6</ele>
        <time>2022-08-14T11:25:16Z</time>
      </trkpt>
      <trkpt lat="40.8569180" lon="-8.2705290">
        <ele>976.0</ele>
        <time>2022-08-14T11:25:17Z</time>
      </trkpt>
      <trkpt lat="40.8569900" lon="-8.2705670">
        <ele>975.8</ele>
        <time>2022-08-14T11:25:18Z</time>
      </trkpt>
      <trkpt lat="40.8570720" lon="-8.2706280">
        <ele>975.2</ele>
        <time>2022-08-14T11:25:19Z</time>
      </trkpt>
      <trkpt lat="40.8572520" lon="-8.2708040">
        <ele>973.8</ele>
        <time>2022-08-14T11:25:22Z</time>
      </trkpt>
      <trkpt lat="40.8574500" lon="-8.2710180">
        <ele>972.8</ele>
        <time>2022-08-14T11:25:25Z</time>
      </trkpt>
      <trkpt lat="40.8576780" lon="-8.2713170">
        <ele>971.4</ele>
        <time>2022-08-14T11:25:29Z</time>
      </trkpt>
      <trkpt lat="40.8578060" lon="-8.2715630">
        <ele>970.2</ele>
        <time>2022-08-14T11:25:32Z</time>
      </trkpt>
      <trkpt lat="40.8578980" lon="-8.2717750">
        <ele>969.4</ele>
        <time>2022-08-14T11:25:34Z</time>
      </trkpt>
      <trkpt lat="40.8579290" lon="-8.2718530">
        <ele>968.8</ele>
        <time>2022-08-14T11:25:35Z</time>
      </trkpt>
      <trkpt lat="40.8579690" lon="-8.2719490">
        <ele>967.8</ele>
        <time>2022-08-14T11:25:36Z</time>
      </trkpt>
      <trkpt lat="40.8581010" lon="-8.2722240">
        <ele>966.6</ele>
        <time>2022-08-14T11:25:39Z</time>
      </trkpt>
      <trkpt lat="40.8581560" lon="-8.2722980">
        <ele>965.8</ele>
        <time>2022-08-14T11:25:40Z</time>
      </trkpt>
      <trkpt lat="40.8582170" lon="-8.2723580">
        <ele>965.4</ele>
        <time>2022-08-14T11:25:41Z</time>
      </trkpt>
      <trkpt lat="40.8583590" lon="-8.2724410">
        <ele>964.6</ele>
        <time>2022-08-14T11:25:43Z</time>
      </trkpt>
      <trkpt lat="40.8584240" lon="-8.2724640">
        <ele>964.4</ele>
        <time>2022-08-14T11:25:44Z</time>
      </trkpt>
      <trkpt lat="40.8586810" lon="-8.2725320">
        <ele>963.2</ele>
        <time>2022-08-14T11:25:48Z</time>
      </trkpt>
      <trkpt lat="40.8587900" lon="-8.2725600">
        <ele>962.6</ele>
        <time>2022-08-14T11:25:50Z</time>
      </trkpt>
      <trkpt lat="40.8590310" lon="-8.2726190">
        <ele>962.2</ele>
        <time>2022-08-14T11:25:54Z</time>
      </trkpt>
      <trkpt lat="40.8592600" lon="-8.2726750">
        <ele>962.0</ele>
        <time>2022-08-14T11:25:58Z</time>
      </trkpt>
      <trkpt lat="40.8593840" lon="-8.2727100">
        <ele>962.0</ele>
        <time>2022-08-14T11:26:00Z</time>
      </trkpt>
      <trkpt lat="40.8597710" lon="-8.2728060">
        <ele>962.2</ele>
        <time>2022-08-14T11:26:07Z</time>
      </trkpt>
      <trkpt lat="40.8601140" lon="-8.2728200">
        <ele>962.6</ele>
        <time>2022-08-14T11:26:14Z</time>
      </trkpt>
      <trkpt lat="40.8605140" lon="-8.2727290">
        <ele>962.4</ele>
        <time>2022-08-14T11:26:22Z</time>
      </trkpt>
      <trkpt lat="40.8606450" lon="-8.2727470">
        <ele>962.0</ele>
        <time>2022-08-14T11:26:24Z</time>
      </trkpt>
      <trkpt lat="40.8607660" lon="-8.2728050">
        <ele>961.6</ele>
        <time>2022-08-14T11:26:26Z</time>
      </trkpt>
      <trkpt lat="40.8608140" lon="-8.2728390">
        <ele>961.4</ele>
        <time>2022-08-14T11:26:27Z</time>
      </trkpt>
      <trkpt lat="40.8609410" lon="-8.2729620">
        <ele>960.8</ele>
        <time>2022-08-14T11:26:29Z</time>
      </trkpt>
      <trkpt lat="40.8609950" lon="-8.2730300">
        <ele>960.8</ele>
        <time>2022-08-14T11:26:30Z</time>
      </trkpt>
      <trkpt lat="40.8612070" lon="-8.2733460">
        <ele>959.6</ele>
        <time>2022-08-14T11:26:34Z</time>
      </trkpt>
      <trkpt lat="40.8612640" lon="-8.2734280">
        <ele>959.4</ele>
        <time>2022-08-14T11:26:35Z</time>
      </trkpt>
      <trkpt lat="40.8614350" lon="-8.2736790">
        <ele>958.0</ele>
        <time>2022-08-14T11:26:38Z</time>
      </trkpt>
      <trkpt lat="40.8615790" lon="-8.2739460">
        <ele>957.0</ele>
        <time>2022-08-14T11:26:41Z</time>
      </trkpt>
      <trkpt lat="40.8616260" lon="-8.2742030">
        <ele>956.4</ele>
        <time>2022-08-14T11:26:43Z</time>
      </trkpt>
      <trkpt lat="40.8616230" lon="-8.2743230">
        <ele>955.8</ele>
        <time>2022-08-14T11:26:44Z</time>
      </trkpt>
      <trkpt lat="40.8616070" lon="-8.2745420">
        <ele>954.4</ele>
        <time>2022-08-14T11:26:46Z</time>
      </trkpt>
      <trkpt lat="40.8615920" lon="-8.2747870">
        <ele>953.2</ele>
        <time>2022-08-14T11:26:48Z</time>
      </trkpt>
      <trkpt lat="40.8615720" lon="-8.2750350">
        <ele>952.0</ele>
        <time>2022-08-14T11:26:50Z</time>
      </trkpt>
      <trkpt lat="40.8615650" lon="-8.2751590">
        <ele>951.6</ele>
        <time>2022-08-14T11:26:51Z</time>
      </trkpt>
      <trkpt lat="40.8615630" lon="-8.2753080">
        <ele>950.8</ele>
        <time>2022-08-14T11:26:52Z</time>
      </trkpt>
      <trkpt lat="40.8615720" lon="-8.2755270">
        <ele>949.0</ele>
        <time>2022-08-14T11:26:54Z</time>
      </trkpt>
      <trkpt lat="40.8615890" lon="-8.2756490">
        <ele>948.4</ele>
        <time>2022-08-14T11:26:55Z</time>
      </trkpt>
      <trkpt lat="40.8616240" lon="-8.2757660">
        <ele>948.2</ele>
        <time>2022-08-14T11:26:56Z</time>
      </trkpt>
      <trkpt lat="40.8616780" lon="-8.2758700">
        <ele>947.6</ele>
        <time>2022-08-14T11:26:57Z</time>
      </trkpt>
      <trkpt lat="40.8617630" lon="-8.2759610">
        <ele>947.2</ele>
        <time>2022-08-14T11:26:58Z</time>
      </trkpt>
      <trkpt lat="40.8618320" lon="-8.2759890">
        <ele>946.6</ele>
        <time>2022-08-14T11:26:59Z</time>
      </trkpt>
      <trkpt lat="40.8619190" lon="-8.2760180">
        <ele>946.4</ele>
        <time>2022-08-14T11:27:00Z</time>
      </trkpt>
      <trkpt lat="40.8621080" lon="-8.2760750">
        <ele>945.4</ele>
        <time>2022-08-14T11:27:02Z</time>
      </trkpt>
      <trkpt lat="40.8621910" lon="-8.2760980">
        <ele>945.2</ele>
        <time>2022-08-14T11:27:03Z</time>
      </trkpt>
      <trkpt lat="40.8623380" lon="-8.2761380">
        <ele>943.6</ele>
        <time>2022-08-14T11:27:05Z</time>
      </trkpt>
      <trkpt lat="40.8625160" lon="-8.2761900">
        <ele>942.2</ele>
        <time>2022-08-14T11:27:07Z</time>
      </trkpt>
      <trkpt lat="40.8626630" lon="-8.2762300">
        <ele>941.4</ele>
        <time>2022-08-14T11:27:09Z</time>
      </trkpt>
      <trkpt lat="40.8627440" lon="-8.2762510">
        <ele>941.2</ele>
        <time>2022-08-14T11:27:10Z</time>
      </trkpt>
      <trkpt lat="40.8629900" lon="-8.2763220">
        <ele>940.0</ele>
        <time>2022-08-14T11:27:13Z</time>
      </trkpt>
      <trkpt lat="40.8633320" lon="-8.2764340">
        <ele>938.8</ele>
        <time>2022-08-14T11:27:17Z</time>
      </trkpt>
      <trkpt lat="40.8635790" lon="-8.2765040">
        <ele>938.2</ele>
        <time>2022-08-14T11:27:20Z</time>
      </trkpt>
      <trkpt lat="40.8637400" lon="-8.2765490">
        <ele>937.8</ele>
        <time>2022-08-14T11:27:22Z</time>
      </trkpt>
      <trkpt lat="40.8639610" lon="-8.2766180">
        <ele>936.4</ele>
        <time>2022-08-14T11:27:25Z</time>
      </trkpt>
      <trkpt lat="40.8640880" lon="-8.2766640">
        <ele>936.0</ele>
        <time>2022-08-14T11:27:27Z</time>
      </trkpt>
      <trkpt lat="40.8641940" lon="-8.2766880">
        <ele>935.2</ele>
        <time>2022-08-14T11:27:29Z</time>
      </trkpt>
      <trkpt lat="40.8642760" lon="-8.2767050">
        <ele>934.8</ele>
        <time>2022-08-14T11:27:31Z</time>
      </trkpt>
      <trkpt lat="40.8643320" lon="-8.2767650">
        <ele>934.6</ele>
        <time>2022-08-14T11:27:33Z</time>
      </trkpt>
      <trkpt lat="40.8643660" lon="-8.2768150">
        <ele>934.2</ele>
        <time>2022-08-14T11:27:34Z</time>
      </trkpt>
      <trkpt lat="40.8643960" lon="-8.2768590">
        <ele>934.0</ele>
        <time>2022-08-14T11:27:35Z</time>
      </trkpt>
      <trkpt lat="40.8644280" lon="-8.2769000">
        <ele>933.6</ele>
        <time>2022-08-14T11:27:36Z</time>
      </trkpt>
      <trkpt lat="40.8646060" lon="-8.2771260">
        <ele>932.8</ele>
        <time>2022-08-14T11:27:41Z</time>
      </trkpt>
      <trkpt lat="40.8646780" lon="-8.2772460">
        <ele>931.8</ele>
        <time>2022-08-14T11:27:43Z</time>
      </trkpt>
      <trkpt lat="40.8647130" lon="-8.2773270">
        <ele>931.2</ele>
        <time>2022-08-14T11:27:44Z</time>
      </trkpt>
      <trkpt lat="40.8647540" lon="-8.2774530">
        <ele>930.0</ele>
        <time>2022-08-14T11:27:46Z</time>
      </trkpt>
      <trkpt lat="40.8647680" lon="-8.2776160">
        <ele>929.2</ele>
        <time>2022-08-14T11:27:48Z</time>
      </trkpt>
      <trkpt lat="40.8647520" lon="-8.2777800">
        <ele>927.8</ele>
        <time>2022-08-14T11:27:50Z</time>
      </trkpt>
      <trkpt lat="40.8647390" lon="-8.2778540">
        <ele>926.6</ele>
        <time>2022-08-14T11:27:51Z</time>
      </trkpt>
      <trkpt lat="40.8646920" lon="-8.2780510">
        <ele>925.2</ele>
        <time>2022-08-14T11:27:53Z</time>
      </trkpt>
      <trkpt lat="40.8646570" lon="-8.2781790">
        <ele>924.8</ele>
        <time>2022-08-14T11:27:54Z</time>
      </trkpt>
      <trkpt lat="40.8646320" lon="-8.2782660">
        <ele>923.6</ele>
        <time>2022-08-14T11:27:55Z</time>
      </trkpt>
      <trkpt lat="40.8645620" lon="-8.2785100">
        <ele>922.2</ele>
        <time>2022-08-14T11:27:57Z</time>
      </trkpt>
      <trkpt lat="40.8644980" lon="-8.2787280">
        <ele>921.0</ele>
        <time>2022-08-14T11:27:59Z</time>
      </trkpt>
      <trkpt lat="40.8644450" lon="-8.2789150">
        <ele>919.4</ele>
        <time>2022-08-14T11:28:01Z</time>
      </trkpt>
      <trkpt lat="40.8644170" lon="-8.2790120">
        <ele>918.2</ele>
        <time>2022-08-14T11:28:02Z</time>
      </trkpt>
      <trkpt lat="40.8643690" lon="-8.2791950">
        <ele>916.4</ele>
        <time>2022-08-14T11:28:04Z</time>
      </trkpt>
      <trkpt lat="40.8643600" lon="-8.2792800">
        <ele>914.4</ele>
        <time>2022-08-14T11:28:05Z</time>
      </trkpt>
      <trkpt lat="40.8643610" lon="-8.2794850">
        <ele>912.6</ele>
        <time>2022-08-14T11:28:07Z</time>
      </trkpt>
      <trkpt lat="40.8643730" lon="-8.2796570">
        <ele>911.4</ele>
        <time>2022-08-14T11:28:09Z</time>
      </trkpt>
      <trkpt lat="40.8643810" lon="-8.2797370">
        <ele>911.0</ele>
        <time>2022-08-14T11:28:10Z</time>
      </trkpt>
      <trkpt lat="40.8643930" lon="-8.2798140">
        <ele>909.4</ele>
        <time>2022-08-14T11:28:11Z</time>
      </trkpt>
      <trkpt lat="40.8643960" lon="-8.2798700">
        <ele>908.2</ele>
        <time>2022-08-14T11:28:12Z</time>
      </trkpt>
      <trkpt lat="40.8643980" lon="-8.2799240">
        <ele>907.8</ele>
        <time>2022-08-14T11:28:13Z</time>
      </trkpt>
      <trkpt lat="40.8644000" lon="-8.2799630">
        <ele>906.8</ele>
        <time>2022-08-14T11:28:14Z</time>
      </trkpt>
      <trkpt lat="40.8644050" lon="-8.2800560">
        <ele>905.4</ele>
        <time>2022-08-14T11:28:16Z</time>
      </trkpt>
      <trkpt lat="40.8643810" lon="-8.2801350">
        <ele>904.0</ele>
        <time>2022-08-14T11:28:18Z</time>
      </trkpt>
      <trkpt lat="40.8643380" lon="-8.2802460">
        <ele>903.0</ele>
        <time>2022-08-14T11:28:21Z</time>
      </trkpt>
      <trkpt lat="40.8642580" lon="-8.2804400">
        <ele>901.8</ele>
        <time>2022-08-14T11:28:26Z</time>
      </trkpt>
      <trkpt lat="40.8642410" lon="-8.2805240">
        <ele>901.6</ele>
        <time>2022-08-14T11:28:28Z</time>
      </trkpt>
      <trkpt lat="40.8642360" lon="-8.2807100">
        <ele>901.2</ele>
        <time>2022-08-14T11:28:32Z</time>
      </trkpt>
      <trkpt lat="40.8642780" lon="-8.2811130">
        <ele>901.2</ele>
        <time>2022-08-14T11:28:41Z</time>
      </trkpt>
      <trkpt lat="40.8642690" lon="-8.2813650">
        <ele>901.4</ele>
        <time>2022-08-14T11:28:47Z</time>
      </trkpt>
      <trkpt lat="40.8641840" lon="-8.2818340">
        <ele>901.8</ele>
        <time>2022-08-14T11:28:58Z</time>
      </trkpt>
      <trkpt lat="40.8640920" lon="-8.2820670">
        <ele>902.0</ele>
        <time>2022-08-14T11:29:05Z</time>
      </trkpt>
      <trkpt lat="40.8640130" lon="-8.2822260">
        <ele>902.4</ele>
        <time>2022-08-14T11:29:10Z</time>
      </trkpt>
      <trkpt lat="40.8639260" lon="-8.2823810">
        <ele>902.6</ele>
        <time>2022-08-14T11:29:15Z</time>
      </trkpt>
      <trkpt lat="40.8638800" lon="-8.2825240">
        <ele>903.6</ele>
        <time>2022-08-14T11:29:19Z</time>
      </trkpt>
      <trkpt lat="40.8638730" lon="-8.2826250">
        <ele>904.0</ele>
        <time>2022-08-14T11:29:22Z</time>
      </trkpt>
      <trkpt lat="40.8638740" lon="-8.2827290">
        <ele>904.6</ele>
        <time>2022-08-14T11:29:26Z</time>
      </trkpt>
      <trkpt lat="40.8638800" lon="-8.2827810">
        <ele>904.8</ele>
        <time>2022-08-14T11:29:28Z</time>
      </trkpt>
      <trkpt lat="40.8638910" lon="-8.2828380">
        <ele>905.2</ele>
        <time>2022-08-14T11:29:32Z</time>
      </trkpt>
      <trkpt lat="40.8638810" lon="-8.2828620">
        <ele>905.4</ele>
        <time>2022-08-14T11:29:34Z</time>
      </trkpt>
      <trkpt lat="40.8638330" lon="-8.2828690">
        <ele>905.6</ele>
        <time>2022-08-14T11:29:40Z</time>
      </trkpt>
      <trkpt lat="40.8638330" lon="-8.2828690">
        <ele>905.8</ele>
        <time>2022-08-14T11:29:41Z</time>
      </trkpt>
      <trkpt lat="40.8638300" lon="-8.2828670">
        <ele>907.4</ele>
        <time>2022-08-14T11:55:35Z</time>
      </trkpt>
      <trkpt lat="40.8638720" lon="-8.2828780">
        <ele>907.4</ele>
        <time>2022-08-14T11:55:37Z</time>
      </trkpt>
      <trkpt lat="40.8639030" lon="-8.2829850">
        <ele>907.2</ele>
        <time>2022-08-14T11:55:41Z</time>
      </trkpt>
      <trkpt lat="40.8639580" lon="-8.2832100">
        <ele>907.2</ele>
        <time>2022-08-14T11:55:48Z</time>
      </trkpt>
      <trkpt lat="40.8640920" lon="-8.2835350">
        <ele>908.2</ele>
        <time>2022-08-14T11:55:58Z</time>
      </trkpt>
      <trkpt lat="40.8642270" lon="-8.2837700">
        <ele>908.2</ele>
        <time>2022-08-14T11:56:05Z</time>
      </trkpt>
      <trkpt lat="40.8643940" lon="-8.2840730">
        <ele>908.4</ele>
        <time>2022-08-14T11:56:13Z</time>
      </trkpt>
      <trkpt lat="40.8644820" lon="-8.2842180">
        <ele>908.6</ele>
        <time>2022-08-14T11:56:17Z</time>
      </trkpt>
      <trkpt lat="40.8645950" lon="-8.2844640">
        <ele>908.6</ele>
        <time>2022-08-14T11:56:23Z</time>
      </trkpt>
      <trkpt lat="40.8646890" lon="-8.2848490">
        <ele>909.0</ele>
        <time>2022-08-14T11:56:32Z</time>
      </trkpt>
      <trkpt lat="40.8646890" lon="-8.2849310">
        <ele>909.4</ele>
        <time>2022-08-14T11:56:34Z</time>
      </trkpt>
      <trkpt lat="40.8646730" lon="-8.2850140">
        <ele>909.6</ele>
        <time>2022-08-14T11:56:36Z</time>
      </trkpt>
      <trkpt lat="40.8646620" lon="-8.2850490">
        <ele>909.8</ele>
        <time>2022-08-14T11:56:37Z</time>
      </trkpt>
      <trkpt lat="40.8645680" lon="-8.2851570">
        <ele>910.2</ele>
        <time>2022-08-14T11:56:42Z</time>
      </trkpt>
      <trkpt lat="40.8645450" lon="-8.2851750">
        <ele>910.6</ele>
        <time>2022-08-14T11:56:43Z</time>
      </trkpt>
      <trkpt lat="40.8644010" lon="-8.2852700">
        <ele>911.8</ele>
        <time>2022-08-14T11:56:49Z</time>
      </trkpt>
      <trkpt lat="40.8643770" lon="-8.2852850">
        <ele>912.4</ele>
        <time>2022-08-14T11:56:50Z</time>
      </trkpt>
      <trkpt lat="40.8642760" lon="-8.2853510">
        <ele>913.0</ele>
        <time>2022-08-14T11:56:54Z</time>
      </trkpt>
      <trkpt lat="40.8642010" lon="-8.2854030">
        <ele>913.2</ele>
        <time>2022-08-14T11:56:57Z</time>
      </trkpt>
      <trkpt lat="40.8640860" lon="-8.2855800">
        <ele>913.6</ele>
        <time>2022-08-14T11:57:03Z</time>
      </trkpt>
      <trkpt lat="40.8639870" lon="-8.2856670">
        <ele>914.0</ele>
        <time>2022-08-14T11:57:08Z</time>
      </trkpt>
      <trkpt lat="40.8639610" lon="-8.2856890">
        <ele>914.0</ele>
        <time>2022-08-14T11:57:09Z</time>
      </trkpt>
      <trkpt lat="40.8638970" lon="-8.2858030">
        <ele>914.0</ele>
        <time>2022-08-14T11:57:12Z</time>
      </trkpt>
      <trkpt lat="40.8638400" lon="-8.2858170">
        <ele>914.0</ele>
        <time>2022-08-14T11:57:14Z</time>
      </trkpt>
      <trkpt lat="40.8638160" lon="-8.2858000">
        <ele>914.0</ele>
        <time>2022-08-14T11:57:15Z</time>
      </trkpt>
      <trkpt lat="40.8637740" lon="-8.2857390">
        <ele>912.4</ele>
        <time>2022-08-14T11:57:18Z</time>
      </trkpt>
      <trkpt lat="40.8637690" lon="-8.2857310">
        <ele>912.2</ele>
        <time>2022-08-14T11:57:19Z</time>
      </trkpt>
      <trkpt lat="40.8637660" lon="-8.2857280">
        <ele>911.4</ele>
        <time>2022-08-14T11:57:21Z</time>
      </trkpt>
      <trkpt lat="40.8638100" lon="-8.2857860">
        <ele>910.8</ele>
        <time>2022-08-14T11:59:17Z</time>
      </trkpt>
      <trkpt lat="40.8638280" lon="-8.2857900">
        <ele>910.8</ele>
        <time>2022-08-14T11:59:18Z</time>
      </trkpt>
      <trkpt lat="40.8638960" lon="-8.2857770">
        <ele>911.6</ele>
        <time>2022-08-14T11:59:23Z</time>
      </trkpt>
      <trkpt lat="40.8638990" lon="-8.2857600">
        <ele>911.8</ele>
        <time>2022-08-14T11:59:24Z</time>
      </trkpt>
      <trkpt lat="40.8638980" lon="-8.2857410">
        <ele>912.2</ele>
        <time>2022-08-14T11:59:25Z</time>
      </trkpt>
      <trkpt lat="40.8638940" lon="-8.2856970">
        <ele>912.6</ele>
        <time>2022-08-14T11:59:27Z</time>
      </trkpt>
      <trkpt lat="40.8639050" lon="-8.2856700">
        <ele>913.0</ele>
        <time>2022-08-14T11:59:29Z</time>
      </trkpt>
      <trkpt lat="40.8639340" lon="-8.2856360">
        <ele>913.4</ele>
        <time>2022-08-14T11:59:32Z</time>
      </trkpt>
      <trkpt lat="40.8639740" lon="-8.2855780">
        <ele>914.0</ele>
        <time>2022-08-14T11:59:36Z</time>
      </trkpt>
      <trkpt lat="40.8639900" lon="-8.2855450">
        <ele>914.4</ele>
        <time>2022-08-14T11:59:38Z</time>
      </trkpt>
      <trkpt lat="40.8639990" lon="-8.2855370">
        <ele>914.6</ele>
        <time>2022-08-14T11:59:39Z</time>
      </trkpt>
      <trkpt lat="40.8640440" lon="-8.2854980">
        <ele>915.2</ele>
        <time>2022-08-14T11:59:42Z</time>
      </trkpt>
      <trkpt lat="40.8640750" lon="-8.2854700">
        <ele>915.4</ele>
        <time>2022-08-14T11:59:44Z</time>
      </trkpt>
      <trkpt lat="40.8641210" lon="-8.2854340">
        <ele>915.4</ele>
        <time>2022-08-14T11:59:46Z</time>
      </trkpt>
      <trkpt lat="40.8641920" lon="-8.2853690">
        <ele>915.4</ele>
        <time>2022-08-14T11:59:49Z</time>
      </trkpt>
      <trkpt lat="40.8644450" lon="-8.2852140">
        <ele>915.4</ele>
        <time>2022-08-14T11:59:56Z</time>
      </trkpt>
      <trkpt lat="40.8645730" lon="-8.2851370">
        <ele>914.2</ele>
        <time>2022-08-14T12:00:00Z</time>
      </trkpt>
      <trkpt lat="40.8646380" lon="-8.2850690">
        <ele>914.0</ele>
        <time>2022-08-14T12:00:02Z</time>
      </trkpt>
      <trkpt lat="40.8647000" lon="-8.2849890">
        <ele>914.0</ele>
        <time>2022-08-14T12:00:04Z</time>
      </trkpt>
      <trkpt lat="40.8647800" lon="-8.2849240">
        <ele>913.8</ele>
        <time>2022-08-14T12:00:06Z</time>
      </trkpt>
      <trkpt lat="40.8648340" lon="-8.2848720">
        <ele>913.8</ele>
        <time>2022-08-14T12:00:09Z</time>
      </trkpt>
      <trkpt lat="40.8648910" lon="-8.2848320">
        <ele>913.8</ele>
        <time>2022-08-14T12:00:13Z</time>
      </trkpt>
      <trkpt lat="40.8649050" lon="-8.2848330">
        <ele>914.0</ele>
        <time>2022-08-14T12:00:14Z</time>
      </trkpt>
      <trkpt lat="40.8650060" lon="-8.2848480">
        <ele>915.4</ele>
        <time>2022-08-14T12:00:21Z</time>
      </trkpt>
      <trkpt lat="40.8650210" lon="-8.2848490">
        <ele>915.6</ele>
        <time>2022-08-14T12:00:22Z</time>
      </trkpt>
      <trkpt lat="40.8650700" lon="-8.2848330">
        <ele>916.6</ele>
        <time>2022-08-14T12:00:26Z</time>
      </trkpt>
      <trkpt lat="40.8651030" lon="-8.2848100">
        <ele>917.6</ele>
        <time>2022-08-14T12:00:29Z</time>
      </trkpt>
      <trkpt lat="40.8651160" lon="-8.2847990">
        <ele>918.0</ele>
        <time>2022-08-14T12:00:30Z</time>
      </trkpt>
      <trkpt lat="40.8651540" lon="-8.2847690">
        <ele>919.0</ele>
        <time>2022-08-14T12:00:33Z</time>
      </trkpt>
      <trkpt lat="40.8651960" lon="-8.2847610">
        <ele>919.6</ele>
        <time>2022-08-14T12:00:37Z</time>
      </trkpt>
      <trkpt lat="40.8652440" lon="-8.2847640">
        <ele>920.0</ele>
        <time>2022-08-14T12:00:40Z</time>
      </trkpt>
      <trkpt lat="40.8652740" lon="-8.2847610">
        <ele>920.2</ele>
        <time>2022-08-14T12:00:42Z</time>
      </trkpt>
      <trkpt lat="40.8653230" lon="-8.2847460">
        <ele>920.6</ele>
        <time>2022-08-14T12:00:45Z</time>
      </trkpt>
      <trkpt lat="40.8653680" lon="-8.2847490">
        <ele>921.2</ele>
        <time>2022-08-14T12:00:48Z</time>
      </trkpt>
      <trkpt lat="40.8654660" lon="-8.2847880">
        <ele>921.6</ele>
        <time>2022-08-14T12:00:53Z</time>
      </trkpt>
      <trkpt lat="40.8656460" lon="-8.2848570">
        <ele>921.6</ele>
        <time>2022-08-14T12:00:57Z</time>
      </trkpt>
      <trkpt lat="40.8659140" lon="-8.2849600">
        <ele>920.6</ele>
        <time>2022-08-14T12:01:03Z</time>
      </trkpt>
      <trkpt lat="40.8660450" lon="-8.2850220">
        <ele>920.2</ele>
        <time>2022-08-14T12:01:06Z</time>
      </trkpt>
      <trkpt lat="40.8660810" lon="-8.2850470">
        <ele>920.0</ele>
        <time>2022-08-14T12:01:07Z</time>
      </trkpt>
      <trkpt lat="40.8661170" lon="-8.2850780">
        <ele>920.0</ele>
        <time>2022-08-14T12:01:08Z</time>
      </trkpt>
      <trkpt lat="40.8661490" lon="-8.2851160">
        <ele>920.0</ele>
        <time>2022-08-14T12:01:09Z</time>
      </trkpt>
      <trkpt lat="40.8662530" lon="-8.2852460">
        <ele>920.2</ele>
        <time>2022-08-14T12:01:14Z</time>
      </trkpt>
      <trkpt lat="40.8662690" lon="-8.2852630">
        <ele>920.2</ele>
        <time>2022-08-14T12:01:15Z</time>
      </trkpt>
      <trkpt lat="40.8663780" lon="-8.2853160">
        <ele>920.4</ele>
        <time>2022-08-14T12:01:20Z</time>
      </trkpt>
      <trkpt lat="40.8665060" lon="-8.2853630">
        <ele>921.0</ele>
        <time>2022-08-14T12:01:25Z</time>
      </trkpt>
      <trkpt lat="40.8665330" lon="-8.2853720">
        <ele>921.0</ele>
        <time>2022-08-14T12:01:26Z</time>
      </trkpt>
      <trkpt lat="40.8667190" lon="-8.2854650">
        <ele>922.0</ele>
        <time>2022-08-14T12:01:34Z</time>
      </trkpt>
      <trkpt lat="40.8667400" lon="-8.2854760">
        <ele>922.2</ele>
        <time>2022-08-14T12:01:35Z</time>
      </trkpt>
      <trkpt lat="40.8668760" lon="-8.2855250">
        <ele>922.4</ele>
        <time>2022-08-14T12:01:41Z</time>
      </trkpt>
      <trkpt lat="40.8669490" lon="-8.2855160">
        <ele>922.4</ele>
        <time>2022-08-14T12:01:44Z</time>
      </trkpt>
      <trkpt lat="40.8670060" lon="-8.2854970">
        <ele>922.4</ele>
        <time>2022-08-14T12:01:46Z</time>
      </trkpt>
      <trkpt lat="40.8672440" lon="-8.2854800">
        <ele>922.2</ele>
        <time>2022-08-14T12:01:54Z</time>
      </trkpt>
      <trkpt lat="40.8674100" lon="-8.2855530">
        <ele>923.0</ele>
        <time>2022-08-14T12:02:01Z</time>
      </trkpt>
      <trkpt lat="40.8674440" lon="-8.2855580">
        <ele>923.2</ele>
        <time>2022-08-14T12:02:03Z</time>
      </trkpt>
      <trkpt lat="40.8675150" lon="-8.2855430">
        <ele>924.0</ele>
        <time>2022-08-14T12:02:07Z</time>
      </trkpt>
      <trkpt lat="40.8675760" lon="-8.2855150">
        <ele>924.2</ele>
        <time>2022-08-14T12:02:11Z</time>
      </trkpt>
      <trkpt lat="40.8676480" lon="-8.2854690">
        <ele>924.8</ele>
        <time>2022-08-14T12:02:17Z</time>
      </trkpt>
      <trkpt lat="40.8676730" lon="-8.2854400">
        <ele>925.2</ele>
        <time>2022-08-14T12:02:19Z</time>
      </trkpt>
      <trkpt lat="40.8677260" lon="-8.2853670">
        <ele>926.0</ele>
        <time>2022-08-14T12:02:24Z</time>
      </trkpt>
      <trkpt lat="40.8677800" lon="-8.2852790">
        <ele>927.4</ele>
        <time>2022-08-14T12:02:29Z</time>
      </trkpt>
      <trkpt lat="40.8678340" lon="-8.2851820">
        <ele>928.4</ele>
        <time>2022-08-14T12:02:34Z</time>
      </trkpt>
      <trkpt lat="40.8678650" lon="-8.2851090">
        <ele>928.8</ele>
        <time>2022-08-14T12:02:38Z</time>
      </trkpt>
      <trkpt lat="40.8678880" lon="-8.2850220">
        <ele>929.4</ele>
        <time>2022-08-14T12:02:43Z</time>
      </trkpt>
      <trkpt lat="40.8678910" lon="-8.2849980">
        <ele>929.6</ele>
        <time>2022-08-14T12:02:44Z</time>
      </trkpt>
      <trkpt lat="40.8679250" lon="-8.2848100">
        <ele>929.0</ele>
        <time>2022-08-14T12:02:50Z</time>
      </trkpt>
      <trkpt lat="40.8679780" lon="-8.2845590">
        <ele>928.2</ele>
        <time>2022-08-14T12:02:58Z</time>
      </trkpt>
      <trkpt lat="40.8679920" lon="-8.2844940">
        <ele>928.0</ele>
        <time>2022-08-14T12:03:04Z</time>
      </trkpt>
      <trkpt lat="40.8679920" lon="-8.2844940">
        <ele>928.0</ele>
        <time>2022-08-14T12:03:06Z</time>
      </trkpt>
      <trkpt lat="40.8680050" lon="-8.2844020">
        <ele>928.0</ele>
        <time>2022-08-14T12:04:18Z</time>
      </trkpt>
      <trkpt lat="40.8680120" lon="-8.2843490">
        <ele>928.0</ele>
        <time>2022-08-14T12:04:20Z</time>
      </trkpt>
      <trkpt lat="40.8680830" lon="-8.2842070">
        <ele>929.0</ele>
        <time>2022-08-14T12:04:26Z</time>
      </trkpt>
      <trkpt lat="40.8680990" lon="-8.2841900">
        <ele>929.2</ele>
        <time>2022-08-14T12:04:27Z</time>
      </trkpt>
      <trkpt lat="40.8681480" lon="-8.2841400">
        <ele>930.2</ele>
        <time>2022-08-14T12:04:30Z</time>
      </trkpt>
      <trkpt lat="40.8681900" lon="-8.2841110">
        <ele>930.2</ele>
        <time>2022-08-14T12:04:32Z</time>
      </trkpt>
      <trkpt lat="40.8682330" lon="-8.2841110">
        <ele>930.4</ele>
        <time>2022-08-14T12:04:34Z</time>
      </trkpt>
      <trkpt lat="40.8682500" lon="-8.2841210">
        <ele>930.4</ele>
        <time>2022-08-14T12:04:35Z</time>
      </trkpt>
      <trkpt lat="40.8683070" lon="-8.2841730">
        <ele>930.8</ele>
        <time>2022-08-14T12:04:39Z</time>
      </trkpt>
      <trkpt lat="40.8683310" lon="-8.2841970">
        <ele>931.2</ele>
        <time>2022-08-14T12:04:41Z</time>
      </trkpt>
      <trkpt lat="40.8683610" lon="-8.2842250">
        <ele>932.4</ele>
        <time>2022-08-14T12:04:44Z</time>
      </trkpt>
      <trkpt lat="40.8684020" lon="-8.2842480">
        <ele>933.4</ele>
        <time>2022-08-14T12:04:47Z</time>
      </trkpt>
      <trkpt lat="40.8684150" lon="-8.2842540">
        <ele>933.6</ele>
        <time>2022-08-14T12:04:48Z</time>
      </trkpt>
      <trkpt lat="40.8684830" lon="-8.2842750">
        <ele>934.4</ele>
        <time>2022-08-14T12:04:53Z</time>
      </trkpt>
      <trkpt lat="40.8684970" lon="-8.2842800">
        <ele>934.6</ele>
        <time>2022-08-14T12:04:54Z</time>
      </trkpt>
      <trkpt lat="40.8685620" lon="-8.2843120">
        <ele>935.4</ele>
        <time>2022-08-14T12:04:59Z</time>
      </trkpt>
      <trkpt lat="40.8686220" lon="-8.2843530">
        <ele>936.6</ele>
        <time>2022-08-14T12:05:04Z</time>
      </trkpt>
      <trkpt lat="40.8686360" lon="-8.2843590">
        <ele>937.0</ele>
        <time>2022-08-14T12:05:05Z</time>
      </trkpt>
      <trkpt lat="40.8686750" lon="-8.2843790">
        <ele>937.6</ele>
        <time>2022-08-14T12:05:08Z</time>
      </trkpt>
      <trkpt lat="40.8687380" lon="-8.2844430">
        <ele>938.2</ele>
        <time>2022-08-14T12:05:12Z</time>
      </trkpt>
      <trkpt lat="40.8688030" lon="-8.2845110">
        <ele>938.6</ele>
        <time>2022-08-14T12:05:15Z</time>
      </trkpt>
      <trkpt lat="40.8688520" lon="-8.2845850">
        <ele>938.6</ele>
        <time>2022-08-14T12:05:17Z</time>
      </trkpt>
      <trkpt lat="40.8688960" lon="-8.2846940">
        <ele>938.4</ele>
        <time>2022-08-14T12:05:19Z</time>
      </trkpt>
      <trkpt lat="40.8689260" lon="-8.2847980">
        <ele>937.4</ele>
        <time>2022-08-14T12:05:21Z</time>
      </trkpt>
      <trkpt lat="40.8689380" lon="-8.2848430">
        <ele>936.8</ele>
        <time>2022-08-14T12:05:22Z</time>
      </trkpt>
      <trkpt lat="40.8689580" lon="-8.2849110">
        <ele>936.2</ele>
        <time>2022-08-14T12:05:24Z</time>
      </trkpt>
      <trkpt lat="40.8689900" lon="-8.2849920">
        <ele>935.2</ele>
        <time>2022-08-14T12:05:27Z</time>
      </trkpt>
      <trkpt lat="40.8690230" lon="-8.2850370">
        <ele>935.0</ele>
        <time>2022-08-14T12:05:29Z</time>
      </trkpt>
      <trkpt lat="40.8690990" lon="-8.2851080">
        <ele>933.8</ele>
        <time>2022-08-14T12:05:32Z</time>
      </trkpt>
      <trkpt lat="40.8691310" lon="-8.2851340">
        <ele>933.4</ele>
        <time>2022-08-14T12:05:33Z</time>
      </trkpt>
      <trkpt lat="40.8691750" lon="-8.2851560">
        <ele>932.8</ele>
        <time>2022-08-14T12:05:34Z</time>
      </trkpt>
      <trkpt lat="40.8692300" lon="-8.2851760">
        <ele>932.6</ele>
        <time>2022-08-14T12:05:35Z</time>
      </trkpt>
      <trkpt lat="40.8692950" lon="-8.2851910">
        <ele>932.0</ele>
        <time>2022-08-14T12:05:36Z</time>
      </trkpt>
      <trkpt lat="40.8694380" lon="-8.2851860">
        <ele>931.2</ele>
        <time>2022-08-14T12:05:38Z</time>
      </trkpt>
      <trkpt lat="40.8695720" lon="-8.2851470">
        <ele>930.2</ele>
        <time>2022-08-14T12:05:40Z</time>
      </trkpt>
      <trkpt lat="40.8696230" lon="-8.2851310">
        <ele>929.2</ele>
        <time>2022-08-14T12:05:41Z</time>
      </trkpt>
      <trkpt lat="40.8696670" lon="-8.2851110">
        <ele>928.4</ele>
        <time>2022-08-14T12:05:42Z</time>
      </trkpt>
      <trkpt lat="40.8697040" lon="-8.2850910">
        <ele>927.6</ele>
        <time>2022-08-14T12:05:43Z</time>
      </trkpt>
      <trkpt lat="40.8697720" lon="-8.2849920">
        <ele>926.6</ele>
        <time>2022-08-14T12:05:46Z</time>
      </trkpt>
      <trkpt lat="40.8697820" lon="-8.2849570">
        <ele>926.0</ele>
        <time>2022-08-14T12:05:47Z</time>
      </trkpt>
      <trkpt lat="40.8697940" lon="-8.2848610">
        <ele>924.8</ele>
        <time>2022-08-14T12:05:50Z</time>
      </trkpt>
      <trkpt lat="40.8697970" lon="-8.2848300">
        <ele>924.6</ele>
        <time>2022-08-14T12:05:51Z</time>
      </trkpt>
      <trkpt lat="40.8697950" lon="-8.2846790">
        <ele>924.4</ele>
        <time>2022-08-14T12:05:57Z</time>
      </trkpt>
      <trkpt lat="40.8697930" lon="-8.2846180">
        <ele>924.6</ele>
        <time>2022-08-14T12:06:00Z</time>
      </trkpt>
      <trkpt lat="40.8698110" lon="-8.2845700">
        <ele>925.2</ele>
        <time>2022-08-14T12:06:03Z</time>
      </trkpt>
      <trkpt lat="40.8698490" lon="-8.2844960">
        <ele>926.0</ele>
        <time>2022-08-14T12:06:08Z</time>
      </trkpt>
      <trkpt lat="40.8698650" lon="-8.2844670">
        <ele>926.4</ele>
        <time>2022-08-14T12:06:10Z</time>
      </trkpt>
      <trkpt lat="40.8698930" lon="-8.2844340">
        <ele>927.0</ele>
        <time>2022-08-14T12:06:13Z</time>
      </trkpt>
      <trkpt lat="40.8699510" lon="-8.2843550">
        <ele>928.0</ele>
        <time>2022-08-14T12:06:19Z</time>
      </trkpt>
      <trkpt lat="40.8699600" lon="-8.2843370">
        <ele>928.2</ele>
        <time>2022-08-14T12:06:20Z</time>
      </trkpt>
      <trkpt lat="40.8700360" lon="-8.2842170">
        <ele>928.8</ele>
        <time>2022-08-14T12:06:28Z</time>
      </trkpt>
      <trkpt lat="40.8700770" lon="-8.2841810">
        <ele>929.2</ele>
        <time>2022-08-14T12:06:31Z</time>
      </trkpt>
      <trkpt lat="40.8701320" lon="-8.2841360">
        <ele>930.2</ele>
        <time>2022-08-14T12:06:35Z</time>
      </trkpt>
      <trkpt lat="40.8702520" lon="-8.2840400">
        <ele>931.2</ele>
        <time>2022-08-14T12:06:43Z</time>
      </trkpt>
      <trkpt lat="40.8702670" lon="-8.2840260">
        <ele>931.4</ele>
        <time>2022-08-14T12:06:44Z</time>
      </trkpt>
      <trkpt lat="40.8703580" lon="-8.2839030">
        <ele>932.2</ele>
        <time>2022-08-14T12:06:51Z</time>
      </trkpt>
      <trkpt lat="40.8703760" lon="-8.2838600">
        <ele>932.6</ele>
        <time>2022-08-14T12:06:53Z</time>
      </trkpt>
      <trkpt lat="40.8704120" lon="-8.2837450">
        <ele>933.4</ele>
        <time>2022-08-14T12:06:58Z</time>
      </trkpt>
      <trkpt lat="40.8704180" lon="-8.2836750">
        <ele>934.0</ele>
        <time>2022-08-14T12:07:01Z</time>
      </trkpt>
      <trkpt lat="40.8704400" lon="-8.2835660">
        <ele>934.4</ele>
        <time>2022-08-14T12:07:06Z</time>
      </trkpt>
      <trkpt lat="40.8704510" lon="-8.2835130">
        <ele>935.0</ele>
        <time>2022-08-14T12:07:09Z</time>
      </trkpt>
      <trkpt lat="40.8704520" lon="-8.2834720">
        <ele>935.6</ele>
        <time>2022-08-14T12:07:12Z</time>
      </trkpt>
      <trkpt lat="40.8704530" lon="-8.2834650">
        <ele>936.2</ele>
        <time>2022-08-14T12:07:15Z</time>
      </trkpt>
      <trkpt lat="40.8704330" lon="-8.2833800">
        <ele>937.4</ele>
        <time>2022-08-14T12:08:20Z</time>
      </trkpt>
      <trkpt lat="40.8704090" lon="-8.2833210">
        <ele>937.4</ele>
        <time>2022-08-14T12:08:23Z</time>
      </trkpt>
      <trkpt lat="40.8703620" lon="-8.2832700">
        <ele>938.0</ele>
        <time>2022-08-14T12:08:27Z</time>
      </trkpt>
      <trkpt lat="40.8703580" lon="-8.2832360">
        <ele>938.2</ele>
        <time>2022-08-14T12:08:29Z</time>
      </trkpt>
      <trkpt lat="40.8703580" lon="-8.2832160">
        <ele>938.8</ele>
        <time>2022-08-14T12:08:30Z</time>
      </trkpt>
      <trkpt lat="40.8703260" lon="-8.2831570">
        <ele>939.4</ele>
        <time>2022-08-14T12:08:34Z</time>
      </trkpt>
      <trkpt lat="40.8703190" lon="-8.2831430">
        <ele>939.6</ele>
        <time>2022-08-14T12:08:35Z</time>
      </trkpt>
      <trkpt lat="40.8702940" lon="-8.2830490">
        <ele>940.2</ele>
        <time>2022-08-14T12:08:40Z</time>
      </trkpt>
      <trkpt lat="40.8702750" lon="-8.2830160">
        <ele>940.4</ele>
        <time>2022-08-14T12:08:42Z</time>
      </trkpt>
      <trkpt lat="40.8702600" lon="-8.2829810">
        <ele>940.6</ele>
        <time>2022-08-14T12:08:44Z</time>
      </trkpt>
      <trkpt lat="40.8702380" lon="-8.2828400">
        <ele>941.2</ele>
        <time>2022-08-14T12:08:50Z</time>
      </trkpt>
      <trkpt lat="40.8702360" lon="-8.2826930">
        <ele>941.6</ele>
        <time>2022-08-14T12:08:55Z</time>
      </trkpt>
      <trkpt lat="40.8702300" lon="-8.2825630">
        <ele>941.8</ele>
        <time>2022-08-14T12:08:59Z</time>
      </trkpt>
      <trkpt lat="40.8702270" lon="-8.2823720">
        <ele>941.8</ele>
        <time>2022-08-14T12:09:03Z</time>
      </trkpt>
      <trkpt lat="40.8702300" lon="-8.2823100">
        <ele>941.8</ele>
        <time>2022-08-14T12:09:04Z</time>
      </trkpt>
      <trkpt lat="40.8702430" lon="-8.2821650">
        <ele>941.2</ele>
        <time>2022-08-14T12:09:06Z</time>
      </trkpt>
      <trkpt lat="40.8702360" lon="-8.2820930">
        <ele>941.0</ele>
        <time>2022-08-14T12:09:07Z</time>
      </trkpt>
      <trkpt lat="40.8702180" lon="-8.2820300">
        <ele>941.0</ele>
        <time>2022-08-14T12:09:08Z</time>
      </trkpt>
      <trkpt lat="40.8701930" lon="-8.2819740">
        <ele>940.4</ele>
        <time>2022-08-14T12:09:09Z</time>
      </trkpt>
      <trkpt lat="40.8701440" lon="-8.2818790">
        <ele>939.8</ele>
        <time>2022-08-14T12:09:11Z</time>
      </trkpt>
      <trkpt lat="40.8700540" lon="-8.2817210">
        <ele>939.6</ele>
        <time>2022-08-14T12:09:15Z</time>
      </trkpt>
      <trkpt lat="40.8700090" lon="-8.2816480">
        <ele>939.6</ele>
        <time>2022-08-14T12:09:17Z</time>
      </trkpt>
      <trkpt lat="40.8698990" lon="-8.2813920">
        <ele>939.8</ele>
        <time>2022-08-14T12:09:24Z</time>
      </trkpt>
      <trkpt lat="40.8698380" lon="-8.2811280">
        <ele>940.4</ele>
        <time>2022-08-14T12:09:30Z</time>
      </trkpt>
      <trkpt lat="40.8698110" lon="-8.2810300">
        <ele>940.4</ele>
        <time>2022-08-14T12:09:32Z</time>
      </trkpt>
      <trkpt lat="40.8698130" lon="-8.2809220">
        <ele>940.4</ele>
        <time>2022-08-14T12:09:34Z</time>
      </trkpt>
      <trkpt lat="40.8697430" lon="-8.2807520">
        <ele>940.4</ele>
        <time>2022-08-14T12:09:38Z</time>
      </trkpt>
      <trkpt lat="40.8695460" lon="-8.2804810">
        <ele>939.8</ele>
        <time>2022-08-14T12:09:45Z</time>
      </trkpt>
      <trkpt lat="40.8694680" lon="-8.2802910">
        <ele>939.0</ele>
        <time>2022-08-14T12:09:49Z</time>
      </trkpt>
      <trkpt lat="40.8694220" lon="-8.2801410">
        <ele>938.6</ele>
        <time>2022-08-14T12:09:52Z</time>
      </trkpt>
      <trkpt lat="40.8693860" lon="-8.2800220">
        <ele>938.2</ele>
        <time>2022-08-14T12:09:54Z</time>
      </trkpt>
      <trkpt lat="40.8693200" lon="-8.2797480">
        <ele>937.8</ele>
        <time>2022-08-14T12:09:59Z</time>
      </trkpt>
      <trkpt lat="40.8692960" lon="-8.2796540">
        <ele>937.8</ele>
        <time>2022-08-14T12:10:01Z</time>
      </trkpt>
      <trkpt lat="40.8692900" lon="-8.2796170">
        <ele>937.2</ele>
        <time>2022-08-14T12:10:02Z</time>
      </trkpt>
      <trkpt lat="40.8692680" lon="-8.2795250">
        <ele>936.8</ele>
        <time>2022-08-14T12:10:04Z</time>
      </trkpt>
      <trkpt lat="40.8691940" lon="-8.2792550">
        <ele>938.0</ele>
        <time>2022-08-14T12:10:11Z</time>
      </trkpt>
      <trkpt lat="40.8691620" lon="-8.2791300">
        <ele>938.2</ele>
        <time>2022-08-14T12:10:14Z</time>
      </trkpt>
      <trkpt lat="40.8691540" lon="-8.2790980">
        <ele>938.2</ele>
        <time>2022-08-14T12:10:15Z</time>
      </trkpt>
      <trkpt lat="40.8691040" lon="-8.2788370">
        <ele>938.6</ele>
        <time>2022-08-14T12:10:21Z</time>
      </trkpt>
      <trkpt lat="40.8690210" lon="-8.2785480">
        <ele>938.8</ele>
        <time>2022-08-14T12:10:28Z</time>
      </trkpt>
      <trkpt lat="40.8689260" lon="-8.2782900">
        <ele>939.0</ele>
        <time>2022-08-14T12:10:36Z</time>
      </trkpt>
      <trkpt lat="40.8689150" lon="-8.2782530">
        <ele>939.2</ele>
        <time>2022-08-14T12:10:37Z</time>
      </trkpt>
      <trkpt lat="40.8688680" lon="-8.2781000">
        <ele>939.8</ele>
        <time>2022-08-14T12:10:42Z</time>
      </trkpt>
      <trkpt lat="40.8688530" lon="-8.2779800">
        <ele>940.4</ele>
        <time>2022-08-14T12:10:46Z</time>
      </trkpt>
      <trkpt lat="40.8688440" lon="-8.2778750">
        <ele>941.2</ele>
        <time>2022-08-14T12:10:50Z</time>
      </trkpt>
      <trkpt lat="40.8688470" lon="-8.2778400">
        <ele>941.6</ele>
        <time>2022-08-14T12:10:51Z</time>
      </trkpt>
      <trkpt lat="40.8688560" lon="-8.2776630">
        <ele>942.2</ele>
        <time>2022-08-14T12:10:57Z</time>
      </trkpt>
      <trkpt lat="40.8688580" lon="-8.2776380">
        <ele>942.2</ele>
        <time>2022-08-14T12:10:58Z</time>
      </trkpt>
      <trkpt lat="40.8688530" lon="-8.2775140">
        <ele>942.8</ele>
        <time>2022-08-14T12:11:02Z</time>
      </trkpt>
      <trkpt lat="40.8688540" lon="-8.2774930">
        <ele>942.8</ele>
        <time>2022-08-14T12:11:03Z</time>
      </trkpt>
      <trkpt lat="40.8688720" lon="-8.2774170">
        <ele>943.0</ele>
        <time>2022-08-14T12:11:06Z</time>
      </trkpt>
      <trkpt lat="40.8688810" lon="-8.2773770">
        <ele>943.4</ele>
        <time>2022-08-14T12:11:08Z</time>
      </trkpt>
      <trkpt lat="40.8688760" lon="-8.2773190">
        <ele>943.8</ele>
        <time>2022-08-14T12:11:10Z</time>
      </trkpt>
      <trkpt lat="40.8688800" lon="-8.2772650">
        <ele>944.4</ele>
        <time>2022-08-14T12:11:13Z</time>
      </trkpt>
      <trkpt lat="40.8688830" lon="-8.2772560">
        <ele>944.6</ele>
        <time>2022-08-14T12:11:14Z</time>
      </trkpt>
      <trkpt lat="40.8688870" lon="-8.2772190">
        <ele>944.6</ele>
        <time>2022-08-14T12:11:16Z</time>
      </trkpt>
      <trkpt lat="40.8688590" lon="-8.2771620">
        <ele>944.6</ele>
        <time>2022-08-14T12:11:18Z</time>
      </trkpt>
      <trkpt lat="40.8687650" lon="-8.2769620">
        <ele>944.4</ele>
        <time>2022-08-14T12:11:23Z</time>
      </trkpt>
      <trkpt lat="40.8685780" lon="-8.2768290">
        <ele>943.4</ele>
        <time>2022-08-14T12:11:28Z</time>
      </trkpt>
      <trkpt lat="40.8684850" lon="-8.2767980">
        <ele>942.4</ele>
        <time>2022-08-14T12:11:30Z</time>
      </trkpt>
      <trkpt lat="40.8683210" lon="-8.2767370">
        <ele>941.0</ele>
        <time>2022-08-14T12:11:34Z</time>
      </trkpt>
      <trkpt lat="40.8682610" lon="-8.2766950">
        <ele>940.0</ele>
        <time>2022-08-14T12:11:36Z</time>
      </trkpt>
      <trkpt lat="40.8681930" lon="-8.2766260">
        <ele>938.6</ele>
        <time>2022-08-14T12:11:38Z</time>
      </trkpt>
      <trkpt lat="40.8680660" lon="-8.2765070">
        <ele>937.4</ele>
        <time>2022-08-14T12:11:42Z</time>
      </trkpt>
      <trkpt lat="40.8680240" lon="-8.2764660">
        <ele>937.0</ele>
        <time>2022-08-14T12:11:43Z</time>
      </trkpt>
      <trkpt lat="40.8679630" lon="-8.2763860">
        <ele>936.0</ele>
        <time>2022-08-14T12:11:45Z</time>
      </trkpt>
      <trkpt lat="40.8679420" lon="-8.2763550">
        <ele>935.8</ele>
        <time>2022-08-14T12:11:46Z</time>
      </trkpt>
      <trkpt lat="40.8678830" lon="-8.2762820">
        <ele>935.4</ele>
        <time>2022-08-14T12:11:48Z</time>
      </trkpt>
      <trkpt lat="40.8678550" lon="-8.2762320">
        <ele>935.2</ele>
        <time>2022-08-14T12:11:49Z</time>
      </trkpt>
      <trkpt lat="40.8678400" lon="-8.2761940">
        <ele>934.6</ele>
        <time>2022-08-14T12:11:50Z</time>
      </trkpt>
      <trkpt lat="40.8678210" lon="-8.2761460">
        <ele>934.4</ele>
        <time>2022-08-14T12:11:51Z</time>
      </trkpt>
      <trkpt lat="40.8678070" lon="-8.2760790">
        <ele>934.0</ele>
        <time>2022-08-14T12:11:52Z</time>
      </trkpt>
      <trkpt lat="40.8678080" lon="-8.2760150">
        <ele>934.0</ele>
        <time>2022-08-14T12:11:53Z</time>
      </trkpt>
      <trkpt lat="40.8678190" lon="-8.2759050">
        <ele>933.6</ele>
        <time>2022-08-14T12:11:55Z</time>
      </trkpt>
      <trkpt lat="40.8678250" lon="-8.2758510">
        <ele>933.4</ele>
        <time>2022-08-14T12:11:56Z</time>
      </trkpt>
      <trkpt lat="40.8678370" lon="-8.2757440">
        <ele>932.6</ele>
        <time>2022-08-14T12:11:58Z</time>
      </trkpt>
      <trkpt lat="40.8678420" lon="-8.2756970">
        <ele>931.8</ele>
        <time>2022-08-14T12:11:59Z</time>
      </trkpt>
      <trkpt lat="40.8678610" lon="-8.2755440">
        <ele>930.6</ele>
        <time>2022-08-14T12:12:03Z</time>
      </trkpt>
      <trkpt lat="40.8678520" lon="-8.2754910">
        <ele>930.2</ele>
        <time>2022-08-14T12:12:05Z</time>
      </trkpt>
      <trkpt lat="40.8678440" lon="-8.2754300">
        <ele>930.0</ele>
        <time>2022-08-14T12:12:07Z</time>
      </trkpt>
      <trkpt lat="40.8678360" lon="-8.2753760">
        <ele>929.6</ele>
        <time>2022-08-14T12:12:09Z</time>
      </trkpt>
      <trkpt lat="40.8678310" lon="-8.2753500">
        <ele>929.2</ele>
        <time>2022-08-14T12:12:10Z</time>
      </trkpt>
      <trkpt lat="40.8678200" lon="-8.2753200">
        <ele>929.0</ele>
        <time>2022-08-14T12:12:11Z</time>
      </trkpt>
      <trkpt lat="40.8677530" lon="-8.2751890">
        <ele>928.2</ele>
        <time>2022-08-14T12:12:15Z</time>
      </trkpt>
      <trkpt lat="40.8677200" lon="-8.2751100">
        <ele>928.0</ele>
        <time>2022-08-14T12:12:17Z</time>
      </trkpt>
      <trkpt lat="40.8676880" lon="-8.2749700">
        <ele>927.2</ele>
        <time>2022-08-14T12:12:20Z</time>
      </trkpt>
      <trkpt lat="40.8676580" lon="-8.2748790">
        <ele>927.0</ele>
        <time>2022-08-14T12:12:21Z</time>
      </trkpt>
      <trkpt lat="40.8676260" lon="-8.2747370">
        <ele>925.8</ele>
        <time>2022-08-14T12:12:23Z</time>
      </trkpt>
      <trkpt lat="40.8675950" lon="-8.2746090">
        <ele>924.8</ele>
        <time>2022-08-14T12:12:25Z</time>
      </trkpt>
      <trkpt lat="40.8675840" lon="-8.2745540">
        <ele>924.4</ele>
        <time>2022-08-14T12:12:26Z</time>
      </trkpt>
      <trkpt lat="40.8675740" lon="-8.2744800">
        <ele>923.6</ele>
        <time>2022-08-14T12:12:28Z</time>
      </trkpt>
      <trkpt lat="40.8675550" lon="-8.2742920">
        <ele>923.0</ele>
        <time>2022-08-14T12:12:33Z</time>
      </trkpt>
      <trkpt lat="40.8675520" lon="-8.2741410">
        <ele>923.0</ele>
        <time>2022-08-14T12:12:39Z</time>
      </trkpt>
      <trkpt lat="40.8675420" lon="-8.2739670">
        <ele>923.6</ele>
        <time>2022-08-14T12:12:46Z</time>
      </trkpt>
      <trkpt lat="40.8675340" lon="-8.2738280">
        <ele>924.8</ele>
        <time>2022-08-14T12:12:52Z</time>
      </trkpt>
      <trkpt lat="40.8675370" lon="-8.2737180">
        <ele>926.2</ele>
        <time>2022-08-14T12:12:57Z</time>
      </trkpt>
      <trkpt lat="40.8675370" lon="-8.2736260">
        <ele>927.0</ele>
        <time>2022-08-14T12:13:01Z</time>
      </trkpt>
      <trkpt lat="40.8675340" lon="-8.2736080">
        <ele>927.2</ele>
        <time>2022-08-14T12:13:02Z</time>
      </trkpt>
      <trkpt lat="40.8675050" lon="-8.2734470">
        <ele>928.4</ele>
        <time>2022-08-14T12:13:09Z</time>
      </trkpt>
      <trkpt lat="40.8674990" lon="-8.2734230">
        <ele>928.6</ele>
        <time>2022-08-14T12:13:10Z</time>
      </trkpt>
      <trkpt lat="40.8674610" lon="-8.2733050">
        <ele>929.4</ele>
        <time>2022-08-14T12:13:15Z</time>
      </trkpt>
      <trkpt lat="40.8674080" lon="-8.2731630">
        <ele>929.8</ele>
        <time>2022-08-14T12:13:21Z</time>
      </trkpt>
      <trkpt lat="40.8673840" lon="-8.2730620">
        <ele>930.2</ele>
        <time>2022-08-14T12:13:25Z</time>
      </trkpt>
      <trkpt lat="40.8673700" lon="-8.2729320">
        <ele>930.4</ele>
        <time>2022-08-14T12:13:30Z</time>
      </trkpt>
      <trkpt lat="40.8673660" lon="-8.2727010">
        <ele>931.2</ele>
        <time>2022-08-14T12:13:39Z</time>
      </trkpt>
      <trkpt lat="40.8673640" lon="-8.2726610">
        <ele>931.6</ele>
        <time>2022-08-14T12:13:41Z</time>
      </trkpt>
      <trkpt lat="40.8673460" lon="-8.2725870">
        <ele>932.0</ele>
        <time>2022-08-14T12:13:45Z</time>
      </trkpt>
      <trkpt lat="40.8673050" lon="-8.2725440">
        <ele>932.8</ele>
        <time>2022-08-14T12:13:49Z</time>
      </trkpt>
      <trkpt lat="40.8672710" lon="-8.2725330">
        <ele>933.2</ele>
        <time>2022-08-14T12:13:52Z</time>
      </trkpt>
      <trkpt lat="40.8672390" lon="-8.2725350">
        <ele>934.0</ele>
        <time>2022-08-14T12:13:55Z</time>
      </trkpt>
      <trkpt lat="40.8672260" lon="-8.2725430">
        <ele>934.4</ele>
        <time>2022-08-14T12:13:56Z</time>
      </trkpt>
      <trkpt lat="40.8672010" lon="-8.2725540">
        <ele>935.2</ele>
        <time>2022-08-14T12:13:58Z</time>
      </trkpt>
      <trkpt lat="40.8671920" lon="-8.2725520">
        <ele>935.4</ele>
        <time>2022-08-14T12:13:59Z</time>
      </trkpt>
      <trkpt lat="40.8671640" lon="-8.2725400">
        <ele>935.8</ele>
        <time>2022-08-14T12:14:01Z</time>
      </trkpt>
      <trkpt lat="40.8671530" lon="-8.2725400">
        <ele>936.2</ele>
        <time>2022-08-14T12:14:02Z</time>
      </trkpt>
      <trkpt lat="40.8671410" lon="-8.2725440">
        <ele>936.4</ele>
        <time>2022-08-14T12:14:03Z</time>
      </trkpt>
      <trkpt lat="40.8671300" lon="-8.2725530">
        <ele>936.4</ele>
        <time>2022-08-14T12:14:04Z</time>
      </trkpt>
      <trkpt lat="40.8670940" lon="-8.2725770">
        <ele>937.2</ele>
        <time>2022-08-14T12:14:07Z</time>
      </trkpt>
      <trkpt lat="40.8670360" lon="-8.2726060">
        <ele>938.2</ele>
        <time>2022-08-14T12:14:11Z</time>
      </trkpt>
      <trkpt lat="40.8670240" lon="-8.2726060">
        <ele>938.4</ele>
        <time>2022-08-14T12:14:12Z</time>
      </trkpt>
      <trkpt lat="40.8670100" lon="-8.2725990">
        <ele>938.6</ele>
        <time>2022-08-14T12:14:13Z</time>
      </trkpt>
      <trkpt lat="40.8669720" lon="-8.2725800">
        <ele>939.0</ele>
        <time>2022-08-14T12:14:16Z</time>
      </trkpt>
      <trkpt lat="40.8669610" lon="-8.2725860">
        <ele>939.6</ele>
        <time>2022-08-14T12:14:17Z</time>
      </trkpt>
      <trkpt lat="40.8669390" lon="-8.2726010">
        <ele>940.2</ele>
        <time>2022-08-14T12:14:19Z</time>
      </trkpt>
      <trkpt lat="40.8669260" lon="-8.2726030">
        <ele>940.6</ele>
        <time>2022-08-14T12:14:20Z</time>
      </trkpt>
      <trkpt lat="40.8669030" lon="-8.2726190">
        <ele>941.2</ele>
        <time>2022-08-14T12:14:22Z</time>
      </trkpt>
      <trkpt lat="40.8668660" lon="-8.2726160">
        <ele>941.6</ele>
        <time>2022-08-14T12:14:25Z</time>
      </trkpt>
      <trkpt lat="40.8668270" lon="-8.2726100">
        <ele>942.4</ele>
        <time>2022-08-14T12:14:28Z</time>
      </trkpt>
      <trkpt lat="40.8668170" lon="-8.2726150">
        <ele>942.6</ele>
        <time>2022-08-14T12:14:29Z</time>
      </trkpt>
      <trkpt lat="40.8667640" lon="-8.2726170">
        <ele>943.4</ele>
        <time>2022-08-14T12:14:34Z</time>
      </trkpt>
      <trkpt lat="40.8667520" lon="-8.2726150">
        <ele>943.6</ele>
        <time>2022-08-14T12:14:35Z</time>
      </trkpt>
      <trkpt lat="40.8666980" lon="-8.2726180">
        <ele>944.4</ele>
        <time>2022-08-14T12:14:40Z</time>
      </trkpt>
      <trkpt lat="40.8666890" lon="-8.2726050">
        <ele>944.4</ele>
        <time>2022-08-14T12:14:41Z</time>
      </trkpt>
      <trkpt lat="40.8666850" lon="-8.2725950">
        <ele>944.6</ele>
        <time>2022-08-14T12:14:42Z</time>
      </trkpt>
      <trkpt lat="40.8666790" lon="-8.2725860">
        <ele>944.8</ele>
        <time>2022-08-14T12:14:43Z</time>
      </trkpt>
      <trkpt lat="40.8666340" lon="-8.2725700">
        <ele>945.6</ele>
        <time>2022-08-14T12:14:47Z</time>
      </trkpt>
      <trkpt lat="40.8666110" lon="-8.2725700">
        <ele>946.2</ele>
        <time>2022-08-14T12:14:49Z</time>
      </trkpt>
      <trkpt lat="40.8665630" lon="-8.2725450">
        <ele>947.0</ele>
        <time>2022-08-14T12:14:53Z</time>
      </trkpt>
      <trkpt lat="40.8665420" lon="-8.2725270">
        <ele>947.6</ele>
        <time>2022-08-14T12:14:55Z</time>
      </trkpt>
      <trkpt lat="40.8665030" lon="-8.2725030">
        <ele>948.2</ele>
        <time>2022-08-14T12:14:58Z</time>
      </trkpt>
      <trkpt lat="40.8664110" lon="-8.2724390">
        <ele>948.8</ele>
        <time>2022-08-14T12:15:04Z</time>
      </trkpt>
      <trkpt lat="40.8663350" lon="-8.2723900">
        <ele>949.2</ele>
        <time>2022-08-14T12:15:09Z</time>
      </trkpt>
      <trkpt lat="40.8662900" lon="-8.2723730">
        <ele>949.6</ele>
        <time>2022-08-14T12:15:12Z</time>
      </trkpt>
      <trkpt lat="40.8662590" lon="-8.2723290">
        <ele>950.2</ele>
        <time>2022-08-14T12:15:15Z</time>
      </trkpt>
      <trkpt lat="40.8662520" lon="-8.2722900">
        <ele>951.4</ele>
        <time>2022-08-14T12:15:17Z</time>
      </trkpt>
      <trkpt lat="40.8662460" lon="-8.2722720">
        <ele>951.6</ele>
        <time>2022-08-14T12:15:18Z</time>
      </trkpt>
      <trkpt lat="40.8662190" lon="-8.2721990">
        <ele>952.4</ele>
        <time>2022-08-14T12:15:22Z</time>
      </trkpt>
      <trkpt lat="40.8661590" lon="-8.2720760">
        <ele>952.8</ele>
        <time>2022-08-14T12:15:29Z</time>
      </trkpt>
      <trkpt lat="40.8661280" lon="-8.2719850">
        <ele>953.2</ele>
        <time>2022-08-14T12:15:34Z</time>
      </trkpt>
      <trkpt lat="40.8661050" lon="-8.2719320">
        <ele>953.6</ele>
        <time>2022-08-14T12:15:37Z</time>
      </trkpt>
      <trkpt lat="40.8660610" lon="-8.2717520">
        <ele>954.2</ele>
        <time>2022-08-14T12:15:47Z</time>
      </trkpt>
      <trkpt lat="40.8660540" lon="-8.2717460">
        <ele>954.2</ele>
        <time>2022-08-14T12:15:48Z</time>
      </trkpt>
      <trkpt lat="40.8660380" lon="-8.2717110">
        <ele>954.4</ele>
        <time>2022-08-14T12:15:52Z</time>
      </trkpt>
      <trkpt lat="40.8660370" lon="-8.2716980">
        <ele>954.4</ele>
        <time>2022-08-14T12:15:53Z</time>
      </trkpt>
      <trkpt lat="40.8660200" lon="-8.2715470">
        <ele>954.4</ele>
        <time>2022-08-14T12:16:01Z</time>
      </trkpt>
      <trkpt lat="40.8659680" lon="-8.2713820">
        <ele>955.0</ele>
        <time>2022-08-14T12:16:09Z</time>
      </trkpt>
      <trkpt lat="40.8659580" lon="-8.2713440">
        <ele>955.4</ele>
        <time>2022-08-14T12:16:11Z</time>
      </trkpt>
      <trkpt lat="40.8659320" lon="-8.2712300">
        <ele>956.4</ele>
        <time>2022-08-14T12:16:17Z</time>
      </trkpt>
      <trkpt lat="40.8659290" lon="-8.2712090">
        <ele>956.4</ele>
        <time>2022-08-14T12:16:18Z</time>
      </trkpt>
      <trkpt lat="40.8658840" lon="-8.2710250">
        <ele>957.2</ele>
        <time>2022-08-14T12:16:27Z</time>
      </trkpt>
      <trkpt lat="40.8658670" lon="-8.2709900">
        <ele>957.4</ele>
        <time>2022-08-14T12:16:29Z</time>
      </trkpt>
      <trkpt lat="40.8658440" lon="-8.2709270">
        <ele>957.6</ele>
        <time>2022-08-14T12:16:32Z</time>
      </trkpt>
      <trkpt lat="40.8657700" lon="-8.2708200">
        <ele>957.8</ele>
        <time>2022-08-14T12:16:37Z</time>
      </trkpt>
      <trkpt lat="40.8656450" lon="-8.2707150">
        <ele>958.2</ele>
        <time>2022-08-14T12:16:45Z</time>
      </trkpt>
      <trkpt lat="40.8656180" lon="-8.2706810">
        <ele>958.2</ele>
        <time>2022-08-14T12:16:47Z</time>
      </trkpt>
      <trkpt lat="40.8655660" lon="-8.2706250">
        <ele>958.8</ele>
        <time>2022-08-14T12:16:51Z</time>
      </trkpt>
      <trkpt lat="40.8655440" lon="-8.2705890">
        <ele>959.2</ele>
        <time>2022-08-14T12:16:53Z</time>
      </trkpt>
      <trkpt lat="40.8655090" lon="-8.2704970">
        <ele>960.2</ele>
        <time>2022-08-14T12:16:58Z</time>
      </trkpt>
      <trkpt lat="40.8654980" lon="-8.2704550">
        <ele>960.6</ele>
        <time>2022-08-14T12:17:00Z</time>
      </trkpt>
      <trkpt lat="40.8654880" lon="-8.2702970">
        <ele>961.4</ele>
        <time>2022-08-14T12:17:07Z</time>
      </trkpt>
      <trkpt lat="40.8654800" lon="-8.2702750">
        <ele>961.4</ele>
        <time>2022-08-14T12:17:08Z</time>
      </trkpt>
      <trkpt lat="40.8654620" lon="-8.2701470">
        <ele>962.6</ele>
        <time>2022-08-14T12:17:14Z</time>
      </trkpt>
      <trkpt lat="40.8654540" lon="-8.2701130">
        <ele>963.0</ele>
        <time>2022-08-14T12:17:16Z</time>
      </trkpt>
      <trkpt lat="40.8654350" lon="-8.2700550">
        <ele>963.6</ele>
        <time>2022-08-14T12:17:19Z</time>
      </trkpt>
      <trkpt lat="40.8653980" lon="-8.2699900">
        <ele>964.2</ele>
        <time>2022-08-14T12:17:23Z</time>
      </trkpt>
      <trkpt lat="40.8653560" lon="-8.2698730">
        <ele>964.4</ele>
        <time>2022-08-14T12:17:29Z</time>
      </trkpt>
      <trkpt lat="40.8653400" lon="-8.2698320">
        <ele>965.0</ele>
        <time>2022-08-14T12:17:31Z</time>
      </trkpt>
      <trkpt lat="40.8653060" lon="-8.2696800">
        <ele>965.6</ele>
        <time>2022-08-14T12:17:38Z</time>
      </trkpt>
      <trkpt lat="40.8653010" lon="-8.2696600">
        <ele>965.6</ele>
        <time>2022-08-14T12:17:39Z</time>
      </trkpt>
      <trkpt lat="40.8652920" lon="-8.2696390">
        <ele>965.8</ele>
        <time>2022-08-14T12:17:40Z</time>
      </trkpt>
      <trkpt lat="40.8652280" lon="-8.2694770">
        <ele>966.2</ele>
        <time>2022-08-14T12:17:48Z</time>
      </trkpt>
      <trkpt lat="40.8651780" lon="-8.2693570">
        <ele>966.6</ele>
        <time>2022-08-14T12:17:54Z</time>
      </trkpt>
      <trkpt lat="40.8651710" lon="-8.2693430">
        <ele>966.6</ele>
        <time>2022-08-14T12:17:55Z</time>
      </trkpt>
      <trkpt lat="40.8650900" lon="-8.2691750">
        <ele>967.6</ele>
        <time>2022-08-14T12:18:05Z</time>
      </trkpt>
      <trkpt lat="40.8650330" lon="-8.2690590">
        <ele>968.6</ele>
        <time>2022-08-14T12:18:12Z</time>
      </trkpt>
      <trkpt lat="40.8650180" lon="-8.2690220">
        <ele>969.0</ele>
        <time>2022-08-14T12:18:14Z</time>
      </trkpt>
      <trkpt lat="40.8649700" lon="-8.2689180">
        <ele>970.0</ele>
        <time>2022-08-14T12:18:20Z</time>
      </trkpt>
      <trkpt lat="40.8649540" lon="-8.2688830">
        <ele>970.4</ele>
        <time>2022-08-14T12:18:22Z</time>
      </trkpt>
      <trkpt lat="40.8649020" lon="-8.2687810">
        <ele>971.0</ele>
        <time>2022-08-14T12:18:28Z</time>
      </trkpt>
      <trkpt lat="40.8648690" lon="-8.2687420">
        <ele>971.2</ele>
        <time>2022-08-14T12:18:31Z</time>
      </trkpt>
      <trkpt lat="40.8648020" lon="-8.2686540">
        <ele>971.2</ele>
        <time>2022-08-14T12:18:37Z</time>
      </trkpt>
      <trkpt lat="40.8648020" lon="-8.2686540">
        <ele>971.2</ele>
        <time>2022-08-14T12:18:38Z</time>
      </trkpt>
      <trkpt lat="40.8647890" lon="-8.2686280">
        <ele>971.2</ele>
        <time>2022-08-14T12:18:57Z</time>
      </trkpt>
      <trkpt lat="40.8647520" lon="-8.2685830">
        <ele>971.2</ele>
        <time>2022-08-14T12:18:59Z</time>
      </trkpt>
      <trkpt lat="40.8646000" lon="-8.2684000">
        <ele>971.0</ele>
        <time>2022-08-14T12:19:05Z</time>
      </trkpt>
      <trkpt lat="40.8644690" lon="-8.2682270">
        <ele>969.8</ele>
        <time>2022-08-14T12:19:09Z</time>
      </trkpt>
      <trkpt lat="40.8644240" lon="-8.2681810">
        <ele>969.6</ele>
        <time>2022-08-14T12:19:10Z</time>
      </trkpt>
      <trkpt lat="40.8643850" lon="-8.2681260">
        <ele>969.2</ele>
        <time>2022-08-14T12:19:11Z</time>
      </trkpt>
      <trkpt lat="40.8643170" lon="-8.2679810">
        <ele>968.8</ele>
        <time>2022-08-14T12:19:13Z</time>
      </trkpt>
      <trkpt lat="40.8642940" lon="-8.2678930">
        <ele>968.4</ele>
        <time>2022-08-14T12:19:14Z</time>
      </trkpt>
      <trkpt lat="40.8642700" lon="-8.2678020">
        <ele>968.2</ele>
        <time>2022-08-14T12:19:15Z</time>
      </trkpt>
      <trkpt lat="40.8641920" lon="-8.2676440">
        <ele>967.6</ele>
        <time>2022-08-14T12:19:17Z</time>
      </trkpt>
      <trkpt lat="40.8641360" lon="-8.2675880">
        <ele>967.0</ele>
        <time>2022-08-14T12:19:18Z</time>
      </trkpt>
      <trkpt lat="40.8640210" lon="-8.2674860">
        <ele>966.6</ele>
        <time>2022-08-14T12:19:20Z</time>
      </trkpt>
      <trkpt lat="40.8639750" lon="-8.2674280">
        <ele>966.4</ele>
        <time>2022-08-14T12:19:21Z</time>
      </trkpt>
      <trkpt lat="40.8638990" lon="-8.2673120">
        <ele>965.8</ele>
        <time>2022-08-14T12:19:23Z</time>
      </trkpt>
      <trkpt lat="40.8638300" lon="-8.2672210">
        <ele>965.8</ele>
        <time>2022-08-14T12:19:25Z</time>
      </trkpt>
      <trkpt lat="40.8637940" lon="-8.2671850">
        <ele>965.6</ele>
        <time>2022-08-14T12:19:26Z</time>
      </trkpt>
      <trkpt lat="40.8637650" lon="-8.2671480">
        <ele>965.4</ele>
        <time>2022-08-14T12:19:27Z</time>
      </trkpt>
      <trkpt lat="40.8636880" lon="-8.2670050">
        <ele>965.2</ele>
        <time>2022-08-14T12:19:31Z</time>
      </trkpt>
      <trkpt lat="40.8636130" lon="-8.2668390">
        <ele>965.2</ele>
        <time>2022-08-14T12:19:37Z</time>
      </trkpt>
      <trkpt lat="40.8635500" lon="-8.2667500">
        <ele>965.4</ele>
        <time>2022-08-14T12:19:42Z</time>
      </trkpt>
      <trkpt lat="40.8634830" lon="-8.2666160">
        <ele>966.0</ele>
        <time>2022-08-14T12:19:48Z</time>
      </trkpt>
      <trkpt lat="40.8633990" lon="-8.2664750">
        <ele>966.6</ele>
        <time>2022-08-14T12:19:55Z</time>
      </trkpt>
      <trkpt lat="40.8632710" lon="-8.2662660">
        <ele>966.8</ele>
        <time>2022-08-14T12:20:04Z</time>
      </trkpt>
      <trkpt lat="40.8632210" lon="-8.2661450">
        <ele>966.6</ele>
        <time>2022-08-14T12:20:08Z</time>
      </trkpt>
      <trkpt lat="40.8632000" lon="-8.2660580">
        <ele>966.6</ele>
        <time>2022-08-14T12:20:11Z</time>
      </trkpt>
      <trkpt lat="40.8631640" lon="-8.2659260">
        <ele>967.0</ele>
        <time>2022-08-14T12:20:16Z</time>
      </trkpt>
      <trkpt lat="40.8631430" lon="-8.2657190">
        <ele>967.2</ele>
        <time>2022-08-14T12:20:23Z</time>
      </trkpt>
      <trkpt lat="40.8631380" lon="-8.2654890">
        <ele>967.6</ele>
        <time>2022-08-14T12:20:29Z</time>
      </trkpt>
      <trkpt lat="40.8631260" lon="-8.2653750">
        <ele>968.0</ele>
        <time>2022-08-14T12:20:33Z</time>
      </trkpt>
      <trkpt lat="40.8631240" lon="-8.2653530">
        <ele>968.0</ele>
        <time>2022-08-14T12:20:34Z</time>
      </trkpt>
      <trkpt lat="40.8631300" lon="-8.2653000">
        <ele>968.2</ele>
        <time>2022-08-14T12:20:39Z</time>
      </trkpt>
      <trkpt lat="40.8631300" lon="-8.2653000">
        <ele>968.4</ele>
        <time>2022-08-14T12:20:40Z</time>
      </trkpt>
      <trkpt lat="40.8631130" lon="-8.2653190">
        <ele>967.6</ele>
        <time>2022-08-14T12:21:37Z</time>
      </trkpt>
      <trkpt lat="40.8630610" lon="-8.2653710">
        <ele>967.6</ele>
        <time>2022-08-14T12:21:40Z</time>
      </trkpt>
      <trkpt lat="40.8629100" lon="-8.2654030">
        <ele>967.8</ele>
        <time>2022-08-14T12:21:48Z</time>
      </trkpt>
      <trkpt lat="40.8628760" lon="-8.2654260">
        <ele>967.8</ele>
        <time>2022-08-14T12:21:50Z</time>
      </trkpt>
      <trkpt lat="40.8628540" lon="-8.2654490">
        <ele>968.0</ele>
        <time>2022-08-14T12:21:52Z</time>
      </trkpt>
      <trkpt lat="40.8628420" lon="-8.2654430">
        <ele>968.0</ele>
        <time>2022-08-14T12:21:53Z</time>
      </trkpt>
      <trkpt lat="40.8628700" lon="-8.2654120">
        <ele>968.4</ele>
        <time>2022-08-14T12:21:56Z</time>
      </trkpt>
      <trkpt lat="40.8630870" lon="-8.2653340">
        <ele>968.4</ele>
        <time>2022-08-14T12:22:06Z</time>
      </trkpt>
      <trkpt lat="40.8631070" lon="-8.2653240">
        <ele>968.4</ele>
        <time>2022-08-14T12:22:07Z</time>
      </trkpt>
      <trkpt lat="40.8631410" lon="-8.2653090">
        <ele>968.2</ele>
        <time>2022-08-14T12:22:11Z</time>
      </trkpt>
      <trkpt lat="40.8631410" lon="-8.2653090">
        <ele>968.2</ele>
        <time>2022-08-14T12:22:12Z</time>
      </trkpt>
      <trkpt lat="40.8631480" lon="-8.2653460">
        <ele>968.0</ele>
        <time>2022-08-14T12:22:34Z</time>
      </trkpt>
      <trkpt lat="40.8631230" lon="-8.2653580">
        <ele>968.0</ele>
        <time>2022-08-14T12:22:36Z</time>
      </trkpt>
      <trkpt lat="40.8630160" lon="-8.2653520">
        <ele>967.4</ele>
        <time>2022-08-14T12:22:42Z</time>
      </trkpt>
      <trkpt lat="40.8628490" lon="-8.2654330">
        <ele>966.8</ele>
        <time>2022-08-14T12:22:51Z</time>
      </trkpt>
      <trkpt lat="40.8626550" lon="-8.2654910">
        <ele>966.8</ele>
        <time>2022-08-14T12:23:00Z</time>
      </trkpt>
      <trkpt lat="40.8624330" lon="-8.2655230">
        <ele>967.6</ele>
        <time>2022-08-14T12:23:10Z</time>
      </trkpt>
      <trkpt lat="40.8623200" lon="-8.2655410">
        <ele>967.8</ele>
        <time>2022-08-14T12:23:15Z</time>
      </trkpt>
      <trkpt lat="40.8621630" lon="-8.2655610">
        <ele>968.4</ele>
        <time>2022-08-14T12:23:22Z</time>
      </trkpt>
      <trkpt lat="40.8620910" lon="-8.2655590">
        <ele>968.6</ele>
        <time>2022-08-14T12:23:27Z</time>
      </trkpt>
      <trkpt lat="40.8620780" lon="-8.2655380">
        <ele>968.6</ele>
        <time>2022-08-14T12:23:28Z</time>
      </trkpt>
      <trkpt lat="40.8620500" lon="-8.2654890">
        <ele>968.6</ele>
        <time>2022-08-14T12:23:30Z</time>
      </trkpt>
      <trkpt lat="40.8619540" lon="-8.2653710">
        <ele>968.4</ele>
        <time>2022-08-14T12:23:34Z</time>
      </trkpt>
      <trkpt lat="40.8618600" lon="-8.2653080">
        <ele>967.8</ele>
        <time>2022-08-14T12:23:39Z</time>
      </trkpt>
      <trkpt lat="40.8618360" lon="-8.2653000">
        <ele>967.2</ele>
        <time>2022-08-14T12:23:42Z</time>
      </trkpt>
      <trkpt lat="40.8618120" lon="-8.2652920">
        <ele>966.8</ele>
        <time>2022-08-14T12:24:00Z</time>
      </trkpt>
      <trkpt lat="40.8617880" lon="-8.2652840">
        <ele>966.8</ele>
        <time>2022-08-14T12:24:01Z</time>
      </trkpt>
      <trkpt lat="40.8617420" lon="-8.2652800">
        <ele>966.6</ele>
        <time>2022-08-14T12:24:04Z</time>
      </trkpt>
      <trkpt lat="40.8617420" lon="-8.2652800">
        <ele>966.6</ele>
        <time>2022-08-14T12:24:05Z</time>
      </trkpt>
      <trkpt lat="40.8617270" lon="-8.2652610">
        <ele>965.8</ele>
        <time>2022-08-14T12:24:33Z</time>
      </trkpt>
      <trkpt lat="40.8617000" lon="-8.2652420">
        <ele>966.0</ele>
        <time>2022-08-14T12:24:35Z</time>
      </trkpt>
      <trkpt lat="40.8616090" lon="-8.2651600">
        <ele>966.0</ele>
        <time>2022-08-14T12:24:40Z</time>
      </trkpt>
      <trkpt lat="40.8616080" lon="-8.2651480">
        <ele>966.2</ele>
        <time>2022-08-14T12:24:44Z</time>
      </trkpt>
      <trkpt lat="40.8616080" lon="-8.2651480">
        <ele>966.2</ele>
        <time>2022-08-14T12:24:45Z</time>
      </trkpt>
      <trkpt lat="40.8615920" lon="-8.2650810">
        <ele>965.2</ele>
        <time>2022-08-14T12:25:47Z</time>
      </trkpt>
      <trkpt lat="40.8616000" lon="-8.2650080">
        <ele>965.2</ele>
        <time>2022-08-14T12:25:50Z</time>
      </trkpt>
      <trkpt lat="40.8616150" lon="-8.2648690">
        <ele>966.2</ele>
        <time>2022-08-14T12:25:56Z</time>
      </trkpt>
      <trkpt lat="40.8616030" lon="-8.2648070">
        <ele>966.4</ele>
        <time>2022-08-14T12:25:59Z</time>
      </trkpt>
      <trkpt lat="40.8615860" lon="-8.2647440">
        <ele>967.0</ele>
        <time>2022-08-14T12:26:02Z</time>
      </trkpt>
      <trkpt lat="40.8615660" lon="-8.2646610">
        <ele>967.6</ele>
        <time>2022-08-14T12:26:06Z</time>
      </trkpt>
      <trkpt lat="40.8615490" lon="-8.2645580">
        <ele>968.8</ele>
        <time>2022-08-14T12:26:11Z</time>
      </trkpt>
      <trkpt lat="40.8615230" lon="-8.2644840">
        <ele>970.0</ele>
        <time>2022-08-14T12:26:14Z</time>
      </trkpt>
      <trkpt lat="40.8614950" lon="-8.2643950">
        <ele>970.6</ele>
        <time>2022-08-14T12:26:18Z</time>
      </trkpt>
      <trkpt lat="40.8614490" lon="-8.2642860">
        <ele>971.2</ele>
        <time>2022-08-14T12:26:23Z</time>
      </trkpt>
      <trkpt lat="40.8614120" lon="-8.2641870">
        <ele>972.0</ele>
        <time>2022-08-14T12:26:27Z</time>
      </trkpt>
      <trkpt lat="40.8613960" lon="-8.2641340">
        <ele>972.2</ele>
        <time>2022-08-14T12:26:29Z</time>
      </trkpt>
      <trkpt lat="40.8613430" lon="-8.2639750">
        <ele>973.0</ele>
        <time>2022-08-14T12:26:35Z</time>
      </trkpt>
      <trkpt lat="40.8613280" lon="-8.2639320">
        <ele>973.2</ele>
        <time>2022-08-14T12:26:37Z</time>
      </trkpt>
      <trkpt lat="40.8613150" lon="-8.2638890">
        <ele>973.8</ele>
        <time>2022-08-14T12:26:39Z</time>
      </trkpt>
      <trkpt lat="40.8612760" lon="-8.2637830">
        <ele>974.2</ele>
        <time>2022-08-14T12:26:43Z</time>
      </trkpt>
      <trkpt lat="40.8612630" lon="-8.2637530">
        <ele>974.4</ele>
        <time>2022-08-14T12:26:44Z</time>
      </trkpt>
      <trkpt lat="40.8611500" lon="-8.2635670">
        <ele>975.4</ele>
        <time>2022-08-14T12:26:51Z</time>
      </trkpt>
      <trkpt lat="40.8611330" lon="-8.2635390">
        <ele>975.4</ele>
        <time>2022-08-14T12:26:52Z</time>
      </trkpt>
      <trkpt lat="40.8610320" lon="-8.2633430">
        <ele>975.6</ele>
        <time>2022-08-14T12:26:59Z</time>
      </trkpt>
      <trkpt lat="40.8609020" lon="-8.2631560">
        <ele>976.4</ele>
        <time>2022-08-14T12:27:06Z</time>
      </trkpt>
      <trkpt lat="40.8608820" lon="-8.2631340">
        <ele>976.6</ele>
        <time>2022-08-14T12:27:07Z</time>
      </trkpt>
      <trkpt lat="40.8608020" lon="-8.2629980">
        <ele>977.4</ele>
        <time>2022-08-14T12:27:13Z</time>
      </trkpt>
      <trkpt lat="40.8607900" lon="-8.2629850">
        <ele>977.6</ele>
        <time>2022-08-14T12:27:14Z</time>
      </trkpt>
      <trkpt lat="40.8607530" lon="-8.2629360">
        <ele>978.4</ele>
        <time>2022-08-14T12:27:18Z</time>
      </trkpt>
      <trkpt lat="40.8607260" lon="-8.2628960">
        <ele>978.8</ele>
        <time>2022-08-14T12:27:21Z</time>
      </trkpt>
      <trkpt lat="40.8606670" lon="-8.2628120">
        <ele>979.4</ele>
        <time>2022-08-14T12:27:26Z</time>
      </trkpt>
      <trkpt lat="40.8606090" lon="-8.2627200">
        <ele>980.0</ele>
        <time>2022-08-14T12:27:31Z</time>
      </trkpt>
      <trkpt lat="40.8605680" lon="-8.2626560">
        <ele>980.0</ele>
        <time>2022-08-14T12:27:34Z</time>
      </trkpt>
      <trkpt lat="40.8604830" lon="-8.2625140">
        <ele>980.6</ele>
        <time>2022-08-14T12:27:40Z</time>
      </trkpt>
      <trkpt lat="40.8604620" lon="-8.2624700">
        <ele>980.6</ele>
        <time>2022-08-14T12:27:42Z</time>
      </trkpt>
      <trkpt lat="40.8603700" lon="-8.2621510">
        <ele>980.4</ele>
        <time>2022-08-14T12:27:54Z</time>
      </trkpt>
      <trkpt lat="40.8603070" lon="-8.2619820">
        <ele>980.4</ele>
        <time>2022-08-14T12:28:01Z</time>
      </trkpt>
      <trkpt lat="40.8602650" lon="-8.2618980">
        <ele>981.0</ele>
        <time>2022-08-14T12:28:05Z</time>
      </trkpt>
      <trkpt lat="40.8602050" lon="-8.2617780">
        <ele>981.4</ele>
        <time>2022-08-14T12:28:10Z</time>
      </trkpt>
      <trkpt lat="40.8601730" lon="-8.2616700">
        <ele>982.0</ele>
        <time>2022-08-14T12:28:14Z</time>
      </trkpt>
      <trkpt lat="40.8601420" lon="-8.2615600">
        <ele>982.6</ele>
        <time>2022-08-14T12:28:18Z</time>
      </trkpt>
      <trkpt lat="40.8601270" lon="-8.2615130">
        <ele>983.2</ele>
        <time>2022-08-14T12:28:20Z</time>
      </trkpt>
      <trkpt lat="40.8600860" lon="-8.2612850">
        <ele>984.0</ele>
        <time>2022-08-14T12:28:28Z</time>
      </trkpt>
      <trkpt lat="40.8600830" lon="-8.2612600">
        <ele>984.0</ele>
        <time>2022-08-14T12:28:29Z</time>
      </trkpt>
      <trkpt lat="40.8600770" lon="-8.2611520">
        <ele>984.4</ele>
        <time>2022-08-14T12:28:33Z</time>
      </trkpt>
      <trkpt lat="40.8600400" lon="-8.2610010">
        <ele>985.0</ele>
        <time>2022-08-14T12:28:39Z</time>
      </trkpt>
      <trkpt lat="40.8600200" lon="-8.2609310">
        <ele>985.4</ele>
        <time>2022-08-14T12:28:42Z</time>
      </trkpt>
      <trkpt lat="40.8599970" lon="-8.2608020">
        <ele>986.8</ele>
        <time>2022-08-14T12:28:47Z</time>
      </trkpt>
      <trkpt lat="40.8599730" lon="-8.2606010">
        <ele>987.2</ele>
        <time>2022-08-14T12:28:55Z</time>
      </trkpt>
      <trkpt lat="40.8599450" lon="-8.2604840">
        <ele>987.6</ele>
        <time>2022-08-14T12:29:00Z</time>
      </trkpt>
      <trkpt lat="40.8599330" lon="-8.2604310">
        <ele>987.8</ele>
        <time>2022-08-14T12:29:02Z</time>
      </trkpt>
      <trkpt lat="40.8599250" lon="-8.2604030">
        <ele>987.8</ele>
        <time>2022-08-14T12:29:03Z</time>
      </trkpt>
      <trkpt lat="40.8598170" lon="-8.2602090">
        <ele>988.6</ele>
        <time>2022-08-14T12:29:11Z</time>
      </trkpt>
      <trkpt lat="40.8597260" lon="-8.2599920">
        <ele>988.6</ele>
        <time>2022-08-14T12:29:19Z</time>
      </trkpt>
      <trkpt lat="40.8596340" lon="-8.2597420">
        <ele>987.6</ele>
        <time>2022-08-14T12:29:28Z</time>
      </trkpt>
      <trkpt lat="40.8595750" lon="-8.2594760">
        <ele>987.6</ele>
        <time>2022-08-14T12:29:36Z</time>
      </trkpt>
      <trkpt lat="40.8594820" lon="-8.2592740">
        <ele>987.8</ele>
        <time>2022-08-14T12:29:43Z</time>
      </trkpt>
      <trkpt lat="40.8594780" lon="-8.2592720">
        <ele>987.8</ele>
        <time>2022-08-14T12:29:44Z</time>
      </trkpt>
      <trkpt lat="40.8594780" lon="-8.2592720">
        <ele>987.8</ele>
        <time>2022-08-14T12:29:46Z</time>
      </trkpt>
      <trkpt lat="40.8594380" lon="-8.2592210">
        <ele>988.4</ele>
        <time>2022-08-14T12:30:11Z</time>
      </trkpt>
      <trkpt lat="40.8594270" lon="-8.2591920">
        <ele>988.4</ele>
        <time>2022-08-14T12:30:12Z</time>
      </trkpt>
      <trkpt lat="40.8593380" lon="-8.2590290">
        <ele>988.2</ele>
        <time>2022-08-14T12:30:18Z</time>
      </trkpt>
      <trkpt lat="40.8593130" lon="-8.2589930">
        <ele>987.8</ele>
        <time>2022-08-14T12:30:20Z</time>
      </trkpt>
      <trkpt lat="40.8592970" lon="-8.2589850">
        <ele>987.8</ele>
        <time>2022-08-14T12:30:21Z</time>
      </trkpt>
      <trkpt lat="40.8592900" lon="-8.2589790">
        <ele>987.6</ele>
        <time>2022-08-14T12:30:22Z</time>
      </trkpt>
      <trkpt lat="40.8592920" lon="-8.2589780">
        <ele>987.4</ele>
        <time>2022-08-14T12:30:25Z</time>
      </trkpt>
      <trkpt lat="40.8592700" lon="-8.2589230">
        <ele>987.4</ele>
        <time>2022-08-14T12:30:54Z</time>
      </trkpt>
      <trkpt lat="40.8592340" lon="-8.2588690">
        <ele>987.4</ele>
        <time>2022-08-14T12:30:56Z</time>
      </trkpt>
      <trkpt lat="40.8590660" lon="-8.2586720">
        <ele>987.0</ele>
        <time>2022-08-14T12:31:04Z</time>
      </trkpt>
      <trkpt lat="40.8589390" lon="-8.2584340">
        <ele>987.0</ele>
        <time>2022-08-14T12:31:13Z</time>
      </trkpt>
      <trkpt lat="40.8588020" lon="-8.2581310">
        <ele>987.0</ele>
        <time>2022-08-14T12:31:23Z</time>
      </trkpt>
      <trkpt lat="40.8587250" lon="-8.2580250">
        <ele>987.2</ele>
        <time>2022-08-14T12:31:28Z</time>
      </trkpt>
      <trkpt lat="40.8585890" lon="-8.2577660">
        <ele>987.6</ele>
        <time>2022-08-14T12:31:39Z</time>
      </trkpt>
      <trkpt lat="40.8585550" lon="-8.2576770">
        <ele>988.2</ele>
        <time>2022-08-14T12:31:43Z</time>
      </trkpt>
      <trkpt lat="40.8585340" lon="-8.2576280">
        <ele>988.6</ele>
        <time>2022-08-14T12:31:45Z</time>
      </trkpt>
      <trkpt lat="40.8585160" lon="-8.2575960">
        <ele>989.0</ele>
        <time>2022-08-14T12:31:46Z</time>
      </trkpt>
      <trkpt lat="40.8584620" lon="-8.2574910">
        <ele>989.6</ele>
        <time>2022-08-14T12:31:50Z</time>
      </trkpt>
      <trkpt lat="40.8584110" lon="-8.2573900">
        <ele>990.0</ele>
        <time>2022-08-14T12:31:54Z</time>
      </trkpt>
      <trkpt lat="40.8582690" lon="-8.2571670">
        <ele>990.6</ele>
        <time>2022-08-14T12:32:03Z</time>
      </trkpt>
      <trkpt lat="40.8582020" lon="-8.2570390">
        <ele>991.2</ele>
        <time>2022-08-14T12:32:08Z</time>
      </trkpt>
      <trkpt lat="40.8581670" lon="-8.2569230">
        <ele>991.8</ele>
        <time>2022-08-14T12:32:13Z</time>
      </trkpt>
      <trkpt lat="40.8581600" lon="-8.2568950">
        <ele>991.8</ele>
        <time>2022-08-14T12:32:14Z</time>
      </trkpt>
      <trkpt lat="40.8581520" lon="-8.2567540">
        <ele>992.6</ele>
        <time>2022-08-14T12:32:19Z</time>
      </trkpt>
      <trkpt lat="40.8581510" lon="-8.2567290">
        <ele>992.8</ele>
        <time>2022-08-14T12:32:20Z</time>
      </trkpt>
      <trkpt lat="40.8581740" lon="-8.2566210">
        <ele>993.4</ele>
        <time>2022-08-14T12:32:24Z</time>
      </trkpt>
      <trkpt lat="40.8581870" lon="-8.2565410">
        <ele>993.8</ele>
        <time>2022-08-14T12:32:27Z</time>
      </trkpt>
      <trkpt lat="40.8582080" lon="-8.2563870">
        <ele>994.0</ele>
        <time>2022-08-14T12:32:33Z</time>
      </trkpt>
      <trkpt lat="40.8582250" lon="-8.2562990">
        <ele>995.0</ele>
        <time>2022-08-14T12:32:37Z</time>
      </trkpt>
      <trkpt lat="40.8582280" lon="-8.2562760">
        <ele>995.0</ele>
        <time>2022-08-14T12:32:38Z</time>
      </trkpt>
      <trkpt lat="40.8582280" lon="-8.2562540">
        <ele>995.0</ele>
        <time>2022-08-14T12:32:39Z</time>
      </trkpt>
      <trkpt lat="40.8582170" lon="-8.2561920">
        <ele>995.4</ele>
        <time>2022-08-14T12:32:42Z</time>
      </trkpt>
      <trkpt lat="40.8582180" lon="-8.2561720">
        <ele>995.4</ele>
        <time>2022-08-14T12:32:43Z</time>
      </trkpt>
      <trkpt lat="40.8582140" lon="-8.2560260">
        <ele>995.4</ele>
        <time>2022-08-14T12:32:50Z</time>
      </trkpt>
      <trkpt lat="40.8581940" lon="-8.2559440">
        <ele>995.8</ele>
        <time>2022-08-14T12:32:55Z</time>
      </trkpt>
      <trkpt lat="40.8581750" lon="-8.2559080">
        <ele>996.4</ele>
        <time>2022-08-14T12:32:57Z</time>
      </trkpt>
      <trkpt lat="40.8581710" lon="-8.2558930">
        <ele>996.8</ele>
        <time>2022-08-14T12:32:58Z</time>
      </trkpt>
      <trkpt lat="40.8581680" lon="-8.2558450">
        <ele>996.8</ele>
        <time>2022-08-14T12:33:00Z</time>
      </trkpt>
      <trkpt lat="40.8581670" lon="-8.2557990">
        <ele>997.0</ele>
        <time>2022-08-14T12:33:02Z</time>
      </trkpt>
      <trkpt lat="40.8581710" lon="-8.2557780">
        <ele>997.2</ele>
        <time>2022-08-14T12:33:03Z</time>
      </trkpt>
      <trkpt lat="40.8581590" lon="-8.2556200">
        <ele>998.0</ele>
        <time>2022-08-14T12:33:10Z</time>
      </trkpt>
      <trkpt lat="40.8581380" lon="-8.2554540">
        <ele>998.8</ele>
        <time>2022-08-14T12:33:16Z</time>
      </trkpt>
      <trkpt lat="40.8581320" lon="-8.2554000">
        <ele>999.0</ele>
        <time>2022-08-14T12:33:18Z</time>
      </trkpt>
      <trkpt lat="40.8581010" lon="-8.2552510">
        <ele>999.2</ele>
        <time>2022-08-14T12:33:23Z</time>
      </trkpt>
      <trkpt lat="40.8580700" lon="-8.2550630">
        <ele>999.4</ele>
        <time>2022-08-14T12:33:31Z</time>
      </trkpt>
      <trkpt lat="40.8580680" lon="-8.2549250">
        <ele>1000.0</ele>
        <time>2022-08-14T12:33:37Z</time>
      </trkpt>
      <trkpt lat="40.8580710" lon="-8.2548580">
        <ele>1000.6</ele>
        <time>2022-08-14T12:33:40Z</time>
      </trkpt>
      <trkpt lat="40.8580500" lon="-8.2547550">
        <ele>1001.0</ele>
        <time>2022-08-14T12:33:45Z</time>
      </trkpt>
      <trkpt lat="40.8580270" lon="-8.2546910">
        <ele>1001.2</ele>
        <time>2022-08-14T12:33:48Z</time>
      </trkpt>
      <trkpt lat="40.8579790" lon="-8.2545300">
        <ele>1002.2</ele>
        <time>2022-08-14T12:33:55Z</time>
      </trkpt>
      <trkpt lat="40.8579900" lon="-8.2544830">
        <ele>1002.6</ele>
        <time>2022-08-14T12:33:57Z</time>
      </trkpt>
      <trkpt lat="40.8580010" lon="-8.2544690">
        <ele>1002.6</ele>
        <time>2022-08-14T12:33:58Z</time>
      </trkpt>
      <trkpt lat="40.8580500" lon="-8.2544280">
        <ele>1003.0</ele>
        <time>2022-08-14T12:34:01Z</time>
      </trkpt>
      <trkpt lat="40.8580650" lon="-8.2544170">
        <ele>1003.0</ele>
        <time>2022-08-14T12:34:02Z</time>
      </trkpt>
      <trkpt lat="40.8581960" lon="-8.2543310">
        <ele>1003.8</ele>
        <time>2022-08-14T12:34:10Z</time>
      </trkpt>
      <trkpt lat="40.8582500" lon="-8.2542890">
        <ele>1004.2</ele>
        <time>2022-08-14T12:34:14Z</time>
      </trkpt>
      <trkpt lat="40.8582660" lon="-8.2542790">
        <ele>1004.4</ele>
        <time>2022-08-14T12:34:15Z</time>
      </trkpt>
      <trkpt lat="40.8582800" lon="-8.2542670">
        <ele>1004.4</ele>
        <time>2022-08-14T12:34:16Z</time>
      </trkpt>
      <trkpt lat="40.8583140" lon="-8.2542520">
        <ele>1005.6</ele>
        <time>2022-08-14T12:34:18Z</time>
      </trkpt>
      <trkpt lat="40.8583870" lon="-8.2542350">
        <ele>1005.8</ele>
        <time>2022-08-14T12:34:22Z</time>
      </trkpt>
      <trkpt lat="40.8584350" lon="-8.2542330">
        <ele>1006.6</ele>
        <time>2022-08-14T12:34:25Z</time>
      </trkpt>
      <trkpt lat="40.8584910" lon="-8.2542270">
        <ele>1006.8</ele>
        <time>2022-08-14T12:34:28Z</time>
      </trkpt>
      <trkpt lat="40.8585640" lon="-8.2542140">
        <ele>1008.0</ele>
        <time>2022-08-14T12:34:32Z</time>
      </trkpt>
      <trkpt lat="40.8586150" lon="-8.2541630">
        <ele>1008.6</ele>
        <time>2022-08-14T12:34:36Z</time>
      </trkpt>
      <trkpt lat="40.8586180" lon="-8.2541160">
        <ele>1008.8</ele>
        <time>2022-08-14T12:34:38Z</time>
      </trkpt>
      <trkpt lat="40.8585870" lon="-8.2540190">
        <ele>1008.8</ele>
        <time>2022-08-14T12:34:42Z</time>
      </trkpt>
      <trkpt lat="40.8585100" lon="-8.2538570">
        <ele>1009.4</ele>
        <time>2022-08-14T12:34:48Z</time>
      </trkpt>
      <trkpt lat="40.8583950" lon="-8.2536980">
        <ele>1009.6</ele>
        <time>2022-08-14T12:34:56Z</time>
      </trkpt>
      <trkpt lat="40.8582830" lon="-8.2535590">
        <ele>1009.2</ele>
        <time>2022-08-14T12:35:03Z</time>
      </trkpt>
      <trkpt lat="40.8582130" lon="-8.2534370">
        <ele>1008.6</ele>
        <time>2022-08-14T12:35:09Z</time>
      </trkpt>
      <trkpt lat="40.8581430" lon="-8.2533510">
        <ele>1008.2</ele>
        <time>2022-08-14T12:35:14Z</time>
      </trkpt>
      <trkpt lat="40.8579940" lon="-8.2532280">
        <ele>1008.0</ele>
        <time>2022-08-14T12:35:20Z</time>
      </trkpt>
      <trkpt lat="40.8579710" lon="-8.2532010">
        <ele>1007.6</ele>
        <time>2022-08-14T12:35:21Z</time>
      </trkpt>
      <trkpt lat="40.8578740" lon="-8.2530790">
        <ele>1005.6</ele>
        <time>2022-08-14T12:35:25Z</time>
      </trkpt>
      <trkpt lat="40.8578170" lon="-8.2530160">
        <ele>1004.6</ele>
        <time>2022-08-14T12:35:27Z</time>
      </trkpt>
      <trkpt lat="40.8577890" lon="-8.2529850">
        <ele>1004.0</ele>
        <time>2022-08-14T12:35:28Z</time>
      </trkpt>
      <trkpt lat="40.8576810" lon="-8.2529070">
        <ele>1003.4</ele>
        <time>2022-08-14T12:35:32Z</time>
      </trkpt>
      <trkpt lat="40.8576370" lon="-8.2528640">
        <ele>1002.6</ele>
        <time>2022-08-14T12:35:34Z</time>
      </trkpt>
      <trkpt lat="40.8575310" lon="-8.2527580">
        <ele>1002.2</ele>
        <time>2022-08-14T12:35:39Z</time>
      </trkpt>
      <trkpt lat="40.8574350" lon="-8.2526360">
        <ele>1002.0</ele>
        <time>2022-08-14T12:35:45Z</time>
      </trkpt>
      <trkpt lat="40.8573290" lon="-8.2525450">
        <ele>1001.4</ele>
        <time>2022-08-14T12:35:50Z</time>
      </trkpt>
      <trkpt lat="40.8573100" lon="-8.2525300">
        <ele>1001.4</ele>
        <time>2022-08-14T12:35:51Z</time>
      </trkpt>
      <trkpt lat="40.8571760" lon="-8.2524040">
        <ele>1001.2</ele>
        <time>2022-08-14T12:35:58Z</time>
      </trkpt>
      <trkpt lat="40.8570970" lon="-8.2523240">
        <ele>1000.0</ele>
        <time>2022-08-14T12:36:02Z</time>
      </trkpt>
      <trkpt lat="40.8570350" lon="-8.2522680">
        <ele>999.4</ele>
        <time>2022-08-14T12:36:05Z</time>
      </trkpt>
      <trkpt lat="40.8570140" lon="-8.2522520">
        <ele>999.0</ele>
        <time>2022-08-14T12:36:06Z</time>
      </trkpt>
      <trkpt lat="40.8569380" lon="-8.2521630">
        <ele>997.6</ele>
        <time>2022-08-14T12:36:10Z</time>
      </trkpt>
      <trkpt lat="40.8569220" lon="-8.2521410">
        <ele>997.4</ele>
        <time>2022-08-14T12:36:11Z</time>
      </trkpt>
      <trkpt lat="40.8568710" lon="-8.2520860">
        <ele>996.4</ele>
        <time>2022-08-14T12:36:14Z</time>
      </trkpt>
      <trkpt lat="40.8567760" lon="-8.2519750">
        <ele>995.4</ele>
        <time>2022-08-14T12:36:19Z</time>
      </trkpt>
      <trkpt lat="40.8567450" lon="-8.2519370">
        <ele>995.2</ele>
        <time>2022-08-14T12:36:21Z</time>
      </trkpt>
      <trkpt lat="40.8565960" lon="-8.2517520">
        <ele>994.8</ele>
        <time>2022-08-14T12:36:28Z</time>
      </trkpt>
      <trkpt lat="40.8564740" lon="-8.2515820">
        <ele>994.4</ele>
        <time>2022-08-14T12:36:33Z</time>
      </trkpt>
      <trkpt lat="40.8564090" lon="-8.2514840">
        <ele>994.0</ele>
        <time>2022-08-14T12:36:36Z</time>
      </trkpt>
      <trkpt lat="40.8562920" lon="-8.2512820">
        <ele>994.0</ele>
        <time>2022-08-14T12:36:42Z</time>
      </trkpt>
      <trkpt lat="40.8561450" lon="-8.2510580">
        <ele>993.4</ele>
        <time>2022-08-14T12:36:49Z</time>
      </trkpt>
      <trkpt lat="40.8560040" lon="-8.2508690">
        <ele>993.2</ele>
        <time>2022-08-14T12:36:56Z</time>
      </trkpt>
      <trkpt lat="40.8559120" lon="-8.2507280">
        <ele>993.4</ele>
        <time>2022-08-14T12:37:01Z</time>
      </trkpt>
      <trkpt lat="40.8558760" lon="-8.2507050">
        <ele>993.2</ele>
        <time>2022-08-14T12:37:02Z</time>
      </trkpt>
      <trkpt lat="40.8557960" lon="-8.2506340">
        <ele>993.0</ele>
        <time>2022-08-14T12:37:04Z</time>
      </trkpt>
      <trkpt lat="40.8557460" lon="-8.2505820">
        <ele>992.8</ele>
        <time>2022-08-14T12:37:06Z</time>
      </trkpt>
      <trkpt lat="40.8557250" lon="-8.2505570">
        <ele>992.8</ele>
        <time>2022-08-14T12:37:07Z</time>
      </trkpt>
      <trkpt lat="40.8556780" lon="-8.2504700">
        <ele>992.2</ele>
        <time>2022-08-14T12:37:10Z</time>
      </trkpt>
      <trkpt lat="40.8556200" lon="-8.2503760">
        <ele>991.8</ele>
        <time>2022-08-14T12:37:13Z</time>
      </trkpt>
      <trkpt lat="40.8555520" lon="-8.2503160">
        <ele>991.0</ele>
        <time>2022-08-14T12:37:16Z</time>
      </trkpt>
      <trkpt lat="40.8555010" lon="-8.2502820">
        <ele>990.6</ele>
        <time>2022-08-14T12:37:18Z</time>
      </trkpt>
      <trkpt lat="40.8553630" lon="-8.2501930">
        <ele>990.0</ele>
        <time>2022-08-14T12:37:23Z</time>
      </trkpt>
      <trkpt lat="40.8553330" lon="-8.2501780">
        <ele>989.6</ele>
        <time>2022-08-14T12:37:24Z</time>
      </trkpt>
      <trkpt lat="40.8552060" lon="-8.2500750">
        <ele>988.4</ele>
        <time>2022-08-14T12:37:29Z</time>
      </trkpt>
      <trkpt lat="40.8551850" lon="-8.2500540">
        <ele>988.0</ele>
        <time>2022-08-14T12:37:30Z</time>
      </trkpt>
      <trkpt lat="40.8551560" lon="-8.2500070">
        <ele>987.4</ele>
        <time>2022-08-14T12:37:32Z</time>
      </trkpt>
      <trkpt lat="40.8551160" lon="-8.2499690">
        <ele>986.8</ele>
        <time>2022-08-14T12:37:35Z</time>
      </trkpt>
      <trkpt lat="40.8550430" lon="-8.2498740">
        <ele>986.4</ele>
        <time>2022-08-14T12:37:42Z</time>
      </trkpt>
      <trkpt lat="40.8550030" lon="-8.2498340">
        <ele>986.2</ele>
        <time>2022-08-14T12:37:45Z</time>
      </trkpt>
      <trkpt lat="40.8549570" lon="-8.2497930">
        <ele>985.4</ele>
        <time>2022-08-14T12:37:48Z</time>
      </trkpt>
      <trkpt lat="40.8549360" lon="-8.2497610">
        <ele>985.0</ele>
        <time>2022-08-14T12:37:50Z</time>
      </trkpt>
      <trkpt lat="40.8548850" lon="-8.2496920">
        <ele>984.8</ele>
        <time>2022-08-14T12:37:57Z</time>
      </trkpt>
      <trkpt lat="40.8548850" lon="-8.2496920">
        <ele>984.8</ele>
        <time>2022-08-14T12:37:58Z</time>
      </trkpt>
      <trkpt lat="40.8548500" lon="-8.2496440">
        <ele>984.4</ele>
        <time>2022-08-14T12:38:10Z</time>
      </trkpt>
      <trkpt lat="40.8548070" lon="-8.2495830">
        <ele>984.2</ele>
        <time>2022-08-14T12:38:13Z</time>
      </trkpt>
      <trkpt lat="40.8547540" lon="-8.2495060">
        <ele>984.0</ele>
        <time>2022-08-14T12:38:16Z</time>
      </trkpt>
      <trkpt lat="40.8547050" lon="-8.2494140">
        <ele>983.8</ele>
        <time>2022-08-14T12:38:19Z</time>
      </trkpt>
      <trkpt lat="40.8546260" lon="-8.2492610">
        <ele>983.8</ele>
        <time>2022-08-14T12:38:24Z</time>
      </trkpt>
      <trkpt lat="40.8545160" lon="-8.2490130">
        <ele>984.2</ele>
        <time>2022-08-14T12:38:31Z</time>
      </trkpt>
      <trkpt lat="40.8543910" lon="-8.2487450">
        <ele>983.4</ele>
        <time>2022-08-14T12:38:38Z</time>
      </trkpt>
      <trkpt lat="40.8543360" lon="-8.2486460">
        <ele>982.8</ele>
        <time>2022-08-14T12:38:41Z</time>
      </trkpt>
      <trkpt lat="40.8542730" lon="-8.2485750">
        <ele>982.4</ele>
        <time>2022-08-14T12:38:44Z</time>
      </trkpt>
      <trkpt lat="40.8542550" lon="-8.2485520">
        <ele>982.2</ele>
        <time>2022-08-14T12:38:45Z</time>
      </trkpt>
      <trkpt lat="40.8542260" lon="-8.2485160">
        <ele>981.6</ele>
        <time>2022-08-14T12:38:47Z</time>
      </trkpt>
      <trkpt lat="40.8542010" lon="-8.2484890">
        <ele>980.6</ele>
        <time>2022-08-14T12:38:49Z</time>
      </trkpt>
      <trkpt lat="40.8541940" lon="-8.2484820">
        <ele>980.4</ele>
        <time>2022-08-14T12:38:50Z</time>
      </trkpt>
      <trkpt lat="40.8541940" lon="-8.2484820">
        <ele>979.8</ele>
        <time>2022-08-14T12:38:52Z</time>
      </trkpt>
      <trkpt lat="40.8541690" lon="-8.2484170">
        <ele>978.0</ele>
        <time>2022-08-14T12:39:25Z</time>
      </trkpt>
      <trkpt lat="40.8540530" lon="-8.2482370">
        <ele>977.8</ele>
        <time>2022-08-14T12:39:30Z</time>
      </trkpt>
      <trkpt lat="40.8539610" lon="-8.2481650">
        <ele>977.0</ele>
        <time>2022-08-14T12:39:33Z</time>
      </trkpt>
      <trkpt lat="40.8539300" lon="-8.2481460">
        <ele>976.8</ele>
        <time>2022-08-14T12:39:34Z</time>
      </trkpt>
      <trkpt lat="40.8538720" lon="-8.2481130">
        <ele>975.8</ele>
        <time>2022-08-14T12:39:36Z</time>
      </trkpt>
      <trkpt lat="40.8537790" lon="-8.2481110">
        <ele>974.8</ele>
        <time>2022-08-14T12:39:39Z</time>
      </trkpt>
      <trkpt lat="40.8537470" lon="-8.2481190">
        <ele>974.4</ele>
        <time>2022-08-14T12:39:40Z</time>
      </trkpt>
      <trkpt lat="40.8536130" lon="-8.2481460">
        <ele>973.6</ele>
        <time>2022-08-14T12:39:44Z</time>
      </trkpt>
      <trkpt lat="40.8535810" lon="-8.2481650">
        <ele>973.2</ele>
        <time>2022-08-14T12:39:45Z</time>
      </trkpt>
      <trkpt lat="40.8534730" lon="-8.2482320">
        <ele>972.0</ele>
        <time>2022-08-14T12:39:49Z</time>
      </trkpt>
      <trkpt lat="40.8533740" lon="-8.2482640">
        <ele>970.6</ele>
        <time>2022-08-14T12:39:52Z</time>
      </trkpt>
      <trkpt lat="40.8533430" lon="-8.2482750">
        <ele>970.2</ele>
        <time>2022-08-14T12:39:53Z</time>
      </trkpt>
      <trkpt lat="40.8533000" lon="-8.2482930">
        <ele>969.2</ele>
        <time>2022-08-14T12:39:54Z</time>
      </trkpt>
      <trkpt lat="40.8531650" lon="-8.2483200">
        <ele>968.0</ele>
        <time>2022-08-14T12:39:57Z</time>
      </trkpt>
      <trkpt lat="40.8531220" lon="-8.2483260">
        <ele>968.0</ele>
        <time>2022-08-14T12:39:58Z</time>
      </trkpt>
      <trkpt lat="40.8529820" lon="-8.2483220">
        <ele>967.0</ele>
        <time>2022-08-14T12:40:02Z</time>
      </trkpt>
      <trkpt lat="40.8529440" lon="-8.2483080">
        <ele>967.0</ele>
        <time>2022-08-14T12:40:03Z</time>
      </trkpt>
      <trkpt lat="40.8528540" lon="-8.2482350">
        <ele>965.8</ele>
        <time>2022-08-14T12:40:06Z</time>
      </trkpt>
      <trkpt lat="40.8528140" lon="-8.2481790">
        <ele>964.6</ele>
        <time>2022-08-14T12:40:08Z</time>
      </trkpt>
      <trkpt lat="40.8527710" lon="-8.2481160">
        <ele>963.2</ele>
        <time>2022-08-14T12:40:10Z</time>
      </trkpt>
      <trkpt lat="40.8527440" lon="-8.2480430">
        <ele>962.4</ele>
        <time>2022-08-14T12:40:12Z</time>
      </trkpt>
      <trkpt lat="40.8527350" lon="-8.2480050">
        <ele>962.0</ele>
        <time>2022-08-14T12:40:13Z</time>
      </trkpt>
      <trkpt lat="40.8526480" lon="-8.2477660">
        <ele>961.2</ele>
        <time>2022-08-14T12:40:20Z</time>
      </trkpt>
      <trkpt lat="40.8526330" lon="-8.2477320">
        <ele>961.0</ele>
        <time>2022-08-14T12:40:21Z</time>
      </trkpt>
      <trkpt lat="40.8525250" lon="-8.2475490">
        <ele>960.2</ele>
        <time>2022-08-14T12:40:27Z</time>
      </trkpt>
      <trkpt lat="40.8523200" lon="-8.2474990">
        <ele>960.2</ele>
        <time>2022-08-14T12:40:34Z</time>
      </trkpt>
      <trkpt lat="40.8521670" lon="-8.2473830">
        <ele>960.0</ele>
        <time>2022-08-14T12:40:39Z</time>
      </trkpt>
      <trkpt lat="40.8521270" lon="-8.2473350">
        <ele>959.6</ele>
        <time>2022-08-14T12:40:41Z</time>
      </trkpt>
      <trkpt lat="40.8519800" lon="-8.2472090">
        <ele>959.0</ele>
        <time>2022-08-14T12:40:45Z</time>
      </trkpt>
      <trkpt lat="40.8518750" lon="-8.2471690">
        <ele>958.6</ele>
        <time>2022-08-14T12:40:48Z</time>
      </trkpt>
      <trkpt lat="40.8518130" lon="-8.2471300">
        <ele>957.0</ele>
        <time>2022-08-14T12:40:50Z</time>
      </trkpt>
      <trkpt lat="40.8517010" lon="-8.2470730">
        <ele>955.8</ele>
        <time>2022-08-14T12:40:53Z</time>
      </trkpt>
      <trkpt lat="40.8515290" lon="-8.2469740">
        <ele>956.4</ele>
        <time>2022-08-14T12:40:58Z</time>
      </trkpt>
      <trkpt lat="40.8513920" lon="-8.2468190">
        <ele>955.0</ele>
        <time>2022-08-14T12:41:03Z</time>
      </trkpt>
      <trkpt lat="40.8513440" lon="-8.2467510">
        <ele>954.6</ele>
        <time>2022-08-14T12:41:05Z</time>
      </trkpt>
      <trkpt lat="40.8512910" lon="-8.2466960">
        <ele>953.2</ele>
        <time>2022-08-14T12:41:07Z</time>
      </trkpt>
      <trkpt lat="40.8512710" lon="-8.2466750">
        <ele>952.8</ele>
        <time>2022-08-14T12:41:08Z</time>
      </trkpt>
      <trkpt lat="40.8512550" lon="-8.2466540">
        <ele>952.0</ele>
        <time>2022-08-14T12:41:09Z</time>
      </trkpt>
      <trkpt lat="40.8511610" lon="-8.2465390">
        <ele>950.6</ele>
        <time>2022-08-14T12:41:14Z</time>
      </trkpt>
      <trkpt lat="40.8511420" lon="-8.2465140">
        <ele>950.4</ele>
        <time>2022-08-14T12:41:15Z</time>
      </trkpt>
      <trkpt lat="40.8510930" lon="-8.2464770">
        <ele>949.6</ele>
        <time>2022-08-14T12:41:17Z</time>
      </trkpt>
      <trkpt lat="40.8510060" lon="-8.2463960">
        <ele>949.2</ele>
        <time>2022-08-14T12:41:20Z</time>
      </trkpt>
      <trkpt lat="40.8509510" lon="-8.2463410">
        <ele>948.4</ele>
        <time>2022-08-14T12:41:23Z</time>
      </trkpt>
      <trkpt lat="40.8509290" lon="-8.2463210">
        <ele>948.4</ele>
        <time>2022-08-14T12:41:24Z</time>
      </trkpt>
      <trkpt lat="40.8508280" lon="-8.2462040">
        <ele>947.4</ele>
        <time>2022-08-14T12:41:29Z</time>
      </trkpt>
      <trkpt lat="40.8508280" lon="-8.2461740">
        <ele>947.0</ele>
        <time>2022-08-14T12:41:30Z</time>
      </trkpt>
      <trkpt lat="40.8508410" lon="-8.2461600">
        <ele>946.8</ele>
        <time>2022-08-14T12:41:31Z</time>
      </trkpt>
      <trkpt lat="40.8508850" lon="-8.2461730">
        <ele>946.2</ele>
        <time>2022-08-14T12:41:33Z</time>
      </trkpt>
      <trkpt lat="40.8510650" lon="-8.2461210">
        <ele>945.6</ele>
        <time>2022-08-14T12:41:39Z</time>
      </trkpt>
      <trkpt lat="40.8511440" lon="-8.2459470">
        <ele>945.2</ele>
        <time>2022-08-14T12:41:44Z</time>
      </trkpt>
      <trkpt lat="40.8511720" lon="-8.2457310">
        <ele>944.8</ele>
        <time>2022-08-14T12:41:50Z</time>
      </trkpt>
      <trkpt lat="40.8512280" lon="-8.2454630">
        <ele>944.8</ele>
        <time>2022-08-14T12:41:56Z</time>
      </trkpt>
      <trkpt lat="40.8513390" lon="-8.2451040">
        <ele>944.2</ele>
        <time>2022-08-14T12:42:03Z</time>
      </trkpt>
      <trkpt lat="40.8513900" lon="-8.2448960">
        <ele>943.4</ele>
        <time>2022-08-14T12:42:08Z</time>
      </trkpt>
      <trkpt lat="40.8514080" lon="-8.2448080">
        <ele>943.0</ele>
        <time>2022-08-14T12:42:10Z</time>
      </trkpt>
      <trkpt lat="40.8514640" lon="-8.2446500">
        <ele>942.0</ele>
        <time>2022-08-14T12:42:14Z</time>
      </trkpt>
      <trkpt lat="40.8515220" lon="-8.2445870">
        <ele>942.0</ele>
        <time>2022-08-14T12:42:16Z</time>
      </trkpt>
      <trkpt lat="40.8516410" lon="-8.2444830">
        <ele>941.0</ele>
        <time>2022-08-14T12:42:21Z</time>
      </trkpt>
      <trkpt lat="40.8516690" lon="-8.2444640">
        <ele>940.8</ele>
        <time>2022-08-14T12:42:22Z</time>
      </trkpt>
      <trkpt lat="40.8518600" lon="-8.2443630">
        <ele>941.0</ele>
        <time>2022-08-14T12:42:29Z</time>
      </trkpt>
      <trkpt lat="40.8519770" lon="-8.2443160">
        <ele>941.4</ele>
        <time>2022-08-14T12:42:34Z</time>
      </trkpt>
      <trkpt lat="40.8520800" lon="-8.2442660">
        <ele>942.0</ele>
        <time>2022-08-14T12:42:38Z</time>
      </trkpt>
      <trkpt lat="40.8521090" lon="-8.2442450">
        <ele>942.2</ele>
        <time>2022-08-14T12:42:39Z</time>
      </trkpt>
      <trkpt lat="40.8522440" lon="-8.2441680">
        <ele>942.0</ele>
        <time>2022-08-14T12:42:43Z</time>
      </trkpt>
      <trkpt lat="40.8523640" lon="-8.2441030">
        <ele>941.6</ele>
        <time>2022-08-14T12:42:46Z</time>
      </trkpt>
      <trkpt lat="40.8524360" lon="-8.2440840">
        <ele>941.0</ele>
        <time>2022-08-14T12:42:48Z</time>
      </trkpt>
      <trkpt lat="40.8525220" lon="-8.2440200">
        <ele>940.4</ele>
        <time>2022-08-14T12:42:51Z</time>
      </trkpt>
      <trkpt lat="40.8525660" lon="-8.2439410">
        <ele>939.8</ele>
        <time>2022-08-14T12:42:54Z</time>
      </trkpt>
      <trkpt lat="40.8525820" lon="-8.2439170">
        <ele>939.6</ele>
        <time>2022-08-14T12:42:55Z</time>
      </trkpt>
      <trkpt lat="40.8526060" lon="-8.2439000">
        <ele>939.2</ele>
        <time>2022-08-14T12:42:56Z</time>
      </trkpt>
      <trkpt lat="40.8526310" lon="-8.2438840">
        <ele>938.6</ele>
        <time>2022-08-14T12:42:57Z</time>
      </trkpt>
      <trkpt lat="40.8527130" lon="-8.2438320">
        <ele>937.4</ele>
        <time>2022-08-14T12:43:00Z</time>
      </trkpt>
      <trkpt lat="40.8527290" lon="-8.2438130">
        <ele>937.0</ele>
        <time>2022-08-14T12:43:01Z</time>
      </trkpt>
      <trkpt lat="40.8527310" lon="-8.2437800">
        <ele>936.8</ele>
        <time>2022-08-14T12:43:02Z</time>
      </trkpt>
      <trkpt lat="40.8527200" lon="-8.2437680">
        <ele>936.2</ele>
        <time>2022-08-14T12:43:03Z</time>
      </trkpt>
      <trkpt lat="40.8526710" lon="-8.2437310">
        <ele>935.0</ele>
        <time>2022-08-14T12:43:05Z</time>
      </trkpt>
      <trkpt lat="40.8526440" lon="-8.2437120">
        <ele>934.8</ele>
        <time>2022-08-14T12:43:06Z</time>
      </trkpt>
      <trkpt lat="40.8525970" lon="-8.2436930">
        <ele>933.6</ele>
        <time>2022-08-14T12:43:08Z</time>
      </trkpt>
      <trkpt lat="40.8525750" lon="-8.2436820">
        <ele>933.2</ele>
        <time>2022-08-14T12:43:09Z</time>
      </trkpt>
      <trkpt lat="40.8525470" lon="-8.2436670">
        <ele>932.2</ele>
        <time>2022-08-14T12:43:10Z</time>
      </trkpt>
      <trkpt lat="40.8525080" lon="-8.2436570">
        <ele>931.8</ele>
        <time>2022-08-14T12:43:11Z</time>
      </trkpt>
      <trkpt lat="40.8524730" lon="-8.2436470">
        <ele>931.2</ele>
        <time>2022-08-14T12:43:12Z</time>
      </trkpt>
      <trkpt lat="40.8523070" lon="-8.2435890">
        <ele>929.8</ele>
        <time>2022-08-14T12:43:16Z</time>
      </trkpt>
      <trkpt lat="40.8522570" lon="-8.2435580">
        <ele>928.6</ele>
        <time>2022-08-14T12:43:18Z</time>
      </trkpt>
      <trkpt lat="40.8522280" lon="-8.2435400">
        <ele>928.2</ele>
        <time>2022-08-14T12:43:19Z</time>
      </trkpt>
      <trkpt lat="40.8521840" lon="-8.2435320">
        <ele>927.8</ele>
        <time>2022-08-14T12:43:20Z</time>
      </trkpt>
      <trkpt lat="40.8521500" lon="-8.2435320">
        <ele>927.6</ele>
        <time>2022-08-14T12:43:21Z</time>
      </trkpt>
      <trkpt lat="40.8520260" lon="-8.2435420">
        <ele>927.2</ele>
        <time>2022-08-14T12:43:24Z</time>
      </trkpt>
      <trkpt lat="40.8518800" lon="-8.2434670">
        <ele>926.8</ele>
        <time>2022-08-14T12:43:29Z</time>
      </trkpt>
      <trkpt lat="40.8517730" lon="-8.2433270">
        <ele>926.8</ele>
        <time>2022-08-14T12:43:34Z</time>
      </trkpt>
      <trkpt lat="40.8517650" lon="-8.2433310">
        <ele>926.8</ele>
        <time>2022-08-14T12:43:35Z</time>
      </trkpt>
      <trkpt lat="40.8518170" lon="-8.2433850">
        <ele>926.8</ele>
        <time>2022-08-14T12:43:39Z</time>
      </trkpt>
      <trkpt lat="40.8518390" lon="-8.2434180">
        <ele>926.8</ele>
        <time>2022-08-14T12:43:40Z</time>
      </trkpt>
      <trkpt lat="40.8518500" lon="-8.2435000">
        <ele>926.8</ele>
        <time>2022-08-14T12:43:42Z</time>
      </trkpt>
      <trkpt lat="40.8518080" lon="-8.2435790">
        <ele>926.6</ele>
        <time>2022-08-14T12:43:44Z</time>
      </trkpt>
      <trkpt lat="40.8517600" lon="-8.2436360">
        <ele>926.6</ele>
        <time>2022-08-14T12:43:46Z</time>
      </trkpt>
      <trkpt lat="40.8516550" lon="-8.2438130">
        <ele>927.0</ele>
        <time>2022-08-14T12:43:52Z</time>
      </trkpt>
      <trkpt lat="40.8515300" lon="-8.2438150">
        <ele>927.0</ele>
        <time>2022-08-14T12:43:56Z</time>
      </trkpt>
      <trkpt lat="40.8512920" lon="-8.2438410">
        <ele>927.0</ele>
        <time>2022-08-14T12:44:03Z</time>
      </trkpt>
      <trkpt lat="40.8512500" lon="-8.2438580">
        <ele>926.8</ele>
        <time>2022-08-14T12:44:04Z</time>
      </trkpt>
      <trkpt lat="40.8511500" lon="-8.2438480">
        <ele>926.8</ele>
        <time>2022-08-14T12:44:06Z</time>
      </trkpt>
      <trkpt lat="40.8508320" lon="-8.2437280">
        <ele>925.6</ele>
        <time>2022-08-14T12:44:12Z</time>
      </trkpt>
      <trkpt lat="40.8507750" lon="-8.2437100">
        <ele>925.6</ele>
        <time>2022-08-14T12:44:13Z</time>
      </trkpt>
      <trkpt lat="40.8504390" lon="-8.2436410">
        <ele>925.0</ele>
        <time>2022-08-14T12:44:19Z</time>
      </trkpt>
      <trkpt lat="40.8501680" lon="-8.2435960">
        <ele>924.4</ele>
        <time>2022-08-14T12:44:24Z</time>
      </trkpt>
      <trkpt lat="40.8501150" lon="-8.2435820">
        <ele>924.4</ele>
        <time>2022-08-14T12:44:25Z</time>
      </trkpt>
      <trkpt lat="40.8500630" lon="-8.2435740">
        <ele>924.4</ele>
        <time>2022-08-14T12:44:26Z</time>
      </trkpt>
      <trkpt lat="40.8498660" lon="-8.2435550">
        <ele>924.4</ele>
        <time>2022-08-14T12:44:30Z</time>
      </trkpt>
      <trkpt lat="40.8497780" lon="-8.2435220">
        <ele>924.4</ele>
        <time>2022-08-14T12:44:32Z</time>
      </trkpt>
      <trkpt lat="40.8495920" lon="-8.2434510">
        <ele>925.0</ele>
        <time>2022-08-14T12:44:37Z</time>
      </trkpt>
      <trkpt lat="40.8495600" lon="-8.2434260">
        <ele>925.0</ele>
        <time>2022-08-14T12:44:38Z</time>
      </trkpt>
      <trkpt lat="40.8495060" lon="-8.2433540">
        <ele>925.6</ele>
        <time>2022-08-14T12:44:40Z</time>
      </trkpt>
      <trkpt lat="40.8494800" lon="-8.2433180">
        <ele>925.6</ele>
        <time>2022-08-14T12:44:41Z</time>
      </trkpt>
      <trkpt lat="40.8493710" lon="-8.2431330">
        <ele>926.8</ele>
        <time>2022-08-14T12:44:46Z</time>
      </trkpt>
      <trkpt lat="40.8493480" lon="-8.2431100">
        <ele>927.2</ele>
        <time>2022-08-14T12:44:47Z</time>
      </trkpt>
      <trkpt lat="40.8493270" lon="-8.2430890">
        <ele>928.0</ele>
        <time>2022-08-14T12:44:51Z</time>
      </trkpt>
      <trkpt lat="40.8493020" lon="-8.2430960">
        <ele>929.0</ele>
        <time>2022-08-14T12:45:17Z</time>
      </trkpt>
      <trkpt lat="40.8492400" lon="-8.2431150">
        <ele>928.6</ele>
        <time>2022-08-14T12:45:19Z</time>
      </trkpt>
      <trkpt lat="40.8489920" lon="-8.2432040">
        <ele>928.8</ele>
        <time>2022-08-14T12:45:26Z</time>
      </trkpt>
      <trkpt lat="40.8488620" lon="-8.2431720">
        <ele>929.0</ele>
        <time>2022-08-14T12:45:30Z</time>
      </trkpt>
      <trkpt lat="40.8486440" lon="-8.2430010">
        <ele>928.6</ele>
        <time>2022-08-14T12:45:35Z</time>
      </trkpt>
      <trkpt lat="40.8483290" lon="-8.2427080">
        <ele>927.8</ele>
        <time>2022-08-14T12:45:40Z</time>
      </trkpt>
      <trkpt lat="40.8481030" lon="-8.2425060">
        <ele>926.8</ele>
        <time>2022-08-14T12:45:43Z</time>
      </trkpt>
      <trkpt lat="40.8478540" lon="-8.2422870">
        <ele>925.8</ele>
        <time>2022-08-14T12:45:46Z</time>
      </trkpt>
      <trkpt lat="40.8477690" lon="-8.2422080">
        <ele>925.2</ele>
        <time>2022-08-14T12:45:47Z</time>
      </trkpt>
      <trkpt lat="40.8475290" lon="-8.2419820">
        <ele>923.8</ele>
        <time>2022-08-14T12:45:50Z</time>
      </trkpt>
      <trkpt lat="40.8473490" lon="-8.2418420">
        <ele>922.6</ele>
        <time>2022-08-14T12:45:52Z</time>
      </trkpt>
      <trkpt lat="40.8470580" lon="-8.2417170">
        <ele>921.4</ele>
        <time>2022-08-14T12:45:55Z</time>
      </trkpt>
      <trkpt lat="40.8469610" lon="-8.2416920">
        <ele>921.2</ele>
        <time>2022-08-14T12:45:56Z</time>
      </trkpt>
      <trkpt lat="40.8467530" lon="-8.2416700">
        <ele>920.4</ele>
        <time>2022-08-14T12:45:58Z</time>
      </trkpt>
      <trkpt lat="40.8465390" lon="-8.2416550">
        <ele>919.8</ele>
        <time>2022-08-14T12:46:00Z</time>
      </trkpt>
      <trkpt lat="40.8463220" lon="-8.2416370">
        <ele>919.4</ele>
        <time>2022-08-14T12:46:02Z</time>
      </trkpt>
      <trkpt lat="40.8458890" lon="-8.2415790">
        <ele>918.2</ele>
        <time>2022-08-14T12:46:06Z</time>
      </trkpt>
      <trkpt lat="40.8457940" lon="-8.2415480">
        <ele>917.8</ele>
        <time>2022-08-14T12:46:07Z</time>
      </trkpt>
      <trkpt lat="40.8457060" lon="-8.2415060">
        <ele>917.2</ele>
        <time>2022-08-14T12:46:08Z</time>
      </trkpt>
      <trkpt lat="40.8456270" lon="-8.2414590">
        <ele>916.6</ele>
        <time>2022-08-14T12:46:09Z</time>
      </trkpt>
      <trkpt lat="40.8454890" lon="-8.2413770">
        <ele>915.2</ele>
        <time>2022-08-14T12:46:11Z</time>
      </trkpt>
      <trkpt lat="40.8453800" lon="-8.2413110">
        <ele>914.0</ele>
        <time>2022-08-14T12:46:13Z</time>
      </trkpt>
      <trkpt lat="40.8453460" lon="-8.2412640">
        <ele>913.8</ele>
        <time>2022-08-14T12:46:14Z</time>
      </trkpt>
      <trkpt lat="40.8453250" lon="-8.2412090">
        <ele>913.0</ele>
        <time>2022-08-14T12:46:15Z</time>
      </trkpt>
      <trkpt lat="40.8453300" lon="-8.2410960">
        <ele>912.2</ele>
        <time>2022-08-14T12:46:17Z</time>
      </trkpt>
      <trkpt lat="40.8453380" lon="-8.2410550">
        <ele>911.6</ele>
        <time>2022-08-14T12:46:18Z</time>
      </trkpt>
      <trkpt lat="40.8453690" lon="-8.2409570">
        <ele>910.4</ele>
        <time>2022-08-14T12:46:21Z</time>
      </trkpt>
      <trkpt lat="40.8454150" lon="-8.2407700">
        <ele>909.2</ele>
        <time>2022-08-14T12:46:25Z</time>
      </trkpt>
      <trkpt lat="40.8454900" lon="-8.2405920">
        <ele>908.0</ele>
        <time>2022-08-14T12:46:29Z</time>
      </trkpt>
      <trkpt lat="40.8455180" lon="-8.2405490">
        <ele>907.2</ele>
        <time>2022-08-14T12:46:30Z</time>
      </trkpt>
      <trkpt lat="40.8455910" lon="-8.2404730">
        <ele>906.8</ele>
        <time>2022-08-14T12:46:32Z</time>
      </trkpt>
      <trkpt lat="40.8456880" lon="-8.2404310">
        <ele>905.8</ele>
        <time>2022-08-14T12:46:34Z</time>
      </trkpt>
      <trkpt lat="40.8457340" lon="-8.2404330">
        <ele>905.2</ele>
        <time>2022-08-14T12:46:35Z</time>
      </trkpt>
      <trkpt lat="40.8457810" lon="-8.2404460">
        <ele>905.0</ele>
        <time>2022-08-14T12:46:36Z</time>
      </trkpt>
      <trkpt lat="40.8458610" lon="-8.2404870">
        <ele>904.8</ele>
        <time>2022-08-14T12:46:38Z</time>
      </trkpt>
      <trkpt lat="40.8461350" lon="-8.2405750">
        <ele>904.6</ele>
        <time>2022-08-14T12:46:45Z</time>
      </trkpt>
      <trkpt lat="40.8462490" lon="-8.2405320">
        <ele>904.6</ele>
        <time>2022-08-14T12:46:49Z</time>
      </trkpt>
      <trkpt lat="40.8462900" lon="-8.2404710">
        <ele>904.2</ele>
        <time>2022-08-14T12:46:51Z</time>
      </trkpt>
      <trkpt lat="40.8463060" lon="-8.2404410">
        <ele>904.2</ele>
        <time>2022-08-14T12:46:52Z</time>
      </trkpt>
      <trkpt lat="40.8463240" lon="-8.2404020">
        <ele>904.0</ele>
        <time>2022-08-14T12:46:54Z</time>
      </trkpt>
      <trkpt lat="40.8463700" lon="-8.2402880">
        <ele>903.8</ele>
        <time>2022-08-14T12:47:00Z</time>
      </trkpt>
      <trkpt lat="40.8464040" lon="-8.2401260">
        <ele>905.0</ele>
        <time>2022-08-14T12:47:08Z</time>
      </trkpt>
      <trkpt lat="40.8464160" lon="-8.2400830">
        <ele>905.2</ele>
        <time>2022-08-14T12:47:10Z</time>
      </trkpt>
      <trkpt lat="40.8464250" lon="-8.2400600">
        <ele>905.4</ele>
        <time>2022-08-14T12:47:11Z</time>
      </trkpt>
      <trkpt lat="40.8464290" lon="-8.2400130">
        <ele>905.8</ele>
        <time>2022-08-14T12:47:13Z</time>
      </trkpt>
      <trkpt lat="40.8464420" lon="-8.2399520">
        <ele>906.4</ele>
        <time>2022-08-14T12:47:16Z</time>
      </trkpt>
      <trkpt lat="40.8464610" lon="-8.2398300">
        <ele>907.4</ele>
        <time>2022-08-14T12:47:22Z</time>
      </trkpt>
      <trkpt lat="40.8464740" lon="-8.2396720">
        <ele>908.0</ele>
        <time>2022-08-14T12:47:29Z</time>
      </trkpt>
      <trkpt lat="40.8464920" lon="-8.2394650">
        <ele>908.2</ele>
        <time>2022-08-14T12:47:35Z</time>
      </trkpt>
      <trkpt lat="40.8465560" lon="-8.2391610">
        <ele>907.6</ele>
        <time>2022-08-14T12:47:42Z</time>
      </trkpt>
      <trkpt lat="40.8466450" lon="-8.2389490">
        <ele>907.2</ele>
        <time>2022-08-14T12:47:47Z</time>
      </trkpt>
      <trkpt lat="40.8466820" lon="-8.2389240">
        <ele>907.2</ele>
        <time>2022-08-14T12:47:48Z</time>
      </trkpt>
      <trkpt lat="40.8468490" lon="-8.2388850">
        <ele>906.6</ele>
        <time>2022-08-14T12:47:52Z</time>
      </trkpt>
      <trkpt lat="40.8470470" lon="-8.2388360">
        <ele>905.8</ele>
        <time>2022-08-14T12:47:58Z</time>
      </trkpt>
      <trkpt lat="40.8470770" lon="-8.2388260">
        <ele>905.6</ele>
        <time>2022-08-14T12:47:59Z</time>
      </trkpt>
      <trkpt lat="40.8471030" lon="-8.2388120">
        <ele>905.4</ele>
        <time>2022-08-14T12:48:00Z</time>
      </trkpt>
      <trkpt lat="40.8471420" lon="-8.2387610">
        <ele>905.4</ele>
        <time>2022-08-14T12:48:02Z</time>
      </trkpt>
      <trkpt lat="40.8471790" lon="-8.2386220">
        <ele>904.0</ele>
        <time>2022-08-14T12:48:06Z</time>
      </trkpt>
      <trkpt lat="40.8471810" lon="-8.2385810">
        <ele>903.6</ele>
        <time>2022-08-14T12:48:07Z</time>
      </trkpt>
      <trkpt lat="40.8471710" lon="-8.2385000">
        <ele>902.8</ele>
        <time>2022-08-14T12:48:09Z</time>
      </trkpt>
      <trkpt lat="40.8471540" lon="-8.2384590">
        <ele>901.6</ele>
        <time>2022-08-14T12:48:11Z</time>
      </trkpt>
      <trkpt lat="40.8471470" lon="-8.2384460">
        <ele>901.2</ele>
        <time>2022-08-14T12:48:12Z</time>
      </trkpt>
      <trkpt lat="40.8471400" lon="-8.2384280">
        <ele>900.4</ele>
        <time>2022-08-14T12:48:13Z</time>
      </trkpt>
      <trkpt lat="40.8470900" lon="-8.2382890">
        <ele>899.0</ele>
        <time>2022-08-14T12:48:18Z</time>
      </trkpt>
      <trkpt lat="40.8470720" lon="-8.2381860">
        <ele>897.8</ele>
        <time>2022-08-14T12:48:22Z</time>
      </trkpt>
      <trkpt lat="40.8470610" lon="-8.2381460">
        <ele>896.8</ele>
        <time>2022-08-14T12:48:24Z</time>
      </trkpt>
      <trkpt lat="40.8470470" lon="-8.2381290">
        <ele>896.2</ele>
        <time>2022-08-14T12:48:25Z</time>
      </trkpt>
      <trkpt lat="40.8470040" lon="-8.2380490">
        <ele>895.0</ele>
        <time>2022-08-14T12:48:30Z</time>
      </trkpt>
      <trkpt lat="40.8470030" lon="-8.2380440">
        <ele>895.0</ele>
        <time>2022-08-14T12:48:31Z</time>
      </trkpt>
      <trkpt lat="40.8470030" lon="-8.2380440">
        <ele>894.6</ele>
        <time>2022-08-14T12:48:33Z</time>
      </trkpt>
      <trkpt lat="40.8469630" lon="-8.2377770">
        <ele>893.8</ele>
        <time>2022-08-14T12:49:29Z</time>
      </trkpt>
      <trkpt lat="40.8469550" lon="-8.2377580">
        <ele>893.8</ele>
        <time>2022-08-14T12:49:30Z</time>
      </trkpt>
      <trkpt lat="40.8468750" lon="-8.2376390">
        <ele>894.6</ele>
        <time>2022-08-14T12:49:36Z</time>
      </trkpt>
      <trkpt lat="40.8467760" lon="-8.2375160">
        <ele>894.8</ele>
        <time>2022-08-14T12:49:41Z</time>
      </trkpt>
      <trkpt lat="40.8467600" lon="-8.2374900">
        <ele>894.8</ele>
        <time>2022-08-14T12:49:42Z</time>
      </trkpt>
      <trkpt lat="40.8467260" lon="-8.2373720">
        <ele>895.2</ele>
        <time>2022-08-14T12:49:46Z</time>
      </trkpt>
      <trkpt lat="40.8467130" lon="-8.2372610">
        <ele>896.0</ele>
        <time>2022-08-14T12:49:50Z</time>
      </trkpt>
      <trkpt lat="40.8467150" lon="-8.2371640">
        <ele>896.4</ele>
        <time>2022-08-14T12:49:53Z</time>
      </trkpt>
      <trkpt lat="40.8467230" lon="-8.2370820">
        <ele>897.0</ele>
        <time>2022-08-14T12:49:56Z</time>
      </trkpt>
      <trkpt lat="40.8467260" lon="-8.2369780">
        <ele>898.0</ele>
        <time>2022-08-14T12:50:00Z</time>
      </trkpt>
      <trkpt lat="40.8467350" lon="-8.2368990">
        <ele>898.8</ele>
        <time>2022-08-14T12:50:03Z</time>
      </trkpt>
      <trkpt lat="40.8467360" lon="-8.2368490">
        <ele>899.2</ele>
        <time>2022-08-14T12:50:05Z</time>
      </trkpt>
      <trkpt lat="40.8467730" lon="-8.2367000">
        <ele>899.8</ele>
        <time>2022-08-14T12:50:11Z</time>
      </trkpt>
      <trkpt lat="40.8467950" lon="-8.2366530">
        <ele>900.2</ele>
        <time>2022-08-14T12:50:13Z</time>
      </trkpt>
      <trkpt lat="40.8468380" lon="-8.2365680">
        <ele>900.6</ele>
        <time>2022-08-14T12:50:17Z</time>
      </trkpt>
      <trkpt lat="40.8468880" lon="-8.2364530">
        <ele>901.2</ele>
        <time>2022-08-14T12:50:22Z</time>
      </trkpt>
      <trkpt lat="40.8469180" lon="-8.2363890">
        <ele>901.4</ele>
        <time>2022-08-14T12:50:25Z</time>
      </trkpt>
      <trkpt lat="40.8470360" lon="-8.2361700">
        <ele>902.0</ele>
        <time>2022-08-14T12:50:34Z</time>
      </trkpt>
      <trkpt lat="40.8471280" lon="-8.2359560">
        <ele>902.2</ele>
        <time>2022-08-14T12:50:39Z</time>
      </trkpt>
      <trkpt lat="40.8472400" lon="-8.2356680">
        <ele>902.2</ele>
        <time>2022-08-14T12:50:44Z</time>
      </trkpt>
      <trkpt lat="40.8472540" lon="-8.2355960">
        <ele>902.2</ele>
        <time>2022-08-14T12:50:45Z</time>
      </trkpt>
      <trkpt lat="40.8472580" lon="-8.2355140">
        <ele>902.2</ele>
        <time>2022-08-14T12:50:46Z</time>
      </trkpt>
      <trkpt lat="40.8472560" lon="-8.2351970">
        <ele>901.2</ele>
        <time>2022-08-14T12:50:50Z</time>
      </trkpt>
      <trkpt lat="40.8472570" lon="-8.2350260">
        <ele>900.0</ele>
        <time>2022-08-14T12:50:53Z</time>
      </trkpt>
      <trkpt lat="40.8472610" lon="-8.2349560">
        <ele>899.0</ele>
        <time>2022-08-14T12:50:55Z</time>
      </trkpt>
      <trkpt lat="40.8472620" lon="-8.2349300">
        <ele>898.6</ele>
        <time>2022-08-14T12:50:56Z</time>
      </trkpt>
      <trkpt lat="40.8472810" lon="-8.2348050">
        <ele>898.0</ele>
        <time>2022-08-14T12:51:01Z</time>
      </trkpt>
      <trkpt lat="40.8473390" lon="-8.2346570">
        <ele>898.2</ele>
        <time>2022-08-14T12:51:08Z</time>
      </trkpt>
      <trkpt lat="40.8474230" lon="-8.2344840">
        <ele>899.8</ele>
        <time>2022-08-14T12:51:17Z</time>
      </trkpt>
      <trkpt lat="40.8475390" lon="-8.2342700">
        <ele>900.6</ele>
        <time>2022-08-14T12:51:27Z</time>
      </trkpt>
      <trkpt lat="40.8475520" lon="-8.2342540">
        <ele>900.8</ele>
        <time>2022-08-14T12:51:28Z</time>
      </trkpt>
      <trkpt lat="40.8476990" lon="-8.2341750">
        <ele>901.6</ele>
        <time>2022-08-14T12:51:35Z</time>
      </trkpt>
      <trkpt lat="40.8477640" lon="-8.2341540">
        <ele>902.2</ele>
        <time>2022-08-14T12:51:38Z</time>
      </trkpt>
      <trkpt lat="40.8478550" lon="-8.2340710">
        <ele>902.4</ele>
        <time>2022-08-14T12:51:42Z</time>
      </trkpt>
      <trkpt lat="40.8478810" lon="-8.2339800">
        <ele>902.6</ele>
        <time>2022-08-14T12:51:45Z</time>
      </trkpt>
      <trkpt lat="40.8478700" lon="-8.2339530">
        <ele>902.4</ele>
        <time>2022-08-14T12:51:46Z</time>
      </trkpt>
      <trkpt lat="40.8477960" lon="-8.2338110">
        <ele>901.6</ele>
        <time>2022-08-14T12:51:51Z</time>
      </trkpt>
      <trkpt lat="40.8477570" lon="-8.2337200">
        <ele>901.0</ele>
        <time>2022-08-14T12:51:54Z</time>
      </trkpt>
      <trkpt lat="40.8477180" lon="-8.2336100">
        <ele>900.0</ele>
        <time>2022-08-14T12:51:57Z</time>
      </trkpt>
      <trkpt lat="40.8476970" lon="-8.2335550">
        <ele>899.2</ele>
        <time>2022-08-14T12:51:59Z</time>
      </trkpt>
      <trkpt lat="40.8476700" lon="-8.2335010">
        <ele>898.8</ele>
        <time>2022-08-14T12:52:01Z</time>
      </trkpt>
      <trkpt lat="40.8476300" lon="-8.2333700">
        <ele>897.6</ele>
        <time>2022-08-14T12:52:05Z</time>
      </trkpt>
      <trkpt lat="40.8476220" lon="-8.2333340">
        <ele>897.4</ele>
        <time>2022-08-14T12:52:06Z</time>
      </trkpt>
      <trkpt lat="40.8475660" lon="-8.2331890">
        <ele>896.6</ele>
        <time>2022-08-14T12:52:10Z</time>
      </trkpt>
      <trkpt lat="40.8475330" lon="-8.2330930">
        <ele>896.2</ele>
        <time>2022-08-14T12:52:12Z</time>
      </trkpt>
      <trkpt lat="40.8475220" lon="-8.2330360">
        <ele>895.8</ele>
        <time>2022-08-14T12:52:13Z</time>
      </trkpt>
      <trkpt lat="40.8475180" lon="-8.2329080">
        <ele>895.0</ele>
        <time>2022-08-14T12:52:15Z</time>
      </trkpt>
      <trkpt lat="40.8475190" lon="-8.2328390">
        <ele>894.8</ele>
        <time>2022-08-14T12:52:16Z</time>
      </trkpt>
      <trkpt lat="40.8475130" lon="-8.2327700">
        <ele>894.0</ele>
        <time>2022-08-14T12:52:17Z</time>
      </trkpt>
      <trkpt lat="40.8474720" lon="-8.2326500">
        <ele>893.0</ele>
        <time>2022-08-14T12:52:19Z</time>
      </trkpt>
      <trkpt lat="40.8474420" lon="-8.2325990">
        <ele>892.0</ele>
        <time>2022-08-14T12:52:20Z</time>
      </trkpt>
      <trkpt lat="40.8474110" lon="-8.2325530">
        <ele>891.6</ele>
        <time>2022-08-14T12:52:21Z</time>
      </trkpt>
      <trkpt lat="40.8473210" lon="-8.2324290">
        <ele>890.6</ele>
        <time>2022-08-14T12:52:24Z</time>
      </trkpt>
      <trkpt lat="40.8472940" lon="-8.2323840">
        <ele>890.2</ele>
        <time>2022-08-14T12:52:25Z</time>
      </trkpt>
      <trkpt lat="40.8472710" lon="-8.2323360">
        <ele>890.2</ele>
        <time>2022-08-14T12:52:26Z</time>
      </trkpt>
      <trkpt lat="40.8472120" lon="-8.2321890">
        <ele>889.4</ele>
        <time>2022-08-14T12:52:29Z</time>
      </trkpt>
      <trkpt lat="40.8471760" lon="-8.2320990">
        <ele>889.4</ele>
        <time>2022-08-14T12:52:31Z</time>
      </trkpt>
      <trkpt lat="40.8471390" lon="-8.2320130">
        <ele>889.0</ele>
        <time>2022-08-14T12:52:33Z</time>
      </trkpt>
      <trkpt lat="40.8470760" lon="-8.2319120">
        <ele>888.2</ele>
        <time>2022-08-14T12:52:36Z</time>
      </trkpt>
      <trkpt lat="40.8470520" lon="-8.2318780">
        <ele>888.2</ele>
        <time>2022-08-14T12:52:37Z</time>
      </trkpt>
      <trkpt lat="40.8470290" lon="-8.2318160">
        <ele>887.2</ele>
        <time>2022-08-14T12:52:39Z</time>
      </trkpt>
      <trkpt lat="40.8470300" lon="-8.2317860">
        <ele>886.8</ele>
        <time>2022-08-14T12:52:40Z</time>
      </trkpt>
      <trkpt lat="40.8470300" lon="-8.2317550">
        <ele>886.0</ele>
        <time>2022-08-14T12:52:41Z</time>
      </trkpt>
      <trkpt lat="40.8470070" lon="-8.2316650">
        <ele>884.8</ele>
        <time>2022-08-14T12:52:44Z</time>
      </trkpt>
      <trkpt lat="40.8469990" lon="-8.2316420">
        <ele>884.0</ele>
        <time>2022-08-14T12:52:45Z</time>
      </trkpt>
      <trkpt lat="40.8469930" lon="-8.2316190">
        <ele>883.4</ele>
        <time>2022-08-14T12:52:46Z</time>
      </trkpt>
      <trkpt lat="40.8469840" lon="-8.2316060">
        <ele>883.2</ele>
        <time>2022-08-14T12:52:47Z</time>
      </trkpt>
      <trkpt lat="40.8469600" lon="-8.2315930">
        <ele>882.4</ele>
        <time>2022-08-14T12:52:49Z</time>
      </trkpt>
      <trkpt lat="40.8469280" lon="-8.2315680">
        <ele>881.6</ele>
        <time>2022-08-14T12:52:52Z</time>
      </trkpt>
      <trkpt lat="40.8469270" lon="-8.2315540">
        <ele>881.4</ele>
        <time>2022-08-14T12:52:54Z</time>
      </trkpt>
      <trkpt lat="40.8469300" lon="-8.2315520">
        <ele>881.2</ele>
        <time>2022-08-14T12:52:55Z</time>
      </trkpt>
      <trkpt lat="40.8469300" lon="-8.2315520">
        <ele>881.2</ele>
        <time>2022-08-14T12:52:57Z</time>
      </trkpt>
      <trkpt lat="40.8469160" lon="-8.2314800">
        <ele>880.0</ele>
        <time>2022-08-14T12:53:57Z</time>
      </trkpt>
      <trkpt lat="40.8469070" lon="-8.2314230">
        <ele>879.8</ele>
        <time>2022-08-14T12:53:59Z</time>
      </trkpt>
      <trkpt lat="40.8468930" lon="-8.2312750">
        <ele>880.0</ele>
        <time>2022-08-14T12:54:04Z</time>
      </trkpt>
      <trkpt lat="40.8468270" lon="-8.2310630">
        <ele>880.0</ele>
        <time>2022-08-14T12:54:11Z</time>
      </trkpt>
      <trkpt lat="40.8468290" lon="-8.2310470">
        <ele>880.0</ele>
        <time>2022-08-14T12:54:12Z</time>
      </trkpt>
      <trkpt lat="40.8468340" lon="-8.2310320">
        <ele>880.0</ele>
        <time>2022-08-14T12:54:13Z</time>
      </trkpt>
      <trkpt lat="40.8468380" lon="-8.2309120">
        <ele>880.2</ele>
        <time>2022-08-14T12:54:17Z</time>
      </trkpt>
      <trkpt lat="40.8468230" lon="-8.2308400">
        <ele>880.8</ele>
        <time>2022-08-14T12:54:21Z</time>
      </trkpt>
      <trkpt lat="40.8468120" lon="-8.2308310">
        <ele>881.0</ele>
        <time>2022-08-14T12:54:23Z</time>
      </trkpt>
      <trkpt lat="40.8467940" lon="-8.2308270">
        <ele>881.2</ele>
        <time>2022-08-14T12:54:28Z</time>
      </trkpt>
      <trkpt lat="40.8467790" lon="-8.2308410">
        <ele>881.4</ele>
        <time>2022-08-14T12:54:33Z</time>
      </trkpt>
      <trkpt lat="40.8467720" lon="-8.2306800">
        <ele>882.0</ele>
        <time>2022-08-14T12:55:21Z</time>
      </trkpt>
      <trkpt lat="40.8466690" lon="-8.2306110">
        <ele>881.6</ele>
        <time>2022-08-14T12:55:27Z</time>
      </trkpt>
      <trkpt lat="40.8466500" lon="-8.2305970">
        <ele>881.6</ele>
        <time>2022-08-14T12:55:28Z</time>
      </trkpt>
      <trkpt lat="40.8466030" lon="-8.2305330">
        <ele>881.4</ele>
        <time>2022-08-14T12:55:32Z</time>
      </trkpt>
      <trkpt lat="40.8465780" lon="-8.2305190">
        <ele>881.4</ele>
        <time>2022-08-14T12:55:34Z</time>
      </trkpt>
      <trkpt lat="40.8465730" lon="-8.2305190">
        <ele>881.4</ele>
        <time>2022-08-14T12:55:37Z</time>
      </trkpt>
      <trkpt lat="40.8465560" lon="-8.2304630">
        <ele>881.2</ele>
        <time>2022-08-14T12:56:14Z</time>
      </trkpt>
      <trkpt lat="40.8465300" lon="-8.2304050">
        <ele>881.2</ele>
        <time>2022-08-14T12:56:16Z</time>
      </trkpt>
      <trkpt lat="40.8464610" lon="-8.2301500">
        <ele>881.2</ele>
        <time>2022-08-14T12:56:23Z</time>
      </trkpt>
      <trkpt lat="40.8464010" lon="-8.2298830">
        <ele>880.8</ele>
        <time>2022-08-14T12:56:29Z</time>
      </trkpt>
      <trkpt lat="40.8462320" lon="-8.2296500">
        <ele>880.6</ele>
        <time>2022-08-14T12:56:35Z</time>
      </trkpt>
      <trkpt lat="40.8461310" lon="-8.2295370">
        <ele>880.4</ele>
        <time>2022-08-14T12:56:38Z</time>
      </trkpt>
      <trkpt lat="40.8460750" lon="-8.2294500">
        <ele>880.4</ele>
        <time>2022-08-14T12:56:40Z</time>
      </trkpt>
      <trkpt lat="40.8460540" lon="-8.2293970">
        <ele>880.4</ele>
        <time>2022-08-14T12:56:41Z</time>
      </trkpt>
      <trkpt lat="40.8459360" lon="-8.2289950">
        <ele>880.0</ele>
        <time>2022-08-14T12:56:48Z</time>
      </trkpt>
      <trkpt lat="40.8459260" lon="-8.2289520">
        <ele>880.0</ele>
        <time>2022-08-14T12:56:49Z</time>
      </trkpt>
      <trkpt lat="40.8459270" lon="-8.2288600">
        <ele>879.0</ele>
        <time>2022-08-14T12:56:52Z</time>
      </trkpt>
      <trkpt lat="40.8459200" lon="-8.2288320">
        <ele>879.0</ele>
        <time>2022-08-14T12:56:53Z</time>
      </trkpt>
      <trkpt lat="40.8458570" lon="-8.2286920">
        <ele>878.2</ele>
        <time>2022-08-14T12:56:57Z</time>
      </trkpt>
      <trkpt lat="40.8458170" lon="-8.2286010">
        <ele>877.8</ele>
        <time>2022-08-14T12:56:59Z</time>
      </trkpt>
      <trkpt lat="40.8457880" lon="-8.2285480">
        <ele>878.0</ele>
        <time>2022-08-14T12:57:00Z</time>
      </trkpt>
      <trkpt lat="40.8457050" lon="-8.2284310">
        <ele>877.8</ele>
        <time>2022-08-14T12:57:03Z</time>
      </trkpt>
      <trkpt lat="40.8456270" lon="-8.2283390">
        <ele>877.6</ele>
        <time>2022-08-14T12:57:05Z</time>
      </trkpt>
      <trkpt lat="40.8454990" lon="-8.2282540">
        <ele>877.4</ele>
        <time>2022-08-14T12:57:08Z</time>
      </trkpt>
      <trkpt lat="40.8454460" lon="-8.2282330">
        <ele>877.4</ele>
        <time>2022-08-14T12:57:09Z</time>
      </trkpt>
      <trkpt lat="40.8452600" lon="-8.2281900">
        <ele>876.8</ele>
        <time>2022-08-14T12:57:12Z</time>
      </trkpt>
      <trkpt lat="40.8450710" lon="-8.2281460">
        <ele>875.8</ele>
        <time>2022-08-14T12:57:15Z</time>
      </trkpt>
      <trkpt lat="40.8449080" lon="-8.2281040">
        <ele>875.0</ele>
        <time>2022-08-14T12:57:18Z</time>
      </trkpt>
      <trkpt lat="40.8448760" lon="-8.2280780">
        <ele>874.8</ele>
        <time>2022-08-14T12:57:19Z</time>
      </trkpt>
      <trkpt lat="40.8448600" lon="-8.2280430">
        <ele>874.6</ele>
        <time>2022-08-14T12:57:20Z</time>
      </trkpt>
      <trkpt lat="40.8448790" lon="-8.2279570">
        <ele>874.0</ele>
        <time>2022-08-14T12:57:22Z</time>
      </trkpt>
      <trkpt lat="40.8449290" lon="-8.2278670">
        <ele>873.8</ele>
        <time>2022-08-14T12:57:24Z</time>
      </trkpt>
      <trkpt lat="40.8449860" lon="-8.2277670">
        <ele>873.4</ele>
        <time>2022-08-14T12:57:26Z</time>
      </trkpt>
      <trkpt lat="40.8450480" lon="-8.2276470">
        <ele>872.8</ele>
        <time>2022-08-14T12:57:28Z</time>
      </trkpt>
      <trkpt lat="40.8450780" lon="-8.2275860">
        <ele>872.4</ele>
        <time>2022-08-14T12:57:29Z</time>
      </trkpt>
      <trkpt lat="40.8451060" lon="-8.2275210">
        <ele>872.2</ele>
        <time>2022-08-14T12:57:30Z</time>
      </trkpt>
      <trkpt lat="40.8451540" lon="-8.2273300">
        <ele>870.6</ele>
        <time>2022-08-14T12:57:33Z</time>
      </trkpt>
      <trkpt lat="40.8451650" lon="-8.2272680">
        <ele>870.2</ele>
        <time>2022-08-14T12:57:34Z</time>
      </trkpt>
      <trkpt lat="40.8451780" lon="-8.2271390">
        <ele>869.2</ele>
        <time>2022-08-14T12:57:36Z</time>
      </trkpt>
      <trkpt lat="40.8451840" lon="-8.2270250">
        <ele>868.4</ele>
        <time>2022-08-14T12:57:38Z</time>
      </trkpt>
      <trkpt lat="40.8451910" lon="-8.2269720">
        <ele>868.2</ele>
        <time>2022-08-14T12:57:39Z</time>
      </trkpt>
      <trkpt lat="40.8452040" lon="-8.2269210">
        <ele>868.0</ele>
        <time>2022-08-14T12:57:40Z</time>
      </trkpt>
      <trkpt lat="40.8452470" lon="-8.2267820">
        <ele>867.4</ele>
        <time>2022-08-14T12:57:43Z</time>
      </trkpt>
      <trkpt lat="40.8452670" lon="-8.2267110">
        <ele>866.8</ele>
        <time>2022-08-14T12:57:45Z</time>
      </trkpt>
      <trkpt lat="40.8452820" lon="-8.2266270">
        <ele>866.4</ele>
        <time>2022-08-14T12:57:48Z</time>
      </trkpt>
      <trkpt lat="40.8452990" lon="-8.2264350">
        <ele>865.6</ele>
        <time>2022-08-14T12:57:53Z</time>
      </trkpt>
      <trkpt lat="40.8453030" lon="-8.2263920">
        <ele>864.8</ele>
        <time>2022-08-14T12:57:54Z</time>
      </trkpt>
      <trkpt lat="40.8453040" lon="-8.2263480">
        <ele>864.0</ele>
        <time>2022-08-14T12:57:55Z</time>
      </trkpt>
      <trkpt lat="40.8452960" lon="-8.2261320">
        <ele>863.0</ele>
        <time>2022-08-14T12:58:00Z</time>
      </trkpt>
      <trkpt lat="40.8452890" lon="-8.2260860">
        <ele>862.0</ele>
        <time>2022-08-14T12:58:01Z</time>
      </trkpt>
      <trkpt lat="40.8452790" lon="-8.2260330">
        <ele>861.2</ele>
        <time>2022-08-14T12:58:02Z</time>
      </trkpt>
      <trkpt lat="40.8452610" lon="-8.2259100">
        <ele>860.0</ele>
        <time>2022-08-14T12:58:04Z</time>
      </trkpt>
      <trkpt lat="40.8452400" lon="-8.2257820">
        <ele>859.0</ele>
        <time>2022-08-14T12:58:06Z</time>
      </trkpt>
      <trkpt lat="40.8451970" lon="-8.2256410">
        <ele>857.0</ele>
        <time>2022-08-14T12:58:09Z</time>
      </trkpt>
      <trkpt lat="40.8451800" lon="-8.2255470">
        <ele>854.4</ele>
        <time>2022-08-14T12:58:11Z</time>
      </trkpt>
      <trkpt lat="40.8451460" lon="-8.2254180">
        <ele>853.2</ele>
        <time>2022-08-14T12:58:14Z</time>
      </trkpt>
      <trkpt lat="40.8450880" lon="-8.2252500">
        <ele>853.0</ele>
        <time>2022-08-14T12:58:19Z</time>
      </trkpt>
      <trkpt lat="40.8450540" lon="-8.2250830">
        <ele>853.4</ele>
        <time>2022-08-14T12:58:25Z</time>
      </trkpt>
      <trkpt lat="40.8449450" lon="-8.2248670">
        <ele>852.0</ele>
        <time>2022-08-14T12:58:33Z</time>
      </trkpt>
      <trkpt lat="40.8449010" lon="-8.2248300">
        <ele>851.0</ele>
        <time>2022-08-14T12:58:36Z</time>
      </trkpt>
      <trkpt lat="40.8448810" lon="-8.2247970">
        <ele>850.0</ele>
        <time>2022-08-14T12:58:38Z</time>
      </trkpt>
      <trkpt lat="40.8448740" lon="-8.2247740">
        <ele>849.2</ele>
        <time>2022-08-14T12:58:39Z</time>
      </trkpt>
      <trkpt lat="40.8448460" lon="-8.2247250">
        <ele>847.8</ele>
        <time>2022-08-14T12:58:42Z</time>
      </trkpt>
      <trkpt lat="40.8448370" lon="-8.2247130">
        <ele>846.8</ele>
        <time>2022-08-14T12:58:44Z</time>
      </trkpt>
      <trkpt lat="40.8448370" lon="-8.2247130">
        <ele>846.2</ele>
        <time>2022-08-14T12:58:46Z</time>
      </trkpt>
      <trkpt lat="40.8448190" lon="-8.2246920">
        <ele>843.6</ele>
        <time>2022-08-14T12:58:59Z</time>
      </trkpt>
      <trkpt lat="40.8447990" lon="-8.2246650">
        <ele>843.6</ele>
        <time>2022-08-14T12:59:00Z</time>
      </trkpt>
      <trkpt lat="40.8447260" lon="-8.2244480">
        <ele>842.8</ele>
        <time>2022-08-14T12:59:06Z</time>
      </trkpt>
      <trkpt lat="40.8447110" lon="-8.2244170">
        <ele>842.6</ele>
        <time>2022-08-14T12:59:07Z</time>
      </trkpt>
      <trkpt lat="40.8446770" lon="-8.2243180">
        <ele>840.8</ele>
        <time>2022-08-14T12:59:10Z</time>
      </trkpt>
      <trkpt lat="40.8446460" lon="-8.2242620">
        <ele>839.4</ele>
        <time>2022-08-14T12:59:12Z</time>
      </trkpt>
      <trkpt lat="40.8446060" lon="-8.2242030">
        <ele>838.4</ele>
        <time>2022-08-14T12:59:14Z</time>
      </trkpt>
      <trkpt lat="40.8445540" lon="-8.2241200">
        <ele>836.8</ele>
        <time>2022-08-14T12:59:17Z</time>
      </trkpt>
      <trkpt lat="40.8445370" lon="-8.2240730">
        <ele>836.2</ele>
        <time>2022-08-14T12:59:19Z</time>
      </trkpt>
      <trkpt lat="40.8445280" lon="-8.2240170">
        <ele>835.0</ele>
        <time>2022-08-14T12:59:21Z</time>
      </trkpt>
      <trkpt lat="40.8444970" lon="-8.2239170">
        <ele>834.0</ele>
        <time>2022-08-14T12:59:24Z</time>
      </trkpt>
      <trkpt lat="40.8444870" lon="-8.2238810">
        <ele>833.8</ele>
        <time>2022-08-14T12:59:25Z</time>
      </trkpt>
      <trkpt lat="40.8444370" lon="-8.2237590">
        <ele>832.6</ele>
        <time>2022-08-14T12:59:28Z</time>
      </trkpt>
      <trkpt lat="40.8443980" lon="-8.2236870">
        <ele>831.6</ele>
        <time>2022-08-14T12:59:30Z</time>
      </trkpt>
      <trkpt lat="40.8443530" lon="-8.2235900">
        <ele>830.4</ele>
        <time>2022-08-14T12:59:33Z</time>
      </trkpt>
      <trkpt lat="40.8443220" lon="-8.2235280">
        <ele>829.2</ele>
        <time>2022-08-14T12:59:35Z</time>
      </trkpt>
      <trkpt lat="40.8442920" lon="-8.2234510">
        <ele>827.8</ele>
        <time>2022-08-14T12:59:37Z</time>
      </trkpt>
      <trkpt lat="40.8442530" lon="-8.2233270">
        <ele>826.6</ele>
        <time>2022-08-14T12:59:41Z</time>
      </trkpt>
      <trkpt lat="40.8442270" lon="-8.2232760">
        <ele>825.6</ele>
        <time>2022-08-14T12:59:43Z</time>
      </trkpt>
      <trkpt lat="40.8442180" lon="-8.2232490">
        <ele>824.4</ele>
        <time>2022-08-14T12:59:44Z</time>
      </trkpt>
      <trkpt lat="40.8442130" lon="-8.2231970">
        <ele>823.2</ele>
        <time>2022-08-14T12:59:46Z</time>
      </trkpt>
      <trkpt lat="40.8442170" lon="-8.2231710">
        <ele>822.6</ele>
        <time>2022-08-14T12:59:47Z</time>
      </trkpt>
      <trkpt lat="40.8442240" lon="-8.2231390">
        <ele>822.2</ele>
        <time>2022-08-14T12:59:48Z</time>
      </trkpt>
      <trkpt lat="40.8442350" lon="-8.2231080">
        <ele>821.6</ele>
        <time>2022-08-14T12:59:49Z</time>
      </trkpt>
      <trkpt lat="40.8442660" lon="-8.2230650">
        <ele>820.4</ele>
        <time>2022-08-14T12:59:51Z</time>
      </trkpt>
      <trkpt lat="40.8443090" lon="-8.2230250">
        <ele>819.6</ele>
        <time>2022-08-14T12:59:53Z</time>
      </trkpt>
      <trkpt lat="40.8443310" lon="-8.2230020">
        <ele>819.2</ele>
        <time>2022-08-14T12:59:54Z</time>
      </trkpt>
      <trkpt lat="40.8443980" lon="-8.2229340">
        <ele>818.0</ele>
        <time>2022-08-14T12:59:57Z</time>
      </trkpt>
      <trkpt lat="40.8444480" lon="-8.2228530">
        <ele>817.4</ele>
        <time>2022-08-14T13:00:00Z</time>
      </trkpt>
      <trkpt lat="40.8444720" lon="-8.2227940">
        <ele>817.0</ele>
        <time>2022-08-14T13:00:02Z</time>
      </trkpt>
      <trkpt lat="40.8444970" lon="-8.2227380">
        <ele>815.2</ele>
        <time>2022-08-14T13:00:04Z</time>
      </trkpt>
      <trkpt lat="40.8445240" lon="-8.2226900">
        <ele>814.0</ele>
        <time>2022-08-14T13:00:06Z</time>
      </trkpt>
      <trkpt lat="40.8445350" lon="-8.2226650">
        <ele>813.6</ele>
        <time>2022-08-14T13:00:07Z</time>
      </trkpt>
      <trkpt lat="40.8445450" lon="-8.2226460">
        <ele>813.0</ele>
        <time>2022-08-14T13:00:08Z</time>
      </trkpt>
      <trkpt lat="40.8446020" lon="-8.2225700">
        <ele>811.8</ele>
        <time>2022-08-14T13:00:13Z</time>
      </trkpt>
      <trkpt lat="40.8447180" lon="-8.2224380">
        <ele>810.8</ele>
        <time>2022-08-14T13:00:19Z</time>
      </trkpt>
      <trkpt lat="40.8447360" lon="-8.2224120">
        <ele>810.6</ele>
        <time>2022-08-14T13:00:20Z</time>
      </trkpt>
      <trkpt lat="40.8448050" lon="-8.2223140">
        <ele>809.2</ele>
        <time>2022-08-14T13:00:24Z</time>
      </trkpt>
      <trkpt lat="40.8448120" lon="-8.2223040">
        <ele>808.2</ele>
        <time>2022-08-14T13:00:25Z</time>
      </trkpt>
      <trkpt lat="40.8448150" lon="-8.2223020">
        <ele>808.0</ele>
        <time>2022-08-14T13:00:26Z</time>
      </trkpt>
      <trkpt lat="40.8448150" lon="-8.2223020">
        <ele>807.2</ele>
        <time>2022-08-14T13:00:27Z</time>
      </trkpt>
      <trkpt lat="40.8448290" lon="-8.2222770">
        <ele>804.6</ele>
        <time>2022-08-14T13:00:52Z</time>
      </trkpt>
      <trkpt lat="40.8448580" lon="-8.2222060">
        <ele>804.6</ele>
        <time>2022-08-14T13:00:54Z</time>
      </trkpt>
      <trkpt lat="40.8449310" lon="-8.2220020">
        <ele>803.4</ele>
        <time>2022-08-14T13:00:59Z</time>
      </trkpt>
      <trkpt lat="40.8449510" lon="-8.2219630">
        <ele>803.2</ele>
        <time>2022-08-14T13:01:00Z</time>
      </trkpt>
      <trkpt lat="40.8449840" lon="-8.2218920">
        <ele>801.8</ele>
        <time>2022-08-14T13:01:02Z</time>
      </trkpt>
      <trkpt lat="40.8450100" lon="-8.2218290">
        <ele>800.4</ele>
        <time>2022-08-14T13:01:04Z</time>
      </trkpt>
      <trkpt lat="40.8450490" lon="-8.2217740">
        <ele>799.2</ele>
        <time>2022-08-14T13:01:06Z</time>
      </trkpt>
      <trkpt lat="40.8450840" lon="-8.2217370">
        <ele>798.0</ele>
        <time>2022-08-14T13:01:08Z</time>
      </trkpt>
      <trkpt lat="40.8450970" lon="-8.2217190">
        <ele>797.6</ele>
        <time>2022-08-14T13:01:09Z</time>
      </trkpt>
      <trkpt lat="40.8450990" lon="-8.2217110">
        <ele>797.0</ele>
        <time>2022-08-14T13:01:10Z</time>
      </trkpt>
      <trkpt lat="40.8451010" lon="-8.2217080">
        <ele>796.0</ele>
        <time>2022-08-14T13:01:11Z</time>
      </trkpt>
      <trkpt lat="40.8451210" lon="-8.2217130">
        <ele>795.4</ele>
        <time>2022-08-14T13:01:13Z</time>
      </trkpt>
      <trkpt lat="40.8451380" lon="-8.2217170">
        <ele>795.0</ele>
        <time>2022-08-14T13:01:14Z</time>
      </trkpt>
      <trkpt lat="40.8452390" lon="-8.2217350">
        <ele>794.0</ele>
        <time>2022-08-14T13:01:20Z</time>
      </trkpt>
      <trkpt lat="40.8452650" lon="-8.2217500">
        <ele>793.8</ele>
        <time>2022-08-14T13:01:21Z</time>
      </trkpt>
      <trkpt lat="40.8453810" lon="-8.2218600">
        <ele>793.0</ele>
        <time>2022-08-14T13:01:25Z</time>
      </trkpt>
      <trkpt lat="40.8454080" lon="-8.2219020">
        <ele>792.8</ele>
        <time>2022-08-14T13:01:26Z</time>
      </trkpt>
      <trkpt lat="40.8454600" lon="-8.2219980">
        <ele>791.8</ele>
        <time>2022-08-14T13:01:28Z</time>
      </trkpt>
      <trkpt lat="40.8454870" lon="-8.2220520">
        <ele>791.6</ele>
        <time>2022-08-14T13:01:29Z</time>
      </trkpt>
      <trkpt lat="40.8455160" lon="-8.2221110">
        <ele>791.4</ele>
        <time>2022-08-14T13:01:30Z</time>
      </trkpt>
      <trkpt lat="40.8455960" lon="-8.2222170">
        <ele>790.4</ele>
        <time>2022-08-14T13:01:32Z</time>
      </trkpt>
      <trkpt lat="40.8456660" lon="-8.2222630">
        <ele>788.8</ele>
        <time>2022-08-14T13:01:34Z</time>
      </trkpt>
      <trkpt lat="40.8457280" lon="-8.2222750">
        <ele>787.4</ele>
        <time>2022-08-14T13:01:36Z</time>
      </trkpt>
      <trkpt lat="40.8457460" lon="-8.2222670">
        <ele>787.0</ele>
        <time>2022-08-14T13:01:37Z</time>
      </trkpt>
      <trkpt lat="40.8457630" lon="-8.2222530">
        <ele>786.6</ele>
        <time>2022-08-14T13:01:38Z</time>
      </trkpt>
      <trkpt lat="40.8457750" lon="-8.2222370">
        <ele>786.0</ele>
        <time>2022-08-14T13:01:39Z</time>
      </trkpt>
      <trkpt lat="40.8458020" lon="-8.2221810">
        <ele>785.4</ele>
        <time>2022-08-14T13:01:41Z</time>
      </trkpt>
      <trkpt lat="40.8458190" lon="-8.2221560">
        <ele>785.0</ele>
        <time>2022-08-14T13:01:42Z</time>
      </trkpt>
      <trkpt lat="40.8458620" lon="-8.2220910">
        <ele>784.0</ele>
        <time>2022-08-14T13:01:45Z</time>
      </trkpt>
      <trkpt lat="40.8459150" lon="-8.2219720">
        <ele>783.0</ele>
        <time>2022-08-14T13:01:49Z</time>
      </trkpt>
      <trkpt lat="40.8460550" lon="-8.2217850">
        <ele>782.2</ele>
        <time>2022-08-14T13:01:56Z</time>
      </trkpt>
      <trkpt lat="40.8462420" lon="-8.2216550">
        <ele>782.8</ele>
        <time>2022-08-14T13:02:04Z</time>
      </trkpt>
      <trkpt lat="40.8464440" lon="-8.2215940">
        <ele>783.2</ele>
        <time>2022-08-14T13:02:12Z</time>
      </trkpt>
      <trkpt lat="40.8464880" lon="-8.2215200">
        <ele>783.4</ele>
        <time>2022-08-14T13:02:15Z</time>
      </trkpt>
      <trkpt lat="40.8464930" lon="-8.2214910">
        <ele>783.4</ele>
        <time>2022-08-14T13:02:16Z</time>
      </trkpt>
      <trkpt lat="40.8464760" lon="-8.2212580">
        <ele>784.0</ele>
        <time>2022-08-14T13:02:23Z</time>
      </trkpt>
      <trkpt lat="40.8464680" lon="-8.2212240">
        <ele>784.0</ele>
        <time>2022-08-14T13:02:24Z</time>
      </trkpt>
      <trkpt lat="40.8464280" lon="-8.2210440">
        <ele>784.2</ele>
        <time>2022-08-14T13:02:29Z</time>
      </trkpt>
      <trkpt lat="40.8464800" lon="-8.2208860">
        <ele>783.6</ele>
        <time>2022-08-14T13:02:33Z</time>
      </trkpt>
      <trkpt lat="40.8466370" lon="-8.2207330">
        <ele>783.0</ele>
        <time>2022-08-14T13:02:38Z</time>
      </trkpt>
      <trkpt lat="40.8466560" lon="-8.2207090">
        <ele>783.0</ele>
        <time>2022-08-14T13:02:39Z</time>
      </trkpt>
      <trkpt lat="40.8467360" lon="-8.2206210">
        <ele>782.6</ele>
        <time>2022-08-14T13:02:43Z</time>
      </trkpt>
      <trkpt lat="40.8467840" lon="-8.2205500">
        <ele>781.8</ele>
        <time>2022-08-14T13:02:45Z</time>
      </trkpt>
      <trkpt lat="40.8468720" lon="-8.2204090">
        <ele>780.0</ele>
        <time>2022-08-14T13:02:49Z</time>
      </trkpt>
      <trkpt lat="40.8469300" lon="-8.2203060">
        <ele>779.0</ele>
        <time>2022-08-14T13:02:52Z</time>
      </trkpt>
      <trkpt lat="40.8469600" lon="-8.2202200">
        <ele>777.8</ele>
        <time>2022-08-14T13:02:55Z</time>
      </trkpt>
      <trkpt lat="40.8469800" lon="-8.2201320">
        <ele>776.8</ele>
        <time>2022-08-14T13:02:58Z</time>
      </trkpt>
      <trkpt lat="40.8469990" lon="-8.2200960">
        <ele>776.2</ele>
        <time>2022-08-14T13:03:00Z</time>
      </trkpt>
      <trkpt lat="40.8470120" lon="-8.2200670">
        <ele>776.0</ele>
        <time>2022-08-14T13:03:03Z</time>
      </trkpt>
      <trkpt lat="40.8470210" lon="-8.2200560">
        <ele>775.6</ele>
        <time>2022-08-14T13:03:04Z</time>
      </trkpt>
      <trkpt lat="40.8470320" lon="-8.2200450">
        <ele>775.2</ele>
        <time>2022-08-14T13:03:05Z</time>
      </trkpt>
      <trkpt lat="40.8470460" lon="-8.2200270">
        <ele>774.6</ele>
        <time>2022-08-14T13:03:06Z</time>
      </trkpt>
      <trkpt lat="40.8470620" lon="-8.2199960">
        <ele>774.4</ele>
        <time>2022-08-14T13:03:07Z</time>
      </trkpt>
      <trkpt lat="40.8471130" lon="-8.2198780">
        <ele>773.4</ele>
        <time>2022-08-14T13:03:10Z</time>
      </trkpt>
      <trkpt lat="40.8471290" lon="-8.2198420">
        <ele>773.2</ele>
        <time>2022-08-14T13:03:11Z</time>
      </trkpt>
      <trkpt lat="40.8471690" lon="-8.2197610">
        <ele>772.2</ele>
        <time>2022-08-14T13:03:14Z</time>
      </trkpt>
      <trkpt lat="40.8471900" lon="-8.2197420">
        <ele>772.0</ele>
        <time>2022-08-14T13:03:15Z</time>
      </trkpt>
      <trkpt lat="40.8472840" lon="-8.2196340">
        <ele>771.2</ele>
        <time>2022-08-14T13:03:20Z</time>
      </trkpt>
      <trkpt lat="40.8472890" lon="-8.2196000">
        <ele>770.8</ele>
        <time>2022-08-14T13:03:21Z</time>
      </trkpt>
      <trkpt lat="40.8472890" lon="-8.2194820">
        <ele>769.6</ele>
        <time>2022-08-14T13:03:25Z</time>
      </trkpt>
      <trkpt lat="40.8472940" lon="-8.2193730">
        <ele>768.6</ele>
        <time>2022-08-14T13:03:28Z</time>
      </trkpt>
      <trkpt lat="40.8473160" lon="-8.2192380">
        <ele>767.8</ele>
        <time>2022-08-14T13:03:32Z</time>
      </trkpt>
      <trkpt lat="40.8473200" lon="-8.2191690">
        <ele>767.4</ele>
        <time>2022-08-14T13:03:34Z</time>
      </trkpt>
      <trkpt lat="40.8473050" lon="-8.2189930">
        <ele>766.8</ele>
        <time>2022-08-14T13:03:39Z</time>
      </trkpt>
      <trkpt lat="40.8472070" lon="-8.2187690">
        <ele>766.8</ele>
        <time>2022-08-14T13:03:46Z</time>
      </trkpt>
      <trkpt lat="40.8471640" lon="-8.2187430">
        <ele>766.8</ele>
        <time>2022-08-14T13:03:48Z</time>
      </trkpt>
      <trkpt lat="40.8471160" lon="-8.2187460">
        <ele>766.4</ele>
        <time>2022-08-14T13:03:50Z</time>
      </trkpt>
      <trkpt lat="40.8470940" lon="-8.2187450">
        <ele>766.0</ele>
        <time>2022-08-14T13:03:51Z</time>
      </trkpt>
      <trkpt lat="40.8470100" lon="-8.2187690">
        <ele>765.6</ele>
        <time>2022-08-14T13:03:55Z</time>
      </trkpt>
      <trkpt lat="40.8469270" lon="-8.2187860">
        <ele>764.8</ele>
        <time>2022-08-14T13:03:58Z</time>
      </trkpt>
      <trkpt lat="40.8467970" lon="-8.2187870">
        <ele>764.0</ele>
        <time>2022-08-14T13:04:04Z</time>
      </trkpt>
      <trkpt lat="40.8467700" lon="-8.2187820">
        <ele>763.8</ele>
        <time>2022-08-14T13:04:05Z</time>
      </trkpt>
      <trkpt lat="40.8466560" lon="-8.2187430">
        <ele>763.2</ele>
        <time>2022-08-14T13:04:10Z</time>
      </trkpt>
      <trkpt lat="40.8466180" lon="-8.2187350">
        <ele>762.6</ele>
        <time>2022-08-14T13:04:12Z</time>
      </trkpt>
      <trkpt lat="40.8465610" lon="-8.2187190">
        <ele>762.2</ele>
        <time>2022-08-14T13:04:16Z</time>
      </trkpt>
      <trkpt lat="40.8465360" lon="-8.2187160">
        <ele>761.8</ele>
        <time>2022-08-14T13:04:18Z</time>
      </trkpt>
      <trkpt lat="40.8464990" lon="-8.2187240">
        <ele>761.6</ele>
        <time>2022-08-14T13:04:21Z</time>
      </trkpt>
      <trkpt lat="40.8463800" lon="-8.2187110">
        <ele>761.0</ele>
        <time>2022-08-14T13:04:28Z</time>
      </trkpt>
      <trkpt lat="40.8462580" lon="-8.2187140">
        <ele>760.4</ele>
        <time>2022-08-14T13:04:35Z</time>
      </trkpt>
      <trkpt lat="40.8462420" lon="-8.2187130">
        <ele>760.2</ele>
        <time>2022-08-14T13:04:36Z</time>
      </trkpt>
      <trkpt lat="40.8461390" lon="-8.2187160">
        <ele>759.2</ele>
        <time>2022-08-14T13:04:41Z</time>
      </trkpt>
      <trkpt lat="40.8461150" lon="-8.2187150">
        <ele>759.0</ele>
        <time>2022-08-14T13:04:42Z</time>
      </trkpt>
      <trkpt lat="40.8460200" lon="-8.2186970">
        <ele>758.2</ele>
        <time>2022-08-14T13:04:46Z</time>
      </trkpt>
      <trkpt lat="40.8459220" lon="-8.2186610">
        <ele>758.0</ele>
        <time>2022-08-14T13:04:50Z</time>
      </trkpt>
      <trkpt lat="40.8458190" lon="-8.2186680">
        <ele>757.6</ele>
        <time>2022-08-14T13:04:55Z</time>
      </trkpt>
      <trkpt lat="40.8456230" lon="-8.2188050">
        <ele>757.0</ele>
        <time>2022-08-14T13:05:05Z</time>
      </trkpt>
      <trkpt lat="40.8455230" lon="-8.2188620">
        <ele>756.2</ele>
        <time>2022-08-14T13:05:10Z</time>
      </trkpt>
      <trkpt lat="40.8454840" lon="-8.2188960">
        <ele>755.8</ele>
        <time>2022-08-14T13:05:12Z</time>
      </trkpt>
      <trkpt lat="40.8454420" lon="-8.2189250">
        <ele>755.4</ele>
        <time>2022-08-14T13:05:15Z</time>
      </trkpt>
      <trkpt lat="40.8454310" lon="-8.2189240">
        <ele>755.2</ele>
        <time>2022-08-14T13:05:16Z</time>
      </trkpt>
      <trkpt lat="40.8453720" lon="-8.2189250">
        <ele>754.6</ele>
        <time>2022-08-14T13:05:19Z</time>
      </trkpt>
      <trkpt lat="40.8453070" lon="-8.2189240">
        <ele>754.4</ele>
        <time>2022-08-14T13:05:21Z</time>
      </trkpt>
      <trkpt lat="40.8451460" lon="-8.2188730">
        <ele>753.8</ele>
        <time>2022-08-14T13:05:24Z</time>
      </trkpt>
      <trkpt lat="40.8450900" lon="-8.2188410">
        <ele>753.6</ele>
        <time>2022-08-14T13:05:25Z</time>
      </trkpt>
      <trkpt lat="40.8450480" lon="-8.2188220">
        <ele>753.2</ele>
        <time>2022-08-14T13:05:26Z</time>
      </trkpt>
      <trkpt lat="40.8450050" lon="-8.2188010">
        <ele>752.4</ele>
        <time>2022-08-14T13:05:27Z</time>
      </trkpt>
      <trkpt lat="40.8449390" lon="-8.2187870">
        <ele>751.0</ele>
        <time>2022-08-14T13:05:29Z</time>
      </trkpt>
      <trkpt lat="40.8448540" lon="-8.2187850">
        <ele>750.2</ele>
        <time>2022-08-14T13:05:32Z</time>
      </trkpt>
      <trkpt lat="40.8447660" lon="-8.2187650">
        <ele>749.0</ele>
        <time>2022-08-14T13:05:35Z</time>
      </trkpt>
      <trkpt lat="40.8447390" lon="-8.2187560">
        <ele>748.2</ele>
        <time>2022-08-14T13:05:36Z</time>
      </trkpt>
      <trkpt lat="40.8447080" lon="-8.2187480">
        <ele>747.6</ele>
        <time>2022-08-14T13:05:37Z</time>
      </trkpt>
      <trkpt lat="40.8446370" lon="-8.2187230">
        <ele>746.4</ele>
        <time>2022-08-14T13:05:39Z</time>
      </trkpt>
      <trkpt lat="40.8445760" lon="-8.2186940">
        <ele>745.4</ele>
        <time>2022-08-14T13:05:41Z</time>
      </trkpt>
      <trkpt lat="40.8445110" lon="-8.2186680">
        <ele>744.2</ele>
        <time>2022-08-14T13:05:43Z</time>
      </trkpt>
      <trkpt lat="40.8444880" lon="-8.2186510">
        <ele>744.0</ele>
        <time>2022-08-14T13:05:44Z</time>
      </trkpt>
      <trkpt lat="40.8444550" lon="-8.2186150">
        <ele>742.2</ele>
        <time>2022-08-14T13:05:46Z</time>
      </trkpt>
      <trkpt lat="40.8444320" lon="-8.2186060">
        <ele>741.6</ele>
        <time>2022-08-14T13:05:47Z</time>
      </trkpt>
      <trkpt lat="40.8444070" lon="-8.2186030">
        <ele>741.0</ele>
        <time>2022-08-14T13:05:48Z</time>
      </trkpt>
      <trkpt lat="40.8443140" lon="-8.2185930">
        <ele>740.0</ele>
        <time>2022-08-14T13:05:50Z</time>
      </trkpt>
      <trkpt lat="40.8442610" lon="-8.2185790">
        <ele>739.8</ele>
        <time>2022-08-14T13:05:51Z</time>
      </trkpt>
      <trkpt lat="40.8442120" lon="-8.2185570">
        <ele>739.0</ele>
        <time>2022-08-14T13:05:52Z</time>
      </trkpt>
      <trkpt lat="40.8441800" lon="-8.2185360">
        <ele>737.6</ele>
        <time>2022-08-14T13:05:53Z</time>
      </trkpt>
      <trkpt lat="40.8441180" lon="-8.2185010">
        <ele>736.4</ele>
        <time>2022-08-14T13:05:55Z</time>
      </trkpt>
      <trkpt lat="40.8440630" lon="-8.2184700">
        <ele>735.8</ele>
        <time>2022-08-14T13:05:57Z</time>
      </trkpt>
      <trkpt lat="40.8440340" lon="-8.2184530">
        <ele>735.6</ele>
        <time>2022-08-14T13:05:58Z</time>
      </trkpt>
      <trkpt lat="40.8440120" lon="-8.2184390">
        <ele>735.4</ele>
        <time>2022-08-14T13:05:59Z</time>
      </trkpt>
      <trkpt lat="40.8439910" lon="-8.2184330">
        <ele>735.2</ele>
        <time>2022-08-14T13:06:00Z</time>
      </trkpt>
      <trkpt lat="40.8439870" lon="-8.2184320">
        <ele>735.2</ele>
        <time>2022-08-14T13:06:01Z</time>
      </trkpt>
      <trkpt lat="40.8439440" lon="-8.2184030">
        <ele>734.4</ele>
        <time>2022-08-14T13:06:06Z</time>
      </trkpt>
      <trkpt lat="40.8439230" lon="-8.2184080">
        <ele>734.2</ele>
        <time>2022-08-14T13:06:07Z</time>
      </trkpt>
      <trkpt lat="40.8438990" lon="-8.2184170">
        <ele>734.2</ele>
        <time>2022-08-14T13:06:08Z</time>
      </trkpt>
      <trkpt lat="40.8438020" lon="-8.2184900">
        <ele>734.0</ele>
        <time>2022-08-14T13:06:11Z</time>
      </trkpt>
      <trkpt lat="40.8436320" lon="-8.2184530">
        <ele>733.0</ele>
        <time>2022-08-14T13:06:16Z</time>
      </trkpt>
      <trkpt lat="40.8435640" lon="-8.2182990">
        <ele>732.4</ele>
        <time>2022-08-14T13:06:20Z</time>
      </trkpt>
      <trkpt lat="40.8435560" lon="-8.2182240">
        <ele>731.8</ele>
        <time>2022-08-14T13:06:22Z</time>
      </trkpt>
      <trkpt lat="40.8435530" lon="-8.2181650">
        <ele>731.2</ele>
        <time>2022-08-14T13:06:25Z</time>
      </trkpt>
      <trkpt lat="40.8435570" lon="-8.2181460">
        <ele>731.2</ele>
        <time>2022-08-14T13:06:26Z</time>
      </trkpt>
      <trkpt lat="40.8435780" lon="-8.2181170">
        <ele>731.2</ele>
        <time>2022-08-14T13:06:28Z</time>
      </trkpt>
      <trkpt lat="40.8436020" lon="-8.2181060">
        <ele>731.2</ele>
        <time>2022-08-14T13:06:30Z</time>
      </trkpt>
      <trkpt lat="40.8436270" lon="-8.2180960">
        <ele>731.6</ele>
        <time>2022-08-14T13:06:33Z</time>
      </trkpt>
      <trkpt lat="40.8436450" lon="-8.2180670">
        <ele>732.0</ele>
        <time>2022-08-14T13:06:35Z</time>
      </trkpt>
      <trkpt lat="40.8436510" lon="-8.2180380">
        <ele>732.4</ele>
        <time>2022-08-14T13:06:37Z</time>
      </trkpt>
      <trkpt lat="40.8436490" lon="-8.2179970">
        <ele>733.2</ele>
        <time>2022-08-14T13:06:40Z</time>
      </trkpt>
      <trkpt lat="40.8436520" lon="-8.2179650">
        <ele>733.6</ele>
        <time>2022-08-14T13:06:42Z</time>
      </trkpt>
      <trkpt lat="40.8436620" lon="-8.2179260">
        <ele>734.2</ele>
        <time>2022-08-14T13:06:45Z</time>
      </trkpt>
      <trkpt lat="40.8436720" lon="-8.2178670">
        <ele>735.2</ele>
        <time>2022-08-14T13:06:49Z</time>
      </trkpt>
      <trkpt lat="40.8436760" lon="-8.2178530">
        <ele>735.6</ele>
        <time>2022-08-14T13:06:50Z</time>
      </trkpt>
      <trkpt lat="40.8436690" lon="-8.2178030">
        <ele>736.6</ele>
        <time>2022-08-14T13:06:53Z</time>
      </trkpt>
      <trkpt lat="40.8436630" lon="-8.2177870">
        <ele>736.6</ele>
        <time>2022-08-14T13:06:54Z</time>
      </trkpt>
      <trkpt lat="40.8436570" lon="-8.2177770">
        <ele>736.6</ele>
        <time>2022-08-14T13:06:55Z</time>
      </trkpt>
      <trkpt lat="40.8436510" lon="-8.2177730">
        <ele>736.8</ele>
        <time>2022-08-14T13:06:56Z</time>
      </trkpt>
      <trkpt lat="40.8436510" lon="-8.2177730">
        <ele>737.4</ele>
        <time>2022-08-14T13:06:59Z</time>
      </trkpt>
      <trkpt lat="40.8436510" lon="-8.2177730">
        <ele>737.6</ele>
        <time>2022-08-14T13:07:00Z</time>
      </trkpt>
      <trkpt lat="40.8435990" lon="-8.2177910">
        <ele>739.0</ele>
        <time>2022-08-14T13:08:01Z</time>
      </trkpt>
      <trkpt lat="40.8435490" lon="-8.2177780">
        <ele>739.0</ele>
        <time>2022-08-14T13:08:04Z</time>
      </trkpt>
      <trkpt lat="40.8435130" lon="-8.2177770">
        <ele>739.2</ele>
        <time>2022-08-14T13:08:06Z</time>
      </trkpt>
      <trkpt lat="40.8434830" lon="-8.2177670">
        <ele>739.4</ele>
        <time>2022-08-14T13:08:08Z</time>
      </trkpt>
      <trkpt lat="40.8434370" lon="-8.2177450">
        <ele>740.2</ele>
        <time>2022-08-14T13:08:11Z</time>
      </trkpt>
      <trkpt lat="40.8433570" lon="-8.2177320">
        <ele>741.2</ele>
        <time>2022-08-14T13:08:16Z</time>
      </trkpt>
      <trkpt lat="40.8432960" lon="-8.2177160">
        <ele>742.4</ele>
        <time>2022-08-14T13:08:20Z</time>
      </trkpt>
      <trkpt lat="40.8432370" lon="-8.2176920">
        <ele>743.2</ele>
        <time>2022-08-14T13:08:24Z</time>
      </trkpt>
      <trkpt lat="40.8432210" lon="-8.2176860">
        <ele>743.6</ele>
        <time>2022-08-14T13:08:25Z</time>
      </trkpt>
      <trkpt lat="40.8431420" lon="-8.2176610">
        <ele>744.8</ele>
        <time>2022-08-14T13:08:30Z</time>
      </trkpt>
      <trkpt lat="40.8430840" lon="-8.2176410">
        <ele>745.6</ele>
        <time>2022-08-14T13:08:33Z</time>
      </trkpt>
      <trkpt lat="40.8430400" lon="-8.2176320">
        <ele>745.8</ele>
        <time>2022-08-14T13:08:35Z</time>
      </trkpt>
      <trkpt lat="40.8429380" lon="-8.2175940">
        <ele>745.8</ele>
        <time>2022-08-14T13:08:38Z</time>
      </trkpt>
      <trkpt lat="40.8428560" lon="-8.2175420">
        <ele>745.8</ele>
        <time>2022-08-14T13:08:40Z</time>
      </trkpt>
      <trkpt lat="40.8428260" lon="-8.2175030">
        <ele>745.8</ele>
        <time>2022-08-14T13:08:41Z</time>
      </trkpt>
      <trkpt lat="40.8427360" lon="-8.2173710">
        <ele>745.8</ele>
        <time>2022-08-14T13:08:43Z</time>
      </trkpt>
      <trkpt lat="40.8426350" lon="-8.2172400">
        <ele>745.6</ele>
        <time>2022-08-14T13:08:45Z</time>
      </trkpt>
      <trkpt lat="40.8424660" lon="-8.2170970">
        <ele>744.6</ele>
        <time>2022-08-14T13:08:48Z</time>
      </trkpt>
      <trkpt lat="40.8424070" lon="-8.2170830">
        <ele>744.4</ele>
        <time>2022-08-14T13:08:49Z</time>
      </trkpt>
      <trkpt lat="40.8423500" lon="-8.2170860">
        <ele>744.0</ele>
        <time>2022-08-14T13:08:50Z</time>
      </trkpt>
      <trkpt lat="40.8422960" lon="-8.2171020">
        <ele>743.6</ele>
        <time>2022-08-14T13:08:51Z</time>
      </trkpt>
      <trkpt lat="40.8422480" lon="-8.2171270">
        <ele>743.2</ele>
        <time>2022-08-14T13:08:52Z</time>
      </trkpt>
      <trkpt lat="40.8421550" lon="-8.2171850">
        <ele>742.6</ele>
        <time>2022-08-14T13:08:54Z</time>
      </trkpt>
      <trkpt lat="40.8420030" lon="-8.2172520">
        <ele>741.4</ele>
        <time>2022-08-14T13:08:57Z</time>
      </trkpt>
      <trkpt lat="40.8419400" lon="-8.2172700">
        <ele>741.2</ele>
        <time>2022-08-14T13:08:58Z</time>
      </trkpt>
      <trkpt lat="40.8418880" lon="-8.2172810">
        <ele>741.0</ele>
        <time>2022-08-14T13:08:59Z</time>
      </trkpt>
      <trkpt lat="40.8418350" lon="-8.2172800">
        <ele>740.2</ele>
        <time>2022-08-14T13:09:00Z</time>
      </trkpt>
      <trkpt lat="40.8417830" lon="-8.2172620">
        <ele>739.8</ele>
        <time>2022-08-14T13:09:01Z</time>
      </trkpt>
      <trkpt lat="40.8417490" lon="-8.2172310">
        <ele>739.2</ele>
        <time>2022-08-14T13:09:02Z</time>
      </trkpt>
      <trkpt lat="40.8417130" lon="-8.2171780">
        <ele>739.0</ele>
        <time>2022-08-14T13:09:03Z</time>
      </trkpt>
      <trkpt lat="40.8417020" lon="-8.2171040">
        <ele>737.2</ele>
        <time>2022-08-14T13:09:05Z</time>
      </trkpt>
      <trkpt lat="40.8417350" lon="-8.2171130">
        <ele>736.4</ele>
        <time>2022-08-14T13:09:07Z</time>
      </trkpt>
      <trkpt lat="40.8417470" lon="-8.2171390">
        <ele>736.2</ele>
        <time>2022-08-14T13:09:08Z</time>
      </trkpt>
      <trkpt lat="40.8417520" lon="-8.2171650">
        <ele>735.8</ele>
        <time>2022-08-14T13:09:09Z</time>
      </trkpt>
      <trkpt lat="40.8417250" lon="-8.2171850">
        <ele>735.6</ele>
        <time>2022-08-14T13:09:11Z</time>
      </trkpt>
      <trkpt lat="40.8416140" lon="-8.2171420">
        <ele>735.0</ele>
        <time>2022-08-14T13:09:15Z</time>
      </trkpt>
      <trkpt lat="40.8415800" lon="-8.2171360">
        <ele>734.8</ele>
        <time>2022-08-14T13:09:16Z</time>
      </trkpt>
      <trkpt lat="40.8413520" lon="-8.2170810">
        <ele>734.6</ele>
        <time>2022-08-14T13:09:23Z</time>
      </trkpt>
      <trkpt lat="40.8411560" lon="-8.2170350">
        <ele>735.6</ele>
        <time>2022-08-14T13:09:30Z</time>
      </trkpt>
      <trkpt lat="40.8410440" lon="-8.2169480">
        <ele>736.0</ele>
        <time>2022-08-14T13:09:36Z</time>
      </trkpt>
      <trkpt lat="40.8409920" lon="-8.2169100">
        <ele>736.4</ele>
        <time>2022-08-14T13:09:39Z</time>
      </trkpt>
      <trkpt lat="40.8409450" lon="-8.2168850">
        <ele>737.0</ele>
        <time>2022-08-14T13:09:42Z</time>
      </trkpt>
      <trkpt lat="40.8409130" lon="-8.2168580">
        <ele>737.4</ele>
        <time>2022-08-14T13:09:44Z</time>
      </trkpt>
      <trkpt lat="40.8408190" lon="-8.2167570">
        <ele>738.4</ele>
        <time>2022-08-14T13:09:51Z</time>
      </trkpt>
      <trkpt lat="40.8408030" lon="-8.2167400">
        <ele>738.6</ele>
        <time>2022-08-14T13:09:52Z</time>
      </trkpt>
      <trkpt lat="40.8407550" lon="-8.2166600">
        <ele>738.8</ele>
        <time>2022-08-14T13:09:56Z</time>
      </trkpt>
      <trkpt lat="40.8407380" lon="-8.2165570">
        <ele>739.4</ele>
        <time>2022-08-14T13:10:01Z</time>
      </trkpt>
      <trkpt lat="40.8407350" lon="-8.2165380">
        <ele>739.6</ele>
        <time>2022-08-14T13:10:02Z</time>
      </trkpt>
      <trkpt lat="40.8407350" lon="-8.2164250">
        <ele>740.8</ele>
        <time>2022-08-14T13:10:08Z</time>
      </trkpt>
      <trkpt lat="40.8407380" lon="-8.2163560">
        <ele>742.2</ele>
        <time>2022-08-14T13:10:12Z</time>
      </trkpt>
      <trkpt lat="40.8407330" lon="-8.2162980">
        <ele>743.6</ele>
        <time>2022-08-14T13:10:16Z</time>
      </trkpt>
      <trkpt lat="40.8407310" lon="-8.2162860">
        <ele>743.8</ele>
        <time>2022-08-14T13:10:17Z</time>
      </trkpt>
      <trkpt lat="40.8407240" lon="-8.2162670">
        <ele>744.4</ele>
        <time>2022-08-14T13:10:21Z</time>
      </trkpt>
      <trkpt lat="40.8407130" lon="-8.2162430">
        <ele>744.6</ele>
        <time>2022-08-14T13:10:40Z</time>
      </trkpt>
      <trkpt lat="40.8406830" lon="-8.2161420">
        <ele>744.6</ele>
        <time>2022-08-14T13:10:42Z</time>
      </trkpt>
      <trkpt lat="40.8406700" lon="-8.2160740">
        <ele>744.6</ele>
        <time>2022-08-14T13:10:43Z</time>
      </trkpt>
      <trkpt lat="40.8406400" lon="-8.2159310">
        <ele>744.4</ele>
        <time>2022-08-14T13:10:45Z</time>
      </trkpt>
      <trkpt lat="40.8405280" lon="-8.2156950">
        <ele>743.8</ele>
        <time>2022-08-14T13:10:48Z</time>
      </trkpt>
      <trkpt lat="40.8404900" lon="-8.2156340">
        <ele>743.4</ele>
        <time>2022-08-14T13:10:49Z</time>
      </trkpt>
      <trkpt lat="40.8404570" lon="-8.2155720">
        <ele>742.8</ele>
        <time>2022-08-14T13:10:50Z</time>
      </trkpt>
      <trkpt lat="40.8403840" lon="-8.2154350">
        <ele>741.6</ele>
        <time>2022-08-14T13:10:52Z</time>
      </trkpt>
      <trkpt lat="40.8403370" lon="-8.2153840">
        <ele>741.0</ele>
        <time>2022-08-14T13:10:53Z</time>
      </trkpt>
      <trkpt lat="40.8402830" lon="-8.2153570">
        <ele>740.8</ele>
        <time>2022-08-14T13:10:54Z</time>
      </trkpt>
      <trkpt lat="40.8402250" lon="-8.2153510">
        <ele>740.4</ele>
        <time>2022-08-14T13:10:55Z</time>
      </trkpt>
      <trkpt lat="40.8401710" lon="-8.2153540">
        <ele>740.4</ele>
        <time>2022-08-14T13:10:56Z</time>
      </trkpt>
      <trkpt lat="40.8399490" lon="-8.2153640">
        <ele>739.8</ele>
        <time>2022-08-14T13:11:00Z</time>
      </trkpt>
      <trkpt lat="40.8398410" lon="-8.2153490">
        <ele>739.6</ele>
        <time>2022-08-14T13:11:02Z</time>
      </trkpt>
      <trkpt lat="40.8397870" lon="-8.2153460">
        <ele>739.4</ele>
        <time>2022-08-14T13:11:03Z</time>
      </trkpt>
      <trkpt lat="40.8396890" lon="-8.2153530">
        <ele>739.2</ele>
        <time>2022-08-14T13:11:05Z</time>
      </trkpt>
      <trkpt lat="40.8395980" lon="-8.2153580">
        <ele>739.2</ele>
        <time>2022-08-14T13:11:07Z</time>
      </trkpt>
      <trkpt lat="40.8394180" lon="-8.2153900">
        <ele>739.2</ele>
        <time>2022-08-14T13:11:11Z</time>
      </trkpt>
      <trkpt lat="40.8393340" lon="-8.2153870">
        <ele>739.2</ele>
        <time>2022-08-14T13:11:13Z</time>
      </trkpt>
      <trkpt lat="40.8391550" lon="-8.2153600">
        <ele>738.8</ele>
        <time>2022-08-14T13:11:18Z</time>
      </trkpt>
      <trkpt lat="40.8389710" lon="-8.2152590">
        <ele>738.2</ele>
        <time>2022-08-14T13:11:24Z</time>
      </trkpt>
      <trkpt lat="40.8387730" lon="-8.2150890">
        <ele>737.6</ele>
        <time>2022-08-14T13:11:29Z</time>
      </trkpt>
      <trkpt lat="40.8385390" lon="-8.2149360">
        <ele>737.2</ele>
        <time>2022-08-14T13:11:33Z</time>
      </trkpt>
      <trkpt lat="40.8384410" lon="-8.2148810">
        <ele>735.8</ele>
        <time>2022-08-14T13:11:35Z</time>
      </trkpt>
      <trkpt lat="40.8383230" lon="-8.2148280">
        <ele>735.0</ele>
        <time>2022-08-14T13:11:37Z</time>
      </trkpt>
      <trkpt lat="40.8382740" lon="-8.2147930">
        <ele>734.8</ele>
        <time>2022-08-14T13:11:38Z</time>
      </trkpt>
      <trkpt lat="40.8382250" lon="-8.2147500">
        <ele>734.6</ele>
        <time>2022-08-14T13:11:39Z</time>
      </trkpt>
      <trkpt lat="40.8381930" lon="-8.2147110">
        <ele>734.4</ele>
        <time>2022-08-14T13:11:40Z</time>
      </trkpt>
      <trkpt lat="40.8381700" lon="-8.2146770">
        <ele>734.0</ele>
        <time>2022-08-14T13:11:41Z</time>
      </trkpt>
      <trkpt lat="40.8381250" lon="-8.2145440">
        <ele>733.8</ele>
        <time>2022-08-14T13:11:44Z</time>
      </trkpt>
      <trkpt lat="40.8380710" lon="-8.2142950">
        <ele>732.8</ele>
        <time>2022-08-14T13:11:50Z</time>
      </trkpt>
      <trkpt lat="40.8380870" lon="-8.2139920">
        <ele>732.4</ele>
        <time>2022-08-14T13:11:57Z</time>
      </trkpt>
      <trkpt lat="40.8380550" lon="-8.2138060">
        <ele>732.2</ele>
        <time>2022-08-14T13:12:02Z</time>
      </trkpt>
      <trkpt lat="40.8380320" lon="-8.2137450">
        <ele>731.8</ele>
        <time>2022-08-14T13:12:04Z</time>
      </trkpt>
      <trkpt lat="40.8380190" lon="-8.2137280">
        <ele>731.6</ele>
        <time>2022-08-14T13:12:07Z</time>
      </trkpt>
      <trkpt lat="40.8380190" lon="-8.2137280">
        <ele>731.4</ele>
        <time>2022-08-14T13:12:09Z</time>
      </trkpt>
      <trkpt lat="40.8384430" lon="-8.2118910">
        <ele>757.4</ele>
        <time>2022-08-14T13:16:08Z</time>
      </trkpt>
      <trkpt lat="40.8384470" lon="-8.2118450">
        <ele>757.4</ele>
        <time>2022-08-14T13:16:10Z</time>
      </trkpt>
      <trkpt lat="40.8385010" lon="-8.2117020">
        <ele>757.0</ele>
        <time>2022-08-14T13:16:15Z</time>
      </trkpt>
      <trkpt lat="40.8385250" lon="-8.2115220">
        <ele>756.2</ele>
        <time>2022-08-14T13:16:19Z</time>
      </trkpt>
      <trkpt lat="40.8385250" lon="-8.2114480">
        <ele>756.0</ele>
        <time>2022-08-14T13:16:21Z</time>
      </trkpt>
      <trkpt lat="40.8385200" lon="-8.2112420">
        <ele>755.2</ele>
        <time>2022-08-14T13:16:27Z</time>
      </trkpt>
      <trkpt lat="40.8385180" lon="-8.2111940">
        <ele>755.2</ele>
        <time>2022-08-14T13:16:29Z</time>
      </trkpt>
      <trkpt lat="40.8385330" lon="-8.2109870">
        <ele>755.4</ele>
        <time>2022-08-14T13:16:36Z</time>
      </trkpt>
      <trkpt lat="40.8385340" lon="-8.2109630">
        <ele>755.4</ele>
        <time>2022-08-14T13:16:37Z</time>
      </trkpt>
      <trkpt lat="40.8385330" lon="-8.2109550">
        <ele>755.4</ele>
        <time>2022-08-14T13:16:39Z</time>
      </trkpt>
      <trkpt lat="40.8385400" lon="-8.2108990">
        <ele>755.6</ele>
        <time>2022-08-14T13:16:45Z</time>
      </trkpt>
      <trkpt lat="40.8385430" lon="-8.2108890">
        <ele>755.2</ele>
        <time>2022-08-14T13:16:50Z</time>
      </trkpt>
      <trkpt lat="40.8385690" lon="-8.2108140">
        <ele>754.8</ele>
        <time>2022-08-14T13:17:04Z</time>
      </trkpt>
      <trkpt lat="40.8385760" lon="-8.2107940">
        <ele>754.8</ele>
        <time>2022-08-14T13:17:05Z</time>
      </trkpt>
      <trkpt lat="40.8385810" lon="-8.2107850">
        <ele>754.8</ele>
        <time>2022-08-14T13:17:08Z</time>
      </trkpt>
      <trkpt lat="40.8387440" lon="-8.2101110">
        <ele>758.6</ele>
        <time>2022-08-14T13:17:42Z</time>
      </trkpt>
      <trkpt lat="40.8387530" lon="-8.2101020">
        <ele>758.6</ele>
        <time>2022-08-14T13:17:43Z</time>
      </trkpt>
      <trkpt lat="40.8387780" lon="-8.2100490">
        <ele>759.6</ele>
        <time>2022-08-14T13:17:47Z</time>
      </trkpt>
      <trkpt lat="40.8388210" lon="-8.2099670">
        <ele>760.2</ele>
        <time>2022-08-14T13:17:52Z</time>
      </trkpt>
      <trkpt lat="40.8388410" lon="-8.2099300">
        <ele>760.8</ele>
        <time>2022-08-14T13:17:54Z</time>
      </trkpt>
      <trkpt lat="40.8388890" lon="-8.2098180">
        <ele>761.6</ele>
        <time>2022-08-14T13:18:01Z</time>
      </trkpt>
      <trkpt lat="40.8388860" lon="-8.2097960">
        <ele>761.6</ele>
        <time>2022-08-14T13:18:02Z</time>
      </trkpt>
      <trkpt lat="40.8388630" lon="-8.2097400">
        <ele>762.0</ele>
        <time>2022-08-14T13:18:05Z</time>
      </trkpt>
      <trkpt lat="40.8388450" lon="-8.2097040">
        <ele>761.8</ele>
        <time>2022-08-14T13:18:07Z</time>
      </trkpt>
      <trkpt lat="40.8388060" lon="-8.2096680">
        <ele>762.2</ele>
        <time>2022-08-14T13:18:10Z</time>
      </trkpt>
      <trkpt lat="40.8387550" lon="-8.2096440">
        <ele>762.6</ele>
        <time>2022-08-14T13:18:14Z</time>
      </trkpt>
      <trkpt lat="40.8386840" lon="-8.2096040">
        <ele>763.0</ele>
        <time>2022-08-14T13:18:19Z</time>
      </trkpt>
      <trkpt lat="40.8386710" lon="-8.2095950">
        <ele>763.6</ele>
        <time>2022-08-14T13:18:20Z</time>
      </trkpt>
      <trkpt lat="40.8386620" lon="-8.2095860">
        <ele>763.8</ele>
        <time>2022-08-14T13:18:21Z</time>
      </trkpt>
      <trkpt lat="40.8386540" lon="-8.2095800">
        <ele>764.2</ele>
        <time>2022-08-14T13:18:22Z</time>
      </trkpt>
      <trkpt lat="40.8386290" lon="-8.2095060">
        <ele>765.4</ele>
        <time>2022-08-14T13:18:27Z</time>
      </trkpt>
      <trkpt lat="40.8386330" lon="-8.2094370">
        <ele>765.8</ele>
        <time>2022-08-14T13:18:31Z</time>
      </trkpt>
      <trkpt lat="40.8386380" lon="-8.2093870">
        <ele>766.6</ele>
        <time>2022-08-14T13:18:34Z</time>
      </trkpt>
      <trkpt lat="40.8386520" lon="-8.2092970">
        <ele>767.6</ele>
        <time>2022-08-14T13:18:40Z</time>
      </trkpt>
      <trkpt lat="40.8386540" lon="-8.2092500">
        <ele>768.0</ele>
        <time>2022-08-14T13:18:43Z</time>
      </trkpt>
      <trkpt lat="40.8386660" lon="-8.2091840">
        <ele>768.6</ele>
        <time>2022-08-14T13:18:48Z</time>
      </trkpt>
      <trkpt lat="40.8386760" lon="-8.2091600">
        <ele>769.0</ele>
        <time>2022-08-14T13:18:51Z</time>
      </trkpt>
      <trkpt lat="40.8386760" lon="-8.2091600">
        <ele>769.0</ele>
        <time>2022-08-14T13:18:52Z</time>
      </trkpt>
      <trkpt lat="40.8387040" lon="-8.2090810">
        <ele>769.4</ele>
        <time>2022-08-14T13:19:08Z</time>
      </trkpt>
      <trkpt lat="40.8387230" lon="-8.2090130">
        <ele>769.4</ele>
        <time>2022-08-14T13:19:11Z</time>
      </trkpt>
      <trkpt lat="40.8387240" lon="-8.2088770">
        <ele>769.6</ele>
        <time>2022-08-14T13:19:17Z</time>
      </trkpt>
      <trkpt lat="40.8387150" lon="-8.2087760">
        <ele>770.0</ele>
        <time>2022-08-14T13:19:23Z</time>
      </trkpt>
      <trkpt lat="40.8387050" lon="-8.2087490">
        <ele>770.0</ele>
        <time>2022-08-14T13:19:25Z</time>
      </trkpt>
      <trkpt lat="40.8387050" lon="-8.2087400">
        <ele>770.2</ele>
        <time>2022-08-14T13:19:28Z</time>
      </trkpt>
      <trkpt lat="40.8387010" lon="-8.2086910">
        <ele>770.2</ele>
        <time>2022-08-14T13:19:44Z</time>
      </trkpt>
      <trkpt lat="40.8386980" lon="-8.2086400">
        <ele>770.0</ele>
        <time>2022-08-14T13:19:46Z</time>
      </trkpt>
      <trkpt lat="40.8386970" lon="-8.2085750">
        <ele>770.0</ele>
        <time>2022-08-14T13:19:49Z</time>
      </trkpt>
      <trkpt lat="40.8386790" lon="-8.2085350">
        <ele>770.0</ele>
        <time>2022-08-14T13:19:52Z</time>
      </trkpt>
      <trkpt lat="40.8386500" lon="-8.2084860">
        <ele>770.2</ele>
        <time>2022-08-14T13:19:58Z</time>
      </trkpt>
      <trkpt lat="40.8386440" lon="-8.2084420">
        <ele>770.2</ele>
        <time>2022-08-14T13:20:01Z</time>
      </trkpt>
      <trkpt lat="40.8386180" lon="-8.2083900">
        <ele>770.4</ele>
        <time>2022-08-14T13:20:04Z</time>
      </trkpt>
      <trkpt lat="40.8385820" lon="-8.2083400">
        <ele>771.0</ele>
        <time>2022-08-14T13:20:07Z</time>
      </trkpt>
      <trkpt lat="40.8385440" lon="-8.2082780">
        <ele>772.4</ele>
        <time>2022-08-14T13:20:11Z</time>
      </trkpt>
      <trkpt lat="40.8384990" lon="-8.2082240">
        <ele>773.4</ele>
        <time>2022-08-14T13:20:15Z</time>
      </trkpt>
      <trkpt lat="40.8384750" lon="-8.2081790">
        <ele>774.6</ele>
        <time>2022-08-14T13:20:18Z</time>
      </trkpt>
      <trkpt lat="40.8384680" lon="-8.2081610">
        <ele>775.0</ele>
        <time>2022-08-14T13:20:19Z</time>
      </trkpt>
      <trkpt lat="40.8384430" lon="-8.2081120">
        <ele>775.6</ele>
        <time>2022-08-14T13:20:22Z</time>
      </trkpt>
      <trkpt lat="40.8384300" lon="-8.2080970">
        <ele>775.8</ele>
        <time>2022-08-14T13:20:23Z</time>
      </trkpt>
      <trkpt lat="40.8383940" lon="-8.2080540">
        <ele>776.8</ele>
        <time>2022-08-14T13:20:26Z</time>
      </trkpt>
      <trkpt lat="40.8383660" lon="-8.2080150">
        <ele>778.0</ele>
        <time>2022-08-14T13:20:29Z</time>
      </trkpt>
      <trkpt lat="40.8383390" lon="-8.2079730">
        <ele>778.2</ele>
        <time>2022-08-14T13:20:32Z</time>
      </trkpt>
      <trkpt lat="40.8383280" lon="-8.2079650">
        <ele>778.4</ele>
        <time>2022-08-14T13:20:33Z</time>
      </trkpt>
      <trkpt lat="40.8382970" lon="-8.2079420">
        <ele>778.4</ele>
        <time>2022-08-14T13:20:35Z</time>
      </trkpt>
      <trkpt lat="40.8382850" lon="-8.2079150">
        <ele>778.8</ele>
        <time>2022-08-14T13:20:37Z</time>
      </trkpt>
      <trkpt lat="40.8382850" lon="-8.2079150">
        <ele>779.0</ele>
        <time>2022-08-14T13:20:38Z</time>
      </trkpt>
      <trkpt lat="40.8381730" lon="-8.2077620">
        <ele>779.8</ele>
        <time>2022-08-14T13:20:47Z</time>
      </trkpt>
      <trkpt lat="40.8381040" lon="-8.2076790">
        <ele>780.0</ele>
        <time>2022-08-14T13:20:53Z</time>
      </trkpt>
      <trkpt lat="40.8380760" lon="-8.2076420">
        <ele>780.4</ele>
        <time>2022-08-14T13:20:55Z</time>
      </trkpt>
      <trkpt lat="40.8380700" lon="-8.2076280">
        <ele>780.6</ele>
        <time>2022-08-14T13:20:57Z</time>
      </trkpt>
      <trkpt lat="40.8380460" lon="-8.2076010">
        <ele>781.2</ele>
        <time>2022-08-14T13:20:59Z</time>
      </trkpt>
      <trkpt lat="40.8379800" lon="-8.2075220">
        <ele>781.6</ele>
        <time>2022-08-14T13:21:03Z</time>
      </trkpt>
      <trkpt lat="40.8378980" lon="-8.2073810">
        <ele>782.2</ele>
        <time>2022-08-14T13:21:09Z</time>
      </trkpt>
      <trkpt lat="40.8378790" lon="-8.2073570">
        <ele>782.2</ele>
        <time>2022-08-14T13:21:10Z</time>
      </trkpt>
      <trkpt lat="40.8377390" lon="-8.2071850">
        <ele>782.8</ele>
        <time>2022-08-14T13:21:18Z</time>
      </trkpt>
      <trkpt lat="40.8376150" lon="-8.2069800">
        <ele>783.0</ele>
        <time>2022-08-14T13:21:25Z</time>
      </trkpt>
      <trkpt lat="40.8376020" lon="-8.2069700">
        <ele>783.2</ele>
        <time>2022-08-14T13:21:28Z</time>
      </trkpt>
      <trkpt lat="40.8375980" lon="-8.2069030">
        <ele>784.4</ele>
        <time>2022-08-14T13:21:47Z</time>
      </trkpt>
      <trkpt lat="40.8376140" lon="-8.2066640">
        <ele>783.8</ele>
        <time>2022-08-14T13:21:54Z</time>
      </trkpt>
      <trkpt lat="40.8376240" lon="-8.2065570">
        <ele>783.4</ele>
        <time>2022-08-14T13:21:57Z</time>
      </trkpt>
      <trkpt lat="40.8376670" lon="-8.2062840">
        <ele>783.2</ele>
        <time>2022-08-14T13:22:05Z</time>
      </trkpt>
      <trkpt lat="40.8376620" lon="-8.2060300">
        <ele>784.0</ele>
        <time>2022-08-14T13:22:13Z</time>
      </trkpt>
      <trkpt lat="40.8377650" lon="-8.2058480">
        <ele>783.4</ele>
        <time>2022-08-14T13:22:18Z</time>
      </trkpt>
      <trkpt lat="40.8380350" lon="-8.2055430">
        <ele>783.4</ele>
        <time>2022-08-14T13:22:28Z</time>
      </trkpt>
      <trkpt lat="40.8382920" lon="-8.2052810">
        <ele>784.4</ele>
        <time>2022-08-14T13:22:38Z</time>
      </trkpt>
      <trkpt lat="40.8384610" lon="-8.2050800">
        <ele>785.0</ele>
        <time>2022-08-14T13:22:46Z</time>
      </trkpt>
      <trkpt lat="40.8385680" lon="-8.2049340">
        <ele>785.6</ele>
        <time>2022-08-14T13:22:50Z</time>
      </trkpt>
      <trkpt lat="40.8386230" lon="-8.2047890">
        <ele>785.8</ele>
        <time>2022-08-14T13:22:54Z</time>
      </trkpt>
      <trkpt lat="40.8386130" lon="-8.2045220">
        <ele>786.0</ele>
        <time>2022-08-14T13:23:01Z</time>
      </trkpt>
      <trkpt lat="40.8385980" lon="-8.2042210">
        <ele>786.6</ele>
        <time>2022-08-14T13:23:10Z</time>
      </trkpt>
      <trkpt lat="40.8386040" lon="-8.2041770">
        <ele>786.8</ele>
        <time>2022-08-14T13:23:13Z</time>
      </trkpt>
      <trkpt lat="40.8386190" lon="-8.2040660">
        <ele>787.2</ele>
        <time>2022-08-14T13:23:16Z</time>
      </trkpt>
      <trkpt lat="40.8386500" lon="-8.2039580">
        <ele>787.8</ele>
        <time>2022-08-14T13:23:21Z</time>
      </trkpt>
      <trkpt lat="40.8386600" lon="-8.2038970">
        <ele>788.0</ele>
        <time>2022-08-14T13:23:24Z</time>
      </trkpt>
      <trkpt lat="40.8386580" lon="-8.2038690">
        <ele>788.0</ele>
        <time>2022-08-14T13:23:25Z</time>
      </trkpt>
      <trkpt lat="40.8386570" lon="-8.2037580">
        <ele>788.0</ele>
        <time>2022-08-14T13:23:28Z</time>
      </trkpt>
      <trkpt lat="40.8386860" lon="-8.2035170">
        <ele>788.2</ele>
        <time>2022-08-14T13:23:36Z</time>
      </trkpt>
      <trkpt lat="40.8388030" lon="-8.2033500">
        <ele>789.2</ele>
        <time>2022-08-14T13:23:43Z</time>
      </trkpt>
      <trkpt lat="40.8388770" lon="-8.2032910">
        <ele>789.6</ele>
        <time>2022-08-14T13:23:46Z</time>
      </trkpt>
      <trkpt lat="40.8389190" lon="-8.2032030">
        <ele>790.0</ele>
        <time>2022-08-14T13:23:49Z</time>
      </trkpt>
      <trkpt lat="40.8389350" lon="-8.2031490">
        <ele>790.2</ele>
        <time>2022-08-14T13:23:51Z</time>
      </trkpt>
      <trkpt lat="40.8389630" lon="-8.2030690">
        <ele>790.4</ele>
        <time>2022-08-14T13:23:54Z</time>
      </trkpt>
      <trkpt lat="40.8389860" lon="-8.2029440">
        <ele>791.0</ele>
        <time>2022-08-14T13:24:00Z</time>
      </trkpt>
      <trkpt lat="40.8389910" lon="-8.2028970">
        <ele>791.2</ele>
        <time>2022-08-14T13:24:02Z</time>
      </trkpt>
      <trkpt lat="40.8390250" lon="-8.2027830">
        <ele>792.2</ele>
        <time>2022-08-14T13:24:06Z</time>
      </trkpt>
      <trkpt lat="40.8390390" lon="-8.2027510">
        <ele>792.6</ele>
        <time>2022-08-14T13:24:07Z</time>
      </trkpt>
      <trkpt lat="40.8390770" lon="-8.2026250">
        <ele>793.2</ele>
        <time>2022-08-14T13:24:12Z</time>
      </trkpt>
      <trkpt lat="40.8390760" lon="-8.2025660">
        <ele>793.4</ele>
        <time>2022-08-14T13:24:13Z</time>
      </trkpt>
      <trkpt lat="40.8389910" lon="-8.2024890">
        <ele>793.4</ele>
        <time>2022-08-14T13:24:17Z</time>
      </trkpt>
      <trkpt lat="40.8388200" lon="-8.2025160">
        <ele>793.8</ele>
        <time>2022-08-14T13:24:24Z</time>
      </trkpt>
      <trkpt lat="40.8387340" lon="-8.2025240">
        <ele>794.4</ele>
        <time>2022-08-14T13:24:28Z</time>
      </trkpt>
      <trkpt lat="40.8386540" lon="-8.2025220">
        <ele>795.4</ele>
        <time>2022-08-14T13:24:32Z</time>
      </trkpt>
      <trkpt lat="40.8386350" lon="-8.2025270">
        <ele>795.6</ele>
        <time>2022-08-14T13:24:33Z</time>
      </trkpt>
      <trkpt lat="40.8385010" lon="-8.2025320">
        <ele>796.6</ele>
        <time>2022-08-14T13:24:40Z</time>
      </trkpt>
      <trkpt lat="40.8385010" lon="-8.2025320">
        <ele>796.6</ele>
        <time>2022-08-14T13:24:41Z</time>
      </trkpt>
      <trkpt lat="40.8384490" lon="-8.2025090">
        <ele>797.0</ele>
        <time>2022-08-14T13:24:43Z</time>
      </trkpt>
      <trkpt lat="40.8383900" lon="-8.2024960">
        <ele>797.4</ele>
        <time>2022-08-14T13:24:47Z</time>
      </trkpt>
      <trkpt lat="40.8383770" lon="-8.2024830">
        <ele>797.4</ele>
        <time>2022-08-14T13:24:48Z</time>
      </trkpt>
      <trkpt lat="40.8383680" lon="-8.2024620">
        <ele>797.6</ele>
        <time>2022-08-14T13:24:49Z</time>
      </trkpt>
      <trkpt lat="40.8383670" lon="-8.2024350">
        <ele>797.8</ele>
        <time>2022-08-14T13:24:50Z</time>
      </trkpt>
      <trkpt lat="40.8383490" lon="-8.2023650">
        <ele>798.4</ele>
        <time>2022-08-14T13:24:53Z</time>
      </trkpt>
      <trkpt lat="40.8383320" lon="-8.2023240">
        <ele>799.0</ele>
        <time>2022-08-14T13:24:56Z</time>
      </trkpt>
      <trkpt lat="40.8382930" lon="-8.2021450">
        <ele>800.0</ele>
        <time>2022-08-14T13:25:03Z</time>
      </trkpt>
      <trkpt lat="40.8382880" lon="-8.2021230">
        <ele>800.0</ele>
        <time>2022-08-14T13:25:04Z</time>
      </trkpt>
      <trkpt lat="40.8382530" lon="-8.2020460">
        <ele>801.2</ele>
        <time>2022-08-14T13:25:08Z</time>
      </trkpt>
      <trkpt lat="40.8382330" lon="-8.2020100">
        <ele>801.8</ele>
        <time>2022-08-14T13:25:10Z</time>
      </trkpt>
      <trkpt lat="40.8382110" lon="-8.2019260">
        <ele>802.6</ele>
        <time>2022-08-14T13:25:15Z</time>
      </trkpt>
      <trkpt lat="40.8381940" lon="-8.2018050">
        <ele>803.6</ele>
        <time>2022-08-14T13:25:20Z</time>
      </trkpt>
      <trkpt lat="40.8381960" lon="-8.2017900">
        <ele>803.8</ele>
        <time>2022-08-14T13:25:21Z</time>
      </trkpt>
      <trkpt lat="40.8382150" lon="-8.2017440">
        <ele>804.8</ele>
        <time>2022-08-14T13:25:24Z</time>
      </trkpt>
      <trkpt lat="40.8382350" lon="-8.2016860">
        <ele>805.2</ele>
        <time>2022-08-14T13:25:27Z</time>
      </trkpt>
      <trkpt lat="40.8383260" lon="-8.2016070">
        <ele>806.2</ele>
        <time>2022-08-14T13:25:33Z</time>
      </trkpt>
      <trkpt lat="40.8383440" lon="-8.2015970">
        <ele>806.6</ele>
        <time>2022-08-14T13:25:34Z</time>
      </trkpt>
      <trkpt lat="40.8383780" lon="-8.2015720">
        <ele>807.6</ele>
        <time>2022-08-14T13:25:36Z</time>
      </trkpt>
      <trkpt lat="40.8384140" lon="-8.2015150">
        <ele>808.8</ele>
        <time>2022-08-14T13:25:40Z</time>
      </trkpt>
      <trkpt lat="40.8384410" lon="-8.2014560">
        <ele>809.2</ele>
        <time>2022-08-14T13:25:42Z</time>
      </trkpt>
      <trkpt lat="40.8385020" lon="-8.2013030">
        <ele>810.0</ele>
        <time>2022-08-14T13:25:50Z</time>
      </trkpt>
      <trkpt lat="40.8385030" lon="-8.2012840">
        <ele>810.0</ele>
        <time>2022-08-14T13:25:51Z</time>
      </trkpt>
      <trkpt lat="40.8385360" lon="-8.2011580">
        <ele>810.6</ele>
        <time>2022-08-14T13:25:58Z</time>
      </trkpt>
      <trkpt lat="40.8385380" lon="-8.2010770">
        <ele>811.0</ele>
        <time>2022-08-14T13:26:02Z</time>
      </trkpt>
      <trkpt lat="40.8385270" lon="-8.2009660">
        <ele>811.4</ele>
        <time>2022-08-14T13:26:08Z</time>
      </trkpt>
      <trkpt lat="40.8385330" lon="-8.2009260">
        <ele>811.8</ele>
        <time>2022-08-14T13:26:12Z</time>
      </trkpt>
      <trkpt lat="40.8385520" lon="-8.2009110">
        <ele>814.4</ele>
        <time>2022-08-14T13:28:30Z</time>
      </trkpt>
      <trkpt lat="40.8387000" lon="-8.2008060">
        <ele>814.4</ele>
        <time>2022-08-14T13:28:38Z</time>
      </trkpt>
      <trkpt lat="40.8387760" lon="-8.2008090">
        <ele>815.4</ele>
        <time>2022-08-14T13:28:43Z</time>
      </trkpt>
      <trkpt lat="40.8387900" lon="-8.2008040">
        <ele>815.4</ele>
        <time>2022-08-14T13:28:44Z</time>
      </trkpt>
      <trkpt lat="40.8388030" lon="-8.2007930">
        <ele>815.8</ele>
        <time>2022-08-14T13:28:47Z</time>
      </trkpt>
      <trkpt lat="40.8388060" lon="-8.2007900">
        <ele>816.2</ele>
        <time>2022-08-14T13:28:49Z</time>
      </trkpt>
      <trkpt lat="40.8389150" lon="-8.2007530">
        <ele>817.2</ele>
        <time>2022-08-14T13:28:57Z</time>
      </trkpt>
      <trkpt lat="40.8389800" lon="-8.2007330">
        <ele>817.6</ele>
        <time>2022-08-14T13:29:01Z</time>
      </trkpt>
      <trkpt lat="40.8389920" lon="-8.2007220">
        <ele>817.8</ele>
        <time>2022-08-14T13:29:02Z</time>
      </trkpt>
      <trkpt lat="40.8390550" lon="-8.2006570">
        <ele>818.2</ele>
        <time>2022-08-14T13:29:07Z</time>
      </trkpt>
      <trkpt lat="40.8390650" lon="-8.2006380">
        <ele>818.6</ele>
        <time>2022-08-14T13:29:08Z</time>
      </trkpt>
      <trkpt lat="40.8390850" lon="-8.2005970">
        <ele>819.4</ele>
        <time>2022-08-14T13:29:10Z</time>
      </trkpt>
      <trkpt lat="40.8391400" lon="-8.2005090">
        <ele>820.4</ele>
        <time>2022-08-14T13:29:15Z</time>
      </trkpt>
      <trkpt lat="40.8391500" lon="-8.2004910">
        <ele>820.4</ele>
        <time>2022-08-14T13:29:16Z</time>
      </trkpt>
      <trkpt lat="40.8392420" lon="-8.2002900">
        <ele>821.2</ele>
        <time>2022-08-14T13:29:26Z</time>
      </trkpt>
      <trkpt lat="40.8392780" lon="-8.2001930">
        <ele>821.6</ele>
        <time>2022-08-14T13:29:30Z</time>
      </trkpt>
      <trkpt lat="40.8393460" lon="-8.2000320">
        <ele>822.0</ele>
        <time>2022-08-14T13:29:37Z</time>
      </trkpt>
      <trkpt lat="40.8394530" lon="-8.1998950">
        <ele>822.2</ele>
        <time>2022-08-14T13:29:45Z</time>
      </trkpt>
      <trkpt lat="40.8395260" lon="-8.1999050">
        <ele>822.4</ele>
        <time>2022-08-14T13:29:49Z</time>
      </trkpt>
      <trkpt lat="40.8395570" lon="-8.1999340">
        <ele>822.6</ele>
        <time>2022-08-14T13:29:51Z</time>
      </trkpt>
      <trkpt lat="40.8395730" lon="-8.1999470">
        <ele>822.6</ele>
        <time>2022-08-14T13:29:53Z</time>
      </trkpt>
      <trkpt lat="40.8397210" lon="-8.2000190">
        <ele>823.4</ele>
        <time>2022-08-14T13:30:01Z</time>
      </trkpt>
      <trkpt lat="40.8397650" lon="-8.2000090">
        <ele>824.0</ele>
        <time>2022-08-14T13:30:04Z</time>
      </trkpt>
      <trkpt lat="40.8398080" lon="-8.1999950">
        <ele>824.8</ele>
        <time>2022-08-14T13:30:08Z</time>
      </trkpt>
      <trkpt lat="40.8398370" lon="-8.1999850">
        <ele>825.0</ele>
        <time>2022-08-14T13:30:09Z</time>
      </trkpt>
      <trkpt lat="40.8399060" lon="-8.1999140">
        <ele>826.2</ele>
        <time>2022-08-14T13:30:14Z</time>
      </trkpt>
      <trkpt lat="40.8399760" lon="-8.1998410">
        <ele>827.4</ele>
        <time>2022-08-14T13:30:19Z</time>
      </trkpt>
      <trkpt lat="40.8400370" lon="-8.1998010">
        <ele>828.6</ele>
        <time>2022-08-14T13:30:23Z</time>
      </trkpt>
      <trkpt lat="40.8400520" lon="-8.1997950">
        <ele>828.8</ele>
        <time>2022-08-14T13:30:24Z</time>
      </trkpt>
      <trkpt lat="40.8400840" lon="-8.1997830">
        <ele>829.6</ele>
        <time>2022-08-14T13:30:26Z</time>
      </trkpt>
      <trkpt lat="40.8401500" lon="-8.1997820">
        <ele>830.2</ele>
        <time>2022-08-14T13:30:30Z</time>
      </trkpt>
      <trkpt lat="40.8401770" lon="-8.1998130">
        <ele>830.6</ele>
        <time>2022-08-14T13:30:32Z</time>
      </trkpt>
      <trkpt lat="40.8402480" lon="-8.1999170">
        <ele>831.8</ele>
        <time>2022-08-14T13:30:38Z</time>
      </trkpt>
      <trkpt lat="40.8402750" lon="-8.1999640">
        <ele>832.0</ele>
        <time>2022-08-14T13:30:41Z</time>
      </trkpt>
      <trkpt lat="40.8403050" lon="-8.2000370">
        <ele>832.8</ele>
        <time>2022-08-14T13:30:45Z</time>
      </trkpt>
      <trkpt lat="40.8403860" lon="-8.2001750">
        <ele>833.8</ele>
        <time>2022-08-14T13:30:53Z</time>
      </trkpt>
      <trkpt lat="40.8404630" lon="-8.2003410">
        <ele>835.0</ele>
        <time>2022-08-14T13:31:02Z</time>
      </trkpt>
      <trkpt lat="40.8404810" lon="-8.2003760">
        <ele>835.2</ele>
        <time>2022-08-14T13:31:04Z</time>
      </trkpt>
      <trkpt lat="40.8405140" lon="-8.2004450">
        <ele>836.2</ele>
        <time>2022-08-14T13:31:08Z</time>
      </trkpt>
      <trkpt lat="40.8405500" lon="-8.2005370">
        <ele>837.2</ele>
        <time>2022-08-14T13:31:13Z</time>
      </trkpt>
      <trkpt lat="40.8405540" lon="-8.2006890">
        <ele>838.2</ele>
        <time>2022-08-14T13:31:20Z</time>
      </trkpt>
      <trkpt lat="40.8405520" lon="-8.2007120">
        <ele>838.2</ele>
        <time>2022-08-14T13:31:21Z</time>
      </trkpt>
      <trkpt lat="40.8405360" lon="-8.2008320">
        <ele>839.2</ele>
        <time>2022-08-14T13:31:26Z</time>
      </trkpt>
      <trkpt lat="40.8405360" lon="-8.2008770">
        <ele>839.6</ele>
        <time>2022-08-14T13:31:28Z</time>
      </trkpt>
      <trkpt lat="40.8405340" lon="-8.2009620">
        <ele>840.2</ele>
        <time>2022-08-14T13:31:32Z</time>
      </trkpt>
      <trkpt lat="40.8405390" lon="-8.2009810">
        <ele>840.4</ele>
        <time>2022-08-14T13:31:33Z</time>
      </trkpt>
      <trkpt lat="40.8405520" lon="-8.2010220">
        <ele>840.6</ele>
        <time>2022-08-14T13:31:35Z</time>
      </trkpt>
      <trkpt lat="40.8406050" lon="-8.2011400">
        <ele>841.4</ele>
        <time>2022-08-14T13:31:41Z</time>
      </trkpt>
      <trkpt lat="40.8406630" lon="-8.2012270">
        <ele>842.6</ele>
        <time>2022-08-14T13:31:46Z</time>
      </trkpt>
      <trkpt lat="40.8407550" lon="-8.2013310">
        <ele>843.6</ele>
        <time>2022-08-14T13:31:53Z</time>
      </trkpt>
      <trkpt lat="40.8408010" lon="-8.2013830">
        <ele>844.0</ele>
        <time>2022-08-14T13:31:56Z</time>
      </trkpt>
      <trkpt lat="40.8408260" lon="-8.2014380">
        <ele>844.8</ele>
        <time>2022-08-14T13:31:59Z</time>
      </trkpt>
      <trkpt lat="40.8408840" lon="-8.2015440">
        <ele>845.8</ele>
        <time>2022-08-14T13:32:04Z</time>
      </trkpt>
      <trkpt lat="40.8410340" lon="-8.2018010">
        <ele>846.8</ele>
        <time>2022-08-14T13:32:15Z</time>
      </trkpt>
      <trkpt lat="40.8410500" lon="-8.2018270">
        <ele>847.0</ele>
        <time>2022-08-14T13:32:16Z</time>
      </trkpt>
      <trkpt lat="40.8411480" lon="-8.2019150">
        <ele>847.4</ele>
        <time>2022-08-14T13:32:22Z</time>
      </trkpt>
      <trkpt lat="40.8412340" lon="-8.2019340">
        <ele>847.8</ele>
        <time>2022-08-14T13:32:28Z</time>
      </trkpt>
      <trkpt lat="40.8412640" lon="-8.2019460">
        <ele>848.2</ele>
        <time>2022-08-14T13:32:30Z</time>
      </trkpt>
      <trkpt lat="40.8413200" lon="-8.2019270">
        <ele>849.0</ele>
        <time>2022-08-14T13:32:34Z</time>
      </trkpt>
      <trkpt lat="40.8413500" lon="-8.2019010">
        <ele>849.4</ele>
        <time>2022-08-14T13:32:36Z</time>
      </trkpt>
      <trkpt lat="40.8413970" lon="-8.2018770">
        <ele>850.2</ele>
        <time>2022-08-14T13:32:39Z</time>
      </trkpt>
      <trkpt lat="40.8414160" lon="-8.2018770">
        <ele>850.4</ele>
        <time>2022-08-14T13:32:40Z</time>
      </trkpt>
      <trkpt lat="40.8414460" lon="-8.2018820">
        <ele>851.0</ele>
        <time>2022-08-14T13:32:42Z</time>
      </trkpt>
      <trkpt lat="40.8414580" lon="-8.2018770">
        <ele>851.4</ele>
        <time>2022-08-14T13:32:43Z</time>
      </trkpt>
      <trkpt lat="40.8415370" lon="-8.2018420">
        <ele>852.6</ele>
        <time>2022-08-14T13:32:48Z</time>
      </trkpt>
      <trkpt lat="40.8415510" lon="-8.2018360">
        <ele>852.6</ele>
        <time>2022-08-14T13:32:49Z</time>
      </trkpt>
      <trkpt lat="40.8415940" lon="-8.2018070">
        <ele>853.6</ele>
        <time>2022-08-14T13:32:52Z</time>
      </trkpt>
      <trkpt lat="40.8416670" lon="-8.2017740">
        <ele>854.8</ele>
        <time>2022-08-14T13:32:57Z</time>
      </trkpt>
      <trkpt lat="40.8417500" lon="-8.2017550">
        <ele>856.4</ele>
        <time>2022-08-14T13:33:02Z</time>
      </trkpt>
      <trkpt lat="40.8417800" lon="-8.2017590">
        <ele>857.0</ele>
        <time>2022-08-14T13:33:04Z</time>
      </trkpt>
      <trkpt lat="40.8417940" lon="-8.2017490">
        <ele>857.2</ele>
        <time>2022-08-14T13:33:05Z</time>
      </trkpt>
      <trkpt lat="40.8418040" lon="-8.2017350">
        <ele>857.4</ele>
        <time>2022-08-14T13:33:06Z</time>
      </trkpt>
      <trkpt lat="40.8418800" lon="-8.2017070">
        <ele>858.2</ele>
        <time>2022-08-14T13:33:11Z</time>
      </trkpt>
      <trkpt lat="40.8419300" lon="-8.2016960">
        <ele>858.6</ele>
        <time>2022-08-14T13:33:14Z</time>
      </trkpt>
      <trkpt lat="40.8419900" lon="-8.2016610">
        <ele>859.2</ele>
        <time>2022-08-14T13:33:18Z</time>
      </trkpt>
      <trkpt lat="40.8420340" lon="-8.2016390">
        <ele>859.6</ele>
        <time>2022-08-14T13:33:21Z</time>
      </trkpt>
      <trkpt lat="40.8420970" lon="-8.2015550">
        <ele>860.4</ele>
        <time>2022-08-14T13:33:26Z</time>
      </trkpt>
      <trkpt lat="40.8421410" lon="-8.2014360">
        <ele>860.8</ele>
        <time>2022-08-14T13:33:31Z</time>
      </trkpt>
      <trkpt lat="40.8421620" lon="-8.2013640">
        <ele>860.8</ele>
        <time>2022-08-14T13:33:34Z</time>
      </trkpt>
      <trkpt lat="40.8422150" lon="-8.2011460">
        <ele>861.2</ele>
        <time>2022-08-14T13:33:43Z</time>
      </trkpt>
      <trkpt lat="40.8421960" lon="-8.2009600">
        <ele>862.0</ele>
        <time>2022-08-14T13:33:51Z</time>
      </trkpt>
      <trkpt lat="40.8421140" lon="-8.2008230">
        <ele>863.0</ele>
        <time>2022-08-14T13:33:58Z</time>
      </trkpt>
      <trkpt lat="40.8420860" lon="-8.2007290">
        <ele>863.6</ele>
        <time>2022-08-14T13:34:02Z</time>
      </trkpt>
      <trkpt lat="40.8420620" lon="-8.2006550">
        <ele>864.0</ele>
        <time>2022-08-14T13:34:05Z</time>
      </trkpt>
      <trkpt lat="40.8420160" lon="-8.2005750">
        <ele>864.6</ele>
        <time>2022-08-14T13:34:09Z</time>
      </trkpt>
      <trkpt lat="40.8419730" lon="-8.2005230">
        <ele>865.2</ele>
        <time>2022-08-14T13:34:12Z</time>
      </trkpt>
      <trkpt lat="40.8418900" lon="-8.2004330">
        <ele>866.2</ele>
        <time>2022-08-14T13:34:18Z</time>
      </trkpt>
      <trkpt lat="40.8418720" lon="-8.2003590">
        <ele>866.4</ele>
        <time>2022-08-14T13:34:21Z</time>
      </trkpt>
      <trkpt lat="40.8418550" lon="-8.2003310">
        <ele>866.6</ele>
        <time>2022-08-14T13:34:23Z</time>
      </trkpt>
      <trkpt lat="40.8417660" lon="-8.2002370">
        <ele>867.2</ele>
        <time>2022-08-14T13:34:30Z</time>
      </trkpt>
      <trkpt lat="40.8417610" lon="-8.2002150">
        <ele>867.2</ele>
        <time>2022-08-14T13:34:31Z</time>
      </trkpt>
      <trkpt lat="40.8417580" lon="-8.2001910">
        <ele>867.2</ele>
        <time>2022-08-14T13:34:32Z</time>
      </trkpt>
      <trkpt lat="40.8417390" lon="-8.2001630">
        <ele>867.8</ele>
        <time>2022-08-14T13:34:34Z</time>
      </trkpt>
      <trkpt lat="40.8417050" lon="-8.2001440">
        <ele>868.2</ele>
        <time>2022-08-14T13:34:36Z</time>
      </trkpt>
      <trkpt lat="40.8416870" lon="-8.2001320">
        <ele>868.6</ele>
        <time>2022-08-14T13:34:37Z</time>
      </trkpt>
      <trkpt lat="40.8416350" lon="-8.2000270">
        <ele>869.6</ele>
        <time>2022-08-14T13:34:43Z</time>
      </trkpt>
      <trkpt lat="40.8415800" lon="-8.1999510">
        <ele>870.6</ele>
        <time>2022-08-14T13:34:48Z</time>
      </trkpt>
      <trkpt lat="40.8415490" lon="-8.1998980">
        <ele>871.2</ele>
        <time>2022-08-14T13:34:51Z</time>
      </trkpt>
      <trkpt lat="40.8415230" lon="-8.1998120">
        <ele>871.6</ele>
        <time>2022-08-14T13:34:55Z</time>
      </trkpt>
      <trkpt lat="40.8415090" lon="-8.1997150">
        <ele>872.0</ele>
        <time>2022-08-14T13:34:59Z</time>
      </trkpt>
      <trkpt lat="40.8415400" lon="-8.1996290">
        <ele>872.6</ele>
        <time>2022-08-14T13:35:04Z</time>
      </trkpt>
      <trkpt lat="40.8415440" lon="-8.1996180">
        <ele>872.8</ele>
        <time>2022-08-14T13:35:05Z</time>
      </trkpt>
      <trkpt lat="40.8415740" lon="-8.1995760">
        <ele>873.6</ele>
        <time>2022-08-14T13:35:08Z</time>
      </trkpt>
      <trkpt lat="40.8415900" lon="-8.1995730">
        <ele>873.8</ele>
        <time>2022-08-14T13:35:09Z</time>
      </trkpt>
      <trkpt lat="40.8416230" lon="-8.1995700">
        <ele>874.6</ele>
        <time>2022-08-14T13:35:11Z</time>
      </trkpt>
      <trkpt lat="40.8416500" lon="-8.1995690">
        <ele>875.4</ele>
        <time>2022-08-14T13:35:13Z</time>
      </trkpt>
      <trkpt lat="40.8418480" lon="-8.1995770">
        <ele>876.2</ele>
        <time>2022-08-14T13:35:22Z</time>
      </trkpt>
      <trkpt lat="40.8419080" lon="-8.1995540">
        <ele>876.6</ele>
        <time>2022-08-14T13:35:25Z</time>
      </trkpt>
      <trkpt lat="40.8419910" lon="-8.1995330">
        <ele>877.4</ele>
        <time>2022-08-14T13:35:29Z</time>
      </trkpt>
      <trkpt lat="40.8420090" lon="-8.1995350">
        <ele>877.6</ele>
        <time>2022-08-14T13:35:30Z</time>
      </trkpt>
      <trkpt lat="40.8420650" lon="-8.1995550">
        <ele>878.0</ele>
        <time>2022-08-14T13:35:33Z</time>
      </trkpt>
      <trkpt lat="40.8421340" lon="-8.1995280">
        <ele>878.6</ele>
        <time>2022-08-14T13:35:37Z</time>
      </trkpt>
      <trkpt lat="40.8421570" lon="-8.1995390">
        <ele>878.8</ele>
        <time>2022-08-14T13:35:38Z</time>
      </trkpt>
      <trkpt lat="40.8422860" lon="-8.1996010">
        <ele>879.8</ele>
        <time>2022-08-14T13:35:45Z</time>
      </trkpt>
      <trkpt lat="40.8423390" lon="-8.1996070">
        <ele>880.0</ele>
        <time>2022-08-14T13:35:48Z</time>
      </trkpt>
      <trkpt lat="40.8425180" lon="-8.1995870">
        <ele>880.8</ele>
        <time>2022-08-14T13:35:56Z</time>
      </trkpt>
      <trkpt lat="40.8425590" lon="-8.1995600">
        <ele>880.8</ele>
        <time>2022-08-14T13:35:58Z</time>
      </trkpt>
      <trkpt lat="40.8427500" lon="-8.1994660">
        <ele>881.8</ele>
        <time>2022-08-14T13:36:06Z</time>
      </trkpt>
      <trkpt lat="40.8427830" lon="-8.1994440">
        <ele>882.2</ele>
        <time>2022-08-14T13:36:08Z</time>
      </trkpt>
      <trkpt lat="40.8428620" lon="-8.1993810">
        <ele>883.0</ele>
        <time>2022-08-14T13:36:12Z</time>
      </trkpt>
      <trkpt lat="40.8429230" lon="-8.1993660">
        <ele>883.6</ele>
        <time>2022-08-14T13:36:15Z</time>
      </trkpt>
      <trkpt lat="40.8429800" lon="-8.1993500">
        <ele>884.0</ele>
        <time>2022-08-14T13:36:18Z</time>
      </trkpt>
      <trkpt lat="40.8430760" lon="-8.1992900">
        <ele>885.2</ele>
        <time>2022-08-14T13:36:24Z</time>
      </trkpt>
      <trkpt lat="40.8431510" lon="-8.1992500">
        <ele>886.4</ele>
        <time>2022-08-14T13:36:28Z</time>
      </trkpt>
      <trkpt lat="40.8432080" lon="-8.1991870">
        <ele>887.0</ele>
        <time>2022-08-14T13:36:32Z</time>
      </trkpt>
      <trkpt lat="40.8432400" lon="-8.1991840">
        <ele>887.4</ele>
        <time>2022-08-14T13:36:34Z</time>
      </trkpt>
      <trkpt lat="40.8432950" lon="-8.1991730">
        <ele>887.8</ele>
        <time>2022-08-14T13:36:37Z</time>
      </trkpt>
      <trkpt lat="40.8434210" lon="-8.1991110">
        <ele>888.6</ele>
        <time>2022-08-14T13:36:44Z</time>
      </trkpt>
      <trkpt lat="40.8434750" lon="-8.1990960">
        <ele>888.8</ele>
        <time>2022-08-14T13:36:47Z</time>
      </trkpt>
      <trkpt lat="40.8435810" lon="-8.1991050">
        <ele>889.6</ele>
        <time>2022-08-14T13:36:53Z</time>
      </trkpt>
      <trkpt lat="40.8435970" lon="-8.1991120">
        <ele>889.8</ele>
        <time>2022-08-14T13:36:54Z</time>
      </trkpt>
      <trkpt lat="40.8436650" lon="-8.1991410">
        <ele>890.8</ele>
        <time>2022-08-14T13:36:58Z</time>
      </trkpt>
      <trkpt lat="40.8437520" lon="-8.1991610">
        <ele>891.6</ele>
        <time>2022-08-14T13:37:03Z</time>
      </trkpt>
      <trkpt lat="40.8437920" lon="-8.1991430">
        <ele>892.0</ele>
        <time>2022-08-14T13:37:06Z</time>
      </trkpt>
      <trkpt lat="40.8438540" lon="-8.1990960">
        <ele>892.6</ele>
        <time>2022-08-14T13:37:10Z</time>
      </trkpt>
      <trkpt lat="40.8438800" lon="-8.1990780">
        <ele>893.2</ele>
        <time>2022-08-14T13:37:12Z</time>
      </trkpt>
      <trkpt lat="40.8439360" lon="-8.1990160">
        <ele>894.2</ele>
        <time>2022-08-14T13:37:16Z</time>
      </trkpt>
      <trkpt lat="40.8439410" lon="-8.1989990">
        <ele>894.6</ele>
        <time>2022-08-14T13:37:17Z</time>
      </trkpt>
      <trkpt lat="40.8439810" lon="-8.1989340">
        <ele>895.4</ele>
        <time>2022-08-14T13:37:21Z</time>
      </trkpt>
      <trkpt lat="40.8440120" lon="-8.1988530">
        <ele>895.8</ele>
        <time>2022-08-14T13:37:25Z</time>
      </trkpt>
      <trkpt lat="40.8440510" lon="-8.1987750">
        <ele>896.6</ele>
        <time>2022-08-14T13:37:29Z</time>
      </trkpt>
      <trkpt lat="40.8440610" lon="-8.1987630">
        <ele>896.6</ele>
        <time>2022-08-14T13:37:30Z</time>
      </trkpt>
      <trkpt lat="40.8440860" lon="-8.1987500">
        <ele>896.8</ele>
        <time>2022-08-14T13:37:32Z</time>
      </trkpt>
      <trkpt lat="40.8441250" lon="-8.1987000">
        <ele>897.8</ele>
        <time>2022-08-14T13:37:35Z</time>
      </trkpt>
      <trkpt lat="40.8441410" lon="-8.1986420">
        <ele>898.4</ele>
        <time>2022-08-14T13:37:38Z</time>
      </trkpt>
      <trkpt lat="40.8441710" lon="-8.1985790">
        <ele>898.8</ele>
        <time>2022-08-14T13:37:41Z</time>
      </trkpt>
      <trkpt lat="40.8441910" lon="-8.1985420">
        <ele>899.0</ele>
        <time>2022-08-14T13:37:43Z</time>
      </trkpt>
      <trkpt lat="40.8442430" lon="-8.1984530">
        <ele>899.2</ele>
        <time>2022-08-14T13:37:47Z</time>
      </trkpt>
      <trkpt lat="40.8443250" lon="-8.1983750">
        <ele>899.8</ele>
        <time>2022-08-14T13:37:52Z</time>
      </trkpt>
      <trkpt lat="40.8443680" lon="-8.1983660">
        <ele>900.2</ele>
        <time>2022-08-14T13:37:54Z</time>
      </trkpt>
      <trkpt lat="40.8444470" lon="-8.1983780">
        <ele>901.0</ele>
        <time>2022-08-14T13:37:58Z</time>
      </trkpt>
      <trkpt lat="40.8445320" lon="-8.1984070">
        <ele>901.4</ele>
        <time>2022-08-14T13:38:03Z</time>
      </trkpt>
      <trkpt lat="40.8446260" lon="-8.1984000">
        <ele>902.0</ele>
        <time>2022-08-14T13:38:08Z</time>
      </trkpt>
      <trkpt lat="40.8446990" lon="-8.1983870">
        <ele>902.4</ele>
        <time>2022-08-14T13:38:12Z</time>
      </trkpt>
      <trkpt lat="40.8447340" lon="-8.1983780">
        <ele>903.2</ele>
        <time>2022-08-14T13:38:15Z</time>
      </trkpt>
      <trkpt lat="40.8447660" lon="-8.1983880">
        <ele>903.4</ele>
        <time>2022-08-14T13:38:16Z</time>
      </trkpt>
      <trkpt lat="40.8447980" lon="-8.1984020">
        <ele>903.6</ele>
        <time>2022-08-14T13:38:18Z</time>
      </trkpt>
      <trkpt lat="40.8448140" lon="-8.1983990">
        <ele>903.8</ele>
        <time>2022-08-14T13:38:19Z</time>
      </trkpt>
      <trkpt lat="40.8448510" lon="-8.1983640">
        <ele>904.4</ele>
        <time>2022-08-14T13:38:22Z</time>
      </trkpt>
      <trkpt lat="40.8448840" lon="-8.1983670">
        <ele>904.6</ele>
        <time>2022-08-14T13:38:24Z</time>
      </trkpt>
      <trkpt lat="40.8449300" lon="-8.1983870">
        <ele>905.4</ele>
        <time>2022-08-14T13:38:27Z</time>
      </trkpt>
      <trkpt lat="40.8449540" lon="-8.1983880">
        <ele>905.6</ele>
        <time>2022-08-14T13:38:29Z</time>
      </trkpt>
      <trkpt lat="40.8450130" lon="-8.1983420">
        <ele>906.0</ele>
        <time>2022-08-14T13:38:33Z</time>
      </trkpt>
      <trkpt lat="40.8450310" lon="-8.1983310">
        <ele>906.4</ele>
        <time>2022-08-14T13:38:34Z</time>
      </trkpt>
      <trkpt lat="40.8450480" lon="-8.1983300">
        <ele>906.6</ele>
        <time>2022-08-14T13:38:35Z</time>
      </trkpt>
      <trkpt lat="40.8450800" lon="-8.1983460">
        <ele>907.6</ele>
        <time>2022-08-14T13:38:37Z</time>
      </trkpt>
      <trkpt lat="40.8450940" lon="-8.1983530">
        <ele>907.6</ele>
        <time>2022-08-14T13:38:38Z</time>
      </trkpt>
      <trkpt lat="40.8451560" lon="-8.1983500">
        <ele>908.6</ele>
        <time>2022-08-14T13:38:42Z</time>
      </trkpt>
      <trkpt lat="40.8452300" lon="-8.1983130">
        <ele>909.0</ele>
        <time>2022-08-14T13:38:47Z</time>
      </trkpt>
      <trkpt lat="40.8452530" lon="-8.1982870">
        <ele>909.6</ele>
        <time>2022-08-14T13:38:49Z</time>
      </trkpt>
      <trkpt lat="40.8452670" lon="-8.1982730">
        <ele>910.0</ele>
        <time>2022-08-14T13:38:50Z</time>
      </trkpt>
      <trkpt lat="40.8453010" lon="-8.1982360">
        <ele>910.8</ele>
        <time>2022-08-14T13:38:53Z</time>
      </trkpt>
      <trkpt lat="40.8453100" lon="-8.1982250">
        <ele>910.8</ele>
        <time>2022-08-14T13:38:54Z</time>
      </trkpt>
      <trkpt lat="40.8453480" lon="-8.1981930">
        <ele>911.4</ele>
        <time>2022-08-14T13:38:57Z</time>
      </trkpt>
      <trkpt lat="40.8453650" lon="-8.1981570">
        <ele>911.6</ele>
        <time>2022-08-14T13:38:59Z</time>
      </trkpt>
      <trkpt lat="40.8453890" lon="-8.1979920">
        <ele>911.6</ele>
        <time>2022-08-14T13:39:06Z</time>
      </trkpt>
      <trkpt lat="40.8453590" lon="-8.1978470">
        <ele>911.8</ele>
        <time>2022-08-14T13:39:12Z</time>
      </trkpt>
      <trkpt lat="40.8453320" lon="-8.1977460">
        <ele>912.2</ele>
        <time>2022-08-14T13:39:17Z</time>
      </trkpt>
      <trkpt lat="40.8452860" lon="-8.1975870">
        <ele>912.4</ele>
        <time>2022-08-14T13:39:26Z</time>
      </trkpt>
      <trkpt lat="40.8452190" lon="-8.1975040">
        <ele>912.8</ele>
        <time>2022-08-14T13:39:32Z</time>
      </trkpt>
      <trkpt lat="40.8452060" lon="-8.1974920">
        <ele>913.0</ele>
        <time>2022-08-14T13:39:33Z</time>
      </trkpt>
      <trkpt lat="40.8451090" lon="-8.1973900">
        <ele>913.8</ele>
        <time>2022-08-14T13:39:41Z</time>
      </trkpt>
      <trkpt lat="40.8451020" lon="-8.1973810">
        <ele>914.0</ele>
        <time>2022-08-14T13:39:42Z</time>
      </trkpt>
      <trkpt lat="40.8450130" lon="-8.1973070">
        <ele>915.0</ele>
        <time>2022-08-14T13:39:50Z</time>
      </trkpt>
      <trkpt lat="40.8449330" lon="-8.1972390">
        <ele>916.2</ele>
        <time>2022-08-14T13:39:57Z</time>
      </trkpt>
      <trkpt lat="40.8448250" lon="-8.1971490">
        <ele>916.8</ele>
        <time>2022-08-14T13:40:05Z</time>
      </trkpt>
      <trkpt lat="40.8447940" lon="-8.1971190">
        <ele>917.2</ele>
        <time>2022-08-14T13:40:07Z</time>
      </trkpt>
      <trkpt lat="40.8447340" lon="-8.1969750">
        <ele>918.2</ele>
        <time>2022-08-14T13:40:14Z</time>
      </trkpt>
      <trkpt lat="40.8446630" lon="-8.1968540">
        <ele>919.2</ele>
        <time>2022-08-14T13:40:22Z</time>
      </trkpt>
      <trkpt lat="40.8446500" lon="-8.1968450">
        <ele>919.4</ele>
        <time>2022-08-14T13:40:23Z</time>
      </trkpt>
      <trkpt lat="40.8446150" lon="-8.1968140">
        <ele>920.6</ele>
        <time>2022-08-14T13:40:27Z</time>
      </trkpt>
      <trkpt lat="40.8445290" lon="-8.1967650">
        <ele>921.6</ele>
        <time>2022-08-14T13:40:32Z</time>
      </trkpt>
      <trkpt lat="40.8444640" lon="-8.1967310">
        <ele>923.0</ele>
        <time>2022-08-14T13:40:37Z</time>
      </trkpt>
      <trkpt lat="40.8444520" lon="-8.1967220">
        <ele>923.0</ele>
        <time>2022-08-14T13:40:38Z</time>
      </trkpt>
      <trkpt lat="40.8444290" lon="-8.1967150">
        <ele>923.2</ele>
        <time>2022-08-14T13:40:40Z</time>
      </trkpt>
      <trkpt lat="40.8443630" lon="-8.1966450">
        <ele>924.0</ele>
        <time>2022-08-14T13:40:46Z</time>
      </trkpt>
      <trkpt lat="40.8443610" lon="-8.1966310">
        <ele>924.0</ele>
        <time>2022-08-14T13:40:47Z</time>
      </trkpt>
      <trkpt lat="40.8443840" lon="-8.1965240">
        <ele>925.2</ele>
        <time>2022-08-14T13:40:53Z</time>
      </trkpt>
      <trkpt lat="40.8444050" lon="-8.1965000">
        <ele>925.6</ele>
        <time>2022-08-14T13:40:55Z</time>
      </trkpt>
      <trkpt lat="40.8444250" lon="-8.1964770">
        <ele>926.2</ele>
        <time>2022-08-14T13:40:57Z</time>
      </trkpt>
      <trkpt lat="40.8444730" lon="-8.1964300">
        <ele>927.2</ele>
        <time>2022-08-14T13:41:01Z</time>
      </trkpt>
      <trkpt lat="40.8445010" lon="-8.1963850">
        <ele>927.6</ele>
        <time>2022-08-14T13:41:04Z</time>
      </trkpt>
      <trkpt lat="40.8445050" lon="-8.1963680">
        <ele>927.8</ele>
        <time>2022-08-14T13:41:05Z</time>
      </trkpt>
      <trkpt lat="40.8445220" lon="-8.1963190">
        <ele>928.2</ele>
        <time>2022-08-14T13:41:08Z</time>
      </trkpt>
      <trkpt lat="40.8445390" lon="-8.1962500">
        <ele>928.6</ele>
        <time>2022-08-14T13:41:12Z</time>
      </trkpt>
      <trkpt lat="40.8445700" lon="-8.1961910">
        <ele>928.8</ele>
        <time>2022-08-14T13:41:16Z</time>
      </trkpt>
      <trkpt lat="40.8445740" lon="-8.1961440">
        <ele>929.4</ele>
        <time>2022-08-14T13:41:19Z</time>
      </trkpt>
      <trkpt lat="40.8445770" lon="-8.1961290">
        <ele>929.6</ele>
        <time>2022-08-14T13:41:20Z</time>
      </trkpt>
      <trkpt lat="40.8445830" lon="-8.1960210">
        <ele>930.4</ele>
        <time>2022-08-14T13:41:27Z</time>
      </trkpt>
      <trkpt lat="40.8445840" lon="-8.1960050">
        <ele>930.6</ele>
        <time>2022-08-14T13:41:28Z</time>
      </trkpt>
      <trkpt lat="40.8446060" lon="-8.1958910">
        <ele>931.4</ele>
        <time>2022-08-14T13:41:35Z</time>
      </trkpt>
      <trkpt lat="40.8446060" lon="-8.1958750">
        <ele>931.8</ele>
        <time>2022-08-14T13:41:36Z</time>
      </trkpt>
      <trkpt lat="40.8446230" lon="-8.1957690">
        <ele>932.8</ele>
        <time>2022-08-14T13:41:42Z</time>
      </trkpt>
      <trkpt lat="40.8446260" lon="-8.1957520">
        <ele>933.2</ele>
        <time>2022-08-14T13:41:43Z</time>
      </trkpt>
      <trkpt lat="40.8446390" lon="-8.1956840">
        <ele>934.2</ele>
        <time>2022-08-14T13:41:47Z</time>
      </trkpt>
      <trkpt lat="40.8446590" lon="-8.1956130">
        <ele>935.2</ele>
        <time>2022-08-14T13:41:51Z</time>
      </trkpt>
      <trkpt lat="40.8446640" lon="-8.1955950">
        <ele>935.4</ele>
        <time>2022-08-14T13:41:52Z</time>
      </trkpt>
      <trkpt lat="40.8446940" lon="-8.1955040">
        <ele>936.4</ele>
        <time>2022-08-14T13:41:58Z</time>
      </trkpt>
      <trkpt lat="40.8447040" lon="-8.1954880">
        <ele>936.8</ele>
        <time>2022-08-14T13:41:59Z</time>
      </trkpt>
      <trkpt lat="40.8447180" lon="-8.1954380">
        <ele>937.4</ele>
        <time>2022-08-14T13:42:03Z</time>
      </trkpt>
      <trkpt lat="40.8447370" lon="-8.1954160">
        <ele>937.4</ele>
        <time>2022-08-14T13:42:05Z</time>
      </trkpt>
      <trkpt lat="40.8447470" lon="-8.1954040">
        <ele>937.6</ele>
        <time>2022-08-14T13:42:06Z</time>
      </trkpt>
      <trkpt lat="40.8447560" lon="-8.1953900">
        <ele>937.6</ele>
        <time>2022-08-14T13:42:07Z</time>
      </trkpt>
      <trkpt lat="40.8447930" lon="-8.1953400">
        <ele>938.6</ele>
        <time>2022-08-14T13:42:11Z</time>
      </trkpt>
      <trkpt lat="40.8448030" lon="-8.1953280">
        <ele>938.8</ele>
        <time>2022-08-14T13:42:12Z</time>
      </trkpt>
      <trkpt lat="40.8448300" lon="-8.1952960">
        <ele>939.6</ele>
        <time>2022-08-14T13:42:15Z</time>
      </trkpt>
      <trkpt lat="40.8448480" lon="-8.1952680">
        <ele>939.8</ele>
        <time>2022-08-14T13:42:17Z</time>
      </trkpt>
      <trkpt lat="40.8448720" lon="-8.1952140">
        <ele>940.4</ele>
        <time>2022-08-14T13:42:20Z</time>
      </trkpt>
      <trkpt lat="40.8448910" lon="-8.1951950">
        <ele>940.8</ele>
        <time>2022-08-14T13:42:22Z</time>
      </trkpt>
      <trkpt lat="40.8449160" lon="-8.1951620">
        <ele>941.2</ele>
        <time>2022-08-14T13:42:25Z</time>
      </trkpt>
      <trkpt lat="40.8449630" lon="-8.1951110">
        <ele>941.8</ele>
        <time>2022-08-14T13:42:29Z</time>
      </trkpt>
      <trkpt lat="40.8449760" lon="-8.1950980">
        <ele>942.0</ele>
        <time>2022-08-14T13:42:30Z</time>
      </trkpt>
      <trkpt lat="40.8450420" lon="-8.1950740">
        <ele>942.6</ele>
        <time>2022-08-14T13:42:34Z</time>
      </trkpt>
      <trkpt lat="40.8450490" lon="-8.1950650">
        <ele>943.0</ele>
        <time>2022-08-14T13:42:35Z</time>
      </trkpt>
      <trkpt lat="40.8451190" lon="-8.1949800">
        <ele>944.0</ele>
        <time>2022-08-14T13:42:42Z</time>
      </trkpt>
      <trkpt lat="40.8451270" lon="-8.1949730">
        <ele>944.4</ele>
        <time>2022-08-14T13:42:43Z</time>
      </trkpt>
      <trkpt lat="40.8451470" lon="-8.1949530">
        <ele>945.0</ele>
        <time>2022-08-14T13:42:45Z</time>
      </trkpt>
      <trkpt lat="40.8451950" lon="-8.1949070">
        <ele>945.8</ele>
        <time>2022-08-14T13:42:50Z</time>
      </trkpt>
      <trkpt lat="40.8452240" lon="-8.1948760">
        <ele>946.2</ele>
        <time>2022-08-14T13:42:53Z</time>
      </trkpt>
      <trkpt lat="40.8452740" lon="-8.1948220">
        <ele>947.2</ele>
        <time>2022-08-14T13:42:58Z</time>
      </trkpt>
      <trkpt lat="40.8452990" lon="-8.1947950">
        <ele>947.4</ele>
        <time>2022-08-14T13:43:00Z</time>
      </trkpt>
      <trkpt lat="40.8453660" lon="-8.1947380">
        <ele>948.6</ele>
        <time>2022-08-14T13:43:06Z</time>
      </trkpt>
      <trkpt lat="40.8453790" lon="-8.1947270">
        <ele>949.0</ele>
        <time>2022-08-14T13:43:07Z</time>
      </trkpt>
      <trkpt lat="40.8453900" lon="-8.1947160">
        <ele>949.0</ele>
        <time>2022-08-14T13:43:08Z</time>
      </trkpt>
      <trkpt lat="40.8454390" lon="-8.1946720">
        <ele>949.8</ele>
        <time>2022-08-14T13:43:12Z</time>
      </trkpt>
      <trkpt lat="40.8455140" lon="-8.1946150">
        <ele>950.8</ele>
        <time>2022-08-14T13:43:18Z</time>
      </trkpt>
      <trkpt lat="40.8455410" lon="-8.1946020">
        <ele>951.0</ele>
        <time>2022-08-14T13:43:20Z</time>
      </trkpt>
      <trkpt lat="40.8456090" lon="-8.1945450">
        <ele>952.0</ele>
        <time>2022-08-14T13:43:25Z</time>
      </trkpt>
      <trkpt lat="40.8456970" lon="-8.1944660">
        <ele>953.0</ele>
        <time>2022-08-14T13:43:32Z</time>
      </trkpt>
      <trkpt lat="40.8457230" lon="-8.1944410">
        <ele>953.2</ele>
        <time>2022-08-14T13:43:34Z</time>
      </trkpt>
      <trkpt lat="40.8457980" lon="-8.1943970">
        <ele>954.0</ele>
        <time>2022-08-14T13:43:40Z</time>
      </trkpt>
      <trkpt lat="40.8458110" lon="-8.1943890">
        <ele>954.2</ele>
        <time>2022-08-14T13:43:41Z</time>
      </trkpt>
      <trkpt lat="40.8458490" lon="-8.1943670">
        <ele>954.4</ele>
        <time>2022-08-14T13:43:44Z</time>
      </trkpt>
      <trkpt lat="40.8459060" lon="-8.1943500">
        <ele>954.8</ele>
        <time>2022-08-14T13:43:48Z</time>
      </trkpt>
      <trkpt lat="40.8459180" lon="-8.1943460">
        <ele>955.4</ele>
        <time>2022-08-14T13:43:49Z</time>
      </trkpt>
      <trkpt lat="40.8459560" lon="-8.1943260">
        <ele>956.6</ele>
        <time>2022-08-14T13:43:53Z</time>
      </trkpt>
      <trkpt lat="40.8460050" lon="-8.1943000">
        <ele>957.2</ele>
        <time>2022-08-14T13:43:57Z</time>
      </trkpt>
      <trkpt lat="40.8460550" lon="-8.1942620">
        <ele>957.6</ele>
        <time>2022-08-14T13:44:01Z</time>
      </trkpt>
      <trkpt lat="40.8460930" lon="-8.1942390">
        <ele>958.0</ele>
        <time>2022-08-14T13:44:04Z</time>
      </trkpt>
      <trkpt lat="40.8461410" lon="-8.1941920">
        <ele>958.8</ele>
        <time>2022-08-14T13:44:08Z</time>
      </trkpt>
      <trkpt lat="40.8461590" lon="-8.1941700">
        <ele>959.2</ele>
        <time>2022-08-14T13:44:10Z</time>
      </trkpt>
      <trkpt lat="40.8461700" lon="-8.1941540">
        <ele>959.2</ele>
        <time>2022-08-14T13:44:11Z</time>
      </trkpt>
      <trkpt lat="40.8462110" lon="-8.1940980">
        <ele>959.8</ele>
        <time>2022-08-14T13:44:15Z</time>
      </trkpt>
      <trkpt lat="40.8462950" lon="-8.1940180">
        <ele>961.0</ele>
        <time>2022-08-14T13:44:22Z</time>
      </trkpt>
      <trkpt lat="40.8463640" lon="-8.1939310">
        <ele>962.0</ele>
        <time>2022-08-14T13:44:29Z</time>
      </trkpt>
      <trkpt lat="40.8463920" lon="-8.1939020">
        <ele>962.4</ele>
        <time>2022-08-14T13:44:32Z</time>
      </trkpt>
      <trkpt lat="40.8464320" lon="-8.1938540">
        <ele>963.2</ele>
        <time>2022-08-14T13:44:36Z</time>
      </trkpt>
      <trkpt lat="40.8464780" lon="-8.1937780">
        <ele>964.4</ele>
        <time>2022-08-14T13:44:42Z</time>
      </trkpt>
      <trkpt lat="40.8465170" lon="-8.1936710">
        <ele>964.8</ele>
        <time>2022-08-14T13:44:49Z</time>
      </trkpt>
      <trkpt lat="40.8465440" lon="-8.1936120">
        <ele>965.0</ele>
        <time>2022-08-14T13:44:53Z</time>
      </trkpt>
      <trkpt lat="40.8465720" lon="-8.1935670">
        <ele>965.4</ele>
        <time>2022-08-14T13:44:56Z</time>
      </trkpt>
      <trkpt lat="40.8466250" lon="-8.1934650">
        <ele>966.4</ele>
        <time>2022-08-14T13:45:03Z</time>
      </trkpt>
      <trkpt lat="40.8466450" lon="-8.1934250">
        <ele>966.6</ele>
        <time>2022-08-14T13:45:06Z</time>
      </trkpt>
      <trkpt lat="40.8466890" lon="-8.1933470">
        <ele>967.4</ele>
        <time>2022-08-14T13:45:12Z</time>
      </trkpt>
      <trkpt lat="40.8467080" lon="-8.1933170">
        <ele>967.6</ele>
        <time>2022-08-14T13:45:14Z</time>
      </trkpt>
      <trkpt lat="40.8467410" lon="-8.1932680">
        <ele>968.6</ele>
        <time>2022-08-14T13:45:18Z</time>
      </trkpt>
      <trkpt lat="40.8467640" lon="-8.1932460">
        <ele>968.8</ele>
        <time>2022-08-14T13:45:20Z</time>
      </trkpt>
      <trkpt lat="40.8467740" lon="-8.1932340">
        <ele>968.8</ele>
        <time>2022-08-14T13:45:21Z</time>
      </trkpt>
      <trkpt lat="40.8468370" lon="-8.1931550">
        <ele>970.2</ele>
        <time>2022-08-14T13:45:27Z</time>
      </trkpt>
      <trkpt lat="40.8468530" lon="-8.1931280">
        <ele>970.6</ele>
        <time>2022-08-14T13:45:29Z</time>
      </trkpt>
      <trkpt lat="40.8468600" lon="-8.1930940">
        <ele>971.0</ele>
        <time>2022-08-14T13:45:31Z</time>
      </trkpt>
      <trkpt lat="40.8468800" lon="-8.1930580">
        <ele>971.2</ele>
        <time>2022-08-14T13:45:34Z</time>
      </trkpt>
      <trkpt lat="40.8469450" lon="-8.1929500">
        <ele>972.2</ele>
        <time>2022-08-14T13:45:42Z</time>
      </trkpt>
      <trkpt lat="40.8469500" lon="-8.1929370">
        <ele>972.4</ele>
        <time>2022-08-14T13:45:43Z</time>
      </trkpt>
      <trkpt lat="40.8469880" lon="-8.1928230">
        <ele>973.4</ele>
        <time>2022-08-14T13:45:50Z</time>
      </trkpt>
      <trkpt lat="40.8469840" lon="-8.1926630">
        <ele>974.6</ele>
        <time>2022-08-14T13:45:59Z</time>
      </trkpt>
      <trkpt lat="40.8469690" lon="-8.1926260">
        <ele>974.8</ele>
        <time>2022-08-14T13:46:02Z</time>
      </trkpt>
      <trkpt lat="40.8469380" lon="-8.1926040">
        <ele>975.2</ele>
        <time>2022-08-14T13:46:05Z</time>
      </trkpt>
      <trkpt lat="40.8469090" lon="-8.1925900">
        <ele>975.8</ele>
        <time>2022-08-14T13:46:08Z</time>
      </trkpt>
      <trkpt lat="40.8469040" lon="-8.1925890">
        <ele>976.0</ele>
        <time>2022-08-14T13:46:10Z</time>
      </trkpt>
      <trkpt lat="40.8468140" lon="-8.1926770">
        <ele>978.4</ele>
        <time>2022-08-14T13:47:40Z</time>
      </trkpt>
      <trkpt lat="40.8467290" lon="-8.1928130">
        <ele>978.6</ele>
        <time>2022-08-14T13:47:48Z</time>
      </trkpt>
      <trkpt lat="40.8466670" lon="-8.1929300">
        <ele>979.4</ele>
        <time>2022-08-14T13:47:56Z</time>
      </trkpt>
      <trkpt lat="40.8466570" lon="-8.1929470">
        <ele>979.6</ele>
        <time>2022-08-14T13:47:57Z</time>
      </trkpt>
      <trkpt lat="40.8465650" lon="-8.1930390">
        <ele>980.4</ele>
        <time>2022-08-14T13:48:04Z</time>
      </trkpt>
      <trkpt lat="40.8464760" lon="-8.1931030">
        <ele>980.6</ele>
        <time>2022-08-14T13:48:11Z</time>
      </trkpt>
      <trkpt lat="40.8464160" lon="-8.1931360">
        <ele>981.0</ele>
        <time>2022-08-14T13:48:15Z</time>
      </trkpt>
      <trkpt lat="40.8463230" lon="-8.1931680">
        <ele>981.8</ele>
        <time>2022-08-14T13:48:21Z</time>
      </trkpt>
      <trkpt lat="40.8462800" lon="-8.1931860">
        <ele>981.8</ele>
        <time>2022-08-14T13:48:24Z</time>
      </trkpt>
      <trkpt lat="40.8461650" lon="-8.1932090">
        <ele>982.8</ele>
        <time>2022-08-14T13:48:32Z</time>
      </trkpt>
      <trkpt lat="40.8461140" lon="-8.1932140">
        <ele>983.2</ele>
        <time>2022-08-14T13:48:35Z</time>
      </trkpt>
      <trkpt lat="40.8460490" lon="-8.1932330">
        <ele>984.0</ele>
        <time>2022-08-14T13:48:40Z</time>
      </trkpt>
      <trkpt lat="40.8459660" lon="-8.1932620">
        <ele>985.0</ele>
        <time>2022-08-14T13:48:45Z</time>
      </trkpt>
      <trkpt lat="40.8459520" lon="-8.1932660">
        <ele>985.2</ele>
        <time>2022-08-14T13:48:46Z</time>
      </trkpt>
      <trkpt lat="40.8458710" lon="-8.1932930">
        <ele>986.0</ele>
        <time>2022-08-14T13:48:52Z</time>
      </trkpt>
      <trkpt lat="40.8458580" lon="-8.1932970">
        <ele>986.2</ele>
        <time>2022-08-14T13:48:53Z</time>
      </trkpt>
      <trkpt lat="40.8457680" lon="-8.1932970">
        <ele>986.8</ele>
        <time>2022-08-14T13:48:59Z</time>
      </trkpt>
      <trkpt lat="40.8457400" lon="-8.1932940">
        <ele>987.2</ele>
        <time>2022-08-14T13:49:01Z</time>
      </trkpt>
      <trkpt lat="40.8457270" lon="-8.1932910">
        <ele>987.2</ele>
        <time>2022-08-14T13:49:02Z</time>
      </trkpt>
      <trkpt lat="40.8456790" lon="-8.1932860">
        <ele>987.6</ele>
        <time>2022-08-14T13:49:05Z</time>
      </trkpt>
      <trkpt lat="40.8456130" lon="-8.1932780">
        <ele>988.2</ele>
        <time>2022-08-14T13:49:09Z</time>
      </trkpt>
      <trkpt lat="40.8455610" lon="-8.1932950">
        <ele>989.0</ele>
        <time>2022-08-14T13:49:13Z</time>
      </trkpt>
      <trkpt lat="40.8455060" lon="-8.1933070">
        <ele>989.6</ele>
        <time>2022-08-14T13:49:17Z</time>
      </trkpt>
      <trkpt lat="40.8454610" lon="-8.1933120">
        <ele>990.0</ele>
        <time>2022-08-14T13:49:20Z</time>
      </trkpt>
      <trkpt lat="40.8454060" lon="-8.1933050">
        <ele>990.6</ele>
        <time>2022-08-14T13:49:24Z</time>
      </trkpt>
      <trkpt lat="40.8453440" lon="-8.1932980">
        <ele>991.6</ele>
        <time>2022-08-14T13:49:28Z</time>
      </trkpt>
      <trkpt lat="40.8453290" lon="-8.1932950">
        <ele>991.8</ele>
        <time>2022-08-14T13:49:29Z</time>
      </trkpt>
      <trkpt lat="40.8452320" lon="-8.1932920">
        <ele>993.0</ele>
        <time>2022-08-14T13:49:36Z</time>
      </trkpt>
      <trkpt lat="40.8451930" lon="-8.1932900">
        <ele>993.2</ele>
        <time>2022-08-14T13:49:39Z</time>
      </trkpt>
      <trkpt lat="40.8451420" lon="-8.1932890">
        <ele>994.0</ele>
        <time>2022-08-14T13:49:43Z</time>
      </trkpt>
      <trkpt lat="40.8450460" lon="-8.1932930">
        <ele>995.2</ele>
        <time>2022-08-14T13:49:49Z</time>
      </trkpt>
      <trkpt lat="40.8449540" lon="-8.1932680">
        <ele>996.2</ele>
        <time>2022-08-14T13:49:55Z</time>
      </trkpt>
      <trkpt lat="40.8449450" lon="-8.1932640">
        <ele>996.4</ele>
        <time>2022-08-14T13:49:56Z</time>
      </trkpt>
      <trkpt lat="40.8449340" lon="-8.1932670">
        <ele>996.4</ele>
        <time>2022-08-14T13:49:57Z</time>
      </trkpt>
      <trkpt lat="40.8449210" lon="-8.1932700">
        <ele>996.6</ele>
        <time>2022-08-14T13:49:58Z</time>
      </trkpt>
      <trkpt lat="40.8448450" lon="-8.1932540">
        <ele>997.0</ele>
        <time>2022-08-14T13:50:04Z</time>
      </trkpt>
      <trkpt lat="40.8448130" lon="-8.1932490">
        <ele>997.2</ele>
        <time>2022-08-14T13:50:06Z</time>
      </trkpt>
      <trkpt lat="40.8447390" lon="-8.1932330">
        <ele>998.0</ele>
        <time>2022-08-14T13:50:11Z</time>
      </trkpt>
      <trkpt lat="40.8446790" lon="-8.1932200">
        <ele>998.2</ele>
        <time>2022-08-14T13:50:15Z</time>
      </trkpt>
      <trkpt lat="40.8446310" lon="-8.1932120">
        <ele>998.6</ele>
        <time>2022-08-14T13:50:18Z</time>
      </trkpt>
      <trkpt lat="40.8445550" lon="-8.1932170">
        <ele>999.4</ele>
        <time>2022-08-14T13:50:23Z</time>
      </trkpt>
      <trkpt lat="40.8445290" lon="-8.1932060">
        <ele>999.6</ele>
        <time>2022-08-14T13:50:25Z</time>
      </trkpt>
      <trkpt lat="40.8444110" lon="-8.1931570">
        <ele>1000.4</ele>
        <time>2022-08-14T13:50:33Z</time>
      </trkpt>
      <trkpt lat="40.8443920" lon="-8.1931540">
        <ele>1000.4</ele>
        <time>2022-08-14T13:50:34Z</time>
      </trkpt>
      <trkpt lat="40.8443230" lon="-8.1931350">
        <ele>1000.8</ele>
        <time>2022-08-14T13:50:38Z</time>
      </trkpt>
      <trkpt lat="40.8442920" lon="-8.1931310">
        <ele>1000.8</ele>
        <time>2022-08-14T13:50:40Z</time>
      </trkpt>
      <trkpt lat="40.8441920" lon="-8.1931070">
        <ele>1001.6</ele>
        <time>2022-08-14T13:50:46Z</time>
      </trkpt>
      <trkpt lat="40.8441420" lon="-8.1930910">
        <ele>1001.8</ele>
        <time>2022-08-14T13:50:49Z</time>
      </trkpt>
      <trkpt lat="40.8440170" lon="-8.1930650">
        <ele>1002.4</ele>
        <time>2022-08-14T13:50:57Z</time>
      </trkpt>
      <trkpt lat="40.8440050" lon="-8.1930570">
        <ele>1002.6</ele>
        <time>2022-08-14T13:50:58Z</time>
      </trkpt>
      <trkpt lat="40.8439100" lon="-8.1930490">
        <ele>1003.2</ele>
        <time>2022-08-14T13:51:05Z</time>
      </trkpt>
      <trkpt lat="40.8438470" lon="-8.1930550">
        <ele>1003.4</ele>
        <time>2022-08-14T13:51:10Z</time>
      </trkpt>
      <trkpt lat="40.8438350" lon="-8.1930570">
        <ele>1003.6</ele>
        <time>2022-08-14T13:51:11Z</time>
      </trkpt>
      <trkpt lat="40.8438210" lon="-8.1930550">
        <ele>1003.8</ele>
        <time>2022-08-14T13:51:12Z</time>
      </trkpt>
      <trkpt lat="40.8438100" lon="-8.1930490">
        <ele>1003.8</ele>
        <time>2022-08-14T13:51:13Z</time>
      </trkpt>
      <trkpt lat="40.8437810" lon="-8.1930460">
        <ele>1004.0</ele>
        <time>2022-08-14T13:51:15Z</time>
      </trkpt>
      <trkpt lat="40.8437340" lon="-8.1930400">
        <ele>1004.2</ele>
        <time>2022-08-14T13:51:19Z</time>
      </trkpt>
      <trkpt lat="40.8436730" lon="-8.1930380">
        <ele>1004.6</ele>
        <time>2022-08-14T13:51:23Z</time>
      </trkpt>
      <trkpt lat="40.8436370" lon="-8.1930340">
        <ele>1004.8</ele>
        <time>2022-08-14T13:51:26Z</time>
      </trkpt>
      <trkpt lat="40.8435910" lon="-8.1930270">
        <ele>1005.6</ele>
        <time>2022-08-14T13:51:29Z</time>
      </trkpt>
      <trkpt lat="40.8435780" lon="-8.1930290">
        <ele>1005.6</ele>
        <time>2022-08-14T13:51:30Z</time>
      </trkpt>
      <trkpt lat="40.8435490" lon="-8.1930280">
        <ele>1006.0</ele>
        <time>2022-08-14T13:51:32Z</time>
      </trkpt>
      <trkpt lat="40.8434810" lon="-8.1930020">
        <ele>1006.8</ele>
        <time>2022-08-14T13:51:37Z</time>
      </trkpt>
      <trkpt lat="40.8434450" lon="-8.1929990">
        <ele>1007.0</ele>
        <time>2022-08-14T13:51:40Z</time>
      </trkpt>
      <trkpt lat="40.8434210" lon="-8.1929970">
        <ele>1007.4</ele>
        <time>2022-08-14T13:51:42Z</time>
      </trkpt>
      <trkpt lat="40.8433750" lon="-8.1930040">
        <ele>1007.8</ele>
        <time>2022-08-14T13:51:46Z</time>
      </trkpt>
      <trkpt lat="40.8433630" lon="-8.1930030">
        <ele>1008.2</ele>
        <time>2022-08-14T13:51:47Z</time>
      </trkpt>
      <trkpt lat="40.8433500" lon="-8.1929990">
        <ele>1008.4</ele>
        <time>2022-08-14T13:51:48Z</time>
      </trkpt>
      <trkpt lat="40.8433350" lon="-8.1929720">
        <ele>1008.8</ele>
        <time>2022-08-14T13:51:50Z</time>
      </trkpt>
      <trkpt lat="40.8433330" lon="-8.1929440">
        <ele>1009.2</ele>
        <time>2022-08-14T13:51:52Z</time>
      </trkpt>
      <trkpt lat="40.8433350" lon="-8.1929110">
        <ele>1009.6</ele>
        <time>2022-08-14T13:51:54Z</time>
      </trkpt>
      <trkpt lat="40.8433530" lon="-8.1928990">
        <ele>1009.8</ele>
        <time>2022-08-14T13:51:56Z</time>
      </trkpt>
      <trkpt lat="40.8433650" lon="-8.1928890">
        <ele>1010.2</ele>
        <time>2022-08-14T13:51:57Z</time>
      </trkpt>
      <trkpt lat="40.8434040" lon="-8.1928380">
        <ele>1011.2</ele>
        <time>2022-08-14T13:52:01Z</time>
      </trkpt>
      <trkpt lat="40.8434280" lon="-8.1928140">
        <ele>1011.6</ele>
        <time>2022-08-14T13:52:03Z</time>
      </trkpt>
      <trkpt lat="40.8434390" lon="-8.1928080">
        <ele>1012.4</ele>
        <time>2022-08-14T13:52:04Z</time>
      </trkpt>
      <trkpt lat="40.8434480" lon="-8.1927980">
        <ele>1012.6</ele>
        <time>2022-08-14T13:52:05Z</time>
      </trkpt>
      <trkpt lat="40.8434670" lon="-8.1927820">
        <ele>1013.4</ele>
        <time>2022-08-14T13:52:07Z</time>
      </trkpt>
      <trkpt lat="40.8435080" lon="-8.1927420">
        <ele>1014.6</ele>
        <time>2022-08-14T13:52:11Z</time>
      </trkpt>
      <trkpt lat="40.8435300" lon="-8.1927020">
        <ele>1015.2</ele>
        <time>2022-08-14T13:52:14Z</time>
      </trkpt>
      <trkpt lat="40.8435490" lon="-8.1926550">
        <ele>1015.8</ele>
        <time>2022-08-14T13:52:17Z</time>
      </trkpt>
      <trkpt lat="40.8435420" lon="-8.1925850">
        <ele>1016.6</ele>
        <time>2022-08-14T13:52:21Z</time>
      </trkpt>
      <trkpt lat="40.8435420" lon="-8.1925620">
        <ele>1017.0</ele>
        <time>2022-08-14T13:52:22Z</time>
      </trkpt>
      <trkpt lat="40.8435360" lon="-8.1923720">
        <ele>1017.6</ele>
        <time>2022-08-14T13:52:27Z</time>
      </trkpt>
      <trkpt lat="40.8435050" lon="-8.1921870">
        <ele>1017.6</ele>
        <time>2022-08-14T13:52:33Z</time>
      </trkpt>
      <trkpt lat="40.8434990" lon="-8.1920760">
        <ele>1016.8</ele>
        <time>2022-08-14T13:52:38Z</time>
      </trkpt>
      <trkpt lat="40.8435110" lon="-8.1920180">
        <ele>1016.8</ele>
        <time>2022-08-14T13:52:41Z</time>
      </trkpt>
      <trkpt lat="40.8435210" lon="-8.1919190">
        <ele>1016.0</ele>
        <time>2022-08-14T13:52:46Z</time>
      </trkpt>
      <trkpt lat="40.8435130" lon="-8.1917670">
        <ele>1015.8</ele>
        <time>2022-08-14T13:52:54Z</time>
      </trkpt>
      <trkpt lat="40.8435080" lon="-8.1917320">
        <ele>1015.8</ele>
        <time>2022-08-14T13:52:57Z</time>
      </trkpt>
      <trkpt lat="40.8434910" lon="-8.1917260">
        <ele>1016.0</ele>
        <time>2022-08-14T13:52:59Z</time>
      </trkpt>
      <trkpt lat="40.8433940" lon="-8.1916310">
        <ele>1017.2</ele>
        <time>2022-08-14T13:53:07Z</time>
      </trkpt>
      <trkpt lat="40.8433470" lon="-8.1916240">
        <ele>1017.4</ele>
        <time>2022-08-14T13:53:11Z</time>
      </trkpt>
      <trkpt lat="40.8433380" lon="-8.1916110">
        <ele>1017.6</ele>
        <time>2022-08-14T13:53:13Z</time>
      </trkpt>
      <trkpt lat="40.8433370" lon="-8.1916120">
        <ele>1017.8</ele>
        <time>2022-08-14T13:53:14Z</time>
      </trkpt>
      <trkpt lat="40.8433350" lon="-8.1916120">
        <ele>1018.4</ele>
        <time>2022-08-14T13:53:16Z</time>
      </trkpt>
      <trkpt lat="40.8433370" lon="-8.1916100">
        <ele>1019.0</ele>
        <time>2022-08-14T13:53:18Z</time>
      </trkpt>
      <trkpt lat="40.8430410" lon="-8.1916890">
        <ele>1019.6</ele>
        <time>2022-08-14T14:02:49Z</time>
      </trkpt>
      <trkpt lat="40.8430200" lon="-8.1916930">
        <ele>1019.8</ele>
        <time>2022-08-14T14:02:51Z</time>
      </trkpt>
      <trkpt lat="40.8429390" lon="-8.1917070">
        <ele>1020.6</ele>
        <time>2022-08-14T14:02:57Z</time>
      </trkpt>
      <trkpt lat="40.8428860" lon="-8.1917150">
        <ele>1021.0</ele>
        <time>2022-08-14T14:03:00Z</time>
      </trkpt>
      <trkpt lat="40.8428240" lon="-8.1917310">
        <ele>1021.6</ele>
        <time>2022-08-14T14:03:04Z</time>
      </trkpt>
      <trkpt lat="40.8427790" lon="-8.1917370">
        <ele>1022.0</ele>
        <time>2022-08-14T14:03:07Z</time>
      </trkpt>
      <trkpt lat="40.8427000" lon="-8.1917520">
        <ele>1022.6</ele>
        <time>2022-08-14T14:03:14Z</time>
      </trkpt>
      <trkpt lat="40.8426870" lon="-8.1917520">
        <ele>1022.8</ele>
        <time>2022-08-14T14:03:15Z</time>
      </trkpt>
      <trkpt lat="40.8425870" lon="-8.1917710">
        <ele>1023.6</ele>
        <time>2022-08-14T14:03:23Z</time>
      </trkpt>
      <trkpt lat="40.8425790" lon="-8.1917790">
        <ele>1023.8</ele>
        <time>2022-08-14T14:03:24Z</time>
      </trkpt>
      <trkpt lat="40.8425430" lon="-8.1918040">
        <ele>1024.0</ele>
        <time>2022-08-14T14:03:28Z</time>
      </trkpt>
      <trkpt lat="40.8424840" lon="-8.1917840">
        <ele>1024.4</ele>
        <time>2022-08-14T14:03:34Z</time>
      </trkpt>
      <trkpt lat="40.8424780" lon="-8.1917690">
        <ele>1024.6</ele>
        <time>2022-08-14T14:03:35Z</time>
      </trkpt>
      <trkpt lat="40.8424780" lon="-8.1917550">
        <ele>1025.0</ele>
        <time>2022-08-14T14:03:36Z</time>
      </trkpt>
      <trkpt lat="40.8425010" lon="-8.1917150">
        <ele>1025.8</ele>
        <time>2022-08-14T14:03:39Z</time>
      </trkpt>
      <trkpt lat="40.8425120" lon="-8.1916850">
        <ele>1026.0</ele>
        <time>2022-08-14T14:03:41Z</time>
      </trkpt>
      <trkpt lat="40.8425460" lon="-8.1915650">
        <ele>1027.0</ele>
        <time>2022-08-14T14:03:49Z</time>
      </trkpt>
      <trkpt lat="40.8425660" lon="-8.1914740">
        <ele>1028.0</ele>
        <time>2022-08-14T14:03:55Z</time>
      </trkpt>
      <trkpt lat="40.8425700" lon="-8.1914140">
        <ele>1028.2</ele>
        <time>2022-08-14T14:03:59Z</time>
      </trkpt>
      <trkpt lat="40.8425850" lon="-8.1912550">
        <ele>1029.0</ele>
        <time>2022-08-14T14:04:09Z</time>
      </trkpt>
      <trkpt lat="40.8425900" lon="-8.1912400">
        <ele>1029.0</ele>
        <time>2022-08-14T14:04:10Z</time>
      </trkpt>
      <trkpt lat="40.8426000" lon="-8.1911270">
        <ele>1030.0</ele>
        <time>2022-08-14T14:04:17Z</time>
      </trkpt>
      <trkpt lat="40.8425980" lon="-8.1910450">
        <ele>1030.4</ele>
        <time>2022-08-14T14:04:22Z</time>
      </trkpt>
      <trkpt lat="40.8426070" lon="-8.1910020">
        <ele>1030.8</ele>
        <time>2022-08-14T14:04:25Z</time>
      </trkpt>
      <trkpt lat="40.8425890" lon="-8.1908950">
        <ele>1031.2</ele>
        <time>2022-08-14T14:04:32Z</time>
      </trkpt>
      <trkpt lat="40.8425900" lon="-8.1908760">
        <ele>1031.2</ele>
        <time>2022-08-14T14:04:33Z</time>
      </trkpt>
      <trkpt lat="40.8425900" lon="-8.1908020">
        <ele>1032.0</ele>
        <time>2022-08-14T14:04:38Z</time>
      </trkpt>
      <trkpt lat="40.8425920" lon="-8.1907880">
        <ele>1032.2</ele>
        <time>2022-08-14T14:04:39Z</time>
      </trkpt>
      <trkpt lat="40.8425910" lon="-8.1907740">
        <ele>1032.6</ele>
        <time>2022-08-14T14:04:40Z</time>
      </trkpt>
      <trkpt lat="40.8426030" lon="-8.1906470">
        <ele>1033.4</ele>
        <time>2022-08-14T14:04:47Z</time>
      </trkpt>
      <trkpt lat="40.8426120" lon="-8.1905810">
        <ele>1033.4</ele>
        <time>2022-08-14T14:04:50Z</time>
      </trkpt>
      <trkpt lat="40.8425970" lon="-8.1904230">
        <ele>1034.4</ele>
        <time>2022-08-14T14:04:58Z</time>
      </trkpt>
      <trkpt lat="40.8425930" lon="-8.1904090">
        <ele>1034.6</ele>
        <time>2022-08-14T14:04:59Z</time>
      </trkpt>
      <trkpt lat="40.8425770" lon="-8.1903390">
        <ele>1034.8</ele>
        <time>2022-08-14T14:05:03Z</time>
      </trkpt>
      <trkpt lat="40.8425680" lon="-8.1903050">
        <ele>1035.0</ele>
        <time>2022-08-14T14:05:05Z</time>
      </trkpt>
      <trkpt lat="40.8425630" lon="-8.1902480">
        <ele>1035.4</ele>
        <time>2022-08-14T14:05:09Z</time>
      </trkpt>
      <trkpt lat="40.8425610" lon="-8.1902410">
        <ele>1035.8</ele>
        <time>2022-08-14T14:05:14Z</time>
      </trkpt>
      <trkpt lat="40.8424740" lon="-8.1903780">
        <ele>1036.4</ele>
        <time>2022-08-14T14:08:08Z</time>
      </trkpt>
      <trkpt lat="40.8424660" lon="-8.1903750">
        <ele>1036.4</ele>
        <time>2022-08-14T14:08:09Z</time>
      </trkpt>
      <trkpt lat="40.8424590" lon="-8.1903680">
        <ele>1036.6</ele>
        <time>2022-08-14T14:08:10Z</time>
      </trkpt>
      <trkpt lat="40.8424560" lon="-8.1903630">
        <ele>1036.6</ele>
        <time>2022-08-14T14:08:13Z</time>
      </trkpt>
      <trkpt lat="40.8425020" lon="-8.1903740">
        <ele>1037.2</ele>
        <time>2022-08-14T14:08:20Z</time>
      </trkpt>
      <trkpt lat="40.8425310" lon="-8.1903830">
        <ele>1037.6</ele>
        <time>2022-08-14T14:08:22Z</time>
      </trkpt>
      <trkpt lat="40.8425640" lon="-8.1903670">
        <ele>1037.6</ele>
        <time>2022-08-14T14:08:25Z</time>
      </trkpt>
      <trkpt lat="40.8425490" lon="-8.1902750">
        <ele>1037.8</ele>
        <time>2022-08-14T14:08:30Z</time>
      </trkpt>
      <trkpt lat="40.8424760" lon="-8.1900510">
        <ele>1037.8</ele>
        <time>2022-08-14T14:08:38Z</time>
      </trkpt>
      <trkpt lat="40.8424050" lon="-8.1897980">
        <ele>1037.6</ele>
        <time>2022-08-14T14:08:46Z</time>
      </trkpt>
      <trkpt lat="40.8423760" lon="-8.1896290">
        <ele>1037.8</ele>
        <time>2022-08-14T14:08:52Z</time>
      </trkpt>
      <trkpt lat="40.8423420" lon="-8.1894850">
        <ele>1038.0</ele>
        <time>2022-08-14T14:08:58Z</time>
      </trkpt>
      <trkpt lat="40.8422800" lon="-8.1893340">
        <ele>1038.4</ele>
        <time>2022-08-14T14:09:04Z</time>
      </trkpt>
      <trkpt lat="40.8422590" lon="-8.1892830">
        <ele>1038.6</ele>
        <time>2022-08-14T14:09:06Z</time>
      </trkpt>
      <trkpt lat="40.8422110" lon="-8.1892030">
        <ele>1038.8</ele>
        <time>2022-08-14T14:09:10Z</time>
      </trkpt>
      <trkpt lat="40.8421290" lon="-8.1890290">
        <ele>1039.8</ele>
        <time>2022-08-14T14:09:18Z</time>
      </trkpt>
      <trkpt lat="40.8420670" lon="-8.1888380">
        <ele>1040.8</ele>
        <time>2022-08-14T14:09:27Z</time>
      </trkpt>
      <trkpt lat="40.8420620" lon="-8.1888230">
        <ele>1041.0</ele>
        <time>2022-08-14T14:09:28Z</time>
      </trkpt>
      <trkpt lat="40.8420180" lon="-8.1887120">
        <ele>1041.6</ele>
        <time>2022-08-14T14:09:34Z</time>
      </trkpt>
      <trkpt lat="40.8419770" lon="-8.1886570">
        <ele>1042.0</ele>
        <time>2022-08-14T14:09:38Z</time>
      </trkpt>
      <trkpt lat="40.8419330" lon="-8.1886140">
        <ele>1042.2</ele>
        <time>2022-08-14T14:09:42Z</time>
      </trkpt>
      <trkpt lat="40.8418950" lon="-8.1885950">
        <ele>1042.4</ele>
        <time>2022-08-14T14:09:45Z</time>
      </trkpt>
      <trkpt lat="40.8418380" lon="-8.1886270">
        <ele>1042.8</ele>
        <time>2022-08-14T14:09:49Z</time>
      </trkpt>
      <trkpt lat="40.8418240" lon="-8.1886310">
        <ele>1043.0</ele>
        <time>2022-08-14T14:09:50Z</time>
      </trkpt>
      <trkpt lat="40.8417850" lon="-8.1885940">
        <ele>1043.6</ele>
        <time>2022-08-14T14:09:53Z</time>
      </trkpt>
      <trkpt lat="40.8417530" lon="-8.1885340">
        <ele>1044.0</ele>
        <time>2022-08-14T14:09:56Z</time>
      </trkpt>
      <trkpt lat="40.8417280" lon="-8.1884830">
        <ele>1044.4</ele>
        <time>2022-08-14T14:09:59Z</time>
      </trkpt>
      <trkpt lat="40.8416940" lon="-8.1884250">
        <ele>1045.2</ele>
        <time>2022-08-14T14:10:03Z</time>
      </trkpt>
      <trkpt lat="40.8416870" lon="-8.1884090">
        <ele>1045.0</ele>
        <time>2022-08-14T14:10:04Z</time>
      </trkpt>
      <trkpt lat="40.8416580" lon="-8.1883510">
        <ele>1045.4</ele>
        <time>2022-08-14T14:10:07Z</time>
      </trkpt>
      <trkpt lat="40.8416230" lon="-8.1882990">
        <ele>1046.0</ele>
        <time>2022-08-14T14:10:10Z</time>
      </trkpt>
      <trkpt lat="40.8415700" lon="-8.1882030">
        <ele>1046.4</ele>
        <time>2022-08-14T14:10:15Z</time>
      </trkpt>
      <trkpt lat="40.8415020" lon="-8.1880920">
        <ele>1047.0</ele>
        <time>2022-08-14T14:10:21Z</time>
      </trkpt>
      <trkpt lat="40.8414900" lon="-8.1880710">
        <ele>1047.0</ele>
        <time>2022-08-14T14:10:22Z</time>
      </trkpt>
      <trkpt lat="40.8413910" lon="-8.1878720">
        <ele>1047.6</ele>
        <time>2022-08-14T14:10:32Z</time>
      </trkpt>
      <trkpt lat="40.8413430" lon="-8.1877650">
        <ele>1048.0</ele>
        <time>2022-08-14T14:10:37Z</time>
      </trkpt>
      <trkpt lat="40.8412900" lon="-8.1876610">
        <ele>1048.4</ele>
        <time>2022-08-14T14:10:42Z</time>
      </trkpt>
      <trkpt lat="40.8411310" lon="-8.1874550">
        <ele>1048.8</ele>
        <time>2022-08-14T14:10:54Z</time>
      </trkpt>
      <trkpt lat="40.8410690" lon="-8.1873990">
        <ele>1049.0</ele>
        <time>2022-08-14T14:10:58Z</time>
      </trkpt>
      <trkpt lat="40.8409310" lon="-8.1873080">
        <ele>1050.2</ele>
        <time>2022-08-14T14:11:05Z</time>
      </trkpt>
      <trkpt lat="40.8407110" lon="-8.1872060">
        <ele>1051.2</ele>
        <time>2022-08-14T14:11:15Z</time>
      </trkpt>
      <trkpt lat="40.8405570" lon="-8.1871450">
        <ele>1052.4</ele>
        <time>2022-08-14T14:11:22Z</time>
      </trkpt>
      <trkpt lat="40.8404480" lon="-8.1871100">
        <ele>1053.0</ele>
        <time>2022-08-14T14:11:27Z</time>
      </trkpt>
      <trkpt lat="40.8403390" lon="-8.1870790">
        <ele>1053.4</ele>
        <time>2022-08-14T14:11:32Z</time>
      </trkpt>
      <trkpt lat="40.8402750" lon="-8.1870570">
        <ele>1053.8</ele>
        <time>2022-08-14T14:11:35Z</time>
      </trkpt>
      <trkpt lat="40.8400610" lon="-8.1869840">
        <ele>1054.4</ele>
        <time>2022-08-14T14:11:45Z</time>
      </trkpt>
      <trkpt lat="40.8400250" lon="-8.1869640">
        <ele>1054.4</ele>
        <time>2022-08-14T14:11:47Z</time>
      </trkpt>
      <trkpt lat="40.8400000" lon="-8.1869420">
        <ele>1054.4</ele>
        <time>2022-08-14T14:11:49Z</time>
      </trkpt>
      <trkpt lat="40.8399870" lon="-8.1869420">
        <ele>1054.4</ele>
        <time>2022-08-14T14:11:50Z</time>
      </trkpt>
      <trkpt lat="40.8399780" lon="-8.1869500">
        <ele>1054.4</ele>
        <time>2022-08-14T14:11:51Z</time>
      </trkpt>
      <trkpt lat="40.8399570" lon="-8.1869570">
        <ele>1054.6</ele>
        <time>2022-08-14T14:11:54Z</time>
      </trkpt>
      <trkpt lat="40.8398480" lon="-8.1869150">
        <ele>1054.6</ele>
        <time>2022-08-14T14:12:00Z</time>
      </trkpt>
      <trkpt lat="40.8396960" lon="-8.1868760">
        <ele>1054.8</ele>
        <time>2022-08-14T14:12:07Z</time>
      </trkpt>
      <trkpt lat="40.8396260" lon="-8.1868180">
        <ele>1054.8</ele>
        <time>2022-08-14T14:12:12Z</time>
      </trkpt>
      <trkpt lat="40.8395350" lon="-8.1867080">
        <ele>1055.0</ele>
        <time>2022-08-14T14:12:18Z</time>
      </trkpt>
      <trkpt lat="40.8394730" lon="-8.1864660">
        <ele>1055.6</ele>
        <time>2022-08-14T14:12:26Z</time>
      </trkpt>
      <trkpt lat="40.8394730" lon="-8.1864360">
        <ele>1055.8</ele>
        <time>2022-08-14T14:12:27Z</time>
      </trkpt>
      <trkpt lat="40.8394980" lon="-8.1863030">
        <ele>1057.0</ele>
        <time>2022-08-14T14:12:32Z</time>
      </trkpt>
      <trkpt lat="40.8395080" lon="-8.1862590">
        <ele>1057.2</ele>
        <time>2022-08-14T14:12:34Z</time>
      </trkpt>
      <trkpt lat="40.8395300" lon="-8.1861410">
        <ele>1057.8</ele>
        <time>2022-08-14T14:12:40Z</time>
      </trkpt>
      <trkpt lat="40.8395340" lon="-8.1860980">
        <ele>1058.0</ele>
        <time>2022-08-14T14:12:42Z</time>
      </trkpt>
      <trkpt lat="40.8395580" lon="-8.1859910">
        <ele>1059.0</ele>
        <time>2022-08-14T14:12:47Z</time>
      </trkpt>
      <trkpt lat="40.8395610" lon="-8.1859670">
        <ele>1059.0</ele>
        <time>2022-08-14T14:12:48Z</time>
      </trkpt>
      <trkpt lat="40.8395850" lon="-8.1858090">
        <ele>1060.0</ele>
        <time>2022-08-14T14:12:55Z</time>
      </trkpt>
      <trkpt lat="40.8395880" lon="-8.1857870">
        <ele>1060.4</ele>
        <time>2022-08-14T14:12:56Z</time>
      </trkpt>
      <trkpt lat="40.8395980" lon="-8.1856490">
        <ele>1061.2</ele>
        <time>2022-08-14T14:13:02Z</time>
      </trkpt>
      <trkpt lat="40.8396030" lon="-8.1855190">
        <ele>1061.8</ele>
        <time>2022-08-14T14:13:08Z</time>
      </trkpt>
      <trkpt lat="40.8396130" lon="-8.1854100">
        <ele>1062.2</ele>
        <time>2022-08-14T14:13:13Z</time>
      </trkpt>
      <trkpt lat="40.8396170" lon="-8.1852650">
        <ele>1062.8</ele>
        <time>2022-08-14T14:13:19Z</time>
      </trkpt>
      <trkpt lat="40.8396160" lon="-8.1851940">
        <ele>1063.2</ele>
        <time>2022-08-14T14:13:22Z</time>
      </trkpt>
      <trkpt lat="40.8396280" lon="-8.1850510">
        <ele>1064.4</ele>
        <time>2022-08-14T14:13:29Z</time>
      </trkpt>
      <trkpt lat="40.8396270" lon="-8.1850280">
        <ele>1064.4</ele>
        <time>2022-08-14T14:13:30Z</time>
      </trkpt>
      <trkpt lat="40.8396260" lon="-8.1848700">
        <ele>1065.4</ele>
        <time>2022-08-14T14:13:38Z</time>
      </trkpt>
      <trkpt lat="40.8396260" lon="-8.1848520">
        <ele>1065.6</ele>
        <time>2022-08-14T14:13:39Z</time>
      </trkpt>
      <trkpt lat="40.8396220" lon="-8.1847790">
        <ele>1066.6</ele>
        <time>2022-08-14T14:13:43Z</time>
      </trkpt>
      <trkpt lat="40.8396100" lon="-8.1846840">
        <ele>1067.4</ele>
        <time>2022-08-14T14:13:48Z</time>
      </trkpt>
      <trkpt lat="40.8396020" lon="-8.1846330">
        <ele>1067.8</ele>
        <time>2022-08-14T14:13:51Z</time>
      </trkpt>
      <trkpt lat="40.8395840" lon="-8.1845900">
        <ele>1068.0</ele>
        <time>2022-08-14T14:13:54Z</time>
      </trkpt>
      <trkpt lat="40.8395720" lon="-8.1845600">
        <ele>1068.2</ele>
        <time>2022-08-14T14:13:56Z</time>
      </trkpt>
      <trkpt lat="40.8395440" lon="-8.1844930">
        <ele>1068.6</ele>
        <time>2022-08-14T14:14:01Z</time>
      </trkpt>
      <trkpt lat="40.8395360" lon="-8.1844810">
        <ele>1069.0</ele>
        <time>2022-08-14T14:14:02Z</time>
      </trkpt>
      <trkpt lat="40.8395020" lon="-8.1844360">
        <ele>1069.6</ele>
        <time>2022-08-14T14:14:06Z</time>
      </trkpt>
      <trkpt lat="40.8394500" lon="-8.1843840">
        <ele>1070.8</ele>
        <time>2022-08-14T14:14:11Z</time>
      </trkpt>
      <trkpt lat="40.8394070" lon="-8.1843580">
        <ele>1071.2</ele>
        <time>2022-08-14T14:14:14Z</time>
      </trkpt>
      <trkpt lat="40.8393820" lon="-8.1843400">
        <ele>1071.8</ele>
        <time>2022-08-14T14:14:16Z</time>
      </trkpt>
      <trkpt lat="40.8393280" lon="-8.1843320">
        <ele>1072.6</ele>
        <time>2022-08-14T14:14:21Z</time>
      </trkpt>
      <trkpt lat="40.8393150" lon="-8.1843260">
        <ele>1073.0</ele>
        <time>2022-08-14T14:14:22Z</time>
      </trkpt>
      <trkpt lat="40.8392000" lon="-8.1842660">
        <ele>1074.4</ele>
        <time>2022-08-14T14:14:30Z</time>
      </trkpt>
      <trkpt lat="40.8391620" lon="-8.1842490">
        <ele>1074.8</ele>
        <time>2022-08-14T14:14:33Z</time>
      </trkpt>
      <trkpt lat="40.8391330" lon="-8.1842340">
        <ele>1075.0</ele>
        <time>2022-08-14T14:14:36Z</time>
      </trkpt>
      <trkpt lat="40.8390440" lon="-8.1842220">
        <ele>1075.4</ele>
        <time>2022-08-14T14:14:42Z</time>
      </trkpt>
      <trkpt lat="40.8389930" lon="-8.1841970">
        <ele>1075.4</ele>
        <time>2022-08-14T14:14:45Z</time>
      </trkpt>
      <trkpt lat="40.8388850" lon="-8.1841110">
        <ele>1075.6</ele>
        <time>2022-08-14T14:14:52Z</time>
      </trkpt>
      <trkpt lat="40.8387570" lon="-8.1839860">
        <ele>1076.4</ele>
        <time>2022-08-14T14:15:00Z</time>
      </trkpt>
      <trkpt lat="40.8387430" lon="-8.1839680">
        <ele>1076.6</ele>
        <time>2022-08-14T14:15:01Z</time>
      </trkpt>
      <trkpt lat="40.8386440" lon="-8.1838170">
        <ele>1077.6</ele>
        <time>2022-08-14T14:15:09Z</time>
      </trkpt>
      <trkpt lat="40.8386290" lon="-8.1838040">
        <ele>1077.6</ele>
        <time>2022-08-14T14:15:10Z</time>
      </trkpt>
      <trkpt lat="40.8385730" lon="-8.1836700">
        <ele>1078.4</ele>
        <time>2022-08-14T14:15:16Z</time>
      </trkpt>
      <trkpt lat="40.8385670" lon="-8.1836450">
        <ele>1078.6</ele>
        <time>2022-08-14T14:15:17Z</time>
      </trkpt>
      <trkpt lat="40.8385440" lon="-8.1834820">
        <ele>1079.8</ele>
        <time>2022-08-14T14:15:23Z</time>
      </trkpt>
      <trkpt lat="40.8385400" lon="-8.1834210">
        <ele>1080.0</ele>
        <time>2022-08-14T14:15:25Z</time>
      </trkpt>
      <trkpt lat="40.8385140" lon="-8.1831740">
        <ele>1080.8</ele>
        <time>2022-08-14T14:15:33Z</time>
      </trkpt>
      <trkpt lat="40.8384600" lon="-8.1827700">
        <ele>1081.8</ele>
        <time>2022-08-14T14:15:45Z</time>
      </trkpt>
      <trkpt lat="40.8384450" lon="-8.1826360">
        <ele>1081.8</ele>
        <time>2022-08-14T14:15:49Z</time>
      </trkpt>
      <trkpt lat="40.8384110" lon="-8.1824420">
        <ele>1082.2</ele>
        <time>2022-08-14T14:15:55Z</time>
      </trkpt>
      <trkpt lat="40.8383540" lon="-8.1821280">
        <ele>1082.4</ele>
        <time>2022-08-14T14:16:05Z</time>
      </trkpt>
      <trkpt lat="40.8383030" lon="-8.1819370">
        <ele>1083.0</ele>
        <time>2022-08-14T14:16:12Z</time>
      </trkpt>
      <trkpt lat="40.8382680" lon="-8.1818130">
        <ele>1083.4</ele>
        <time>2022-08-14T14:16:17Z</time>
      </trkpt>
      <trkpt lat="40.8381940" lon="-8.1816190">
        <ele>1083.6</ele>
        <time>2022-08-14T14:16:25Z</time>
      </trkpt>
      <trkpt lat="40.8381570" lon="-8.1813790">
        <ele>1083.8</ele>
        <time>2022-08-14T14:16:32Z</time>
      </trkpt>
      <trkpt lat="40.8381250" lon="-8.1812820">
        <ele>1083.8</ele>
        <time>2022-08-14T14:16:35Z</time>
      </trkpt>
      <trkpt lat="40.8381040" lon="-8.1811490">
        <ele>1084.2</ele>
        <time>2022-08-14T14:16:39Z</time>
      </trkpt>
      <trkpt lat="40.8380150" lon="-8.1807940">
        <ele>1084.2</ele>
        <time>2022-08-14T14:16:49Z</time>
      </trkpt>
      <trkpt lat="40.8379760" lon="-8.1806450">
        <ele>1084.8</ele>
        <time>2022-08-14T14:16:53Z</time>
      </trkpt>
      <trkpt lat="40.8379670" lon="-8.1806070">
        <ele>1084.8</ele>
        <time>2022-08-14T14:16:54Z</time>
      </trkpt>
      <trkpt lat="40.8379240" lon="-8.1804250">
        <ele>1085.4</ele>
        <time>2022-08-14T14:16:59Z</time>
      </trkpt>
      <trkpt lat="40.8378440" lon="-8.1801300">
        <ele>1086.0</ele>
        <time>2022-08-14T14:17:07Z</time>
      </trkpt>
      <trkpt lat="40.8378340" lon="-8.1800920">
        <ele>1086.0</ele>
        <time>2022-08-14T14:17:08Z</time>
      </trkpt>
      <trkpt lat="40.8377690" lon="-8.1798200">
        <ele>1087.0</ele>
        <time>2022-08-14T14:17:16Z</time>
      </trkpt>
      <trkpt lat="40.8377630" lon="-8.1797780">
        <ele>1087.0</ele>
        <time>2022-08-14T14:17:17Z</time>
      </trkpt>
      <trkpt lat="40.8377730" lon="-8.1794590">
        <ele>1087.2</ele>
        <time>2022-08-14T14:17:25Z</time>
      </trkpt>
      <trkpt lat="40.8378500" lon="-8.1790040">
        <ele>1087.2</ele>
        <time>2022-08-14T14:17:35Z</time>
      </trkpt>
      <trkpt lat="40.8378320" lon="-8.1786440">
        <ele>1086.6</ele>
        <time>2022-08-14T14:17:42Z</time>
      </trkpt>
      <trkpt lat="40.8377790" lon="-8.1784160">
        <ele>1086.0</ele>
        <time>2022-08-14T14:17:47Z</time>
      </trkpt>
      <trkpt lat="40.8377270" lon="-8.1783180">
        <ele>1085.8</ele>
        <time>2022-08-14T14:17:49Z</time>
      </trkpt>
      <trkpt lat="40.8376950" lon="-8.1782700">
        <ele>1085.8</ele>
        <time>2022-08-14T14:17:50Z</time>
      </trkpt>
      <trkpt lat="40.8375680" lon="-8.1781290">
        <ele>1085.0</ele>
        <time>2022-08-14T14:17:53Z</time>
      </trkpt>
      <trkpt lat="40.8374300" lon="-8.1779500">
        <ele>1083.6</ele>
        <time>2022-08-14T14:17:56Z</time>
      </trkpt>
      <trkpt lat="40.8373550" lon="-8.1777950">
        <ele>1082.8</ele>
        <time>2022-08-14T14:17:58Z</time>
      </trkpt>
      <trkpt lat="40.8373210" lon="-8.1777070">
        <ele>1082.6</ele>
        <time>2022-08-14T14:17:59Z</time>
      </trkpt>
      <trkpt lat="40.8372930" lon="-8.1776140">
        <ele>1082.2</ele>
        <time>2022-08-14T14:18:00Z</time>
      </trkpt>
      <trkpt lat="40.8372690" lon="-8.1774170">
        <ele>1081.6</ele>
        <time>2022-08-14T14:18:02Z</time>
      </trkpt>
      <trkpt lat="40.8372720" lon="-8.1773230">
        <ele>1081.4</ele>
        <time>2022-08-14T14:18:03Z</time>
      </trkpt>
      <trkpt lat="40.8372980" lon="-8.1770490">
        <ele>1081.0</ele>
        <time>2022-08-14T14:18:06Z</time>
      </trkpt>
      <trkpt lat="40.8372840" lon="-8.1768880">
        <ele>1080.4</ele>
        <time>2022-08-14T14:18:08Z</time>
      </trkpt>
      <trkpt lat="40.8372650" lon="-8.1768210">
        <ele>1080.4</ele>
        <time>2022-08-14T14:18:09Z</time>
      </trkpt>
      <trkpt lat="40.8372380" lon="-8.1767650">
        <ele>1080.2</ele>
        <time>2022-08-14T14:18:10Z</time>
      </trkpt>
      <trkpt lat="40.8371590" lon="-8.1766520">
        <ele>1079.6</ele>
        <time>2022-08-14T14:18:13Z</time>
      </trkpt>
      <trkpt lat="40.8371510" lon="-8.1766330">
        <ele>1079.0</ele>
        <time>2022-08-14T14:18:14Z</time>
      </trkpt>
      <trkpt lat="40.8371700" lon="-8.1766230">
        <ele>1078.2</ele>
        <time>2022-08-14T14:18:16Z</time>
      </trkpt>
      <trkpt lat="40.8371850" lon="-8.1766320">
        <ele>1078.0</ele>
        <time>2022-08-14T14:18:17Z</time>
      </trkpt>
      <trkpt lat="40.8372440" lon="-8.1766960">
        <ele>1077.2</ele>
        <time>2022-08-14T14:18:21Z</time>
      </trkpt>
      <trkpt lat="40.8372530" lon="-8.1767060">
        <ele>1077.2</ele>
        <time>2022-08-14T14:18:22Z</time>
      </trkpt>
      <trkpt lat="40.8372560" lon="-8.1767070">
        <ele>1077.0</ele>
        <time>2022-08-14T14:18:24Z</time>
      </trkpt>
      <trkpt lat="40.8372170" lon="-8.1767100">
        <ele>1076.8</ele>
        <time>2022-08-14T14:19:05Z</time>
      </trkpt>
      <trkpt lat="40.8371100" lon="-8.1766180">
        <ele>1076.4</ele>
        <time>2022-08-14T14:19:10Z</time>
      </trkpt>
      <trkpt lat="40.8370010" lon="-8.1765370">
        <ele>1076.0</ele>
        <time>2022-08-14T14:19:13Z</time>
      </trkpt>
      <trkpt lat="40.8369030" lon="-8.1764870">
        <ele>1075.8</ele>
        <time>2022-08-14T14:19:15Z</time>
      </trkpt>
      <trkpt lat="40.8365140" lon="-8.1763180">
        <ele>1074.8</ele>
        <time>2022-08-14T14:19:21Z</time>
      </trkpt>
      <trkpt lat="40.8363420" lon="-8.1762220">
        <ele>1073.8</ele>
        <time>2022-08-14T14:19:23Z</time>
      </trkpt>
      <trkpt lat="40.8362550" lon="-8.1761490">
        <ele>1073.4</ele>
        <time>2022-08-14T14:19:24Z</time>
      </trkpt>
      <trkpt lat="40.8361740" lon="-8.1760610">
        <ele>1072.8</ele>
        <time>2022-08-14T14:19:25Z</time>
      </trkpt>
      <trkpt lat="40.8360360" lon="-8.1758460">
        <ele>1071.8</ele>
        <time>2022-08-14T14:19:27Z</time>
      </trkpt>
      <trkpt lat="40.8359770" lon="-8.1757350">
        <ele>1071.0</ele>
        <time>2022-08-14T14:19:28Z</time>
      </trkpt>
      <trkpt lat="40.8359260" lon="-8.1756340">
        <ele>1069.8</ele>
        <time>2022-08-14T14:19:29Z</time>
      </trkpt>
      <trkpt lat="40.8358400" lon="-8.1754430">
        <ele>1068.6</ele>
        <time>2022-08-14T14:19:31Z</time>
      </trkpt>
      <trkpt lat="40.8357580" lon="-8.1752610">
        <ele>1067.4</ele>
        <time>2022-08-14T14:19:33Z</time>
      </trkpt>
      <trkpt lat="40.8357180" lon="-8.1751740">
        <ele>1066.2</ele>
        <time>2022-08-14T14:19:34Z</time>
      </trkpt>
      <trkpt lat="40.8356370" lon="-8.1750100">
        <ele>1065.0</ele>
        <time>2022-08-14T14:19:36Z</time>
      </trkpt>
      <trkpt lat="40.8356020" lon="-8.1749320">
        <ele>1064.6</ele>
        <time>2022-08-14T14:19:37Z</time>
      </trkpt>
      <trkpt lat="40.8355000" lon="-8.1747120">
        <ele>1064.0</ele>
        <time>2022-08-14T14:19:40Z</time>
      </trkpt>
      <trkpt lat="40.8354360" lon="-8.1745940">
        <ele>1063.0</ele>
        <time>2022-08-14T14:19:42Z</time>
      </trkpt>
      <trkpt lat="40.8354060" lon="-8.1745420">
        <ele>1062.6</ele>
        <time>2022-08-14T14:19:43Z</time>
      </trkpt>
      <trkpt lat="40.8353310" lon="-8.1744190">
        <ele>1061.4</ele>
        <time>2022-08-14T14:19:46Z</time>
      </trkpt>
      <trkpt lat="40.8353100" lon="-8.1743890">
        <ele>1061.2</ele>
        <time>2022-08-14T14:19:47Z</time>
      </trkpt>
      <trkpt lat="40.8352150" lon="-8.1742700">
        <ele>1060.8</ele>
        <time>2022-08-14T14:19:52Z</time>
      </trkpt>
      <trkpt lat="40.8350800" lon="-8.1740960">
        <ele>1061.2</ele>
        <time>2022-08-14T14:19:59Z</time>
      </trkpt>
      <trkpt lat="40.8349140" lon="-8.1738690">
        <ele>1061.4</ele>
        <time>2022-08-14T14:20:07Z</time>
      </trkpt>
      <trkpt lat="40.8347180" lon="-8.1735840">
        <ele>1062.4</ele>
        <time>2022-08-14T14:20:16Z</time>
      </trkpt>
      <trkpt lat="40.8346940" lon="-8.1735530">
        <ele>1062.4</ele>
        <time>2022-08-14T14:20:17Z</time>
      </trkpt>
      <trkpt lat="40.8344730" lon="-8.1733620">
        <ele>1063.0</ele>
        <time>2022-08-14T14:20:25Z</time>
      </trkpt>
      <trkpt lat="40.8343420" lon="-8.1732900">
        <ele>1063.4</ele>
        <time>2022-08-14T14:20:29Z</time>
      </trkpt>
      <trkpt lat="40.8341670" lon="-8.1732110">
        <ele>1064.2</ele>
        <time>2022-08-14T14:20:34Z</time>
      </trkpt>
      <trkpt lat="40.8341320" lon="-8.1731980">
        <ele>1064.6</ele>
        <time>2022-08-14T14:20:35Z</time>
      </trkpt>
      <trkpt lat="40.8339050" lon="-8.1731030">
        <ele>1065.6</ele>
        <time>2022-08-14T14:20:42Z</time>
      </trkpt>
      <trkpt lat="40.8338490" lon="-8.1730730">
        <ele>1065.6</ele>
        <time>2022-08-14T14:20:44Z</time>
      </trkpt>
      <trkpt lat="40.8337250" lon="-8.1729840">
        <ele>1066.2</ele>
        <time>2022-08-14T14:20:50Z</time>
      </trkpt>
      <trkpt lat="40.8336630" lon="-8.1729390">
        <ele>1066.8</ele>
        <time>2022-08-14T14:20:53Z</time>
      </trkpt>
      <trkpt lat="40.8335640" lon="-8.1728590">
        <ele>1067.8</ele>
        <time>2022-08-14T14:20:57Z</time>
      </trkpt>
      <trkpt lat="40.8335390" lon="-8.1728360">
        <ele>1068.0</ele>
        <time>2022-08-14T14:20:58Z</time>
      </trkpt>
      <trkpt lat="40.8332940" lon="-8.1726250">
        <ele>1068.4</ele>
        <time>2022-08-14T14:21:08Z</time>
      </trkpt>
      <trkpt lat="40.8330870" lon="-8.1724550">
        <ele>1068.2</ele>
        <time>2022-08-14T14:21:15Z</time>
      </trkpt>
      <trkpt lat="40.8330260" lon="-8.1723960">
        <ele>1067.8</ele>
        <time>2022-08-14T14:21:20Z</time>
      </trkpt>
      <trkpt lat="40.8330260" lon="-8.1723960">
        <ele>1067.8</ele>
        <time>2022-08-14T14:21:21Z</time>
      </trkpt>
      <trkpt lat="40.8329890" lon="-8.1723690">
        <ele>1068.4</ele>
        <time>2022-08-14T14:21:36Z</time>
      </trkpt>
      <trkpt lat="40.8329480" lon="-8.1723310">
        <ele>1068.4</ele>
        <time>2022-08-14T14:21:38Z</time>
      </trkpt>
      <trkpt lat="40.8327900" lon="-8.1721990">
        <ele>1068.0</ele>
        <time>2022-08-14T14:21:43Z</time>
      </trkpt>
      <trkpt lat="40.8326610" lon="-8.1721200">
        <ele>1067.2</ele>
        <time>2022-08-14T14:21:48Z</time>
      </trkpt>
      <trkpt lat="40.8326430" lon="-8.1721080">
        <ele>1066.8</ele>
        <time>2022-08-14T14:21:49Z</time>
      </trkpt>
      <trkpt lat="40.8325560" lon="-8.1720650">
        <ele>1065.8</ele>
        <time>2022-08-14T14:21:53Z</time>
      </trkpt>
      <trkpt lat="40.8325320" lon="-8.1720620">
        <ele>1065.8</ele>
        <time>2022-08-14T14:21:54Z</time>
      </trkpt>
      <trkpt lat="40.8325090" lon="-8.1720590">
        <ele>1065.0</ele>
        <time>2022-08-14T14:21:59Z</time>
      </trkpt>
      <trkpt lat="40.8324850" lon="-8.1720560">
        <ele>1064.8</ele>
        <time>2022-08-14T14:22:00Z</time>
      </trkpt>
      <trkpt lat="40.8324620" lon="-8.1720520">
        <ele>1065.0</ele>
        <time>2022-08-14T14:22:30Z</time>
      </trkpt>
      <trkpt lat="40.8324380" lon="-8.1720490">
        <ele>1065.0</ele>
        <time>2022-08-14T14:22:31Z</time>
      </trkpt>
      <trkpt lat="40.8323830" lon="-8.1720580">
        <ele>1065.0</ele>
        <time>2022-08-14T14:22:32Z</time>
      </trkpt>
      <trkpt lat="40.8322430" lon="-8.1721100">
        <ele>1064.6</ele>
        <time>2022-08-14T14:22:34Z</time>
      </trkpt>
      <trkpt lat="40.8319570" lon="-8.1722180">
        <ele>1063.4</ele>
        <time>2022-08-14T14:22:37Z</time>
      </trkpt>
      <trkpt lat="40.8318410" lon="-8.1722460">
        <ele>1063.2</ele>
        <time>2022-08-14T14:22:38Z</time>
      </trkpt>
      <trkpt lat="40.8317170" lon="-8.1722610">
        <ele>1062.2</ele>
        <time>2022-08-14T14:22:39Z</time>
      </trkpt>
      <trkpt lat="40.8315890" lon="-8.1722610">
        <ele>1062.0</ele>
        <time>2022-08-14T14:22:40Z</time>
      </trkpt>
      <trkpt lat="40.8314580" lon="-8.1722410">
        <ele>1061.0</ele>
        <time>2022-08-14T14:22:41Z</time>
      </trkpt>
      <trkpt lat="40.8312020" lon="-8.1721500">
        <ele>1059.6</ele>
        <time>2022-08-14T14:22:43Z</time>
      </trkpt>
      <trkpt lat="40.8310780" lon="-8.1720810">
        <ele>1058.4</ele>
        <time>2022-08-14T14:22:44Z</time>
      </trkpt>
      <trkpt lat="40.8308440" lon="-8.1719110">
        <ele>1055.6</ele>
        <time>2022-08-14T14:22:46Z</time>
      </trkpt>
      <trkpt lat="40.8307370" lon="-8.1718110">
        <ele>1054.6</ele>
        <time>2022-08-14T14:22:47Z</time>
      </trkpt>
      <trkpt lat="40.8306420" lon="-8.1716970">
        <ele>1053.2</ele>
        <time>2022-08-14T14:22:48Z</time>
      </trkpt>
      <trkpt lat="40.8305600" lon="-8.1715680">
        <ele>1052.4</ele>
        <time>2022-08-14T14:22:49Z</time>
      </trkpt>
      <trkpt lat="40.8304870" lon="-8.1714360">
        <ele>1052.0</ele>
        <time>2022-08-14T14:22:50Z</time>
      </trkpt>
      <trkpt lat="40.8304180" lon="-8.1713010">
        <ele>1050.0</ele>
        <time>2022-08-14T14:22:51Z</time>
      </trkpt>
      <trkpt lat="40.8303590" lon="-8.1711610">
        <ele>1049.2</ele>
        <time>2022-08-14T14:22:52Z</time>
      </trkpt>
      <trkpt lat="40.8303120" lon="-8.1710190">
        <ele>1048.2</ele>
        <time>2022-08-14T14:22:53Z</time>
      </trkpt>
      <trkpt lat="40.8302360" lon="-8.1707690">
        <ele>1046.8</ele>
        <time>2022-08-14T14:22:55Z</time>
      </trkpt>
      <trkpt lat="40.8301870" lon="-8.1706560">
        <ele>1045.8</ele>
        <time>2022-08-14T14:22:56Z</time>
      </trkpt>
      <trkpt lat="40.8300770" lon="-8.1704400">
        <ele>1044.6</ele>
        <time>2022-08-14T14:22:58Z</time>
      </trkpt>
      <trkpt lat="40.8298360" lon="-8.1700720">
        <ele>1043.2</ele>
        <time>2022-08-14T14:23:02Z</time>
      </trkpt>
      <trkpt lat="40.8296450" lon="-8.1698350">
        <ele>1042.2</ele>
        <time>2022-08-14T14:23:05Z</time>
      </trkpt>
      <trkpt lat="40.8295230" lon="-8.1696800">
        <ele>1041.2</ele>
        <time>2022-08-14T14:23:07Z</time>
      </trkpt>
      <trkpt lat="40.8294610" lon="-8.1696060">
        <ele>1040.8</ele>
        <time>2022-08-14T14:23:08Z</time>
      </trkpt>
      <trkpt lat="40.8293420" lon="-8.1694470">
        <ele>1040.0</ele>
        <time>2022-08-14T14:23:10Z</time>
      </trkpt>
      <trkpt lat="40.8291890" lon="-8.1692020">
        <ele>1039.6</ele>
        <time>2022-08-14T14:23:13Z</time>
      </trkpt>
      <trkpt lat="40.8288510" lon="-8.1686630">
        <ele>1039.0</ele>
        <time>2022-08-14T14:23:20Z</time>
      </trkpt>
      <trkpt lat="40.8288130" lon="-8.1685860">
        <ele>1038.8</ele>
        <time>2022-08-14T14:23:21Z</time>
      </trkpt>
      <trkpt lat="40.8286520" lon="-8.1682460">
        <ele>1038.6</ele>
        <time>2022-08-14T14:23:26Z</time>
      </trkpt>
      <trkpt lat="40.8285160" lon="-8.1680150">
        <ele>1039.0</ele>
        <time>2022-08-14T14:23:31Z</time>
      </trkpt>
      <trkpt lat="40.8284000" lon="-8.1678500">
        <ele>1040.0</ele>
        <time>2022-08-14T14:23:36Z</time>
      </trkpt>
      <trkpt lat="40.8283420" lon="-8.1677910">
        <ele>1040.6</ele>
        <time>2022-08-14T14:23:38Z</time>
      </trkpt>
      <trkpt lat="40.8282620" lon="-8.1677120">
        <ele>1041.0</ele>
        <time>2022-08-14T14:23:41Z</time>
      </trkpt>
      <trkpt lat="40.8280340" lon="-8.1675200">
        <ele>1041.8</ele>
        <time>2022-08-14T14:23:48Z</time>
      </trkpt>
      <trkpt lat="40.8278420" lon="-8.1673620">
        <ele>1042.2</ele>
        <time>2022-08-14T14:23:54Z</time>
      </trkpt>
      <trkpt lat="40.8277860" lon="-8.1673160">
        <ele>1042.4</ele>
        <time>2022-08-14T14:23:56Z</time>
      </trkpt>
      <trkpt lat="40.8276020" lon="-8.1671730">
        <ele>1043.2</ele>
        <time>2022-08-14T14:24:02Z</time>
      </trkpt>
      <trkpt lat="40.8274860" lon="-8.1670710">
        <ele>1043.8</ele>
        <time>2022-08-14T14:24:06Z</time>
      </trkpt>
      <trkpt lat="40.8274330" lon="-8.1670360">
        <ele>1044.2</ele>
        <time>2022-08-14T14:24:08Z</time>
      </trkpt>
      <trkpt lat="40.8273450" lon="-8.1669580">
        <ele>1045.2</ele>
        <time>2022-08-14T14:24:12Z</time>
      </trkpt>
      <trkpt lat="40.8273230" lon="-8.1669370">
        <ele>1045.6</ele>
        <time>2022-08-14T14:24:13Z</time>
      </trkpt>
      <trkpt lat="40.8271920" lon="-8.1668410">
        <ele>1046.8</ele>
        <time>2022-08-14T14:24:19Z</time>
      </trkpt>
      <trkpt lat="40.8270120" lon="-8.1667530">
        <ele>1047.6</ele>
        <time>2022-08-14T14:24:26Z</time>
      </trkpt>
      <trkpt lat="40.8267250" lon="-8.1666770">
        <ele>1047.8</ele>
        <time>2022-08-14T14:24:36Z</time>
      </trkpt>
      <trkpt lat="40.8264410" lon="-8.1666570">
        <ele>1048.0</ele>
        <time>2022-08-14T14:24:45Z</time>
      </trkpt>
      <trkpt lat="40.8261360" lon="-8.1666420">
        <ele>1048.0</ele>
        <time>2022-08-14T14:24:54Z</time>
      </trkpt>
      <trkpt lat="40.8259140" lon="-8.1666350">
        <ele>1048.0</ele>
        <time>2022-08-14T14:25:01Z</time>
      </trkpt>
      <trkpt lat="40.8256030" lon="-8.1666190">
        <ele>1048.0</ele>
        <time>2022-08-14T14:25:10Z</time>
      </trkpt>
      <trkpt lat="40.8253170" lon="-8.1666050">
        <ele>1047.8</ele>
        <time>2022-08-14T14:25:20Z</time>
      </trkpt>
      <trkpt lat="40.8253070" lon="-8.1665950">
        <ele>1047.8</ele>
        <time>2022-08-14T14:25:24Z</time>
      </trkpt>
      <trkpt lat="40.8252900" lon="-8.1665990">
        <ele>1048.0</ele>
        <time>2022-08-14T14:26:08Z</time>
      </trkpt>
      <trkpt lat="40.8252440" lon="-8.1666090">
        <ele>1048.0</ele>
        <time>2022-08-14T14:26:11Z</time>
      </trkpt>
      <trkpt lat="40.8251010" lon="-8.1666210">
        <ele>1047.8</ele>
        <time>2022-08-14T14:26:16Z</time>
      </trkpt>
      <trkpt lat="40.8248570" lon="-8.1665860">
        <ele>1047.8</ele>
        <time>2022-08-14T14:26:23Z</time>
      </trkpt>
      <trkpt lat="40.8246060" lon="-8.1665030">
        <ele>1047.8</ele>
        <time>2022-08-14T14:26:30Z</time>
      </trkpt>
      <trkpt lat="40.8242570" lon="-8.1663380">
        <ele>1047.0</ele>
        <time>2022-08-14T14:26:39Z</time>
      </trkpt>
      <trkpt lat="40.8242130" lon="-8.1663200">
        <ele>1046.8</ele>
        <time>2022-08-14T14:26:40Z</time>
      </trkpt>
      <trkpt lat="40.8240290" lon="-8.1662490">
        <ele>1045.6</ele>
        <time>2022-08-14T14:26:44Z</time>
      </trkpt>
      <trkpt lat="40.8239830" lon="-8.1662360">
        <ele>1045.4</ele>
        <time>2022-08-14T14:26:45Z</time>
      </trkpt>
      <trkpt lat="40.8238920" lon="-8.1662230">
        <ele>1045.2</ele>
        <time>2022-08-14T14:26:47Z</time>
      </trkpt>
      <trkpt lat="40.8237100" lon="-8.1662150">
        <ele>1044.6</ele>
        <time>2022-08-14T14:26:51Z</time>
      </trkpt>
      <trkpt lat="40.8234910" lon="-8.1661940">
        <ele>1043.8</ele>
        <time>2022-08-14T14:26:55Z</time>
      </trkpt>
      <trkpt lat="40.8234310" lon="-8.1661870">
        <ele>1043.6</ele>
        <time>2022-08-14T14:26:56Z</time>
      </trkpt>
      <trkpt lat="40.8231420" lon="-8.1661360">
        <ele>1042.0</ele>
        <time>2022-08-14T14:27:01Z</time>
      </trkpt>
      <trkpt lat="40.8230320" lon="-8.1661040">
        <ele>1040.6</ele>
        <time>2022-08-14T14:27:03Z</time>
      </trkpt>
      <trkpt lat="40.8228570" lon="-8.1660320">
        <ele>1039.4</ele>
        <time>2022-08-14T14:27:06Z</time>
      </trkpt>
      <trkpt lat="40.8226460" lon="-8.1659600">
        <ele>1037.8</ele>
        <time>2022-08-14T14:27:09Z</time>
      </trkpt>
      <trkpt lat="40.8225670" lon="-8.1659330">
        <ele>1037.6</ele>
        <time>2022-08-14T14:27:10Z</time>
      </trkpt>
      <trkpt lat="40.8223810" lon="-8.1658610">
        <ele>1036.6</ele>
        <time>2022-08-14T14:27:12Z</time>
      </trkpt>
      <trkpt lat="40.8221710" lon="-8.1657680">
        <ele>1035.2</ele>
        <time>2022-08-14T14:27:14Z</time>
      </trkpt>
      <trkpt lat="40.8220890" lon="-8.1657240">
        <ele>1033.6</ele>
        <time>2022-08-14T14:27:15Z</time>
      </trkpt>
      <trkpt lat="40.8219840" lon="-8.1656660">
        <ele>1032.6</ele>
        <time>2022-08-14T14:27:16Z</time>
      </trkpt>
      <trkpt lat="40.8217830" lon="-8.1655450">
        <ele>1031.2</ele>
        <time>2022-08-14T14:27:18Z</time>
      </trkpt>
      <trkpt lat="40.8216950" lon="-8.1654930">
        <ele>1029.8</ele>
        <time>2022-08-14T14:27:19Z</time>
      </trkpt>
      <trkpt lat="40.8216110" lon="-8.1654480">
        <ele>1028.2</ele>
        <time>2022-08-14T14:27:20Z</time>
      </trkpt>
      <trkpt lat="40.8214620" lon="-8.1653670">
        <ele>1026.2</ele>
        <time>2022-08-14T14:27:22Z</time>
      </trkpt>
      <trkpt lat="40.8213990" lon="-8.1653280">
        <ele>1024.4</ele>
        <time>2022-08-14T14:27:23Z</time>
      </trkpt>
      <trkpt lat="40.8212960" lon="-8.1652710">
        <ele>1022.8</ele>
        <time>2022-08-14T14:27:25Z</time>
      </trkpt>
      <trkpt lat="40.8212550" lon="-8.1652480">
        <ele>1022.4</ele>
        <time>2022-08-14T14:27:26Z</time>
      </trkpt>
      <trkpt lat="40.8212170" lon="-8.1652200">
        <ele>1021.6</ele>
        <time>2022-08-14T14:27:27Z</time>
      </trkpt>
      <trkpt lat="40.8211440" lon="-8.1651790">
        <ele>1020.0</ele>
        <time>2022-08-14T14:27:29Z</time>
      </trkpt>
      <trkpt lat="40.8211100" lon="-8.1651850">
        <ele>1019.6</ele>
        <time>2022-08-14T14:27:30Z</time>
      </trkpt>
      <trkpt lat="40.8210850" lon="-8.1652070">
        <ele>1019.2</ele>
        <time>2022-08-14T14:27:31Z</time>
      </trkpt>
      <trkpt lat="40.8210880" lon="-8.1652380">
        <ele>1018.4</ele>
        <time>2022-08-14T14:27:32Z</time>
      </trkpt>
      <trkpt lat="40.8211300" lon="-8.1652540">
        <ele>1017.0</ele>
        <time>2022-08-14T14:27:34Z</time>
      </trkpt>
      <trkpt lat="40.8211340" lon="-8.1652430">
        <ele>1017.0</ele>
        <time>2022-08-14T14:27:35Z</time>
      </trkpt>
      <trkpt lat="40.8211260" lon="-8.1652260">
        <ele>1016.4</ele>
        <time>2022-08-14T14:27:36Z</time>
      </trkpt>
      <trkpt lat="40.8211100" lon="-8.1652030">
        <ele>1016.2</ele>
        <time>2022-08-14T14:27:37Z</time>
      </trkpt>
      <trkpt lat="40.8210690" lon="-8.1651350">
        <ele>1015.8</ele>
        <time>2022-08-14T14:27:40Z</time>
      </trkpt>
      <trkpt lat="40.8210250" lon="-8.1650580">
        <ele>1015.0</ele>
        <time>2022-08-14T14:27:44Z</time>
      </trkpt>
      <trkpt lat="40.8210190" lon="-8.1650580">
        <ele>1015.0</ele>
        <time>2022-08-14T14:27:45Z</time>
      </trkpt>
      <trkpt lat="40.8210190" lon="-8.1650580">
        <ele>1015.0</ele>
        <time>2022-08-14T14:27:46Z</time>
      </trkpt>
      <trkpt lat="40.8210150" lon="-8.1650080">
        <ele>1015.4</ele>
        <time>2022-08-14T14:28:48Z</time>
      </trkpt>
      <trkpt lat="40.8210490" lon="-8.1649920">
        <ele>1015.6</ele>
        <time>2022-08-14T14:28:50Z</time>
      </trkpt>
      <trkpt lat="40.8210690" lon="-8.1650590">
        <ele>1016.2</ele>
        <time>2022-08-14T14:28:54Z</time>
      </trkpt>
      <trkpt lat="40.8210680" lon="-8.1651020">
        <ele>1016.4</ele>
        <time>2022-08-14T14:28:56Z</time>
      </trkpt>
      <trkpt lat="40.8211060" lon="-8.1652770">
        <ele>1016.4</ele>
        <time>2022-08-14T14:29:04Z</time>
      </trkpt>
      <trkpt lat="40.8211990" lon="-8.1654680">
        <ele>1016.2</ele>
        <time>2022-08-14T14:29:11Z</time>
      </trkpt>
      <trkpt lat="40.8213460" lon="-8.1656590">
        <ele>1016.0</ele>
        <time>2022-08-14T14:29:16Z</time>
      </trkpt>
      <trkpt lat="40.8214730" lon="-8.1658130">
        <ele>1015.4</ele>
        <time>2022-08-14T14:29:19Z</time>
      </trkpt>
      <trkpt lat="40.8215640" lon="-8.1659250">
        <ele>1015.0</ele>
        <time>2022-08-14T14:29:21Z</time>
      </trkpt>
      <trkpt lat="40.8216920" lon="-8.1660770">
        <ele>1014.2</ele>
        <time>2022-08-14T14:29:24Z</time>
      </trkpt>
      <trkpt lat="40.8218930" lon="-8.1663330">
        <ele>1013.0</ele>
        <time>2022-08-14T14:29:29Z</time>
      </trkpt>
      <trkpt lat="40.8221610" lon="-8.1666800">
        <ele>1012.0</ele>
        <time>2022-08-14T14:29:36Z</time>
      </trkpt>
      <trkpt lat="40.8221920" lon="-8.1667330">
        <ele>1012.0</ele>
        <time>2022-08-14T14:29:37Z</time>
      </trkpt>
      <trkpt lat="40.8222160" lon="-8.1667950">
        <ele>1011.8</ele>
        <time>2022-08-14T14:29:38Z</time>
      </trkpt>
      <trkpt lat="40.8222230" lon="-8.1669310">
        <ele>1011.8</ele>
        <time>2022-08-14T14:29:40Z</time>
      </trkpt>
      <trkpt lat="40.8221500" lon="-8.1672700">
        <ele>1011.4</ele>
        <time>2022-08-14T14:29:45Z</time>
      </trkpt>
      <trkpt lat="40.8220500" lon="-8.1675900">
        <ele>1011.0</ele>
        <time>2022-08-14T14:29:49Z</time>
      </trkpt>
      <trkpt lat="40.8220210" lon="-8.1676740">
        <ele>1010.8</ele>
        <time>2022-08-14T14:29:50Z</time>
      </trkpt>
      <trkpt lat="40.8218760" lon="-8.1681010">
        <ele>1009.8</ele>
        <time>2022-08-14T14:29:55Z</time>
      </trkpt>
      <trkpt lat="40.8217520" lon="-8.1684560">
        <ele>1008.2</ele>
        <time>2022-08-14T14:29:59Z</time>
      </trkpt>
      <trkpt lat="40.8216620" lon="-8.1687220">
        <ele>1007.2</ele>
        <time>2022-08-14T14:30:02Z</time>
      </trkpt>
      <trkpt lat="40.8215630" lon="-8.1690280">
        <ele>1005.8</ele>
        <time>2022-08-14T14:30:06Z</time>
      </trkpt>
      <trkpt lat="40.8215380" lon="-8.1691020">
        <ele>1005.6</ele>
        <time>2022-08-14T14:30:07Z</time>
      </trkpt>
      <trkpt lat="40.8214340" lon="-8.1693820">
        <ele>1004.8</ele>
        <time>2022-08-14T14:30:11Z</time>
      </trkpt>
      <trkpt lat="40.8213950" lon="-8.1694940">
        <ele>1004.6</ele>
        <time>2022-08-14T14:30:13Z</time>
      </trkpt>
      <trkpt lat="40.8212350" lon="-8.1699460">
        <ele>1003.6</ele>
        <time>2022-08-14T14:30:20Z</time>
      </trkpt>
      <trkpt lat="40.8211630" lon="-8.1700920">
        <ele>1003.4</ele>
        <time>2022-08-14T14:30:22Z</time>
      </trkpt>
      <trkpt lat="40.8210320" lon="-8.1702490">
        <ele>1002.8</ele>
        <time>2022-08-14T14:30:25Z</time>
      </trkpt>
      <trkpt lat="40.8209620" lon="-8.1703150">
        <ele>1002.6</ele>
        <time>2022-08-14T14:30:26Z</time>
      </trkpt>
      <trkpt lat="40.8207080" lon="-8.1705260">
        <ele>1001.8</ele>
        <time>2022-08-14T14:30:30Z</time>
      </trkpt>
      <trkpt lat="40.8206330" lon="-8.1705870">
        <ele>1001.8</ele>
        <time>2022-08-14T14:30:31Z</time>
      </trkpt>
      <trkpt lat="40.8202170" lon="-8.1709200">
        <ele>1000.0</ele>
        <time>2022-08-14T14:30:36Z</time>
      </trkpt>
      <trkpt lat="40.8200200" lon="-8.1710900">
        <ele>998.8</ele>
        <time>2022-08-14T14:30:39Z</time>
      </trkpt>
      <trkpt lat="40.8199560" lon="-8.1711510">
        <ele>998.4</ele>
        <time>2022-08-14T14:30:40Z</time>
      </trkpt>
      <trkpt lat="40.8198900" lon="-8.1712250">
        <ele>997.8</ele>
        <time>2022-08-14T14:30:41Z</time>
      </trkpt>
      <trkpt lat="40.8198500" lon="-8.1712700">
        <ele>997.6</ele>
        <time>2022-08-14T14:30:42Z</time>
      </trkpt>
      <trkpt lat="40.8197110" lon="-8.1713970">
        <ele>996.8</ele>
        <time>2022-08-14T14:30:45Z</time>
      </trkpt>
      <trkpt lat="40.8195800" lon="-8.1714880">
        <ele>996.6</ele>
        <time>2022-08-14T14:30:49Z</time>
      </trkpt>
      <trkpt lat="40.8194410" lon="-8.1716100">
        <ele>996.8</ele>
        <time>2022-08-14T14:30:56Z</time>
      </trkpt>
      <trkpt lat="40.8194200" lon="-8.1716310">
        <ele>996.8</ele>
        <time>2022-08-14T14:30:57Z</time>
      </trkpt>
      <trkpt lat="40.8192460" lon="-8.1717980">
        <ele>997.8</ele>
        <time>2022-08-14T14:31:05Z</time>
      </trkpt>
      <trkpt lat="40.8190830" lon="-8.1719350">
        <ele>998.6</ele>
        <time>2022-08-14T14:31:12Z</time>
      </trkpt>
      <trkpt lat="40.8190430" lon="-8.1719620">
        <ele>998.8</ele>
        <time>2022-08-14T14:31:14Z</time>
      </trkpt>
      <trkpt lat="40.8189310" lon="-8.1720360">
        <ele>999.8</ele>
        <time>2022-08-14T14:31:19Z</time>
      </trkpt>
      <trkpt lat="40.8188890" lon="-8.1720560">
        <ele>1000.4</ele>
        <time>2022-08-14T14:31:21Z</time>
      </trkpt>
      <trkpt lat="40.8188260" lon="-8.1721010">
        <ele>1000.8</ele>
        <time>2022-08-14T14:31:24Z</time>
      </trkpt>
      <trkpt lat="40.8187380" lon="-8.1721680">
        <ele>1001.2</ele>
        <time>2022-08-14T14:31:28Z</time>
      </trkpt>
      <trkpt lat="40.8186740" lon="-8.1722210">
        <ele>1002.0</ele>
        <time>2022-08-14T14:31:31Z</time>
      </trkpt>
      <trkpt lat="40.8185440" lon="-8.1723310">
        <ele>1003.0</ele>
        <time>2022-08-14T14:31:37Z</time>
      </trkpt>
      <trkpt lat="40.8184250" lon="-8.1724390">
        <ele>1004.0</ele>
        <time>2022-08-14T14:31:43Z</time>
      </trkpt>
      <trkpt lat="40.8184030" lon="-8.1724560">
        <ele>1004.2</ele>
        <time>2022-08-14T14:31:44Z</time>
      </trkpt>
      <trkpt lat="40.8182910" lon="-8.1725380">
        <ele>1005.0</ele>
        <time>2022-08-14T14:31:49Z</time>
      </trkpt>
      <trkpt lat="40.8182110" lon="-8.1725730">
        <ele>1005.4</ele>
        <time>2022-08-14T14:31:52Z</time>
      </trkpt>
      <trkpt lat="40.8180080" lon="-8.1726560">
        <ele>1005.6</ele>
        <time>2022-08-14T14:31:58Z</time>
      </trkpt>
      <trkpt lat="40.8177300" lon="-8.1727390">
        <ele>1005.0</ele>
        <time>2022-08-14T14:32:04Z</time>
      </trkpt>
      <trkpt lat="40.8174310" lon="-8.1728290">
        <ele>1004.0</ele>
        <time>2022-08-14T14:32:10Z</time>
      </trkpt>
      <trkpt lat="40.8173400" lon="-8.1728540">
        <ele>1003.6</ele>
        <time>2022-08-14T14:32:12Z</time>
      </trkpt>
      <trkpt lat="40.8171340" lon="-8.1729160">
        <ele>1002.8</ele>
        <time>2022-08-14T14:32:17Z</time>
      </trkpt>
      <trkpt lat="40.8171000" lon="-8.1729320">
        <ele>1002.8</ele>
        <time>2022-08-14T14:32:18Z</time>
      </trkpt>
      <trkpt lat="40.8170440" lon="-8.1729560">
        <ele>1001.4</ele>
        <time>2022-08-14T14:32:20Z</time>
      </trkpt>
      <trkpt lat="40.8169330" lon="-8.1730010">
        <ele>1000.4</ele>
        <time>2022-08-14T14:32:25Z</time>
      </trkpt>
      <trkpt lat="40.8169330" lon="-8.1730010">
        <ele>999.8</ele>
        <time>2022-08-14T14:32:27Z</time>
      </trkpt>
      <trkpt lat="40.8169140" lon="-8.1730120">
        <ele>997.2</ele>
        <time>2022-08-14T14:33:21Z</time>
      </trkpt>
      <trkpt lat="40.8168920" lon="-8.1730160">
        <ele>997.2</ele>
        <time>2022-08-14T14:33:22Z</time>
      </trkpt>
      <trkpt lat="40.8166950" lon="-8.1730640">
        <ele>997.0</ele>
        <time>2022-08-14T14:33:27Z</time>
      </trkpt>
      <trkpt lat="40.8163840" lon="-8.1731470">
        <ele>996.0</ele>
        <time>2022-08-14T14:33:32Z</time>
      </trkpt>
      <trkpt lat="40.8161500" lon="-8.1732190">
        <ele>995.0</ele>
        <time>2022-08-14T14:33:35Z</time>
      </trkpt>
      <trkpt lat="40.8159790" lon="-8.1732810">
        <ele>993.6</ele>
        <time>2022-08-14T14:33:37Z</time>
      </trkpt>
      <trkpt lat="40.8158070" lon="-8.1733600">
        <ele>992.2</ele>
        <time>2022-08-14T14:33:39Z</time>
      </trkpt>
      <trkpt lat="40.8155620" lon="-8.1735150">
        <ele>991.2</ele>
        <time>2022-08-14T14:33:42Z</time>
      </trkpt>
      <trkpt lat="40.8155070" lon="-8.1735570">
        <ele>990.6</ele>
        <time>2022-08-14T14:33:43Z</time>
      </trkpt>
      <trkpt lat="40.8153860" lon="-8.1736620">
        <ele>989.2</ele>
        <time>2022-08-14T14:33:45Z</time>
      </trkpt>
      <trkpt lat="40.8153320" lon="-8.1737190">
        <ele>988.8</ele>
        <time>2022-08-14T14:33:46Z</time>
      </trkpt>
      <trkpt lat="40.8152800" lon="-8.1737690">
        <ele>988.8</ele>
        <time>2022-08-14T14:33:47Z</time>
      </trkpt>
      <trkpt lat="40.8152270" lon="-8.1738160">
        <ele>987.2</ele>
        <time>2022-08-14T14:33:48Z</time>
      </trkpt>
      <trkpt lat="40.8151080" lon="-8.1739050">
        <ele>985.6</ele>
        <time>2022-08-14T14:33:50Z</time>
      </trkpt>
      <trkpt lat="40.8150470" lon="-8.1739430">
        <ele>984.4</ele>
        <time>2022-08-14T14:33:51Z</time>
      </trkpt>
      <trkpt lat="40.8147470" lon="-8.1740590">
        <ele>983.0</ele>
        <time>2022-08-14T14:33:55Z</time>
      </trkpt>
      <trkpt lat="40.8146640" lon="-8.1740860">
        <ele>982.6</ele>
        <time>2022-08-14T14:33:56Z</time>
      </trkpt>
      <trkpt lat="40.8145800" lon="-8.1741130">
        <ele>981.6</ele>
        <time>2022-08-14T14:33:57Z</time>
      </trkpt>
      <trkpt lat="40.8144970" lon="-8.1741370">
        <ele>980.4</ele>
        <time>2022-08-14T14:33:58Z</time>
      </trkpt>
      <trkpt lat="40.8141570" lon="-8.1742240">
        <ele>979.0</ele>
        <time>2022-08-14T14:34:02Z</time>
      </trkpt>
      <trkpt lat="40.8139890" lon="-8.1742600">
        <ele>977.8</ele>
        <time>2022-08-14T14:34:04Z</time>
      </trkpt>
      <trkpt lat="40.8139050" lon="-8.1742800">
        <ele>976.6</ele>
        <time>2022-08-14T14:34:05Z</time>
      </trkpt>
      <trkpt lat="40.8135870" lon="-8.1743750">
        <ele>975.4</ele>
        <time>2022-08-14T14:34:09Z</time>
      </trkpt>
      <trkpt lat="40.8134290" lon="-8.1744050">
        <ele>975.0</ele>
        <time>2022-08-14T14:34:11Z</time>
      </trkpt>
      <trkpt lat="40.8133490" lon="-8.1744170">
        <ele>974.4</ele>
        <time>2022-08-14T14:34:12Z</time>
      </trkpt>
      <trkpt lat="40.8128140" lon="-8.1744650">
        <ele>973.6</ele>
        <time>2022-08-14T14:34:19Z</time>
      </trkpt>
      <trkpt lat="40.8125040" lon="-8.1745430">
        <ele>973.4</ele>
        <time>2022-08-14T14:34:23Z</time>
      </trkpt>
      <trkpt lat="40.8124290" lon="-8.1745790">
        <ele>973.4</ele>
        <time>2022-08-14T14:34:24Z</time>
      </trkpt>
      <trkpt lat="40.8122820" lon="-8.1746720">
        <ele>972.8</ele>
        <time>2022-08-14T14:34:26Z</time>
      </trkpt>
      <trkpt lat="40.8122080" lon="-8.1747170">
        <ele>972.4</ele>
        <time>2022-08-14T14:34:27Z</time>
      </trkpt>
      <trkpt lat="40.8120700" lon="-8.1748180">
        <ele>971.6</ele>
        <time>2022-08-14T14:34:29Z</time>
      </trkpt>
      <trkpt lat="40.8119990" lon="-8.1749780">
        <ele>971.0</ele>
        <time>2022-08-14T14:34:31Z</time>
      </trkpt>
      <trkpt lat="40.8119870" lon="-8.1750730">
        <ele>970.6</ele>
        <time>2022-08-14T14:34:32Z</time>
      </trkpt>
      <trkpt lat="40.8119930" lon="-8.1751740">
        <ele>970.0</ele>
        <time>2022-08-14T14:34:33Z</time>
      </trkpt>
      <trkpt lat="40.8120080" lon="-8.1752810">
        <ele>969.4</ele>
        <time>2022-08-14T14:34:34Z</time>
      </trkpt>
      <trkpt lat="40.8120570" lon="-8.1756270">
        <ele>968.0</ele>
        <time>2022-08-14T14:34:37Z</time>
      </trkpt>
      <trkpt lat="40.8120840" lon="-8.1758360">
        <ele>967.6</ele>
        <time>2022-08-14T14:34:39Z</time>
      </trkpt>
      <trkpt lat="40.8121330" lon="-8.1761590">
        <ele>966.6</ele>
        <time>2022-08-14T14:34:42Z</time>
      </trkpt>
      <trkpt lat="40.8121780" lon="-8.1764530">
        <ele>965.4</ele>
        <time>2022-08-14T14:34:45Z</time>
      </trkpt>
      <trkpt lat="40.8122220" lon="-8.1767380">
        <ele>964.4</ele>
        <time>2022-08-14T14:34:48Z</time>
      </trkpt>
      <trkpt lat="40.8122750" lon="-8.1771460">
        <ele>962.4</ele>
        <time>2022-08-14T14:34:52Z</time>
      </trkpt>
      <trkpt lat="40.8122850" lon="-8.1772500">
        <ele>961.2</ele>
        <time>2022-08-14T14:34:53Z</time>
      </trkpt>
      <trkpt lat="40.8123080" lon="-8.1774620">
        <ele>960.0</ele>
        <time>2022-08-14T14:34:55Z</time>
      </trkpt>
      <trkpt lat="40.8123480" lon="-8.1777820">
        <ele>958.8</ele>
        <time>2022-08-14T14:34:58Z</time>
      </trkpt>
      <trkpt lat="40.8123980" lon="-8.1780950">
        <ele>957.6</ele>
        <time>2022-08-14T14:35:01Z</time>
      </trkpt>
      <trkpt lat="40.8124370" lon="-8.1784200">
        <ele>956.4</ele>
        <time>2022-08-14T14:35:04Z</time>
      </trkpt>
      <trkpt lat="40.8124690" lon="-8.1786860">
        <ele>955.0</ele>
        <time>2022-08-14T14:35:07Z</time>
      </trkpt>
      <trkpt lat="40.8125010" lon="-8.1788860">
        <ele>954.8</ele>
        <time>2022-08-14T14:35:09Z</time>
      </trkpt>
      <trkpt lat="40.8125350" lon="-8.1791450">
        <ele>954.0</ele>
        <time>2022-08-14T14:35:12Z</time>
      </trkpt>
      <trkpt lat="40.8125680" lon="-8.1793870">
        <ele>953.4</ele>
        <time>2022-08-14T14:35:15Z</time>
      </trkpt>
      <trkpt lat="40.8126170" lon="-8.1797800">
        <ele>953.0</ele>
        <time>2022-08-14T14:35:20Z</time>
      </trkpt>
      <trkpt lat="40.8126480" lon="-8.1800280">
        <ele>952.4</ele>
        <time>2022-08-14T14:35:23Z</time>
      </trkpt>
      <trkpt lat="40.8126840" lon="-8.1802710">
        <ele>952.0</ele>
        <time>2022-08-14T14:35:26Z</time>
      </trkpt>
      <trkpt lat="40.8127100" lon="-8.1804290">
        <ele>951.6</ele>
        <time>2022-08-14T14:35:28Z</time>
      </trkpt>
      <trkpt lat="40.8127390" lon="-8.1805820">
        <ele>951.4</ele>
        <time>2022-08-14T14:35:30Z</time>
      </trkpt>
      <trkpt lat="40.8128140" lon="-8.1808050">
        <ele>950.6</ele>
        <time>2022-08-14T14:35:33Z</time>
      </trkpt>
      <trkpt lat="40.8128420" lon="-8.1808780">
        <ele>950.8</ele>
        <time>2022-08-14T14:35:34Z</time>
      </trkpt>
      <trkpt lat="40.8129080" lon="-8.1810240">
        <ele>949.8</ele>
        <time>2022-08-14T14:35:36Z</time>
      </trkpt>
      <trkpt lat="40.8129800" lon="-8.1811550">
        <ele>949.8</ele>
        <time>2022-08-14T14:35:38Z</time>
      </trkpt>
      <trkpt lat="40.8131310" lon="-8.1813850">
        <ele>949.4</ele>
        <time>2022-08-14T14:35:42Z</time>
      </trkpt>
      <trkpt lat="40.8131640" lon="-8.1814450">
        <ele>949.2</ele>
        <time>2022-08-14T14:35:43Z</time>
      </trkpt>
      <trkpt lat="40.8132120" lon="-8.1815800">
        <ele>948.6</ele>
        <time>2022-08-14T14:35:45Z</time>
      </trkpt>
      <trkpt lat="40.8132250" lon="-8.1816550">
        <ele>948.8</ele>
        <time>2022-08-14T14:35:46Z</time>
      </trkpt>
      <trkpt lat="40.8132320" lon="-8.1817320">
        <ele>948.8</ele>
        <time>2022-08-14T14:35:47Z</time>
      </trkpt>
      <trkpt lat="40.8132480" lon="-8.1818900">
        <ele>948.2</ele>
        <time>2022-08-14T14:35:49Z</time>
      </trkpt>
      <trkpt lat="40.8132390" lon="-8.1820340">
        <ele>948.2</ele>
        <time>2022-08-14T14:35:51Z</time>
      </trkpt>
      <trkpt lat="40.8131930" lon="-8.1821770">
        <ele>948.2</ele>
        <time>2022-08-14T14:35:53Z</time>
      </trkpt>
      <trkpt lat="40.8131230" lon="-8.1822940">
        <ele>947.6</ele>
        <time>2022-08-14T14:35:55Z</time>
      </trkpt>
      <trkpt lat="40.8130960" lon="-8.1823540">
        <ele>947.0</ele>
        <time>2022-08-14T14:35:56Z</time>
      </trkpt>
      <trkpt lat="40.8130830" lon="-8.1824870">
        <ele>946.8</ele>
        <time>2022-08-14T14:35:58Z</time>
      </trkpt>
      <trkpt lat="40.8131000" lon="-8.1825450">
        <ele>946.2</ele>
        <time>2022-08-14T14:35:59Z</time>
      </trkpt>
      <trkpt lat="40.8131280" lon="-8.1826010">
        <ele>945.6</ele>
        <time>2022-08-14T14:36:00Z</time>
      </trkpt>
      <trkpt lat="40.8131630" lon="-8.1826620">
        <ele>945.0</ele>
        <time>2022-08-14T14:36:01Z</time>
      </trkpt>
      <trkpt lat="40.8131890" lon="-8.1827070">
        <ele>944.8</ele>
        <time>2022-08-14T14:36:02Z</time>
      </trkpt>
      <trkpt lat="40.8132530" lon="-8.1828460">
        <ele>944.0</ele>
        <time>2022-08-14T14:36:06Z</time>
      </trkpt>
      <trkpt lat="40.8133210" lon="-8.1830040">
        <ele>944.0</ele>
        <time>2022-08-14T14:36:12Z</time>
      </trkpt>
      <trkpt lat="40.8134140" lon="-8.1832400">
        <ele>944.0</ele>
        <time>2022-08-14T14:36:20Z</time>
      </trkpt>
      <trkpt lat="40.8134940" lon="-8.1834110">
        <ele>944.6</ele>
        <time>2022-08-14T14:36:27Z</time>
      </trkpt>
      <trkpt lat="40.8135940" lon="-8.1835100">
        <ele>944.8</ele>
        <time>2022-08-14T14:36:33Z</time>
      </trkpt>
      <trkpt lat="40.8136860" lon="-8.1835360">
        <ele>945.0</ele>
        <time>2022-08-14T14:36:38Z</time>
      </trkpt>
      <trkpt lat="40.8136900" lon="-8.1835400">
        <ele>945.2</ele>
        <time>2022-08-14T14:36:39Z</time>
      </trkpt>
      <trkpt lat="40.8136900" lon="-8.1835400">
        <ele>945.6</ele>
        <time>2022-08-14T14:36:41Z</time>
      </trkpt>
      <trkpt lat="40.8137560" lon="-8.1835920">
        <ele>946.2</ele>
        <time>2022-08-14T14:37:19Z</time>
      </trkpt>
      <trkpt lat="40.8138920" lon="-8.1837370">
        <ele>946.2</ele>
        <time>2022-08-14T14:37:25Z</time>
      </trkpt>
      <trkpt lat="40.8139180" lon="-8.1839550">
        <ele>946.8</ele>
        <time>2022-08-14T14:37:32Z</time>
      </trkpt>
      <trkpt lat="40.8139010" lon="-8.1840170">
        <ele>947.2</ele>
        <time>2022-08-14T14:37:34Z</time>
      </trkpt>
      <trkpt lat="40.8138550" lon="-8.1840940">
        <ele>948.2</ele>
        <time>2022-08-14T14:37:37Z</time>
      </trkpt>
      <trkpt lat="40.8138200" lon="-8.1841330">
        <ele>948.6</ele>
        <time>2022-08-14T14:37:39Z</time>
      </trkpt>
      <trkpt lat="40.8137250" lon="-8.1842580">
        <ele>950.0</ele>
        <time>2022-08-14T14:37:44Z</time>
      </trkpt>
      <trkpt lat="40.8135810" lon="-8.1844670">
        <ele>950.6</ele>
        <time>2022-08-14T14:37:50Z</time>
      </trkpt>
      <trkpt lat="40.8133960" lon="-8.1847390">
        <ele>950.8</ele>
        <time>2022-08-14T14:37:57Z</time>
      </trkpt>
      <trkpt lat="40.8133710" lon="-8.1847760">
        <ele>951.0</ele>
        <time>2022-08-14T14:37:58Z</time>
      </trkpt>
      <trkpt lat="40.8132330" lon="-8.1849700">
        <ele>951.0</ele>
        <time>2022-08-14T14:38:03Z</time>
      </trkpt>
      <trkpt lat="40.8132100" lon="-8.1850350">
        <ele>951.0</ele>
        <time>2022-08-14T14:38:04Z</time>
      </trkpt>
      <trkpt lat="40.8131630" lon="-8.1852850">
        <ele>950.8</ele>
        <time>2022-08-14T14:38:07Z</time>
      </trkpt>
      <trkpt lat="40.8131410" lon="-8.1854700">
        <ele>950.4</ele>
        <time>2022-08-14T14:38:09Z</time>
      </trkpt>
      <trkpt lat="40.8131400" lon="-8.1855580">
        <ele>949.6</ele>
        <time>2022-08-14T14:38:10Z</time>
      </trkpt>
      <trkpt lat="40.8131530" lon="-8.1856460">
        <ele>949.4</ele>
        <time>2022-08-14T14:38:11Z</time>
      </trkpt>
      <trkpt lat="40.8132130" lon="-8.1857790">
        <ele>949.0</ele>
        <time>2022-08-14T14:38:13Z</time>
      </trkpt>
      <trkpt lat="40.8132500" lon="-8.1858290">
        <ele>948.4</ele>
        <time>2022-08-14T14:38:14Z</time>
      </trkpt>
      <trkpt lat="40.8132770" lon="-8.1858870">
        <ele>948.0</ele>
        <time>2022-08-14T14:38:15Z</time>
      </trkpt>
      <trkpt lat="40.8133070" lon="-8.1860440">
        <ele>947.6</ele>
        <time>2022-08-14T14:38:17Z</time>
      </trkpt>
      <trkpt lat="40.8133100" lon="-8.1861340">
        <ele>947.4</ele>
        <time>2022-08-14T14:38:18Z</time>
      </trkpt>
      <trkpt lat="40.8133000" lon="-8.1862260">
        <ele>947.0</ele>
        <time>2022-08-14T14:38:19Z</time>
      </trkpt>
      <trkpt lat="40.8132730" lon="-8.1863120">
        <ele>946.8</ele>
        <time>2022-08-14T14:38:20Z</time>
      </trkpt>
      <trkpt lat="40.8132410" lon="-8.1863940">
        <ele>946.4</ele>
        <time>2022-08-14T14:38:21Z</time>
      </trkpt>
      <trkpt lat="40.8132120" lon="-8.1865650">
        <ele>945.2</ele>
        <time>2022-08-14T14:38:23Z</time>
      </trkpt>
      <trkpt lat="40.8132210" lon="-8.1866470">
        <ele>944.8</ele>
        <time>2022-08-14T14:38:24Z</time>
      </trkpt>
      <trkpt lat="40.8132640" lon="-8.1867960">
        <ele>943.8</ele>
        <time>2022-08-14T14:38:26Z</time>
      </trkpt>
      <trkpt lat="40.8133190" lon="-8.1869160">
        <ele>943.2</ele>
        <time>2022-08-14T14:38:28Z</time>
      </trkpt>
      <trkpt lat="40.8133790" lon="-8.1870210">
        <ele>943.0</ele>
        <time>2022-08-14T14:38:30Z</time>
      </trkpt>
      <trkpt lat="40.8134120" lon="-8.1870600">
        <ele>942.6</ele>
        <time>2022-08-14T14:38:31Z</time>
      </trkpt>
      <trkpt lat="40.8134820" lon="-8.1871280">
        <ele>942.2</ele>
        <time>2022-08-14T14:38:33Z</time>
      </trkpt>
      <trkpt lat="40.8135920" lon="-8.1872520">
        <ele>941.6</ele>
        <time>2022-08-14T14:38:36Z</time>
      </trkpt>
      <trkpt lat="40.8136630" lon="-8.1873490">
        <ele>941.6</ele>
        <time>2022-08-14T14:38:38Z</time>
      </trkpt>
      <trkpt lat="40.8136910" lon="-8.1874050">
        <ele>941.6</ele>
        <time>2022-08-14T14:38:39Z</time>
      </trkpt>
      <trkpt lat="40.8137100" lon="-8.1874690">
        <ele>941.2</ele>
        <time>2022-08-14T14:38:40Z</time>
      </trkpt>
      <trkpt lat="40.8137140" lon="-8.1876050">
        <ele>940.6</ele>
        <time>2022-08-14T14:38:42Z</time>
      </trkpt>
      <trkpt lat="40.8136980" lon="-8.1876700">
        <ele>940.6</ele>
        <time>2022-08-14T14:38:43Z</time>
      </trkpt>
      <trkpt lat="40.8136740" lon="-8.1877150">
        <ele>940.6</ele>
        <time>2022-08-14T14:38:44Z</time>
      </trkpt>
      <trkpt lat="40.8136350" lon="-8.1877590">
        <ele>940.6</ele>
        <time>2022-08-14T14:38:45Z</time>
      </trkpt>
      <trkpt lat="40.8135830" lon="-8.1877920">
        <ele>940.6</ele>
        <time>2022-08-14T14:38:46Z</time>
      </trkpt>
      <trkpt lat="40.8134920" lon="-8.1878250">
        <ele>940.6</ele>
        <time>2022-08-14T14:38:48Z</time>
      </trkpt>
      <trkpt lat="40.8134540" lon="-8.1878330">
        <ele>940.6</ele>
        <time>2022-08-14T14:38:49Z</time>
      </trkpt>
      <trkpt lat="40.8130800" lon="-8.1878970">
        <ele>940.0</ele>
        <time>2022-08-14T14:38:57Z</time>
      </trkpt>
      <trkpt lat="40.8128950" lon="-8.1879460">
        <ele>939.6</ele>
        <time>2022-08-14T14:39:02Z</time>
      </trkpt>
      <trkpt lat="40.8126510" lon="-8.1879990">
        <ele>939.6</ele>
        <time>2022-08-14T14:39:10Z</time>
      </trkpt>
      <trkpt lat="40.8124850" lon="-8.1880430">
        <ele>940.8</ele>
        <time>2022-08-14T14:39:17Z</time>
      </trkpt>
      <trkpt lat="40.8122890" lon="-8.1881170">
        <ele>941.0</ele>
        <time>2022-08-14T14:39:23Z</time>
      </trkpt>
      <trkpt lat="40.8120740" lon="-8.1881940">
        <ele>941.2</ele>
        <time>2022-08-14T14:39:31Z</time>
      </trkpt>
      <trkpt lat="40.8119770" lon="-8.1882270">
        <ele>941.6</ele>
        <time>2022-08-14T14:39:36Z</time>
      </trkpt>
      <trkpt lat="40.8119570" lon="-8.1882340">
        <ele>941.6</ele>
        <time>2022-08-14T14:39:37Z</time>
      </trkpt>
      <trkpt lat="40.8117980" lon="-8.1883100">
        <ele>942.6</ele>
        <time>2022-08-14T14:39:45Z</time>
      </trkpt>
      <trkpt lat="40.8116600" lon="-8.1883610">
        <ele>943.8</ele>
        <time>2022-08-14T14:39:52Z</time>
      </trkpt>
      <trkpt lat="40.8116380" lon="-8.1883670">
        <ele>944.0</ele>
        <time>2022-08-14T14:39:53Z</time>
      </trkpt>
      <trkpt lat="40.8115970" lon="-8.1883800">
        <ele>944.2</ele>
        <time>2022-08-14T14:39:55Z</time>
      </trkpt>
      <trkpt lat="40.8115000" lon="-8.1883980">
        <ele>944.8</ele>
        <time>2022-08-14T14:40:00Z</time>
      </trkpt>
      <trkpt lat="40.8114220" lon="-8.1884100">
        <ele>945.0</ele>
        <time>2022-08-14T14:40:04Z</time>
      </trkpt>
      <trkpt lat="40.8112340" lon="-8.1884590">
        <ele>945.6</ele>
        <time>2022-08-14T14:40:13Z</time>
      </trkpt>
      <trkpt lat="40.8111750" lon="-8.1884700">
        <ele>946.0</ele>
        <time>2022-08-14T14:40:16Z</time>
      </trkpt>
      <trkpt lat="40.8110650" lon="-8.1884950">
        <ele>946.6</ele>
        <time>2022-08-14T14:40:21Z</time>
      </trkpt>
      <trkpt lat="40.8110080" lon="-8.1885110">
        <ele>947.0</ele>
        <time>2022-08-14T14:40:24Z</time>
      </trkpt>
      <trkpt lat="40.8108490" lon="-8.1885550">
        <ele>948.0</ele>
        <time>2022-08-14T14:40:32Z</time>
      </trkpt>
      <trkpt lat="40.8107910" lon="-8.1885590">
        <ele>948.4</ele>
        <time>2022-08-14T14:40:35Z</time>
      </trkpt>
      <trkpt lat="40.8106490" lon="-8.1885670">
        <ele>949.2</ele>
        <time>2022-08-14T14:40:42Z</time>
      </trkpt>
      <trkpt lat="40.8106080" lon="-8.1885630">
        <ele>949.6</ele>
        <time>2022-08-14T14:40:44Z</time>
      </trkpt>
      <trkpt lat="40.8105520" lon="-8.1885660">
        <ele>950.2</ele>
        <time>2022-08-14T14:40:47Z</time>
      </trkpt>
      <trkpt lat="40.8104180" lon="-8.1885610">
        <ele>951.2</ele>
        <time>2022-08-14T14:40:53Z</time>
      </trkpt>
      <trkpt lat="40.8102940" lon="-8.1885770">
        <ele>952.4</ele>
        <time>2022-08-14T14:40:58Z</time>
      </trkpt>
      <trkpt lat="40.8102670" lon="-8.1885790">
        <ele>952.8</ele>
        <time>2022-08-14T14:40:59Z</time>
      </trkpt>
      <trkpt lat="40.8102190" lon="-8.1885970">
        <ele>953.4</ele>
        <time>2022-08-14T14:41:01Z</time>
      </trkpt>
      <trkpt lat="40.8102030" lon="-8.1886110">
        <ele>953.6</ele>
        <time>2022-08-14T14:41:02Z</time>
      </trkpt>
      <trkpt lat="40.8101610" lon="-8.1886500">
        <ele>954.6</ele>
        <time>2022-08-14T14:41:05Z</time>
      </trkpt>
      <trkpt lat="40.8101320" lon="-8.1886840">
        <ele>955.0</ele>
        <time>2022-08-14T14:41:07Z</time>
      </trkpt>
      <trkpt lat="40.8101030" lon="-8.1887730">
        <ele>955.6</ele>
        <time>2022-08-14T14:41:11Z</time>
      </trkpt>
      <trkpt lat="40.8100930" lon="-8.1888200">
        <ele>956.0</ele>
        <time>2022-08-14T14:41:13Z</time>
      </trkpt>
      <trkpt lat="40.8101100" lon="-8.1889270">
        <ele>957.0</ele>
        <time>2022-08-14T14:41:17Z</time>
      </trkpt>
      <trkpt lat="40.8101300" lon="-8.1889860">
        <ele>957.4</ele>
        <time>2022-08-14T14:41:19Z</time>
      </trkpt>
      <trkpt lat="40.8102080" lon="-8.1892030">
        <ele>957.8</ele>
        <time>2022-08-14T14:41:25Z</time>
      </trkpt>
      <trkpt lat="40.8102220" lon="-8.1892630">
        <ele>958.0</ele>
        <time>2022-08-14T14:41:27Z</time>
      </trkpt>
      <trkpt lat="40.8102460" lon="-8.1893520">
        <ele>958.2</ele>
        <time>2022-08-14T14:41:31Z</time>
      </trkpt>
      <trkpt lat="40.8102540" lon="-8.1893650">
        <ele>958.4</ele>
        <time>2022-08-14T14:41:32Z</time>
      </trkpt>
      <trkpt lat="40.8102570" lon="-8.1893760">
        <ele>958.8</ele>
        <time>2022-08-14T14:41:35Z</time>
      </trkpt>
      <trkpt lat="40.8103020" lon="-8.1894670">
        <ele>959.6</ele>
        <time>2022-08-14T14:41:50Z</time>
      </trkpt>
      <trkpt lat="40.8103390" lon="-8.1895220">
        <ele>959.6</ele>
        <time>2022-08-14T14:41:52Z</time>
      </trkpt>
      <trkpt lat="40.8105080" lon="-8.1897570">
        <ele>958.8</ele>
        <time>2022-08-14T14:41:59Z</time>
      </trkpt>
      <trkpt lat="40.8105380" lon="-8.1897950">
        <ele>958.6</ele>
        <time>2022-08-14T14:42:00Z</time>
      </trkpt>
      <trkpt lat="40.8107440" lon="-8.1900120">
        <ele>958.4</ele>
        <time>2022-08-14T14:42:06Z</time>
      </trkpt>
      <trkpt lat="40.8108890" lon="-8.1901330">
        <ele>958.4</ele>
        <time>2022-08-14T14:42:09Z</time>
      </trkpt>
      <trkpt lat="40.8110170" lon="-8.1901920">
        <ele>957.6</ele>
        <time>2022-08-14T14:42:11Z</time>
      </trkpt>
      <trkpt lat="40.8112510" lon="-8.1902520">
        <ele>956.4</ele>
        <time>2022-08-14T14:42:14Z</time>
      </trkpt>
      <trkpt lat="40.8113390" lon="-8.1902820">
        <ele>956.2</ele>
        <time>2022-08-14T14:42:15Z</time>
      </trkpt>
      <trkpt lat="40.8116060" lon="-8.1903940">
        <ele>955.2</ele>
        <time>2022-08-14T14:42:18Z</time>
      </trkpt>
      <trkpt lat="40.8116740" lon="-8.1904320">
        <ele>954.6</ele>
        <time>2022-08-14T14:42:19Z</time>
      </trkpt>
      <trkpt lat="40.8118060" lon="-8.1905050">
        <ele>954.0</ele>
        <time>2022-08-14T14:42:21Z</time>
      </trkpt>
      <trkpt lat="40.8119080" lon="-8.1905560">
        <ele>952.4</ele>
        <time>2022-08-14T14:42:23Z</time>
      </trkpt>
      <trkpt lat="40.8119560" lon="-8.1905740">
        <ele>951.6</ele>
        <time>2022-08-14T14:42:24Z</time>
      </trkpt>
      <trkpt lat="40.8119990" lon="-8.1905800">
        <ele>950.2</ele>
        <time>2022-08-14T14:42:25Z</time>
      </trkpt>
      <trkpt lat="40.8120760" lon="-8.1905740">
        <ele>948.8</ele>
        <time>2022-08-14T14:42:27Z</time>
      </trkpt>
      <trkpt lat="40.8121010" lon="-8.1905740">
        <ele>948.0</ele>
        <time>2022-08-14T14:42:28Z</time>
      </trkpt>
      <trkpt lat="40.8121360" lon="-8.1905860">
        <ele>947.8</ele>
        <time>2022-08-14T14:42:29Z</time>
      </trkpt>
      <trkpt lat="40.8121870" lon="-8.1906390">
        <ele>947.0</ele>
        <time>2022-08-14T14:42:31Z</time>
      </trkpt>
      <trkpt lat="40.8122040" lon="-8.1906780">
        <ele>946.8</ele>
        <time>2022-08-14T14:42:32Z</time>
      </trkpt>
      <trkpt lat="40.8122080" lon="-8.1907230">
        <ele>946.6</ele>
        <time>2022-08-14T14:42:33Z</time>
      </trkpt>
      <trkpt lat="40.8121690" lon="-8.1908130">
        <ele>945.8</ele>
        <time>2022-08-14T14:42:35Z</time>
      </trkpt>
      <trkpt lat="40.8121270" lon="-8.1908400">
        <ele>945.4</ele>
        <time>2022-08-14T14:42:36Z</time>
      </trkpt>
      <trkpt lat="40.8120780" lon="-8.1908530">
        <ele>945.2</ele>
        <time>2022-08-14T14:42:37Z</time>
      </trkpt>
      <trkpt lat="40.8120290" lon="-8.1908580">
        <ele>945.2</ele>
        <time>2022-08-14T14:42:38Z</time>
      </trkpt>
      <trkpt lat="40.8118900" lon="-8.1908540">
        <ele>944.4</ele>
        <time>2022-08-14T14:42:41Z</time>
      </trkpt>
      <trkpt lat="40.8117210" lon="-8.1908380">
        <ele>943.4</ele>
        <time>2022-08-14T14:42:45Z</time>
      </trkpt>
      <trkpt lat="40.8116880" lon="-8.1908330">
        <ele>943.0</ele>
        <time>2022-08-14T14:42:46Z</time>
      </trkpt>
      <trkpt lat="40.8116310" lon="-8.1908290">
        <ele>942.4</ele>
        <time>2022-08-14T14:42:48Z</time>
      </trkpt>
      <trkpt lat="40.8115440" lon="-8.1908280">
        <ele>942.0</ele>
        <time>2022-08-14T14:42:51Z</time>
      </trkpt>
      <trkpt lat="40.8112700" lon="-8.1908470">
        <ele>941.6</ele>
        <time>2022-08-14T14:42:58Z</time>
      </trkpt>
      <trkpt lat="40.8110780" lon="-8.1909030">
        <ele>941.2</ele>
        <time>2022-08-14T14:43:02Z</time>
      </trkpt>
      <trkpt lat="40.8109660" lon="-8.1909380">
        <ele>940.2</ele>
        <time>2022-08-14T14:43:05Z</time>
      </trkpt>
      <trkpt lat="40.8109340" lon="-8.1909460">
        <ele>940.0</ele>
        <time>2022-08-14T14:43:06Z</time>
      </trkpt>
      <trkpt lat="40.8107330" lon="-8.1909790">
        <ele>939.0</ele>
        <time>2022-08-14T14:43:11Z</time>
      </trkpt>
      <trkpt lat="40.8106930" lon="-8.1909850">
        <ele>938.0</ele>
        <time>2022-08-14T14:43:12Z</time>
      </trkpt>
      <trkpt lat="40.8106140" lon="-8.1909910">
        <ele>937.0</ele>
        <time>2022-08-14T14:43:14Z</time>
      </trkpt>
      <trkpt lat="40.8104940" lon="-8.1909830">
        <ele>935.6</ele>
        <time>2022-08-14T14:43:17Z</time>
      </trkpt>
      <trkpt lat="40.8104150" lon="-8.1909640">
        <ele>934.2</ele>
        <time>2022-08-14T14:43:19Z</time>
      </trkpt>
      <trkpt lat="40.8102050" lon="-8.1908580">
        <ele>933.2</ele>
        <time>2022-08-14T14:43:25Z</time>
      </trkpt>
      <trkpt lat="40.8101650" lon="-8.1908370">
        <ele>932.8</ele>
        <time>2022-08-14T14:43:26Z</time>
      </trkpt>
      <trkpt lat="40.8100050" lon="-8.1907700">
        <ele>931.8</ele>
        <time>2022-08-14T14:43:30Z</time>
      </trkpt>
      <trkpt lat="40.8098290" lon="-8.1906810">
        <ele>930.8</ele>
        <time>2022-08-14T14:43:35Z</time>
      </trkpt>
      <trkpt lat="40.8097940" lon="-8.1906620">
        <ele>930.4</ele>
        <time>2022-08-14T14:43:36Z</time>
      </trkpt>
      <trkpt lat="40.8096410" lon="-8.1906050">
        <ele>929.4</ele>
        <time>2022-08-14T14:43:40Z</time>
      </trkpt>
      <trkpt lat="40.8095800" lon="-8.1905880">
        <ele>928.8</ele>
        <time>2022-08-14T14:43:42Z</time>
      </trkpt>
      <trkpt lat="40.8095480" lon="-8.1905850">
        <ele>928.4</ele>
        <time>2022-08-14T14:43:43Z</time>
      </trkpt>
      <trkpt lat="40.8094850" lon="-8.1905650">
        <ele>927.2</ele>
        <time>2022-08-14T14:43:45Z</time>
      </trkpt>
      <trkpt lat="40.8094310" lon="-8.1905130">
        <ele>926.4</ele>
        <time>2022-08-14T14:43:47Z</time>
      </trkpt>
      <trkpt lat="40.8094080" lon="-8.1904770">
        <ele>926.0</ele>
        <time>2022-08-14T14:43:48Z</time>
      </trkpt>
      <trkpt lat="40.8093620" lon="-8.1903400">
        <ele>924.8</ele>
        <time>2022-08-14T14:43:51Z</time>
      </trkpt>
      <trkpt lat="40.8093360" lon="-8.1902940">
        <ele>924.0</ele>
        <time>2022-08-14T14:43:52Z</time>
      </trkpt>
      <trkpt lat="40.8093040" lon="-8.1902510">
        <ele>923.6</ele>
        <time>2022-08-14T14:43:53Z</time>
      </trkpt>
      <trkpt lat="40.8092670" lon="-8.1902180">
        <ele>923.0</ele>
        <time>2022-08-14T14:43:54Z</time>
      </trkpt>
      <trkpt lat="40.8092280" lon="-8.1901950">
        <ele>922.8</ele>
        <time>2022-08-14T14:43:55Z</time>
      </trkpt>
      <trkpt lat="40.8091940" lon="-8.1901810">
        <ele>922.6</ele>
        <time>2022-08-14T14:43:56Z</time>
      </trkpt>
      <trkpt lat="40.8090790" lon="-8.1901750">
        <ele>921.2</ele>
        <time>2022-08-14T14:43:59Z</time>
      </trkpt>
      <trkpt lat="40.8090030" lon="-8.1902030">
        <ele>920.0</ele>
        <time>2022-08-14T14:44:01Z</time>
      </trkpt>
      <trkpt lat="40.8089410" lon="-8.1902490">
        <ele>919.0</ele>
        <time>2022-08-14T14:44:03Z</time>
      </trkpt>
      <trkpt lat="40.8089170" lon="-8.1902690">
        <ele>918.4</ele>
        <time>2022-08-14T14:44:04Z</time>
      </trkpt>
      <trkpt lat="40.8088180" lon="-8.1903320">
        <ele>916.6</ele>
        <time>2022-08-14T14:44:08Z</time>
      </trkpt>
      <trkpt lat="40.8087920" lon="-8.1903460">
        <ele>915.6</ele>
        <time>2022-08-14T14:44:09Z</time>
      </trkpt>
      <trkpt lat="40.8087100" lon="-8.1903830">
        <ele>914.2</ele>
        <time>2022-08-14T14:44:12Z</time>
      </trkpt>
      <trkpt lat="40.8086870" lon="-8.1903890">
        <ele>913.2</ele>
        <time>2022-08-14T14:44:13Z</time>
      </trkpt>
      <trkpt lat="40.8086310" lon="-8.1904020">
        <ele>912.0</ele>
        <time>2022-08-14T14:44:15Z</time>
      </trkpt>
      <trkpt lat="40.8085480" lon="-8.1904300">
        <ele>910.6</ele>
        <time>2022-08-14T14:44:18Z</time>
      </trkpt>
      <trkpt lat="40.8084490" lon="-8.1904760">
        <ele>909.2</ele>
        <time>2022-08-14T14:44:22Z</time>
      </trkpt>
      <trkpt lat="40.8083680" lon="-8.1905460">
        <ele>908.0</ele>
        <time>2022-08-14T14:44:25Z</time>
      </trkpt>
      <trkpt lat="40.8082720" lon="-8.1906360">
        <ele>905.8</ele>
        <time>2022-08-14T14:44:29Z</time>
      </trkpt>
      <trkpt lat="40.8082180" lon="-8.1906850">
        <ele>904.8</ele>
        <time>2022-08-14T14:44:31Z</time>
      </trkpt>
      <trkpt lat="40.8081240" lon="-8.1907400">
        <ele>903.6</ele>
        <time>2022-08-14T14:44:34Z</time>
      </trkpt>
      <trkpt lat="40.8080760" lon="-8.1907580">
        <ele>903.0</ele>
        <time>2022-08-14T14:44:35Z</time>
      </trkpt>
      <trkpt lat="40.8080250" lon="-8.1907750">
        <ele>902.6</ele>
        <time>2022-08-14T14:44:36Z</time>
      </trkpt>
      <trkpt lat="40.8079790" lon="-8.1907950">
        <ele>901.6</ele>
        <time>2022-08-14T14:44:37Z</time>
      </trkpt>
      <trkpt lat="40.8079020" lon="-8.1908450">
        <ele>900.4</ele>
        <time>2022-08-14T14:44:39Z</time>
      </trkpt>
      <trkpt lat="40.8078810" lon="-8.1908810">
        <ele>900.2</ele>
        <time>2022-08-14T14:44:40Z</time>
      </trkpt>
      <trkpt lat="40.8078680" lon="-8.1909580">
        <ele>898.6</ele>
        <time>2022-08-14T14:44:42Z</time>
      </trkpt>
      <trkpt lat="40.8078870" lon="-8.1910440">
        <ele>897.2</ele>
        <time>2022-08-14T14:44:44Z</time>
      </trkpt>
      <trkpt lat="40.8079200" lon="-8.1911220">
        <ele>896.0</ele>
        <time>2022-08-14T14:44:46Z</time>
      </trkpt>
      <trkpt lat="40.8079950" lon="-8.1912120">
        <ele>894.4</ele>
        <time>2022-08-14T14:44:49Z</time>
      </trkpt>
      <trkpt lat="40.8081320" lon="-8.1913170">
        <ele>893.4</ele>
        <time>2022-08-14T14:44:53Z</time>
      </trkpt>
      <trkpt lat="40.8082090" lon="-8.1913700">
        <ele>892.8</ele>
        <time>2022-08-14T14:44:55Z</time>
      </trkpt>
      <trkpt lat="40.8082480" lon="-8.1914060">
        <ele>892.4</ele>
        <time>2022-08-14T14:44:56Z</time>
      </trkpt>
      <trkpt lat="40.8082840" lon="-8.1914470">
        <ele>891.4</ele>
        <time>2022-08-14T14:44:57Z</time>
      </trkpt>
      <trkpt lat="40.8083170" lon="-8.1914900">
        <ele>890.4</ele>
        <time>2022-08-14T14:44:58Z</time>
      </trkpt>
      <trkpt lat="40.8083450" lon="-8.1915330">
        <ele>890.2</ele>
        <time>2022-08-14T14:44:59Z</time>
      </trkpt>
      <trkpt lat="40.8083610" lon="-8.1915760">
        <ele>889.6</ele>
        <time>2022-08-14T14:45:00Z</time>
      </trkpt>
      <trkpt lat="40.8083650" lon="-8.1916090">
        <ele>889.2</ele>
        <time>2022-08-14T14:45:01Z</time>
      </trkpt>
      <trkpt lat="40.8083730" lon="-8.1916680">
        <ele>887.4</ele>
        <time>2022-08-14T14:45:03Z</time>
      </trkpt>
      <trkpt lat="40.8083780" lon="-8.1917000">
        <ele>887.2</ele>
        <time>2022-08-14T14:45:04Z</time>
      </trkpt>
      <trkpt lat="40.8083850" lon="-8.1917720">
        <ele>886.4</ele>
        <time>2022-08-14T14:45:06Z</time>
      </trkpt>
      <trkpt lat="40.8083920" lon="-8.1918120">
        <ele>886.0</ele>
        <time>2022-08-14T14:45:07Z</time>
      </trkpt>
      <trkpt lat="40.8084170" lon="-8.1918990">
        <ele>885.2</ele>
        <time>2022-08-14T14:45:09Z</time>
      </trkpt>
      <trkpt lat="40.8084330" lon="-8.1919500">
        <ele>884.8</ele>
        <time>2022-08-14T14:45:10Z</time>
      </trkpt>
      <trkpt lat="40.8084500" lon="-8.1920430">
        <ele>883.8</ele>
        <time>2022-08-14T14:45:12Z</time>
      </trkpt>
      <trkpt lat="40.8084650" lon="-8.1921600">
        <ele>882.2</ele>
        <time>2022-08-14T14:45:15Z</time>
      </trkpt>
      <trkpt lat="40.8084460" lon="-8.1922870">
        <ele>881.4</ele>
        <time>2022-08-14T14:45:20Z</time>
      </trkpt>
      <trkpt lat="40.8084340" lon="-8.1923150">
        <ele>881.2</ele>
        <time>2022-08-14T14:45:21Z</time>
      </trkpt>
      <trkpt lat="40.8082880" lon="-8.1925340">
        <ele>880.4</ele>
        <time>2022-08-14T14:45:29Z</time>
      </trkpt>
      <trkpt lat="40.8082210" lon="-8.1926250">
        <ele>880.2</ele>
        <time>2022-08-14T14:45:32Z</time>
      </trkpt>
      <trkpt lat="40.8081530" lon="-8.1926890">
        <ele>880.0</ele>
        <time>2022-08-14T14:45:35Z</time>
      </trkpt>
      <trkpt lat="40.8079220" lon="-8.1928190">
        <ele>879.8</ele>
        <time>2022-08-14T14:45:43Z</time>
      </trkpt>
      <trkpt lat="40.8076720" lon="-8.1928930">
        <ele>879.6</ele>
        <time>2022-08-14T14:45:50Z</time>
      </trkpt>
      <trkpt lat="40.8072890" lon="-8.1929510">
        <ele>879.2</ele>
        <time>2022-08-14T14:46:00Z</time>
      </trkpt>
      <trkpt lat="40.8072370" lon="-8.1929610">
        <ele>879.0</ele>
        <time>2022-08-14T14:46:01Z</time>
      </trkpt>
      <trkpt lat="40.8069000" lon="-8.1930500">
        <ele>878.0</ele>
        <time>2022-08-14T14:46:08Z</time>
      </trkpt>
      <trkpt lat="40.8068030" lon="-8.1930610">
        <ele>877.8</ele>
        <time>2022-08-14T14:46:10Z</time>
      </trkpt>
      <trkpt lat="40.8067260" lon="-8.1930600">
        <ele>877.4</ele>
        <time>2022-08-14T14:46:12Z</time>
      </trkpt>
      <trkpt lat="40.8066660" lon="-8.1931020">
        <ele>876.8</ele>
        <time>2022-08-14T14:46:14Z</time>
      </trkpt>
      <trkpt lat="40.8065920" lon="-8.1931540">
        <ele>876.2</ele>
        <time>2022-08-14T14:46:16Z</time>
      </trkpt>
      <trkpt lat="40.8064980" lon="-8.1931960">
        <ele>876.0</ele>
        <time>2022-08-14T14:46:18Z</time>
      </trkpt>
      <trkpt lat="40.8064470" lon="-8.1932120">
        <ele>875.8</ele>
        <time>2022-08-14T14:46:19Z</time>
      </trkpt>
      <trkpt lat="40.8063330" lon="-8.1932420">
        <ele>875.6</ele>
        <time>2022-08-14T14:46:21Z</time>
      </trkpt>
      <trkpt lat="40.8060670" lon="-8.1933110">
        <ele>874.6</ele>
        <time>2022-08-14T14:46:25Z</time>
      </trkpt>
      <trkpt lat="40.8059070" lon="-8.1933580">
        <ele>873.8</ele>
        <time>2022-08-14T14:46:27Z</time>
      </trkpt>
      <trkpt lat="40.8058440" lon="-8.1933730">
        <ele>873.6</ele>
        <time>2022-08-14T14:46:28Z</time>
      </trkpt>
      <trkpt lat="40.8054960" lon="-8.1934770">
        <ele>872.8</ele>
        <time>2022-08-14T14:46:32Z</time>
      </trkpt>
      <trkpt lat="40.8054150" lon="-8.1935310">
        <ele>872.4</ele>
        <time>2022-08-14T14:46:33Z</time>
      </trkpt>
      <trkpt lat="40.8052080" lon="-8.1937220">
        <ele>871.2</ele>
        <time>2022-08-14T14:46:36Z</time>
      </trkpt>
      <trkpt lat="40.8049360" lon="-8.1940880">
        <ele>870.2</ele>
        <time>2022-08-14T14:46:41Z</time>
      </trkpt>
      <trkpt lat="40.8048150" lon="-8.1942990">
        <ele>870.6</ele>
        <time>2022-08-14T14:46:45Z</time>
      </trkpt>
      <trkpt lat="40.8047210" lon="-8.1944650">
        <ele>871.4</ele>
        <time>2022-08-14T14:46:50Z</time>
      </trkpt>
      <trkpt lat="40.8046590" lon="-8.1945330">
        <ele>872.8</ele>
        <time>2022-08-14T14:46:53Z</time>
      </trkpt>
      <trkpt lat="40.8045860" lon="-8.1946290">
        <ele>873.4</ele>
        <time>2022-08-14T14:46:57Z</time>
      </trkpt>
      <trkpt lat="40.8045390" lon="-8.1946950">
        <ele>873.8</ele>
        <time>2022-08-14T14:47:00Z</time>
      </trkpt>
      <trkpt lat="40.8044790" lon="-8.1947660">
        <ele>874.4</ele>
        <time>2022-08-14T14:47:03Z</time>
      </trkpt>
      <trkpt lat="40.8042980" lon="-8.1949730">
        <ele>874.8</ele>
        <time>2022-08-14T14:47:11Z</time>
      </trkpt>
      <trkpt lat="40.8041380" lon="-8.1951590">
        <ele>874.6</ele>
        <time>2022-08-14T14:47:16Z</time>
      </trkpt>
      <trkpt lat="40.8038970" lon="-8.1954360">
        <ele>873.2</ele>
        <time>2022-08-14T14:47:21Z</time>
      </trkpt>
      <trkpt lat="40.8037000" lon="-8.1956590">
        <ele>872.8</ele>
        <time>2022-08-14T14:47:24Z</time>
      </trkpt>
      <trkpt lat="40.8035710" lon="-8.1957940">
        <ele>872.2</ele>
        <time>2022-08-14T14:47:26Z</time>
      </trkpt>
      <trkpt lat="40.8034850" lon="-8.1958880">
        <ele>871.4</ele>
        <time>2022-08-14T14:47:27Z</time>
      </trkpt>
      <trkpt lat="40.8031870" lon="-8.1962120">
        <ele>870.2</ele>
        <time>2022-08-14T14:47:31Z</time>
      </trkpt>
      <trkpt lat="40.8030750" lon="-8.1964950">
        <ele>868.6</ele>
        <time>2022-08-14T14:47:33Z</time>
      </trkpt>
      <trkpt lat="40.8030510" lon="-8.1966340">
        <ele>867.6</ele>
        <time>2022-08-14T14:47:34Z</time>
      </trkpt>
      <trkpt lat="40.8030090" lon="-8.1968630">
        <ele>866.2</ele>
        <time>2022-08-14T14:47:36Z</time>
      </trkpt>
      <trkpt lat="40.8029580" lon="-8.1969770">
        <ele>864.8</ele>
        <time>2022-08-14T14:47:37Z</time>
      </trkpt>
      <trkpt lat="40.8028960" lon="-8.1970330">
        <ele>864.4</ele>
        <time>2022-08-14T14:47:38Z</time>
      </trkpt>
      <trkpt lat="40.8028260" lon="-8.1970520">
        <ele>863.6</ele>
        <time>2022-08-14T14:47:39Z</time>
      </trkpt>
      <trkpt lat="40.8027540" lon="-8.1970430">
        <ele>863.2</ele>
        <time>2022-08-14T14:47:40Z</time>
      </trkpt>
      <trkpt lat="40.8026950" lon="-8.1970300">
        <ele>862.0</ele>
        <time>2022-08-14T14:47:41Z</time>
      </trkpt>
      <trkpt lat="40.8026170" lon="-8.1970320">
        <ele>860.4</ele>
        <time>2022-08-14T14:47:42Z</time>
      </trkpt>
      <trkpt lat="40.8024350" lon="-8.1970980">
        <ele>858.2</ele>
        <time>2022-08-14T14:47:44Z</time>
      </trkpt>
      <trkpt lat="40.8022800" lon="-8.1971700">
        <ele>856.0</ele>
        <time>2022-08-14T14:47:46Z</time>
      </trkpt>
      <trkpt lat="40.8021940" lon="-8.1972010">
        <ele>855.4</ele>
        <time>2022-08-14T14:47:47Z</time>
      </trkpt>
      <trkpt lat="40.8020930" lon="-8.1972300">
        <ele>854.8</ele>
        <time>2022-08-14T14:47:48Z</time>
      </trkpt>
      <trkpt lat="40.8020130" lon="-8.1972450">
        <ele>854.2</ele>
        <time>2022-08-14T14:47:49Z</time>
      </trkpt>
      <trkpt lat="40.8018800" lon="-8.1972460">
        <ele>853.2</ele>
        <time>2022-08-14T14:47:51Z</time>
      </trkpt>
      <trkpt lat="40.8018150" lon="-8.1972380">
        <ele>852.6</ele>
        <time>2022-08-14T14:47:52Z</time>
      </trkpt>
      <trkpt lat="40.8017490" lon="-8.1972150">
        <ele>852.2</ele>
        <time>2022-08-14T14:47:53Z</time>
      </trkpt>
      <trkpt lat="40.8016980" lon="-8.1971940">
        <ele>852.0</ele>
        <time>2022-08-14T14:47:54Z</time>
      </trkpt>
      <trkpt lat="40.8015470" lon="-8.1971160">
        <ele>852.0</ele>
        <time>2022-08-14T14:47:58Z</time>
      </trkpt>
      <trkpt lat="40.8014350" lon="-8.1970460">
        <ele>853.2</ele>
        <time>2022-08-14T14:48:02Z</time>
      </trkpt>
      <trkpt lat="40.8013220" lon="-8.1969780">
        <ele>854.2</ele>
        <time>2022-08-14T14:48:06Z</time>
      </trkpt>
      <trkpt lat="40.8012950" lon="-8.1969640">
        <ele>854.4</ele>
        <time>2022-08-14T14:48:07Z</time>
      </trkpt>
      <trkpt lat="40.8011940" lon="-8.1969080">
        <ele>855.6</ele>
        <time>2022-08-14T14:48:11Z</time>
      </trkpt>
      <trkpt lat="40.8011380" lon="-8.1968710">
        <ele>856.4</ele>
        <time>2022-08-14T14:48:14Z</time>
      </trkpt>
      <trkpt lat="40.8010910" lon="-8.1968520">
        <ele>856.8</ele>
        <time>2022-08-14T14:48:17Z</time>
      </trkpt>
      <trkpt lat="40.8010600" lon="-8.1968530">
        <ele>856.8</ele>
        <time>2022-08-14T14:48:19Z</time>
      </trkpt>
      <trkpt lat="40.8010460" lon="-8.1968480">
        <ele>857.0</ele>
        <time>2022-08-14T14:48:20Z</time>
      </trkpt>
      <trkpt lat="40.8010130" lon="-8.1968200">
        <ele>857.0</ele>
        <time>2022-08-14T14:48:23Z</time>
      </trkpt>
      <trkpt lat="40.8009000" lon="-8.1968270">
        <ele>856.6</ele>
        <time>2022-08-14T14:48:28Z</time>
      </trkpt>
      <trkpt lat="40.8007160" lon="-8.1968150">
        <ele>856.2</ele>
        <time>2022-08-14T14:48:32Z</time>
      </trkpt>
      <trkpt lat="40.8004400" lon="-8.1968560">
        <ele>855.6</ele>
        <time>2022-08-14T14:48:36Z</time>
      </trkpt>
      <trkpt lat="40.8003560" lon="-8.1968570">
        <ele>855.4</ele>
        <time>2022-08-14T14:48:37Z</time>
      </trkpt>
      <trkpt lat="40.8001480" lon="-8.1968120">
        <ele>854.6</ele>
        <time>2022-08-14T14:48:39Z</time>
      </trkpt>
      <trkpt lat="40.7999580" lon="-8.1967570">
        <ele>853.4</ele>
        <time>2022-08-14T14:48:41Z</time>
      </trkpt>
      <trkpt lat="40.7997200" lon="-8.1966820">
        <ele>852.8</ele>
        <time>2022-08-14T14:48:43Z</time>
      </trkpt>
      <trkpt lat="40.7996300" lon="-8.1966310">
        <ele>852.0</ele>
        <time>2022-08-14T14:48:44Z</time>
      </trkpt>
      <trkpt lat="40.7995620" lon="-8.1965570">
        <ele>850.8</ele>
        <time>2022-08-14T14:48:45Z</time>
      </trkpt>
      <trkpt lat="40.7995260" lon="-8.1964770">
        <ele>850.2</ele>
        <time>2022-08-14T14:48:46Z</time>
      </trkpt>
      <trkpt lat="40.7994970" lon="-8.1963660">
        <ele>849.4</ele>
        <time>2022-08-14T14:48:47Z</time>
      </trkpt>
      <trkpt lat="40.7994340" lon="-8.1961220">
        <ele>847.4</ele>
        <time>2022-08-14T14:48:49Z</time>
      </trkpt>
      <trkpt lat="40.7993450" lon="-8.1959810">
        <ele>846.0</ele>
        <time>2022-08-14T14:48:51Z</time>
      </trkpt>
      <trkpt lat="40.7992830" lon="-8.1959500">
        <ele>845.0</ele>
        <time>2022-08-14T14:48:52Z</time>
      </trkpt>
      <trkpt lat="40.7991350" lon="-8.1959870">
        <ele>843.6</ele>
        <time>2022-08-14T14:48:54Z</time>
      </trkpt>
      <trkpt lat="40.7990830" lon="-8.1960230">
        <ele>843.4</ele>
        <time>2022-08-14T14:48:55Z</time>
      </trkpt>
      <trkpt lat="40.7989700" lon="-8.1961190">
        <ele>842.8</ele>
        <time>2022-08-14T14:48:57Z</time>
      </trkpt>
      <trkpt lat="40.7988660" lon="-8.1962370">
        <ele>842.6</ele>
        <time>2022-08-14T14:48:59Z</time>
      </trkpt>
      <trkpt lat="40.7985920" lon="-8.1966020">
        <ele>841.4</ele>
        <time>2022-08-14T14:49:05Z</time>
      </trkpt>
      <trkpt lat="40.7984040" lon="-8.1969460">
        <ele>840.2</ele>
        <time>2022-08-14T14:49:09Z</time>
      </trkpt>
      <trkpt lat="40.7983570" lon="-8.1970410">
        <ele>840.0</ele>
        <time>2022-08-14T14:49:10Z</time>
      </trkpt>
      <trkpt lat="40.7981930" lon="-8.1973290">
        <ele>838.4</ele>
        <time>2022-08-14T14:49:13Z</time>
      </trkpt>
      <trkpt lat="40.7981180" lon="-8.1974090">
        <ele>837.8</ele>
        <time>2022-08-14T14:49:14Z</time>
      </trkpt>
      <trkpt lat="40.7980340" lon="-8.1974640">
        <ele>837.0</ele>
        <time>2022-08-14T14:49:15Z</time>
      </trkpt>
      <trkpt lat="40.7978520" lon="-8.1975050">
        <ele>835.8</ele>
        <time>2022-08-14T14:49:17Z</time>
      </trkpt>
      <trkpt lat="40.7976870" lon="-8.1974700">
        <ele>834.8</ele>
        <time>2022-08-14T14:49:19Z</time>
      </trkpt>
      <trkpt lat="40.7976110" lon="-8.1974410">
        <ele>834.4</ele>
        <time>2022-08-14T14:49:20Z</time>
      </trkpt>
      <trkpt lat="40.7972800" lon="-8.1972670">
        <ele>833.6</ele>
        <time>2022-08-14T14:49:25Z</time>
      </trkpt>
      <trkpt lat="40.7971630" lon="-8.1972140">
        <ele>833.2</ele>
        <time>2022-08-14T14:49:27Z</time>
      </trkpt>
      <trkpt lat="40.7968610" lon="-8.1971210">
        <ele>833.4</ele>
        <time>2022-08-14T14:49:32Z</time>
      </trkpt>
      <trkpt lat="40.7965130" lon="-8.1971000">
        <ele>833.0</ele>
        <time>2022-08-14T14:49:37Z</time>
      </trkpt>
      <trkpt lat="40.7963600" lon="-8.1971050">
        <ele>832.0</ele>
        <time>2022-08-14T14:49:39Z</time>
      </trkpt>
      <trkpt lat="40.7961180" lon="-8.1971000">
        <ele>830.8</ele>
        <time>2022-08-14T14:49:42Z</time>
      </trkpt>
      <trkpt lat="40.7959370" lon="-8.1971070">
        <ele>830.2</ele>
        <time>2022-08-14T14:49:44Z</time>
      </trkpt>
      <trkpt lat="40.7958400" lon="-8.1971150">
        <ele>829.6</ele>
        <time>2022-08-14T14:49:45Z</time>
      </trkpt>
      <trkpt lat="40.7956350" lon="-8.1971250">
        <ele>828.4</ele>
        <time>2022-08-14T14:49:47Z</time>
      </trkpt>
      <trkpt lat="40.7954150" lon="-8.1971280">
        <ele>827.6</ele>
        <time>2022-08-14T14:49:49Z</time>
      </trkpt>
      <trkpt lat="40.7952830" lon="-8.1971310">
        <ele>827.0</ele>
        <time>2022-08-14T14:49:50Z</time>
      </trkpt>
      <trkpt lat="40.7950510" lon="-8.1971390">
        <ele>825.8</ele>
        <time>2022-08-14T14:49:52Z</time>
      </trkpt>
      <trkpt lat="40.7946970" lon="-8.1971400">
        <ele>824.0</ele>
        <time>2022-08-14T14:49:55Z</time>
      </trkpt>
      <trkpt lat="40.7944800" lon="-8.1971330">
        <ele>822.6</ele>
        <time>2022-08-14T14:49:57Z</time>
      </trkpt>
      <trkpt lat="40.7942300" lon="-8.1971320">
        <ele>820.4</ele>
        <time>2022-08-14T14:49:59Z</time>
      </trkpt>
      <trkpt lat="40.7940770" lon="-8.1971400">
        <ele>818.8</ele>
        <time>2022-08-14T14:50:00Z</time>
      </trkpt>
      <trkpt lat="40.7939780" lon="-8.1971520">
        <ele>818.4</ele>
        <time>2022-08-14T14:50:01Z</time>
      </trkpt>
      <trkpt lat="40.7937700" lon="-8.1971710">
        <ele>817.6</ele>
        <time>2022-08-14T14:50:03Z</time>
      </trkpt>
      <trkpt lat="40.7936910" lon="-8.1971740">
        <ele>817.0</ele>
        <time>2022-08-14T14:50:04Z</time>
      </trkpt>
      <trkpt lat="40.7935690" lon="-8.1971840">
        <ele>815.6</ele>
        <time>2022-08-14T14:50:06Z</time>
      </trkpt>
      <trkpt lat="40.7935210" lon="-8.1971930">
        <ele>813.6</ele>
        <time>2022-08-14T14:50:07Z</time>
      </trkpt>
      <trkpt lat="40.7934790" lon="-8.1972050">
        <ele>812.6</ele>
        <time>2022-08-14T14:50:08Z</time>
      </trkpt>
      <trkpt lat="40.7934410" lon="-8.1972190">
        <ele>811.4</ele>
        <time>2022-08-14T14:50:09Z</time>
      </trkpt>
      <trkpt lat="40.7933170" lon="-8.1972790">
        <ele>809.4</ele>
        <time>2022-08-14T14:50:12Z</time>
      </trkpt>
      <trkpt lat="40.7932220" lon="-8.1973300">
        <ele>808.2</ele>
        <time>2022-08-14T14:50:14Z</time>
      </trkpt>
      <trkpt lat="40.7931330" lon="-8.1973860">
        <ele>806.8</ele>
        <time>2022-08-14T14:50:16Z</time>
      </trkpt>
      <trkpt lat="40.7929970" lon="-8.1974690">
        <ele>805.4</ele>
        <time>2022-08-14T14:50:19Z</time>
      </trkpt>
      <trkpt lat="40.7928600" lon="-8.1975210">
        <ele>803.4</ele>
        <time>2022-08-14T14:50:23Z</time>
      </trkpt>
      <trkpt lat="40.7928310" lon="-8.1975280">
        <ele>803.0</ele>
        <time>2022-08-14T14:50:24Z</time>
      </trkpt>
      <trkpt lat="40.7928050" lon="-8.1975310">
        <ele>802.4</ele>
        <time>2022-08-14T14:50:25Z</time>
      </trkpt>
      <trkpt lat="40.7927890" lon="-8.1975390">
        <ele>801.0</ele>
        <time>2022-08-14T14:50:27Z</time>
      </trkpt>
      <trkpt lat="40.7927890" lon="-8.1975390">
        <ele>800.4</ele>
        <time>2022-08-14T14:50:28Z</time>
      </trkpt>
      <trkpt lat="40.7927890" lon="-8.1975390">
        <ele>800.2</ele>
        <time>2022-08-14T14:50:29Z</time>
      </trkpt>
      <trkpt lat="40.7927550" lon="-8.1975350">
        <ele>797.2</ele>
        <time>2022-08-14T14:50:47Z</time>
      </trkpt>
      <trkpt lat="40.7926980" lon="-8.1975650">
        <ele>797.0</ele>
        <time>2022-08-14T14:50:49Z</time>
      </trkpt>
      <trkpt lat="40.7925330" lon="-8.1975690">
        <ele>796.6</ele>
        <time>2022-08-14T14:50:53Z</time>
      </trkpt>
      <trkpt lat="40.7922620" lon="-8.1976030">
        <ele>796.0</ele>
        <time>2022-08-14T14:50:58Z</time>
      </trkpt>
      <trkpt lat="40.7922220" lon="-8.1976150">
        <ele>795.8</ele>
        <time>2022-08-14T14:50:59Z</time>
      </trkpt>
      <trkpt lat="40.7921430" lon="-8.1976920">
        <ele>795.2</ele>
        <time>2022-08-14T14:51:02Z</time>
      </trkpt>
      <trkpt lat="40.7921320" lon="-8.1977390">
        <ele>795.0</ele>
        <time>2022-08-14T14:51:03Z</time>
      </trkpt>
      <trkpt lat="40.7921340" lon="-8.1977940">
        <ele>794.8</ele>
        <time>2022-08-14T14:51:04Z</time>
      </trkpt>
      <trkpt lat="40.7921520" lon="-8.1978620">
        <ele>794.4</ele>
        <time>2022-08-14T14:51:05Z</time>
      </trkpt>
      <trkpt lat="40.7921830" lon="-8.1979360">
        <ele>794.2</ele>
        <time>2022-08-14T14:51:06Z</time>
      </trkpt>
      <trkpt lat="40.7922190" lon="-8.1980140">
        <ele>794.0</ele>
        <time>2022-08-14T14:51:07Z</time>
      </trkpt>
      <trkpt lat="40.7922810" lon="-8.1982000">
        <ele>792.8</ele>
        <time>2022-08-14T14:51:09Z</time>
      </trkpt>
      <trkpt lat="40.7922900" lon="-8.1983070">
        <ele>791.6</ele>
        <time>2022-08-14T14:51:10Z</time>
      </trkpt>
      <trkpt lat="40.7922850" lon="-8.1984170">
        <ele>791.2</ele>
        <time>2022-08-14T14:51:11Z</time>
      </trkpt>
      <trkpt lat="40.7922600" lon="-8.1985270">
        <ele>790.6</ele>
        <time>2022-08-14T14:51:12Z</time>
      </trkpt>
      <trkpt lat="40.7921380" lon="-8.1988620">
        <ele>789.2</ele>
        <time>2022-08-14T14:51:15Z</time>
      </trkpt>
      <trkpt lat="40.7920960" lon="-8.1989800">
        <ele>788.8</ele>
        <time>2022-08-14T14:51:16Z</time>
      </trkpt>
      <trkpt lat="40.7920600" lon="-8.1991090">
        <ele>787.8</ele>
        <time>2022-08-14T14:51:17Z</time>
      </trkpt>
      <trkpt lat="40.7920130" lon="-8.1993600">
        <ele>786.2</ele>
        <time>2022-08-14T14:51:19Z</time>
      </trkpt>
      <trkpt lat="40.7919760" lon="-8.1995990">
        <ele>785.2</ele>
        <time>2022-08-14T14:51:21Z</time>
      </trkpt>
      <trkpt lat="40.7919510" lon="-8.1998290">
        <ele>784.0</ele>
        <time>2022-08-14T14:51:23Z</time>
      </trkpt>
      <trkpt lat="40.7919450" lon="-8.1999460">
        <ele>783.6</ele>
        <time>2022-08-14T14:51:24Z</time>
      </trkpt>
      <trkpt lat="40.7919370" lon="-8.2001940">
        <ele>782.6</ele>
        <time>2022-08-14T14:51:26Z</time>
      </trkpt>
      <trkpt lat="40.7919300" lon="-8.2005750">
        <ele>781.2</ele>
        <time>2022-08-14T14:51:29Z</time>
      </trkpt>
      <trkpt lat="40.7919310" lon="-8.2008200">
        <ele>780.0</ele>
        <time>2022-08-14T14:51:31Z</time>
      </trkpt>
      <trkpt lat="40.7919390" lon="-8.2009480">
        <ele>779.6</ele>
        <time>2022-08-14T14:51:32Z</time>
      </trkpt>
      <trkpt lat="40.7919550" lon="-8.2010750">
        <ele>778.4</ele>
        <time>2022-08-14T14:51:33Z</time>
      </trkpt>
      <trkpt lat="40.7920350" lon="-8.2014490">
        <ele>776.8</ele>
        <time>2022-08-14T14:51:36Z</time>
      </trkpt>
      <trkpt lat="40.7921290" lon="-8.2018230">
        <ele>775.4</ele>
        <time>2022-08-14T14:51:39Z</time>
      </trkpt>
      <trkpt lat="40.7921690" lon="-8.2019410">
        <ele>774.8</ele>
        <time>2022-08-14T14:51:40Z</time>
      </trkpt>
      <trkpt lat="40.7922210" lon="-8.2020500">
        <ele>774.0</ele>
        <time>2022-08-14T14:51:41Z</time>
      </trkpt>
      <trkpt lat="40.7922820" lon="-8.2021520">
        <ele>773.6</ele>
        <time>2022-08-14T14:51:42Z</time>
      </trkpt>
      <trkpt lat="40.7923500" lon="-8.2022500">
        <ele>772.4</ele>
        <time>2022-08-14T14:51:43Z</time>
      </trkpt>
      <trkpt lat="40.7925030" lon="-8.2024320">
        <ele>771.0</ele>
        <time>2022-08-14T14:51:45Z</time>
      </trkpt>
      <trkpt lat="40.7926540" lon="-8.2025980">
        <ele>769.8</ele>
        <time>2022-08-14T14:51:47Z</time>
      </trkpt>
      <trkpt lat="40.7927800" lon="-8.2027510">
        <ele>768.6</ele>
        <time>2022-08-14T14:51:49Z</time>
      </trkpt>
      <trkpt lat="40.7928380" lon="-8.2028190">
        <ele>768.2</ele>
        <time>2022-08-14T14:51:50Z</time>
      </trkpt>
      <trkpt lat="40.7929390" lon="-8.2029400">
        <ele>767.0</ele>
        <time>2022-08-14T14:51:52Z</time>
      </trkpt>
      <trkpt lat="40.7930700" lon="-8.2030980">
        <ele>766.4</ele>
        <time>2022-08-14T14:51:55Z</time>
      </trkpt>
      <trkpt lat="40.7932500" lon="-8.2033090">
        <ele>766.0</ele>
        <time>2022-08-14T14:52:00Z</time>
      </trkpt>
      <trkpt lat="40.7932790" lon="-8.2033440">
        <ele>766.0</ele>
        <time>2022-08-14T14:52:01Z</time>
      </trkpt>
      <trkpt lat="40.7934460" lon="-8.2036140">
        <ele>766.0</ele>
        <time>2022-08-14T14:52:08Z</time>
      </trkpt>
      <trkpt lat="40.7935110" lon="-8.2039980">
        <ele>765.8</ele>
        <time>2022-08-14T14:52:16Z</time>
      </trkpt>
      <trkpt lat="40.7935420" lon="-8.2044280">
        <ele>766.4</ele>
        <time>2022-08-14T14:52:25Z</time>
      </trkpt>
      <trkpt lat="40.7935920" lon="-8.2046860">
        <ele>767.2</ele>
        <time>2022-08-14T14:52:32Z</time>
      </trkpt>
      <trkpt lat="40.7936010" lon="-8.2047170">
        <ele>767.2</ele>
        <time>2022-08-14T14:52:33Z</time>
      </trkpt>
      <trkpt lat="40.7936400" lon="-8.2048020">
        <ele>767.8</ele>
        <time>2022-08-14T14:52:37Z</time>
      </trkpt>
      <trkpt lat="40.7936200" lon="-8.2047810">
        <ele>768.0</ele>
        <time>2022-08-14T14:52:40Z</time>
      </trkpt>
      <trkpt lat="40.7935830" lon="-8.2046140">
        <ele>767.6</ele>
        <time>2022-08-14T14:52:49Z</time>
      </trkpt>
      <trkpt lat="40.7935810" lon="-8.2046110">
        <ele>767.4</ele>
        <time>2022-08-14T14:52:52Z</time>
      </trkpt>
      <trkpt lat="40.7936190" lon="-8.2047820">
        <ele>767.4</ele>
        <time>2022-08-14T14:58:08Z</time>
      </trkpt>
      <trkpt lat="40.7936310" lon="-8.2048090">
        <ele>767.4</ele>
        <time>2022-08-14T14:58:09Z</time>
      </trkpt>
      <trkpt lat="40.7937540" lon="-8.2050420">
        <ele>767.6</ele>
        <time>2022-08-14T14:58:16Z</time>
      </trkpt>
      <trkpt lat="40.7938860" lon="-8.2052840">
        <ele>767.4</ele>
        <time>2022-08-14T14:58:23Z</time>
      </trkpt>
      <trkpt lat="40.7939080" lon="-8.2054670">
        <ele>767.2</ele>
        <time>2022-08-14T14:58:28Z</time>
      </trkpt>
      <trkpt lat="40.7938810" lon="-8.2057130">
        <ele>767.4</ele>
        <time>2022-08-14T14:58:35Z</time>
      </trkpt>
      <trkpt lat="40.7937970" lon="-8.2058940">
        <ele>767.8</ele>
        <time>2022-08-14T14:58:41Z</time>
      </trkpt>
      <trkpt lat="40.7937760" lon="-8.2061050">
        <ele>768.4</ele>
        <time>2022-08-14T14:58:47Z</time>
      </trkpt>
      <trkpt lat="40.7937790" lon="-8.2063490">
        <ele>768.4</ele>
        <time>2022-08-14T14:58:52Z</time>
      </trkpt>
      <trkpt lat="40.7937780" lon="-8.2064750">
        <ele>768.6</ele>
        <time>2022-08-14T14:58:54Z</time>
      </trkpt>
      <trkpt lat="40.7938050" lon="-8.2066990">
        <ele>768.4</ele>
        <time>2022-08-14T14:58:57Z</time>
      </trkpt>
      <trkpt lat="40.7938200" lon="-8.2069420">
        <ele>767.2</ele>
        <time>2022-08-14T14:59:00Z</time>
      </trkpt>
      <trkpt lat="40.7937840" lon="-8.2071100">
        <ele>766.8</ele>
        <time>2022-08-14T14:59:02Z</time>
      </trkpt>
      <trkpt lat="40.7937570" lon="-8.2071790">
        <ele>766.6</ele>
        <time>2022-08-14T14:59:03Z</time>
      </trkpt>
      <trkpt lat="40.7936760" lon="-8.2073440">
        <ele>765.8</ele>
        <time>2022-08-14T14:59:06Z</time>
      </trkpt>
      <trkpt lat="40.7936390" lon="-8.2074070">
        <ele>765.6</ele>
        <time>2022-08-14T14:59:07Z</time>
      </trkpt>
      <trkpt lat="40.7936110" lon="-8.2074580">
        <ele>765.4</ele>
        <time>2022-08-14T14:59:08Z</time>
      </trkpt>
      <trkpt lat="40.7934560" lon="-8.2077070">
        <ele>765.4</ele>
        <time>2022-08-14T14:59:14Z</time>
      </trkpt>
      <trkpt lat="40.7933400" lon="-8.2079640">
        <ele>766.0</ele>
        <time>2022-08-14T14:59:20Z</time>
      </trkpt>
      <trkpt lat="40.7932290" lon="-8.2082360">
        <ele>765.8</ele>
        <time>2022-08-14T14:59:26Z</time>
      </trkpt>
      <trkpt lat="40.7931280" lon="-8.2085520">
        <ele>766.0</ele>
        <time>2022-08-14T14:59:33Z</time>
      </trkpt>
      <trkpt lat="40.7931000" lon="-8.2087320">
        <ele>766.8</ele>
        <time>2022-08-14T14:59:37Z</time>
      </trkpt>
      <trkpt lat="40.7930910" lon="-8.2088080">
        <ele>767.2</ele>
        <time>2022-08-14T14:59:39Z</time>
      </trkpt>
      <trkpt lat="40.7930860" lon="-8.2088830">
        <ele>767.8</ele>
        <time>2022-08-14T14:59:41Z</time>
      </trkpt>
      <trkpt lat="40.7930740" lon="-8.2091350">
        <ele>768.4</ele>
        <time>2022-08-14T14:59:46Z</time>
      </trkpt>
      <trkpt lat="40.7930990" lon="-8.2095140">
        <ele>768.6</ele>
        <time>2022-08-14T14:59:53Z</time>
      </trkpt>
      <trkpt lat="40.7932160" lon="-8.2098870">
        <ele>768.6</ele>
        <time>2022-08-14T15:00:00Z</time>
      </trkpt>
      <trkpt lat="40.7932150" lon="-8.2099530">
        <ele>768.4</ele>
        <time>2022-08-14T15:00:01Z</time>
      </trkpt>
      <trkpt lat="40.7932670" lon="-8.2101300">
        <ele>768.4</ele>
        <time>2022-08-14T15:00:03Z</time>
      </trkpt>
      <trkpt lat="40.7933040" lon="-8.2102210">
        <ele>768.2</ele>
        <time>2022-08-14T15:00:04Z</time>
      </trkpt>
      <trkpt lat="40.7933840" lon="-8.2103850">
        <ele>767.6</ele>
        <time>2022-08-14T15:00:06Z</time>
      </trkpt>
      <trkpt lat="40.7935090" lon="-8.2105530">
        <ele>766.8</ele>
        <time>2022-08-14T15:00:08Z</time>
      </trkpt>
      <trkpt lat="40.7937370" lon="-8.2108350">
        <ele>765.6</ele>
        <time>2022-08-14T15:00:11Z</time>
      </trkpt>
      <trkpt lat="40.7938030" lon="-8.2109690">
        <ele>765.4</ele>
        <time>2022-08-14T15:00:12Z</time>
      </trkpt>
      <trkpt lat="40.7938500" lon="-8.2111080">
        <ele>764.2</ele>
        <time>2022-08-14T15:00:13Z</time>
      </trkpt>
      <trkpt lat="40.7938820" lon="-8.2112520">
        <ele>763.8</ele>
        <time>2022-08-14T15:00:14Z</time>
      </trkpt>
      <trkpt lat="40.7938990" lon="-8.2114000">
        <ele>762.6</ele>
        <time>2022-08-14T15:00:15Z</time>
      </trkpt>
      <trkpt lat="40.7939070" lon="-8.2115500">
        <ele>761.2</ele>
        <time>2022-08-14T15:00:16Z</time>
      </trkpt>
      <trkpt lat="40.7939410" lon="-8.2118170">
        <ele>759.6</ele>
        <time>2022-08-14T15:00:18Z</time>
      </trkpt>
      <trkpt lat="40.7939680" lon="-8.2119420">
        <ele>759.2</ele>
        <time>2022-08-14T15:00:19Z</time>
      </trkpt>
      <trkpt lat="40.7939980" lon="-8.2120600">
        <ele>758.4</ele>
        <time>2022-08-14T15:00:20Z</time>
      </trkpt>
      <trkpt lat="40.7940540" lon="-8.2122680">
        <ele>757.0</ele>
        <time>2022-08-14T15:00:22Z</time>
      </trkpt>
      <trkpt lat="40.7940920" lon="-8.2123600">
        <ele>756.2</ele>
        <time>2022-08-14T15:00:23Z</time>
      </trkpt>
      <trkpt lat="40.7941430" lon="-8.2124480">
        <ele>756.0</ele>
        <time>2022-08-14T15:00:24Z</time>
      </trkpt>
      <trkpt lat="40.7942020" lon="-8.2125330">
        <ele>755.4</ele>
        <time>2022-08-14T15:00:25Z</time>
      </trkpt>
      <trkpt lat="40.7943200" lon="-8.2127120">
        <ele>755.0</ele>
        <time>2022-08-14T15:00:27Z</time>
      </trkpt>
      <trkpt lat="40.7943660" lon="-8.2128040">
        <ele>754.8</ele>
        <time>2022-08-14T15:00:28Z</time>
      </trkpt>
      <trkpt lat="40.7944390" lon="-8.2129830">
        <ele>754.0</ele>
        <time>2022-08-14T15:00:30Z</time>
      </trkpt>
      <trkpt lat="40.7945170" lon="-8.2131430">
        <ele>753.2</ele>
        <time>2022-08-14T15:00:32Z</time>
      </trkpt>
      <trkpt lat="40.7945930" lon="-8.2132880">
        <ele>752.8</ele>
        <time>2022-08-14T15:00:34Z</time>
      </trkpt>
      <trkpt lat="40.7946980" lon="-8.2134490">
        <ele>752.6</ele>
        <time>2022-08-14T15:00:37Z</time>
      </trkpt>
      <trkpt lat="40.7947510" lon="-8.2135330">
        <ele>752.6</ele>
        <time>2022-08-14T15:00:39Z</time>
      </trkpt>
      <trkpt lat="40.7948070" lon="-8.2135910">
        <ele>752.8</ele>
        <time>2022-08-14T15:00:41Z</time>
      </trkpt>
      <trkpt lat="40.7949110" lon="-8.2136840">
        <ele>753.8</ele>
        <time>2022-08-14T15:00:45Z</time>
      </trkpt>
      <trkpt lat="40.7949400" lon="-8.2137040">
        <ele>754.0</ele>
        <time>2022-08-14T15:00:46Z</time>
      </trkpt>
      <trkpt lat="40.7950230" lon="-8.2137620">
        <ele>754.8</ele>
        <time>2022-08-14T15:00:49Z</time>
      </trkpt>
      <trkpt lat="40.7951720" lon="-8.2138770">
        <ele>755.4</ele>
        <time>2022-08-14T15:00:54Z</time>
      </trkpt>
      <trkpt lat="40.7952750" lon="-8.2139790">
        <ele>755.6</ele>
        <time>2022-08-14T15:00:57Z</time>
      </trkpt>
      <trkpt lat="40.7953490" lon="-8.2141140">
        <ele>755.8</ele>
        <time>2022-08-14T15:01:00Z</time>
      </trkpt>
      <trkpt lat="40.7953670" lon="-8.2141660">
        <ele>755.8</ele>
        <time>2022-08-14T15:01:01Z</time>
      </trkpt>
      <trkpt lat="40.7954350" lon="-8.2143540">
        <ele>756.0</ele>
        <time>2022-08-14T15:01:06Z</time>
      </trkpt>
      <trkpt lat="40.7955230" lon="-8.2145220">
        <ele>757.0</ele>
        <time>2022-08-14T15:01:11Z</time>
      </trkpt>
      <trkpt lat="40.7955640" lon="-8.2145860">
        <ele>757.4</ele>
        <time>2022-08-14T15:01:13Z</time>
      </trkpt>
      <trkpt lat="40.7956460" lon="-8.2147220">
        <ele>757.8</ele>
        <time>2022-08-14T15:01:16Z</time>
      </trkpt>
      <trkpt lat="40.7956820" lon="-8.2147950">
        <ele>757.8</ele>
        <time>2022-08-14T15:01:17Z</time>
      </trkpt>
      <trkpt lat="40.7957050" lon="-8.2148710">
        <ele>757.8</ele>
        <time>2022-08-14T15:01:18Z</time>
      </trkpt>
      <trkpt lat="40.7957170" lon="-8.2150150">
        <ele>757.8</ele>
        <time>2022-08-14T15:01:20Z</time>
      </trkpt>
      <trkpt lat="40.7957020" lon="-8.2151350">
        <ele>757.8</ele>
        <time>2022-08-14T15:01:22Z</time>
      </trkpt>
      <trkpt lat="40.7956750" lon="-8.2152310">
        <ele>757.8</ele>
        <time>2022-08-14T15:01:24Z</time>
      </trkpt>
      <trkpt lat="40.7956240" lon="-8.2154000">
        <ele>758.0</ele>
        <time>2022-08-14T15:01:28Z</time>
      </trkpt>
      <trkpt lat="40.7956120" lon="-8.2154760">
        <ele>758.6</ele>
        <time>2022-08-14T15:01:30Z</time>
      </trkpt>
      <trkpt lat="40.7956080" lon="-8.2155420">
        <ele>759.2</ele>
        <time>2022-08-14T15:01:32Z</time>
      </trkpt>
      <trkpt lat="40.7956120" lon="-8.2156240">
        <ele>760.4</ele>
        <time>2022-08-14T15:01:35Z</time>
      </trkpt>
      <trkpt lat="40.7956570" lon="-8.2158440">
        <ele>760.8</ele>
        <time>2022-08-14T15:01:41Z</time>
      </trkpt>
      <trkpt lat="40.7957180" lon="-8.2161490">
        <ele>760.6</ele>
        <time>2022-08-14T15:01:46Z</time>
      </trkpt>
      <trkpt lat="40.7958360" lon="-8.2165490">
        <ele>760.2</ele>
        <time>2022-08-14T15:01:51Z</time>
      </trkpt>
      <trkpt lat="40.7959510" lon="-8.2168150">
        <ele>758.6</ele>
        <time>2022-08-14T15:01:54Z</time>
      </trkpt>
      <trkpt lat="40.7960260" lon="-8.2170060">
        <ele>757.6</ele>
        <time>2022-08-14T15:01:56Z</time>
      </trkpt>
      <trkpt lat="40.7960560" lon="-8.2171100">
        <ele>757.2</ele>
        <time>2022-08-14T15:01:57Z</time>
      </trkpt>
      <trkpt lat="40.7960960" lon="-8.2173230">
        <ele>756.4</ele>
        <time>2022-08-14T15:01:59Z</time>
      </trkpt>
      <trkpt lat="40.7960980" lon="-8.2174300">
        <ele>756.2</ele>
        <time>2022-08-14T15:02:00Z</time>
      </trkpt>
      <trkpt lat="40.7960900" lon="-8.2175410">
        <ele>755.8</ele>
        <time>2022-08-14T15:02:01Z</time>
      </trkpt>
      <trkpt lat="40.7960720" lon="-8.2177670">
        <ele>755.2</ele>
        <time>2022-08-14T15:02:03Z</time>
      </trkpt>
      <trkpt lat="40.7960800" lon="-8.2178920">
        <ele>755.2</ele>
        <time>2022-08-14T15:02:04Z</time>
      </trkpt>
      <trkpt lat="40.7961150" lon="-8.2180080">
        <ele>754.8</ele>
        <time>2022-08-14T15:02:05Z</time>
      </trkpt>
      <trkpt lat="40.7961760" lon="-8.2181090">
        <ele>754.2</ele>
        <time>2022-08-14T15:02:06Z</time>
      </trkpt>
      <trkpt lat="40.7962500" lon="-8.2181930">
        <ele>754.0</ele>
        <time>2022-08-14T15:02:07Z</time>
      </trkpt>
      <trkpt lat="40.7964310" lon="-8.2183200">
        <ele>753.0</ele>
        <time>2022-08-14T15:02:09Z</time>
      </trkpt>
      <trkpt lat="40.7966370" lon="-8.2183970">
        <ele>752.2</ele>
        <time>2022-08-14T15:02:11Z</time>
      </trkpt>
      <trkpt lat="40.7967320" lon="-8.2184480">
        <ele>750.4</ele>
        <time>2022-08-14T15:02:12Z</time>
      </trkpt>
      <trkpt lat="40.7968080" lon="-8.2185160">
        <ele>749.0</ele>
        <time>2022-08-14T15:02:13Z</time>
      </trkpt>
      <trkpt lat="40.7968580" lon="-8.2185990">
        <ele>748.4</ele>
        <time>2022-08-14T15:02:14Z</time>
      </trkpt>
      <trkpt lat="40.7968860" lon="-8.2186920">
        <ele>747.0</ele>
        <time>2022-08-14T15:02:15Z</time>
      </trkpt>
      <trkpt lat="40.7969450" lon="-8.2188850">
        <ele>744.6</ele>
        <time>2022-08-14T15:02:17Z</time>
      </trkpt>
      <trkpt lat="40.7969800" lon="-8.2189850">
        <ele>744.0</ele>
        <time>2022-08-14T15:02:18Z</time>
      </trkpt>
      <trkpt lat="40.7970140" lon="-8.2190810">
        <ele>742.8</ele>
        <time>2022-08-14T15:02:19Z</time>
      </trkpt>
      <trkpt lat="40.7970570" lon="-8.2191730">
        <ele>742.2</ele>
        <time>2022-08-14T15:02:20Z</time>
      </trkpt>
      <trkpt lat="40.7971070" lon="-8.2192550">
        <ele>741.6</ele>
        <time>2022-08-14T15:02:21Z</time>
      </trkpt>
      <trkpt lat="40.7971630" lon="-8.2193240">
        <ele>740.4</ele>
        <time>2022-08-14T15:02:22Z</time>
      </trkpt>
      <trkpt lat="40.7973060" lon="-8.2194160">
        <ele>739.0</ele>
        <time>2022-08-14T15:02:24Z</time>
      </trkpt>
      <trkpt lat="40.7973870" lon="-8.2194520">
        <ele>738.4</ele>
        <time>2022-08-14T15:02:25Z</time>
      </trkpt>
      <trkpt lat="40.7974730" lon="-8.2195190">
        <ele>737.4</ele>
        <time>2022-08-14T15:02:26Z</time>
      </trkpt>
      <trkpt lat="40.7975190" lon="-8.2195950">
        <ele>736.2</ele>
        <time>2022-08-14T15:02:27Z</time>
      </trkpt>
      <trkpt lat="40.7975260" lon="-8.2196820">
        <ele>735.6</ele>
        <time>2022-08-14T15:02:28Z</time>
      </trkpt>
      <trkpt lat="40.7975180" lon="-8.2197530">
        <ele>734.4</ele>
        <time>2022-08-14T15:02:29Z</time>
      </trkpt>
      <trkpt lat="40.7974980" lon="-8.2199040">
        <ele>732.2</ele>
        <time>2022-08-14T15:02:31Z</time>
      </trkpt>
      <trkpt lat="40.7974920" lon="-8.2200220">
        <ele>730.0</ele>
        <time>2022-08-14T15:02:33Z</time>
      </trkpt>
      <trkpt lat="40.7974910" lon="-8.2200540">
        <ele>728.8</ele>
        <time>2022-08-14T15:02:34Z</time>
      </trkpt>
      <trkpt lat="40.7974920" lon="-8.2200630">
        <ele>727.0</ele>
        <time>2022-08-14T15:02:36Z</time>
      </trkpt>
      <trkpt lat="40.7974920" lon="-8.2200630">
        <ele>726.6</ele>
        <time>2022-08-14T15:02:37Z</time>
      </trkpt>
      <trkpt lat="40.7974980" lon="-8.2200960">
        <ele>723.2</ele>
        <time>2022-08-14T15:02:55Z</time>
      </trkpt>
      <trkpt lat="40.7975220" lon="-8.2201750">
        <ele>723.0</ele>
        <time>2022-08-14T15:02:57Z</time>
      </trkpt>
      <trkpt lat="40.7976300" lon="-8.2204070">
        <ele>722.2</ele>
        <time>2022-08-14T15:03:01Z</time>
      </trkpt>
      <trkpt lat="40.7976760" lon="-8.2204780">
        <ele>722.0</ele>
        <time>2022-08-14T15:03:02Z</time>
      </trkpt>
      <trkpt lat="40.7978420" lon="-8.2207060">
        <ele>721.6</ele>
        <time>2022-08-14T15:03:05Z</time>
      </trkpt>
      <trkpt lat="40.7980580" lon="-8.2209510">
        <ele>720.8</ele>
        <time>2022-08-14T15:03:08Z</time>
      </trkpt>
      <trkpt lat="40.7981280" lon="-8.2210510">
        <ele>720.2</ele>
        <time>2022-08-14T15:03:09Z</time>
      </trkpt>
      <trkpt lat="40.7981900" lon="-8.2211620">
        <ele>719.8</ele>
        <time>2022-08-14T15:03:10Z</time>
      </trkpt>
      <trkpt lat="40.7982400" lon="-8.2212810">
        <ele>719.0</ele>
        <time>2022-08-14T15:03:11Z</time>
      </trkpt>
      <trkpt lat="40.7982720" lon="-8.2213790">
        <ele>718.6</ele>
        <time>2022-08-14T15:03:12Z</time>
      </trkpt>
      <trkpt lat="40.7983000" lon="-8.2214990">
        <ele>717.4</ele>
        <time>2022-08-14T15:03:13Z</time>
      </trkpt>
      <trkpt lat="40.7983220" lon="-8.2216060">
        <ele>715.6</ele>
        <time>2022-08-14T15:03:14Z</time>
      </trkpt>
      <trkpt lat="40.7983410" lon="-8.2217070">
        <ele>713.8</ele>
        <time>2022-08-14T15:03:15Z</time>
      </trkpt>
      <trkpt lat="40.7983570" lon="-8.2218120">
        <ele>712.4</ele>
        <time>2022-08-14T15:03:16Z</time>
      </trkpt>
      <trkpt lat="40.7983840" lon="-8.2220310">
        <ele>710.4</ele>
        <time>2022-08-14T15:03:18Z</time>
      </trkpt>
      <trkpt lat="40.7983930" lon="-8.2222750">
        <ele>708.8</ele>
        <time>2022-08-14T15:03:20Z</time>
      </trkpt>
      <trkpt lat="40.7983940" lon="-8.2223530">
        <ele>708.0</ele>
        <time>2022-08-14T15:03:21Z</time>
      </trkpt>
      <trkpt lat="40.7983920" lon="-8.2224600">
        <ele>707.0</ele>
        <time>2022-08-14T15:03:22Z</time>
      </trkpt>
      <trkpt lat="40.7983890" lon="-8.2225350">
        <ele>705.8</ele>
        <time>2022-08-14T15:03:23Z</time>
      </trkpt>
      <trkpt lat="40.7983820" lon="-8.2226520">
        <ele>704.2</ele>
        <time>2022-08-14T15:03:25Z</time>
      </trkpt>
      <trkpt lat="40.7983800" lon="-8.2227350">
        <ele>703.0</ele>
        <time>2022-08-14T15:03:27Z</time>
      </trkpt>
      <trkpt lat="40.7983780" lon="-8.2227730">
        <ele>702.2</ele>
        <time>2022-08-14T15:03:28Z</time>
      </trkpt>
      <trkpt lat="40.7983770" lon="-8.2228110">
        <ele>701.2</ele>
        <time>2022-08-14T15:03:29Z</time>
      </trkpt>
      <trkpt lat="40.7983760" lon="-8.2228490">
        <ele>696.2</ele>
        <time>2022-08-14T15:05:03Z</time>
      </trkpt>
      <trkpt lat="40.7983750" lon="-8.2228860">
        <ele>696.0</ele>
        <time>2022-08-14T15:05:04Z</time>
      </trkpt>
      <trkpt lat="40.7983700" lon="-8.2229510">
        <ele>696.2</ele>
        <time>2022-08-14T15:05:05Z</time>
      </trkpt>
      <trkpt lat="40.7983800" lon="-8.2231150">
        <ele>696.2</ele>
        <time>2022-08-14T15:05:07Z</time>
      </trkpt>
      <trkpt lat="40.7984370" lon="-8.2233740">
        <ele>695.4</ele>
        <time>2022-08-14T15:05:10Z</time>
      </trkpt>
      <trkpt lat="40.7984800" lon="-8.2234610">
        <ele>695.2</ele>
        <time>2022-08-14T15:05:11Z</time>
      </trkpt>
      <trkpt lat="40.7985350" lon="-8.2235430">
        <ele>695.0</ele>
        <time>2022-08-14T15:05:12Z</time>
      </trkpt>
      <trkpt lat="40.7986690" lon="-8.2236780">
        <ele>694.2</ele>
        <time>2022-08-14T15:05:14Z</time>
      </trkpt>
      <trkpt lat="40.7987430" lon="-8.2237410">
        <ele>693.0</ele>
        <time>2022-08-14T15:05:15Z</time>
      </trkpt>
      <trkpt lat="40.7988910" lon="-8.2238890">
        <ele>691.2</ele>
        <time>2022-08-14T15:05:17Z</time>
      </trkpt>
      <trkpt lat="40.7990320" lon="-8.2240590">
        <ele>689.4</ele>
        <time>2022-08-14T15:05:19Z</time>
      </trkpt>
      <trkpt lat="40.7991410" lon="-8.2242350">
        <ele>687.2</ele>
        <time>2022-08-14T15:05:21Z</time>
      </trkpt>
      <trkpt lat="40.7991780" lon="-8.2243270">
        <ele>686.0</ele>
        <time>2022-08-14T15:05:22Z</time>
      </trkpt>
      <trkpt lat="40.7992140" lon="-8.2244160">
        <ele>685.2</ele>
        <time>2022-08-14T15:05:23Z</time>
      </trkpt>
      <trkpt lat="40.7992510" lon="-8.2245020">
        <ele>684.2</ele>
        <time>2022-08-14T15:05:24Z</time>
      </trkpt>
      <trkpt lat="40.7993380" lon="-8.2246540">
        <ele>682.2</ele>
        <time>2022-08-14T15:05:26Z</time>
      </trkpt>
      <trkpt lat="40.7994140" lon="-8.2248170">
        <ele>680.6</ele>
        <time>2022-08-14T15:05:28Z</time>
      </trkpt>
      <trkpt lat="40.7994700" lon="-8.2249860">
        <ele>679.6</ele>
        <time>2022-08-14T15:05:30Z</time>
      </trkpt>
      <trkpt lat="40.7994810" lon="-8.2250570">
        <ele>679.0</ele>
        <time>2022-08-14T15:05:31Z</time>
      </trkpt>
      <trkpt lat="40.7994740" lon="-8.2251270">
        <ele>678.4</ele>
        <time>2022-08-14T15:05:32Z</time>
      </trkpt>
      <trkpt lat="40.7994190" lon="-8.2252300">
        <ele>677.2</ele>
        <time>2022-08-14T15:05:34Z</time>
      </trkpt>
      <trkpt lat="40.7993040" lon="-8.2252910">
        <ele>674.8</ele>
        <time>2022-08-14T15:05:36Z</time>
      </trkpt>
      <trkpt lat="40.7992660" lon="-8.2253000">
        <ele>674.2</ele>
        <time>2022-08-14T15:05:37Z</time>
      </trkpt>
      <trkpt lat="40.7992330" lon="-8.2253090">
        <ele>673.6</ele>
        <time>2022-08-14T15:05:38Z</time>
      </trkpt>
      <trkpt lat="40.7992030" lon="-8.2253120">
        <ele>672.8</ele>
        <time>2022-08-14T15:05:40Z</time>
      </trkpt>
      <trkpt lat="40.7991940" lon="-8.2253050">
        <ele>672.4</ele>
        <time>2022-08-14T15:05:41Z</time>
      </trkpt>
      <trkpt lat="40.7991850" lon="-8.2252770">
        <ele>670.4</ele>
        <time>2022-08-14T15:05:43Z</time>
      </trkpt>
      <trkpt lat="40.7991940" lon="-8.2252730">
        <ele>670.2</ele>
        <time>2022-08-14T15:05:44Z</time>
      </trkpt>
      <trkpt lat="40.7992050" lon="-8.2252710">
        <ele>669.4</ele>
        <time>2022-08-14T15:05:45Z</time>
      </trkpt>
      <trkpt lat="40.7992300" lon="-8.2252760">
        <ele>668.8</ele>
        <time>2022-08-14T15:05:47Z</time>
      </trkpt>
      <trkpt lat="40.7992430" lon="-8.2252710">
        <ele>668.8</ele>
        <time>2022-08-14T15:05:48Z</time>
      </trkpt>
      <trkpt lat="40.7993140" lon="-8.2252380">
        <ele>668.4</ele>
        <time>2022-08-14T15:05:52Z</time>
      </trkpt>
      <trkpt lat="40.7993600" lon="-8.2252320">
        <ele>668.2</ele>
        <time>2022-08-14T15:05:54Z</time>
      </trkpt>
      <trkpt lat="40.7994600" lon="-8.2251500">
        <ele>668.6</ele>
        <time>2022-08-14T15:06:00Z</time>
      </trkpt>
      <trkpt lat="40.7994540" lon="-8.2250940">
        <ele>669.6</ele>
        <time>2022-08-14T15:06:04Z</time>
      </trkpt>
      <trkpt lat="40.7994470" lon="-8.2250430">
        <ele>670.2</ele>
        <time>2022-08-14T15:06:07Z</time>
      </trkpt>
      <trkpt lat="40.7994210" lon="-8.2249520">
        <ele>670.6</ele>
        <time>2022-08-14T15:06:11Z</time>
      </trkpt>
      <trkpt lat="40.7993920" lon="-8.2248840">
        <ele>670.8</ele>
        <time>2022-08-14T15:06:14Z</time>
      </trkpt>
      <trkpt lat="40.7993630" lon="-8.2248130">
        <ele>671.6</ele>
        <time>2022-08-14T15:06:17Z</time>
      </trkpt>
      <trkpt lat="40.7993310" lon="-8.2247520">
        <ele>672.2</ele>
        <time>2022-08-14T15:06:20Z</time>
      </trkpt>
      <trkpt lat="40.7992940" lon="-8.2246590">
        <ele>673.0</ele>
        <time>2022-08-14T15:06:24Z</time>
      </trkpt>
      <trkpt lat="40.7992780" lon="-8.2246110">
        <ele>673.2</ele>
        <time>2022-08-14T15:06:26Z</time>
      </trkpt>
      <trkpt lat="40.7992290" lon="-8.2245230">
        <ele>674.0</ele>
        <time>2022-08-14T15:06:30Z</time>
      </trkpt>
      <trkpt lat="40.7991850" lon="-8.2244250">
        <ele>674.4</ele>
        <time>2022-08-14T15:06:34Z</time>
      </trkpt>
      <trkpt lat="40.7991330" lon="-8.2242920">
        <ele>675.2</ele>
        <time>2022-08-14T15:06:39Z</time>
      </trkpt>
      <trkpt lat="40.7991420" lon="-8.2242610">
        <ele>675.4</ele>
        <time>2022-08-14T15:06:41Z</time>
      </trkpt>
      <trkpt lat="40.7991560" lon="-8.2242570">
        <ele>675.4</ele>
        <time>2022-08-14T15:06:42Z</time>
      </trkpt>
      <trkpt lat="40.7991770" lon="-8.2242580">
        <ele>675.6</ele>
        <time>2022-08-14T15:06:43Z</time>
      </trkpt>
      <trkpt lat="40.7991970" lon="-8.2242670">
        <ele>676.0</ele>
        <time>2022-08-14T15:06:44Z</time>
      </trkpt>
      <trkpt lat="40.7992660" lon="-8.2243440">
        <ele>676.2</ele>
        <time>2022-08-14T15:06:47Z</time>
      </trkpt>
      <trkpt lat="40.7994070" lon="-8.2245260">
        <ele>676.2</ele>
        <time>2022-08-14T15:06:51Z</time>
      </trkpt>
      <trkpt lat="40.7994370" lon="-8.2245930">
        <ele>676.0</ele>
        <time>2022-08-14T15:06:52Z</time>
      </trkpt>
      <trkpt lat="40.7995010" lon="-8.2247460">
        <ele>675.8</ele>
        <time>2022-08-14T15:06:54Z</time>
      </trkpt>
      <trkpt lat="40.7995520" lon="-8.2248370">
        <ele>675.4</ele>
        <time>2022-08-14T15:06:55Z</time>
      </trkpt>
      <trkpt lat="40.7996240" lon="-8.2249400">
        <ele>675.2</ele>
        <time>2022-08-14T15:06:56Z</time>
      </trkpt>
      <trkpt lat="40.7997440" lon="-8.2250600">
        <ele>674.6</ele>
        <time>2022-08-14T15:06:58Z</time>
      </trkpt>
      <trkpt lat="40.7999400" lon="-8.2252240">
        <ele>673.0</ele>
        <time>2022-08-14T15:07:01Z</time>
      </trkpt>
      <trkpt lat="40.7999940" lon="-8.2252620">
        <ele>672.2</ele>
        <time>2022-08-14T15:07:02Z</time>
      </trkpt>
      <trkpt lat="40.8000370" lon="-8.2252890">
        <ele>671.0</ele>
        <time>2022-08-14T15:07:03Z</time>
      </trkpt>
      <trkpt lat="40.8000690" lon="-8.2252980">
        <ele>670.2</ele>
        <time>2022-08-14T15:07:04Z</time>
      </trkpt>
      <trkpt lat="40.8000910" lon="-8.2253000">
        <ele>669.2</ele>
        <time>2022-08-14T15:07:05Z</time>
      </trkpt>
      <trkpt lat="40.8001140" lon="-8.2253030">
        <ele>667.2</ele>
        <time>2022-08-14T15:07:07Z</time>
      </trkpt>
      <trkpt lat="40.8001310" lon="-8.2253140">
        <ele>665.8</ele>
        <time>2022-08-14T15:07:09Z</time>
      </trkpt>
      <trkpt lat="40.8001600" lon="-8.2253280">
        <ele>665.0</ele>
        <time>2022-08-14T15:07:11Z</time>
      </trkpt>
      <trkpt lat="40.8001680" lon="-8.2253510">
        <ele>664.6</ele>
        <time>2022-08-14T15:07:12Z</time>
      </trkpt>
      <trkpt lat="40.8001630" lon="-8.2253870">
        <ele>664.4</ele>
        <time>2022-08-14T15:07:13Z</time>
      </trkpt>
      <trkpt lat="40.8001120" lon="-8.2254220">
        <ele>664.0</ele>
        <time>2022-08-14T15:07:15Z</time>
      </trkpt>
      <trkpt lat="40.8000750" lon="-8.2254170">
        <ele>664.0</ele>
        <time>2022-08-14T15:07:16Z</time>
      </trkpt>
      <trkpt lat="40.8000390" lon="-8.2254150">
        <ele>663.8</ele>
        <time>2022-08-14T15:07:17Z</time>
      </trkpt>
      <trkpt lat="40.7999600" lon="-8.2254290">
        <ele>663.4</ele>
        <time>2022-08-14T15:07:19Z</time>
      </trkpt>
      <trkpt lat="40.7999220" lon="-8.2254490">
        <ele>663.4</ele>
        <time>2022-08-14T15:07:20Z</time>
      </trkpt>
      <trkpt lat="40.7997050" lon="-8.2256220">
        <ele>662.6</ele>
        <time>2022-08-14T15:07:27Z</time>
      </trkpt>
      <trkpt lat="40.7996850" lon="-8.2256300">
        <ele>662.4</ele>
        <time>2022-08-14T15:07:28Z</time>
      </trkpt>
      <trkpt lat="40.7996510" lon="-8.2256150">
        <ele>662.2</ele>
        <time>2022-08-14T15:07:30Z</time>
      </trkpt>
      <trkpt lat="40.7996600" lon="-8.2256010">
        <ele>662.0</ele>
        <time>2022-08-14T15:07:32Z</time>
      </trkpt>
      <trkpt lat="40.7996860" lon="-8.2255970">
        <ele>662.0</ele>
        <time>2022-08-14T15:07:33Z</time>
      </trkpt>
      <trkpt lat="40.7997270" lon="-8.2255910">
        <ele>662.0</ele>
        <time>2022-08-14T15:07:35Z</time>
      </trkpt>
      <trkpt lat="40.7997520" lon="-8.2256070">
        <ele>662.2</ele>
        <time>2022-08-14T15:07:37Z</time>
      </trkpt>
      <trkpt lat="40.7997540" lon="-8.2256160">
        <ele>662.0</ele>
        <time>2022-08-14T15:07:38Z</time>
      </trkpt>
      <trkpt lat="40.7997600" lon="-8.2256800">
        <ele>662.0</ele>
        <time>2022-08-14T15:07:41Z</time>
      </trkpt>
      <trkpt lat="40.7997510" lon="-8.2258660">
        <ele>661.6</ele>
        <time>2022-08-14T15:07:46Z</time>
      </trkpt>
      <trkpt lat="40.7997540" lon="-8.2258900">
        <ele>661.4</ele>
        <time>2022-08-14T15:07:47Z</time>
      </trkpt>
      <trkpt lat="40.7997570" lon="-8.2259140">
        <ele>660.4</ele>
        <time>2022-08-14T15:07:50Z</time>
      </trkpt>
      <trkpt lat="40.7997530" lon="-8.2260820">
        <ele>659.4</ele>
        <time>2022-08-14T15:07:56Z</time>
      </trkpt>
      <trkpt lat="40.7997520" lon="-8.2261140">
        <ele>658.6</ele>
        <time>2022-08-14T15:07:57Z</time>
      </trkpt>
      <trkpt lat="40.7997580" lon="-8.2262650">
        <ele>657.4</ele>
        <time>2022-08-14T15:08:00Z</time>
      </trkpt>
      <trkpt lat="40.7997600" lon="-8.2263410">
        <ele>656.8</ele>
        <time>2022-08-14T15:08:01Z</time>
      </trkpt>
      <trkpt lat="40.7997720" lon="-8.2264400">
        <ele>655.2</ele>
        <time>2022-08-14T15:08:03Z</time>
      </trkpt>
      <trkpt lat="40.7997850" lon="-8.2264930">
        <ele>654.0</ele>
        <time>2022-08-14T15:08:04Z</time>
      </trkpt>
      <trkpt lat="40.7998000" lon="-8.2266250">
        <ele>652.0</ele>
        <time>2022-08-14T15:08:06Z</time>
      </trkpt>
      <trkpt lat="40.7998280" lon="-8.2267700">
        <ele>650.8</ele>
        <time>2022-08-14T15:08:08Z</time>
      </trkpt>
      <trkpt lat="40.7998420" lon="-8.2269390">
        <ele>648.8</ele>
        <time>2022-08-14T15:08:10Z</time>
      </trkpt>
      <trkpt lat="40.7998340" lon="-8.2270700">
        <ele>647.4</ele>
        <time>2022-08-14T15:08:12Z</time>
      </trkpt>
      <trkpt lat="40.7998220" lon="-8.2271300">
        <ele>646.8</ele>
        <time>2022-08-14T15:08:13Z</time>
      </trkpt>
      <trkpt lat="40.7998000" lon="-8.2272540">
        <ele>646.4</ele>
        <time>2022-08-14T15:08:15Z</time>
      </trkpt>
      <trkpt lat="40.7997950" lon="-8.2273080">
        <ele>646.2</ele>
        <time>2022-08-14T15:08:16Z</time>
      </trkpt>
      <trkpt lat="40.7997920" lon="-8.2274060">
        <ele>645.6</ele>
        <time>2022-08-14T15:08:18Z</time>
      </trkpt>
      <trkpt lat="40.7998140" lon="-8.2275280">
        <ele>645.0</ele>
        <time>2022-08-14T15:08:20Z</time>
      </trkpt>
      <trkpt lat="40.7998820" lon="-8.2277840">
        <ele>644.0</ele>
        <time>2022-08-14T15:08:24Z</time>
      </trkpt>
      <trkpt lat="40.7998810" lon="-8.2278480">
        <ele>643.6</ele>
        <time>2022-08-14T15:08:25Z</time>
      </trkpt>
      <trkpt lat="40.7998730" lon="-8.2279600">
        <ele>643.0</ele>
        <time>2022-08-14T15:08:27Z</time>
      </trkpt>
      <trkpt lat="40.7998610" lon="-8.2280270">
        <ele>642.6</ele>
        <time>2022-08-14T15:08:28Z</time>
      </trkpt>
      <trkpt lat="40.7998340" lon="-8.2283800">
        <ele>641.4</ele>
        <time>2022-08-14T15:08:32Z</time>
      </trkpt>
      <trkpt lat="40.7998330" lon="-8.2285600">
        <ele>640.6</ele>
        <time>2022-08-14T15:08:34Z</time>
      </trkpt>
      <trkpt lat="40.7998090" lon="-8.2286720">
        <ele>640.2</ele>
        <time>2022-08-14T15:08:35Z</time>
      </trkpt>
      <trkpt lat="40.7997640" lon="-8.2287540">
        <ele>639.2</ele>
        <time>2022-08-14T15:08:36Z</time>
      </trkpt>
      <trkpt lat="40.7997010" lon="-8.2288140">
        <ele>638.8</ele>
        <time>2022-08-14T15:08:38Z</time>
      </trkpt>
      <trkpt lat="40.7996270" lon="-8.2288600">
        <ele>637.8</ele>
        <time>2022-08-14T15:08:39Z</time>
      </trkpt>
      <trkpt lat="40.7995700" lon="-8.2288930">
        <ele>636.2</ele>
        <time>2022-08-14T15:08:40Z</time>
      </trkpt>
      <trkpt lat="40.7994190" lon="-8.2289800">
        <ele>635.0</ele>
        <time>2022-08-14T15:08:42Z</time>
      </trkpt>
      <trkpt lat="40.7992990" lon="-8.2290670">
        <ele>633.6</ele>
        <time>2022-08-14T15:08:44Z</time>
      </trkpt>
      <trkpt lat="40.7992610" lon="-8.2291100">
        <ele>633.0</ele>
        <time>2022-08-14T15:08:45Z</time>
      </trkpt>
      <trkpt lat="40.7992210" lon="-8.2291740">
        <ele>631.8</ele>
        <time>2022-08-14T15:08:46Z</time>
      </trkpt>
      <trkpt lat="40.7991900" lon="-8.2292610">
        <ele>630.6</ele>
        <time>2022-08-14T15:08:47Z</time>
      </trkpt>
      <trkpt lat="40.7991770" lon="-8.2293340">
        <ele>630.0</ele>
        <time>2022-08-14T15:08:48Z</time>
      </trkpt>
      <trkpt lat="40.7991760" lon="-8.2294030">
        <ele>629.2</ele>
        <time>2022-08-14T15:08:49Z</time>
      </trkpt>
      <trkpt lat="40.7991820" lon="-8.2294590">
        <ele>628.8</ele>
        <time>2022-08-14T15:08:50Z</time>
      </trkpt>
      <trkpt lat="40.7992000" lon="-8.2295370">
        <ele>628.0</ele>
        <time>2022-08-14T15:08:51Z</time>
      </trkpt>
      <trkpt lat="40.7992460" lon="-8.2297130">
        <ele>626.6</ele>
        <time>2022-08-14T15:08:53Z</time>
      </trkpt>
      <trkpt lat="40.7992490" lon="-8.2297990">
        <ele>625.4</ele>
        <time>2022-08-14T15:08:54Z</time>
      </trkpt>
      <trkpt lat="40.7992270" lon="-8.2298940">
        <ele>625.0</ele>
        <time>2022-08-14T15:08:55Z</time>
      </trkpt>
      <trkpt lat="40.7991980" lon="-8.2299490">
        <ele>624.0</ele>
        <time>2022-08-14T15:08:56Z</time>
      </trkpt>
      <trkpt lat="40.7991510" lon="-8.2300010">
        <ele>623.4</ele>
        <time>2022-08-14T15:08:57Z</time>
      </trkpt>
      <trkpt lat="40.7990910" lon="-8.2300310">
        <ele>622.8</ele>
        <time>2022-08-14T15:08:58Z</time>
      </trkpt>
      <trkpt lat="40.7990130" lon="-8.2300620">
        <ele>622.6</ele>
        <time>2022-08-14T15:08:59Z</time>
      </trkpt>
      <trkpt lat="40.7989490" lon="-8.2300970">
        <ele>621.8</ele>
        <time>2022-08-14T15:09:00Z</time>
      </trkpt>
      <trkpt lat="40.7988910" lon="-8.2301440">
        <ele>620.6</ele>
        <time>2022-08-14T15:09:01Z</time>
      </trkpt>
      <trkpt lat="40.7988010" lon="-8.2302260">
        <ele>618.4</ele>
        <time>2022-08-14T15:09:03Z</time>
      </trkpt>
      <trkpt lat="40.7987570" lon="-8.2302640">
        <ele>617.8</ele>
        <time>2022-08-14T15:09:04Z</time>
      </trkpt>
      <trkpt lat="40.7987180" lon="-8.2302960">
        <ele>616.6</ele>
        <time>2022-08-14T15:09:05Z</time>
      </trkpt>
      <trkpt lat="40.7986620" lon="-8.2303370">
        <ele>614.4</ele>
        <time>2022-08-14T15:09:07Z</time>
      </trkpt>
      <trkpt lat="40.7986490" lon="-8.2303450">
        <ele>613.6</ele>
        <time>2022-08-14T15:09:08Z</time>
      </trkpt>
      <trkpt lat="40.7986460" lon="-8.2303480">
        <ele>613.0</ele>
        <time>2022-08-14T15:09:09Z</time>
      </trkpt>
      <trkpt lat="40.7986460" lon="-8.2303480">
        <ele>611.6</ele>
        <time>2022-08-14T15:09:11Z</time>
      </trkpt>
      <trkpt lat="40.7986420" lon="-8.2303990">
        <ele>606.8</ele>
        <time>2022-08-14T15:10:39Z</time>
      </trkpt>
      <trkpt lat="40.7986170" lon="-8.2306060">
        <ele>606.0</ele>
        <time>2022-08-14T15:10:44Z</time>
      </trkpt>
      <trkpt lat="40.7986290" lon="-8.2307600">
        <ele>605.8</ele>
        <time>2022-08-14T15:10:46Z</time>
      </trkpt>
      <trkpt lat="40.7986680" lon="-8.2308840">
        <ele>605.4</ele>
        <time>2022-08-14T15:10:48Z</time>
      </trkpt>
      <trkpt lat="40.7987670" lon="-8.2310760">
        <ele>604.6</ele>
        <time>2022-08-14T15:10:51Z</time>
      </trkpt>
      <trkpt lat="40.7988850" lon="-8.2312790">
        <ele>604.0</ele>
        <time>2022-08-14T15:10:55Z</time>
      </trkpt>
      <trkpt lat="40.7989010" lon="-8.2313230">
        <ele>603.8</ele>
        <time>2022-08-14T15:10:56Z</time>
      </trkpt>
      <trkpt lat="40.7989130" lon="-8.2313770">
        <ele>603.4</ele>
        <time>2022-08-14T15:10:57Z</time>
      </trkpt>
      <trkpt lat="40.7988940" lon="-8.2314880">
        <ele>603.0</ele>
        <time>2022-08-14T15:10:59Z</time>
      </trkpt>
      <trkpt lat="40.7988630" lon="-8.2315520">
        <ele>602.4</ele>
        <time>2022-08-14T15:11:00Z</time>
      </trkpt>
      <trkpt lat="40.7988250" lon="-8.2316090">
        <ele>602.2</ele>
        <time>2022-08-14T15:11:01Z</time>
      </trkpt>
      <trkpt lat="40.7987470" lon="-8.2317170">
        <ele>601.0</ele>
        <time>2022-08-14T15:11:03Z</time>
      </trkpt>
      <trkpt lat="40.7986800" lon="-8.2318410">
        <ele>599.0</ele>
        <time>2022-08-14T15:11:05Z</time>
      </trkpt>
      <trkpt lat="40.7986390" lon="-8.2320160">
        <ele>597.6</ele>
        <time>2022-08-14T15:11:07Z</time>
      </trkpt>
      <trkpt lat="40.7986430" lon="-8.2322060">
        <ele>596.0</ele>
        <time>2022-08-14T15:11:09Z</time>
      </trkpt>
      <trkpt lat="40.7986630" lon="-8.2323100">
        <ele>595.4</ele>
        <time>2022-08-14T15:11:10Z</time>
      </trkpt>
      <trkpt lat="40.7986820" lon="-8.2324000">
        <ele>594.2</ele>
        <time>2022-08-14T15:11:11Z</time>
      </trkpt>
      <trkpt lat="40.7986990" lon="-8.2325320">
        <ele>592.6</ele>
        <time>2022-08-14T15:11:12Z</time>
      </trkpt>
      <trkpt lat="40.7986960" lon="-8.2326120">
        <ele>592.0</ele>
        <time>2022-08-14T15:11:13Z</time>
      </trkpt>
      <trkpt lat="40.7986660" lon="-8.2326870">
        <ele>590.8</ele>
        <time>2022-08-14T15:11:14Z</time>
      </trkpt>
      <trkpt lat="40.7986170" lon="-8.2327430">
        <ele>589.8</ele>
        <time>2022-08-14T15:11:15Z</time>
      </trkpt>
      <trkpt lat="40.7985690" lon="-8.2328010">
        <ele>588.4</ele>
        <time>2022-08-14T15:11:16Z</time>
      </trkpt>
      <trkpt lat="40.7985090" lon="-8.2328810">
        <ele>587.0</ele>
        <time>2022-08-14T15:11:17Z</time>
      </trkpt>
      <trkpt lat="40.7984000" lon="-8.2330130">
        <ele>585.0</ele>
        <time>2022-08-14T15:11:19Z</time>
      </trkpt>
      <trkpt lat="40.7983600" lon="-8.2330650">
        <ele>584.6</ele>
        <time>2022-08-14T15:11:20Z</time>
      </trkpt>
      <trkpt lat="40.7982970" lon="-8.2331460">
        <ele>583.8</ele>
        <time>2022-08-14T15:11:21Z</time>
      </trkpt>
      <trkpt lat="40.7981750" lon="-8.2332550">
        <ele>582.4</ele>
        <time>2022-08-14T15:11:23Z</time>
      </trkpt>
      <trkpt lat="40.7981120" lon="-8.2333090">
        <ele>581.0</ele>
        <time>2022-08-14T15:11:24Z</time>
      </trkpt>
      <trkpt lat="40.7979880" lon="-8.2334280">
        <ele>579.2</ele>
        <time>2022-08-14T15:11:26Z</time>
      </trkpt>
      <trkpt lat="40.7979260" lon="-8.2334810">
        <ele>578.4</ele>
        <time>2022-08-14T15:11:27Z</time>
      </trkpt>
      <trkpt lat="40.7978580" lon="-8.2335280">
        <ele>577.0</ele>
        <time>2022-08-14T15:11:28Z</time>
      </trkpt>
      <trkpt lat="40.7977910" lon="-8.2335720">
        <ele>576.2</ele>
        <time>2022-08-14T15:11:29Z</time>
      </trkpt>
      <trkpt lat="40.7977240" lon="-8.2336140">
        <ele>575.0</ele>
        <time>2022-08-14T15:11:30Z</time>
      </trkpt>
      <trkpt lat="40.7976720" lon="-8.2336450">
        <ele>573.8</ele>
        <time>2022-08-14T15:11:31Z</time>
      </trkpt>
      <trkpt lat="40.7975290" lon="-8.2337280">
        <ele>571.6</ele>
        <time>2022-08-14T15:11:33Z</time>
      </trkpt>
      <trkpt lat="40.7974140" lon="-8.2337810">
        <ele>570.0</ele>
        <time>2022-08-14T15:11:35Z</time>
      </trkpt>
      <trkpt lat="40.7973310" lon="-8.2338110">
        <ele>568.2</ele>
        <time>2022-08-14T15:11:37Z</time>
      </trkpt>
      <trkpt lat="40.7972530" lon="-8.2338250">
        <ele>566.8</ele>
        <time>2022-08-14T15:11:39Z</time>
      </trkpt>
      <trkpt lat="40.7972000" lon="-8.2338450">
        <ele>565.2</ele>
        <time>2022-08-14T15:11:41Z</time>
      </trkpt>
      <trkpt lat="40.7971860" lon="-8.2338660">
        <ele>564.0</ele>
        <time>2022-08-14T15:11:42Z</time>
      </trkpt>
      <trkpt lat="40.7971710" lon="-8.2339010">
        <ele>563.8</ele>
        <time>2022-08-14T15:11:43Z</time>
      </trkpt>
      <trkpt lat="40.7971660" lon="-8.2339250">
        <ele>563.2</ele>
        <time>2022-08-14T15:11:44Z</time>
      </trkpt>
      <trkpt lat="40.7971560" lon="-8.2340070">
        <ele>561.8</ele>
        <time>2022-08-14T15:11:47Z</time>
      </trkpt>
      <trkpt lat="40.7971610" lon="-8.2340440">
        <ele>561.4</ele>
        <time>2022-08-14T15:11:48Z</time>
      </trkpt>
      <trkpt lat="40.7971680" lon="-8.2340810">
        <ele>560.8</ele>
        <time>2022-08-14T15:11:49Z</time>
      </trkpt>
      <trkpt lat="40.7972430" lon="-8.2342440">
        <ele>559.8</ele>
        <time>2022-08-14T15:11:54Z</time>
      </trkpt>
      <trkpt lat="40.7972660" lon="-8.2342780">
        <ele>559.8</ele>
        <time>2022-08-14T15:11:55Z</time>
      </trkpt>
      <trkpt lat="40.7974120" lon="-8.2344700">
        <ele>559.4</ele>
        <time>2022-08-14T15:12:01Z</time>
      </trkpt>
      <trkpt lat="40.7975870" lon="-8.2346200">
        <ele>559.0</ele>
        <time>2022-08-14T15:12:07Z</time>
      </trkpt>
      <trkpt lat="40.7976170" lon="-8.2346420">
        <ele>558.8</ele>
        <time>2022-08-14T15:12:08Z</time>
      </trkpt>
      <trkpt lat="40.7977960" lon="-8.2347310">
        <ele>558.6</ele>
        <time>2022-08-14T15:12:14Z</time>
      </trkpt>
      <trkpt lat="40.7979000" lon="-8.2347350">
        <ele>557.8</ele>
        <time>2022-08-14T15:12:18Z</time>
      </trkpt>
      <trkpt lat="40.7979300" lon="-8.2347360">
        <ele>557.8</ele>
        <time>2022-08-14T15:12:19Z</time>
      </trkpt>
      <trkpt lat="40.7981450" lon="-8.2347480">
        <ele>557.2</ele>
        <time>2022-08-14T15:12:25Z</time>
      </trkpt>
      <trkpt lat="40.7982710" lon="-8.2347960">
        <ele>556.8</ele>
        <time>2022-08-14T15:12:29Z</time>
      </trkpt>
      <trkpt lat="40.7982990" lon="-8.2348180">
        <ele>556.6</ele>
        <time>2022-08-14T15:12:30Z</time>
      </trkpt>
      <trkpt lat="40.7984510" lon="-8.2349620">
        <ele>555.4</ele>
        <time>2022-08-14T15:12:34Z</time>
      </trkpt>
      <trkpt lat="40.7984950" lon="-8.2350030">
        <ele>555.2</ele>
        <time>2022-08-14T15:12:35Z</time>
      </trkpt>
      <trkpt lat="40.7986400" lon="-8.2350490">
        <ele>554.6</ele>
        <time>2022-08-14T15:12:38Z</time>
      </trkpt>
      <trkpt lat="40.7986840" lon="-8.2350780">
        <ele>554.0</ele>
        <time>2022-08-14T15:12:39Z</time>
      </trkpt>
      <trkpt lat="40.7987570" lon="-8.2351630">
        <ele>553.4</ele>
        <time>2022-08-14T15:12:41Z</time>
      </trkpt>
      <trkpt lat="40.7988000" lon="-8.2352200">
        <ele>553.0</ele>
        <time>2022-08-14T15:12:42Z</time>
      </trkpt>
      <trkpt lat="40.7988520" lon="-8.2352780">
        <ele>552.4</ele>
        <time>2022-08-14T15:12:43Z</time>
      </trkpt>
      <trkpt lat="40.7989950" lon="-8.2353960">
        <ele>551.6</ele>
        <time>2022-08-14T15:12:46Z</time>
      </trkpt>
      <trkpt lat="40.7990850" lon="-8.2354560">
        <ele>550.8</ele>
        <time>2022-08-14T15:12:48Z</time>
      </trkpt>
      <trkpt lat="40.7991590" lon="-8.2355570">
        <ele>550.2</ele>
        <time>2022-08-14T15:12:50Z</time>
      </trkpt>
      <trkpt lat="40.7991830" lon="-8.2356090">
        <ele>550.0</ele>
        <time>2022-08-14T15:12:51Z</time>
      </trkpt>
      <trkpt lat="40.7991880" lon="-8.2356530">
        <ele>549.8</ele>
        <time>2022-08-14T15:12:52Z</time>
      </trkpt>
      <trkpt lat="40.7991950" lon="-8.2357710">
        <ele>549.6</ele>
        <time>2022-08-14T15:12:54Z</time>
      </trkpt>
      <trkpt lat="40.7992170" lon="-8.2358270">
        <ele>549.6</ele>
        <time>2022-08-14T15:12:55Z</time>
      </trkpt>
      <trkpt lat="40.7992480" lon="-8.2358790">
        <ele>549.4</ele>
        <time>2022-08-14T15:12:56Z</time>
      </trkpt>
      <trkpt lat="40.7993810" lon="-8.2361080">
        <ele>547.8</ele>
        <time>2022-08-14T15:13:00Z</time>
      </trkpt>
      <trkpt lat="40.7994120" lon="-8.2361590">
        <ele>547.8</ele>
        <time>2022-08-14T15:13:01Z</time>
      </trkpt>
      <trkpt lat="40.7995380" lon="-8.2362590">
        <ele>547.2</ele>
        <time>2022-08-14T15:13:05Z</time>
      </trkpt>
      <trkpt lat="40.7996320" lon="-8.2362830">
        <ele>546.2</ele>
        <time>2022-08-14T15:13:07Z</time>
      </trkpt>
      <trkpt lat="40.7996810" lon="-8.2362990">
        <ele>545.8</ele>
        <time>2022-08-14T15:13:08Z</time>
      </trkpt>
      <trkpt lat="40.7997700" lon="-8.2363520">
        <ele>545.2</ele>
        <time>2022-08-14T15:13:10Z</time>
      </trkpt>
      <trkpt lat="40.7998390" lon="-8.2364090">
        <ele>543.8</ele>
        <time>2022-08-14T15:13:12Z</time>
      </trkpt>
      <trkpt lat="40.7998750" lon="-8.2364550">
        <ele>542.8</ele>
        <time>2022-08-14T15:13:13Z</time>
      </trkpt>
      <trkpt lat="40.7999110" lon="-8.2365230">
        <ele>542.2</ele>
        <time>2022-08-14T15:13:14Z</time>
      </trkpt>
      <trkpt lat="40.7999320" lon="-8.2365810">
        <ele>542.0</ele>
        <time>2022-08-14T15:13:15Z</time>
      </trkpt>
      <trkpt lat="40.7999470" lon="-8.2366410">
        <ele>540.8</ele>
        <time>2022-08-14T15:13:16Z</time>
      </trkpt>
      <trkpt lat="40.7999530" lon="-8.2366800">
        <ele>540.4</ele>
        <time>2022-08-14T15:13:17Z</time>
      </trkpt>
      <trkpt lat="40.7999590" lon="-8.2367270">
        <ele>539.8</ele>
        <time>2022-08-14T15:13:18Z</time>
      </trkpt>
      <trkpt lat="40.7999900" lon="-8.2368430">
        <ele>539.2</ele>
        <time>2022-08-14T15:13:20Z</time>
      </trkpt>
      <trkpt lat="40.8000240" lon="-8.2369150">
        <ele>538.8</ele>
        <time>2022-08-14T15:13:21Z</time>
      </trkpt>
      <trkpt lat="40.8000610" lon="-8.2369730">
        <ele>538.6</ele>
        <time>2022-08-14T15:13:22Z</time>
      </trkpt>
      <trkpt lat="40.8001550" lon="-8.2371190">
        <ele>537.8</ele>
        <time>2022-08-14T15:13:24Z</time>
      </trkpt>
      <trkpt lat="40.8002000" lon="-8.2371800">
        <ele>537.6</ele>
        <time>2022-08-14T15:13:25Z</time>
      </trkpt>
      <trkpt lat="40.8003390" lon="-8.2373530">
        <ele>535.8</ele>
        <time>2022-08-14T15:13:28Z</time>
      </trkpt>
      <trkpt lat="40.8004010" lon="-8.2374430">
        <ele>535.4</ele>
        <time>2022-08-14T15:13:29Z</time>
      </trkpt>
      <trkpt lat="40.8004560" lon="-8.2375310">
        <ele>534.8</ele>
        <time>2022-08-14T15:13:30Z</time>
      </trkpt>
      <trkpt lat="40.8005070" lon="-8.2376110">
        <ele>534.6</ele>
        <time>2022-08-14T15:13:31Z</time>
      </trkpt>
      <trkpt lat="40.8006030" lon="-8.2377260">
        <ele>533.6</ele>
        <time>2022-08-14T15:13:33Z</time>
      </trkpt>
      <trkpt lat="40.8006680" lon="-8.2377850">
        <ele>533.2</ele>
        <time>2022-08-14T15:13:34Z</time>
      </trkpt>
      <trkpt lat="40.8007980" lon="-8.2378760">
        <ele>532.6</ele>
        <time>2022-08-14T15:13:36Z</time>
      </trkpt>
      <trkpt lat="40.8010130" lon="-8.2380530">
        <ele>531.6</ele>
        <time>2022-08-14T15:13:40Z</time>
      </trkpt>
      <trkpt lat="40.8010570" lon="-8.2381090">
        <ele>530.6</ele>
        <time>2022-08-14T15:13:41Z</time>
      </trkpt>
      <trkpt lat="40.8011250" lon="-8.2382130">
        <ele>529.2</ele>
        <time>2022-08-14T15:13:43Z</time>
      </trkpt>
      <trkpt lat="40.8012070" lon="-8.2383310">
        <ele>528.6</ele>
        <time>2022-08-14T15:13:45Z</time>
      </trkpt>
      <trkpt lat="40.8012460" lon="-8.2383750">
        <ele>528.0</ele>
        <time>2022-08-14T15:13:46Z</time>
      </trkpt>
      <trkpt lat="40.8013010" lon="-8.2384410">
        <ele>527.2</ele>
        <time>2022-08-14T15:13:48Z</time>
      </trkpt>
      <trkpt lat="40.8013260" lon="-8.2384850">
        <ele>526.2</ele>
        <time>2022-08-14T15:13:49Z</time>
      </trkpt>
      <trkpt lat="40.8013380" lon="-8.2385320">
        <ele>525.6</ele>
        <time>2022-08-14T15:13:50Z</time>
      </trkpt>
      <trkpt lat="40.8013360" lon="-8.2385870">
        <ele>524.8</ele>
        <time>2022-08-14T15:13:51Z</time>
      </trkpt>
      <trkpt lat="40.8013140" lon="-8.2386660">
        <ele>524.0</ele>
        <time>2022-08-14T15:13:53Z</time>
      </trkpt>
      <trkpt lat="40.8012910" lon="-8.2387650">
        <ele>522.8</ele>
        <time>2022-08-14T15:13:55Z</time>
      </trkpt>
      <trkpt lat="40.8012720" lon="-8.2389330">
        <ele>521.2</ele>
        <time>2022-08-14T15:13:58Z</time>
      </trkpt>
      <trkpt lat="40.8012690" lon="-8.2389820">
        <ele>520.6</ele>
        <time>2022-08-14T15:13:59Z</time>
      </trkpt>
      <trkpt lat="40.8012710" lon="-8.2390250">
        <ele>519.6</ele>
        <time>2022-08-14T15:14:00Z</time>
      </trkpt>
      <trkpt lat="40.8012700" lon="-8.2390650">
        <ele>518.4</ele>
        <time>2022-08-14T15:14:01Z</time>
      </trkpt>
      <trkpt lat="40.8012500" lon="-8.2392310">
        <ele>517.0</ele>
        <time>2022-08-14T15:14:04Z</time>
      </trkpt>
      <trkpt lat="40.8012390" lon="-8.2392980">
        <ele>516.6</ele>
        <time>2022-08-14T15:14:05Z</time>
      </trkpt>
      <trkpt lat="40.8012070" lon="-8.2394390">
        <ele>516.0</ele>
        <time>2022-08-14T15:14:07Z</time>
      </trkpt>
      <trkpt lat="40.8011860" lon="-8.2395690">
        <ele>514.8</ele>
        <time>2022-08-14T15:14:09Z</time>
      </trkpt>
      <trkpt lat="40.8011780" lon="-8.2396290">
        <ele>513.6</ele>
        <time>2022-08-14T15:14:10Z</time>
      </trkpt>
      <trkpt lat="40.8011780" lon="-8.2397280">
        <ele>512.4</ele>
        <time>2022-08-14T15:14:12Z</time>
      </trkpt>
      <trkpt lat="40.8011750" lon="-8.2398400">
        <ele>510.8</ele>
        <time>2022-08-14T15:14:14Z</time>
      </trkpt>
      <trkpt lat="40.8011810" lon="-8.2399410">
        <ele>509.6</ele>
        <time>2022-08-14T15:14:16Z</time>
      </trkpt>
      <trkpt lat="40.8011790" lon="-8.2399870">
        <ele>509.0</ele>
        <time>2022-08-14T15:14:17Z</time>
      </trkpt>
      <trkpt lat="40.8011750" lon="-8.2400270">
        <ele>508.8</ele>
        <time>2022-08-14T15:14:18Z</time>
      </trkpt>
      <trkpt lat="40.8011710" lon="-8.2400630">
        <ele>507.4</ele>
        <time>2022-08-14T15:14:19Z</time>
      </trkpt>
      <trkpt lat="40.8011520" lon="-8.2401730">
        <ele>506.0</ele>
        <time>2022-08-14T15:14:21Z</time>
      </trkpt>
      <trkpt lat="40.8011120" lon="-8.2402450">
        <ele>505.4</ele>
        <time>2022-08-14T15:14:22Z</time>
      </trkpt>
      <trkpt lat="40.8010600" lon="-8.2403170">
        <ele>505.2</ele>
        <time>2022-08-14T15:14:23Z</time>
      </trkpt>
      <trkpt lat="40.8010150" lon="-8.2403840">
        <ele>504.4</ele>
        <time>2022-08-14T15:14:24Z</time>
      </trkpt>
      <trkpt lat="40.8009480" lon="-8.2404880">
        <ele>503.0</ele>
        <time>2022-08-14T15:14:26Z</time>
      </trkpt>
      <trkpt lat="40.8008980" lon="-8.2405520">
        <ele>502.4</ele>
        <time>2022-08-14T15:14:28Z</time>
      </trkpt>
      <trkpt lat="40.8008860" lon="-8.2405910">
        <ele>501.6</ele>
        <time>2022-08-14T15:14:29Z</time>
      </trkpt>
      <trkpt lat="40.8008810" lon="-8.2406820">
        <ele>500.2</ele>
        <time>2022-08-14T15:14:31Z</time>
      </trkpt>
      <trkpt lat="40.8008790" lon="-8.2407220">
        <ele>499.8</ele>
        <time>2022-08-14T15:14:32Z</time>
      </trkpt>
      <trkpt lat="40.8008790" lon="-8.2407650">
        <ele>498.8</ele>
        <time>2022-08-14T15:14:33Z</time>
      </trkpt>
      <trkpt lat="40.8008670" lon="-8.2408640">
        <ele>497.2</ele>
        <time>2022-08-14T15:14:35Z</time>
      </trkpt>
      <trkpt lat="40.8008490" lon="-8.2409190">
        <ele>496.2</ele>
        <time>2022-08-14T15:14:36Z</time>
      </trkpt>
      <trkpt lat="40.8008210" lon="-8.2409780">
        <ele>495.6</ele>
        <time>2022-08-14T15:14:37Z</time>
      </trkpt>
      <trkpt lat="40.8007880" lon="-8.2410360">
        <ele>494.2</ele>
        <time>2022-08-14T15:14:38Z</time>
      </trkpt>
      <trkpt lat="40.8007210" lon="-8.2411520">
        <ele>492.8</ele>
        <time>2022-08-14T15:14:40Z</time>
      </trkpt>
      <trkpt lat="40.8006600" lon="-8.2412490">
        <ele>490.6</ele>
        <time>2022-08-14T15:14:42Z</time>
      </trkpt>
      <trkpt lat="40.8006330" lon="-8.2412920">
        <ele>489.2</ele>
        <time>2022-08-14T15:14:43Z</time>
      </trkpt>
      <trkpt lat="40.8005750" lon="-8.2413900">
        <ele>487.4</ele>
        <time>2022-08-14T15:14:45Z</time>
      </trkpt>
      <trkpt lat="40.8005170" lon="-8.2415220">
        <ele>485.8</ele>
        <time>2022-08-14T15:14:47Z</time>
      </trkpt>
      <trkpt lat="40.8004850" lon="-8.2415990">
        <ele>484.8</ele>
        <time>2022-08-14T15:14:48Z</time>
      </trkpt>
      <trkpt lat="40.8004530" lon="-8.2416830">
        <ele>483.2</ele>
        <time>2022-08-14T15:14:49Z</time>
      </trkpt>
      <trkpt lat="40.8004170" lon="-8.2417790">
        <ele>482.2</ele>
        <time>2022-08-14T15:14:50Z</time>
      </trkpt>
      <trkpt lat="40.8003430" lon="-8.2419800">
        <ele>480.6</ele>
        <time>2022-08-14T15:14:52Z</time>
      </trkpt>
      <trkpt lat="40.8003030" lon="-8.2420910">
        <ele>479.6</ele>
        <time>2022-08-14T15:14:53Z</time>
      </trkpt>
      <trkpt lat="40.8002620" lon="-8.2422140">
        <ele>478.0</ele>
        <time>2022-08-14T15:14:54Z</time>
      </trkpt>
      <trkpt lat="40.8001730" lon="-8.2424780">
        <ele>476.0</ele>
        <time>2022-08-14T15:14:56Z</time>
      </trkpt>
      <trkpt lat="40.8001170" lon="-8.2426100">
        <ele>475.6</ele>
        <time>2022-08-14T15:14:57Z</time>
      </trkpt>
      <trkpt lat="40.7999920" lon="-8.2428460">
        <ele>474.6</ele>
        <time>2022-08-14T15:14:59Z</time>
      </trkpt>
      <trkpt lat="40.7999370" lon="-8.2429580">
        <ele>473.4</ele>
        <time>2022-08-14T15:15:00Z</time>
      </trkpt>
      <trkpt lat="40.7998940" lon="-8.2430890">
        <ele>471.8</ele>
        <time>2022-08-14T15:15:01Z</time>
      </trkpt>
      <trkpt lat="40.7998490" lon="-8.2432720">
        <ele>469.6</ele>
        <time>2022-08-14T15:15:03Z</time>
      </trkpt>
      <trkpt lat="40.7998300" lon="-8.2433480">
        <ele>469.0</ele>
        <time>2022-08-14T15:15:04Z</time>
      </trkpt>
      <trkpt lat="40.7998150" lon="-8.2434000">
        <ele>468.6</ele>
        <time>2022-08-14T15:15:05Z</time>
      </trkpt>
      <trkpt lat="40.7997850" lon="-8.2434990">
        <ele>467.2</ele>
        <time>2022-08-14T15:15:07Z</time>
      </trkpt>
      <trkpt lat="40.7997910" lon="-8.2435430">
        <ele>466.0</ele>
        <time>2022-08-14T15:15:08Z</time>
      </trkpt>
      <trkpt lat="40.7998220" lon="-8.2436200">
        <ele>465.0</ele>
        <time>2022-08-14T15:15:10Z</time>
      </trkpt>
      <trkpt lat="40.7998770" lon="-8.2437720">
        <ele>463.8</ele>
        <time>2022-08-14T15:15:13Z</time>
      </trkpt>
      <trkpt lat="40.7999390" lon="-8.2439010">
        <ele>462.8</ele>
        <time>2022-08-14T15:15:16Z</time>
      </trkpt>
      <trkpt lat="40.7999690" lon="-8.2439570">
        <ele>462.2</ele>
        <time>2022-08-14T15:15:17Z</time>
      </trkpt>
      <trkpt lat="40.8000360" lon="-8.2441180">
        <ele>461.4</ele>
        <time>2022-08-14T15:15:20Z</time>
      </trkpt>
      <trkpt lat="40.8000510" lon="-8.2441620">
        <ele>461.2</ele>
        <time>2022-08-14T15:15:21Z</time>
      </trkpt>
      <trkpt lat="40.8000730" lon="-8.2442220">
        <ele>460.8</ele>
        <time>2022-08-14T15:15:22Z</time>
      </trkpt>
      <trkpt lat="40.8000920" lon="-8.2442990">
        <ele>460.6</ele>
        <time>2022-08-14T15:15:23Z</time>
      </trkpt>
      <trkpt lat="40.8001010" lon="-8.2443660">
        <ele>460.2</ele>
        <time>2022-08-14T15:15:24Z</time>
      </trkpt>
      <trkpt lat="40.8001070" lon="-8.2444300">
        <ele>460.0</ele>
        <time>2022-08-14T15:15:25Z</time>
      </trkpt>
      <trkpt lat="40.8001100" lon="-8.2444940">
        <ele>459.8</ele>
        <time>2022-08-14T15:15:26Z</time>
      </trkpt>
      <trkpt lat="40.8001140" lon="-8.2446860">
        <ele>459.2</ele>
        <time>2022-08-14T15:15:29Z</time>
      </trkpt>
      <trkpt lat="40.8001150" lon="-8.2447540">
        <ele>459.0</ele>
        <time>2022-08-14T15:15:30Z</time>
      </trkpt>
      <trkpt lat="40.8001350" lon="-8.2448950">
        <ele>457.8</ele>
        <time>2022-08-14T15:15:32Z</time>
      </trkpt>
      <trkpt lat="40.8001500" lon="-8.2449570">
        <ele>457.6</ele>
        <time>2022-08-14T15:15:33Z</time>
      </trkpt>
      <trkpt lat="40.8001660" lon="-8.2450200">
        <ele>457.0</ele>
        <time>2022-08-14T15:15:34Z</time>
      </trkpt>
      <trkpt lat="40.8002470" lon="-8.2453350">
        <ele>455.8</ele>
        <time>2022-08-14T15:15:38Z</time>
      </trkpt>
      <trkpt lat="40.8002590" lon="-8.2454300">
        <ele>455.2</ele>
        <time>2022-08-14T15:15:39Z</time>
      </trkpt>
      <trkpt lat="40.8002770" lon="-8.2455940">
        <ele>454.2</ele>
        <time>2022-08-14T15:15:41Z</time>
      </trkpt>
      <trkpt lat="40.8002880" lon="-8.2457630">
        <ele>452.4</ele>
        <time>2022-08-14T15:15:43Z</time>
      </trkpt>
      <trkpt lat="40.8002950" lon="-8.2458340">
        <ele>452.0</ele>
        <time>2022-08-14T15:15:44Z</time>
      </trkpt>
      <trkpt lat="40.8003050" lon="-8.2459030">
        <ele>451.0</ele>
        <time>2022-08-14T15:15:45Z</time>
      </trkpt>
      <trkpt lat="40.8003190" lon="-8.2460140">
        <ele>449.6</ele>
        <time>2022-08-14T15:15:47Z</time>
      </trkpt>
      <trkpt lat="40.8003240" lon="-8.2461290">
        <ele>448.4</ele>
        <time>2022-08-14T15:15:49Z</time>
      </trkpt>
      <trkpt lat="40.8003220" lon="-8.2461710">
        <ele>447.8</ele>
        <time>2022-08-14T15:15:50Z</time>
      </trkpt>
      <trkpt lat="40.8003150" lon="-8.2462490">
        <ele>446.8</ele>
        <time>2022-08-14T15:15:52Z</time>
      </trkpt>
      <trkpt lat="40.8003150" lon="-8.2463150">
        <ele>445.8</ele>
        <time>2022-08-14T15:15:54Z</time>
      </trkpt>
      <trkpt lat="40.8003240" lon="-8.2463740">
        <ele>445.0</ele>
        <time>2022-08-14T15:15:56Z</time>
      </trkpt>
      <trkpt lat="40.8003270" lon="-8.2463970">
        <ele>444.6</ele>
        <time>2022-08-14T15:15:57Z</time>
      </trkpt>
      <trkpt lat="40.8003310" lon="-8.2465400">
        <ele>443.6</ele>
        <time>2022-08-14T15:16:01Z</time>
      </trkpt>
      <trkpt lat="40.8003320" lon="-8.2465650">
        <ele>443.4</ele>
        <time>2022-08-14T15:16:02Z</time>
      </trkpt>
      <trkpt lat="40.8003370" lon="-8.2465960">
        <ele>442.4</ele>
        <time>2022-08-14T15:16:05Z</time>
      </trkpt>
      <trkpt lat="40.8003370" lon="-8.2465960">
        <ele>442.0</ele>
        <time>2022-08-14T15:16:06Z</time>
      </trkpt>
      <trkpt lat="40.8003220" lon="-8.2466530">
        <ele>440.4</ele>
        <time>2022-08-14T15:17:40Z</time>
      </trkpt>
      <trkpt lat="40.8003140" lon="-8.2467270">
        <ele>440.4</ele>
        <time>2022-08-14T15:17:42Z</time>
      </trkpt>
      <trkpt lat="40.8003020" lon="-8.2469610">
        <ele>440.0</ele>
        <time>2022-08-14T15:17:48Z</time>
      </trkpt>
      <trkpt lat="40.8003120" lon="-8.2472100">
        <ele>439.4</ele>
        <time>2022-08-14T15:17:55Z</time>
      </trkpt>
      <trkpt lat="40.8003100" lon="-8.2473120">
        <ele>439.4</ele>
        <time>2022-08-14T15:17:57Z</time>
      </trkpt>
      <trkpt lat="40.8002960" lon="-8.2474160">
        <ele>439.2</ele>
        <time>2022-08-14T15:17:59Z</time>
      </trkpt>
      <trkpt lat="40.8002850" lon="-8.2474670">
        <ele>439.2</ele>
        <time>2022-08-14T15:18:00Z</time>
      </trkpt>
      <trkpt lat="40.8002450" lon="-8.2475500">
        <ele>438.6</ele>
        <time>2022-08-14T15:18:02Z</time>
      </trkpt>
      <trkpt lat="40.8001890" lon="-8.2476150">
        <ele>438.0</ele>
        <time>2022-08-14T15:18:04Z</time>
      </trkpt>
      <trkpt lat="40.8000940" lon="-8.2476780">
        <ele>437.2</ele>
        <time>2022-08-14T15:18:07Z</time>
      </trkpt>
      <trkpt lat="40.8000120" lon="-8.2476840">
        <ele>436.4</ele>
        <time>2022-08-14T15:18:09Z</time>
      </trkpt>
      <trkpt lat="40.7999270" lon="-8.2476820">
        <ele>436.0</ele>
        <time>2022-08-14T15:18:11Z</time>
      </trkpt>
      <trkpt lat="40.7998050" lon="-8.2476750">
        <ele>434.8</ele>
        <time>2022-08-14T15:18:14Z</time>
      </trkpt>
      <trkpt lat="40.7997460" lon="-8.2476880">
        <ele>434.0</ele>
        <time>2022-08-14T15:18:15Z</time>
      </trkpt>
      <trkpt lat="40.7997100" lon="-8.2476970">
        <ele>433.2</ele>
        <time>2022-08-14T15:18:16Z</time>
      </trkpt>
      <trkpt lat="40.7996310" lon="-8.2477220">
        <ele>431.8</ele>
        <time>2022-08-14T15:18:18Z</time>
      </trkpt>
      <trkpt lat="40.7995510" lon="-8.2477600">
        <ele>430.4</ele>
        <time>2022-08-14T15:18:20Z</time>
      </trkpt>
      <trkpt lat="40.7994850" lon="-8.2477890">
        <ele>429.4</ele>
        <time>2022-08-14T15:18:22Z</time>
      </trkpt>
      <trkpt lat="40.7994160" lon="-8.2478160">
        <ele>428.0</ele>
        <time>2022-08-14T15:18:25Z</time>
      </trkpt>
      <trkpt lat="40.7993750" lon="-8.2478460">
        <ele>426.4</ele>
        <time>2022-08-14T15:18:27Z</time>
      </trkpt>
      <trkpt lat="40.7993200" lon="-8.2479000">
        <ele>425.2</ele>
        <time>2022-08-14T15:18:29Z</time>
      </trkpt>
      <trkpt lat="40.7992840" lon="-8.2479770">
        <ele>424.4</ele>
        <time>2022-08-14T15:18:31Z</time>
      </trkpt>
      <trkpt lat="40.7992770" lon="-8.2480200">
        <ele>423.2</ele>
        <time>2022-08-14T15:18:32Z</time>
      </trkpt>
      <trkpt lat="40.7992780" lon="-8.2481100">
        <ele>422.0</ele>
        <time>2022-08-14T15:18:34Z</time>
      </trkpt>
      <trkpt lat="40.7993100" lon="-8.2481970">
        <ele>421.2</ele>
        <time>2022-08-14T15:18:36Z</time>
      </trkpt>
      <trkpt lat="40.7993280" lon="-8.2482430">
        <ele>420.2</ele>
        <time>2022-08-14T15:18:37Z</time>
      </trkpt>
      <trkpt lat="40.7993450" lon="-8.2483130">
        <ele>419.0</ele>
        <time>2022-08-14T15:18:39Z</time>
      </trkpt>
      <trkpt lat="40.7993480" lon="-8.2483390">
        <ele>418.6</ele>
        <time>2022-08-14T15:18:40Z</time>
      </trkpt>
      <trkpt lat="40.7993520" lon="-8.2483570">
        <ele>417.0</ele>
        <time>2022-08-14T15:18:41Z</time>
      </trkpt>
      <trkpt lat="40.7993970" lon="-8.2484230">
        <ele>415.4</ele>
        <time>2022-08-14T15:18:44Z</time>
      </trkpt>
      <trkpt lat="40.7994350" lon="-8.2484620">
        <ele>414.4</ele>
        <time>2022-08-14T15:18:48Z</time>
      </trkpt>
      <trkpt lat="40.7994350" lon="-8.2484620">
        <ele>414.0</ele>
        <time>2022-08-14T15:18:49Z</time>
      </trkpt>
      <trkpt lat="40.7994060" lon="-8.2484870">
        <ele>412.8</ele>
        <time>2022-08-14T15:19:05Z</time>
      </trkpt>
      <trkpt lat="40.7993600" lon="-8.2484810">
        <ele>412.4</ele>
        <time>2022-08-14T15:19:07Z</time>
      </trkpt>
      <trkpt lat="40.7993120" lon="-8.2484410">
        <ele>412.2</ele>
        <time>2022-08-14T15:19:09Z</time>
      </trkpt>
      <trkpt lat="40.7992860" lon="-8.2483790">
        <ele>412.2</ele>
        <time>2022-08-14T15:19:11Z</time>
      </trkpt>
      <trkpt lat="40.7992530" lon="-8.2483300">
        <ele>412.2</ele>
        <time>2022-08-14T15:19:13Z</time>
      </trkpt>
      <trkpt lat="40.7992080" lon="-8.2483110">
        <ele>412.2</ele>
        <time>2022-08-14T15:19:15Z</time>
      </trkpt>
      <trkpt lat="40.7990960" lon="-8.2481530">
        <ele>412.4</ele>
        <time>2022-08-14T15:19:20Z</time>
      </trkpt>
      <trkpt lat="40.7990160" lon="-8.2479820">
        <ele>412.4</ele>
        <time>2022-08-14T15:19:23Z</time>
      </trkpt>
      <trkpt lat="40.7989750" lon="-8.2479270">
        <ele>412.4</ele>
        <time>2022-08-14T15:19:24Z</time>
      </trkpt>
      <trkpt lat="40.7989310" lon="-8.2478860">
        <ele>412.4</ele>
        <time>2022-08-14T15:19:25Z</time>
      </trkpt>
      <trkpt lat="40.7988400" lon="-8.2478620">
        <ele>412.2</ele>
        <time>2022-08-14T15:19:27Z</time>
      </trkpt>
      <trkpt lat="40.7987680" lon="-8.2479320">
        <ele>412.0</ele>
        <time>2022-08-14T15:19:29Z</time>
      </trkpt>
      <trkpt lat="40.7987500" lon="-8.2479880">
        <ele>411.6</ele>
        <time>2022-08-14T15:19:30Z</time>
      </trkpt>
      <trkpt lat="40.7987230" lon="-8.2481260">
        <ele>411.0</ele>
        <time>2022-08-14T15:19:32Z</time>
      </trkpt>
      <trkpt lat="40.7986570" lon="-8.2482590">
        <ele>410.6</ele>
        <time>2022-08-14T15:19:34Z</time>
      </trkpt>
      <trkpt lat="40.7986060" lon="-8.2483220">
        <ele>410.0</ele>
        <time>2022-08-14T15:19:35Z</time>
      </trkpt>
      <trkpt lat="40.7985150" lon="-8.2484050">
        <ele>409.4</ele>
        <time>2022-08-14T15:19:37Z</time>
      </trkpt>
      <trkpt lat="40.7984410" lon="-8.2484580">
        <ele>408.8</ele>
        <time>2022-08-14T15:19:39Z</time>
      </trkpt>
      <trkpt lat="40.7984150" lon="-8.2484720">
        <ele>407.8</ele>
        <time>2022-08-14T15:19:40Z</time>
      </trkpt>
      <trkpt lat="40.7983500" lon="-8.2484810">
        <ele>406.4</ele>
        <time>2022-08-14T15:19:43Z</time>
      </trkpt>
      <trkpt lat="40.7983120" lon="-8.2484930">
        <ele>405.0</ele>
        <time>2022-08-14T15:19:45Z</time>
      </trkpt>
      <trkpt lat="40.7982740" lon="-8.2485000">
        <ele>403.8</ele>
        <time>2022-08-14T15:19:48Z</time>
      </trkpt>
      <trkpt lat="40.7982530" lon="-8.2485030">
        <ele>403.0</ele>
        <time>2022-08-14T15:19:50Z</time>
      </trkpt>
      <trkpt lat="40.7982500" lon="-8.2485040">
        <ele>402.6</ele>
        <time>2022-08-14T15:19:51Z</time>
      </trkpt>
      <trkpt lat="40.7982150" lon="-8.2484860">
        <ele>401.6</ele>
        <time>2022-08-14T15:19:54Z</time>
      </trkpt>
      <trkpt lat="40.7981840" lon="-8.2484710">
        <ele>401.4</ele>
        <time>2022-08-14T15:19:55Z</time>
      </trkpt>
      <trkpt lat="40.7980840" lon="-8.2484520">
        <ele>401.0</ele>
        <time>2022-08-14T15:19:57Z</time>
      </trkpt>
      <trkpt lat="40.7980160" lon="-8.2484540">
        <ele>400.6</ele>
        <time>2022-08-14T15:19:58Z</time>
      </trkpt>
      <trkpt lat="40.7979470" lon="-8.2484680">
        <ele>400.4</ele>
        <time>2022-08-14T15:19:59Z</time>
      </trkpt>
      <trkpt lat="40.7978130" lon="-8.2484650">
        <ele>399.8</ele>
        <time>2022-08-14T15:20:01Z</time>
      </trkpt>
      <trkpt lat="40.7977470" lon="-8.2484360">
        <ele>399.6</ele>
        <time>2022-08-14T15:20:02Z</time>
      </trkpt>
      <trkpt lat="40.7976690" lon="-8.2483930">
        <ele>398.4</ele>
        <time>2022-08-14T15:20:03Z</time>
      </trkpt>
      <trkpt lat="40.7976020" lon="-8.2483670">
        <ele>398.0</ele>
        <time>2022-08-14T15:20:04Z</time>
      </trkpt>
      <trkpt lat="40.7975440" lon="-8.2483640">
        <ele>397.4</ele>
        <time>2022-08-14T15:20:05Z</time>
      </trkpt>
      <trkpt lat="40.7974700" lon="-8.2483660">
        <ele>396.2</ele>
        <time>2022-08-14T15:20:06Z</time>
      </trkpt>
      <trkpt lat="40.7974080" lon="-8.2483920">
        <ele>395.8</ele>
        <time>2022-08-14T15:20:07Z</time>
      </trkpt>
      <trkpt lat="40.7973520" lon="-8.2484380">
        <ele>394.0</ele>
        <time>2022-08-14T15:20:08Z</time>
      </trkpt>
      <trkpt lat="40.7972910" lon="-8.2485100">
        <ele>393.2</ele>
        <time>2022-08-14T15:20:09Z</time>
      </trkpt>
      <trkpt lat="40.7972520" lon="-8.2485680">
        <ele>391.4</ele>
        <time>2022-08-14T15:20:10Z</time>
      </trkpt>
      <trkpt lat="40.7972060" lon="-8.2486400">
        <ele>390.2</ele>
        <time>2022-08-14T15:20:11Z</time>
      </trkpt>
      <trkpt lat="40.7971500" lon="-8.2487230">
        <ele>390.0</ele>
        <time>2022-08-14T15:20:12Z</time>
      </trkpt>
      <trkpt lat="40.7971050" lon="-8.2487860">
        <ele>388.2</ele>
        <time>2022-08-14T15:20:13Z</time>
      </trkpt>
      <trkpt lat="40.7970620" lon="-8.2488430">
        <ele>387.2</ele>
        <time>2022-08-14T15:20:14Z</time>
      </trkpt>
      <trkpt lat="40.7970280" lon="-8.2488830">
        <ele>386.0</ele>
        <time>2022-08-14T15:20:15Z</time>
      </trkpt>
      <trkpt lat="40.7969870" lon="-8.2489280">
        <ele>385.6</ele>
        <time>2022-08-14T15:20:16Z</time>
      </trkpt>
      <trkpt lat="40.7969410" lon="-8.2489770">
        <ele>384.4</ele>
        <time>2022-08-14T15:20:17Z</time>
      </trkpt>
      <trkpt lat="40.7969040" lon="-8.2490200">
        <ele>383.2</ele>
        <time>2022-08-14T15:20:18Z</time>
      </trkpt>
      <trkpt lat="40.7968060" lon="-8.2490980">
        <ele>382.2</ele>
        <time>2022-08-14T15:20:21Z</time>
      </trkpt>
      <trkpt lat="40.7968010" lon="-8.2491030">
        <ele>381.6</ele>
        <time>2022-08-14T15:20:22Z</time>
      </trkpt>
      <trkpt lat="40.7968010" lon="-8.2491030">
        <ele>381.4</ele>
        <time>2022-08-14T15:20:23Z</time>
      </trkpt>
      <trkpt lat="40.7967650" lon="-8.2491040">
        <ele>378.8</ele>
        <time>2022-08-14T15:20:52Z</time>
      </trkpt>
      <trkpt lat="40.7967330" lon="-8.2491030">
        <ele>378.6</ele>
        <time>2022-08-14T15:20:54Z</time>
      </trkpt>
      <trkpt lat="40.7967280" lon="-8.2490820">
        <ele>378.6</ele>
        <time>2022-08-14T15:20:56Z</time>
      </trkpt>
      <trkpt lat="40.7967680" lon="-8.2490770">
        <ele>378.8</ele>
        <time>2022-08-14T15:20:58Z</time>
      </trkpt>
      <trkpt lat="40.7968280" lon="-8.2490590">
        <ele>378.8</ele>
        <time>2022-08-14T15:21:00Z</time>
      </trkpt>
      <trkpt lat="40.7968720" lon="-8.2490310">
        <ele>378.8</ele>
        <time>2022-08-14T15:21:02Z</time>
      </trkpt>
      <trkpt lat="40.7969320" lon="-8.2489500">
        <ele>379.0</ele>
        <time>2022-08-14T15:21:05Z</time>
      </trkpt>
      <trkpt lat="40.7970190" lon="-8.2488640">
        <ele>379.8</ele>
        <time>2022-08-14T15:21:10Z</time>
      </trkpt>
      <trkpt lat="40.7970430" lon="-8.2488550">
        <ele>380.0</ele>
        <time>2022-08-14T15:21:11Z</time>
      </trkpt>
      <trkpt lat="40.7972560" lon="-8.2487550">
        <ele>380.4</ele>
        <time>2022-08-14T15:21:18Z</time>
      </trkpt>
      <trkpt lat="40.7973040" lon="-8.2487350">
        <ele>380.4</ele>
        <time>2022-08-14T15:21:19Z</time>
      </trkpt>
      <trkpt lat="40.7974640" lon="-8.2487260">
        <ele>380.0</ele>
        <time>2022-08-14T15:21:22Z</time>
      </trkpt>
      <trkpt lat="40.7976280" lon="-8.2487660">
        <ele>378.6</ele>
        <time>2022-08-14T15:21:26Z</time>
      </trkpt>
      <trkpt lat="40.7976660" lon="-8.2487860">
        <ele>378.4</ele>
        <time>2022-08-14T15:21:27Z</time>
      </trkpt>
      <trkpt lat="40.7977640" lon="-8.2488500">
        <ele>377.0</ele>
        <time>2022-08-14T15:21:30Z</time>
      </trkpt>
      <trkpt lat="40.7977930" lon="-8.2488630">
        <ele>376.6</ele>
        <time>2022-08-14T15:21:31Z</time>
      </trkpt>
      <trkpt lat="40.7978740" lon="-8.2489370">
        <ele>376.0</ele>
        <time>2022-08-14T15:21:34Z</time>
      </trkpt>
      <trkpt lat="40.7979090" lon="-8.2489920">
        <ele>375.0</ele>
        <time>2022-08-14T15:21:36Z</time>
      </trkpt>
      <trkpt lat="40.7979090" lon="-8.2490240">
        <ele>374.2</ele>
        <time>2022-08-14T15:21:37Z</time>
      </trkpt>
      <trkpt lat="40.7979330" lon="-8.2491190">
        <ele>373.8</ele>
        <time>2022-08-14T15:21:39Z</time>
      </trkpt>
      <trkpt lat="40.7979380" lon="-8.2491620">
        <ele>373.0</ele>
        <time>2022-08-14T15:21:40Z</time>
      </trkpt>
      <trkpt lat="40.7979510" lon="-8.2492460">
        <ele>371.6</ele>
        <time>2022-08-14T15:21:42Z</time>
      </trkpt>
      <trkpt lat="40.7979930" lon="-8.2493630">
        <ele>370.0</ele>
        <time>2022-08-14T15:21:45Z</time>
      </trkpt>
      <trkpt lat="40.7980180" lon="-8.2493870">
        <ele>369.4</ele>
        <time>2022-08-14T15:21:46Z</time>
      </trkpt>
      <trkpt lat="40.7980430" lon="-8.2494130">
        <ele>368.6</ele>
        <time>2022-08-14T15:21:47Z</time>
      </trkpt>
      <trkpt lat="40.7980800" lon="-8.2494690">
        <ele>367.6</ele>
        <time>2022-08-14T15:21:49Z</time>
      </trkpt>
      <trkpt lat="40.7981140" lon="-8.2495140">
        <ele>365.8</ele>
        <time>2022-08-14T15:21:52Z</time>
      </trkpt>
      <trkpt lat="40.7981010" lon="-8.2495240">
        <ele>365.4</ele>
        <time>2022-08-14T15:21:53Z</time>
      </trkpt>
      <trkpt lat="40.7980860" lon="-8.2495420">
        <ele>364.8</ele>
        <time>2022-08-14T15:21:54Z</time>
      </trkpt>
      <trkpt lat="40.7980710" lon="-8.2495630">
        <ele>364.4</ele>
        <time>2022-08-14T15:21:55Z</time>
      </trkpt>
      <trkpt lat="40.7980380" lon="-8.2495970">
        <ele>363.6</ele>
        <time>2022-08-14T15:21:57Z</time>
      </trkpt>
      <trkpt lat="40.7980140" lon="-8.2495990">
        <ele>363.6</ele>
        <time>2022-08-14T15:21:58Z</time>
      </trkpt>
      <trkpt lat="40.7979350" lon="-8.2495720">
        <ele>363.0</ele>
        <time>2022-08-14T15:22:00Z</time>
      </trkpt>
      <trkpt lat="40.7978840" lon="-8.2495490">
        <ele>362.2</ele>
        <time>2022-08-14T15:22:01Z</time>
      </trkpt>
      <trkpt lat="40.7977730" lon="-8.2494860">
        <ele>361.6</ele>
        <time>2022-08-14T15:22:03Z</time>
      </trkpt>
      <trkpt lat="40.7977230" lon="-8.2494820">
        <ele>361.0</ele>
        <time>2022-08-14T15:22:04Z</time>
      </trkpt>
      <trkpt lat="40.7976850" lon="-8.2495010">
        <ele>360.8</ele>
        <time>2022-08-14T15:22:05Z</time>
      </trkpt>
      <trkpt lat="40.7976660" lon="-8.2495210">
        <ele>359.8</ele>
        <time>2022-08-14T15:22:06Z</time>
      </trkpt>
      <trkpt lat="40.7976420" lon="-8.2495860">
        <ele>358.2</ele>
        <time>2022-08-14T15:22:08Z</time>
      </trkpt>
      <trkpt lat="40.7975470" lon="-8.2497160">
        <ele>357.4</ele>
        <time>2022-08-14T15:22:13Z</time>
      </trkpt>
      <trkpt lat="40.7974020" lon="-8.2497670">
        <ele>357.6</ele>
        <time>2022-08-14T15:22:19Z</time>
      </trkpt>
      <trkpt lat="40.7973190" lon="-8.2498010">
        <ele>357.4</ele>
        <time>2022-08-14T15:22:23Z</time>
      </trkpt>
      <trkpt lat="40.7972980" lon="-8.2498040">
        <ele>357.0</ele>
        <time>2022-08-14T15:22:25Z</time>
      </trkpt>
      <trkpt lat="40.7972950" lon="-8.2498060">
        <ele>356.8</ele>
        <time>2022-08-14T15:22:27Z</time>
      </trkpt>
      <trkpt lat="40.7972670" lon="-8.2498070">
        <ele>355.4</ele>
        <time>2022-08-14T15:23:19Z</time>
      </trkpt>
      <trkpt lat="40.7972410" lon="-8.2498100">
        <ele>355.4</ele>
        <time>2022-08-14T15:23:20Z</time>
      </trkpt>
      <trkpt lat="40.7971090" lon="-8.2498500">
        <ele>355.6</ele>
        <time>2022-08-14T15:23:26Z</time>
      </trkpt>
      <trkpt lat="40.7970950" lon="-8.2498710">
        <ele>355.4</ele>
        <time>2022-08-14T15:23:27Z</time>
      </trkpt>
      <trkpt lat="40.7970860" lon="-8.2499010">
        <ele>354.8</ele>
        <time>2022-08-14T15:23:31Z</time>
      </trkpt>
      <trkpt lat="40.7970740" lon="-8.2499230">
        <ele>353.6</ele>
        <time>2022-08-14T15:23:45Z</time>
      </trkpt>
      <trkpt lat="40.7969900" lon="-8.2500520">
        <ele>353.2</ele>
        <time>2022-08-14T15:23:51Z</time>
      </trkpt>
      <trkpt lat="40.7969290" lon="-8.2500980">
        <ele>352.8</ele>
        <time>2022-08-14T15:23:54Z</time>
      </trkpt>
      <trkpt lat="40.7968140" lon="-8.2501150">
        <ele>352.2</ele>
        <time>2022-08-14T15:24:00Z</time>
      </trkpt>
      <trkpt lat="40.7967900" lon="-8.2501140">
        <ele>351.8</ele>
        <time>2022-08-14T15:24:01Z</time>
      </trkpt>
      <trkpt lat="40.7966990" lon="-8.2501630">
        <ele>350.8</ele>
        <time>2022-08-14T15:24:05Z</time>
      </trkpt>
      <trkpt lat="40.7966820" lon="-8.2501980">
        <ele>350.6</ele>
        <time>2022-08-14T15:24:06Z</time>
      </trkpt>
      <trkpt lat="40.7966210" lon="-8.2503680">
        <ele>349.4</ele>
        <time>2022-08-14T15:24:10Z</time>
      </trkpt>
      <trkpt lat="40.7965760" lon="-8.2504490">
        <ele>348.8</ele>
        <time>2022-08-14T15:24:12Z</time>
      </trkpt>
      <trkpt lat="40.7965170" lon="-8.2504940">
        <ele>348.2</ele>
        <time>2022-08-14T15:24:14Z</time>
      </trkpt>
      <trkpt lat="40.7964500" lon="-8.2505360">
        <ele>347.0</ele>
        <time>2022-08-14T15:24:16Z</time>
      </trkpt>
      <trkpt lat="40.7964230" lon="-8.2505670">
        <ele>345.6</ele>
        <time>2022-08-14T15:24:17Z</time>
      </trkpt>
      <trkpt lat="40.7963950" lon="-8.2506470">
        <ele>344.2</ele>
        <time>2022-08-14T15:24:19Z</time>
      </trkpt>
      <trkpt lat="40.7963940" lon="-8.2506880">
        <ele>343.4</ele>
        <time>2022-08-14T15:24:20Z</time>
      </trkpt>
      <trkpt lat="40.7964030" lon="-8.2507240">
        <ele>342.6</ele>
        <time>2022-08-14T15:24:21Z</time>
      </trkpt>
      <trkpt lat="40.7964160" lon="-8.2507540">
        <ele>342.0</ele>
        <time>2022-08-14T15:24:22Z</time>
      </trkpt>
      <trkpt lat="40.7964450" lon="-8.2508110">
        <ele>340.8</ele>
        <time>2022-08-14T15:24:24Z</time>
      </trkpt>
      <trkpt lat="40.7964730" lon="-8.2508790">
        <ele>339.2</ele>
        <time>2022-08-14T15:24:26Z</time>
      </trkpt>
      <trkpt lat="40.7964980" lon="-8.2509490">
        <ele>338.0</ele>
        <time>2022-08-14T15:24:28Z</time>
      </trkpt>
      <trkpt lat="40.7965230" lon="-8.2510190">
        <ele>336.6</ele>
        <time>2022-08-14T15:24:30Z</time>
      </trkpt>
      <trkpt lat="40.7965620" lon="-8.2511310">
        <ele>335.4</ele>
        <time>2022-08-14T15:24:33Z</time>
      </trkpt>
      <trkpt lat="40.7965900" lon="-8.2512110">
        <ele>334.4</ele>
        <time>2022-08-14T15:24:35Z</time>
      </trkpt>
      <trkpt lat="40.7966180" lon="-8.2512890">
        <ele>333.2</ele>
        <time>2022-08-14T15:24:37Z</time>
      </trkpt>
      <trkpt lat="40.7966310" lon="-8.2513290">
        <ele>332.0</ele>
        <time>2022-08-14T15:24:38Z</time>
      </trkpt>
      <trkpt lat="40.7966440" lon="-8.2513670">
        <ele>331.8</ele>
        <time>2022-08-14T15:24:39Z</time>
      </trkpt>
      <trkpt lat="40.7966550" lon="-8.2514050">
        <ele>331.0</ele>
        <time>2022-08-14T15:24:40Z</time>
      </trkpt>
      <trkpt lat="40.7966740" lon="-8.2514780">
        <ele>329.8</ele>
        <time>2022-08-14T15:24:42Z</time>
      </trkpt>
      <trkpt lat="40.7967220" lon="-8.2516310">
        <ele>328.6</ele>
        <time>2022-08-14T15:24:46Z</time>
      </trkpt>
      <trkpt lat="40.7967360" lon="-8.2516730">
        <ele>328.4</ele>
        <time>2022-08-14T15:24:47Z</time>
      </trkpt>
      <trkpt lat="40.7967510" lon="-8.2517170">
        <ele>327.4</ele>
        <time>2022-08-14T15:24:48Z</time>
      </trkpt>
      <trkpt lat="40.7967740" lon="-8.2518040">
        <ele>326.0</ele>
        <time>2022-08-14T15:24:50Z</time>
      </trkpt>
      <trkpt lat="40.7967860" lon="-8.2519160">
        <ele>325.0</ele>
        <time>2022-08-14T15:24:52Z</time>
      </trkpt>
      <trkpt lat="40.7967690" lon="-8.2520840">
        <ele>323.2</ele>
        <time>2022-08-14T15:24:55Z</time>
      </trkpt>
      <trkpt lat="40.7967890" lon="-8.2521740">
        <ele>322.2</ele>
        <time>2022-08-14T15:24:57Z</time>
      </trkpt>
      <trkpt lat="40.7968260" lon="-8.2522470">
        <ele>320.0</ele>
        <time>2022-08-14T15:24:59Z</time>
      </trkpt>
      <trkpt lat="40.7968600" lon="-8.2523100">
        <ele>318.8</ele>
        <time>2022-08-14T15:25:01Z</time>
      </trkpt>
      <trkpt lat="40.7968960" lon="-8.2523760">
        <ele>317.8</ele>
        <time>2022-08-14T15:25:03Z</time>
      </trkpt>
      <trkpt lat="40.7969280" lon="-8.2524630">
        <ele>317.2</ele>
        <time>2022-08-14T15:25:06Z</time>
      </trkpt>
      <trkpt lat="40.7969280" lon="-8.2524960">
        <ele>316.6</ele>
        <time>2022-08-14T15:25:07Z</time>
      </trkpt>
      <trkpt lat="40.7969270" lon="-8.2525290">
        <ele>316.2</ele>
        <time>2022-08-14T15:25:08Z</time>
      </trkpt>
      <trkpt lat="40.7969270" lon="-8.2526260">
        <ele>315.2</ele>
        <time>2022-08-14T15:25:11Z</time>
      </trkpt>
      <trkpt lat="40.7969300" lon="-8.2527230">
        <ele>313.8</ele>
        <time>2022-08-14T15:25:14Z</time>
      </trkpt>
      <trkpt lat="40.7969330" lon="-8.2527520">
        <ele>313.6</ele>
        <time>2022-08-14T15:25:15Z</time>
      </trkpt>
      <trkpt lat="40.7969550" lon="-8.2528210">
        <ele>312.4</ele>
        <time>2022-08-14T15:25:18Z</time>
      </trkpt>
      <trkpt lat="40.7969890" lon="-8.2528560">
        <ele>311.8</ele>
        <time>2022-08-14T15:25:20Z</time>
      </trkpt>
      <trkpt lat="40.7970290" lon="-8.2528690">
        <ele>311.4</ele>
        <time>2022-08-14T15:25:22Z</time>
      </trkpt>
      <trkpt lat="40.7970920" lon="-8.2528600">
        <ele>310.0</ele>
        <time>2022-08-14T15:25:25Z</time>
      </trkpt>
      <trkpt lat="40.7971130" lon="-8.2528530">
        <ele>309.8</ele>
        <time>2022-08-14T15:25:26Z</time>
      </trkpt>
      <trkpt lat="40.7971980" lon="-8.2528790">
        <ele>308.8</ele>
        <time>2022-08-14T15:25:30Z</time>
      </trkpt>
      <trkpt lat="40.7972380" lon="-8.2529060">
        <ele>308.4</ele>
        <time>2022-08-14T15:25:32Z</time>
      </trkpt>
      <trkpt lat="40.7972740" lon="-8.2529430">
        <ele>307.8</ele>
        <time>2022-08-14T15:25:34Z</time>
      </trkpt>
      <trkpt lat="40.7973390" lon="-8.2530270">
        <ele>307.2</ele>
        <time>2022-08-14T15:25:38Z</time>
      </trkpt>
      <trkpt lat="40.7973870" lon="-8.2531070">
        <ele>306.4</ele>
        <time>2022-08-14T15:25:41Z</time>
      </trkpt>
      <trkpt lat="40.7974490" lon="-8.2531980">
        <ele>305.4</ele>
        <time>2022-08-14T15:25:44Z</time>
      </trkpt>
      <trkpt lat="40.7974890" lon="-8.2532850">
        <ele>305.0</ele>
        <time>2022-08-14T15:25:47Z</time>
      </trkpt>
      <trkpt lat="40.7974960" lon="-8.2533140">
        <ele>304.2</ele>
        <time>2022-08-14T15:25:48Z</time>
      </trkpt>
      <trkpt lat="40.7975140" lon="-8.2534080">
        <ele>303.0</ele>
        <time>2022-08-14T15:25:51Z</time>
      </trkpt>
      <trkpt lat="40.7975200" lon="-8.2534870">
        <ele>302.6</ele>
        <time>2022-08-14T15:25:53Z</time>
      </trkpt>
      <trkpt lat="40.7975340" lon="-8.2536450">
        <ele>302.0</ele>
        <time>2022-08-14T15:25:56Z</time>
      </trkpt>
      <trkpt lat="40.7975470" lon="-8.2537660">
        <ele>301.2</ele>
        <time>2022-08-14T15:25:58Z</time>
      </trkpt>
      <trkpt lat="40.7975550" lon="-8.2538640">
        <ele>300.6</ele>
        <time>2022-08-14T15:26:00Z</time>
      </trkpt>
      <trkpt lat="40.7975800" lon="-8.2539540">
        <ele>300.0</ele>
        <time>2022-08-14T15:26:02Z</time>
      </trkpt>
      <trkpt lat="40.7976010" lon="-8.2539860">
        <ele>299.0</ele>
        <time>2022-08-14T15:26:03Z</time>
      </trkpt>
      <trkpt lat="40.7976480" lon="-8.2540250">
        <ele>298.2</ele>
        <time>2022-08-14T15:26:05Z</time>
      </trkpt>
      <trkpt lat="40.7976710" lon="-8.2540330">
        <ele>297.6</ele>
        <time>2022-08-14T15:26:06Z</time>
      </trkpt>
      <trkpt lat="40.7976960" lon="-8.2540290">
        <ele>297.0</ele>
        <time>2022-08-14T15:26:07Z</time>
      </trkpt>
      <trkpt lat="40.7977680" lon="-8.2539710">
        <ele>295.6</ele>
        <time>2022-08-14T15:26:10Z</time>
      </trkpt>
      <trkpt lat="40.7978440" lon="-8.2539380">
        <ele>295.0</ele>
        <time>2022-08-14T15:26:13Z</time>
      </trkpt>
      <trkpt lat="40.7978640" lon="-8.2539580">
        <ele>293.8</ele>
        <time>2022-08-14T15:26:14Z</time>
      </trkpt>
      <trkpt lat="40.7978840" lon="-8.2540210">
        <ele>292.4</ele>
        <time>2022-08-14T15:26:16Z</time>
      </trkpt>
      <trkpt lat="40.7978930" lon="-8.2540540">
        <ele>291.6</ele>
        <time>2022-08-14T15:26:17Z</time>
      </trkpt>
      <trkpt lat="40.7978950" lon="-8.2540890">
        <ele>291.4</ele>
        <time>2022-08-14T15:26:18Z</time>
      </trkpt>
      <trkpt lat="40.7979050" lon="-8.2541560">
        <ele>289.6</ele>
        <time>2022-08-14T15:26:21Z</time>
      </trkpt>
      <trkpt lat="40.7979060" lon="-8.2541810">
        <ele>289.4</ele>
        <time>2022-08-14T15:26:22Z</time>
      </trkpt>
      <trkpt lat="40.7978960" lon="-8.2542340">
        <ele>288.4</ele>
        <time>2022-08-14T15:26:24Z</time>
      </trkpt>
      <trkpt lat="40.7978770" lon="-8.2542760">
        <ele>287.0</ele>
        <time>2022-08-14T15:26:26Z</time>
      </trkpt>
      <trkpt lat="40.7978690" lon="-8.2542960">
        <ele>286.8</ele>
        <time>2022-08-14T15:26:27Z</time>
      </trkpt>
      <trkpt lat="40.7978500" lon="-8.2543340">
        <ele>285.8</ele>
        <time>2022-08-14T15:26:29Z</time>
      </trkpt>
      <trkpt lat="40.7978340" lon="-8.2543520">
        <ele>284.4</ele>
        <time>2022-08-14T15:26:30Z</time>
      </trkpt>
      <trkpt lat="40.7978280" lon="-8.2543710">
        <ele>282.8</ele>
        <time>2022-08-14T15:26:31Z</time>
      </trkpt>
      <trkpt lat="40.7978220" lon="-8.2543920">
        <ele>282.2</ele>
        <time>2022-08-14T15:26:32Z</time>
      </trkpt>
      <trkpt lat="40.7978070" lon="-8.2544230">
        <ele>281.0</ele>
        <time>2022-08-14T15:26:33Z</time>
      </trkpt>
      <trkpt lat="40.7977650" lon="-8.2545040">
        <ele>279.6</ele>
        <time>2022-08-14T15:26:36Z</time>
      </trkpt>
      <trkpt lat="40.7977450" lon="-8.2545340">
        <ele>278.6</ele>
        <time>2022-08-14T15:26:37Z</time>
      </trkpt>
      <trkpt lat="40.7976980" lon="-8.2545910">
        <ele>277.2</ele>
        <time>2022-08-14T15:26:39Z</time>
      </trkpt>
      <trkpt lat="40.7976360" lon="-8.2546780">
        <ele>275.6</ele>
        <time>2022-08-14T15:26:42Z</time>
      </trkpt>
      <trkpt lat="40.7975810" lon="-8.2547410">
        <ele>273.6</ele>
        <time>2022-08-14T15:26:44Z</time>
      </trkpt>
      <trkpt lat="40.7975550" lon="-8.2547650">
        <ele>272.6</ele>
        <time>2022-08-14T15:26:45Z</time>
      </trkpt>
      <trkpt lat="40.7975000" lon="-8.2548230">
        <ele>271.6</ele>
        <time>2022-08-14T15:26:47Z</time>
      </trkpt>
      <trkpt lat="40.7974700" lon="-8.2548470">
        <ele>271.2</ele>
        <time>2022-08-14T15:26:48Z</time>
      </trkpt>
      <trkpt lat="40.7974430" lon="-8.2548680">
        <ele>269.8</ele>
        <time>2022-08-14T15:26:49Z</time>
      </trkpt>
      <trkpt lat="40.7973850" lon="-8.2548970">
        <ele>268.4</ele>
        <time>2022-08-14T15:26:51Z</time>
      </trkpt>
      <trkpt lat="40.7973550" lon="-8.2548720">
        <ele>267.6</ele>
        <time>2022-08-14T15:26:52Z</time>
      </trkpt>
      <trkpt lat="40.7973180" lon="-8.2548420">
        <ele>267.2</ele>
        <time>2022-08-14T15:26:53Z</time>
      </trkpt>
      <trkpt lat="40.7972400" lon="-8.2548360">
        <ele>266.0</ele>
        <time>2022-08-14T15:26:55Z</time>
      </trkpt>
      <trkpt lat="40.7971930" lon="-8.2548630">
        <ele>265.6</ele>
        <time>2022-08-14T15:26:56Z</time>
      </trkpt>
      <trkpt lat="40.7971570" lon="-8.2548680">
        <ele>265.2</ele>
        <time>2022-08-14T15:26:57Z</time>
      </trkpt>
      <trkpt lat="40.7970970" lon="-8.2548730">
        <ele>263.4</ele>
        <time>2022-08-14T15:26:59Z</time>
      </trkpt>
      <trkpt lat="40.7970450" lon="-8.2548880">
        <ele>262.2</ele>
        <time>2022-08-14T15:27:01Z</time>
      </trkpt>
      <trkpt lat="40.7970050" lon="-8.2549410">
        <ele>261.4</ele>
        <time>2022-08-14T15:27:03Z</time>
      </trkpt>
      <trkpt lat="40.7970060" lon="-8.2549610">
        <ele>260.4</ele>
        <time>2022-08-14T15:27:04Z</time>
      </trkpt>
      <trkpt lat="40.7970080" lon="-8.2549810">
        <ele>260.2</ele>
        <time>2022-08-14T15:27:05Z</time>
      </trkpt>
      <trkpt lat="40.7970220" lon="-8.2549990">
        <ele>259.8</ele>
        <time>2022-08-14T15:27:06Z</time>
      </trkpt>
      <trkpt lat="40.7970340" lon="-8.2550330">
        <ele>259.4</ele>
        <time>2022-08-14T15:27:07Z</time>
      </trkpt>
      <trkpt lat="40.7970860" lon="-8.2551010">
        <ele>258.8</ele>
        <time>2022-08-14T15:27:09Z</time>
      </trkpt>
      <trkpt lat="40.7971140" lon="-8.2551310">
        <ele>258.2</ele>
        <time>2022-08-14T15:27:10Z</time>
      </trkpt>
      <trkpt lat="40.7971620" lon="-8.2551630">
        <ele>256.6</ele>
        <time>2022-08-14T15:27:12Z</time>
      </trkpt>
      <trkpt lat="40.7971830" lon="-8.2551750">
        <ele>255.4</ele>
        <time>2022-08-14T15:27:13Z</time>
      </trkpt>
      <trkpt lat="40.7972060" lon="-8.2551890">
        <ele>255.0</ele>
        <time>2022-08-14T15:27:14Z</time>
      </trkpt>
      <trkpt lat="40.7972960" lon="-8.2552280">
        <ele>254.0</ele>
        <time>2022-08-14T15:27:17Z</time>
      </trkpt>
      <trkpt lat="40.7973610" lon="-8.2552800">
        <ele>253.4</ele>
        <time>2022-08-14T15:27:20Z</time>
      </trkpt>
      <trkpt lat="40.7974060" lon="-8.2553100">
        <ele>252.8</ele>
        <time>2022-08-14T15:27:23Z</time>
      </trkpt>
      <trkpt lat="40.7974480" lon="-8.2553190">
        <ele>252.2</ele>
        <time>2022-08-14T15:27:25Z</time>
      </trkpt>
      <trkpt lat="40.7974950" lon="-8.2553330">
        <ele>251.2</ele>
        <time>2022-08-14T15:27:27Z</time>
      </trkpt>
      <trkpt lat="40.7975410" lon="-8.2553460">
        <ele>250.0</ele>
        <time>2022-08-14T15:27:29Z</time>
      </trkpt>
      <trkpt lat="40.7975580" lon="-8.2553590">
        <ele>249.8</ele>
        <time>2022-08-14T15:27:30Z</time>
      </trkpt>
      <trkpt lat="40.7975740" lon="-8.2553750">
        <ele>248.8</ele>
        <time>2022-08-14T15:27:31Z</time>
      </trkpt>
      <trkpt lat="40.7976370" lon="-8.2554500">
        <ele>247.4</ele>
        <time>2022-08-14T15:27:34Z</time>
      </trkpt>
      <trkpt lat="40.7976940" lon="-8.2555060">
        <ele>246.2</ele>
        <time>2022-08-14T15:27:37Z</time>
      </trkpt>
      <trkpt lat="40.7977210" lon="-8.2555540">
        <ele>244.4</ele>
        <time>2022-08-14T15:27:39Z</time>
      </trkpt>
      <trkpt lat="40.7977300" lon="-8.2555750">
        <ele>243.8</ele>
        <time>2022-08-14T15:27:40Z</time>
      </trkpt>
      <trkpt lat="40.7977320" lon="-8.2555990">
        <ele>242.8</ele>
        <time>2022-08-14T15:27:41Z</time>
      </trkpt>
      <trkpt lat="40.7977360" lon="-8.2555940">
        <ele>242.4</ele>
        <time>2022-08-14T15:27:42Z</time>
      </trkpt>
      <trkpt lat="40.7977330" lon="-8.2556270">
        <ele>241.4</ele>
        <time>2022-08-14T15:27:43Z</time>
      </trkpt>
      <trkpt lat="40.7977220" lon="-8.2556860">
        <ele>239.8</ele>
        <time>2022-08-14T15:27:45Z</time>
      </trkpt>
      <trkpt lat="40.7976670" lon="-8.2557620">
        <ele>238.2</ele>
        <time>2022-08-14T15:27:48Z</time>
      </trkpt>
      <trkpt lat="40.7976390" lon="-8.2558010">
        <ele>237.6</ele>
        <time>2022-08-14T15:27:49Z</time>
      </trkpt>
      <trkpt lat="40.7976300" lon="-8.2558720">
        <ele>236.6</ele>
        <time>2022-08-14T15:27:51Z</time>
      </trkpt>
      <trkpt lat="40.7976310" lon="-8.2559100">
        <ele>235.0</ele>
        <time>2022-08-14T15:27:53Z</time>
      </trkpt>
      <trkpt lat="40.7976310" lon="-8.2559100">
        <ele>234.6</ele>
        <time>2022-08-14T15:27:54Z</time>
      </trkpt>
      <trkpt lat="40.7976310" lon="-8.2559100">
        <ele>233.6</ele>
        <time>2022-08-14T15:27:55Z</time>
      </trkpt>
      <trkpt lat="40.7976600" lon="-8.2560850">
        <ele>229.8</ele>
        <time>2022-08-14T15:28:05Z</time>
      </trkpt>
      <trkpt lat="40.7976780" lon="-8.2561240">
        <ele>229.4</ele>
        <time>2022-08-14T15:28:06Z</time>
      </trkpt>
      <trkpt lat="40.7977230" lon="-8.2561670">
        <ele>228.6</ele>
        <time>2022-08-14T15:28:08Z</time>
      </trkpt>
      <trkpt lat="40.7977470" lon="-8.2562040">
        <ele>227.6</ele>
        <time>2022-08-14T15:28:10Z</time>
      </trkpt>
      <trkpt lat="40.7977580" lon="-8.2562620">
        <ele>226.4</ele>
        <time>2022-08-14T15:28:12Z</time>
      </trkpt>
      <trkpt lat="40.7977590" lon="-8.2562670">
        <ele>224.0</ele>
        <time>2022-08-14T15:28:14Z</time>
      </trkpt>
      <trkpt lat="40.7977590" lon="-8.2562670">
        <ele>223.6</ele>
        <time>2022-08-14T15:28:15Z</time>
      </trkpt>
      <trkpt lat="40.7977220" lon="-8.2563160">
        <ele>220.0</ele>
        <time>2022-08-14T15:29:08Z</time>
      </trkpt>
      <trkpt lat="40.7976860" lon="-8.2563440">
        <ele>219.8</ele>
        <time>2022-08-14T15:29:10Z</time>
      </trkpt>
      <trkpt lat="40.7976040" lon="-8.2563990">
        <ele>218.8</ele>
        <time>2022-08-14T15:29:13Z</time>
      </trkpt>
      <trkpt lat="40.7975330" lon="-8.2564660">
        <ele>217.8</ele>
        <time>2022-08-14T15:29:15Z</time>
      </trkpt>
      <trkpt lat="40.7974630" lon="-8.2565630">
        <ele>216.6</ele>
        <time>2022-08-14T15:29:18Z</time>
      </trkpt>
      <trkpt lat="40.7973990" lon="-8.2566260">
        <ele>215.0</ele>
        <time>2022-08-14T15:29:20Z</time>
      </trkpt>
      <trkpt lat="40.7973830" lon="-8.2566320">
        <ele>214.0</ele>
        <time>2022-08-14T15:29:21Z</time>
      </trkpt>
      <trkpt lat="40.7973640" lon="-8.2566270">
        <ele>213.2</ele>
        <time>2022-08-14T15:29:22Z</time>
      </trkpt>
      <trkpt lat="40.7972830" lon="-8.2566670">
        <ele>212.0</ele>
        <time>2022-08-14T15:29:24Z</time>
      </trkpt>
      <trkpt lat="40.7972120" lon="-8.2566690">
        <ele>211.0</ele>
        <time>2022-08-14T15:29:26Z</time>
      </trkpt>
      <trkpt lat="40.7971450" lon="-8.2566370">
        <ele>209.2</ele>
        <time>2022-08-14T15:29:28Z</time>
      </trkpt>
      <trkpt lat="40.7971070" lon="-8.2566280">
        <ele>208.2</ele>
        <time>2022-08-14T15:29:29Z</time>
      </trkpt>
      <trkpt lat="40.7970790" lon="-8.2566060">
        <ele>207.0</ele>
        <time>2022-08-14T15:29:30Z</time>
      </trkpt>
      <trkpt lat="40.7970480" lon="-8.2565800">
        <ele>205.6</ele>
        <time>2022-08-14T15:29:31Z</time>
      </trkpt>
      <trkpt lat="40.7969830" lon="-8.2565230">
        <ele>204.6</ele>
        <time>2022-08-14T15:29:33Z</time>
      </trkpt>
      <trkpt lat="40.7969130" lon="-8.2564670">
        <ele>203.4</ele>
        <time>2022-08-14T15:29:35Z</time>
      </trkpt>
      <trkpt lat="40.7968860" lon="-8.2564550">
        <ele>202.6</ele>
        <time>2022-08-14T15:29:36Z</time>
      </trkpt>
      <trkpt lat="40.7968440" lon="-8.2564480">
        <ele>202.2</ele>
        <time>2022-08-14T15:29:37Z</time>
      </trkpt>
      <trkpt lat="40.7967580" lon="-8.2563640">
        <ele>200.6</ele>
        <time>2022-08-14T15:29:40Z</time>
      </trkpt>
      <trkpt lat="40.7967250" lon="-8.2563640">
        <ele>199.6</ele>
        <time>2022-08-14T15:29:41Z</time>
      </trkpt>
      <trkpt lat="40.7966820" lon="-8.2563680">
        <ele>199.2</ele>
        <time>2022-08-14T15:29:42Z</time>
      </trkpt>
      <trkpt lat="40.7966060" lon="-8.2563470">
        <ele>197.0</ele>
        <time>2022-08-14T15:29:45Z</time>
      </trkpt>
      <trkpt lat="40.7965910" lon="-8.2563460">
        <ele>196.4</ele>
        <time>2022-08-14T15:29:46Z</time>
      </trkpt>
      <trkpt lat="40.7965690" lon="-8.2563510">
        <ele>195.8</ele>
        <time>2022-08-14T15:29:47Z</time>
      </trkpt>
      <trkpt lat="40.7964900" lon="-8.2563110">
        <ele>194.2</ele>
        <time>2022-08-14T15:29:50Z</time>
      </trkpt>
      <trkpt lat="40.7964380" lon="-8.2562610">
        <ele>193.0</ele>
        <time>2022-08-14T15:29:52Z</time>
      </trkpt>
      <trkpt lat="40.7963210" lon="-8.2561710">
        <ele>191.8</ele>
        <time>2022-08-14T15:29:56Z</time>
      </trkpt>
      <trkpt lat="40.7962920" lon="-8.2561630">
        <ele>191.2</ele>
        <time>2022-08-14T15:29:57Z</time>
      </trkpt>
      <trkpt lat="40.7962160" lon="-8.2561220">
        <ele>190.4</ele>
        <time>2022-08-14T15:30:00Z</time>
      </trkpt>
      <trkpt lat="40.7961590" lon="-8.2560990">
        <ele>189.2</ele>
        <time>2022-08-14T15:30:02Z</time>
      </trkpt>
      <trkpt lat="40.7960790" lon="-8.2560560">
        <ele>187.8</ele>
        <time>2022-08-14T15:30:05Z</time>
      </trkpt>
      <trkpt lat="40.7960430" lon="-8.2560610">
        <ele>187.0</ele>
        <time>2022-08-14T15:30:07Z</time>
      </trkpt>
      <trkpt lat="40.7960340" lon="-8.2560830">
        <ele>186.4</ele>
        <time>2022-08-14T15:30:08Z</time>
      </trkpt>
      <trkpt lat="40.7960290" lon="-8.2561180">
        <ele>185.2</ele>
        <time>2022-08-14T15:30:09Z</time>
      </trkpt>
      <trkpt lat="40.7960080" lon="-8.2562220">
        <ele>184.0</ele>
        <time>2022-08-14T15:30:11Z</time>
      </trkpt>
      <trkpt lat="40.7959790" lon="-8.2563190">
        <ele>183.4</ele>
        <time>2022-08-14T15:30:13Z</time>
      </trkpt>
      <trkpt lat="40.7959370" lon="-8.2564180">
        <ele>182.6</ele>
        <time>2022-08-14T15:30:15Z</time>
      </trkpt>
      <trkpt lat="40.7959070" lon="-8.2564930">
        <ele>181.8</ele>
        <time>2022-08-14T15:30:18Z</time>
      </trkpt>
      <trkpt lat="40.7958780" lon="-8.2565430">
        <ele>181.6</ele>
        <time>2022-08-14T15:30:20Z</time>
      </trkpt>
      <trkpt lat="40.7958620" lon="-8.2565800">
        <ele>181.2</ele>
        <time>2022-08-14T15:30:24Z</time>
      </trkpt>
      <trkpt lat="40.7958620" lon="-8.2565800">
        <ele>181.0</ele>
        <time>2022-08-14T15:30:25Z</time>
      </trkpt>
      <trkpt lat="40.7957020" lon="-8.2566800">
        <ele>181.0</ele>
        <time>2022-08-14T15:31:11Z</time>
      </trkpt>
      <trkpt lat="40.7956530" lon="-8.2566930">
        <ele>180.8</ele>
        <time>2022-08-14T15:31:14Z</time>
      </trkpt>
      <trkpt lat="40.7956110" lon="-8.2567040">
        <ele>180.8</ele>
        <time>2022-08-14T15:31:16Z</time>
      </trkpt>
      <trkpt lat="40.7955510" lon="-8.2567450">
        <ele>180.8</ele>
        <time>2022-08-14T15:31:20Z</time>
      </trkpt>
      <trkpt lat="40.7955270" lon="-8.2567620">
        <ele>180.8</ele>
        <time>2022-08-14T15:31:22Z</time>
      </trkpt>
      <trkpt lat="40.7955110" lon="-8.2567710">
        <ele>180.8</ele>
        <time>2022-08-14T15:31:25Z</time>
      </trkpt>
      <trkpt lat="40.7954990" lon="-8.2567830">
        <ele>180.8</ele>
        <time>2022-08-14T15:31:29Z</time>
      </trkpt>
      <trkpt lat="40.7954710" lon="-8.2568300">
        <ele>181.0</ele>
        <time>2022-08-14T15:31:51Z</time>
      </trkpt>
      <trkpt lat="40.7953600" lon="-8.2569400">
        <ele>181.2</ele>
        <time>2022-08-14T15:31:56Z</time>
      </trkpt>
      <trkpt lat="40.7951840" lon="-8.2569820">
        <ele>181.6</ele>
        <time>2022-08-14T15:32:02Z</time>
      </trkpt>
      <trkpt lat="40.7950550" lon="-8.2570300">
        <ele>182.2</ele>
        <time>2022-08-14T15:32:06Z</time>
      </trkpt>
      <trkpt lat="40.7948540" lon="-8.2570790">
        <ele>183.4</ele>
        <time>2022-08-14T15:32:12Z</time>
      </trkpt>
      <trkpt lat="40.7947110" lon="-8.2571210">
        <ele>184.6</ele>
        <time>2022-08-14T15:32:17Z</time>
      </trkpt>
      <trkpt lat="40.7946730" lon="-8.2571320">
        <ele>184.6</ele>
        <time>2022-08-14T15:32:18Z</time>
      </trkpt>
      <trkpt lat="40.7945410" lon="-8.2571530">
        <ele>185.6</ele>
        <time>2022-08-14T15:32:22Z</time>
      </trkpt>
      <trkpt lat="40.7944980" lon="-8.2571520">
        <ele>185.8</ele>
        <time>2022-08-14T15:32:23Z</time>
      </trkpt>
      <trkpt lat="40.7943380" lon="-8.2571590">
        <ele>187.0</ele>
        <time>2022-08-14T15:32:27Z</time>
      </trkpt>
      <trkpt lat="40.7942600" lon="-8.2571670">
        <ele>187.4</ele>
        <time>2022-08-14T15:32:29Z</time>
      </trkpt>
      <trkpt lat="40.7941390" lon="-8.2571820">
        <ele>188.0</ele>
        <time>2022-08-14T15:32:32Z</time>
      </trkpt>
      <trkpt lat="40.7939820" lon="-8.2572010">
        <ele>188.8</ele>
        <time>2022-08-14T15:32:36Z</time>
      </trkpt>
      <trkpt lat="40.7939080" lon="-8.2572070">
        <ele>189.2</ele>
        <time>2022-08-14T15:32:38Z</time>
      </trkpt>
      <trkpt lat="40.7937640" lon="-8.2572070">
        <ele>189.8</ele>
        <time>2022-08-14T15:32:42Z</time>
      </trkpt>
      <trkpt lat="40.7936700" lon="-8.2571990">
        <ele>190.2</ele>
        <time>2022-08-14T15:32:45Z</time>
      </trkpt>
      <trkpt lat="40.7935840" lon="-8.2571960">
        <ele>190.8</ele>
        <time>2022-08-14T15:32:48Z</time>
      </trkpt>
      <trkpt lat="40.7934460" lon="-8.2571790">
        <ele>191.4</ele>
        <time>2022-08-14T15:32:54Z</time>
      </trkpt>
      <trkpt lat="40.7934260" lon="-8.2571710">
        <ele>191.6</ele>
        <time>2022-08-14T15:32:55Z</time>
      </trkpt>
      <trkpt lat="40.7932330" lon="-8.2571150">
        <ele>192.4</ele>
        <time>2022-08-14T15:33:03Z</time>
      </trkpt>
      <trkpt lat="40.7932080" lon="-8.2571100">
        <ele>192.6</ele>
        <time>2022-08-14T15:33:04Z</time>
      </trkpt>
      <trkpt lat="40.7930660" lon="-8.2570650">
        <ele>193.0</ele>
        <time>2022-08-14T15:33:09Z</time>
      </trkpt>
      <trkpt lat="40.7929640" lon="-8.2570410">
        <ele>193.8</ele>
        <time>2022-08-14T15:33:12Z</time>
      </trkpt>
      <trkpt lat="40.7928780" lon="-8.2570170">
        <ele>194.0</ele>
        <time>2022-08-14T15:33:15Z</time>
      </trkpt>
      <trkpt lat="40.7927380" lon="-8.2569690">
        <ele>194.8</ele>
        <time>2022-08-14T15:33:20Z</time>
      </trkpt>
      <trkpt lat="40.7926530" lon="-8.2569370">
        <ele>195.6</ele>
        <time>2022-08-14T15:33:23Z</time>
      </trkpt>
      <trkpt lat="40.7925730" lon="-8.2568920">
        <ele>196.0</ele>
        <time>2022-08-14T15:33:26Z</time>
      </trkpt>
      <trkpt lat="40.7924530" lon="-8.2568100">
        <ele>196.6</ele>
        <time>2022-08-14T15:33:31Z</time>
      </trkpt>
      <trkpt lat="40.7924160" lon="-8.2567650">
        <ele>197.0</ele>
        <time>2022-08-14T15:33:33Z</time>
      </trkpt>
      <trkpt lat="40.7923640" lon="-8.2566650">
        <ele>197.8</ele>
        <time>2022-08-14T15:33:37Z</time>
      </trkpt>
      <trkpt lat="40.7923000" lon="-8.2565530">
        <ele>198.0</ele>
        <time>2022-08-14T15:33:41Z</time>
      </trkpt>
      <trkpt lat="40.7922280" lon="-8.2564650">
        <ele>198.2</ele>
        <time>2022-08-14T15:33:44Z</time>
      </trkpt>
      <trkpt lat="40.7921400" lon="-8.2563700">
        <ele>199.2</ele>
        <time>2022-08-14T15:33:48Z</time>
      </trkpt>
      <trkpt lat="40.7920890" lon="-8.2562780">
        <ele>199.4</ele>
        <time>2022-08-14T15:33:51Z</time>
      </trkpt>
      <trkpt lat="40.7919690" lon="-8.2561200">
        <ele>199.0</ele>
        <time>2022-08-14T15:33:58Z</time>
      </trkpt>
      <trkpt lat="40.7919060" lon="-8.2560540">
        <ele>200.8</ele>
        <time>2022-08-14T15:34:01Z</time>
      </trkpt>
      <trkpt lat="40.7918260" lon="-8.2559880">
        <ele>201.8</ele>
        <time>2022-08-14T15:34:04Z</time>
      </trkpt>
      <trkpt lat="40.7916930" lon="-8.2559360">
        <ele>202.0</ele>
        <time>2022-08-14T15:34:09Z</time>
      </trkpt>
      <trkpt lat="40.7915530" lon="-8.2560430">
        <ele>202.2</ele>
        <time>2022-08-14T15:34:15Z</time>
      </trkpt>
      <trkpt lat="40.7914070" lon="-8.2562720">
        <ele>202.4</ele>
        <time>2022-08-14T15:34:23Z</time>
      </trkpt>
      <trkpt lat="40.7912670" lon="-8.2565100">
        <ele>203.2</ele>
        <time>2022-08-14T15:34:31Z</time>
      </trkpt>
      <trkpt lat="40.7912500" lon="-8.2565410">
        <ele>203.2</ele>
        <time>2022-08-14T15:34:32Z</time>
      </trkpt>
      <trkpt lat="40.7911520" lon="-8.2567130">
        <ele>203.8</ele>
        <time>2022-08-14T15:34:38Z</time>
      </trkpt>
      <trkpt lat="40.7911320" lon="-8.2567480">
        <ele>204.0</ele>
        <time>2022-08-14T15:34:39Z</time>
      </trkpt>
      <trkpt lat="40.7910810" lon="-8.2568390">
        <ele>204.2</ele>
        <time>2022-08-14T15:34:42Z</time>
      </trkpt>
      <trkpt lat="40.7909980" lon="-8.2570100">
        <ele>204.8</ele>
        <time>2022-08-14T15:34:47Z</time>
      </trkpt>
      <trkpt lat="40.7909490" lon="-8.2571510">
        <ele>205.4</ele>
        <time>2022-08-14T15:34:51Z</time>
      </trkpt>
      <trkpt lat="40.7909080" lon="-8.2572480">
        <ele>205.8</ele>
        <time>2022-08-14T15:34:54Z</time>
      </trkpt>
      <trkpt lat="40.7908950" lon="-8.2572770">
        <ele>205.8</ele>
        <time>2022-08-14T15:34:55Z</time>
      </trkpt>
      <trkpt lat="40.7908230" lon="-8.2573880">
        <ele>206.2</ele>
        <time>2022-08-14T15:34:59Z</time>
      </trkpt>
      <trkpt lat="40.7907920" lon="-8.2574200">
        <ele>206.4</ele>
        <time>2022-08-14T15:35:00Z</time>
      </trkpt>
      <trkpt lat="40.7905970" lon="-8.2576080">
        <ele>207.4</ele>
        <time>2022-08-14T15:35:07Z</time>
      </trkpt>
      <trkpt lat="40.7905670" lon="-8.2576260">
        <ele>207.6</ele>
        <time>2022-08-14T15:35:08Z</time>
      </trkpt>
      <trkpt lat="40.7904370" lon="-8.2576990">
        <ele>208.2</ele>
        <time>2022-08-14T15:35:13Z</time>
      </trkpt>
      <trkpt lat="40.7903730" lon="-8.2577270">
        <ele>208.8</ele>
        <time>2022-08-14T15:35:15Z</time>
      </trkpt>
      <trkpt lat="40.7902070" lon="-8.2577730">
        <ele>209.6</ele>
        <time>2022-08-14T15:35:21Z</time>
      </trkpt>
      <trkpt lat="40.7901810" lon="-8.2577750">
        <ele>209.8</ele>
        <time>2022-08-14T15:35:22Z</time>
      </trkpt>
      <trkpt lat="40.7900660" lon="-8.2577160">
        <ele>210.8</ele>
        <time>2022-08-14T15:35:27Z</time>
      </trkpt>
      <trkpt lat="40.7900420" lon="-8.2577080">
        <ele>211.0</ele>
        <time>2022-08-14T15:35:28Z</time>
      </trkpt>
      <trkpt lat="40.7899460" lon="-8.2576960">
        <ele>211.2</ele>
        <time>2022-08-14T15:35:33Z</time>
      </trkpt>
      <trkpt lat="40.7898600" lon="-8.2576870">
        <ele>211.6</ele>
        <time>2022-08-14T15:35:39Z</time>
      </trkpt>
      <trkpt lat="40.7897890" lon="-8.2577180">
        <ele>212.0</ele>
        <time>2022-08-14T15:35:45Z</time>
      </trkpt>
      <trkpt lat="40.7897380" lon="-8.2577520">
        <ele>212.0</ele>
        <time>2022-08-14T15:35:47Z</time>
      </trkpt>
      <trkpt lat="40.7897100" lon="-8.2577830">
        <ele>211.8</ele>
        <time>2022-08-14T15:35:48Z</time>
      </trkpt>
      <trkpt lat="40.7896440" lon="-8.2578490">
        <ele>211.0</ele>
        <time>2022-08-14T15:35:50Z</time>
      </trkpt>
      <trkpt lat="40.7895010" lon="-8.2579940">
        <ele>209.8</ele>
        <time>2022-08-14T15:35:54Z</time>
      </trkpt>
      <trkpt lat="40.7894540" lon="-8.2580220">
        <ele>209.6</ele>
        <time>2022-08-14T15:35:55Z</time>
      </trkpt>
      <trkpt lat="40.7893460" lon="-8.2580800">
        <ele>207.8</ele>
        <time>2022-08-14T15:35:57Z</time>
      </trkpt>
      <trkpt lat="40.7893000" lon="-8.2581130">
        <ele>207.4</ele>
        <time>2022-08-14T15:35:58Z</time>
      </trkpt>
      <trkpt lat="40.7892280" lon="-8.2581980">
        <ele>206.2</ele>
        <time>2022-08-14T15:36:00Z</time>
      </trkpt>
      <trkpt lat="40.7891920" lon="-8.2582710">
        <ele>205.2</ele>
        <time>2022-08-14T15:36:01Z</time>
      </trkpt>
      <trkpt lat="40.7891680" lon="-8.2583380">
        <ele>204.8</ele>
        <time>2022-08-14T15:36:02Z</time>
      </trkpt>
      <trkpt lat="40.7891340" lon="-8.2584710">
        <ele>203.2</ele>
        <time>2022-08-14T15:36:04Z</time>
      </trkpt>
      <trkpt lat="40.7891020" lon="-8.2586510">
        <ele>201.8</ele>
        <time>2022-08-14T15:36:06Z</time>
      </trkpt>
      <trkpt lat="40.7890530" lon="-8.2588060">
        <ele>200.2</ele>
        <time>2022-08-14T15:36:08Z</time>
      </trkpt>
      <trkpt lat="40.7889760" lon="-8.2589170">
        <ele>199.2</ele>
        <time>2022-08-14T15:36:10Z</time>
      </trkpt>
      <trkpt lat="40.7889240" lon="-8.2589760">
        <ele>197.2</ele>
        <time>2022-08-14T15:36:11Z</time>
      </trkpt>
      <trkpt lat="40.7888820" lon="-8.2590240">
        <ele>196.4</ele>
        <time>2022-08-14T15:36:12Z</time>
      </trkpt>
      <trkpt lat="40.7888410" lon="-8.2590770">
        <ele>195.2</ele>
        <time>2022-08-14T15:36:13Z</time>
      </trkpt>
      <trkpt lat="40.7888100" lon="-8.2591220">
        <ele>194.8</ele>
        <time>2022-08-14T15:36:14Z</time>
      </trkpt>
      <trkpt lat="40.7887700" lon="-8.2591770">
        <ele>193.8</ele>
        <time>2022-08-14T15:36:15Z</time>
      </trkpt>
      <trkpt lat="40.7887200" lon="-8.2592400">
        <ele>192.6</ele>
        <time>2022-08-14T15:36:16Z</time>
      </trkpt>
      <trkpt lat="40.7886740" lon="-8.2592860">
        <ele>192.0</ele>
        <time>2022-08-14T15:36:17Z</time>
      </trkpt>
      <trkpt lat="40.7886220" lon="-8.2593180">
        <ele>190.6</ele>
        <time>2022-08-14T15:36:18Z</time>
      </trkpt>
      <trkpt lat="40.7885790" lon="-8.2593350">
        <ele>190.2</ele>
        <time>2022-08-14T15:36:19Z</time>
      </trkpt>
      <trkpt lat="40.7885280" lon="-8.2593520">
        <ele>189.4</ele>
        <time>2022-08-14T15:36:20Z</time>
      </trkpt>
      <trkpt lat="40.7884120" lon="-8.2593610">
        <ele>187.8</ele>
        <time>2022-08-14T15:36:22Z</time>
      </trkpt>
      <trkpt lat="40.7883630" lon="-8.2593570">
        <ele>187.0</ele>
        <time>2022-08-14T15:36:23Z</time>
      </trkpt>
      <trkpt lat="40.7883260" lon="-8.2593550">
        <ele>186.8</ele>
        <time>2022-08-14T15:36:24Z</time>
      </trkpt>
      <trkpt lat="40.7881980" lon="-8.2594120">
        <ele>184.6</ele>
        <time>2022-08-14T15:36:27Z</time>
      </trkpt>
      <trkpt lat="40.7881630" lon="-8.2594440">
        <ele>183.8</ele>
        <time>2022-08-14T15:36:28Z</time>
      </trkpt>
      <trkpt lat="40.7881310" lon="-8.2594800">
        <ele>182.6</ele>
        <time>2022-08-14T15:36:29Z</time>
      </trkpt>
      <trkpt lat="40.7881040" lon="-8.2595130">
        <ele>181.4</ele>
        <time>2022-08-14T15:36:30Z</time>
      </trkpt>
      <trkpt lat="40.7880730" lon="-8.2595600">
        <ele>181.0</ele>
        <time>2022-08-14T15:36:31Z</time>
      </trkpt>
      <trkpt lat="40.7880420" lon="-8.2596270">
        <ele>180.0</ele>
        <time>2022-08-14T15:36:32Z</time>
      </trkpt>
      <trkpt lat="40.7879870" lon="-8.2597470">
        <ele>178.2</ele>
        <time>2022-08-14T15:36:34Z</time>
      </trkpt>
      <trkpt lat="40.7879360" lon="-8.2597880">
        <ele>177.8</ele>
        <time>2022-08-14T15:36:35Z</time>
      </trkpt>
      <trkpt lat="40.7878830" lon="-8.2598210">
        <ele>176.8</ele>
        <time>2022-08-14T15:36:36Z</time>
      </trkpt>
      <trkpt lat="40.7878200" lon="-8.2598440">
        <ele>175.6</ele>
        <time>2022-08-14T15:36:37Z</time>
      </trkpt>
      <trkpt lat="40.7877560" lon="-8.2598780">
        <ele>175.2</ele>
        <time>2022-08-14T15:36:38Z</time>
      </trkpt>
      <trkpt lat="40.7876900" lon="-8.2598980">
        <ele>174.4</ele>
        <time>2022-08-14T15:36:39Z</time>
      </trkpt>
      <trkpt lat="40.7875020" lon="-8.2599650">
        <ele>173.4</ele>
        <time>2022-08-14T15:36:42Z</time>
      </trkpt>
      <trkpt lat="40.7874450" lon="-8.2599810">
        <ele>173.0</ele>
        <time>2022-08-14T15:36:43Z</time>
      </trkpt>
      <trkpt lat="40.7873920" lon="-8.2599950">
        <ele>172.8</ele>
        <time>2022-08-14T15:36:44Z</time>
      </trkpt>
      <trkpt lat="40.7871710" lon="-8.2600550">
        <ele>172.2</ele>
        <time>2022-08-14T15:36:48Z</time>
      </trkpt>
      <trkpt lat="40.7869200" lon="-8.2601840">
        <ele>171.6</ele>
        <time>2022-08-14T15:36:53Z</time>
      </trkpt>
      <trkpt lat="40.7868770" lon="-8.2602070">
        <ele>171.4</ele>
        <time>2022-08-14T15:36:54Z</time>
      </trkpt>
      <trkpt lat="40.7868280" lon="-8.2602280">
        <ele>171.2</ele>
        <time>2022-08-14T15:36:55Z</time>
      </trkpt>
      <trkpt lat="40.7867220" lon="-8.2602630">
        <ele>171.0</ele>
        <time>2022-08-14T15:36:57Z</time>
      </trkpt>
      <trkpt lat="40.7865400" lon="-8.2602800">
        <ele>170.6</ele>
        <time>2022-08-14T15:37:00Z</time>
      </trkpt>
      <trkpt lat="40.7864890" lon="-8.2602900">
        <ele>170.4</ele>
        <time>2022-08-14T15:37:01Z</time>
      </trkpt>
      <trkpt lat="40.7864140" lon="-8.2603150">
        <ele>170.2</ele>
        <time>2022-08-14T15:37:02Z</time>
      </trkpt>
      <trkpt lat="40.7863590" lon="-8.2603490">
        <ele>170.0</ele>
        <time>2022-08-14T15:37:03Z</time>
      </trkpt>
      <trkpt lat="40.7863140" lon="-8.2603940">
        <ele>169.4</ele>
        <time>2022-08-14T15:37:04Z</time>
      </trkpt>
      <trkpt lat="40.7862850" lon="-8.2604350">
        <ele>169.0</ele>
        <time>2022-08-14T15:37:05Z</time>
      </trkpt>
      <trkpt lat="40.7862220" lon="-8.2605950">
        <ele>168.4</ele>
        <time>2022-08-14T15:37:08Z</time>
      </trkpt>
      <trkpt lat="40.7861620" lon="-8.2607980">
        <ele>168.2</ele>
        <time>2022-08-14T15:37:14Z</time>
      </trkpt>
      <trkpt lat="40.7861460" lon="-8.2608630">
        <ele>168.2</ele>
        <time>2022-08-14T15:37:16Z</time>
      </trkpt>
      <trkpt lat="40.7861440" lon="-8.2609650">
        <ele>168.4</ele>
        <time>2022-08-14T15:37:19Z</time>
      </trkpt>
      <trkpt lat="40.7861230" lon="-8.2611130">
        <ele>168.8</ele>
        <time>2022-08-14T15:37:24Z</time>
      </trkpt>
      <trkpt lat="40.7861010" lon="-8.2612550">
        <ele>169.8</ele>
        <time>2022-08-14T15:37:30Z</time>
      </trkpt>
      <trkpt lat="40.7860940" lon="-8.2613160">
        <ele>170.4</ele>
        <time>2022-08-14T15:37:33Z</time>
      </trkpt>
      <trkpt lat="40.7860660" lon="-8.2614100">
        <ele>171.0</ele>
        <time>2022-08-14T15:37:37Z</time>
      </trkpt>
      <trkpt lat="40.7860390" lon="-8.2615180">
        <ele>171.4</ele>
        <time>2022-08-14T15:37:41Z</time>
      </trkpt>
      <trkpt lat="40.7860100" lon="-8.2615800">
        <ele>171.8</ele>
        <time>2022-08-14T15:37:43Z</time>
      </trkpt>
      <trkpt lat="40.7859540" lon="-8.2616770">
        <ele>172.6</ele>
        <time>2022-08-14T15:37:47Z</time>
      </trkpt>
      <trkpt lat="40.7859080" lon="-8.2617530">
        <ele>172.6</ele>
        <time>2022-08-14T15:37:50Z</time>
      </trkpt>
      <trkpt lat="40.7858190" lon="-8.2619720">
        <ele>172.6</ele>
        <time>2022-08-14T15:37:58Z</time>
      </trkpt>
      <trkpt lat="40.7857850" lon="-8.2620140">
        <ele>174.0</ele>
        <time>2022-08-14T15:38:00Z</time>
      </trkpt>
      <trkpt lat="40.7857520" lon="-8.2620570">
        <ele>175.2</ele>
        <time>2022-08-14T15:38:01Z</time>
      </trkpt>
      <trkpt lat="40.7857080" lon="-8.2621360">
        <ele>176.2</ele>
        <time>2022-08-14T15:38:04Z</time>
      </trkpt>
      <trkpt lat="40.7856880" lon="-8.2621770">
        <ele>176.4</ele>
        <time>2022-08-14T15:38:05Z</time>
      </trkpt>
      <trkpt lat="40.7855150" lon="-8.2624180">
        <ele>175.2</ele>
        <time>2022-08-14T15:38:12Z</time>
      </trkpt>
      <trkpt lat="40.7854950" lon="-8.2624390">
        <ele>175.0</ele>
        <time>2022-08-14T15:38:13Z</time>
      </trkpt>
      <trkpt lat="40.7853140" lon="-8.2625610">
        <ele>175.0</ele>
        <time>2022-08-14T15:38:20Z</time>
      </trkpt>
      <trkpt lat="40.7852040" lon="-8.2626270">
        <ele>175.2</ele>
        <time>2022-08-14T15:38:25Z</time>
      </trkpt>
      <trkpt lat="40.7850830" lon="-8.2627240">
        <ele>176.4</ele>
        <time>2022-08-14T15:38:31Z</time>
      </trkpt>
      <trkpt lat="40.7850640" lon="-8.2627510">
        <ele>176.6</ele>
        <time>2022-08-14T15:38:32Z</time>
      </trkpt>
      <trkpt lat="40.7849940" lon="-8.2628160">
        <ele>177.6</ele>
        <time>2022-08-14T15:38:36Z</time>
      </trkpt>
      <trkpt lat="40.7849630" lon="-8.2628440">
        <ele>178.0</ele>
        <time>2022-08-14T15:38:38Z</time>
      </trkpt>
      <trkpt lat="40.7849290" lon="-8.2628760">
        <ele>178.8</ele>
        <time>2022-08-14T15:38:40Z</time>
      </trkpt>
      <trkpt lat="40.7848390" lon="-8.2629540">
        <ele>179.8</ele>
        <time>2022-08-14T15:38:45Z</time>
      </trkpt>
      <trkpt lat="40.7848220" lon="-8.2629740">
        <ele>180.0</ele>
        <time>2022-08-14T15:38:46Z</time>
      </trkpt>
      <trkpt lat="40.7847890" lon="-8.2630120">
        <ele>181.0</ele>
        <time>2022-08-14T15:38:48Z</time>
      </trkpt>
      <trkpt lat="40.7847230" lon="-8.2630620">
        <ele>182.2</ele>
        <time>2022-08-14T15:38:52Z</time>
      </trkpt>
      <trkpt lat="40.7846900" lon="-8.2630950">
        <ele>183.0</ele>
        <time>2022-08-14T15:38:54Z</time>
      </trkpt>
      <trkpt lat="40.7846740" lon="-8.2631070">
        <ele>183.6</ele>
        <time>2022-08-14T15:38:55Z</time>
      </trkpt>
      <trkpt lat="40.7846220" lon="-8.2631990">
        <ele>184.8</ele>
        <time>2022-08-14T15:39:00Z</time>
      </trkpt>
      <trkpt lat="40.7845930" lon="-8.2632750">
        <ele>186.0</ele>
        <time>2022-08-14T15:39:05Z</time>
      </trkpt>
      <trkpt lat="40.7845830" lon="-8.2633060">
        <ele>186.4</ele>
        <time>2022-08-14T15:39:09Z</time>
      </trkpt>
      <trkpt lat="40.7845830" lon="-8.2633060">
        <ele>186.6</ele>
        <time>2022-08-14T15:39:10Z</time>
      </trkpt>
      <trkpt lat="40.7846170" lon="-8.2633900">
        <ele>186.4</ele>
        <time>2022-08-14T15:39:40Z</time>
      </trkpt>
      <trkpt lat="40.7846310" lon="-8.2634350">
        <ele>186.4</ele>
        <time>2022-08-14T15:39:42Z</time>
      </trkpt>
      <trkpt lat="40.7846450" lon="-8.2635500">
        <ele>187.4</ele>
        <time>2022-08-14T15:39:48Z</time>
      </trkpt>
      <trkpt lat="40.7846500" lon="-8.2635670">
        <ele>187.4</ele>
        <time>2022-08-14T15:39:49Z</time>
      </trkpt>
      <trkpt lat="40.7846680" lon="-8.2636490">
        <ele>188.4</ele>
        <time>2022-08-14T15:39:53Z</time>
      </trkpt>
      <trkpt lat="40.7846830" lon="-8.2637330">
        <ele>189.6</ele>
        <time>2022-08-14T15:39:57Z</time>
      </trkpt>
      <trkpt lat="40.7847210" lon="-8.2638190">
        <ele>190.8</ele>
        <time>2022-08-14T15:40:02Z</time>
      </trkpt>
      <trkpt lat="40.7847350" lon="-8.2638470">
        <ele>191.6</ele>
        <time>2022-08-14T15:40:04Z</time>
      </trkpt>
      <trkpt lat="40.7847420" lon="-8.2638600">
        <ele>192.0</ele>
        <time>2022-08-14T15:40:05Z</time>
      </trkpt>
      <trkpt lat="40.7847930" lon="-8.2639040">
        <ele>193.2</ele>
        <time>2022-08-14T15:40:10Z</time>
      </trkpt>
      <trkpt lat="40.7848030" lon="-8.2639100">
        <ele>193.4</ele>
        <time>2022-08-14T15:40:11Z</time>
      </trkpt>
      <trkpt lat="40.7848460" lon="-8.2639650">
        <ele>194.4</ele>
        <time>2022-08-14T15:40:16Z</time>
      </trkpt>
      <trkpt lat="40.7848600" lon="-8.2639880">
        <ele>194.6</ele>
        <time>2022-08-14T15:40:18Z</time>
      </trkpt>
      <trkpt lat="40.7848780" lon="-8.2640080">
        <ele>194.8</ele>
        <time>2022-08-14T15:40:20Z</time>
      </trkpt>
      <trkpt lat="40.7849140" lon="-8.2640140">
        <ele>195.4</ele>
        <time>2022-08-14T15:40:23Z</time>
      </trkpt>
      <trkpt lat="40.7849360" lon="-8.2640170">
        <ele>195.6</ele>
        <time>2022-08-14T15:40:25Z</time>
      </trkpt>
      <trkpt lat="40.7850130" lon="-8.2640060">
        <ele>196.4</ele>
        <time>2022-08-14T15:40:32Z</time>
      </trkpt>
      <trkpt lat="40.7850630" lon="-8.2639850">
        <ele>197.4</ele>
        <time>2022-08-14T15:40:36Z</time>
      </trkpt>
      <trkpt lat="40.7850740" lon="-8.2639850">
        <ele>197.6</ele>
        <time>2022-08-14T15:40:37Z</time>
      </trkpt>
      <trkpt lat="40.7850860" lon="-8.2639830">
        <ele>197.6</ele>
        <time>2022-08-14T15:40:38Z</time>
      </trkpt>
      <trkpt lat="40.7851400" lon="-8.2639850">
        <ele>198.4</ele>
        <time>2022-08-14T15:40:43Z</time>
      </trkpt>
      <trkpt lat="40.7851440" lon="-8.2639880">
        <ele>198.6</ele>
        <time>2022-08-14T15:40:44Z</time>
      </trkpt>
      <trkpt lat="40.7851440" lon="-8.2639880">
        <ele>198.8</ele>
        <time>2022-08-14T15:40:45Z</time>
      </trkpt>
      <trkpt lat="40.7851440" lon="-8.2639880">
        <ele>198.8</ele>
        <time>2022-08-14T15:40:46Z</time>
      </trkpt>
      <trkpt lat="40.7852530" lon="-8.2640540">
        <ele>199.2</ele>
        <time>2022-08-14T15:41:00Z</time>
      </trkpt>
      <trkpt lat="40.7852690" lon="-8.2640650">
        <ele>199.2</ele>
        <time>2022-08-14T15:41:01Z</time>
      </trkpt>
      <trkpt lat="40.7854120" lon="-8.2641920">
        <ele>200.2</ele>
        <time>2022-08-14T15:41:08Z</time>
      </trkpt>
      <trkpt lat="40.7854610" lon="-8.2642240">
        <ele>200.8</ele>
        <time>2022-08-14T15:41:11Z</time>
      </trkpt>
      <trkpt lat="40.7854920" lon="-8.2642610">
        <ele>201.4</ele>
        <time>2022-08-14T15:41:13Z</time>
      </trkpt>
      <trkpt lat="40.7855530" lon="-8.2642830">
        <ele>202.0</ele>
        <time>2022-08-14T15:41:18Z</time>
      </trkpt>
      <trkpt lat="40.7855770" lon="-8.2642810">
        <ele>202.4</ele>
        <time>2022-08-14T15:41:19Z</time>
      </trkpt>
      <trkpt lat="40.7855970" lon="-8.2642950">
        <ele>203.0</ele>
        <time>2022-08-14T15:41:21Z</time>
      </trkpt>
      <trkpt lat="40.7856030" lon="-8.2643320">
        <ele>203.4</ele>
        <time>2022-08-14T15:41:23Z</time>
      </trkpt>
      <trkpt lat="40.7856050" lon="-8.2643540">
        <ele>203.6</ele>
        <time>2022-08-14T15:41:24Z</time>
      </trkpt>
      <trkpt lat="40.7856180" lon="-8.2644790">
        <ele>204.2</ele>
        <time>2022-08-14T15:41:30Z</time>
      </trkpt>
      <trkpt lat="40.7856440" lon="-8.2646330">
        <ele>204.4</ele>
        <time>2022-08-14T15:41:37Z</time>
      </trkpt>
      <trkpt lat="40.7856790" lon="-8.2647120">
        <ele>204.4</ele>
        <time>2022-08-14T15:41:40Z</time>
      </trkpt>
      <trkpt lat="40.7856870" lon="-8.2647510">
        <ele>204.4</ele>
        <time>2022-08-14T15:41:41Z</time>
      </trkpt>
      <trkpt lat="40.7856990" lon="-8.2648420">
        <ele>204.4</ele>
        <time>2022-08-14T15:41:43Z</time>
      </trkpt>
      <trkpt lat="40.7856890" lon="-8.2649810">
        <ele>204.4</ele>
        <time>2022-08-14T15:41:49Z</time>
      </trkpt>
      <trkpt lat="40.7856470" lon="-8.2651180">
        <ele>204.6</ele>
        <time>2022-08-14T15:41:54Z</time>
      </trkpt>
      <trkpt lat="40.7856320" lon="-8.2651780">
        <ele>204.4</ele>
        <time>2022-08-14T15:41:56Z</time>
      </trkpt>
      <trkpt lat="40.7855380" lon="-8.2653980">
        <ele>204.0</ele>
        <time>2022-08-14T15:42:02Z</time>
      </trkpt>
      <trkpt lat="40.7854870" lon="-8.2655750">
        <ele>203.2</ele>
        <time>2022-08-14T15:42:06Z</time>
      </trkpt>
      <trkpt lat="40.7854680" lon="-8.2656970">
        <ele>202.6</ele>
        <time>2022-08-14T15:42:08Z</time>
      </trkpt>
      <trkpt lat="40.7854540" lon="-8.2657600">
        <ele>202.0</ele>
        <time>2022-08-14T15:42:09Z</time>
      </trkpt>
      <trkpt lat="40.7854500" lon="-8.2659120">
        <ele>201.2</ele>
        <time>2022-08-14T15:42:12Z</time>
      </trkpt>
      <trkpt lat="40.7854680" lon="-8.2660100">
        <ele>199.4</ele>
        <time>2022-08-14T15:42:15Z</time>
      </trkpt>
      <trkpt lat="40.7854640" lon="-8.2660430">
        <ele>198.6</ele>
        <time>2022-08-14T15:42:16Z</time>
      </trkpt>
      <trkpt lat="40.7854620" lon="-8.2660770">
        <ele>198.2</ele>
        <time>2022-08-14T15:42:17Z</time>
      </trkpt>
      <trkpt lat="40.7854510" lon="-8.2661760">
        <ele>197.4</ele>
        <time>2022-08-14T15:42:19Z</time>
      </trkpt>
      <trkpt lat="40.7854420" lon="-8.2662300">
        <ele>197.0</ele>
        <time>2022-08-14T15:42:20Z</time>
      </trkpt>
      <trkpt lat="40.7853960" lon="-8.2664100">
        <ele>196.0</ele>
        <time>2022-08-14T15:42:23Z</time>
      </trkpt>
      <trkpt lat="40.7853770" lon="-8.2664750">
        <ele>195.8</ele>
        <time>2022-08-14T15:42:24Z</time>
      </trkpt>
      <trkpt lat="40.7853540" lon="-8.2665320">
        <ele>194.6</ele>
        <time>2022-08-14T15:42:25Z</time>
      </trkpt>
      <trkpt lat="40.7852970" lon="-8.2666160">
        <ele>193.4</ele>
        <time>2022-08-14T15:42:27Z</time>
      </trkpt>
      <trkpt lat="40.7852510" lon="-8.2666630">
        <ele>193.0</ele>
        <time>2022-08-14T15:42:28Z</time>
      </trkpt>
      <trkpt lat="40.7852110" lon="-8.2666970">
        <ele>191.8</ele>
        <time>2022-08-14T15:42:29Z</time>
      </trkpt>
      <trkpt lat="40.7851750" lon="-8.2667290">
        <ele>190.4</ele>
        <time>2022-08-14T15:42:30Z</time>
      </trkpt>
      <trkpt lat="40.7851520" lon="-8.2667460">
        <ele>189.8</ele>
        <time>2022-08-14T15:42:31Z</time>
      </trkpt>
      <trkpt lat="40.7851300" lon="-8.2667810">
        <ele>189.0</ele>
        <time>2022-08-14T15:42:32Z</time>
      </trkpt>
      <trkpt lat="40.7851110" lon="-8.2668290">
        <ele>188.6</ele>
        <time>2022-08-14T15:42:33Z</time>
      </trkpt>
      <trkpt lat="40.7851080" lon="-8.2668720">
        <ele>187.4</ele>
        <time>2022-08-14T15:42:34Z</time>
      </trkpt>
      <trkpt lat="40.7851330" lon="-8.2669540">
        <ele>185.8</ele>
        <time>2022-08-14T15:42:36Z</time>
      </trkpt>
      <trkpt lat="40.7851870" lon="-8.2670300">
        <ele>184.6</ele>
        <time>2022-08-14T15:42:38Z</time>
      </trkpt>
      <trkpt lat="40.7852530" lon="-8.2671050">
        <ele>183.6</ele>
        <time>2022-08-14T15:42:40Z</time>
      </trkpt>
      <trkpt lat="40.7852820" lon="-8.2671300">
        <ele>183.2</ele>
        <time>2022-08-14T15:42:41Z</time>
      </trkpt>
      <trkpt lat="40.7854070" lon="-8.2672300">
        <ele>182.2</ele>
        <time>2022-08-14T15:42:44Z</time>
      </trkpt>
      <trkpt lat="40.7854650" lon="-8.2672900">
        <ele>181.4</ele>
        <time>2022-08-14T15:42:46Z</time>
      </trkpt>
      <trkpt lat="40.7854900" lon="-8.2673310">
        <ele>181.4</ele>
        <time>2022-08-14T15:42:47Z</time>
      </trkpt>
      <trkpt lat="40.7855110" lon="-8.2673920">
        <ele>180.8</ele>
        <time>2022-08-14T15:42:48Z</time>
      </trkpt>
      <trkpt lat="40.7855080" lon="-8.2675100">
        <ele>180.0</ele>
        <time>2022-08-14T15:42:50Z</time>
      </trkpt>
      <trkpt lat="40.7854920" lon="-8.2675480">
        <ele>179.4</ele>
        <time>2022-08-14T15:42:51Z</time>
      </trkpt>
      <trkpt lat="40.7854670" lon="-8.2675760">
        <ele>179.4</ele>
        <time>2022-08-14T15:42:52Z</time>
      </trkpt>
      <trkpt lat="40.7854310" lon="-8.2675860">
        <ele>179.0</ele>
        <time>2022-08-14T15:42:53Z</time>
      </trkpt>
      <trkpt lat="40.7853970" lon="-8.2675800">
        <ele>178.8</ele>
        <time>2022-08-14T15:42:54Z</time>
      </trkpt>
      <trkpt lat="40.7852300" lon="-8.2676040">
        <ele>178.0</ele>
        <time>2022-08-14T15:42:59Z</time>
      </trkpt>
      <trkpt lat="40.7851990" lon="-8.2676110">
        <ele>177.8</ele>
        <time>2022-08-14T15:43:00Z</time>
      </trkpt>
      <trkpt lat="40.7850320" lon="-8.2676470">
        <ele>177.6</ele>
        <time>2022-08-14T15:43:05Z</time>
      </trkpt>
      <trkpt lat="40.7847710" lon="-8.2677050">
        <ele>177.2</ele>
        <time>2022-08-14T15:43:12Z</time>
      </trkpt>
      <trkpt lat="40.7845540" lon="-8.2676810">
        <ele>177.0</ele>
        <time>2022-08-14T15:43:18Z</time>
      </trkpt>
      <trkpt lat="40.7845240" lon="-8.2676730">
        <ele>176.8</ele>
        <time>2022-08-14T15:43:19Z</time>
      </trkpt>
      <trkpt lat="40.7843370" lon="-8.2676260">
        <ele>176.6</ele>
        <time>2022-08-14T15:43:24Z</time>
      </trkpt>
      <trkpt lat="40.7840680" lon="-8.2675900">
        <ele>176.4</ele>
        <time>2022-08-14T15:43:32Z</time>
      </trkpt>
      <trkpt lat="40.7839330" lon="-8.2676810">
        <ele>176.2</ele>
        <time>2022-08-14T15:43:37Z</time>
      </trkpt>
      <trkpt lat="40.7837370" lon="-8.2678340">
        <ele>176.2</ele>
        <time>2022-08-14T15:43:45Z</time>
      </trkpt>
      <trkpt lat="40.7836410" lon="-8.2679370">
        <ele>177.6</ele>
        <time>2022-08-14T15:43:51Z</time>
      </trkpt>
      <trkpt lat="40.7835980" lon="-8.2679820">
        <ele>178.2</ele>
        <time>2022-08-14T15:43:54Z</time>
      </trkpt>
      <trkpt lat="40.7835610" lon="-8.2680510">
        <ele>178.6</ele>
        <time>2022-08-14T15:43:57Z</time>
      </trkpt>
      <trkpt lat="40.7835640" lon="-8.2682000">
        <ele>179.2</ele>
        <time>2022-08-14T15:44:03Z</time>
      </trkpt>
      <trkpt lat="40.7835720" lon="-8.2684290">
        <ele>180.4</ele>
        <time>2022-08-14T15:44:12Z</time>
      </trkpt>
      <trkpt lat="40.7835760" lon="-8.2684630">
        <ele>180.4</ele>
        <time>2022-08-14T15:44:14Z</time>
      </trkpt>
      <trkpt lat="40.7835840" lon="-8.2685010">
        <ele>181.6</ele>
        <time>2022-08-14T15:44:16Z</time>
      </trkpt>
      <trkpt lat="40.7836060" lon="-8.2685460">
        <ele>182.8</ele>
        <time>2022-08-14T15:44:18Z</time>
      </trkpt>
      <trkpt lat="40.7836320" lon="-8.2685820">
        <ele>183.8</ele>
        <time>2022-08-14T15:44:20Z</time>
      </trkpt>
      <trkpt lat="40.7836440" lon="-8.2686060">
        <ele>184.0</ele>
        <time>2022-08-14T15:44:21Z</time>
      </trkpt>
      <trkpt lat="40.7837180" lon="-8.2687530">
        <ele>184.2</ele>
        <time>2022-08-14T15:44:27Z</time>
      </trkpt>
      <trkpt lat="40.7837330" lon="-8.2687840">
        <ele>184.2</ele>
        <time>2022-08-14T15:44:29Z</time>
      </trkpt>
      <trkpt lat="40.7837320" lon="-8.2688950">
        <ele>184.8</ele>
        <time>2022-08-14T15:44:33Z</time>
      </trkpt>
      <trkpt lat="40.7837360" lon="-8.2689910">
        <ele>185.2</ele>
        <time>2022-08-14T15:44:36Z</time>
      </trkpt>
      <trkpt lat="40.7837480" lon="-8.2691190">
        <ele>185.6</ele>
        <time>2022-08-14T15:44:40Z</time>
      </trkpt>
      <trkpt lat="40.7837460" lon="-8.2691860">
        <ele>186.0</ele>
        <time>2022-08-14T15:44:45Z</time>
      </trkpt>
      <trkpt lat="40.7837460" lon="-8.2691860">
        <ele>186.0</ele>
        <time>2022-08-14T15:44:46Z</time>
      </trkpt>
      <trkpt lat="40.7837070" lon="-8.2692200">
        <ele>186.4</ele>
        <time>2022-08-14T15:45:00Z</time>
      </trkpt>
      <trkpt lat="40.7836530" lon="-8.2692420">
        <ele>186.6</ele>
        <time>2022-08-14T15:45:02Z</time>
      </trkpt>
      <trkpt lat="40.7835000" lon="-8.2692540">
        <ele>187.0</ele>
        <time>2022-08-14T15:45:08Z</time>
      </trkpt>
      <trkpt lat="40.7833520" lon="-8.2692910">
        <ele>187.6</ele>
        <time>2022-08-14T15:45:14Z</time>
      </trkpt>
      <trkpt lat="40.7832610" lon="-8.2693250">
        <ele>187.6</ele>
        <time>2022-08-14T15:45:17Z</time>
      </trkpt>
      <trkpt lat="40.7831360" lon="-8.2694070">
        <ele>187.6</ele>
        <time>2022-08-14T15:45:22Z</time>
      </trkpt>
      <trkpt lat="40.7830690" lon="-8.2696030">
        <ele>187.6</ele>
        <time>2022-08-14T15:45:28Z</time>
      </trkpt>
      <trkpt lat="40.7829850" lon="-8.2697850">
        <ele>188.2</ele>
        <time>2022-08-14T15:45:34Z</time>
      </trkpt>
      <trkpt lat="40.7828030" lon="-8.2699630">
        <ele>188.6</ele>
        <time>2022-08-14T15:45:42Z</time>
      </trkpt>
      <trkpt lat="40.7826390" lon="-8.2702300">
        <ele>188.4</ele>
        <time>2022-08-14T15:45:51Z</time>
      </trkpt>
      <trkpt lat="40.7824810" lon="-8.2703830">
        <ele>188.0</ele>
        <time>2022-08-14T15:45:57Z</time>
      </trkpt>
      <trkpt lat="40.7823910" lon="-8.2703660">
        <ele>188.0</ele>
        <time>2022-08-14T15:46:01Z</time>
      </trkpt>
      <trkpt lat="40.7822090" lon="-8.2702760">
        <ele>187.4</ele>
        <time>2022-08-14T15:46:07Z</time>
      </trkpt>
      <trkpt lat="40.7820600" lon="-8.2702720">
        <ele>186.8</ele>
        <time>2022-08-14T15:46:11Z</time>
      </trkpt>
      <trkpt lat="40.7820240" lon="-8.2702760">
        <ele>186.4</ele>
        <time>2022-08-14T15:46:12Z</time>
      </trkpt>
      <trkpt lat="40.7819080" lon="-8.2702500">
        <ele>186.2</ele>
        <time>2022-08-14T15:46:15Z</time>
      </trkpt>
      <trkpt lat="40.7817680" lon="-8.2701580">
        <ele>185.8</ele>
        <time>2022-08-14T15:46:19Z</time>
      </trkpt>
      <trkpt lat="40.7816160" lon="-8.2699310">
        <ele>185.2</ele>
        <time>2022-08-14T15:46:24Z</time>
      </trkpt>
      <trkpt lat="40.7815300" lon="-8.2696870">
        <ele>184.6</ele>
        <time>2022-08-14T15:46:28Z</time>
      </trkpt>
      <trkpt lat="40.7814660" lon="-8.2694260">
        <ele>184.2</ele>
        <time>2022-08-14T15:46:31Z</time>
      </trkpt>
      <trkpt lat="40.7814310" lon="-8.2693710">
        <ele>184.0</ele>
        <time>2022-08-14T15:46:32Z</time>
      </trkpt>
      <trkpt lat="40.7813350" lon="-8.2692890">
        <ele>183.2</ele>
        <time>2022-08-14T15:46:34Z</time>
      </trkpt>
      <trkpt lat="40.7812770" lon="-8.2692690">
        <ele>182.8</ele>
        <time>2022-08-14T15:46:35Z</time>
      </trkpt>
      <trkpt lat="40.7812330" lon="-8.2692740">
        <ele>181.8</ele>
        <time>2022-08-14T15:46:36Z</time>
      </trkpt>
      <trkpt lat="40.7811970" lon="-8.2692940">
        <ele>181.2</ele>
        <time>2022-08-14T15:46:37Z</time>
      </trkpt>
      <trkpt lat="40.7811590" lon="-8.2693320">
        <ele>180.4</ele>
        <time>2022-08-14T15:46:38Z</time>
      </trkpt>
      <trkpt lat="40.7811230" lon="-8.2693800">
        <ele>180.2</ele>
        <time>2022-08-14T15:46:39Z</time>
      </trkpt>
      <trkpt lat="40.7810880" lon="-8.2694230">
        <ele>179.8</ele>
        <time>2022-08-14T15:46:40Z</time>
      </trkpt>
      <trkpt lat="40.7810010" lon="-8.2694900">
        <ele>178.8</ele>
        <time>2022-08-14T15:46:42Z</time>
      </trkpt>
      <trkpt lat="40.7808700" lon="-8.2695090">
        <ele>177.4</ele>
        <time>2022-08-14T15:46:44Z</time>
      </trkpt>
      <trkpt lat="40.7808130" lon="-8.2694950">
        <ele>176.6</ele>
        <time>2022-08-14T15:46:45Z</time>
      </trkpt>
      <trkpt lat="40.7807570" lon="-8.2694830">
        <ele>176.4</ele>
        <time>2022-08-14T15:46:46Z</time>
      </trkpt>
      <trkpt lat="40.7806340" lon="-8.2694720">
        <ele>174.8</ele>
        <time>2022-08-14T15:46:49Z</time>
      </trkpt>
      <trkpt lat="40.7805830" lon="-8.2694530">
        <ele>174.4</ele>
        <time>2022-08-14T15:46:50Z</time>
      </trkpt>
      <trkpt lat="40.7805330" lon="-8.2694120">
        <ele>174.2</ele>
        <time>2022-08-14T15:46:51Z</time>
      </trkpt>
      <trkpt lat="40.7804820" lon="-8.2693840">
        <ele>173.8</ele>
        <time>2022-08-14T15:46:52Z</time>
      </trkpt>
      <trkpt lat="40.7804280" lon="-8.2693540">
        <ele>173.4</ele>
        <time>2022-08-14T15:46:53Z</time>
      </trkpt>
      <trkpt lat="40.7802390" lon="-8.2692450">
        <ele>172.4</ele>
        <time>2022-08-14T15:46:56Z</time>
      </trkpt>
      <trkpt lat="40.7802010" lon="-8.2692240">
        <ele>172.2</ele>
        <time>2022-08-14T15:46:57Z</time>
      </trkpt>
      <trkpt lat="40.7800870" lon="-8.2691870">
        <ele>171.8</ele>
        <time>2022-08-14T15:46:59Z</time>
      </trkpt>
      <trkpt lat="40.7799730" lon="-8.2692010">
        <ele>171.2</ele>
        <time>2022-08-14T15:47:01Z</time>
      </trkpt>
      <trkpt lat="40.7799190" lon="-8.2691990">
        <ele>171.0</ele>
        <time>2022-08-14T15:47:02Z</time>
      </trkpt>
      <trkpt lat="40.7798700" lon="-8.2691800">
        <ele>170.8</ele>
        <time>2022-08-14T15:47:03Z</time>
      </trkpt>
      <trkpt lat="40.7797430" lon="-8.2690580">
        <ele>170.0</ele>
        <time>2022-08-14T15:47:06Z</time>
      </trkpt>
      <trkpt lat="40.7796280" lon="-8.2688630">
        <ele>169.4</ele>
        <time>2022-08-14T15:47:10Z</time>
      </trkpt>
      <trkpt lat="40.7794830" lon="-8.2688310">
        <ele>169.6</ele>
        <time>2022-08-14T15:47:15Z</time>
      </trkpt>
      <trkpt lat="40.7793400" lon="-8.2689480">
        <ele>169.4</ele>
        <time>2022-08-14T15:47:20Z</time>
      </trkpt>
      <trkpt lat="40.7792520" lon="-8.2690850">
        <ele>169.2</ele>
        <time>2022-08-14T15:47:24Z</time>
      </trkpt>
      <trkpt lat="40.7792240" lon="-8.2691050">
        <ele>169.0</ele>
        <time>2022-08-14T15:47:25Z</time>
      </trkpt>
      <trkpt lat="40.7791960" lon="-8.2691340">
        <ele>168.8</ele>
        <time>2022-08-14T15:47:26Z</time>
      </trkpt>
      <trkpt lat="40.7791310" lon="-8.2691900">
        <ele>168.6</ele>
        <time>2022-08-14T15:47:28Z</time>
      </trkpt>
      <trkpt lat="40.7790940" lon="-8.2691860">
        <ele>168.0</ele>
        <time>2022-08-14T15:47:29Z</time>
      </trkpt>
      <trkpt lat="40.7790590" lon="-8.2691620">
        <ele>167.6</ele>
        <time>2022-08-14T15:47:30Z</time>
      </trkpt>
      <trkpt lat="40.7790290" lon="-8.2691270">
        <ele>167.4</ele>
        <time>2022-08-14T15:47:31Z</time>
      </trkpt>
      <trkpt lat="40.7790150" lon="-8.2690910">
        <ele>167.2</ele>
        <time>2022-08-14T15:47:32Z</time>
      </trkpt>
      <trkpt lat="40.7790210" lon="-8.2690180">
        <ele>166.8</ele>
        <time>2022-08-14T15:47:34Z</time>
      </trkpt>
      <trkpt lat="40.7790380" lon="-8.2687970">
        <ele>166.4</ele>
        <time>2022-08-14T15:47:40Z</time>
      </trkpt>
      <trkpt lat="40.7789240" lon="-8.2685350">
        <ele>166.4</ele>
        <time>2022-08-14T15:47:46Z</time>
      </trkpt>
      <trkpt lat="40.7787720" lon="-8.2682890">
        <ele>166.6</ele>
        <time>2022-08-14T15:47:53Z</time>
      </trkpt>
      <trkpt lat="40.7786760" lon="-8.2680880">
        <ele>166.0</ele>
        <time>2022-08-14T15:47:59Z</time>
      </trkpt>
      <trkpt lat="40.7786560" lon="-8.2680510">
        <ele>166.0</ele>
        <time>2022-08-14T15:48:00Z</time>
      </trkpt>
      <trkpt lat="40.7786120" lon="-8.2679740">
        <ele>165.4</ele>
        <time>2022-08-14T15:48:02Z</time>
      </trkpt>
      <trkpt lat="40.7784820" lon="-8.2677970">
        <ele>165.4</ele>
        <time>2022-08-14T15:48:07Z</time>
      </trkpt>
      <trkpt lat="40.7783630" lon="-8.2676450">
        <ele>164.8</ele>
        <time>2022-08-14T15:48:11Z</time>
      </trkpt>
      <trkpt lat="40.7782810" lon="-8.2674450">
        <ele>164.6</ele>
        <time>2022-08-14T15:48:16Z</time>
      </trkpt>
      <trkpt lat="40.7782510" lon="-8.2673020">
        <ele>164.8</ele>
        <time>2022-08-14T15:48:21Z</time>
      </trkpt>
      <trkpt lat="40.7782070" lon="-8.2672650">
        <ele>165.0</ele>
        <time>2022-08-14T15:48:24Z</time>
      </trkpt>
      <trkpt lat="40.7781700" lon="-8.2672750">
        <ele>165.0</ele>
        <time>2022-08-14T15:48:26Z</time>
      </trkpt>
      <trkpt lat="40.7781100" lon="-8.2673050">
        <ele>165.6</ele>
        <time>2022-08-14T15:48:30Z</time>
      </trkpt>
      <trkpt lat="40.7780940" lon="-8.2673230">
        <ele>166.2</ele>
        <time>2022-08-14T15:48:32Z</time>
      </trkpt>
      <trkpt lat="40.7780840" lon="-8.2673330">
        <ele>166.8</ele>
        <time>2022-08-14T15:48:36Z</time>
      </trkpt>
      <trkpt lat="40.7780090" lon="-8.2674370">
        <ele>167.4</ele>
        <time>2022-08-14T15:52:24Z</time>
      </trkpt>
      <trkpt lat="40.7778990" lon="-8.2675830">
        <ele>167.8</ele>
        <time>2022-08-14T15:52:30Z</time>
      </trkpt>
      <trkpt lat="40.7777770" lon="-8.2676850">
        <ele>169.4</ele>
        <time>2022-08-14T15:52:37Z</time>
      </trkpt>
      <trkpt lat="40.7777490" lon="-8.2676970">
        <ele>169.6</ele>
        <time>2022-08-14T15:52:38Z</time>
      </trkpt>
      <trkpt lat="40.7776270" lon="-8.2677110">
        <ele>170.4</ele>
        <time>2022-08-14T15:52:44Z</time>
      </trkpt>
      <trkpt lat="40.7775920" lon="-8.2677110">
        <ele>171.0</ele>
        <time>2022-08-14T15:52:46Z</time>
      </trkpt>
      <trkpt lat="40.7775130" lon="-8.2676980">
        <ele>171.6</ele>
        <time>2022-08-14T15:52:49Z</time>
      </trkpt>
      <trkpt lat="40.7774330" lon="-8.2677140">
        <ele>172.2</ele>
        <time>2022-08-14T15:52:54Z</time>
      </trkpt>
      <trkpt lat="40.7773830" lon="-8.2677390">
        <ele>173.0</ele>
        <time>2022-08-14T15:52:58Z</time>
      </trkpt>
      <trkpt lat="40.7773680" lon="-8.2677470">
        <ele>173.6</ele>
        <time>2022-08-14T15:53:00Z</time>
      </trkpt>
      <trkpt lat="40.7773170" lon="-8.2677730">
        <ele>174.2</ele>
        <time>2022-08-14T15:53:05Z</time>
      </trkpt>
      <trkpt lat="40.7772940" lon="-8.2678010">
        <ele>174.6</ele>
        <time>2022-08-14T15:53:08Z</time>
      </trkpt>
      <trkpt lat="40.7772430" lon="-8.2678410">
        <ele>175.2</ele>
        <time>2022-08-14T15:53:13Z</time>
      </trkpt>
      <trkpt lat="40.7772430" lon="-8.2678410">
        <ele>175.8</ele>
        <time>2022-08-14T15:53:15Z</time>
      </trkpt>
      <trkpt lat="40.7771840" lon="-8.2678780">
        <ele>176.6</ele>
        <time>2022-08-14T15:53:26Z</time>
      </trkpt>
      <trkpt lat="40.7771490" lon="-8.2679020">
        <ele>176.8</ele>
        <time>2022-08-14T15:53:29Z</time>
      </trkpt>
      <trkpt lat="40.7770370" lon="-8.2679850">
        <ele>178.0</ele>
        <time>2022-08-14T15:53:38Z</time>
      </trkpt>
      <trkpt lat="40.7770260" lon="-8.2679910">
        <ele>178.0</ele>
        <time>2022-08-14T15:53:39Z</time>
      </trkpt>
      <trkpt lat="40.7770150" lon="-8.2679970">
        <ele>178.2</ele>
        <time>2022-08-14T15:53:40Z</time>
      </trkpt>
      <trkpt lat="40.7769390" lon="-8.2680880">
        <ele>178.8</ele>
        <time>2022-08-14T15:53:47Z</time>
      </trkpt>
      <trkpt lat="40.7769100" lon="-8.2681340">
        <ele>179.0</ele>
        <time>2022-08-14T15:53:50Z</time>
      </trkpt>
      <trkpt lat="40.7768240" lon="-8.2683180">
        <ele>178.8</ele>
        <time>2022-08-14T15:53:58Z</time>
      </trkpt>
      <trkpt lat="40.7768400" lon="-8.2684740">
        <ele>178.6</ele>
        <time>2022-08-14T15:54:01Z</time>
      </trkpt>
      <trkpt lat="40.7768520" lon="-8.2686180">
        <ele>177.8</ele>
        <time>2022-08-14T15:54:04Z</time>
      </trkpt>
      <trkpt lat="40.7768510" lon="-8.2686720">
        <ele>177.4</ele>
        <time>2022-08-14T15:54:06Z</time>
      </trkpt>
      <trkpt lat="40.7768460" lon="-8.2687840">
        <ele>177.4</ele>
        <time>2022-08-14T15:54:11Z</time>
      </trkpt>
      <trkpt lat="40.7768490" lon="-8.2687990">
        <ele>177.4</ele>
        <time>2022-08-14T15:54:12Z</time>
      </trkpt>
      <trkpt lat="40.7768440" lon="-8.2689080">
        <ele>178.0</ele>
        <time>2022-08-14T15:54:18Z</time>
      </trkpt>
      <trkpt lat="40.7768700" lon="-8.2690390">
        <ele>179.0</ele>
        <time>2022-08-14T15:54:25Z</time>
      </trkpt>
      <trkpt lat="40.7768720" lon="-8.2690560">
        <ele>179.2</ele>
        <time>2022-08-14T15:54:26Z</time>
      </trkpt>
      <trkpt lat="40.7768820" lon="-8.2691640">
        <ele>180.0</ele>
        <time>2022-08-14T15:54:32Z</time>
      </trkpt>
      <trkpt lat="40.7768840" lon="-8.2691790">
        <ele>180.0</ele>
        <time>2022-08-14T15:54:33Z</time>
      </trkpt>
      <trkpt lat="40.7768960" lon="-8.2692950">
        <ele>181.2</ele>
        <time>2022-08-14T15:54:38Z</time>
      </trkpt>
      <trkpt lat="40.7768900" lon="-8.2693170">
        <ele>181.4</ele>
        <time>2022-08-14T15:54:39Z</time>
      </trkpt>
      <trkpt lat="40.7768870" lon="-8.2693530">
        <ele>182.0</ele>
        <time>2022-08-14T15:54:43Z</time>
      </trkpt>
      <trkpt lat="40.7768880" lon="-8.2694000">
        <ele>182.2</ele>
        <time>2022-08-14T15:54:46Z</time>
      </trkpt>
      <trkpt lat="40.7768880" lon="-8.2694050">
        <ele>182.4</ele>
        <time>2022-08-14T15:54:47Z</time>
      </trkpt>
      <trkpt lat="40.7768800" lon="-8.2694430">
        <ele>183.0</ele>
        <time>2022-08-14T15:54:51Z</time>
      </trkpt>
      <trkpt lat="40.7768850" lon="-8.2694610">
        <ele>183.2</ele>
        <time>2022-08-14T15:54:53Z</time>
      </trkpt>
      <trkpt lat="40.7769000" lon="-8.2695300">
        <ele>184.0</ele>
        <time>2022-08-14T15:54:59Z</time>
      </trkpt>
      <trkpt lat="40.7769100" lon="-8.2695670">
        <ele>184.6</ele>
        <time>2022-08-14T15:55:02Z</time>
      </trkpt>
      <trkpt lat="40.7769140" lon="-8.2695890">
        <ele>185.6</ele>
        <time>2022-08-14T15:55:06Z</time>
      </trkpt>
      <trkpt lat="40.7769150" lon="-8.2696650">
        <ele>186.4</ele>
        <time>2022-08-14T15:55:12Z</time>
      </trkpt>
      <trkpt lat="40.7769150" lon="-8.2696890">
        <ele>186.4</ele>
        <time>2022-08-14T15:55:13Z</time>
      </trkpt>
      <trkpt lat="40.7769080" lon="-8.2697650">
        <ele>186.8</ele>
        <time>2022-08-14T15:55:17Z</time>
      </trkpt>
      <trkpt lat="40.7768990" lon="-8.2698070">
        <ele>187.2</ele>
        <time>2022-08-14T15:55:19Z</time>
      </trkpt>
      <trkpt lat="40.7768850" lon="-8.2698370">
        <ele>187.6</ele>
        <time>2022-08-14T15:55:21Z</time>
      </trkpt>
      <trkpt lat="40.7768660" lon="-8.2699140">
        <ele>188.4</ele>
        <time>2022-08-14T15:55:26Z</time>
      </trkpt>
      <trkpt lat="40.7768580" lon="-8.2699280">
        <ele>188.6</ele>
        <time>2022-08-14T15:55:27Z</time>
      </trkpt>
      <trkpt lat="40.7768460" lon="-8.2699750">
        <ele>189.2</ele>
        <time>2022-08-14T15:55:31Z</time>
      </trkpt>
      <trkpt lat="40.7768300" lon="-8.2700400">
        <ele>190.0</ele>
        <time>2022-08-14T15:55:35Z</time>
      </trkpt>
      <trkpt lat="40.7768250" lon="-8.2700580">
        <ele>190.0</ele>
        <time>2022-08-14T15:55:36Z</time>
      </trkpt>
      <trkpt lat="40.7768110" lon="-8.2700860">
        <ele>190.6</ele>
        <time>2022-08-14T15:55:38Z</time>
      </trkpt>
      <trkpt lat="40.7768040" lon="-8.2701020">
        <ele>190.8</ele>
        <time>2022-08-14T15:55:40Z</time>
      </trkpt>
      <trkpt lat="40.7767850" lon="-8.2701470">
        <ele>191.2</ele>
        <time>2022-08-14T15:55:43Z</time>
      </trkpt>
      <trkpt lat="40.7767560" lon="-8.2702090">
        <ele>191.8</ele>
        <time>2022-08-14T15:55:46Z</time>
      </trkpt>
      <trkpt lat="40.7767460" lon="-8.2702920">
        <ele>192.4</ele>
        <time>2022-08-14T15:55:50Z</time>
      </trkpt>
      <trkpt lat="40.7767470" lon="-8.2702970">
        <ele>192.4</ele>
        <time>2022-08-14T15:55:51Z</time>
      </trkpt>
      <trkpt lat="40.7767440" lon="-8.2703510">
        <ele>192.8</ele>
        <time>2022-08-14T15:55:55Z</time>
      </trkpt>
      <trkpt lat="40.7767080" lon="-8.2704300">
        <ele>193.8</ele>
        <time>2022-08-14T15:56:00Z</time>
      </trkpt>
      <trkpt lat="40.7767040" lon="-8.2704440">
        <ele>194.0</ele>
        <time>2022-08-14T15:56:01Z</time>
      </trkpt>
      <trkpt lat="40.7766800" lon="-8.2704840">
        <ele>195.0</ele>
        <time>2022-08-14T15:56:06Z</time>
      </trkpt>
      <trkpt lat="40.7766750" lon="-8.2704970">
        <ele>195.2</ele>
        <time>2022-08-14T15:56:07Z</time>
      </trkpt>
      <trkpt lat="40.7766530" lon="-8.2705480">
        <ele>196.2</ele>
        <time>2022-08-14T15:56:11Z</time>
      </trkpt>
      <trkpt lat="40.7766390" lon="-8.2705790">
        <ele>197.4</ele>
        <time>2022-08-14T15:56:13Z</time>
      </trkpt>
      <trkpt lat="40.7766180" lon="-8.2706250">
        <ele>197.8</ele>
        <time>2022-08-14T15:56:15Z</time>
      </trkpt>
      <trkpt lat="40.7765920" lon="-8.2706940">
        <ele>198.6</ele>
        <time>2022-08-14T15:56:19Z</time>
      </trkpt>
      <trkpt lat="40.7765510" lon="-8.2707640">
        <ele>199.8</ele>
        <time>2022-08-14T15:56:23Z</time>
      </trkpt>
      <trkpt lat="40.7765250" lon="-8.2708050">
        <ele>200.0</ele>
        <time>2022-08-14T15:56:25Z</time>
      </trkpt>
      <trkpt lat="40.7765150" lon="-8.2708180">
        <ele>200.2</ele>
        <time>2022-08-14T15:56:26Z</time>
      </trkpt>
      <trkpt lat="40.7764940" lon="-8.2708390">
        <ele>200.6</ele>
        <time>2022-08-14T15:56:28Z</time>
      </trkpt>
      <trkpt lat="40.7764820" lon="-8.2708600">
        <ele>201.0</ele>
        <time>2022-08-14T15:56:30Z</time>
      </trkpt>
      <trkpt lat="40.7764750" lon="-8.2709070">
        <ele>201.8</ele>
        <time>2022-08-14T15:56:33Z</time>
      </trkpt>
      <trkpt lat="40.7764670" lon="-8.2709150">
        <ele>202.0</ele>
        <time>2022-08-14T15:56:34Z</time>
      </trkpt>
      <trkpt lat="40.7764570" lon="-8.2709270">
        <ele>202.2</ele>
        <time>2022-08-14T15:56:36Z</time>
      </trkpt>
      <trkpt lat="40.7764420" lon="-8.2709420">
        <ele>202.6</ele>
        <time>2022-08-14T15:56:38Z</time>
      </trkpt>
      <trkpt lat="40.7764300" lon="-8.2709460">
        <ele>202.8</ele>
        <time>2022-08-14T15:56:39Z</time>
      </trkpt>
      <trkpt lat="40.7764060" lon="-8.2709400">
        <ele>203.4</ele>
        <time>2022-08-14T15:56:41Z</time>
      </trkpt>
      <trkpt lat="40.7763980" lon="-8.2709340">
        <ele>203.4</ele>
        <time>2022-08-14T15:56:42Z</time>
      </trkpt>
      <trkpt lat="40.7763780" lon="-8.2709040">
        <ele>203.8</ele>
        <time>2022-08-14T15:56:46Z</time>
      </trkpt>
      <trkpt lat="40.7763690" lon="-8.2708690">
        <ele>204.2</ele>
        <time>2022-08-14T15:56:48Z</time>
      </trkpt>
      <trkpt lat="40.7763630" lon="-8.2708520">
        <ele>204.2</ele>
        <time>2022-08-14T15:56:49Z</time>
      </trkpt>
      <trkpt lat="40.7763570" lon="-8.2708420">
        <ele>204.4</ele>
        <time>2022-08-14T15:56:50Z</time>
      </trkpt>
      <trkpt lat="40.7763520" lon="-8.2707870">
        <ele>205.0</ele>
        <time>2022-08-14T15:56:54Z</time>
      </trkpt>
      <trkpt lat="40.7763590" lon="-8.2707590">
        <ele>205.0</ele>
        <time>2022-08-14T15:56:55Z</time>
      </trkpt>
      <trkpt lat="40.7763980" lon="-8.2705960">
        <ele>206.0</ele>
        <time>2022-08-14T15:57:02Z</time>
      </trkpt>
      <trkpt lat="40.7764060" lon="-8.2705570">
        <ele>206.4</ele>
        <time>2022-08-14T15:57:04Z</time>
      </trkpt>
      <trkpt lat="40.7764150" lon="-8.2705060">
        <ele>207.2</ele>
        <time>2022-08-14T15:57:07Z</time>
      </trkpt>
      <trkpt lat="40.7764250" lon="-8.2704500">
        <ele>207.6</ele>
        <time>2022-08-14T15:57:10Z</time>
      </trkpt>
      <trkpt lat="40.7764260" lon="-8.2704330">
        <ele>207.8</ele>
        <time>2022-08-14T15:57:11Z</time>
      </trkpt>
      <trkpt lat="40.7764240" lon="-8.2703850">
        <ele>208.4</ele>
        <time>2022-08-14T15:57:13Z</time>
      </trkpt>
      <trkpt lat="40.7764130" lon="-8.2703670">
        <ele>208.6</ele>
        <time>2022-08-14T15:57:14Z</time>
      </trkpt>
      <trkpt lat="40.7763570" lon="-8.2703510">
        <ele>209.0</ele>
        <time>2022-08-14T15:57:17Z</time>
      </trkpt>
      <trkpt lat="40.7763260" lon="-8.2703530">
        <ele>209.4</ele>
        <time>2022-08-14T15:57:19Z</time>
      </trkpt>
      <trkpt lat="40.7762710" lon="-8.2703860">
        <ele>210.2</ele>
        <time>2022-08-14T15:57:23Z</time>
      </trkpt>
      <trkpt lat="40.7762410" lon="-8.2704180">
        <ele>210.6</ele>
        <time>2022-08-14T15:57:25Z</time>
      </trkpt>
      <trkpt lat="40.7761910" lon="-8.2705010">
        <ele>211.4</ele>
        <time>2022-08-14T15:57:29Z</time>
      </trkpt>
      <trkpt lat="40.7761310" lon="-8.2705740">
        <ele>211.8</ele>
        <time>2022-08-14T15:57:33Z</time>
      </trkpt>
      <trkpt lat="40.7760920" lon="-8.2706320">
        <ele>212.2</ele>
        <time>2022-08-14T15:57:37Z</time>
      </trkpt>
      <trkpt lat="40.7760680" lon="-8.2707610">
        <ele>212.8</ele>
        <time>2022-08-14T15:57:44Z</time>
      </trkpt>
      <trkpt lat="40.7760640" lon="-8.2707780">
        <ele>213.0</ele>
        <time>2022-08-14T15:57:45Z</time>
      </trkpt>
      <trkpt lat="40.7760400" lon="-8.2709300">
        <ele>213.8</ele>
        <time>2022-08-14T15:57:52Z</time>
      </trkpt>
      <trkpt lat="40.7760400" lon="-8.2709450">
        <ele>214.2</ele>
        <time>2022-08-14T15:57:53Z</time>
      </trkpt>
      <trkpt lat="40.7760330" lon="-8.2709810">
        <ele>214.6</ele>
        <time>2022-08-14T15:57:55Z</time>
      </trkpt>
      <trkpt lat="40.7760200" lon="-8.2710220">
        <ele>215.0</ele>
        <time>2022-08-14T15:57:57Z</time>
      </trkpt>
      <trkpt lat="40.7760140" lon="-8.2710420">
        <ele>215.2</ele>
        <time>2022-08-14T15:57:58Z</time>
      </trkpt>
      <trkpt lat="40.7759570" lon="-8.2711740">
        <ele>216.4</ele>
        <time>2022-08-14T15:58:04Z</time>
      </trkpt>
      <trkpt lat="40.7759460" lon="-8.2712120">
        <ele>216.8</ele>
        <time>2022-08-14T15:58:06Z</time>
      </trkpt>
      <trkpt lat="40.7759160" lon="-8.2712640">
        <ele>217.6</ele>
        <time>2022-08-14T15:58:09Z</time>
      </trkpt>
      <trkpt lat="40.7758810" lon="-8.2713220">
        <ele>219.0</ele>
        <time>2022-08-14T15:58:12Z</time>
      </trkpt>
      <trkpt lat="40.7758740" lon="-8.2713370">
        <ele>219.2</ele>
        <time>2022-08-14T15:58:13Z</time>
      </trkpt>
      <trkpt lat="40.7758430" lon="-8.2713680">
        <ele>220.0</ele>
        <time>2022-08-14T15:58:16Z</time>
      </trkpt>
      <trkpt lat="40.7758000" lon="-8.2714100">
        <ele>221.2</ele>
        <time>2022-08-14T15:58:19Z</time>
      </trkpt>
      <trkpt lat="40.7757410" lon="-8.2714600">
        <ele>222.2</ele>
        <time>2022-08-14T15:58:23Z</time>
      </trkpt>
      <trkpt lat="40.7757000" lon="-8.2715010">
        <ele>223.2</ele>
        <time>2022-08-14T15:58:26Z</time>
      </trkpt>
      <trkpt lat="40.7756860" lon="-8.2715100">
        <ele>223.4</ele>
        <time>2022-08-14T15:58:27Z</time>
      </trkpt>
      <trkpt lat="40.7756440" lon="-8.2715360">
        <ele>224.2</ele>
        <time>2022-08-14T15:58:30Z</time>
      </trkpt>
      <trkpt lat="40.7756100" lon="-8.2715330">
        <ele>224.6</ele>
        <time>2022-08-14T15:58:32Z</time>
      </trkpt>
      <trkpt lat="40.7755560" lon="-8.2715210">
        <ele>225.0</ele>
        <time>2022-08-14T15:58:35Z</time>
      </trkpt>
      <trkpt lat="40.7755330" lon="-8.2715160">
        <ele>225.4</ele>
        <time>2022-08-14T15:58:37Z</time>
      </trkpt>
      <trkpt lat="40.7755230" lon="-8.2715130">
        <ele>225.6</ele>
        <time>2022-08-14T15:58:38Z</time>
      </trkpt>
      <trkpt lat="40.7754930" lon="-8.2714880">
        <ele>225.6</ele>
        <time>2022-08-14T15:58:40Z</time>
      </trkpt>
      <trkpt lat="40.7754610" lon="-8.2714700">
        <ele>225.8</ele>
        <time>2022-08-14T15:58:42Z</time>
      </trkpt>
      <trkpt lat="40.7753980" lon="-8.2714750">
        <ele>226.0</ele>
        <time>2022-08-14T15:58:46Z</time>
      </trkpt>
      <trkpt lat="40.7753520" lon="-8.2714850">
        <ele>226.4</ele>
        <time>2022-08-14T15:58:50Z</time>
      </trkpt>
      <trkpt lat="40.7753390" lon="-8.2715080">
        <ele>226.6</ele>
        <time>2022-08-14T15:58:52Z</time>
      </trkpt>
      <trkpt lat="40.7753380" lon="-8.2715280">
        <ele>226.8</ele>
        <time>2022-08-14T15:58:53Z</time>
      </trkpt>
      <trkpt lat="40.7753440" lon="-8.2715770">
        <ele>227.0</ele>
        <time>2022-08-14T15:58:56Z</time>
      </trkpt>
      <trkpt lat="40.7753130" lon="-8.2716400">
        <ele>227.2</ele>
        <time>2022-08-14T15:59:00Z</time>
      </trkpt>
      <trkpt lat="40.7752980" lon="-8.2717010">
        <ele>227.6</ele>
        <time>2022-08-14T15:59:03Z</time>
      </trkpt>
      <trkpt lat="40.7752760" lon="-8.2717980">
        <ele>228.0</ele>
        <time>2022-08-14T15:59:08Z</time>
      </trkpt>
      <trkpt lat="40.7752660" lon="-8.2718410">
        <ele>228.6</ele>
        <time>2022-08-14T15:59:10Z</time>
      </trkpt>
      <trkpt lat="40.7752630" lon="-8.2718570">
        <ele>228.8</ele>
        <time>2022-08-14T15:59:11Z</time>
      </trkpt>
      <trkpt lat="40.7752610" lon="-8.2718710">
        <ele>229.0</ele>
        <time>2022-08-14T15:59:12Z</time>
      </trkpt>
      <trkpt lat="40.7752520" lon="-8.2718900">
        <ele>229.2</ele>
        <time>2022-08-14T15:59:13Z</time>
      </trkpt>
      <trkpt lat="40.7752300" lon="-8.2719240">
        <ele>229.8</ele>
        <time>2022-08-14T15:59:15Z</time>
      </trkpt>
      <trkpt lat="40.7752170" lon="-8.2719290">
        <ele>230.0</ele>
        <time>2022-08-14T15:59:16Z</time>
      </trkpt>
      <trkpt lat="40.7752120" lon="-8.2719290">
        <ele>230.6</ele>
        <time>2022-08-14T15:59:19Z</time>
      </trkpt>
      <trkpt lat="40.7751710" lon="-8.2719100">
        <ele>231.8</ele>
        <time>2022-08-14T16:00:04Z</time>
      </trkpt>
      <trkpt lat="40.7751180" lon="-8.2719030">
        <ele>232.0</ele>
        <time>2022-08-14T16:00:07Z</time>
      </trkpt>
      <trkpt lat="40.7750270" lon="-8.2719170">
        <ele>232.4</ele>
        <time>2022-08-14T16:00:13Z</time>
      </trkpt>
      <trkpt lat="40.7749010" lon="-8.2719650">
        <ele>232.8</ele>
        <time>2022-08-14T16:00:20Z</time>
      </trkpt>
      <trkpt lat="40.7748920" lon="-8.2719820">
        <ele>232.8</ele>
        <time>2022-08-14T16:00:21Z</time>
      </trkpt>
      <trkpt lat="40.7748820" lon="-8.2719970">
        <ele>232.8</ele>
        <time>2022-08-14T16:00:22Z</time>
      </trkpt>
      <trkpt lat="40.7748270" lon="-8.2720210">
        <ele>233.0</ele>
        <time>2022-08-14T16:00:25Z</time>
      </trkpt>
      <trkpt lat="40.7748090" lon="-8.2720380">
        <ele>233.0</ele>
        <time>2022-08-14T16:00:26Z</time>
      </trkpt>
      <trkpt lat="40.7747600" lon="-8.2721430">
        <ele>233.0</ele>
        <time>2022-08-14T16:00:31Z</time>
      </trkpt>
      <trkpt lat="40.7746450" lon="-8.2722870">
        <ele>233.0</ele>
        <time>2022-08-14T16:00:39Z</time>
      </trkpt>
      <trkpt lat="40.7745580" lon="-8.2723230">
        <ele>233.0</ele>
        <time>2022-08-14T16:00:44Z</time>
      </trkpt>
      <trkpt lat="40.7745440" lon="-8.2723210">
        <ele>233.2</ele>
        <time>2022-08-14T16:00:45Z</time>
      </trkpt>
      <trkpt lat="40.7744350" lon="-8.2723420">
        <ele>234.4</ele>
        <time>2022-08-14T16:00:52Z</time>
      </trkpt>
      <trkpt lat="40.7743770" lon="-8.2723370">
        <ele>235.0</ele>
        <time>2022-08-14T16:00:56Z</time>
      </trkpt>
      <trkpt lat="40.7743490" lon="-8.2723390">
        <ele>235.4</ele>
        <time>2022-08-14T16:00:58Z</time>
      </trkpt>
      <trkpt lat="40.7743360" lon="-8.2723420">
        <ele>235.6</ele>
        <time>2022-08-14T16:00:59Z</time>
      </trkpt>
      <trkpt lat="40.7742780" lon="-8.2723800">
        <ele>236.0</ele>
        <time>2022-08-14T16:01:04Z</time>
      </trkpt>
      <trkpt lat="40.7742300" lon="-8.2723990">
        <ele>236.4</ele>
        <time>2022-08-14T16:01:07Z</time>
      </trkpt>
      <trkpt lat="40.7742090" lon="-8.2724080">
        <ele>236.4</ele>
        <time>2022-08-14T16:01:08Z</time>
      </trkpt>
      <trkpt lat="40.7741370" lon="-8.2724350">
        <ele>236.4</ele>
        <time>2022-08-14T16:01:12Z</time>
      </trkpt>
      <trkpt lat="40.7740490" lon="-8.2724960">
        <ele>235.4</ele>
        <time>2022-08-14T16:01:19Z</time>
      </trkpt>
      <trkpt lat="40.7740320" lon="-8.2725070">
        <ele>235.2</ele>
        <time>2022-08-14T16:01:20Z</time>
      </trkpt>
      <trkpt lat="40.7739930" lon="-8.2725300">
        <ele>234.0</ele>
        <time>2022-08-14T16:01:26Z</time>
      </trkpt>
      <trkpt lat="40.7739650" lon="-8.2725600">
        <ele>233.6</ele>
        <time>2022-08-14T16:01:32Z</time>
      </trkpt>
      <trkpt lat="40.7738450" lon="-8.2726720">
        <ele>233.2</ele>
        <time>2022-08-14T16:01:38Z</time>
      </trkpt>
      <trkpt lat="40.7738060" lon="-8.2726880">
        <ele>233.0</ele>
        <time>2022-08-14T16:01:40Z</time>
      </trkpt>
      <trkpt lat="40.7737380" lon="-8.2727020">
        <ele>232.8</ele>
        <time>2022-08-14T16:01:43Z</time>
      </trkpt>
      <trkpt lat="40.7736190" lon="-8.2727020">
        <ele>233.2</ele>
        <time>2022-08-14T16:01:49Z</time>
      </trkpt>
      <trkpt lat="40.7734860" lon="-8.2727390">
        <ele>233.4</ele>
        <time>2022-08-14T16:01:56Z</time>
      </trkpt>
      <trkpt lat="40.7734710" lon="-8.2727470">
        <ele>233.6</ele>
        <time>2022-08-14T16:01:57Z</time>
      </trkpt>
      <trkpt lat="40.7734080" lon="-8.2727770">
        <ele>233.8</ele>
        <time>2022-08-14T16:02:01Z</time>
      </trkpt>
      <trkpt lat="40.7733150" lon="-8.2728390">
        <ele>234.0</ele>
        <time>2022-08-14T16:02:06Z</time>
      </trkpt>
      <trkpt lat="40.7732580" lon="-8.2728510">
        <ele>234.0</ele>
        <time>2022-08-14T16:02:09Z</time>
      </trkpt>
      <trkpt lat="40.7732390" lon="-8.2728570">
        <ele>234.0</ele>
        <time>2022-08-14T16:02:11Z</time>
      </trkpt>
      <trkpt lat="40.7732100" lon="-8.2728740">
        <ele>234.0</ele>
        <time>2022-08-14T16:02:13Z</time>
      </trkpt>
      <trkpt lat="40.7730500" lon="-8.2729440">
        <ele>234.4</ele>
        <time>2022-08-14T16:02:19Z</time>
      </trkpt>
      <trkpt lat="40.7729410" lon="-8.2729960">
        <ele>234.4</ele>
        <time>2022-08-14T16:02:25Z</time>
      </trkpt>
      <trkpt lat="40.7729170" lon="-8.2730210">
        <ele>234.6</ele>
        <time>2022-08-14T16:02:27Z</time>
      </trkpt>
      <trkpt lat="40.7729000" lon="-8.2730520">
        <ele>234.6</ele>
        <time>2022-08-14T16:02:29Z</time>
      </trkpt>
      <trkpt lat="40.7728990" lon="-8.2730670">
        <ele>234.8</ele>
        <time>2022-08-14T16:02:30Z</time>
      </trkpt>
      <trkpt lat="40.7729230" lon="-8.2730950">
        <ele>235.0</ele>
        <time>2022-08-14T16:02:35Z</time>
      </trkpt>
      <trkpt lat="40.7730080" lon="-8.2730470">
        <ele>236.0</ele>
        <time>2022-08-14T16:02:42Z</time>
      </trkpt>
      <trkpt lat="40.7730210" lon="-8.2730460">
        <ele>236.0</ele>
        <time>2022-08-14T16:02:43Z</time>
      </trkpt>
      <trkpt lat="40.7731040" lon="-8.2730370">
        <ele>236.4</ele>
        <time>2022-08-14T16:02:48Z</time>
      </trkpt>
      <trkpt lat="40.7731240" lon="-8.2730410">
        <ele>236.8</ele>
        <time>2022-08-14T16:02:50Z</time>
      </trkpt>
      <trkpt lat="40.7731610" lon="-8.2730470">
        <ele>237.4</ele>
        <time>2022-08-14T16:02:53Z</time>
      </trkpt>
      <trkpt lat="40.7732230" lon="-8.2730410">
        <ele>238.0</ele>
        <time>2022-08-14T16:02:57Z</time>
      </trkpt>
      <trkpt lat="40.7732440" lon="-8.2730320">
        <ele>238.2</ele>
        <time>2022-08-14T16:02:58Z</time>
      </trkpt>
      <trkpt lat="40.7732950" lon="-8.2730380">
        <ele>238.6</ele>
        <time>2022-08-14T16:03:01Z</time>
      </trkpt>
      <trkpt lat="40.7733540" lon="-8.2730310">
        <ele>238.8</ele>
        <time>2022-08-14T16:03:04Z</time>
      </trkpt>
      <trkpt lat="40.7734690" lon="-8.2730290">
        <ele>239.6</ele>
        <time>2022-08-14T16:03:10Z</time>
      </trkpt>
      <trkpt lat="40.7734870" lon="-8.2730290">
        <ele>239.8</ele>
        <time>2022-08-14T16:03:11Z</time>
      </trkpt>
      <trkpt lat="40.7735850" lon="-8.2730260">
        <ele>240.8</ele>
        <time>2022-08-14T16:03:16Z</time>
      </trkpt>
      <trkpt lat="40.7737010" lon="-8.2730070">
        <ele>241.6</ele>
        <time>2022-08-14T16:03:22Z</time>
      </trkpt>
      <trkpt lat="40.7737180" lon="-8.2730110">
        <ele>241.8</ele>
        <time>2022-08-14T16:03:23Z</time>
      </trkpt>
      <trkpt lat="40.7738110" lon="-8.2730310">
        <ele>242.8</ele>
        <time>2022-08-14T16:03:29Z</time>
      </trkpt>
      <trkpt lat="40.7738660" lon="-8.2730570">
        <ele>244.0</ele>
        <time>2022-08-14T16:03:33Z</time>
      </trkpt>
      <trkpt lat="40.7739050" lon="-8.2730810">
        <ele>244.4</ele>
        <time>2022-08-14T16:03:36Z</time>
      </trkpt>
      <trkpt lat="40.7739410" lon="-8.2731050">
        <ele>245.2</ele>
        <time>2022-08-14T16:03:41Z</time>
      </trkpt>
      <trkpt lat="40.7739480" lon="-8.2731150">
        <ele>245.4</ele>
        <time>2022-08-14T16:03:43Z</time>
      </trkpt>
      <trkpt lat="40.7739650" lon="-8.2731410">
        <ele>245.4</ele>
        <time>2022-08-14T16:03:46Z</time>
      </trkpt>
      <trkpt lat="40.7739530" lon="-8.2731410">
        <ele>245.6</ele>
        <time>2022-08-14T16:03:48Z</time>
      </trkpt>
      <trkpt lat="40.7738650" lon="-8.2730410">
        <ele>245.8</ele>
        <time>2022-08-14T16:03:53Z</time>
      </trkpt>
      <trkpt lat="40.7737920" lon="-8.2729970">
        <ele>245.0</ele>
        <time>2022-08-14T16:03:59Z</time>
      </trkpt>
      <trkpt lat="40.7737560" lon="-8.2730170">
        <ele>243.6</ele>
        <time>2022-08-14T16:04:46Z</time>
      </trkpt>
      <trkpt lat="40.7736900" lon="-8.2730130">
        <ele>243.6</ele>
        <time>2022-08-14T16:04:49Z</time>
      </trkpt>
      <trkpt lat="40.7735300" lon="-8.2730390">
        <ele>243.0</ele>
        <time>2022-08-14T16:04:57Z</time>
      </trkpt>
      <trkpt lat="40.7734770" lon="-8.2730450">
        <ele>242.4</ele>
        <time>2022-08-14T16:05:00Z</time>
      </trkpt>
      <trkpt lat="40.7734490" lon="-8.2730500">
        <ele>242.0</ele>
        <time>2022-08-14T16:05:04Z</time>
      </trkpt>
      <trkpt lat="40.7733990" lon="-8.2730580">
        <ele>241.4</ele>
        <time>2022-08-14T16:05:22Z</time>
      </trkpt>
      <trkpt lat="40.7733230" lon="-8.2730490">
        <ele>241.4</ele>
        <time>2022-08-14T16:05:25Z</time>
      </trkpt>
      <trkpt lat="40.7731550" lon="-8.2730460">
        <ele>240.4</ele>
        <time>2022-08-14T16:05:30Z</time>
      </trkpt>
      <trkpt lat="40.7731120" lon="-8.2730500">
        <ele>240.2</ele>
        <time>2022-08-14T16:05:31Z</time>
      </trkpt>
      <trkpt lat="40.7729690" lon="-8.2730590">
        <ele>239.6</ele>
        <time>2022-08-14T16:05:35Z</time>
      </trkpt>
      <trkpt lat="40.7728890" lon="-8.2730990">
        <ele>239.0</ele>
        <time>2022-08-14T16:05:37Z</time>
      </trkpt>
      <trkpt lat="40.7727960" lon="-8.2731740">
        <ele>238.2</ele>
        <time>2022-08-14T16:05:39Z</time>
      </trkpt>
      <trkpt lat="40.7727400" lon="-8.2732220">
        <ele>237.6</ele>
        <time>2022-08-14T16:05:40Z</time>
      </trkpt>
      <trkpt lat="40.7726310" lon="-8.2733100">
        <ele>236.8</ele>
        <time>2022-08-14T16:05:42Z</time>
      </trkpt>
      <trkpt lat="40.7725640" lon="-8.2733480">
        <ele>236.6</ele>
        <time>2022-08-14T16:05:43Z</time>
      </trkpt>
      <trkpt lat="40.7725010" lon="-8.2733570">
        <ele>236.2</ele>
        <time>2022-08-14T16:05:44Z</time>
      </trkpt>
      <trkpt lat="40.7723900" lon="-8.2733460">
        <ele>235.2</ele>
        <time>2022-08-14T16:05:46Z</time>
      </trkpt>
      <trkpt lat="40.7722630" lon="-8.2733220">
        <ele>234.6</ele>
        <time>2022-08-14T16:05:48Z</time>
      </trkpt>
      <trkpt lat="40.7721580" lon="-8.2733310">
        <ele>234.2</ele>
        <time>2022-08-14T16:05:50Z</time>
      </trkpt>
      <trkpt lat="40.7721090" lon="-8.2733440">
        <ele>234.0</ele>
        <time>2022-08-14T16:05:51Z</time>
      </trkpt>
      <trkpt lat="40.7719750" lon="-8.2734100">
        <ele>233.6</ele>
        <time>2022-08-14T16:05:54Z</time>
      </trkpt>
      <trkpt lat="40.7719410" lon="-8.2734370">
        <ele>233.6</ele>
        <time>2022-08-14T16:05:55Z</time>
      </trkpt>
      <trkpt lat="40.7718860" lon="-8.2734810">
        <ele>233.2</ele>
        <time>2022-08-14T16:05:57Z</time>
      </trkpt>
      <trkpt lat="40.7718140" lon="-8.2735330">
        <ele>232.8</ele>
        <time>2022-08-14T16:06:00Z</time>
      </trkpt>
      <trkpt lat="40.7716590" lon="-8.2736690">
        <ele>232.4</ele>
        <time>2022-08-14T16:06:06Z</time>
      </trkpt>
      <trkpt lat="40.7716040" lon="-8.2737230">
        <ele>232.4</ele>
        <time>2022-08-14T16:06:08Z</time>
      </trkpt>
      <trkpt lat="40.7714150" lon="-8.2738920">
        <ele>231.6</ele>
        <time>2022-08-14T16:06:15Z</time>
      </trkpt>
      <trkpt lat="40.7713460" lon="-8.2739570">
        <ele>231.4</ele>
        <time>2022-08-14T16:06:18Z</time>
      </trkpt>
      <trkpt lat="40.7712630" lon="-8.2740440">
        <ele>231.2</ele>
        <time>2022-08-14T16:06:22Z</time>
      </trkpt>
      <trkpt lat="40.7711490" lon="-8.2742690">
        <ele>231.2</ele>
        <time>2022-08-14T16:06:29Z</time>
      </trkpt>
      <trkpt lat="40.7710290" lon="-8.2743830">
        <ele>231.0</ele>
        <time>2022-08-14T16:06:33Z</time>
      </trkpt>
      <trkpt lat="40.7708590" lon="-8.2743600">
        <ele>230.2</ele>
        <time>2022-08-14T16:06:38Z</time>
      </trkpt>
      <trkpt lat="40.7706980" lon="-8.2742250">
        <ele>229.6</ele>
        <time>2022-08-14T16:06:44Z</time>
      </trkpt>
      <trkpt lat="40.7705900" lon="-8.2741460">
        <ele>229.2</ele>
        <time>2022-08-14T16:06:47Z</time>
      </trkpt>
      <trkpt lat="40.7705440" lon="-8.2741240">
        <ele>229.0</ele>
        <time>2022-08-14T16:06:48Z</time>
      </trkpt>
      <trkpt lat="40.7704940" lon="-8.2741070">
        <ele>229.0</ele>
        <time>2022-08-14T16:06:49Z</time>
      </trkpt>
      <trkpt lat="40.7702050" lon="-8.2740260">
        <ele>228.4</ele>
        <time>2022-08-14T16:06:54Z</time>
      </trkpt>
      <trkpt lat="40.7701330" lon="-8.2740200">
        <ele>228.2</ele>
        <time>2022-08-14T16:06:55Z</time>
      </trkpt>
      <trkpt lat="40.7700610" lon="-8.2740320">
        <ele>228.0</ele>
        <time>2022-08-14T16:06:56Z</time>
      </trkpt>
      <trkpt lat="40.7699170" lon="-8.2740940">
        <ele>227.8</ele>
        <time>2022-08-14T16:06:58Z</time>
      </trkpt>
      <trkpt lat="40.7697540" lon="-8.2741690">
        <ele>227.2</ele>
        <time>2022-08-14T16:07:00Z</time>
      </trkpt>
      <trkpt lat="40.7696820" lon="-8.2741840">
        <ele>227.0</ele>
        <time>2022-08-14T16:07:01Z</time>
      </trkpt>
      <trkpt lat="40.7695620" lon="-8.2742030">
        <ele>226.0</ele>
        <time>2022-08-14T16:07:03Z</time>
      </trkpt>
      <trkpt lat="40.7695080" lon="-8.2742180">
        <ele>225.2</ele>
        <time>2022-08-14T16:07:04Z</time>
      </trkpt>
      <trkpt lat="40.7694540" lon="-8.2742310">
        <ele>224.2</ele>
        <time>2022-08-14T16:07:05Z</time>
      </trkpt>
      <trkpt lat="40.7694000" lon="-8.2742450">
        <ele>224.0</ele>
        <time>2022-08-14T16:07:06Z</time>
      </trkpt>
      <trkpt lat="40.7692980" lon="-8.2742730">
        <ele>223.0</ele>
        <time>2022-08-14T16:07:08Z</time>
      </trkpt>
      <trkpt lat="40.7692590" lon="-8.2742920">
        <ele>222.0</ele>
        <time>2022-08-14T16:07:09Z</time>
      </trkpt>
      <trkpt lat="40.7692260" lon="-8.2743130">
        <ele>221.6</ele>
        <time>2022-08-14T16:07:10Z</time>
      </trkpt>
      <trkpt lat="40.7691940" lon="-8.2743350">
        <ele>220.8</ele>
        <time>2022-08-14T16:07:11Z</time>
      </trkpt>
      <trkpt lat="40.7690770" lon="-8.2744310">
        <ele>219.8</ele>
        <time>2022-08-14T16:07:15Z</time>
      </trkpt>
      <trkpt lat="40.7690130" lon="-8.2745110">
        <ele>219.2</ele>
        <time>2022-08-14T16:07:18Z</time>
      </trkpt>
      <trkpt lat="40.7689600" lon="-8.2745810">
        <ele>218.6</ele>
        <time>2022-08-14T16:07:21Z</time>
      </trkpt>
      <trkpt lat="40.7689380" lon="-8.2746250">
        <ele>218.4</ele>
        <time>2022-08-14T16:07:23Z</time>
      </trkpt>
      <trkpt lat="40.7688910" lon="-8.2747980">
        <ele>218.0</ele>
        <time>2022-08-14T16:07:29Z</time>
      </trkpt>
      <trkpt lat="40.7688640" lon="-8.2748820">
        <ele>217.6</ele>
        <time>2022-08-14T16:07:32Z</time>
      </trkpt>
      <trkpt lat="40.7688320" lon="-8.2749740">
        <ele>217.6</ele>
        <time>2022-08-14T16:07:35Z</time>
      </trkpt>
      <trkpt lat="40.7687790" lon="-8.2750810">
        <ele>217.6</ele>
        <time>2022-08-14T16:07:40Z</time>
      </trkpt>
      <trkpt lat="40.7685920" lon="-8.2751570">
        <ele>217.6</ele>
        <time>2022-08-14T16:07:47Z</time>
      </trkpt>
      <trkpt lat="40.7683590" lon="-8.2752080">
        <ele>217.4</ele>
        <time>2022-08-14T16:07:53Z</time>
      </trkpt>
      <trkpt lat="40.7681150" lon="-8.2751640">
        <ele>217.2</ele>
        <time>2022-08-14T16:08:00Z</time>
      </trkpt>
      <trkpt lat="40.7678740" lon="-8.2751920">
        <ele>216.6</ele>
        <time>2022-08-14T16:08:06Z</time>
      </trkpt>
      <trkpt lat="40.7678290" lon="-8.2752100">
        <ele>216.6</ele>
        <time>2022-08-14T16:08:07Z</time>
      </trkpt>
      <trkpt lat="40.7677870" lon="-8.2752360">
        <ele>216.4</ele>
        <time>2022-08-14T16:08:08Z</time>
      </trkpt>
      <trkpt lat="40.7676720" lon="-8.2753510">
        <ele>216.2</ele>
        <time>2022-08-14T16:08:11Z</time>
      </trkpt>
      <trkpt lat="40.7676190" lon="-8.2754270">
        <ele>215.6</ele>
        <time>2022-08-14T16:08:13Z</time>
      </trkpt>
      <trkpt lat="40.7675730" lon="-8.2755050">
        <ele>215.0</ele>
        <time>2022-08-14T16:08:15Z</time>
      </trkpt>
      <trkpt lat="40.7675210" lon="-8.2755820">
        <ele>214.2</ele>
        <time>2022-08-14T16:08:17Z</time>
      </trkpt>
      <trkpt lat="40.7674650" lon="-8.2756750">
        <ele>213.8</ele>
        <time>2022-08-14T16:08:19Z</time>
      </trkpt>
      <trkpt lat="40.7673480" lon="-8.2758730">
        <ele>213.2</ele>
        <time>2022-08-14T16:08:23Z</time>
      </trkpt>
      <trkpt lat="40.7672960" lon="-8.2759780">
        <ele>212.8</ele>
        <time>2022-08-14T16:08:25Z</time>
      </trkpt>
      <trkpt lat="40.7672650" lon="-8.2760800">
        <ele>212.2</ele>
        <time>2022-08-14T16:08:27Z</time>
      </trkpt>
      <trkpt lat="40.7672590" lon="-8.2761330">
        <ele>212.0</ele>
        <time>2022-08-14T16:08:28Z</time>
      </trkpt>
      <trkpt lat="40.7672760" lon="-8.2764360">
        <ele>211.4</ele>
        <time>2022-08-14T16:08:34Z</time>
      </trkpt>
      <trkpt lat="40.7672810" lon="-8.2766620">
        <ele>211.2</ele>
        <time>2022-08-14T16:08:39Z</time>
      </trkpt>
      <trkpt lat="40.7672850" lon="-8.2767330">
        <ele>211.2</ele>
        <time>2022-08-14T16:08:41Z</time>
      </trkpt>
      <trkpt lat="40.7673040" lon="-8.2769410">
        <ele>211.2</ele>
        <time>2022-08-14T16:08:47Z</time>
      </trkpt>
      <trkpt lat="40.7673270" lon="-8.2771850">
        <ele>211.4</ele>
        <time>2022-08-14T16:08:53Z</time>
      </trkpt>
      <trkpt lat="40.7673640" lon="-8.2775110">
        <ele>212.0</ele>
        <time>2022-08-14T16:09:03Z</time>
      </trkpt>
      <trkpt lat="40.7673690" lon="-8.2777000">
        <ele>212.4</ele>
        <time>2022-08-14T16:09:10Z</time>
      </trkpt>
      <trkpt lat="40.7673680" lon="-8.2777220">
        <ele>212.6</ele>
        <time>2022-08-14T16:09:11Z</time>
      </trkpt>
      <trkpt lat="40.7673570" lon="-8.2778170">
        <ele>213.4</ele>
        <time>2022-08-14T16:09:16Z</time>
      </trkpt>
      <trkpt lat="40.7673560" lon="-8.2778750">
        <ele>213.8</ele>
        <time>2022-08-14T16:09:19Z</time>
      </trkpt>
      <trkpt lat="40.7673580" lon="-8.2778940">
        <ele>214.2</ele>
        <time>2022-08-14T16:09:22Z</time>
      </trkpt>
      <trkpt lat="40.7673580" lon="-8.2778940">
        <ele>214.4</ele>
        <time>2022-08-14T16:09:23Z</time>
      </trkpt>
      <trkpt lat="40.7673500" lon="-8.2780020">
        <ele>215.4</ele>
        <time>2022-08-14T16:10:01Z</time>
      </trkpt>
      <trkpt lat="40.7673580" lon="-8.2780750">
        <ele>215.6</ele>
        <time>2022-08-14T16:10:03Z</time>
      </trkpt>
      <trkpt lat="40.7673790" lon="-8.2782190">
        <ele>216.0</ele>
        <time>2022-08-14T16:10:07Z</time>
      </trkpt>
      <trkpt lat="40.7673920" lon="-8.2782910">
        <ele>216.4</ele>
        <time>2022-08-14T16:10:09Z</time>
      </trkpt>
      <trkpt lat="40.7674020" lon="-8.2784010">
        <ele>217.6</ele>
        <time>2022-08-14T16:10:13Z</time>
      </trkpt>
      <trkpt lat="40.7674090" lon="-8.2784390">
        <ele>218.2</ele>
        <time>2022-08-14T16:10:15Z</time>
      </trkpt>
      <trkpt lat="40.7674140" lon="-8.2784820">
        <ele>218.6</ele>
        <time>2022-08-14T16:10:17Z</time>
      </trkpt>
      <trkpt lat="40.7674130" lon="-8.2784860">
        <ele>219.0</ele>
        <time>2022-08-14T16:10:20Z</time>
      </trkpt>
      <trkpt lat="40.7674510" lon="-8.2786800">
        <ele>220.2</ele>
        <time>2022-08-14T16:10:33Z</time>
      </trkpt>
      <trkpt lat="40.7674640" lon="-8.2787800">
        <ele>220.4</ele>
        <time>2022-08-14T16:10:36Z</time>
      </trkpt>
      <trkpt lat="40.7674570" lon="-8.2789710">
        <ele>221.2</ele>
        <time>2022-08-14T16:10:43Z</time>
      </trkpt>
      <trkpt lat="40.7674500" lon="-8.2789920">
        <ele>221.2</ele>
        <time>2022-08-14T16:10:44Z</time>
      </trkpt>
      <trkpt lat="40.7674430" lon="-8.2790130">
        <ele>221.2</ele>
        <time>2022-08-14T16:10:45Z</time>
      </trkpt>
      <trkpt lat="40.7673400" lon="-8.2791910">
        <ele>222.2</ele>
        <time>2022-08-14T16:10:52Z</time>
      </trkpt>
      <trkpt lat="40.7673120" lon="-8.2792310">
        <ele>222.2</ele>
        <time>2022-08-14T16:10:54Z</time>
      </trkpt>
      <trkpt lat="40.7672220" lon="-8.2793740">
        <ele>222.8</ele>
        <time>2022-08-14T16:11:00Z</time>
      </trkpt>
      <trkpt lat="40.7672090" lon="-8.2794050">
        <ele>223.4</ele>
        <time>2022-08-14T16:11:01Z</time>
      </trkpt>
      <trkpt lat="40.7671740" lon="-8.2795600">
        <ele>224.4</ele>
        <time>2022-08-14T16:11:06Z</time>
      </trkpt>
      <trkpt lat="40.7671210" lon="-8.2797590">
        <ele>224.4</ele>
        <time>2022-08-14T16:11:13Z</time>
      </trkpt>
      <trkpt lat="40.7670820" lon="-8.2799170">
        <ele>225.0</ele>
        <time>2022-08-14T16:11:19Z</time>
      </trkpt>
      <trkpt lat="40.7670290" lon="-8.2800260">
        <ele>225.4</ele>
        <time>2022-08-14T16:11:24Z</time>
      </trkpt>
      <trkpt lat="40.7669720" lon="-8.2800850">
        <ele>226.0</ele>
        <time>2022-08-14T16:11:27Z</time>
      </trkpt>
      <trkpt lat="40.7669300" lon="-8.2801390">
        <ele>226.2</ele>
        <time>2022-08-14T16:11:29Z</time>
      </trkpt>
      <trkpt lat="40.7668570" lon="-8.2802010">
        <ele>226.6</ele>
        <time>2022-08-14T16:11:32Z</time>
      </trkpt>
      <trkpt lat="40.7668390" lon="-8.2802200">
        <ele>226.6</ele>
        <time>2022-08-14T16:11:33Z</time>
      </trkpt>
      <trkpt lat="40.7666760" lon="-8.2804060">
        <ele>226.8</ele>
        <time>2022-08-14T16:11:40Z</time>
      </trkpt>
      <trkpt lat="40.7665360" lon="-8.2806470">
        <ele>227.6</ele>
        <time>2022-08-14T16:11:48Z</time>
      </trkpt>
      <trkpt lat="40.7664350" lon="-8.2808150">
        <ele>228.0</ele>
        <time>2022-08-14T16:11:53Z</time>
      </trkpt>
      <trkpt lat="40.7662990" lon="-8.2810160">
        <ele>228.8</ele>
        <time>2022-08-14T16:12:00Z</time>
      </trkpt>
      <trkpt lat="40.7662250" lon="-8.2811490">
        <ele>229.4</ele>
        <time>2022-08-14T16:12:05Z</time>
      </trkpt>
      <trkpt lat="40.7660760" lon="-8.2813490">
        <ele>229.6</ele>
        <time>2022-08-14T16:12:12Z</time>
      </trkpt>
      <trkpt lat="40.7659950" lon="-8.2813870">
        <ele>229.8</ele>
        <time>2022-08-14T16:12:15Z</time>
      </trkpt>
      <trkpt lat="40.7659130" lon="-8.2813980">
        <ele>229.8</ele>
        <time>2022-08-14T16:12:18Z</time>
      </trkpt>
      <trkpt lat="40.7658440" lon="-8.2814140">
        <ele>229.8</ele>
        <time>2022-08-14T16:12:21Z</time>
      </trkpt>
      <trkpt lat="40.7658150" lon="-8.2814400">
        <ele>229.8</ele>
        <time>2022-08-14T16:12:22Z</time>
      </trkpt>
      <trkpt lat="40.7657040" lon="-8.2816520">
        <ele>230.0</ele>
        <time>2022-08-14T16:12:29Z</time>
      </trkpt>
      <trkpt lat="40.7656080" lon="-8.2818470">
        <ele>230.4</ele>
        <time>2022-08-14T16:12:36Z</time>
      </trkpt>
      <trkpt lat="40.7655110" lon="-8.2819390">
        <ele>230.8</ele>
        <time>2022-08-14T16:12:42Z</time>
      </trkpt>
      <trkpt lat="40.7654950" lon="-8.2819470">
        <ele>231.0</ele>
        <time>2022-08-14T16:12:43Z</time>
      </trkpt>
      <trkpt lat="40.7654400" lon="-8.2819350">
        <ele>232.0</ele>
        <time>2022-08-14T16:12:49Z</time>
      </trkpt>
      <trkpt lat="40.7654320" lon="-8.2819330">
        <ele>232.4</ele>
        <time>2022-08-14T16:12:50Z</time>
      </trkpt>
      <trkpt lat="40.7654120" lon="-8.2819300">
        <ele>232.8</ele>
        <time>2022-08-14T16:12:54Z</time>
      </trkpt>
      <trkpt lat="40.7652150" lon="-8.2819300">
        <ele>235.4</ele>
        <time>2022-08-14T16:14:16Z</time>
      </trkpt>
      <trkpt lat="40.7652020" lon="-8.2819220">
        <ele>235.6</ele>
        <time>2022-08-14T16:14:17Z</time>
      </trkpt>
      <trkpt lat="40.7651870" lon="-8.2819140">
        <ele>236.0</ele>
        <time>2022-08-14T16:14:18Z</time>
      </trkpt>
      <trkpt lat="40.7651570" lon="-8.2819000">
        <ele>236.6</ele>
        <time>2022-08-14T16:14:20Z</time>
      </trkpt>
      <trkpt lat="40.7651090" lon="-8.2818950">
        <ele>237.6</ele>
        <time>2022-08-14T16:14:23Z</time>
      </trkpt>
      <trkpt lat="40.7650920" lon="-8.2818940">
        <ele>237.8</ele>
        <time>2022-08-14T16:14:24Z</time>
      </trkpt>
      <trkpt lat="40.7650120" lon="-8.2818900">
        <ele>238.8</ele>
        <time>2022-08-14T16:14:29Z</time>
      </trkpt>
      <trkpt lat="40.7649340" lon="-8.2819100">
        <ele>239.6</ele>
        <time>2022-08-14T16:14:33Z</time>
      </trkpt>
      <trkpt lat="40.7649120" lon="-8.2819150">
        <ele>240.0</ele>
        <time>2022-08-14T16:14:34Z</time>
      </trkpt>
      <trkpt lat="40.7648470" lon="-8.2819620">
        <ele>241.2</ele>
        <time>2022-08-14T16:14:38Z</time>
      </trkpt>
      <trkpt lat="40.7648190" lon="-8.2820010">
        <ele>241.8</ele>
        <time>2022-08-14T16:14:41Z</time>
      </trkpt>
      <trkpt lat="40.7647860" lon="-8.2820470">
        <ele>242.4</ele>
        <time>2022-08-14T16:14:44Z</time>
      </trkpt>
      <trkpt lat="40.7647500" lon="-8.2820890">
        <ele>243.4</ele>
        <time>2022-08-14T16:14:48Z</time>
      </trkpt>
      <trkpt lat="40.7647190" lon="-8.2821320">
        <ele>244.8</ele>
        <time>2022-08-14T16:14:51Z</time>
      </trkpt>
      <trkpt lat="40.7646750" lon="-8.2821990">
        <ele>246.0</ele>
        <time>2022-08-14T16:14:55Z</time>
      </trkpt>
      <trkpt lat="40.7646730" lon="-8.2822110">
        <ele>246.4</ele>
        <time>2022-08-14T16:14:56Z</time>
      </trkpt>
      <trkpt lat="40.7646510" lon="-8.2822510">
        <ele>247.0</ele>
        <time>2022-08-14T16:14:58Z</time>
      </trkpt>
      <trkpt lat="40.7646280" lon="-8.2822840">
        <ele>247.8</ele>
        <time>2022-08-14T16:15:00Z</time>
      </trkpt>
      <trkpt lat="40.7646220" lon="-8.2823050">
        <ele>248.4</ele>
        <time>2022-08-14T16:15:01Z</time>
      </trkpt>
      <trkpt lat="40.7646110" lon="-8.2823190">
        <ele>248.6</ele>
        <time>2022-08-14T16:15:02Z</time>
      </trkpt>
      <trkpt lat="40.7646070" lon="-8.2823210">
        <ele>248.8</ele>
        <time>2022-08-14T16:15:03Z</time>
      </trkpt>
      <trkpt lat="40.7645890" lon="-8.2823590">
        <ele>249.4</ele>
        <time>2022-08-14T16:15:05Z</time>
      </trkpt>
      <trkpt lat="40.7645740" lon="-8.2824240">
        <ele>249.8</ele>
        <time>2022-08-14T16:15:08Z</time>
      </trkpt>
      <trkpt lat="40.7645620" lon="-8.2825010">
        <ele>250.4</ele>
        <time>2022-08-14T16:15:11Z</time>
      </trkpt>
      <trkpt lat="40.7645400" lon="-8.2825700">
        <ele>251.0</ele>
        <time>2022-08-14T16:15:14Z</time>
      </trkpt>
      <trkpt lat="40.7645140" lon="-8.2826380">
        <ele>251.2</ele>
        <time>2022-08-14T16:15:17Z</time>
      </trkpt>
      <trkpt lat="40.7644990" lon="-8.2826750">
        <ele>251.6</ele>
        <time>2022-08-14T16:15:19Z</time>
      </trkpt>
      <trkpt lat="40.7644990" lon="-8.2826790">
        <ele>252.0</ele>
        <time>2022-08-14T16:15:21Z</time>
      </trkpt>
      <trkpt lat="40.7644800" lon="-8.2827400">
        <ele>252.8</ele>
        <time>2022-08-14T16:15:24Z</time>
      </trkpt>
      <trkpt lat="40.7644680" lon="-8.2827870">
        <ele>253.2</ele>
        <time>2022-08-14T16:15:27Z</time>
      </trkpt>
      <trkpt lat="40.7644640" lon="-8.2828250">
        <ele>253.8</ele>
        <time>2022-08-14T16:15:29Z</time>
      </trkpt>
      <trkpt lat="40.7644430" lon="-8.2829190">
        <ele>255.0</ele>
        <time>2022-08-14T16:15:35Z</time>
      </trkpt>
      <trkpt lat="40.7644420" lon="-8.2829220">
        <ele>255.2</ele>
        <time>2022-08-14T16:15:36Z</time>
      </trkpt>
      <trkpt lat="40.7644240" lon="-8.2830010">
        <ele>256.2</ele>
        <time>2022-08-14T16:15:41Z</time>
      </trkpt>
      <trkpt lat="40.7643990" lon="-8.2830930">
        <ele>257.4</ele>
        <time>2022-08-14T16:15:46Z</time>
      </trkpt>
      <trkpt lat="40.7643830" lon="-8.2831520">
        <ele>258.4</ele>
        <time>2022-08-14T16:15:50Z</time>
      </trkpt>
      <trkpt lat="40.7643650" lon="-8.2832510">
        <ele>259.2</ele>
        <time>2022-08-14T16:15:54Z</time>
      </trkpt>
      <trkpt lat="40.7643410" lon="-8.2833150">
        <ele>259.4</ele>
        <time>2022-08-14T16:15:57Z</time>
      </trkpt>
      <trkpt lat="40.7642880" lon="-8.2833870">
        <ele>259.8</ele>
        <time>2022-08-14T16:16:00Z</time>
      </trkpt>
      <trkpt lat="40.7642310" lon="-8.2834620">
        <ele>260.6</ele>
        <time>2022-08-14T16:16:03Z</time>
      </trkpt>
      <trkpt lat="40.7641650" lon="-8.2835480">
        <ele>261.4</ele>
        <time>2022-08-14T16:16:08Z</time>
      </trkpt>
      <trkpt lat="40.7641510" lon="-8.2835550">
        <ele>261.4</ele>
        <time>2022-08-14T16:16:09Z</time>
      </trkpt>
      <trkpt lat="40.7641070" lon="-8.2835790">
        <ele>261.6</ele>
        <time>2022-08-14T16:16:10Z</time>
      </trkpt>
      <trkpt lat="40.7640160" lon="-8.2836640">
        <ele>262.6</ele>
        <time>2022-08-14T16:16:16Z</time>
      </trkpt>
      <trkpt lat="40.7639760" lon="-8.2837120">
        <ele>262.6</ele>
        <time>2022-08-14T16:16:18Z</time>
      </trkpt>
      <trkpt lat="40.7638880" lon="-8.2838190">
        <ele>263.0</ele>
        <time>2022-08-14T16:16:22Z</time>
      </trkpt>
      <trkpt lat="40.7638880" lon="-8.2838190">
        <ele>263.2</ele>
        <time>2022-08-14T16:16:23Z</time>
      </trkpt>
      <trkpt lat="40.7638480" lon="-8.2839070">
        <ele>263.8</ele>
        <time>2022-08-14T16:16:27Z</time>
      </trkpt>
      <trkpt lat="40.7637790" lon="-8.2840240">
        <ele>264.2</ele>
        <time>2022-08-14T16:16:31Z</time>
      </trkpt>
      <trkpt lat="40.7637020" lon="-8.2841980">
        <ele>264.8</ele>
        <time>2022-08-14T16:16:36Z</time>
      </trkpt>
      <trkpt lat="40.7636760" lon="-8.2842670">
        <ele>265.2</ele>
        <time>2022-08-14T16:16:38Z</time>
      </trkpt>
      <trkpt lat="40.7636760" lon="-8.2842670">
        <ele>265.4</ele>
        <time>2022-08-14T16:16:39Z</time>
      </trkpt>
      <trkpt lat="40.7636590" lon="-8.2843200">
        <ele>265.8</ele>
        <time>2022-08-14T16:16:41Z</time>
      </trkpt>
      <trkpt lat="40.7636370" lon="-8.2844470">
        <ele>266.4</ele>
        <time>2022-08-14T16:16:45Z</time>
      </trkpt>
      <trkpt lat="40.7636190" lon="-8.2845500">
        <ele>266.8</ele>
        <time>2022-08-14T16:16:48Z</time>
      </trkpt>
      <trkpt lat="40.7636610" lon="-8.2846610">
        <ele>268.0</ele>
        <time>2022-08-14T16:16:53Z</time>
      </trkpt>
      <trkpt lat="40.7636720" lon="-8.2848100">
        <ele>269.2</ele>
        <time>2022-08-14T16:17:00Z</time>
      </trkpt>
      <trkpt lat="40.7636960" lon="-8.2848960">
        <ele>270.6</ele>
        <time>2022-08-14T16:17:05Z</time>
      </trkpt>
      <trkpt lat="40.7637000" lon="-8.2849440">
        <ele>271.2</ele>
        <time>2022-08-14T16:17:08Z</time>
      </trkpt>
      <trkpt lat="40.7636990" lon="-8.2849810">
        <ele>271.8</ele>
        <time>2022-08-14T16:17:09Z</time>
      </trkpt>
      <trkpt lat="40.7637230" lon="-8.2850500">
        <ele>273.0</ele>
        <time>2022-08-14T16:17:14Z</time>
      </trkpt>
      <trkpt lat="40.7637320" lon="-8.2851100">
        <ele>273.4</ele>
        <time>2022-08-14T16:17:16Z</time>
      </trkpt>
      <trkpt lat="40.7637400" lon="-8.2851820">
        <ele>274.0</ele>
        <time>2022-08-14T16:17:19Z</time>
      </trkpt>
      <trkpt lat="40.7637680" lon="-8.2853000">
        <ele>275.6</ele>
        <time>2022-08-14T16:17:24Z</time>
      </trkpt>
      <trkpt lat="40.7637780" lon="-8.2853680">
        <ele>276.6</ele>
        <time>2022-08-14T16:17:27Z</time>
      </trkpt>
      <trkpt lat="40.7637870" lon="-8.2855000">
        <ele>277.2</ele>
        <time>2022-08-14T16:17:33Z</time>
      </trkpt>
      <trkpt lat="40.7637760" lon="-8.2855310">
        <ele>277.6</ele>
        <time>2022-08-14T16:17:35Z</time>
      </trkpt>
      <trkpt lat="40.7637510" lon="-8.2855930">
        <ele>278.8</ele>
        <time>2022-08-14T16:17:40Z</time>
      </trkpt>
      <trkpt lat="40.7637100" lon="-8.2857120">
        <ele>279.8</ele>
        <time>2022-08-14T16:17:48Z</time>
      </trkpt>
      <trkpt lat="40.7637000" lon="-8.2857320">
        <ele>280.2</ele>
        <time>2022-08-14T16:17:49Z</time>
      </trkpt>
      <trkpt lat="40.7637000" lon="-8.2857320">
        <ele>280.4</ele>
        <time>2022-08-14T16:17:50Z</time>
      </trkpt>
      <trkpt lat="40.7636350" lon="-8.2858340">
        <ele>281.0</ele>
        <time>2022-08-14T16:17:53Z</time>
      </trkpt>
      <trkpt lat="40.7636170" lon="-8.2858570">
        <ele>281.4</ele>
        <time>2022-08-14T16:17:55Z</time>
      </trkpt>
      <trkpt lat="40.7634630" lon="-8.2859670">
        <ele>281.8</ele>
        <time>2022-08-14T16:18:01Z</time>
      </trkpt>
      <trkpt lat="40.7634160" lon="-8.2859900">
        <ele>281.6</ele>
        <time>2022-08-14T16:18:03Z</time>
      </trkpt>
      <trkpt lat="40.7632960" lon="-8.2860550">
        <ele>281.6</ele>
        <time>2022-08-14T16:18:07Z</time>
      </trkpt>
      <trkpt lat="40.7632000" lon="-8.2861260">
        <ele>281.8</ele>
        <time>2022-08-14T16:18:12Z</time>
      </trkpt>
      <trkpt lat="40.7630640" lon="-8.2862520">
        <ele>282.4</ele>
        <time>2022-08-14T16:18:17Z</time>
      </trkpt>
      <trkpt lat="40.7629620" lon="-8.2863940">
        <ele>282.8</ele>
        <time>2022-08-14T16:18:22Z</time>
      </trkpt>
      <trkpt lat="40.7628610" lon="-8.2865010">
        <ele>283.2</ele>
        <time>2022-08-14T16:18:26Z</time>
      </trkpt>
      <trkpt lat="40.7626720" lon="-8.2865870">
        <ele>283.6</ele>
        <time>2022-08-14T16:18:34Z</time>
      </trkpt>
      <trkpt lat="40.7625100" lon="-8.2866900">
        <ele>283.8</ele>
        <time>2022-08-14T16:18:41Z</time>
      </trkpt>
      <trkpt lat="40.7624020" lon="-8.2868020">
        <ele>284.8</ele>
        <time>2022-08-14T16:18:48Z</time>
      </trkpt>
      <trkpt lat="40.7623360" lon="-8.2868900">
        <ele>284.8</ele>
        <time>2022-08-14T16:18:51Z</time>
      </trkpt>
      <trkpt lat="40.7622650" lon="-8.2870010">
        <ele>285.2</ele>
        <time>2022-08-14T16:18:57Z</time>
      </trkpt>
      <trkpt lat="40.7620970" lon="-8.2871630">
        <ele>285.4</ele>
        <time>2022-08-14T16:19:05Z</time>
      </trkpt>
      <trkpt lat="40.7619870" lon="-8.2872260">
        <ele>285.6</ele>
        <time>2022-08-14T16:19:09Z</time>
      </trkpt>
      <trkpt lat="40.7619720" lon="-8.2872410">
        <ele>285.6</ele>
        <time>2022-08-14T16:19:11Z</time>
      </trkpt>
      <trkpt lat="40.7618920" lon="-8.2873610">
        <ele>286.0</ele>
        <time>2022-08-14T16:19:17Z</time>
      </trkpt>
      <trkpt lat="40.7618570" lon="-8.2874120">
        <ele>286.2</ele>
        <time>2022-08-14T16:19:19Z</time>
      </trkpt>
      <trkpt lat="40.7617940" lon="-8.2875340">
        <ele>287.4</ele>
        <time>2022-08-14T16:19:26Z</time>
      </trkpt>
      <trkpt lat="40.7617760" lon="-8.2877730">
        <ele>287.8</ele>
        <time>2022-08-14T16:19:33Z</time>
      </trkpt>
      <trkpt lat="40.7617230" lon="-8.2879700">
        <ele>288.2</ele>
        <time>2022-08-14T16:19:40Z</time>
      </trkpt>
      <trkpt lat="40.7616940" lon="-8.2880310">
        <ele>288.4</ele>
        <time>2022-08-14T16:19:42Z</time>
      </trkpt>
      <trkpt lat="40.7616370" lon="-8.2881230">
        <ele>288.4</ele>
        <time>2022-08-14T16:19:46Z</time>
      </trkpt>
      <trkpt lat="40.7616050" lon="-8.2881600">
        <ele>288.4</ele>
        <time>2022-08-14T16:19:48Z</time>
      </trkpt>
      <trkpt lat="40.7614830" lon="-8.2884310">
        <ele>289.0</ele>
        <time>2022-08-14T16:19:58Z</time>
      </trkpt>
      <trkpt lat="40.7614190" lon="-8.2886730">
        <ele>289.4</ele>
        <time>2022-08-14T16:20:06Z</time>
      </trkpt>
      <trkpt lat="40.7614070" lon="-8.2887030">
        <ele>289.4</ele>
        <time>2022-08-14T16:20:07Z</time>
      </trkpt>
      <trkpt lat="40.7613780" lon="-8.2888630">
        <ele>289.8</ele>
        <time>2022-08-14T16:20:14Z</time>
      </trkpt>
      <trkpt lat="40.7613790" lon="-8.2889190">
        <ele>290.4</ele>
        <time>2022-08-14T16:20:18Z</time>
      </trkpt>
      <trkpt lat="40.7613790" lon="-8.2889190">
        <ele>290.4</ele>
        <time>2022-08-14T16:20:20Z</time>
      </trkpt>
      <trkpt lat="40.7614460" lon="-8.2891410">
        <ele>291.2</ele>
        <time>2022-08-14T16:22:04Z</time>
      </trkpt>
      <trkpt lat="40.7614590" lon="-8.2892140">
        <ele>291.4</ele>
        <time>2022-08-14T16:22:07Z</time>
      </trkpt>
      <trkpt lat="40.7614630" lon="-8.2892960">
        <ele>291.6</ele>
        <time>2022-08-14T16:22:10Z</time>
      </trkpt>
      <trkpt lat="40.7614600" lon="-8.2894470">
        <ele>292.0</ele>
        <time>2022-08-14T16:22:15Z</time>
      </trkpt>
      <trkpt lat="40.7613750" lon="-8.2897520">
        <ele>292.4</ele>
        <time>2022-08-14T16:22:24Z</time>
      </trkpt>
      <trkpt lat="40.7612690" lon="-8.2899200">
        <ele>292.0</ele>
        <time>2022-08-14T16:22:28Z</time>
      </trkpt>
      <trkpt lat="40.7612690" lon="-8.2899200">
        <ele>291.8</ele>
        <time>2022-08-14T16:22:29Z</time>
      </trkpt>
      <trkpt lat="40.7610570" lon="-8.2902270">
        <ele>291.4</ele>
        <time>2022-08-14T16:22:35Z</time>
      </trkpt>
      <trkpt lat="40.7608930" lon="-8.2904460">
        <ele>290.8</ele>
        <time>2022-08-14T16:22:42Z</time>
      </trkpt>
      <trkpt lat="40.7608150" lon="-8.2905450">
        <ele>290.6</ele>
        <time>2022-08-14T16:22:46Z</time>
      </trkpt>
      <trkpt lat="40.7607890" lon="-8.2905870">
        <ele>290.6</ele>
        <time>2022-08-14T16:22:48Z</time>
      </trkpt>
      <trkpt lat="40.7607950" lon="-8.2907100">
        <ele>290.4</ele>
        <time>2022-08-14T16:22:53Z</time>
      </trkpt>
      <trkpt lat="40.7608940" lon="-8.2908070">
        <ele>290.4</ele>
        <time>2022-08-14T16:22:57Z</time>
      </trkpt>
      <trkpt lat="40.7609860" lon="-8.2909460">
        <ele>291.2</ele>
        <time>2022-08-14T16:23:03Z</time>
      </trkpt>
      <trkpt lat="40.7609980" lon="-8.2909870">
        <ele>292.0</ele>
        <time>2022-08-14T16:23:05Z</time>
      </trkpt>
      <trkpt lat="40.7610040" lon="-8.2910320">
        <ele>293.0</ele>
        <time>2022-08-14T16:23:09Z</time>
      </trkpt>
      <trkpt lat="40.7610040" lon="-8.2910320">
        <ele>293.2</ele>
        <time>2022-08-14T16:23:10Z</time>
      </trkpt>
      <trkpt lat="40.7610070" lon="-8.2911150">
        <ele>295.2</ele>
        <time>2022-08-14T16:23:22Z</time>
      </trkpt>
      <trkpt lat="40.7610220" lon="-8.2911800">
        <ele>295.8</ele>
        <time>2022-08-14T16:23:25Z</time>
      </trkpt>
      <trkpt lat="40.7610310" lon="-8.2912400">
        <ele>296.4</ele>
        <time>2022-08-14T16:23:28Z</time>
      </trkpt>
      <trkpt lat="40.7610560" lon="-8.2913110">
        <ele>297.2</ele>
        <time>2022-08-14T16:23:32Z</time>
      </trkpt>
      <trkpt lat="40.7610620" lon="-8.2913290">
        <ele>297.4</ele>
        <time>2022-08-14T16:23:33Z</time>
      </trkpt>
      <trkpt lat="40.7610840" lon="-8.2914320">
        <ele>298.4</ele>
        <time>2022-08-14T16:23:39Z</time>
      </trkpt>
      <trkpt lat="40.7610850" lon="-8.2915280">
        <ele>298.8</ele>
        <time>2022-08-14T16:23:42Z</time>
      </trkpt>
      <trkpt lat="40.7610590" lon="-8.2915860">
        <ele>299.0</ele>
        <time>2022-08-14T16:23:46Z</time>
      </trkpt>
      <trkpt lat="40.7610700" lon="-8.2916040">
        <ele>299.2</ele>
        <time>2022-08-14T16:23:48Z</time>
      </trkpt>
      <trkpt lat="40.7610930" lon="-8.2916420">
        <ele>299.2</ele>
        <time>2022-08-14T16:23:52Z</time>
      </trkpt>
      <trkpt lat="40.7610950" lon="-8.2916760">
        <ele>299.2</ele>
        <time>2022-08-14T16:23:55Z</time>
      </trkpt>
      <trkpt lat="40.7611060" lon="-8.2917100">
        <ele>299.2</ele>
        <time>2022-08-14T16:23:56Z</time>
      </trkpt>
      <trkpt lat="40.7611430" lon="-8.2917440">
        <ele>299.2</ele>
        <time>2022-08-14T16:23:59Z</time>
      </trkpt>
      <trkpt lat="40.7612790" lon="-8.2917630">
        <ele>299.2</ele>
        <time>2022-08-14T16:24:06Z</time>
      </trkpt>
      <trkpt lat="40.7614450" lon="-8.2917510">
        <ele>299.0</ele>
        <time>2022-08-14T16:24:12Z</time>
      </trkpt>
      <trkpt lat="40.7616110" lon="-8.2918220">
        <ele>298.8</ele>
        <time>2022-08-14T16:24:19Z</time>
      </trkpt>
      <trkpt lat="40.7616280" lon="-8.2918350">
        <ele>298.6</ele>
        <time>2022-08-14T16:24:23Z</time>
      </trkpt>
      <trkpt lat="40.7608470" lon="-8.2920850">
        <ele>278.6</ele>
        <time>2022-08-14T16:44:03Z</time>
      </trkpt>
      <trkpt lat="40.7607820" lon="-8.2921250">
        <ele>265.6</ele>
        <time>2022-08-14T16:44:06Z</time>
      </trkpt>
      <trkpt lat="40.7607180" lon="-8.2921680">
        <ele>264.8</ele>
        <time>2022-08-14T16:44:09Z</time>
      </trkpt>
      <trkpt lat="40.7606890" lon="-8.2922030">
        <ele>264.6</ele>
        <time>2022-08-14T16:44:10Z</time>
      </trkpt>
      <trkpt lat="40.7606370" lon="-8.2922670">
        <ele>263.6</ele>
        <time>2022-08-14T16:44:13Z</time>
      </trkpt>
      <trkpt lat="40.7604790" lon="-8.2923810">
        <ele>263.4</ele>
        <time>2022-08-14T16:44:19Z</time>
      </trkpt>
      <trkpt lat="40.7603620" lon="-8.2923550">
        <ele>262.2</ele>
        <time>2022-08-14T16:44:23Z</time>
      </trkpt>
      <trkpt lat="40.7602230" lon="-8.2922540">
        <ele>260.8</ele>
        <time>2022-08-14T16:44:28Z</time>
      </trkpt>
      <trkpt lat="40.7602030" lon="-8.2922360">
        <ele>260.8</ele>
        <time>2022-08-14T16:44:29Z</time>
      </trkpt>
      <trkpt lat="40.7600870" lon="-8.2921520">
        <ele>259.8</ele>
        <time>2022-08-14T16:44:33Z</time>
      </trkpt>
      <trkpt lat="40.7600610" lon="-8.2921280">
        <ele>259.4</ele>
        <time>2022-08-14T16:44:34Z</time>
      </trkpt>
      <trkpt lat="40.7600410" lon="-8.2921100">
        <ele>258.8</ele>
        <time>2022-08-14T16:44:35Z</time>
      </trkpt>
      <trkpt lat="40.7600190" lon="-8.2920860">
        <ele>258.6</ele>
        <time>2022-08-14T16:44:36Z</time>
      </trkpt>
      <trkpt lat="40.7599400" lon="-8.2919850">
        <ele>257.8</ele>
        <time>2022-08-14T16:44:41Z</time>
      </trkpt>
      <trkpt lat="40.7599250" lon="-8.2919550">
        <ele>257.4</ele>
        <time>2022-08-14T16:44:43Z</time>
      </trkpt>
      <trkpt lat="40.7598950" lon="-8.2918810">
        <ele>257.0</ele>
        <time>2022-08-14T16:44:46Z</time>
      </trkpt>
      <trkpt lat="40.7598950" lon="-8.2916800">
        <ele>256.4</ele>
        <time>2022-08-14T16:44:50Z</time>
      </trkpt>
      <trkpt lat="40.7598550" lon="-8.2914740">
        <ele>255.0</ele>
        <time>2022-08-14T16:44:54Z</time>
      </trkpt>
      <trkpt lat="40.7598430" lon="-8.2914200">
        <ele>254.4</ele>
        <time>2022-08-14T16:44:55Z</time>
      </trkpt>
      <trkpt lat="40.7598300" lon="-8.2913790">
        <ele>253.8</ele>
        <time>2022-08-14T16:44:56Z</time>
      </trkpt>
      <trkpt lat="40.7598060" lon="-8.2913440">
        <ele>253.4</ele>
        <time>2022-08-14T16:44:57Z</time>
      </trkpt>
      <trkpt lat="40.7597770" lon="-8.2913230">
        <ele>252.8</ele>
        <time>2022-08-14T16:44:58Z</time>
      </trkpt>
      <trkpt lat="40.7597460" lon="-8.2913060">
        <ele>252.6</ele>
        <time>2022-08-14T16:44:59Z</time>
      </trkpt>
      <trkpt lat="40.7597180" lon="-8.2912900">
        <ele>251.6</ele>
        <time>2022-08-14T16:45:00Z</time>
      </trkpt>
      <trkpt lat="40.7596340" lon="-8.2912440">
        <ele>250.6</ele>
        <time>2022-08-14T16:45:03Z</time>
      </trkpt>
      <trkpt lat="40.7595030" lon="-8.2911650">
        <ele>250.0</ele>
        <time>2022-08-14T16:45:06Z</time>
      </trkpt>
      <trkpt lat="40.7594550" lon="-8.2911430">
        <ele>249.4</ele>
        <time>2022-08-14T16:45:07Z</time>
      </trkpt>
      <trkpt lat="40.7593140" lon="-8.2910780">
        <ele>248.2</ele>
        <time>2022-08-14T16:45:10Z</time>
      </trkpt>
      <trkpt lat="40.7592570" lon="-8.2910570">
        <ele>247.4</ele>
        <time>2022-08-14T16:45:12Z</time>
      </trkpt>
      <trkpt lat="40.7592420" lon="-8.2910550">
        <ele>247.2</ele>
        <time>2022-08-14T16:45:13Z</time>
      </trkpt>
      <trkpt lat="40.7592010" lon="-8.2910370">
        <ele>246.6</ele>
        <time>2022-08-14T16:45:15Z</time>
      </trkpt>
      <trkpt lat="40.7591000" lon="-8.2909490">
        <ele>246.0</ele>
        <time>2022-08-14T16:45:19Z</time>
      </trkpt>
      <trkpt lat="40.7589890" lon="-8.2908790">
        <ele>245.4</ele>
        <time>2022-08-14T16:45:24Z</time>
      </trkpt>
      <trkpt lat="40.7589100" lon="-8.2908240">
        <ele>245.4</ele>
        <time>2022-08-14T16:45:28Z</time>
      </trkpt>
      <trkpt lat="40.7588840" lon="-8.2908550">
        <ele>245.8</ele>
        <time>2022-08-14T16:45:32Z</time>
      </trkpt>
      <trkpt lat="40.7588300" lon="-8.2909970">
        <ele>245.2</ele>
        <time>2022-08-14T16:45:40Z</time>
      </trkpt>
      <trkpt lat="40.7587620" lon="-8.2911860">
        <ele>245.0</ele>
        <time>2022-08-14T16:45:45Z</time>
      </trkpt>
      <trkpt lat="40.7587130" lon="-8.2913920">
        <ele>244.4</ele>
        <time>2022-08-14T16:45:49Z</time>
      </trkpt>
      <trkpt lat="40.7586960" lon="-8.2914300">
        <ele>243.4</ele>
        <time>2022-08-14T16:45:50Z</time>
      </trkpt>
      <trkpt lat="40.7586700" lon="-8.2914770">
        <ele>243.2</ele>
        <time>2022-08-14T16:45:51Z</time>
      </trkpt>
      <trkpt lat="40.7585740" lon="-8.2916030">
        <ele>241.6</ele>
        <time>2022-08-14T16:45:54Z</time>
      </trkpt>
      <trkpt lat="40.7585230" lon="-8.2916790">
        <ele>240.8</ele>
        <time>2022-08-14T16:45:56Z</time>
      </trkpt>
      <trkpt lat="40.7585040" lon="-8.2917280">
        <ele>240.4</ele>
        <time>2022-08-14T16:45:57Z</time>
      </trkpt>
      <trkpt lat="40.7584840" lon="-8.2917750">
        <ele>240.0</ele>
        <time>2022-08-14T16:45:58Z</time>
      </trkpt>
      <trkpt lat="40.7584590" lon="-8.2918190">
        <ele>239.2</ele>
        <time>2022-08-14T16:45:59Z</time>
      </trkpt>
      <trkpt lat="40.7584290" lon="-8.2918530">
        <ele>238.8</ele>
        <time>2022-08-14T16:46:00Z</time>
      </trkpt>
      <trkpt lat="40.7583580" lon="-8.2918990">
        <ele>238.2</ele>
        <time>2022-08-14T16:46:02Z</time>
      </trkpt>
      <trkpt lat="40.7582690" lon="-8.2919590">
        <ele>237.6</ele>
        <time>2022-08-14T16:46:05Z</time>
      </trkpt>
      <trkpt lat="40.7582150" lon="-8.2920660">
        <ele>237.2</ele>
        <time>2022-08-14T16:46:11Z</time>
      </trkpt>
      <trkpt lat="40.7581630" lon="-8.2921970">
        <ele>238.2</ele>
        <time>2022-08-14T16:46:18Z</time>
      </trkpt>
      <trkpt lat="40.7581230" lon="-8.2923250">
        <ele>238.6</ele>
        <time>2022-08-14T16:46:25Z</time>
      </trkpt>
      <trkpt lat="40.7580840" lon="-8.2924120">
        <ele>239.2</ele>
        <time>2022-08-14T16:46:30Z</time>
      </trkpt>
      <trkpt lat="40.7580720" lon="-8.2924700">
        <ele>239.4</ele>
        <time>2022-08-14T16:46:33Z</time>
      </trkpt>
      <trkpt lat="40.7580530" lon="-8.2925890">
        <ele>240.4</ele>
        <time>2022-08-14T16:46:39Z</time>
      </trkpt>
      <trkpt lat="40.7580440" lon="-8.2926330">
        <ele>241.0</ele>
        <time>2022-08-14T16:46:42Z</time>
      </trkpt>
      <trkpt lat="40.7580410" lon="-8.2926630">
        <ele>241.4</ele>
        <time>2022-08-14T16:46:44Z</time>
      </trkpt>
      <trkpt lat="40.7580320" lon="-8.2927070">
        <ele>241.6</ele>
        <time>2022-08-14T16:46:50Z</time>
      </trkpt>
      <trkpt lat="40.7580300" lon="-8.2926820">
        <ele>241.6</ele>
        <time>2022-08-14T16:46:52Z</time>
      </trkpt>
      <trkpt lat="40.7580460" lon="-8.2926120">
        <ele>241.6</ele>
        <time>2022-08-14T16:46:55Z</time>
      </trkpt>
      <trkpt lat="40.7581060" lon="-8.2924020">
        <ele>241.6</ele>
        <time>2022-08-14T16:47:01Z</time>
      </trkpt>
      <trkpt lat="40.7581570" lon="-8.2922510">
        <ele>241.4</ele>
        <time>2022-08-14T16:47:04Z</time>
      </trkpt>
      <trkpt lat="40.7582080" lon="-8.2921180">
        <ele>241.0</ele>
        <time>2022-08-14T16:47:07Z</time>
      </trkpt>
      <trkpt lat="40.7582350" lon="-8.2920460">
        <ele>240.2</ele>
        <time>2022-08-14T16:47:09Z</time>
      </trkpt>
      <trkpt lat="40.7582680" lon="-8.2919790">
        <ele>239.8</ele>
        <time>2022-08-14T16:47:11Z</time>
      </trkpt>
      <trkpt lat="40.7582810" lon="-8.2919630">
        <ele>239.4</ele>
        <time>2022-08-14T16:47:12Z</time>
      </trkpt>
      <trkpt lat="40.7582860" lon="-8.2919400">
        <ele>238.8</ele>
        <time>2022-08-14T16:47:14Z</time>
      </trkpt>
      <trkpt lat="40.7582710" lon="-8.2919360">
        <ele>238.4</ele>
        <time>2022-08-14T16:47:15Z</time>
      </trkpt>
      <trkpt lat="40.7581990" lon="-8.2920460">
        <ele>237.6</ele>
        <time>2022-08-14T16:47:20Z</time>
      </trkpt>
      <trkpt lat="40.7581470" lon="-8.2920970">
        <ele>236.2</ele>
        <time>2022-08-14T16:47:23Z</time>
      </trkpt>
      <trkpt lat="40.7580920" lon="-8.2921440">
        <ele>235.0</ele>
        <time>2022-08-14T16:47:26Z</time>
      </trkpt>
      <trkpt lat="40.7580010" lon="-8.2921820">
        <ele>234.0</ele>
        <time>2022-08-14T16:47:29Z</time>
      </trkpt>
      <trkpt lat="40.7579460" lon="-8.2922240">
        <ele>232.4</ele>
        <time>2022-08-14T16:47:31Z</time>
      </trkpt>
      <trkpt lat="40.7578750" lon="-8.2922850">
        <ele>231.2</ele>
        <time>2022-08-14T16:47:34Z</time>
      </trkpt>
      <trkpt lat="40.7578380" lon="-8.2923220">
        <ele>229.8</ele>
        <time>2022-08-14T16:47:36Z</time>
      </trkpt>
      <trkpt lat="40.7578250" lon="-8.2923370">
        <ele>229.4</ele>
        <time>2022-08-14T16:47:37Z</time>
      </trkpt>
      <trkpt lat="40.7578120" lon="-8.2923590">
        <ele>228.6</ele>
        <time>2022-08-14T16:47:38Z</time>
      </trkpt>
      <trkpt lat="40.7577360" lon="-8.2924590">
        <ele>227.4</ele>
        <time>2022-08-14T16:47:42Z</time>
      </trkpt>
      <trkpt lat="40.7577040" lon="-8.2924890">
        <ele>226.8</ele>
        <time>2022-08-14T16:47:43Z</time>
      </trkpt>
      <trkpt lat="40.7576520" lon="-8.2925330">
        <ele>225.8</ele>
        <time>2022-08-14T16:47:45Z</time>
      </trkpt>
      <trkpt lat="40.7576090" lon="-8.2925690">
        <ele>224.8</ele>
        <time>2022-08-14T16:47:47Z</time>
      </trkpt>
      <trkpt lat="40.7575700" lon="-8.2926060">
        <ele>224.0</ele>
        <time>2022-08-14T16:47:49Z</time>
      </trkpt>
      <trkpt lat="40.7575590" lon="-8.2926200">
        <ele>223.2</ele>
        <time>2022-08-14T16:47:50Z</time>
      </trkpt>
      <trkpt lat="40.7575160" lon="-8.2925990">
        <ele>222.0</ele>
        <time>2022-08-14T16:47:53Z</time>
      </trkpt>
      <trkpt lat="40.7575070" lon="-8.2925410">
        <ele>221.4</ele>
        <time>2022-08-14T16:47:55Z</time>
      </trkpt>
      <trkpt lat="40.7575130" lon="-8.2925190">
        <ele>221.0</ele>
        <time>2022-08-14T16:47:56Z</time>
      </trkpt>
      <trkpt lat="40.7575140" lon="-8.2925020">
        <ele>220.4</ele>
        <time>2022-08-14T16:47:57Z</time>
      </trkpt>
      <trkpt lat="40.7575170" lon="-8.2924440">
        <ele>219.6</ele>
        <time>2022-08-14T16:47:59Z</time>
      </trkpt>
      <trkpt lat="40.7575250" lon="-8.2923910">
        <ele>218.8</ele>
        <time>2022-08-14T16:48:01Z</time>
      </trkpt>
      <trkpt lat="40.7575240" lon="-8.2923650">
        <ele>218.6</ele>
        <time>2022-08-14T16:48:02Z</time>
      </trkpt>
      <trkpt lat="40.7575260" lon="-8.2923440">
        <ele>218.2</ele>
        <time>2022-08-14T16:48:03Z</time>
      </trkpt>
      <trkpt lat="40.7575310" lon="-8.2923010">
        <ele>217.8</ele>
        <time>2022-08-14T16:48:04Z</time>
      </trkpt>
      <trkpt lat="40.7575330" lon="-8.2922610">
        <ele>217.4</ele>
        <time>2022-08-14T16:48:05Z</time>
      </trkpt>
      <trkpt lat="40.7575280" lon="-8.2921630">
        <ele>216.4</ele>
        <time>2022-08-14T16:48:08Z</time>
      </trkpt>
      <trkpt lat="40.7575180" lon="-8.2920830">
        <ele>215.4</ele>
        <time>2022-08-14T16:48:11Z</time>
      </trkpt>
      <trkpt lat="40.7575160" lon="-8.2920600">
        <ele>215.0</ele>
        <time>2022-08-14T16:48:12Z</time>
      </trkpt>
      <trkpt lat="40.7574820" lon="-8.2920030">
        <ele>214.2</ele>
        <time>2022-08-14T16:48:15Z</time>
      </trkpt>
      <trkpt lat="40.7574530" lon="-8.2919870">
        <ele>214.2</ele>
        <time>2022-08-14T16:48:16Z</time>
      </trkpt>
      <trkpt lat="40.7574290" lon="-8.2919650">
        <ele>214.0</ele>
        <time>2022-08-14T16:48:17Z</time>
      </trkpt>
      <trkpt lat="40.7573650" lon="-8.2918480">
        <ele>213.2</ele>
        <time>2022-08-14T16:48:21Z</time>
      </trkpt>
      <trkpt lat="40.7573440" lon="-8.2918290">
        <ele>212.8</ele>
        <time>2022-08-14T16:48:22Z</time>
      </trkpt>
      <trkpt lat="40.7573200" lon="-8.2918230">
        <ele>212.8</ele>
        <time>2022-08-14T16:48:23Z</time>
      </trkpt>
      <trkpt lat="40.7572750" lon="-8.2918260">
        <ele>212.4</ele>
        <time>2022-08-14T16:48:25Z</time>
      </trkpt>
      <trkpt lat="40.7572090" lon="-8.2918230">
        <ele>211.8</ele>
        <time>2022-08-14T16:48:28Z</time>
      </trkpt>
      <trkpt lat="40.7571310" lon="-8.2917970">
        <ele>211.2</ele>
        <time>2022-08-14T16:48:33Z</time>
      </trkpt>
      <trkpt lat="40.7570180" lon="-8.2917840">
        <ele>210.8</ele>
        <time>2022-08-14T16:48:38Z</time>
      </trkpt>
      <trkpt lat="40.7569940" lon="-8.2917880">
        <ele>210.8</ele>
        <time>2022-08-14T16:48:39Z</time>
      </trkpt>
      <trkpt lat="40.7568520" lon="-8.2918340">
        <ele>210.2</ele>
        <time>2022-08-14T16:48:44Z</time>
      </trkpt>
      <trkpt lat="40.7568080" lon="-8.2918280">
        <ele>209.6</ele>
        <time>2022-08-14T16:48:46Z</time>
      </trkpt>
      <trkpt lat="40.7567210" lon="-8.2918280">
        <ele>208.8</ele>
        <time>2022-08-14T16:48:49Z</time>
      </trkpt>
      <trkpt lat="40.7566950" lon="-8.2918290">
        <ele>208.4</ele>
        <time>2022-08-14T16:48:50Z</time>
      </trkpt>
      <trkpt lat="40.7566240" lon="-8.2918160">
        <ele>207.2</ele>
        <time>2022-08-14T16:48:52Z</time>
      </trkpt>
      <trkpt lat="40.7565510" lon="-8.2918000">
        <ele>206.0</ele>
        <time>2022-08-14T16:48:54Z</time>
      </trkpt>
      <trkpt lat="40.7565270" lon="-8.2917850">
        <ele>205.6</ele>
        <time>2022-08-14T16:48:55Z</time>
      </trkpt>
      <trkpt lat="40.7564900" lon="-8.2917410">
        <ele>204.0</ele>
        <time>2022-08-14T16:48:57Z</time>
      </trkpt>
      <trkpt lat="40.7564670" lon="-8.2916800">
        <ele>202.8</ele>
        <time>2022-08-14T16:48:59Z</time>
      </trkpt>
      <trkpt lat="40.7564520" lon="-8.2915950">
        <ele>201.2</ele>
        <time>2022-08-14T16:49:02Z</time>
      </trkpt>
      <trkpt lat="40.7564490" lon="-8.2915460">
        <ele>200.4</ele>
        <time>2022-08-14T16:49:04Z</time>
      </trkpt>
      <trkpt lat="40.7564480" lon="-8.2915230">
        <ele>200.2</ele>
        <time>2022-08-14T16:49:05Z</time>
      </trkpt>
      <trkpt lat="40.7564380" lon="-8.2914310">
        <ele>198.6</ele>
        <time>2022-08-14T16:49:09Z</time>
      </trkpt>
      <trkpt lat="40.7564350" lon="-8.2913900">
        <ele>197.6</ele>
        <time>2022-08-14T16:49:11Z</time>
      </trkpt>
      <trkpt lat="40.7564340" lon="-8.2912800">
        <ele>196.4</ele>
        <time>2022-08-14T16:49:14Z</time>
      </trkpt>
      <trkpt lat="40.7564330" lon="-8.2911720">
        <ele>195.4</ele>
        <time>2022-08-14T16:49:17Z</time>
      </trkpt>
      <trkpt lat="40.7564430" lon="-8.2910940">
        <ele>194.2</ele>
        <time>2022-08-14T16:49:19Z</time>
      </trkpt>
      <trkpt lat="40.7564570" lon="-8.2910020">
        <ele>192.8</ele>
        <time>2022-08-14T16:49:22Z</time>
      </trkpt>
      <trkpt lat="40.7564640" lon="-8.2909310">
        <ele>192.2</ele>
        <time>2022-08-14T16:49:24Z</time>
      </trkpt>
      <trkpt lat="40.7564580" lon="-8.2909000">
        <ele>191.4</ele>
        <time>2022-08-14T16:49:25Z</time>
      </trkpt>
      <trkpt lat="40.7564470" lon="-8.2908080">
        <ele>190.2</ele>
        <time>2022-08-14T16:49:28Z</time>
      </trkpt>
      <trkpt lat="40.7564400" lon="-8.2907470">
        <ele>189.2</ele>
        <time>2022-08-14T16:49:30Z</time>
      </trkpt>
      <trkpt lat="40.7564260" lon="-8.2906510">
        <ele>188.0</ele>
        <time>2022-08-14T16:49:33Z</time>
      </trkpt>
      <trkpt lat="40.7564140" lon="-8.2905840">
        <ele>186.8</ele>
        <time>2022-08-14T16:49:35Z</time>
      </trkpt>
      <trkpt lat="40.7564150" lon="-8.2905480">
        <ele>186.8</ele>
        <time>2022-08-14T16:49:36Z</time>
      </trkpt>
      <trkpt lat="40.7564140" lon="-8.2904760">
        <ele>185.8</ele>
        <time>2022-08-14T16:49:38Z</time>
      </trkpt>
      <trkpt lat="40.7564180" lon="-8.2903900">
        <ele>184.6</ele>
        <time>2022-08-14T16:49:40Z</time>
      </trkpt>
      <trkpt lat="40.7564310" lon="-8.2902790">
        <ele>183.8</ele>
        <time>2022-08-14T16:49:42Z</time>
      </trkpt>
      <trkpt lat="40.7564360" lon="-8.2902520">
        <ele>183.6</ele>
        <time>2022-08-14T16:49:43Z</time>
      </trkpt>
      <trkpt lat="40.7564520" lon="-8.2901280">
        <ele>182.6</ele>
        <time>2022-08-14T16:49:47Z</time>
      </trkpt>
      <trkpt lat="40.7564520" lon="-8.2901090">
        <ele>182.6</ele>
        <time>2022-08-14T16:49:48Z</time>
      </trkpt>
      <trkpt lat="40.7564500" lon="-8.2900920">
        <ele>182.6</ele>
        <time>2022-08-14T16:49:49Z</time>
      </trkpt>
      <trkpt lat="40.7564220" lon="-8.2900480">
        <ele>182.4</ele>
        <time>2022-08-14T16:49:52Z</time>
      </trkpt>
      <trkpt lat="40.7562900" lon="-8.2900530">
        <ele>182.4</ele>
        <time>2022-08-14T16:49:58Z</time>
      </trkpt>
      <trkpt lat="40.7561630" lon="-8.2901930">
        <ele>182.0</ele>
        <time>2022-08-14T16:50:03Z</time>
      </trkpt>
      <trkpt lat="40.7560970" lon="-8.2903510">
        <ele>181.8</ele>
        <time>2022-08-14T16:50:06Z</time>
      </trkpt>
      <trkpt lat="40.7560690" lon="-8.2904700">
        <ele>181.6</ele>
        <time>2022-08-14T16:50:08Z</time>
      </trkpt>
      <trkpt lat="40.7560700" lon="-8.2905400">
        <ele>181.4</ele>
        <time>2022-08-14T16:50:09Z</time>
      </trkpt>
      <trkpt lat="40.7560700" lon="-8.2908730">
        <ele>181.2</ele>
        <time>2022-08-14T16:50:13Z</time>
      </trkpt>
      <trkpt lat="40.7560660" lon="-8.2909550">
        <ele>181.0</ele>
        <time>2022-08-14T16:50:14Z</time>
      </trkpt>
      <trkpt lat="40.7560420" lon="-8.2911170">
        <ele>180.2</ele>
        <time>2022-08-14T16:50:16Z</time>
      </trkpt>
      <trkpt lat="40.7560120" lon="-8.2911910">
        <ele>179.4</ele>
        <time>2022-08-14T16:50:17Z</time>
      </trkpt>
      <trkpt lat="40.7559720" lon="-8.2912600">
        <ele>179.0</ele>
        <time>2022-08-14T16:50:18Z</time>
      </trkpt>
      <trkpt lat="40.7559210" lon="-8.2913230">
        <ele>177.6</ele>
        <time>2022-08-14T16:50:19Z</time>
      </trkpt>
      <trkpt lat="40.7558660" lon="-8.2913690">
        <ele>177.0</ele>
        <time>2022-08-14T16:50:20Z</time>
      </trkpt>
      <trkpt lat="40.7558110" lon="-8.2913850">
        <ele>175.6</ele>
        <time>2022-08-14T16:50:21Z</time>
      </trkpt>
      <trkpt lat="40.7556870" lon="-8.2913740">
        <ele>174.2</ele>
        <time>2022-08-14T16:50:23Z</time>
      </trkpt>
      <trkpt lat="40.7555620" lon="-8.2913230">
        <ele>173.2</ele>
        <time>2022-08-14T16:50:25Z</time>
      </trkpt>
      <trkpt lat="40.7554520" lon="-8.2912700">
        <ele>171.8</ele>
        <time>2022-08-14T16:50:27Z</time>
      </trkpt>
      <trkpt lat="40.7553760" lon="-8.2912430">
        <ele>170.6</ele>
        <time>2022-08-14T16:50:28Z</time>
      </trkpt>
      <trkpt lat="40.7553120" lon="-8.2912290">
        <ele>170.2</ele>
        <time>2022-08-14T16:50:29Z</time>
      </trkpt>
      <trkpt lat="40.7552590" lon="-8.2912230">
        <ele>169.2</ele>
        <time>2022-08-14T16:50:30Z</time>
      </trkpt>
      <trkpt lat="40.7551980" lon="-8.2912420">
        <ele>168.0</ele>
        <time>2022-08-14T16:50:31Z</time>
      </trkpt>
      <trkpt lat="40.7550970" lon="-8.2913560">
        <ele>166.4</ele>
        <time>2022-08-14T16:50:33Z</time>
      </trkpt>
      <trkpt lat="40.7550700" lon="-8.2914280">
        <ele>166.0</ele>
        <time>2022-08-14T16:50:34Z</time>
      </trkpt>
      <trkpt lat="40.7550510" lon="-8.2915060">
        <ele>164.4</ele>
        <time>2022-08-14T16:50:35Z</time>
      </trkpt>
      <trkpt lat="40.7550360" lon="-8.2915730">
        <ele>163.2</ele>
        <time>2022-08-14T16:50:36Z</time>
      </trkpt>
      <trkpt lat="40.7550000" lon="-8.2917410">
        <ele>161.0</ele>
        <time>2022-08-14T16:50:38Z</time>
      </trkpt>
      <trkpt lat="40.7549550" lon="-8.2919500">
        <ele>159.2</ele>
        <time>2022-08-14T16:50:40Z</time>
      </trkpt>
      <trkpt lat="40.7548710" lon="-8.2922350">
        <ele>158.2</ele>
        <time>2022-08-14T16:50:43Z</time>
      </trkpt>
      <trkpt lat="40.7547750" lon="-8.2924860">
        <ele>156.4</ele>
        <time>2022-08-14T16:50:45Z</time>
      </trkpt>
      <trkpt lat="40.7547160" lon="-8.2926060">
        <ele>156.2</ele>
        <time>2022-08-14T16:50:46Z</time>
      </trkpt>
      <trkpt lat="40.7546670" lon="-8.2926950">
        <ele>155.2</ele>
        <time>2022-08-14T16:50:47Z</time>
      </trkpt>
      <trkpt lat="40.7545600" lon="-8.2929030">
        <ele>153.4</ele>
        <time>2022-08-14T16:50:49Z</time>
      </trkpt>
      <trkpt lat="40.7545350" lon="-8.2929800">
        <ele>153.0</ele>
        <time>2022-08-14T16:50:50Z</time>
      </trkpt>
      <trkpt lat="40.7545190" lon="-8.2930970">
        <ele>150.6</ele>
        <time>2022-08-14T16:50:52Z</time>
      </trkpt>
      <trkpt lat="40.7545280" lon="-8.2931720">
        <ele>150.0</ele>
        <time>2022-08-14T16:50:53Z</time>
      </trkpt>
      <trkpt lat="40.7545190" lon="-8.2932580">
        <ele>148.6</ele>
        <time>2022-08-14T16:50:54Z</time>
      </trkpt>
      <trkpt lat="40.7544130" lon="-8.2934510">
        <ele>146.6</ele>
        <time>2022-08-14T16:50:56Z</time>
      </trkpt>
      <trkpt lat="40.7543660" lon="-8.2935240">
        <ele>145.4</ele>
        <time>2022-08-14T16:50:57Z</time>
      </trkpt>
      <trkpt lat="40.7542550" lon="-8.2937080">
        <ele>143.6</ele>
        <time>2022-08-14T16:50:59Z</time>
      </trkpt>
      <trkpt lat="40.7541730" lon="-8.2939080">
        <ele>142.4</ele>
        <time>2022-08-14T16:51:01Z</time>
      </trkpt>
      <trkpt lat="40.7541400" lon="-8.2940810">
        <ele>140.8</ele>
        <time>2022-08-14T16:51:03Z</time>
      </trkpt>
      <trkpt lat="40.7541200" lon="-8.2943090">
        <ele>139.8</ele>
        <time>2022-08-14T16:51:05Z</time>
      </trkpt>
      <trkpt lat="40.7541110" lon="-8.2945940">
        <ele>138.4</ele>
        <time>2022-08-14T16:51:08Z</time>
      </trkpt>
      <trkpt lat="40.7540770" lon="-8.2948900">
        <ele>137.2</ele>
        <time>2022-08-14T16:51:11Z</time>
      </trkpt>
      <trkpt lat="40.7540640" lon="-8.2949590">
        <ele>137.0</ele>
        <time>2022-08-14T16:51:12Z</time>
      </trkpt>
      <trkpt lat="40.7540700" lon="-8.2951850">
        <ele>136.2</ele>
        <time>2022-08-14T16:51:15Z</time>
      </trkpt>
      <trkpt lat="40.7540550" lon="-8.2952590">
        <ele>135.8</ele>
        <time>2022-08-14T16:51:16Z</time>
      </trkpt>
      <trkpt lat="40.7540390" lon="-8.2953290">
        <ele>135.2</ele>
        <time>2022-08-14T16:51:17Z</time>
      </trkpt>
      <trkpt lat="40.7540150" lon="-8.2953830">
        <ele>134.8</ele>
        <time>2022-08-14T16:51:18Z</time>
      </trkpt>
      <trkpt lat="40.7539680" lon="-8.2954660">
        <ele>133.6</ele>
        <time>2022-08-14T16:51:20Z</time>
      </trkpt>
      <trkpt lat="40.7539280" lon="-8.2955270">
        <ele>133.0</ele>
        <time>2022-08-14T16:51:21Z</time>
      </trkpt>
      <trkpt lat="40.7538960" lon="-8.2955610">
        <ele>132.2</ele>
        <time>2022-08-14T16:51:22Z</time>
      </trkpt>
      <trkpt lat="40.7538630" lon="-8.2956070">
        <ele>130.6</ele>
        <time>2022-08-14T16:51:24Z</time>
      </trkpt>
      <trkpt lat="40.7538540" lon="-8.2956260">
        <ele>129.2</ele>
        <time>2022-08-14T16:51:25Z</time>
      </trkpt>
      <trkpt lat="40.7538460" lon="-8.2956470">
        <ele>128.6</ele>
        <time>2022-08-14T16:51:26Z</time>
      </trkpt>
      <trkpt lat="40.7538440" lon="-8.2956700">
        <ele>127.6</ele>
        <time>2022-08-14T16:51:27Z</time>
      </trkpt>
      <trkpt lat="40.7538460" lon="-8.2957070">
        <ele>126.6</ele>
        <time>2022-08-14T16:51:29Z</time>
      </trkpt>
      <trkpt lat="40.7538390" lon="-8.2957410">
        <ele>126.4</ele>
        <time>2022-08-14T16:51:30Z</time>
      </trkpt>
      <trkpt lat="40.7538110" lon="-8.2959530">
        <ele>125.0</ele>
        <time>2022-08-14T16:51:34Z</time>
      </trkpt>
      <trkpt lat="40.7538890" lon="-8.2961810">
        <ele>123.4</ele>
        <time>2022-08-14T16:51:38Z</time>
      </trkpt>
      <trkpt lat="40.7539080" lon="-8.2962400">
        <ele>123.0</ele>
        <time>2022-08-14T16:51:39Z</time>
      </trkpt>
      <trkpt lat="40.7539330" lon="-8.2963630">
        <ele>122.6</ele>
        <time>2022-08-14T16:51:41Z</time>
      </trkpt>
      <trkpt lat="40.7539370" lon="-8.2964980">
        <ele>122.4</ele>
        <time>2022-08-14T16:51:43Z</time>
      </trkpt>
      <trkpt lat="40.7539350" lon="-8.2965630">
        <ele>122.2</ele>
        <time>2022-08-14T16:51:44Z</time>
      </trkpt>
      <trkpt lat="40.7539200" lon="-8.2968550">
        <ele>121.6</ele>
        <time>2022-08-14T16:51:48Z</time>
      </trkpt>
      <trkpt lat="40.7539360" lon="-8.2969360">
        <ele>121.2</ele>
        <time>2022-08-14T16:51:49Z</time>
      </trkpt>
      <trkpt lat="40.7539630" lon="-8.2970110">
        <ele>120.6</ele>
        <time>2022-08-14T16:51:50Z</time>
      </trkpt>
      <trkpt lat="40.7540560" lon="-8.2971240">
        <ele>119.4</ele>
        <time>2022-08-14T16:51:52Z</time>
      </trkpt>
      <trkpt lat="40.7541700" lon="-8.2971810">
        <ele>118.2</ele>
        <time>2022-08-14T16:51:55Z</time>
      </trkpt>
      <trkpt lat="40.7542390" lon="-8.2972130">
        <ele>117.6</ele>
        <time>2022-08-14T16:51:59Z</time>
      </trkpt>
      <trkpt lat="40.7542690" lon="-8.2972240">
        <ele>117.4</ele>
        <time>2022-08-14T16:52:01Z</time>
      </trkpt>
      <trkpt lat="40.7542770" lon="-8.2972310">
        <ele>117.2</ele>
        <time>2022-08-14T16:52:02Z</time>
      </trkpt>
      <trkpt lat="40.7543070" lon="-8.2972380">
        <ele>117.2</ele>
        <time>2022-08-14T16:52:04Z</time>
      </trkpt>
      <trkpt lat="40.7543230" lon="-8.2972330">
        <ele>117.2</ele>
        <time>2022-08-14T16:52:05Z</time>
      </trkpt>
      <trkpt lat="40.7543920" lon="-8.2972380">
        <ele>117.0</ele>
        <time>2022-08-14T16:52:11Z</time>
      </trkpt>
      <trkpt lat="40.7543950" lon="-8.2972450">
        <ele>116.8</ele>
        <time>2022-08-14T16:52:13Z</time>
      </trkpt>
      <trkpt lat="40.7543950" lon="-8.2972450">
        <ele>116.8</ele>
        <time>2022-08-14T16:52:14Z</time>
      </trkpt>
      <trkpt lat="40.7544340" lon="-8.2972560">
        <ele>116.6</ele>
        <time>2022-08-14T16:52:55Z</time>
      </trkpt>
      <trkpt lat="40.7544770" lon="-8.2972840">
        <ele>116.6</ele>
        <time>2022-08-14T16:52:58Z</time>
      </trkpt>
      <trkpt lat="40.7545380" lon="-8.2973230">
        <ele>116.6</ele>
        <time>2022-08-14T16:53:02Z</time>
      </trkpt>
      <trkpt lat="40.7545640" lon="-8.2973230">
        <ele>116.6</ele>
        <time>2022-08-14T16:53:04Z</time>
      </trkpt>
      <trkpt lat="40.7546310" lon="-8.2973790">
        <ele>117.0</ele>
        <time>2022-08-14T16:53:10Z</time>
      </trkpt>
      <trkpt lat="40.7546680" lon="-8.2973850">
        <ele>117.2</ele>
        <time>2022-08-14T16:53:13Z</time>
      </trkpt>
      <trkpt lat="40.7547100" lon="-8.2973900">
        <ele>117.4</ele>
        <time>2022-08-14T16:53:16Z</time>
      </trkpt>
      <trkpt lat="40.7547950" lon="-8.2973930">
        <ele>117.6</ele>
        <time>2022-08-14T16:53:22Z</time>
      </trkpt>
      <trkpt lat="40.7548120" lon="-8.2973960">
        <ele>117.6</ele>
        <time>2022-08-14T16:53:23Z</time>
      </trkpt>
      <trkpt lat="40.7548270" lon="-8.2973940">
        <ele>117.6</ele>
        <time>2022-08-14T16:53:24Z</time>
      </trkpt>
      <trkpt lat="40.7549220" lon="-8.2974110">
        <ele>117.6</ele>
        <time>2022-08-14T16:53:28Z</time>
      </trkpt>
      <trkpt lat="40.7549730" lon="-8.2974180">
        <ele>117.4</ele>
        <time>2022-08-14T16:53:30Z</time>
      </trkpt>
      <trkpt lat="40.7550980" lon="-8.2974690">
        <ele>117.4</ele>
        <time>2022-08-14T16:53:35Z</time>
      </trkpt>
      <trkpt lat="40.7552220" lon="-8.2975850">
        <ele>117.8</ele>
        <time>2022-08-14T16:53:40Z</time>
      </trkpt>
      <trkpt lat="40.7552870" lon="-8.2976530">
        <ele>118.2</ele>
        <time>2022-08-14T16:53:43Z</time>
      </trkpt>
      <trkpt lat="40.7553240" lon="-8.2976940">
        <ele>118.4</ele>
        <time>2022-08-14T16:53:45Z</time>
      </trkpt>
      <trkpt lat="40.7554530" lon="-8.2977820">
        <ele>119.0</ele>
        <time>2022-08-14T16:53:51Z</time>
      </trkpt>
      <trkpt lat="40.7554760" lon="-8.2977950">
        <ele>119.2</ele>
        <time>2022-08-14T16:53:52Z</time>
      </trkpt>
      <trkpt lat="40.7555870" lon="-8.2978500">
        <ele>119.6</ele>
        <time>2022-08-14T16:53:56Z</time>
      </trkpt>
      <trkpt lat="40.7556790" lon="-8.2978840">
        <ele>120.0</ele>
        <time>2022-08-14T16:54:00Z</time>
      </trkpt>
      <trkpt lat="40.7556910" lon="-8.2978840">
        <ele>119.8</ele>
        <time>2022-08-14T16:54:01Z</time>
      </trkpt>
      <trkpt lat="40.7558000" lon="-8.2978850">
        <ele>120.0</ele>
        <time>2022-08-14T16:54:05Z</time>
      </trkpt>
      <trkpt lat="40.7558690" lon="-8.2978750">
        <ele>120.0</ele>
        <time>2022-08-14T16:54:08Z</time>
      </trkpt>
      <trkpt lat="40.7558980" lon="-8.2978660">
        <ele>119.8</ele>
        <time>2022-08-14T16:54:09Z</time>
      </trkpt>
      <trkpt lat="40.7560660" lon="-8.2977990">
        <ele>120.0</ele>
        <time>2022-08-14T16:54:16Z</time>
      </trkpt>
      <trkpt lat="40.7561590" lon="-8.2978330">
        <ele>120.4</ele>
        <time>2022-08-14T16:54:20Z</time>
      </trkpt>
      <trkpt lat="40.7561880" lon="-8.2978420">
        <ele>120.4</ele>
        <time>2022-08-14T16:54:21Z</time>
      </trkpt>
      <trkpt lat="40.7562170" lon="-8.2978370">
        <ele>120.6</ele>
        <time>2022-08-14T16:54:23Z</time>
      </trkpt>
      <trkpt lat="40.7562460" lon="-8.2978480">
        <ele>120.8</ele>
        <time>2022-08-14T16:54:25Z</time>
      </trkpt>
      <trkpt lat="40.7562710" lon="-8.2978440">
        <ele>121.2</ele>
        <time>2022-08-14T16:54:27Z</time>
      </trkpt>
      <trkpt lat="40.7563110" lon="-8.2978550">
        <ele>121.6</ele>
        <time>2022-08-14T16:54:30Z</time>
      </trkpt>
      <trkpt lat="40.7563260" lon="-8.2978570">
        <ele>121.8</ele>
        <time>2022-08-14T16:54:31Z</time>
      </trkpt>
      <trkpt lat="40.7563440" lon="-8.2978530">
        <ele>122.4</ele>
        <time>2022-08-14T16:54:32Z</time>
      </trkpt>
      <trkpt lat="40.7563600" lon="-8.2978530">
        <ele>122.4</ele>
        <time>2022-08-14T16:54:33Z</time>
      </trkpt>
      <trkpt lat="40.7564490" lon="-8.2978840">
        <ele>123.4</ele>
        <time>2022-08-14T16:54:38Z</time>
      </trkpt>
      <trkpt lat="40.7565150" lon="-8.2979110">
        <ele>124.4</ele>
        <time>2022-08-14T16:54:42Z</time>
      </trkpt>
      <trkpt lat="40.7565540" lon="-8.2979240">
        <ele>125.0</ele>
        <time>2022-08-14T16:54:44Z</time>
      </trkpt>
      <trkpt lat="40.7566480" lon="-8.2979550">
        <ele>125.2</ele>
        <time>2022-08-14T16:54:49Z</time>
      </trkpt>
      <trkpt lat="40.7567160" lon="-8.2980070">
        <ele>125.4</ele>
        <time>2022-08-14T16:54:52Z</time>
      </trkpt>
      <trkpt lat="40.7568510" lon="-8.2981220">
        <ele>125.0</ele>
        <time>2022-08-14T16:54:57Z</time>
      </trkpt>
      <trkpt lat="40.7569430" lon="-8.2981850">
        <ele>124.2</ele>
        <time>2022-08-14T16:55:00Z</time>
      </trkpt>
      <trkpt lat="40.7570360" lon="-8.2982120">
        <ele>124.0</ele>
        <time>2022-08-14T16:55:02Z</time>
      </trkpt>
      <trkpt lat="40.7571450" lon="-8.2982390">
        <ele>123.8</ele>
        <time>2022-08-14T16:55:04Z</time>
      </trkpt>
      <trkpt lat="40.7572270" lon="-8.2982580">
        <ele>123.4</ele>
        <time>2022-08-14T16:55:06Z</time>
      </trkpt>
      <trkpt lat="40.7572550" lon="-8.2982620">
        <ele>122.8</ele>
        <time>2022-08-14T16:55:07Z</time>
      </trkpt>
      <trkpt lat="40.7572920" lon="-8.2982770">
        <ele>122.6</ele>
        <time>2022-08-14T16:55:09Z</time>
      </trkpt>
      <trkpt lat="40.7573020" lon="-8.2983000">
        <ele>122.4</ele>
        <time>2022-08-14T16:55:10Z</time>
      </trkpt>
      <trkpt lat="40.7573140" lon="-8.2983180">
        <ele>122.2</ele>
        <time>2022-08-14T16:55:11Z</time>
      </trkpt>
      <trkpt lat="40.7573700" lon="-8.2983410">
        <ele>122.0</ele>
        <time>2022-08-14T16:55:14Z</time>
      </trkpt>
      <trkpt lat="40.7574990" lon="-8.2982810">
        <ele>122.6</ele>
        <time>2022-08-14T16:55:21Z</time>
      </trkpt>
      <trkpt lat="40.7575830" lon="-8.2982140">
        <ele>123.0</ele>
        <time>2022-08-14T16:55:25Z</time>
      </trkpt>
      <trkpt lat="40.7576000" lon="-8.2981980">
        <ele>123.2</ele>
        <time>2022-08-14T16:55:26Z</time>
      </trkpt>
      <trkpt lat="40.7576230" lon="-8.2982540">
        <ele>123.4</ele>
        <time>2022-08-14T16:55:30Z</time>
      </trkpt>
      <trkpt lat="40.7576050" lon="-8.2982700">
        <ele>123.4</ele>
        <time>2022-08-14T16:55:31Z</time>
      </trkpt>
      <trkpt lat="40.7575900" lon="-8.2982290">
        <ele>123.6</ele>
        <time>2022-08-14T16:55:34Z</time>
      </trkpt>
      <trkpt lat="40.7575990" lon="-8.2982240">
        <ele>123.6</ele>
        <time>2022-08-14T16:55:35Z</time>
      </trkpt>
      <trkpt lat="40.7576380" lon="-8.2982410">
        <ele>123.6</ele>
        <time>2022-08-14T16:55:38Z</time>
      </trkpt>
      <trkpt lat="40.7576520" lon="-8.2982530">
        <ele>123.6</ele>
        <time>2022-08-14T16:55:42Z</time>
      </trkpt>
      <trkpt lat="40.7576780" lon="-8.2982830">
        <ele>123.2</ele>
        <time>2022-08-14T16:56:25Z</time>
      </trkpt>
      <trkpt lat="40.7577180" lon="-8.2983520">
        <ele>123.2</ele>
        <time>2022-08-14T16:56:28Z</time>
      </trkpt>
      <trkpt lat="40.7577500" lon="-8.2983950">
        <ele>123.4</ele>
        <time>2022-08-14T16:56:30Z</time>
      </trkpt>
      <trkpt lat="40.7577710" lon="-8.2984120">
        <ele>123.4</ele>
        <time>2022-08-14T16:56:31Z</time>
      </trkpt>
      <trkpt lat="40.7578060" lon="-8.2984430">
        <ele>123.4</ele>
        <time>2022-08-14T16:56:33Z</time>
      </trkpt>
      <trkpt lat="40.7578470" lon="-8.2984640">
        <ele>123.4</ele>
        <time>2022-08-14T16:56:36Z</time>
      </trkpt>
      <trkpt lat="40.7578560" lon="-8.2984670">
        <ele>123.6</ele>
        <time>2022-08-14T16:56:37Z</time>
      </trkpt>
      <trkpt lat="40.7578660" lon="-8.2984780">
        <ele>124.0</ele>
        <time>2022-08-14T16:56:41Z</time>
      </trkpt>
      <trkpt lat="40.7579070" lon="-8.2984410">
        <ele>123.8</ele>
        <time>2022-08-14T16:59:24Z</time>
      </trkpt>
      <trkpt lat="40.7577960" lon="-8.2983190">
        <ele>123.6</ele>
        <time>2022-08-14T16:59:29Z</time>
      </trkpt>
      <trkpt lat="40.7577490" lon="-8.2982550">
        <ele>123.4</ele>
        <time>2022-08-14T16:59:33Z</time>
      </trkpt>
      <trkpt lat="40.7577470" lon="-8.2982500">
        <ele>123.4</ele>
        <time>2022-08-14T16:59:36Z</time>
      </trkpt>
      <trkpt lat="40.7576390" lon="-8.2982570">
        <ele>124.4</ele>
        <time>2022-08-14T17:00:21Z</time>
      </trkpt>
      <trkpt lat="40.7576120" lon="-8.2982680">
        <ele>124.4</ele>
        <time>2022-08-14T17:00:22Z</time>
      </trkpt>
      <trkpt lat="40.7575520" lon="-8.2982980">
        <ele>124.6</ele>
        <time>2022-08-14T17:00:25Z</time>
      </trkpt>
      <trkpt lat="40.7574500" lon="-8.2983370">
        <ele>124.4</ele>
        <time>2022-08-14T17:00:29Z</time>
      </trkpt>
      <trkpt lat="40.7573250" lon="-8.2983440">
        <ele>124.4</ele>
        <time>2022-08-14T17:00:33Z</time>
      </trkpt>
      <trkpt lat="40.7572270" lon="-8.2982750">
        <ele>123.8</ele>
        <time>2022-08-14T17:00:37Z</time>
      </trkpt>
      <trkpt lat="40.7572200" lon="-8.2983070">
        <ele>123.2</ele>
        <time>2022-08-14T17:00:39Z</time>
      </trkpt>
      <trkpt lat="40.7572320" lon="-8.2983210">
        <ele>123.0</ele>
        <time>2022-08-14T17:00:40Z</time>
      </trkpt>
      <trkpt lat="40.7572780" lon="-8.2983680">
        <ele>122.8</ele>
        <time>2022-08-14T17:00:42Z</time>
      </trkpt>
      <trkpt lat="40.7573510" lon="-8.2983970">
        <ele>122.4</ele>
        <time>2022-08-14T17:00:44Z</time>
      </trkpt>
      <trkpt lat="40.7574150" lon="-8.2984040">
        <ele>122.0</ele>
        <time>2022-08-14T17:00:47Z</time>
      </trkpt>
      <trkpt lat="40.7574350" lon="-8.2984030">
        <ele>121.8</ele>
        <time>2022-08-14T17:00:48Z</time>
      </trkpt>
      <trkpt lat="40.7575650" lon="-8.2984080">
        <ele>120.8</ele>
        <time>2022-08-14T17:00:53Z</time>
      </trkpt>
      <trkpt lat="40.7575830" lon="-8.2984170">
        <ele>120.8</ele>
        <time>2022-08-14T17:00:54Z</time>
      </trkpt>
      <trkpt lat="40.7576210" lon="-8.2984530">
        <ele>119.6</ele>
        <time>2022-08-14T17:00:56Z</time>
      </trkpt>
      <trkpt lat="40.7576410" lon="-8.2984650">
        <ele>118.4</ele>
        <time>2022-08-14T17:00:58Z</time>
      </trkpt>
      <trkpt lat="40.7576440" lon="-8.2984620">
        <ele>118.2</ele>
        <time>2022-08-14T17:00:59Z</time>
      </trkpt>
      <trkpt lat="40.7576450" lon="-8.2984690">
        <ele>117.2</ele>
        <time>2022-08-14T17:01:02Z</time>
      </trkpt>
      <trkpt lat="40.7576450" lon="-8.2984690">
        <ele>117.0</ele>
        <time>2022-08-14T17:01:04Z</time>
      </trkpt>
      <trkpt lat="40.7577780" lon="-8.2985510">
        <ele>116.0</ele>
        <time>2022-08-14T17:01:13Z</time>
      </trkpt>
      <trkpt lat="40.7578170" lon="-8.2985840">
        <ele>115.8</ele>
        <time>2022-08-14T17:01:15Z</time>
      </trkpt>
      <trkpt lat="40.7579070" lon="-8.2986410">
        <ele>116.0</ele>
        <time>2022-08-14T17:01:20Z</time>
      </trkpt>
      <trkpt lat="40.7580330" lon="-8.2987190">
        <ele>116.0</ele>
        <time>2022-08-14T17:01:26Z</time>
      </trkpt>
      <trkpt lat="40.7581530" lon="-8.2987670">
        <ele>116.2</ele>
        <time>2022-08-14T17:01:32Z</time>
      </trkpt>
      <trkpt lat="40.7582350" lon="-8.2987950">
        <ele>116.0</ele>
        <time>2022-08-14T17:01:36Z</time>
      </trkpt>
      <trkpt lat="40.7582520" lon="-8.2988000">
        <ele>116.0</ele>
        <time>2022-08-14T17:01:37Z</time>
      </trkpt>
      <trkpt lat="40.7583730" lon="-8.2988070">
        <ele>116.0</ele>
        <time>2022-08-14T17:01:43Z</time>
      </trkpt>
      <trkpt lat="40.7584020" lon="-8.2988220">
        <ele>116.0</ele>
        <time>2022-08-14T17:01:45Z</time>
      </trkpt>
      <trkpt lat="40.7584070" lon="-8.2988330">
        <ele>116.0</ele>
        <time>2022-08-14T17:01:47Z</time>
      </trkpt>
      <trkpt lat="40.7584120" lon="-8.2988350">
        <ele>116.0</ele>
        <time>2022-08-14T17:01:48Z</time>
      </trkpt>
      <trkpt lat="40.7584380" lon="-8.2988260">
        <ele>116.4</ele>
        <time>2022-08-14T17:01:51Z</time>
      </trkpt>
      <trkpt lat="40.7584380" lon="-8.2988260">
        <ele>116.4</ele>
        <time>2022-08-14T17:01:53Z</time>
      </trkpt>
      <trkpt lat="40.7584860" lon="-8.2988930">
        <ele>118.0</ele>
        <time>2022-08-14T17:02:30Z</time>
      </trkpt>
      <trkpt lat="40.7584980" lon="-8.2989190">
        <ele>118.0</ele>
        <time>2022-08-14T17:02:31Z</time>
      </trkpt>
      <trkpt lat="40.7586000" lon="-8.2990950">
        <ele>117.8</ele>
        <time>2022-08-14T17:02:39Z</time>
      </trkpt>
      <trkpt lat="40.7586130" lon="-8.2991140">
        <ele>117.8</ele>
        <time>2022-08-14T17:02:41Z</time>
      </trkpt>
      <trkpt lat="40.7586240" lon="-8.2991320">
        <ele>118.0</ele>
        <time>2022-08-14T17:02:43Z</time>
      </trkpt>
      <trkpt lat="40.7586280" lon="-8.2991350">
        <ele>118.0</ele>
        <time>2022-08-14T17:02:46Z</time>
      </trkpt>
      <trkpt lat="40.7586860" lon="-8.2992270">
        <ele>118.2</ele>
        <time>2022-08-14T17:02:53Z</time>
      </trkpt>
      <trkpt lat="40.7587140" lon="-8.2992660">
        <ele>118.2</ele>
        <time>2022-08-14T17:02:55Z</time>
      </trkpt>
      <trkpt lat="40.7587630" lon="-8.2993300">
        <ele>118.2</ele>
        <time>2022-08-14T17:03:00Z</time>
      </trkpt>
      <trkpt lat="40.7587720" lon="-8.2993380">
        <ele>118.2</ele>
        <time>2022-08-14T17:03:02Z</time>
      </trkpt>
      <trkpt lat="40.7587720" lon="-8.2993380">
        <ele>118.4</ele>
        <time>2022-08-14T17:03:04Z</time>
      </trkpt>
      <trkpt lat="40.7588180" lon="-8.2993840">
        <ele>117.8</ele>
        <time>2022-08-14T17:06:17Z</time>
      </trkpt>
      <trkpt lat="40.7588180" lon="-8.2993840">
        <ele>117.8</ele>
        <time>2022-08-14T17:06:18Z</time>
      </trkpt>
      <trkpt lat="40.7588180" lon="-8.2993840">
        <ele>117.8</ele>
        <time>2022-08-14T17:06:19Z</time>
      </trkpt>
      <trkpt lat="40.7573380" lon="-8.2998590">
        <ele>129.0</ele>
        <time>2022-08-14T17:15:18Z</time>
      </trkpt>
      <trkpt lat="40.7573200" lon="-8.2998470">
        <ele>123.2</ele>
        <time>2022-08-14T17:15:20Z</time>
      </trkpt>
      <trkpt lat="40.7573000" lon="-8.2998210">
        <ele>123.2</ele>
        <time>2022-08-14T17:15:21Z</time>
      </trkpt>
      <trkpt lat="40.7572610" lon="-8.2997710">
        <ele>123.4</ele>
        <time>2022-08-14T17:15:24Z</time>
      </trkpt>
      <trkpt lat="40.7571980" lon="-8.2995870">
        <ele>123.6</ele>
        <time>2022-08-14T17:15:31Z</time>
      </trkpt>
      <trkpt lat="40.7571560" lon="-8.2995150">
        <ele>123.6</ele>
        <time>2022-08-14T17:15:32Z</time>
      </trkpt>
      <trkpt lat="40.7571290" lon="-8.2994980">
        <ele>123.2</ele>
        <time>2022-08-14T17:15:34Z</time>
      </trkpt>
      <trkpt lat="40.7569200" lon="-8.2994290">
        <ele>122.2</ele>
        <time>2022-08-14T17:15:40Z</time>
      </trkpt>
      <trkpt lat="40.7568520" lon="-8.2993860">
        <ele>122.4</ele>
        <time>2022-08-14T17:15:46Z</time>
      </trkpt>
      <trkpt lat="40.7567380" lon="-8.2993120">
        <ele>122.4</ele>
        <time>2022-08-14T17:15:52Z</time>
      </trkpt>
      <trkpt lat="40.7565090" lon="-8.2991150">
        <ele>121.8</ele>
        <time>2022-08-14T17:15:59Z</time>
      </trkpt>
      <trkpt lat="40.7564730" lon="-8.2990960">
        <ele>121.0</ele>
        <time>2022-08-14T17:16:01Z</time>
      </trkpt>
      <trkpt lat="40.7564300" lon="-8.2990670">
        <ele>120.2</ele>
        <time>2022-08-14T17:16:04Z</time>
      </trkpt>
      <trkpt lat="40.7564270" lon="-8.2990700">
        <ele>120.0</ele>
        <time>2022-08-14T17:16:06Z</time>
      </trkpt>
      <trkpt lat="40.7564050" lon="-8.2990410">
        <ele>119.4</ele>
        <time>2022-08-14T17:16:12Z</time>
      </trkpt>
      <trkpt lat="40.7564050" lon="-8.2990410">
        <ele>119.2</ele>
        <time>2022-08-14T17:16:14Z</time>
      </trkpt>
      <trkpt lat="40.7561920" lon="-8.2990830">
        <ele>119.2</ele>
        <time>2022-08-14T17:17:05Z</time>
      </trkpt>
      <trkpt lat="40.7561600" lon="-8.2991180">
        <ele>119.2</ele>
        <time>2022-08-14T17:17:07Z</time>
      </trkpt>
      <trkpt lat="40.7559990" lon="-8.2991710">
        <ele>118.8</ele>
        <time>2022-08-14T17:17:14Z</time>
      </trkpt>
      <trkpt lat="40.7559080" lon="-8.2992090">
        <ele>117.8</ele>
        <time>2022-08-14T17:17:19Z</time>
      </trkpt>
      <trkpt lat="40.7558870" lon="-8.2992170">
        <ele>117.6</ele>
        <time>2022-08-14T17:17:20Z</time>
      </trkpt>
      <trkpt lat="40.7558560" lon="-8.2992330">
        <ele>117.4</ele>
        <time>2022-08-14T17:17:24Z</time>
      </trkpt>
      <trkpt lat="40.7558560" lon="-8.2992330">
        <ele>117.4</ele>
        <time>2022-08-14T17:17:25Z</time>
      </trkpt>
      <trkpt lat="40.7548580" lon="-8.2995490">
        <ele>131.0</ele>
        <time>2022-08-14T17:19:54Z</time>
      </trkpt>
      <trkpt lat="40.7548140" lon="-8.2995510">
        <ele>131.2</ele>
        <time>2022-08-14T17:19:55Z</time>
      </trkpt>
      <trkpt lat="40.7548000" lon="-8.2995460">
        <ele>131.2</ele>
        <time>2022-08-14T17:19:56Z</time>
      </trkpt>
      <trkpt lat="40.7546680" lon="-8.2995000">
        <ele>130.6</ele>
        <time>2022-08-14T17:20:01Z</time>
      </trkpt>
      <trkpt lat="40.7546360" lon="-8.2994840">
        <ele>130.0</ele>
        <time>2022-08-14T17:20:02Z</time>
      </trkpt>
      <trkpt lat="40.7544950" lon="-8.2994370">
        <ele>128.4</ele>
        <time>2022-08-14T17:20:06Z</time>
      </trkpt>
      <trkpt lat="40.7544180" lon="-8.2994220">
        <ele>127.0</ele>
        <time>2022-08-14T17:20:08Z</time>
      </trkpt>
      <trkpt lat="40.7544180" lon="-8.2994220">
        <ele>125.8</ele>
        <time>2022-08-14T17:20:09Z</time>
      </trkpt>
      <trkpt lat="40.7542920" lon="-8.2994080">
        <ele>124.8</ele>
        <time>2022-08-14T17:20:11Z</time>
      </trkpt>
      <trkpt lat="40.7542190" lon="-8.2994080">
        <ele>123.8</ele>
        <time>2022-08-14T17:20:13Z</time>
      </trkpt>
      <trkpt lat="40.7541890" lon="-8.2994160">
        <ele>122.6</ele>
        <time>2022-08-14T17:20:14Z</time>
      </trkpt>
      <trkpt lat="40.7541630" lon="-8.2994280">
        <ele>122.2</ele>
        <time>2022-08-14T17:20:15Z</time>
      </trkpt>
      <trkpt lat="40.7541340" lon="-8.2994420">
        <ele>121.4</ele>
        <time>2022-08-14T17:20:16Z</time>
      </trkpt>
      <trkpt lat="40.7540830" lon="-8.2994650">
        <ele>120.0</ele>
        <time>2022-08-14T17:20:18Z</time>
      </trkpt>
      <trkpt lat="40.7539870" lon="-8.2994830">
        <ele>118.6</ele>
        <time>2022-08-14T17:20:21Z</time>
      </trkpt>
      <trkpt lat="40.7539640" lon="-8.2994770">
        <ele>118.2</ele>
        <time>2022-08-14T17:20:22Z</time>
      </trkpt>
      <trkpt lat="40.7539440" lon="-8.2994730">
        <ele>117.4</ele>
        <time>2022-08-14T17:20:23Z</time>
      </trkpt>
      <trkpt lat="40.7538970" lon="-8.2994780">
        <ele>116.6</ele>
        <time>2022-08-14T17:20:26Z</time>
      </trkpt>
      <trkpt lat="40.7538780" lon="-8.2994840">
        <ele>116.0</ele>
        <time>2022-08-14T17:20:27Z</time>
      </trkpt>
      <trkpt lat="40.7538640" lon="-8.2994930">
        <ele>115.8</ele>
        <time>2022-08-14T17:20:28Z</time>
      </trkpt>
      <trkpt lat="40.7538270" lon="-8.2995150">
        <ele>115.6</ele>
        <time>2022-08-14T17:20:30Z</time>
      </trkpt>
      <trkpt lat="40.7538150" lon="-8.2995230">
        <ele>115.6</ele>
        <time>2022-08-14T17:20:31Z</time>
      </trkpt>
      <trkpt lat="40.7537660" lon="-8.2995670">
        <ele>115.6</ele>
        <time>2022-08-14T17:20:38Z</time>
      </trkpt>
      <trkpt lat="40.7537240" lon="-8.2996050">
        <ele>116.6</ele>
        <time>2022-08-14T17:20:44Z</time>
      </trkpt>
      <trkpt lat="40.7537050" lon="-8.2996150">
        <ele>117.0</ele>
        <time>2022-08-14T17:20:47Z</time>
      </trkpt>
      <trkpt lat="40.7536160" lon="-8.2996620">
        <ele>118.2</ele>
        <time>2022-08-14T17:20:51Z</time>
      </trkpt>
      <trkpt lat="40.7535720" lon="-8.2996900">
        <ele>118.6</ele>
        <time>2022-08-14T17:20:53Z</time>
      </trkpt>
      <trkpt lat="40.7535340" lon="-8.2997170">
        <ele>119.4</ele>
        <time>2022-08-14T17:20:56Z</time>
      </trkpt>
      <trkpt lat="40.7535110" lon="-8.2997390">
        <ele>120.2</ele>
        <time>2022-08-14T17:20:59Z</time>
      </trkpt>
      <trkpt lat="40.7534990" lon="-8.2997470">
        <ele>120.4</ele>
        <time>2022-08-14T17:21:01Z</time>
      </trkpt>
      <trkpt lat="40.7534390" lon="-8.2997840">
        <ele>120.6</ele>
        <time>2022-08-14T17:21:05Z</time>
      </trkpt>
      <trkpt lat="40.7534120" lon="-8.2997930">
        <ele>120.8</ele>
        <time>2022-08-14T17:21:08Z</time>
      </trkpt>
      <trkpt lat="40.7533160" lon="-8.2998390">
        <ele>121.2</ele>
        <time>2022-08-14T17:21:13Z</time>
      </trkpt>
      <trkpt lat="40.7532480" lon="-8.2998750">
        <ele>121.6</ele>
        <time>2022-08-14T17:21:16Z</time>
      </trkpt>
      <trkpt lat="40.7531910" lon="-8.2999100">
        <ele>122.0</ele>
        <time>2022-08-14T17:21:20Z</time>
      </trkpt>
      <trkpt lat="40.7530090" lon="-8.2999760">
        <ele>121.8</ele>
        <time>2022-08-14T17:21:27Z</time>
      </trkpt>
      <trkpt lat="40.7529480" lon="-8.3000410">
        <ele>121.4</ele>
        <time>2022-08-14T17:21:31Z</time>
      </trkpt>
      <trkpt lat="40.7528300" lon="-8.3000340">
        <ele>121.2</ele>
        <time>2022-08-14T17:21:34Z</time>
      </trkpt>
      <trkpt lat="40.7525810" lon="-8.2999690">
        <ele>121.4</ele>
        <time>2022-08-14T17:21:45Z</time>
      </trkpt>
      <trkpt lat="40.7524810" lon="-8.2998930">
        <ele>121.4</ele>
        <time>2022-08-14T17:21:51Z</time>
      </trkpt>
      <trkpt lat="40.7524660" lon="-8.2998500">
        <ele>121.4</ele>
        <time>2022-08-14T17:21:53Z</time>
      </trkpt>
      <trkpt lat="40.7525470" lon="-8.2997650">
        <ele>121.6</ele>
        <time>2022-08-14T17:21:59Z</time>
      </trkpt>
      <trkpt lat="40.7525950" lon="-8.2997190">
        <ele>121.8</ele>
        <time>2022-08-14T17:22:05Z</time>
      </trkpt>
      <trkpt lat="40.7525660" lon="-8.2997170">
        <ele>121.8</ele>
        <time>2022-08-14T17:22:09Z</time>
      </trkpt>
      <trkpt lat="40.7524810" lon="-8.2998410">
        <ele>122.2</ele>
        <time>2022-08-14T17:22:14Z</time>
      </trkpt>
      <trkpt lat="40.7524170" lon="-8.2998510">
        <ele>122.2</ele>
        <time>2022-08-14T17:22:18Z</time>
      </trkpt>
      <trkpt lat="40.7524070" lon="-8.2998470">
        <ele>122.2</ele>
        <time>2022-08-14T17:22:19Z</time>
      </trkpt>
      <trkpt lat="40.7523350" lon="-8.2997660">
        <ele>122.2</ele>
        <time>2022-08-14T17:22:25Z</time>
      </trkpt>
      <trkpt lat="40.7522810" lon="-8.2997040">
        <ele>123.0</ele>
        <time>2022-08-14T17:22:30Z</time>
      </trkpt>
      <trkpt lat="40.7522210" lon="-8.2996250">
        <ele>124.2</ele>
        <time>2022-08-14T17:22:36Z</time>
      </trkpt>
      <trkpt lat="40.7521730" lon="-8.2995700">
        <ele>125.0</ele>
        <time>2022-08-14T17:22:40Z</time>
      </trkpt>
      <trkpt lat="40.7521610" lon="-8.2995580">
        <ele>125.4</ele>
        <time>2022-08-14T17:22:41Z</time>
      </trkpt>
      <trkpt lat="40.7521380" lon="-8.2995270">
        <ele>125.6</ele>
        <time>2022-08-14T17:22:44Z</time>
      </trkpt>
      <trkpt lat="40.7521210" lon="-8.2995130">
        <ele>126.4</ele>
        <time>2022-08-14T17:22:46Z</time>
      </trkpt>
      <trkpt lat="40.7521110" lon="-8.2995050">
        <ele>126.6</ele>
        <time>2022-08-14T17:22:47Z</time>
      </trkpt>
      <trkpt lat="40.7520940" lon="-8.2994900">
        <ele>127.2</ele>
        <time>2022-08-14T17:22:49Z</time>
      </trkpt>
      <trkpt lat="40.7520760" lon="-8.2994800">
        <ele>127.8</ele>
        <time>2022-08-14T17:22:51Z</time>
      </trkpt>
      <trkpt lat="40.7520650" lon="-8.2994750">
        <ele>127.8</ele>
        <time>2022-08-14T17:22:52Z</time>
      </trkpt>
      <trkpt lat="40.7520370" lon="-8.2994690">
        <ele>128.2</ele>
        <time>2022-08-14T17:22:54Z</time>
      </trkpt>
      <trkpt lat="40.7520110" lon="-8.2994600">
        <ele>128.8</ele>
        <time>2022-08-14T17:22:56Z</time>
      </trkpt>
      <trkpt lat="40.7519780" lon="-8.2994550">
        <ele>129.6</ele>
        <time>2022-08-14T17:22:59Z</time>
      </trkpt>
      <trkpt lat="40.7519360" lon="-8.2994490">
        <ele>130.0</ele>
        <time>2022-08-14T17:23:03Z</time>
      </trkpt>
      <trkpt lat="40.7518670" lon="-8.2994530">
        <ele>131.4</ele>
        <time>2022-08-14T17:23:09Z</time>
      </trkpt>
      <trkpt lat="40.7517680" lon="-8.2995570">
        <ele>132.2</ele>
        <time>2022-08-14T17:23:17Z</time>
      </trkpt>
      <trkpt lat="40.7517510" lon="-8.2995880">
        <ele>132.4</ele>
        <time>2022-08-14T17:23:19Z</time>
      </trkpt>
      <trkpt lat="40.7517050" lon="-8.2996630">
        <ele>132.8</ele>
        <time>2022-08-14T17:23:23Z</time>
      </trkpt>
      <trkpt lat="40.7516810" lon="-8.2997240">
        <ele>133.0</ele>
        <time>2022-08-14T17:23:27Z</time>
      </trkpt>
      <trkpt lat="40.7516620" lon="-8.2997750">
        <ele>133.4</ele>
        <time>2022-08-14T17:23:30Z</time>
      </trkpt>
      <trkpt lat="40.7516500" lon="-8.2997900">
        <ele>133.8</ele>
        <time>2022-08-14T17:23:31Z</time>
      </trkpt>
      <trkpt lat="40.7515980" lon="-8.2998790">
        <ele>134.6</ele>
        <time>2022-08-14T17:23:36Z</time>
      </trkpt>
      <trkpt lat="40.7515930" lon="-8.2999040">
        <ele>134.6</ele>
        <time>2022-08-14T17:23:37Z</time>
      </trkpt>
      <trkpt lat="40.7515310" lon="-8.3000520">
        <ele>135.4</ele>
        <time>2022-08-14T17:23:44Z</time>
      </trkpt>
      <trkpt lat="40.7514970" lon="-8.3001480">
        <ele>135.6</ele>
        <time>2022-08-14T17:23:48Z</time>
      </trkpt>
      <trkpt lat="40.7514820" lon="-8.3002010">
        <ele>135.6</ele>
        <time>2022-08-14T17:23:50Z</time>
      </trkpt>
      <trkpt lat="40.7514160" lon="-8.3004680">
        <ele>136.0</ele>
        <time>2022-08-14T17:23:59Z</time>
      </trkpt>
      <trkpt lat="40.7513600" lon="-8.3006630">
        <ele>136.4</ele>
        <time>2022-08-14T17:24:07Z</time>
      </trkpt>
      <trkpt lat="40.7513080" lon="-8.3009290">
        <ele>136.8</ele>
        <time>2022-08-14T17:24:16Z</time>
      </trkpt>
      <trkpt lat="40.7513020" lon="-8.3009520">
        <ele>136.8</ele>
        <time>2022-08-14T17:24:17Z</time>
      </trkpt>
      <trkpt lat="40.7512780" lon="-8.3010700">
        <ele>137.0</ele>
        <time>2022-08-14T17:24:22Z</time>
      </trkpt>
      <trkpt lat="40.7512590" lon="-8.3011070">
        <ele>137.0</ele>
        <time>2022-08-14T17:24:24Z</time>
      </trkpt>
      <trkpt lat="40.7512470" lon="-8.3011510">
        <ele>137.0</ele>
        <time>2022-08-14T17:24:27Z</time>
      </trkpt>
      <trkpt lat="40.7512380" lon="-8.3011810">
        <ele>137.2</ele>
        <time>2022-08-14T17:24:29Z</time>
      </trkpt>
      <trkpt lat="40.7512230" lon="-8.3012300">
        <ele>137.2</ele>
        <time>2022-08-14T17:24:32Z</time>
      </trkpt>
      <trkpt lat="40.7512290" lon="-8.3012520">
        <ele>137.2</ele>
        <time>2022-08-14T17:24:33Z</time>
      </trkpt>
      <trkpt lat="40.7512110" lon="-8.3014570">
        <ele>137.4</ele>
        <time>2022-08-14T17:24:41Z</time>
      </trkpt>
      <trkpt lat="40.7511540" lon="-8.3015830">
        <ele>137.4</ele>
        <time>2022-08-14T17:24:47Z</time>
      </trkpt>
      <trkpt lat="40.7511380" lon="-8.3016780">
        <ele>137.6</ele>
        <time>2022-08-14T17:24:52Z</time>
      </trkpt>
      <trkpt lat="40.7511440" lon="-8.3016930">
        <ele>137.8</ele>
        <time>2022-08-14T17:24:53Z</time>
      </trkpt>
      <trkpt lat="40.7511430" lon="-8.3017050">
        <ele>137.8</ele>
        <time>2022-08-14T17:24:54Z</time>
      </trkpt>
      <trkpt lat="40.7511480" lon="-8.3017350">
        <ele>138.0</ele>
        <time>2022-08-14T17:24:56Z</time>
      </trkpt>
      <trkpt lat="40.7511480" lon="-8.3017350">
        <ele>138.2</ele>
        <time>2022-08-14T17:24:57Z</time>
      </trkpt>
      <trkpt lat="40.7511680" lon="-8.3017700">
        <ele>138.4</ele>
        <time>2022-08-14T17:24:59Z</time>
      </trkpt>
      <trkpt lat="40.7512010" lon="-8.3017920">
        <ele>139.0</ele>
        <time>2022-08-14T17:25:02Z</time>
      </trkpt>
      <trkpt lat="40.7512070" lon="-8.3018150">
        <ele>139.2</ele>
        <time>2022-08-14T17:25:03Z</time>
      </trkpt>
      <trkpt lat="40.7512040" lon="-8.3018360">
        <ele>139.6</ele>
        <time>2022-08-14T17:25:04Z</time>
      </trkpt>
      <trkpt lat="40.7512070" lon="-8.3019050">
        <ele>140.2</ele>
        <time>2022-08-14T17:25:07Z</time>
      </trkpt>
      <trkpt lat="40.7512380" lon="-8.3019370">
        <ele>140.6</ele>
        <time>2022-08-14T17:25:09Z</time>
      </trkpt>
      <trkpt lat="40.7512490" lon="-8.3019460">
        <ele>140.8</ele>
        <time>2022-08-14T17:25:10Z</time>
      </trkpt>
      <trkpt lat="40.7512460" lon="-8.3019840">
        <ele>141.4</ele>
        <time>2022-08-14T17:25:12Z</time>
      </trkpt>
      <trkpt lat="40.7512400" lon="-8.3020010">
        <ele>141.8</ele>
        <time>2022-08-14T17:25:13Z</time>
      </trkpt>
      <trkpt lat="40.7512190" lon="-8.3020610">
        <ele>142.2</ele>
        <time>2022-08-14T17:25:16Z</time>
      </trkpt>
      <trkpt lat="40.7512150" lon="-8.3021010">
        <ele>142.8</ele>
        <time>2022-08-14T17:25:18Z</time>
      </trkpt>
      <trkpt lat="40.7512140" lon="-8.3021150">
        <ele>142.8</ele>
        <time>2022-08-14T17:25:19Z</time>
      </trkpt>
      <trkpt lat="40.7512190" lon="-8.3021340">
        <ele>143.2</ele>
        <time>2022-08-14T17:25:20Z</time>
      </trkpt>
      <trkpt lat="40.7512490" lon="-8.3021850">
        <ele>144.0</ele>
        <time>2022-08-14T17:25:24Z</time>
      </trkpt>
      <trkpt lat="40.7512370" lon="-8.3022270">
        <ele>144.4</ele>
        <time>2022-08-14T17:25:26Z</time>
      </trkpt>
      <trkpt lat="40.7512260" lon="-8.3022550">
        <ele>145.0</ele>
        <time>2022-08-14T17:25:28Z</time>
      </trkpt>
      <trkpt lat="40.7512270" lon="-8.3022900">
        <ele>145.8</ele>
        <time>2022-08-14T17:25:30Z</time>
      </trkpt>
      <trkpt lat="40.7512340" lon="-8.3023220">
        <ele>146.2</ele>
        <time>2022-08-14T17:25:32Z</time>
      </trkpt>
      <trkpt lat="40.7512570" lon="-8.3023440">
        <ele>146.6</ele>
        <time>2022-08-14T17:25:34Z</time>
      </trkpt>
      <trkpt lat="40.7512600" lon="-8.3023600">
        <ele>147.0</ele>
        <time>2022-08-14T17:25:35Z</time>
      </trkpt>
      <trkpt lat="40.7512590" lon="-8.3023770">
        <ele>147.2</ele>
        <time>2022-08-14T17:25:36Z</time>
      </trkpt>
      <trkpt lat="40.7512510" lon="-8.3023940">
        <ele>147.4</ele>
        <time>2022-08-14T17:25:37Z</time>
      </trkpt>
      <trkpt lat="40.7512400" lon="-8.3024540">
        <ele>148.4</ele>
        <time>2022-08-14T17:25:41Z</time>
      </trkpt>
      <trkpt lat="40.7512430" lon="-8.3024650">
        <ele>148.6</ele>
        <time>2022-08-14T17:25:42Z</time>
      </trkpt>
      <trkpt lat="40.7512450" lon="-8.3025160">
        <ele>149.2</ele>
        <time>2022-08-14T17:25:45Z</time>
      </trkpt>
      <trkpt lat="40.7512310" lon="-8.3025560">
        <ele>149.8</ele>
        <time>2022-08-14T17:25:48Z</time>
      </trkpt>
      <trkpt lat="40.7512380" lon="-8.3025890">
        <ele>150.2</ele>
        <time>2022-08-14T17:25:50Z</time>
      </trkpt>
      <trkpt lat="40.7512420" lon="-8.3026050">
        <ele>150.8</ele>
        <time>2022-08-14T17:25:52Z</time>
      </trkpt>
      <trkpt lat="40.7512370" lon="-8.3026250">
        <ele>151.0</ele>
        <time>2022-08-14T17:25:53Z</time>
      </trkpt>
      <trkpt lat="40.7512290" lon="-8.3026350">
        <ele>151.2</ele>
        <time>2022-08-14T17:25:54Z</time>
      </trkpt>
      <trkpt lat="40.7512240" lon="-8.3026430">
        <ele>151.8</ele>
        <time>2022-08-14T17:25:56Z</time>
      </trkpt>
      <trkpt lat="40.7512330" lon="-8.3026690">
        <ele>152.2</ele>
        <time>2022-08-14T17:25:58Z</time>
      </trkpt>
      <trkpt lat="40.7512380" lon="-8.3026810">
        <ele>152.2</ele>
        <time>2022-08-14T17:25:59Z</time>
      </trkpt>
      <trkpt lat="40.7512400" lon="-8.3026950">
        <ele>152.6</ele>
        <time>2022-08-14T17:26:00Z</time>
      </trkpt>
      <trkpt lat="40.7512390" lon="-8.3027440">
        <ele>153.4</ele>
        <time>2022-08-14T17:26:05Z</time>
      </trkpt>
      <trkpt lat="40.7512280" lon="-8.3028170">
        <ele>154.0</ele>
        <time>2022-08-14T17:26:09Z</time>
      </trkpt>
      <trkpt lat="40.7512270" lon="-8.3028480">
        <ele>154.4</ele>
        <time>2022-08-14T17:26:11Z</time>
      </trkpt>
      <trkpt lat="40.7512280" lon="-8.3028600">
        <ele>154.6</ele>
        <time>2022-08-14T17:26:12Z</time>
      </trkpt>
      <trkpt lat="40.7512250" lon="-8.3029070">
        <ele>155.0</ele>
        <time>2022-08-14T17:26:14Z</time>
      </trkpt>
      <trkpt lat="40.7512290" lon="-8.3030060">
        <ele>155.6</ele>
        <time>2022-08-14T17:26:18Z</time>
      </trkpt>
      <trkpt lat="40.7512290" lon="-8.3030320">
        <ele>155.8</ele>
        <time>2022-08-14T17:26:19Z</time>
      </trkpt>
      <trkpt lat="40.7512350" lon="-8.3030480">
        <ele>156.0</ele>
        <time>2022-08-14T17:26:20Z</time>
      </trkpt>
      <trkpt lat="40.7512600" lon="-8.3030600">
        <ele>156.8</ele>
        <time>2022-08-14T17:26:23Z</time>
      </trkpt>
      <trkpt lat="40.7512740" lon="-8.3030650">
        <ele>157.0</ele>
        <time>2022-08-14T17:26:24Z</time>
      </trkpt>
      <trkpt lat="40.7513030" lon="-8.3030880">
        <ele>157.6</ele>
        <time>2022-08-14T17:26:27Z</time>
      </trkpt>
      <trkpt lat="40.7513190" lon="-8.3031350">
        <ele>158.2</ele>
        <time>2022-08-14T17:26:30Z</time>
      </trkpt>
      <trkpt lat="40.7513730" lon="-8.3031440">
        <ele>159.4</ele>
        <time>2022-08-14T17:26:35Z</time>
      </trkpt>
      <trkpt lat="40.7513970" lon="-8.3031330">
        <ele>159.8</ele>
        <time>2022-08-14T17:26:37Z</time>
      </trkpt>
      <trkpt lat="40.7514070" lon="-8.3031360">
        <ele>160.0</ele>
        <time>2022-08-14T17:26:38Z</time>
      </trkpt>
      <trkpt lat="40.7514170" lon="-8.3031820">
        <ele>160.4</ele>
        <time>2022-08-14T17:26:41Z</time>
      </trkpt>
      <trkpt lat="40.7514310" lon="-8.3032110">
        <ele>161.0</ele>
        <time>2022-08-14T17:26:43Z</time>
      </trkpt>
      <trkpt lat="40.7514530" lon="-8.3032200">
        <ele>161.4</ele>
        <time>2022-08-14T17:26:45Z</time>
      </trkpt>
      <trkpt lat="40.7514740" lon="-8.3032130">
        <ele>161.8</ele>
        <time>2022-08-14T17:26:47Z</time>
      </trkpt>
      <trkpt lat="40.7514990" lon="-8.3032070">
        <ele>162.6</ele>
        <time>2022-08-14T17:26:50Z</time>
      </trkpt>
      <trkpt lat="40.7515340" lon="-8.3032190">
        <ele>163.4</ele>
        <time>2022-08-14T17:26:53Z</time>
      </trkpt>
      <trkpt lat="40.7515460" lon="-8.3032440">
        <ele>163.6</ele>
        <time>2022-08-14T17:26:55Z</time>
      </trkpt>
      <trkpt lat="40.7515480" lon="-8.3032500">
        <ele>163.8</ele>
        <time>2022-08-14T17:26:56Z</time>
      </trkpt>
      <trkpt lat="40.7515540" lon="-8.3032540">
        <ele>164.0</ele>
        <time>2022-08-14T17:26:57Z</time>
      </trkpt>
      <trkpt lat="40.7515880" lon="-8.3032610">
        <ele>164.8</ele>
        <time>2022-08-14T17:27:00Z</time>
      </trkpt>
      <trkpt lat="40.7516120" lon="-8.3032520">
        <ele>165.0</ele>
        <time>2022-08-14T17:27:02Z</time>
      </trkpt>
      <trkpt lat="40.7516270" lon="-8.3032510">
        <ele>165.4</ele>
        <time>2022-08-14T17:27:03Z</time>
      </trkpt>
      <trkpt lat="40.7516520" lon="-8.3032640">
        <ele>165.8</ele>
        <time>2022-08-14T17:27:05Z</time>
      </trkpt>
      <trkpt lat="40.7516750" lon="-8.3032710">
        <ele>166.0</ele>
        <time>2022-08-14T17:27:07Z</time>
      </trkpt>
      <trkpt lat="40.7516850" lon="-8.3032650">
        <ele>166.2</ele>
        <time>2022-08-14T17:27:08Z</time>
      </trkpt>
      <trkpt lat="40.7517060" lon="-8.3032610">
        <ele>166.6</ele>
        <time>2022-08-14T17:27:10Z</time>
      </trkpt>
      <trkpt lat="40.7517450" lon="-8.3032710">
        <ele>167.4</ele>
        <time>2022-08-14T17:27:13Z</time>
      </trkpt>
      <trkpt lat="40.7517970" lon="-8.3032670">
        <ele>168.4</ele>
        <time>2022-08-14T17:27:19Z</time>
      </trkpt>
      <trkpt lat="40.7518070" lon="-8.3032640">
        <ele>169.0</ele>
        <time>2022-08-14T17:27:20Z</time>
      </trkpt>
      <trkpt lat="40.7518360" lon="-8.3032610">
        <ele>169.6</ele>
        <time>2022-08-14T17:27:23Z</time>
      </trkpt>
      <trkpt lat="40.7518600" lon="-8.3032700">
        <ele>169.8</ele>
        <time>2022-08-14T17:27:25Z</time>
      </trkpt>
      <trkpt lat="40.7518700" lon="-8.3032940">
        <ele>170.4</ele>
        <time>2022-08-14T17:27:27Z</time>
      </trkpt>
      <trkpt lat="40.7518700" lon="-8.3033040">
        <ele>170.6</ele>
        <time>2022-08-14T17:27:28Z</time>
      </trkpt>
      <trkpt lat="40.7518720" lon="-8.3033150">
        <ele>171.0</ele>
        <time>2022-08-14T17:27:29Z</time>
      </trkpt>
      <trkpt lat="40.7518920" lon="-8.3033330">
        <ele>171.6</ele>
        <time>2022-08-14T17:27:32Z</time>
      </trkpt>
      <trkpt lat="40.7519110" lon="-8.3033390">
        <ele>171.8</ele>
        <time>2022-08-14T17:27:33Z</time>
      </trkpt>
      <trkpt lat="40.7519260" lon="-8.3033560">
        <ele>172.2</ele>
        <time>2022-08-14T17:27:35Z</time>
      </trkpt>
      <trkpt lat="40.7519140" lon="-8.3033950">
        <ele>172.8</ele>
        <time>2022-08-14T17:27:38Z</time>
      </trkpt>
      <trkpt lat="40.7519070" lon="-8.3034070">
        <ele>173.2</ele>
        <time>2022-08-14T17:27:39Z</time>
      </trkpt>
      <trkpt lat="40.7518930" lon="-8.3034330">
        <ele>173.4</ele>
        <time>2022-08-14T17:27:41Z</time>
      </trkpt>
      <trkpt lat="40.7519090" lon="-8.3034800">
        <ele>174.0</ele>
        <time>2022-08-14T17:27:45Z</time>
      </trkpt>
      <trkpt lat="40.7519110" lon="-8.3034920">
        <ele>174.4</ele>
        <time>2022-08-14T17:27:46Z</time>
      </trkpt>
      <trkpt lat="40.7519100" lon="-8.3035060">
        <ele>174.6</ele>
        <time>2022-08-14T17:27:47Z</time>
      </trkpt>
      <trkpt lat="40.7519010" lon="-8.3035230">
        <ele>175.0</ele>
        <time>2022-08-14T17:27:49Z</time>
      </trkpt>
      <trkpt lat="40.7518890" lon="-8.3035420">
        <ele>175.6</ele>
        <time>2022-08-14T17:27:51Z</time>
      </trkpt>
      <trkpt lat="40.7518780" lon="-8.3035670">
        <ele>176.0</ele>
        <time>2022-08-14T17:27:53Z</time>
      </trkpt>
      <trkpt lat="40.7518740" lon="-8.3036180">
        <ele>176.6</ele>
        <time>2022-08-14T17:27:56Z</time>
      </trkpt>
      <trkpt lat="40.7518660" lon="-8.3036340">
        <ele>176.8</ele>
        <time>2022-08-14T17:27:57Z</time>
      </trkpt>
      <trkpt lat="40.7518090" lon="-8.3036650">
        <ele>178.0</ele>
        <time>2022-08-14T17:28:02Z</time>
      </trkpt>
      <trkpt lat="40.7517910" lon="-8.3036890">
        <ele>178.4</ele>
        <time>2022-08-14T17:28:04Z</time>
      </trkpt>
      <trkpt lat="40.7517770" lon="-8.3037850">
        <ele>179.2</ele>
        <time>2022-08-14T17:28:09Z</time>
      </trkpt>
      <trkpt lat="40.7517500" lon="-8.3038680">
        <ele>179.8</ele>
        <time>2022-08-14T17:28:13Z</time>
      </trkpt>
      <trkpt lat="40.7517110" lon="-8.3039530">
        <ele>180.2</ele>
        <time>2022-08-14T17:28:18Z</time>
      </trkpt>
      <trkpt lat="40.7516900" lon="-8.3040360">
        <ele>180.4</ele>
        <time>2022-08-14T17:28:22Z</time>
      </trkpt>
      <trkpt lat="40.7517070" lon="-8.3041120">
        <ele>180.6</ele>
        <time>2022-08-14T17:28:26Z</time>
      </trkpt>
      <trkpt lat="40.7517010" lon="-8.3041370">
        <ele>180.6</ele>
        <time>2022-08-14T17:28:27Z</time>
      </trkpt>
      <trkpt lat="40.7517160" lon="-8.3042990">
        <ele>181.0</ele>
        <time>2022-08-14T17:28:34Z</time>
      </trkpt>
      <trkpt lat="40.7517740" lon="-8.3044670">
        <ele>181.0</ele>
        <time>2022-08-14T17:28:41Z</time>
      </trkpt>
      <trkpt lat="40.7517980" lon="-8.3045650">
        <ele>181.4</ele>
        <time>2022-08-14T17:28:46Z</time>
      </trkpt>
      <trkpt lat="40.7518080" lon="-8.3045750">
        <ele>181.4</ele>
        <time>2022-08-14T17:28:47Z</time>
      </trkpt>
      <trkpt lat="40.7518230" lon="-8.3045850">
        <ele>181.4</ele>
        <time>2022-08-14T17:28:48Z</time>
      </trkpt>
      <trkpt lat="40.7518430" lon="-8.3046110">
        <ele>181.6</ele>
        <time>2022-08-14T17:28:50Z</time>
      </trkpt>
      <trkpt lat="40.7518640" lon="-8.3046880">
        <ele>182.4</ele>
        <time>2022-08-14T17:28:54Z</time>
      </trkpt>
      <trkpt lat="40.7518680" lon="-8.3047080">
        <ele>182.4</ele>
        <time>2022-08-14T17:28:55Z</time>
      </trkpt>
      <trkpt lat="40.7518850" lon="-8.3047850">
        <ele>183.6</ele>
        <time>2022-08-14T17:28:59Z</time>
      </trkpt>
      <trkpt lat="40.7518990" lon="-8.3048230">
        <ele>184.6</ele>
        <time>2022-08-14T17:29:01Z</time>
      </trkpt>
      <trkpt lat="40.7519090" lon="-8.3048410">
        <ele>184.8</ele>
        <time>2022-08-14T17:29:02Z</time>
      </trkpt>
      <trkpt lat="40.7519630" lon="-8.3049700">
        <ele>185.8</ele>
        <time>2022-08-14T17:29:09Z</time>
      </trkpt>
      <trkpt lat="40.7519710" lon="-8.3049920">
        <ele>186.0</ele>
        <time>2022-08-14T17:29:10Z</time>
      </trkpt>
      <trkpt lat="40.7520280" lon="-8.3051540">
        <ele>186.4</ele>
        <time>2022-08-14T17:29:18Z</time>
      </trkpt>
      <trkpt lat="40.7520610" lon="-8.3053140">
        <ele>186.6</ele>
        <time>2022-08-14T17:29:27Z</time>
      </trkpt>
      <trkpt lat="40.7520540" lon="-8.3053310">
        <ele>186.6</ele>
        <time>2022-08-14T17:29:29Z</time>
      </trkpt>
      <trkpt lat="40.7520450" lon="-8.3053370">
        <ele>186.8</ele>
        <time>2022-08-14T17:29:31Z</time>
      </trkpt>
      <trkpt lat="40.7520450" lon="-8.3053370">
        <ele>186.8</ele>
        <time>2022-08-14T17:29:32Z</time>
      </trkpt>
      <trkpt lat="40.7519500" lon="-8.3054330">
        <ele>187.6</ele>
        <time>2022-08-14T17:31:09Z</time>
      </trkpt>
      <trkpt lat="40.7519150" lon="-8.3054810">
        <ele>187.6</ele>
        <time>2022-08-14T17:31:12Z</time>
      </trkpt>
      <trkpt lat="40.7518590" lon="-8.3055960">
        <ele>188.4</ele>
        <time>2022-08-14T17:31:19Z</time>
      </trkpt>
      <trkpt lat="40.7518380" lon="-8.3056900">
        <ele>189.0</ele>
        <time>2022-08-14T17:31:24Z</time>
      </trkpt>
      <trkpt lat="40.7518360" lon="-8.3057070">
        <ele>189.2</ele>
        <time>2022-08-14T17:31:25Z</time>
      </trkpt>
      <trkpt lat="40.7518450" lon="-8.3057370">
        <ele>189.4</ele>
        <time>2022-08-14T17:31:27Z</time>
      </trkpt>
      <trkpt lat="40.7518520" lon="-8.3057460">
        <ele>189.6</ele>
        <time>2022-08-14T17:31:28Z</time>
      </trkpt>
      <trkpt lat="40.7518650" lon="-8.3057550">
        <ele>190.0</ele>
        <time>2022-08-14T17:31:29Z</time>
      </trkpt>
      <trkpt lat="40.7519080" lon="-8.3057810">
        <ele>191.0</ele>
        <time>2022-08-14T17:31:33Z</time>
      </trkpt>
      <trkpt lat="40.7519160" lon="-8.3057920">
        <ele>191.0</ele>
        <time>2022-08-14T17:31:34Z</time>
      </trkpt>
      <trkpt lat="40.7519310" lon="-8.3058080">
        <ele>191.8</ele>
        <time>2022-08-14T17:31:36Z</time>
      </trkpt>
      <trkpt lat="40.7519460" lon="-8.3058120">
        <ele>192.0</ele>
        <time>2022-08-14T17:31:38Z</time>
      </trkpt>
      <trkpt lat="40.7519550" lon="-8.3058060">
        <ele>192.2</ele>
        <time>2022-08-14T17:31:39Z</time>
      </trkpt>
      <trkpt lat="40.7519790" lon="-8.3057840">
        <ele>192.8</ele>
        <time>2022-08-14T17:31:42Z</time>
      </trkpt>
      <trkpt lat="40.7519970" lon="-8.3057770">
        <ele>193.2</ele>
        <time>2022-08-14T17:31:44Z</time>
      </trkpt>
      <trkpt lat="40.7520090" lon="-8.3057740">
        <ele>193.4</ele>
        <time>2022-08-14T17:31:45Z</time>
      </trkpt>
      <trkpt lat="40.7520190" lon="-8.3057650">
        <ele>193.6</ele>
        <time>2022-08-14T17:31:46Z</time>
      </trkpt>
      <trkpt lat="40.7520390" lon="-8.3057470">
        <ele>194.0</ele>
        <time>2022-08-14T17:31:48Z</time>
      </trkpt>
      <trkpt lat="40.7520710" lon="-8.3057260">
        <ele>194.6</ele>
        <time>2022-08-14T17:31:51Z</time>
      </trkpt>
      <trkpt lat="40.7520990" lon="-8.3057150">
        <ele>194.8</ele>
        <time>2022-08-14T17:31:53Z</time>
      </trkpt>
      <trkpt lat="40.7521540" lon="-8.3057130">
        <ele>195.6</ele>
        <time>2022-08-14T17:31:57Z</time>
      </trkpt>
      <trkpt lat="40.7522300" lon="-8.3057250">
        <ele>196.6</ele>
        <time>2022-08-14T17:32:04Z</time>
      </trkpt>
      <trkpt lat="40.7522430" lon="-8.3057610">
        <ele>196.8</ele>
        <time>2022-08-14T17:32:07Z</time>
      </trkpt>
      <trkpt lat="40.7522390" lon="-8.3057760">
        <ele>197.0</ele>
        <time>2022-08-14T17:32:08Z</time>
      </trkpt>
      <trkpt lat="40.7522340" lon="-8.3058060">
        <ele>197.2</ele>
        <time>2022-08-14T17:32:10Z</time>
      </trkpt>
      <trkpt lat="40.7522300" lon="-8.3058490">
        <ele>198.0</ele>
        <time>2022-08-14T17:32:13Z</time>
      </trkpt>
      <trkpt lat="40.7522250" lon="-8.3058620">
        <ele>198.2</ele>
        <time>2022-08-14T17:32:14Z</time>
      </trkpt>
      <trkpt lat="40.7522060" lon="-8.3059060">
        <ele>198.8</ele>
        <time>2022-08-14T17:32:18Z</time>
      </trkpt>
      <trkpt lat="40.7522060" lon="-8.3059320">
        <ele>199.2</ele>
        <time>2022-08-14T17:32:20Z</time>
      </trkpt>
      <trkpt lat="40.7522010" lon="-8.3059580">
        <ele>199.8</ele>
        <time>2022-08-14T17:32:25Z</time>
      </trkpt>
      <trkpt lat="40.7522010" lon="-8.3059580">
        <ele>200.0</ele>
        <time>2022-08-14T17:32:26Z</time>
      </trkpt>
      <trkpt lat="40.7522050" lon="-8.3060700">
        <ele>201.4</ele>
        <time>2022-08-14T17:33:08Z</time>
      </trkpt>
      <trkpt lat="40.7521810" lon="-8.3061530">
        <ele>201.6</ele>
        <time>2022-08-14T17:33:11Z</time>
      </trkpt>
      <trkpt lat="40.7521660" lon="-8.3062470">
        <ele>202.6</ele>
        <time>2022-08-14T17:33:15Z</time>
      </trkpt>
      <trkpt lat="40.7521650" lon="-8.3062960">
        <ele>203.0</ele>
        <time>2022-08-14T17:33:17Z</time>
      </trkpt>
      <trkpt lat="40.7521700" lon="-8.3063220">
        <ele>203.6</ele>
        <time>2022-08-14T17:33:19Z</time>
      </trkpt>
      <trkpt lat="40.7521720" lon="-8.3063450">
        <ele>203.8</ele>
        <time>2022-08-14T17:33:21Z</time>
      </trkpt>
      <trkpt lat="40.7521680" lon="-8.3063550">
        <ele>204.0</ele>
        <time>2022-08-14T17:33:22Z</time>
      </trkpt>
      <trkpt lat="40.7521710" lon="-8.3063630">
        <ele>204.2</ele>
        <time>2022-08-14T17:33:23Z</time>
      </trkpt>
      <trkpt lat="40.7521970" lon="-8.3063750">
        <ele>204.8</ele>
        <time>2022-08-14T17:33:26Z</time>
      </trkpt>
      <trkpt lat="40.7522630" lon="-8.3063890">
        <ele>206.2</ele>
        <time>2022-08-14T17:33:32Z</time>
      </trkpt>
      <trkpt lat="40.7523000" lon="-8.3063910">
        <ele>206.6</ele>
        <time>2022-08-14T17:33:34Z</time>
      </trkpt>
      <trkpt lat="40.7523450" lon="-8.3063810">
        <ele>207.2</ele>
        <time>2022-08-14T17:33:37Z</time>
      </trkpt>
      <trkpt lat="40.7524000" lon="-8.3063530">
        <ele>208.0</ele>
        <time>2022-08-14T17:33:41Z</time>
      </trkpt>
      <trkpt lat="40.7524140" lon="-8.3063480">
        <ele>208.4</ele>
        <time>2022-08-14T17:33:42Z</time>
      </trkpt>
      <trkpt lat="40.7525130" lon="-8.3063560">
        <ele>209.2</ele>
        <time>2022-08-14T17:33:48Z</time>
      </trkpt>
      <trkpt lat="40.7525290" lon="-8.3063530">
        <ele>209.4</ele>
        <time>2022-08-14T17:33:49Z</time>
      </trkpt>
      <trkpt lat="40.7526030" lon="-8.3063690">
        <ele>210.8</ele>
        <time>2022-08-14T17:33:54Z</time>
      </trkpt>
      <trkpt lat="40.7526200" lon="-8.3063710">
        <ele>211.0</ele>
        <time>2022-08-14T17:33:55Z</time>
      </trkpt>
      <trkpt lat="40.7526780" lon="-8.3064220">
        <ele>211.8</ele>
        <time>2022-08-14T17:34:00Z</time>
      </trkpt>
      <trkpt lat="40.7526970" lon="-8.3064420">
        <ele>212.0</ele>
        <time>2022-08-14T17:34:02Z</time>
      </trkpt>
      <trkpt lat="40.7527350" lon="-8.3064550">
        <ele>212.8</ele>
        <time>2022-08-14T17:34:06Z</time>
      </trkpt>
      <trkpt lat="40.7527420" lon="-8.3064700">
        <ele>213.0</ele>
        <time>2022-08-14T17:34:07Z</time>
      </trkpt>
      <trkpt lat="40.7527460" lon="-8.3064860">
        <ele>213.4</ele>
        <time>2022-08-14T17:34:08Z</time>
      </trkpt>
      <trkpt lat="40.7527510" lon="-8.3065160">
        <ele>214.0</ele>
        <time>2022-08-14T17:34:10Z</time>
      </trkpt>
      <trkpt lat="40.7527570" lon="-8.3065290">
        <ele>214.2</ele>
        <time>2022-08-14T17:34:11Z</time>
      </trkpt>
      <trkpt lat="40.7527670" lon="-8.3065410">
        <ele>214.6</ele>
        <time>2022-08-14T17:34:12Z</time>
      </trkpt>
      <trkpt lat="40.7527910" lon="-8.3065580">
        <ele>215.2</ele>
        <time>2022-08-14T17:34:14Z</time>
      </trkpt>
      <trkpt lat="40.7528010" lon="-8.3065690">
        <ele>215.4</ele>
        <time>2022-08-14T17:34:15Z</time>
      </trkpt>
      <trkpt lat="40.7528420" lon="-8.3066610">
        <ele>216.4</ele>
        <time>2022-08-14T17:34:20Z</time>
      </trkpt>
      <trkpt lat="40.7528630" lon="-8.3066870">
        <ele>217.2</ele>
        <time>2022-08-14T17:34:22Z</time>
      </trkpt>
      <trkpt lat="40.7528860" lon="-8.3067090">
        <ele>217.8</ele>
        <time>2022-08-14T17:34:24Z</time>
      </trkpt>
      <trkpt lat="40.7529260" lon="-8.3067890">
        <ele>219.0</ele>
        <time>2022-08-14T17:34:29Z</time>
      </trkpt>
      <trkpt lat="40.7529500" lon="-8.3068660">
        <ele>220.2</ele>
        <time>2022-08-14T17:34:33Z</time>
      </trkpt>
      <trkpt lat="40.7529730" lon="-8.3069160">
        <ele>221.0</ele>
        <time>2022-08-14T17:34:36Z</time>
      </trkpt>
      <trkpt lat="40.7529760" lon="-8.3069540">
        <ele>221.4</ele>
        <time>2022-08-14T17:34:38Z</time>
      </trkpt>
      <trkpt lat="40.7529770" lon="-8.3069740">
        <ele>221.6</ele>
        <time>2022-08-14T17:34:39Z</time>
      </trkpt>
      <trkpt lat="40.7529890" lon="-8.3070610">
        <ele>222.4</ele>
        <time>2022-08-14T17:34:43Z</time>
      </trkpt>
      <trkpt lat="40.7530060" lon="-8.3071090">
        <ele>222.8</ele>
        <time>2022-08-14T17:34:45Z</time>
      </trkpt>
      <trkpt lat="40.7530220" lon="-8.3071440">
        <ele>223.0</ele>
        <time>2022-08-14T17:34:47Z</time>
      </trkpt>
      <trkpt lat="40.7530460" lon="-8.3072050">
        <ele>223.6</ele>
        <time>2022-08-14T17:34:51Z</time>
      </trkpt>
      <trkpt lat="40.7530610" lon="-8.3072710">
        <ele>224.0</ele>
        <time>2022-08-14T17:34:54Z</time>
      </trkpt>
      <trkpt lat="40.7530710" lon="-8.3072860">
        <ele>224.2</ele>
        <time>2022-08-14T17:34:55Z</time>
      </trkpt>
      <trkpt lat="40.7530990" lon="-8.3073320">
        <ele>224.6</ele>
        <time>2022-08-14T17:34:58Z</time>
      </trkpt>
      <trkpt lat="40.7531080" lon="-8.3073770">
        <ele>224.8</ele>
        <time>2022-08-14T17:35:00Z</time>
      </trkpt>
      <trkpt lat="40.7531150" lon="-8.3074620">
        <ele>225.6</ele>
        <time>2022-08-14T17:35:04Z</time>
      </trkpt>
      <trkpt lat="40.7531060" lon="-8.3075300">
        <ele>226.0</ele>
        <time>2022-08-14T17:35:07Z</time>
      </trkpt>
      <trkpt lat="40.7531050" lon="-8.3075490">
        <ele>226.2</ele>
        <time>2022-08-14T17:35:08Z</time>
      </trkpt>
      <trkpt lat="40.7531270" lon="-8.3075830">
        <ele>226.6</ele>
        <time>2022-08-14T17:35:10Z</time>
      </trkpt>
      <trkpt lat="40.7531400" lon="-8.3075870">
        <ele>226.8</ele>
        <time>2022-08-14T17:35:11Z</time>
      </trkpt>
      <trkpt lat="40.7531510" lon="-8.3075790">
        <ele>226.8</ele>
        <time>2022-08-14T17:35:12Z</time>
      </trkpt>
      <trkpt lat="40.7532000" lon="-8.3075220">
        <ele>227.4</ele>
        <time>2022-08-14T17:35:16Z</time>
      </trkpt>
      <trkpt lat="40.7532220" lon="-8.3074960">
        <ele>227.8</ele>
        <time>2022-08-14T17:35:18Z</time>
      </trkpt>
      <trkpt lat="40.7532530" lon="-8.3074140">
        <ele>228.6</ele>
        <time>2022-08-14T17:35:22Z</time>
      </trkpt>
      <trkpt lat="40.7532680" lon="-8.3073720">
        <ele>229.0</ele>
        <time>2022-08-14T17:35:24Z</time>
      </trkpt>
      <trkpt lat="40.7532900" lon="-8.3073200">
        <ele>229.8</ele>
        <time>2022-08-14T17:35:27Z</time>
      </trkpt>
      <trkpt lat="40.7532860" lon="-8.3073040">
        <ele>230.2</ele>
        <time>2022-08-14T17:35:28Z</time>
      </trkpt>
      <trkpt lat="40.7532900" lon="-8.3072890">
        <ele>230.4</ele>
        <time>2022-08-14T17:35:29Z</time>
      </trkpt>
      <trkpt lat="40.7533090" lon="-8.3072930">
        <ele>230.8</ele>
        <time>2022-08-14T17:35:31Z</time>
      </trkpt>
      <trkpt lat="40.7533140" lon="-8.3073060">
        <ele>231.2</ele>
        <time>2022-08-14T17:35:32Z</time>
      </trkpt>
      <trkpt lat="40.7533240" lon="-8.3073720">
        <ele>231.4</ele>
        <time>2022-08-14T17:35:35Z</time>
      </trkpt>
      <trkpt lat="40.7533280" lon="-8.3073890">
        <ele>231.8</ele>
        <time>2022-08-14T17:35:36Z</time>
      </trkpt>
      <trkpt lat="40.7533470" lon="-8.3074320">
        <ele>232.4</ele>
        <time>2022-08-14T17:35:39Z</time>
      </trkpt>
      <trkpt lat="40.7533590" lon="-8.3074850">
        <ele>233.2</ele>
        <time>2022-08-14T17:35:42Z</time>
      </trkpt>
      <trkpt lat="40.7533680" lon="-8.3075020">
        <ele>233.2</ele>
        <time>2022-08-14T17:35:43Z</time>
      </trkpt>
      <trkpt lat="40.7533850" lon="-8.3075330">
        <ele>233.4</ele>
        <time>2022-08-14T17:35:45Z</time>
      </trkpt>
      <trkpt lat="40.7534010" lon="-8.3075970">
        <ele>234.4</ele>
        <time>2022-08-14T17:35:49Z</time>
      </trkpt>
      <trkpt lat="40.7533990" lon="-8.3076120">
        <ele>234.6</ele>
        <time>2022-08-14T17:35:50Z</time>
      </trkpt>
      <trkpt lat="40.7534020" lon="-8.3076240">
        <ele>235.0</ele>
        <time>2022-08-14T17:35:51Z</time>
      </trkpt>
      <trkpt lat="40.7534110" lon="-8.3076560">
        <ele>235.8</ele>
        <time>2022-08-14T17:35:53Z</time>
      </trkpt>
      <trkpt lat="40.7534090" lon="-8.3076720">
        <ele>235.8</ele>
        <time>2022-08-14T17:35:54Z</time>
      </trkpt>
      <trkpt lat="40.7534080" lon="-8.3076880">
        <ele>236.4</ele>
        <time>2022-08-14T17:35:55Z</time>
      </trkpt>
      <trkpt lat="40.7534080" lon="-8.3077270">
        <ele>237.0</ele>
        <time>2022-08-14T17:35:57Z</time>
      </trkpt>
      <trkpt lat="40.7534070" lon="-8.3078170">
        <ele>237.8</ele>
        <time>2022-08-14T17:36:02Z</time>
      </trkpt>
      <trkpt lat="40.7534090" lon="-8.3078320">
        <ele>238.2</ele>
        <time>2022-08-14T17:36:03Z</time>
      </trkpt>
      <trkpt lat="40.7534090" lon="-8.3078630">
        <ele>239.0</ele>
        <time>2022-08-14T17:36:06Z</time>
      </trkpt>
      <trkpt lat="40.7534050" lon="-8.3078960">
        <ele>239.6</ele>
        <time>2022-08-14T17:36:07Z</time>
      </trkpt>
      <trkpt lat="40.7533950" lon="-8.3079930">
        <ele>240.2</ele>
        <time>2022-08-14T17:36:12Z</time>
      </trkpt>
      <trkpt lat="40.7534020" lon="-8.3080110">
        <ele>240.8</ele>
        <time>2022-08-14T17:36:13Z</time>
      </trkpt>
      <trkpt lat="40.7534300" lon="-8.3080540">
        <ele>241.6</ele>
        <time>2022-08-14T17:36:16Z</time>
      </trkpt>
      <trkpt lat="40.7534830" lon="-8.3080780">
        <ele>242.8</ele>
        <time>2022-08-14T17:36:20Z</time>
      </trkpt>
      <trkpt lat="40.7535380" lon="-8.3080720">
        <ele>244.0</ele>
        <time>2022-08-14T17:36:24Z</time>
      </trkpt>
      <trkpt lat="40.7535730" lon="-8.3080490">
        <ele>244.8</ele>
        <time>2022-08-14T17:36:27Z</time>
      </trkpt>
      <trkpt lat="40.7535820" lon="-8.3080410">
        <ele>245.2</ele>
        <time>2022-08-14T17:36:28Z</time>
      </trkpt>
      <trkpt lat="40.7536010" lon="-8.3080140">
        <ele>246.0</ele>
        <time>2022-08-14T17:36:31Z</time>
      </trkpt>
      <trkpt lat="40.7536090" lon="-8.3080190">
        <ele>246.2</ele>
        <time>2022-08-14T17:36:32Z</time>
      </trkpt>
      <trkpt lat="40.7536110" lon="-8.3080280">
        <ele>246.4</ele>
        <time>2022-08-14T17:36:33Z</time>
      </trkpt>
      <trkpt lat="40.7536030" lon="-8.3080480">
        <ele>246.8</ele>
        <time>2022-08-14T17:36:35Z</time>
      </trkpt>
      <trkpt lat="40.7535820" lon="-8.3080600">
        <ele>247.0</ele>
        <time>2022-08-14T17:36:37Z</time>
      </trkpt>
      <trkpt lat="40.7535700" lon="-8.3080720">
        <ele>247.0</ele>
        <time>2022-08-14T17:36:38Z</time>
      </trkpt>
      <trkpt lat="40.7535100" lon="-8.3081400">
        <ele>246.6</ele>
        <time>2022-08-14T17:36:44Z</time>
      </trkpt>
      <trkpt lat="40.7534610" lon="-8.3082380">
        <ele>246.4</ele>
        <time>2022-08-14T17:36:48Z</time>
      </trkpt>
      <trkpt lat="40.7534610" lon="-8.3082380">
        <ele>246.0</ele>
        <time>2022-08-14T17:36:50Z</time>
      </trkpt>
      <trkpt lat="40.7534870" lon="-8.3081820">
        <ele>244.6</ele>
        <time>2022-08-14T17:37:03Z</time>
      </trkpt>
      <trkpt lat="40.7535040" lon="-8.3081190">
        <ele>244.6</ele>
        <time>2022-08-14T17:37:06Z</time>
      </trkpt>
      <trkpt lat="40.7535340" lon="-8.3080720">
        <ele>244.8</ele>
        <time>2022-08-14T17:37:09Z</time>
      </trkpt>
      <trkpt lat="40.7536210" lon="-8.3080440">
        <ele>245.6</ele>
        <time>2022-08-14T17:37:15Z</time>
      </trkpt>
      <trkpt lat="40.7536330" lon="-8.3080520">
        <ele>246.0</ele>
        <time>2022-08-14T17:37:16Z</time>
      </trkpt>
      <trkpt lat="40.7536780" lon="-8.3080710">
        <ele>246.8</ele>
        <time>2022-08-14T17:37:19Z</time>
      </trkpt>
      <trkpt lat="40.7536960" lon="-8.3080730">
        <ele>247.2</ele>
        <time>2022-08-14T17:37:23Z</time>
      </trkpt>
      <trkpt lat="40.7537460" lon="-8.3080690">
        <ele>248.0</ele>
        <time>2022-08-14T17:37:51Z</time>
      </trkpt>
      <trkpt lat="40.7538980" lon="-8.3080900">
        <ele>248.0</ele>
        <time>2022-08-14T17:37:58Z</time>
      </trkpt>
      <trkpt lat="40.7539490" lon="-8.3081050">
        <ele>248.0</ele>
        <time>2022-08-14T17:38:01Z</time>
      </trkpt>
      <trkpt lat="40.7539670" lon="-8.3081080">
        <ele>248.0</ele>
        <time>2022-08-14T17:38:03Z</time>
      </trkpt>
      <trkpt lat="40.7540470" lon="-8.3081750">
        <ele>248.0</ele>
        <time>2022-08-14T17:38:08Z</time>
      </trkpt>
      <trkpt lat="40.7540740" lon="-8.3081840">
        <ele>248.0</ele>
        <time>2022-08-14T17:38:10Z</time>
      </trkpt>
      <trkpt lat="40.7541200" lon="-8.3081830">
        <ele>248.0</ele>
        <time>2022-08-14T17:38:13Z</time>
      </trkpt>
      <trkpt lat="40.7541300" lon="-8.3081820">
        <ele>248.0</ele>
        <time>2022-08-14T17:38:14Z</time>
      </trkpt>
      <trkpt lat="40.7541510" lon="-8.3081660">
        <ele>248.2</ele>
        <time>2022-08-14T17:38:17Z</time>
      </trkpt>
      <trkpt lat="40.7541590" lon="-8.3081620">
        <ele>248.2</ele>
        <time>2022-08-14T17:38:18Z</time>
      </trkpt>
      <trkpt lat="40.7541670" lon="-8.3081530">
        <ele>248.2</ele>
        <time>2022-08-14T17:38:19Z</time>
      </trkpt>
      <trkpt lat="40.7541810" lon="-8.3081490">
        <ele>249.0</ele>
        <time>2022-08-14T17:38:22Z</time>
      </trkpt>
      <trkpt lat="40.7541950" lon="-8.3081580">
        <ele>249.4</ele>
        <time>2022-08-14T17:38:23Z</time>
      </trkpt>
      <trkpt lat="40.7542110" lon="-8.3081740">
        <ele>249.6</ele>
        <time>2022-08-14T17:38:24Z</time>
      </trkpt>
      <trkpt lat="40.7542480" lon="-8.3082100">
        <ele>250.0</ele>
        <time>2022-08-14T17:38:26Z</time>
      </trkpt>
      <trkpt lat="40.7542800" lon="-8.3082440">
        <ele>250.2</ele>
        <time>2022-08-14T17:38:28Z</time>
      </trkpt>
      <trkpt lat="40.7543670" lon="-8.3083180">
        <ele>251.0</ele>
        <time>2022-08-14T17:38:33Z</time>
      </trkpt>
      <trkpt lat="40.7543990" lon="-8.3083410">
        <ele>251.0</ele>
        <time>2022-08-14T17:38:34Z</time>
      </trkpt>
      <trkpt lat="40.7545160" lon="-8.3084650">
        <ele>251.4</ele>
        <time>2022-08-14T17:38:39Z</time>
      </trkpt>
      <trkpt lat="40.7545990" lon="-8.3086480">
        <ele>251.6</ele>
        <time>2022-08-14T17:38:45Z</time>
      </trkpt>
      <trkpt lat="40.7546240" lon="-8.3087120">
        <ele>251.6</ele>
        <time>2022-08-14T17:38:48Z</time>
      </trkpt>
      <trkpt lat="40.7546380" lon="-8.3087240">
        <ele>251.6</ele>
        <time>2022-08-14T17:38:49Z</time>
      </trkpt>
      <trkpt lat="40.7546970" lon="-8.3087520">
        <ele>251.8</ele>
        <time>2022-08-14T17:38:53Z</time>
      </trkpt>
      <trkpt lat="40.7547370" lon="-8.3087610">
        <ele>252.0</ele>
        <time>2022-08-14T17:38:56Z</time>
      </trkpt>
      <trkpt lat="40.7547490" lon="-8.3087640">
        <ele>252.2</ele>
        <time>2022-08-14T17:38:57Z</time>
      </trkpt>
      <trkpt lat="40.7547830" lon="-8.3087790">
        <ele>252.8</ele>
        <time>2022-08-14T17:39:00Z</time>
      </trkpt>
      <trkpt lat="40.7548120" lon="-8.3087870">
        <ele>253.0</ele>
        <time>2022-08-14T17:39:02Z</time>
      </trkpt>
      <trkpt lat="40.7548550" lon="-8.3087880">
        <ele>253.2</ele>
        <time>2022-08-14T17:39:06Z</time>
      </trkpt>
      <trkpt lat="40.7549080" lon="-8.3087920">
        <ele>253.6</ele>
        <time>2022-08-14T17:39:11Z</time>
      </trkpt>
      <trkpt lat="40.7549820" lon="-8.3087740">
        <ele>254.2</ele>
        <time>2022-08-14T17:39:17Z</time>
      </trkpt>
      <trkpt lat="40.7549870" lon="-8.3087700">
        <ele>254.4</ele>
        <time>2022-08-14T17:39:18Z</time>
      </trkpt>
      <trkpt lat="40.7549930" lon="-8.3087640">
        <ele>254.8</ele>
        <time>2022-08-14T17:39:19Z</time>
      </trkpt>
      <trkpt lat="40.7550370" lon="-8.3087620">
        <ele>255.6</ele>
        <time>2022-08-14T17:39:23Z</time>
      </trkpt>
      <trkpt lat="40.7550620" lon="-8.3087590">
        <ele>255.6</ele>
        <time>2022-08-14T17:39:25Z</time>
      </trkpt>
      <trkpt lat="40.7550980" lon="-8.3087490">
        <ele>255.8</ele>
        <time>2022-08-14T17:39:28Z</time>
      </trkpt>
      <trkpt lat="40.7551350" lon="-8.3086970">
        <ele>256.4</ele>
        <time>2022-08-14T17:39:32Z</time>
      </trkpt>
      <trkpt lat="40.7551390" lon="-8.3086780">
        <ele>256.8</ele>
        <time>2022-08-14T17:39:33Z</time>
      </trkpt>
      <trkpt lat="40.7552080" lon="-8.3085300">
        <ele>257.8</ele>
        <time>2022-08-14T17:39:41Z</time>
      </trkpt>
      <trkpt lat="40.7552800" lon="-8.3084390">
        <ele>258.8</ele>
        <time>2022-08-14T17:39:47Z</time>
      </trkpt>
      <trkpt lat="40.7553120" lon="-8.3084240">
        <ele>259.2</ele>
        <time>2022-08-14T17:39:49Z</time>
      </trkpt>
      <trkpt lat="40.7554260" lon="-8.3083640">
        <ele>260.0</ele>
        <time>2022-08-14T17:39:57Z</time>
      </trkpt>
      <trkpt lat="40.7554410" lon="-8.3083580">
        <ele>260.2</ele>
        <time>2022-08-14T17:39:59Z</time>
      </trkpt>
      <trkpt lat="40.7555010" lon="-8.3083300">
        <ele>261.0</ele>
        <time>2022-08-14T17:40:04Z</time>
      </trkpt>
      <trkpt lat="40.7555450" lon="-8.3083190">
        <ele>261.2</ele>
        <time>2022-08-14T17:40:08Z</time>
      </trkpt>
      <trkpt lat="40.7556590" lon="-8.3083040">
        <ele>262.0</ele>
        <time>2022-08-14T17:40:16Z</time>
      </trkpt>
      <trkpt lat="40.7556700" lon="-8.3083040">
        <ele>262.2</ele>
        <time>2022-08-14T17:40:17Z</time>
      </trkpt>
      <trkpt lat="40.7557520" lon="-8.3083220">
        <ele>263.2</ele>
        <time>2022-08-14T17:40:23Z</time>
      </trkpt>
      <trkpt lat="40.7558050" lon="-8.3083240">
        <ele>263.4</ele>
        <time>2022-08-14T17:40:26Z</time>
      </trkpt>
      <trkpt lat="40.7558700" lon="-8.3083060">
        <ele>263.8</ele>
        <time>2022-08-14T17:40:31Z</time>
      </trkpt>
      <trkpt lat="40.7558870" lon="-8.3082980">
        <ele>264.0</ele>
        <time>2022-08-14T17:40:33Z</time>
      </trkpt>
      <trkpt lat="40.7559160" lon="-8.3082950">
        <ele>264.2</ele>
        <time>2022-08-14T17:40:35Z</time>
      </trkpt>
      <trkpt lat="40.7560380" lon="-8.3082940">
        <ele>265.2</ele>
        <time>2022-08-14T17:40:43Z</time>
      </trkpt>
      <trkpt lat="40.7561530" lon="-8.3082860">
        <ele>266.0</ele>
        <time>2022-08-14T17:40:51Z</time>
      </trkpt>
      <trkpt lat="40.7561910" lon="-8.3082870">
        <ele>266.4</ele>
        <time>2022-08-14T17:40:54Z</time>
      </trkpt>
      <trkpt lat="40.7562830" lon="-8.3082690">
        <ele>267.0</ele>
        <time>2022-08-14T17:41:00Z</time>
      </trkpt>
      <trkpt lat="40.7563750" lon="-8.3082160">
        <ele>267.4</ele>
        <time>2022-08-14T17:41:07Z</time>
      </trkpt>
      <trkpt lat="40.7563820" lon="-8.3082040">
        <ele>267.4</ele>
        <time>2022-08-14T17:41:08Z</time>
      </trkpt>
      <trkpt lat="40.7564430" lon="-8.3080530">
        <ele>268.2</ele>
        <time>2022-08-14T17:41:16Z</time>
      </trkpt>
      <trkpt lat="40.7564540" lon="-8.3080220">
        <ele>268.8</ele>
        <time>2022-08-14T17:41:18Z</time>
      </trkpt>
      <trkpt lat="40.7564760" lon="-8.3078800">
        <ele>269.4</ele>
        <time>2022-08-14T17:41:25Z</time>
      </trkpt>
      <trkpt lat="40.7564720" lon="-8.3078370">
        <ele>269.8</ele>
        <time>2022-08-14T17:41:27Z</time>
      </trkpt>
      <trkpt lat="40.7564660" lon="-8.3076780">
        <ele>270.6</ele>
        <time>2022-08-14T17:41:34Z</time>
      </trkpt>
      <trkpt lat="40.7564720" lon="-8.3076250">
        <ele>270.8</ele>
        <time>2022-08-14T17:41:36Z</time>
      </trkpt>
      <trkpt lat="40.7565040" lon="-8.3074270">
        <ele>271.6</ele>
        <time>2022-08-14T17:41:43Z</time>
      </trkpt>
      <trkpt lat="40.7565600" lon="-8.3072320">
        <ele>271.8</ele>
        <time>2022-08-14T17:41:51Z</time>
      </trkpt>
      <trkpt lat="40.7566110" lon="-8.3071460">
        <ele>272.0</ele>
        <time>2022-08-14T17:41:55Z</time>
      </trkpt>
      <trkpt lat="40.7566640" lon="-8.3070730">
        <ele>272.2</ele>
        <time>2022-08-14T17:41:59Z</time>
      </trkpt>
      <trkpt lat="40.7566760" lon="-8.3070440">
        <ele>272.8</ele>
        <time>2022-08-14T17:42:02Z</time>
      </trkpt>
      <trkpt lat="40.7566890" lon="-8.3070050">
        <ele>272.8</ele>
        <time>2022-08-14T17:42:04Z</time>
      </trkpt>
      <trkpt lat="40.7567290" lon="-8.3069550">
        <ele>273.2</ele>
        <time>2022-08-14T17:42:07Z</time>
      </trkpt>
      <trkpt lat="40.7568190" lon="-8.3068680">
        <ele>273.6</ele>
        <time>2022-08-14T17:42:13Z</time>
      </trkpt>
      <trkpt lat="40.7568540" lon="-8.3068640">
        <ele>273.8</ele>
        <time>2022-08-14T17:42:15Z</time>
      </trkpt>
      <trkpt lat="40.7569030" lon="-8.3068910">
        <ele>274.4</ele>
        <time>2022-08-14T17:42:18Z</time>
      </trkpt>
      <trkpt lat="40.7569160" lon="-8.3069030">
        <ele>274.6</ele>
        <time>2022-08-14T17:42:19Z</time>
      </trkpt>
      <trkpt lat="40.7569310" lon="-8.3069120">
        <ele>274.8</ele>
        <time>2022-08-14T17:42:20Z</time>
      </trkpt>
      <trkpt lat="40.7569790" lon="-8.3069380">
        <ele>275.6</ele>
        <time>2022-08-14T17:42:23Z</time>
      </trkpt>
      <trkpt lat="40.7569990" lon="-8.3069410">
        <ele>276.0</ele>
        <time>2022-08-14T17:42:25Z</time>
      </trkpt>
      <trkpt lat="40.7570520" lon="-8.3069460">
        <ele>276.8</ele>
        <time>2022-08-14T17:42:29Z</time>
      </trkpt>
      <trkpt lat="40.7570660" lon="-8.3069550">
        <ele>276.8</ele>
        <time>2022-08-14T17:42:30Z</time>
      </trkpt>
      <trkpt lat="40.7571270" lon="-8.3069780">
        <ele>277.8</ele>
        <time>2022-08-14T17:42:34Z</time>
      </trkpt>
      <trkpt lat="40.7571850" lon="-8.3069940">
        <ele>278.2</ele>
        <time>2022-08-14T17:42:38Z</time>
      </trkpt>
      <trkpt lat="40.7571900" lon="-8.3070010">
        <ele>278.4</ele>
        <time>2022-08-14T17:42:39Z</time>
      </trkpt>
      <trkpt lat="40.7572080" lon="-8.3070230">
        <ele>279.0</ele>
        <time>2022-08-14T17:42:41Z</time>
      </trkpt>
      <trkpt lat="40.7572230" lon="-8.3070310">
        <ele>279.4</ele>
        <time>2022-08-14T17:42:42Z</time>
      </trkpt>
      <trkpt lat="40.7572410" lon="-8.3070270">
        <ele>279.6</ele>
        <time>2022-08-14T17:42:43Z</time>
      </trkpt>
      <trkpt lat="40.7573050" lon="-8.3070270">
        <ele>280.2</ele>
        <time>2022-08-14T17:42:47Z</time>
      </trkpt>
      <trkpt lat="40.7573140" lon="-8.3070270">
        <ele>280.2</ele>
        <time>2022-08-14T17:42:48Z</time>
      </trkpt>
      <trkpt lat="40.7573370" lon="-8.3070410">
        <ele>280.4</ele>
        <time>2022-08-14T17:42:50Z</time>
      </trkpt>
      <trkpt lat="40.7574120" lon="-8.3070740">
        <ele>280.8</ele>
        <time>2022-08-14T17:42:54Z</time>
      </trkpt>
      <trkpt lat="40.7574380" lon="-8.3070920">
        <ele>281.2</ele>
        <time>2022-08-14T17:42:56Z</time>
      </trkpt>
      <trkpt lat="40.7574430" lon="-8.3071050">
        <ele>281.4</ele>
        <time>2022-08-14T17:42:57Z</time>
      </trkpt>
      <trkpt lat="40.7574690" lon="-8.3071350">
        <ele>281.6</ele>
        <time>2022-08-14T17:42:59Z</time>
      </trkpt>
      <trkpt lat="40.7574890" lon="-8.3071430">
        <ele>281.6</ele>
        <time>2022-08-14T17:43:00Z</time>
      </trkpt>
      <trkpt lat="40.7576050" lon="-8.3071380">
        <ele>282.0</ele>
        <time>2022-08-14T17:43:06Z</time>
      </trkpt>
      <trkpt lat="40.7577440" lon="-8.3071840">
        <ele>281.8</ele>
        <time>2022-08-14T17:43:12Z</time>
      </trkpt>
      <trkpt lat="40.7579130" lon="-8.3072010">
        <ele>281.8</ele>
        <time>2022-08-14T17:43:19Z</time>
      </trkpt>
      <trkpt lat="40.7580990" lon="-8.3072320">
        <ele>282.0</ele>
        <time>2022-08-14T17:43:28Z</time>
      </trkpt>
      <trkpt lat="40.7582350" lon="-8.3073150">
        <ele>282.2</ele>
        <time>2022-08-14T17:43:35Z</time>
      </trkpt>
      <trkpt lat="40.7582540" lon="-8.3073370">
        <ele>282.4</ele>
        <time>2022-08-14T17:43:36Z</time>
      </trkpt>
      <trkpt lat="40.7582820" lon="-8.3073680">
        <ele>282.6</ele>
        <time>2022-08-14T17:43:38Z</time>
      </trkpt>
      <trkpt lat="40.7584140" lon="-8.3075420">
        <ele>283.0</ele>
        <time>2022-08-14T17:43:47Z</time>
      </trkpt>
      <trkpt lat="40.7584640" lon="-8.3076050">
        <ele>283.6</ele>
        <time>2022-08-14T17:43:51Z</time>
      </trkpt>
      <trkpt lat="40.7584870" lon="-8.3076520">
        <ele>284.4</ele>
        <time>2022-08-14T17:43:54Z</time>
      </trkpt>
      <trkpt lat="40.7585110" lon="-8.3077150">
        <ele>284.6</ele>
        <time>2022-08-14T17:43:59Z</time>
      </trkpt>
      <trkpt lat="40.7585140" lon="-8.3077140">
        <ele>285.0</ele>
        <time>2022-08-14T17:44:00Z</time>
      </trkpt>
      <trkpt lat="40.7585270" lon="-8.3077510">
        <ele>285.8</ele>
        <time>2022-08-14T17:44:05Z</time>
      </trkpt>
      <trkpt lat="40.7585330" lon="-8.3077610">
        <ele>286.0</ele>
        <time>2022-08-14T17:44:07Z</time>
      </trkpt>
      <trkpt lat="40.7585370" lon="-8.3077700">
        <ele>286.4</ele>
        <time>2022-08-14T17:44:14Z</time>
      </trkpt>
      <trkpt lat="40.7585370" lon="-8.3077700">
        <ele>286.4</ele>
        <time>2022-08-14T17:44:15Z</time>
      </trkpt>
      <trkpt lat="40.7584900" lon="-8.3077560">
        <ele>285.2</ele>
        <time>2022-08-14T17:54:30Z</time>
      </trkpt>
      <trkpt lat="40.7584320" lon="-8.3077980">
        <ele>285.0</ele>
        <time>2022-08-14T17:54:32Z</time>
      </trkpt>
      <trkpt lat="40.7582600" lon="-8.3079260">
        <ele>284.8</ele>
        <time>2022-08-14T17:54:37Z</time>
      </trkpt>
      <trkpt lat="40.7581820" lon="-8.3080120">
        <ele>284.0</ele>
        <time>2022-08-14T17:54:40Z</time>
      </trkpt>
      <trkpt lat="40.7580900" lon="-8.3080850">
        <ele>283.6</ele>
        <time>2022-08-14T17:54:43Z</time>
      </trkpt>
      <trkpt lat="40.7579790" lon="-8.3081920">
        <ele>283.2</ele>
        <time>2022-08-14T17:54:47Z</time>
      </trkpt>
      <trkpt lat="40.7579770" lon="-8.3082370">
        <ele>283.0</ele>
        <time>2022-08-14T17:54:48Z</time>
      </trkpt>
      <trkpt lat="40.7579820" lon="-8.3083070">
        <ele>282.8</ele>
        <time>2022-08-14T17:54:50Z</time>
      </trkpt>
      <trkpt lat="40.7579930" lon="-8.3083370">
        <ele>282.6</ele>
        <time>2022-08-14T17:54:51Z</time>
      </trkpt>
      <trkpt lat="40.7580720" lon="-8.3084810">
        <ele>282.4</ele>
        <time>2022-08-14T17:54:57Z</time>
      </trkpt>
      <trkpt lat="40.7582030" lon="-8.3086700">
        <ele>283.2</ele>
        <time>2022-08-14T17:55:05Z</time>
      </trkpt>
      <trkpt lat="40.7583280" lon="-8.3087630">
        <ele>283.6</ele>
        <time>2022-08-14T17:55:12Z</time>
      </trkpt>
      <trkpt lat="40.7584040" lon="-8.3088260">
        <ele>284.0</ele>
        <time>2022-08-14T17:55:16Z</time>
      </trkpt>
      <trkpt lat="40.7584600" lon="-8.3088900">
        <ele>284.6</ele>
        <time>2022-08-14T17:55:19Z</time>
      </trkpt>
      <trkpt lat="40.7585270" lon="-8.3089370">
        <ele>285.2</ele>
        <time>2022-08-14T17:55:23Z</time>
      </trkpt>
      <trkpt lat="40.7585520" lon="-8.3089710">
        <ele>285.4</ele>
        <time>2022-08-14T17:55:25Z</time>
      </trkpt>
      <trkpt lat="40.7585880" lon="-8.3090960">
        <ele>286.2</ele>
        <time>2022-08-14T17:55:30Z</time>
      </trkpt>
      <trkpt lat="40.7585920" lon="-8.3091180">
        <ele>286.2</ele>
        <time>2022-08-14T17:55:31Z</time>
      </trkpt>
      <trkpt lat="40.7586130" lon="-8.3092740">
        <ele>286.6</ele>
        <time>2022-08-14T17:55:38Z</time>
      </trkpt>
      <trkpt lat="40.7586010" lon="-8.3092900">
        <ele>286.8</ele>
        <time>2022-08-14T17:55:39Z</time>
      </trkpt>
      <trkpt lat="40.7585350" lon="-8.3093720">
        <ele>287.0</ele>
        <time>2022-08-14T17:55:44Z</time>
      </trkpt>
      <trkpt lat="40.7584950" lon="-8.3094450">
        <ele>287.2</ele>
        <time>2022-08-14T17:55:47Z</time>
      </trkpt>
      <trkpt lat="40.7583970" lon="-8.3095660">
        <ele>287.6</ele>
        <time>2022-08-14T17:55:53Z</time>
      </trkpt>
      <trkpt lat="40.7583300" lon="-8.3096460">
        <ele>288.0</ele>
        <time>2022-08-14T17:55:58Z</time>
      </trkpt>
      <trkpt lat="40.7583180" lon="-8.3096390">
        <ele>288.2</ele>
        <time>2022-08-14T17:56:00Z</time>
      </trkpt>
      <trkpt lat="40.7583350" lon="-8.3096230">
        <ele>288.2</ele>
        <time>2022-08-14T17:56:02Z</time>
      </trkpt>
      <trkpt lat="40.7583790" lon="-8.3095930">
        <ele>288.0</ele>
        <time>2022-08-14T17:56:05Z</time>
      </trkpt>
      <trkpt lat="40.7584000" lon="-8.3095880">
        <ele>288.0</ele>
        <time>2022-08-14T17:56:06Z</time>
      </trkpt>
      <trkpt lat="40.7584270" lon="-8.3096080">
        <ele>288.0</ele>
        <time>2022-08-14T17:56:08Z</time>
      </trkpt>
      <trkpt lat="40.7584280" lon="-8.3096270">
        <ele>288.0</ele>
        <time>2022-08-14T17:56:09Z</time>
      </trkpt>
      <trkpt lat="40.7584300" lon="-8.3096520">
        <ele>288.2</ele>
        <time>2022-08-14T17:56:10Z</time>
      </trkpt>
      <trkpt lat="40.7584470" lon="-8.3097350">
        <ele>288.6</ele>
        <time>2022-08-14T17:56:13Z</time>
      </trkpt>
      <trkpt lat="40.7584480" lon="-8.3097540">
        <ele>288.8</ele>
        <time>2022-08-14T17:56:14Z</time>
      </trkpt>
      <trkpt lat="40.7584550" lon="-8.3098020">
        <ele>289.4</ele>
        <time>2022-08-14T17:56:17Z</time>
      </trkpt>
      <trkpt lat="40.7584630" lon="-8.3098550">
        <ele>289.8</ele>
        <time>2022-08-14T17:56:20Z</time>
      </trkpt>
      <trkpt lat="40.7584920" lon="-8.3098990">
        <ele>290.4</ele>
        <time>2022-08-14T17:56:23Z</time>
      </trkpt>
      <trkpt lat="40.7585050" lon="-8.3099210">
        <ele>291.0</ele>
        <time>2022-08-14T17:56:25Z</time>
      </trkpt>
      <trkpt lat="40.7585100" lon="-8.3099640">
        <ele>291.4</ele>
        <time>2022-08-14T17:56:28Z</time>
      </trkpt>
      <trkpt lat="40.7585280" lon="-8.3100350">
        <ele>292.4</ele>
        <time>2022-08-14T17:56:32Z</time>
      </trkpt>
      <trkpt lat="40.7585340" lon="-8.3100540">
        <ele>292.6</ele>
        <time>2022-08-14T17:56:33Z</time>
      </trkpt>
      <trkpt lat="40.7585570" lon="-8.3101280">
        <ele>293.8</ele>
        <time>2022-08-14T17:56:37Z</time>
      </trkpt>
      <trkpt lat="40.7585650" lon="-8.3101630">
        <ele>294.6</ele>
        <time>2022-08-14T17:56:39Z</time>
      </trkpt>
      <trkpt lat="40.7585680" lon="-8.3101800">
        <ele>294.8</ele>
        <time>2022-08-14T17:56:40Z</time>
      </trkpt>
      <trkpt lat="40.7585740" lon="-8.3101950">
        <ele>295.2</ele>
        <time>2022-08-14T17:56:41Z</time>
      </trkpt>
      <trkpt lat="40.7585900" lon="-8.3102700">
        <ele>296.2</ele>
        <time>2022-08-14T17:56:46Z</time>
      </trkpt>
      <trkpt lat="40.7586060" lon="-8.3103020">
        <ele>296.8</ele>
        <time>2022-08-14T17:56:48Z</time>
      </trkpt>
      <trkpt lat="40.7586210" lon="-8.3103430">
        <ele>297.4</ele>
        <time>2022-08-14T17:56:51Z</time>
      </trkpt>
      <trkpt lat="40.7586500" lon="-8.3104100">
        <ele>298.6</ele>
        <time>2022-08-14T17:56:56Z</time>
      </trkpt>
      <trkpt lat="40.7586540" lon="-8.3104240">
        <ele>299.0</ele>
        <time>2022-08-14T17:56:57Z</time>
      </trkpt>
      <trkpt lat="40.7586760" lon="-8.3104340">
        <ele>299.2</ele>
        <time>2022-08-14T17:56:59Z</time>
      </trkpt>
      <trkpt lat="40.7586940" lon="-8.3104310">
        <ele>299.6</ele>
        <time>2022-08-14T17:57:01Z</time>
      </trkpt>
      <trkpt lat="40.7587040" lon="-8.3104300">
        <ele>300.0</ele>
        <time>2022-08-14T17:57:02Z</time>
      </trkpt>
      <trkpt lat="40.7587110" lon="-8.3104360">
        <ele>300.2</ele>
        <time>2022-08-14T17:57:03Z</time>
      </trkpt>
      <trkpt lat="40.7587160" lon="-8.3104700">
        <ele>300.8</ele>
        <time>2022-08-14T17:57:05Z</time>
      </trkpt>
      <trkpt lat="40.7587190" lon="-8.3104940">
        <ele>300.8</ele>
        <time>2022-08-14T17:57:06Z</time>
      </trkpt>
      <trkpt lat="40.7587720" lon="-8.3105920">
        <ele>302.0</ele>
        <time>2022-08-14T17:57:12Z</time>
      </trkpt>
      <trkpt lat="40.7587790" lon="-8.3106010">
        <ele>302.2</ele>
        <time>2022-08-14T17:57:13Z</time>
      </trkpt>
      <trkpt lat="40.7587830" lon="-8.3106100">
        <ele>302.8</ele>
        <time>2022-08-14T17:57:14Z</time>
      </trkpt>
      <trkpt lat="40.7587870" lon="-8.3106140">
        <ele>303.8</ele>
        <time>2022-08-14T17:57:16Z</time>
      </trkpt>
      <trkpt lat="40.7588060" lon="-8.3106430">
        <ele>304.8</ele>
        <time>2022-08-14T17:57:19Z</time>
      </trkpt>
      <trkpt lat="40.7588140" lon="-8.3106590">
        <ele>305.0</ele>
        <time>2022-08-14T17:57:20Z</time>
      </trkpt>
      <trkpt lat="40.7588500" lon="-8.3107030">
        <ele>305.8</ele>
        <time>2022-08-14T17:57:23Z</time>
      </trkpt>
      <trkpt lat="40.7588800" lon="-8.3107420">
        <ele>307.0</ele>
        <time>2022-08-14T17:57:26Z</time>
      </trkpt>
      <trkpt lat="40.7588890" lon="-8.3107590">
        <ele>307.2</ele>
        <time>2022-08-14T17:57:27Z</time>
      </trkpt>
      <trkpt lat="40.7589020" lon="-8.3107750">
        <ele>307.4</ele>
        <time>2022-08-14T17:57:28Z</time>
      </trkpt>
      <trkpt lat="40.7589230" lon="-8.3107900">
        <ele>308.0</ele>
        <time>2022-08-14T17:57:30Z</time>
      </trkpt>
      <trkpt lat="40.7589360" lon="-8.3108030">
        <ele>308.2</ele>
        <time>2022-08-14T17:57:31Z</time>
      </trkpt>
      <trkpt lat="40.7589630" lon="-8.3108300">
        <ele>308.4</ele>
        <time>2022-08-14T17:57:33Z</time>
      </trkpt>
      <trkpt lat="40.7589630" lon="-8.3108570">
        <ele>309.2</ele>
        <time>2022-08-14T17:57:35Z</time>
      </trkpt>
      <trkpt lat="40.7589650" lon="-8.3108650">
        <ele>309.4</ele>
        <time>2022-08-14T17:57:36Z</time>
      </trkpt>
      <trkpt lat="40.7589580" lon="-8.3108930">
        <ele>310.4</ele>
        <time>2022-08-14T17:57:38Z</time>
      </trkpt>
      <trkpt lat="40.7589650" lon="-8.3109070">
        <ele>310.6</ele>
        <time>2022-08-14T17:57:39Z</time>
      </trkpt>
      <trkpt lat="40.7589890" lon="-8.3109300">
        <ele>311.8</ele>
        <time>2022-08-14T17:57:42Z</time>
      </trkpt>
      <trkpt lat="40.7589890" lon="-8.3109300">
        <ele>312.2</ele>
        <time>2022-08-14T17:57:44Z</time>
      </trkpt>
      <trkpt lat="40.7589650" lon="-8.3108780">
        <ele>313.6</ele>
        <time>2022-08-14T17:58:14Z</time>
      </trkpt>
      <trkpt lat="40.7589460" lon="-8.3108590">
        <ele>313.4</ele>
        <time>2022-08-14T17:58:15Z</time>
      </trkpt>
      <trkpt lat="40.7588900" lon="-8.3107670">
        <ele>312.2</ele>
        <time>2022-08-14T17:58:19Z</time>
      </trkpt>
      <trkpt lat="40.7588790" lon="-8.3107430">
        <ele>311.8</ele>
        <time>2022-08-14T17:58:20Z</time>
      </trkpt>
      <trkpt lat="40.7588500" lon="-8.3106860">
        <ele>311.0</ele>
        <time>2022-08-14T17:58:22Z</time>
      </trkpt>
      <trkpt lat="40.7588070" lon="-8.3106240">
        <ele>309.8</ele>
        <time>2022-08-14T17:58:24Z</time>
      </trkpt>
      <trkpt lat="40.7587840" lon="-8.3105960">
        <ele>309.0</ele>
        <time>2022-08-14T17:58:25Z</time>
      </trkpt>
      <trkpt lat="40.7587640" lon="-8.3105810">
        <ele>308.6</ele>
        <time>2022-08-14T17:58:26Z</time>
      </trkpt>
      <trkpt lat="40.7587360" lon="-8.3105860">
        <ele>307.4</ele>
        <time>2022-08-14T17:58:28Z</time>
      </trkpt>
      <trkpt lat="40.7587300" lon="-8.3105850">
        <ele>306.0</ele>
        <time>2022-08-14T17:58:30Z</time>
      </trkpt>
      <trkpt lat="40.7587280" lon="-8.3105840">
        <ele>304.8</ele>
        <time>2022-08-14T17:58:31Z</time>
      </trkpt>
      <trkpt lat="40.7587280" lon="-8.3105840">
        <ele>304.2</ele>
        <time>2022-08-14T17:58:32Z</time>
      </trkpt>
      <trkpt lat="40.7586980" lon="-8.3106030">
        <ele>302.8</ele>
        <time>2022-08-14T17:58:39Z</time>
      </trkpt>
      <trkpt lat="40.7586880" lon="-8.3106000">
        <ele>302.8</ele>
        <time>2022-08-14T17:58:40Z</time>
      </trkpt>
      <trkpt lat="40.7586830" lon="-8.3105970">
        <ele>302.6</ele>
        <time>2022-08-14T17:58:41Z</time>
      </trkpt>
      <trkpt lat="40.7586830" lon="-8.3105970">
        <ele>302.4</ele>
        <time>2022-08-14T17:58:42Z</time>
      </trkpt>
      <trkpt lat="40.7586360" lon="-8.3106440">
        <ele>302.0</ele>
        <time>2022-08-14T17:58:48Z</time>
      </trkpt>
      <trkpt lat="40.7586010" lon="-8.3106570">
        <ele>301.8</ele>
        <time>2022-08-14T17:58:49Z</time>
      </trkpt>
      <trkpt lat="40.7585680" lon="-8.3106630">
        <ele>301.8</ele>
        <time>2022-08-14T17:58:50Z</time>
      </trkpt>
      <trkpt lat="40.7584630" lon="-8.3107290">
        <ele>301.0</ele>
        <time>2022-08-14T17:58:54Z</time>
      </trkpt>
      <trkpt lat="40.7584410" lon="-8.3107450">
        <ele>300.8</ele>
        <time>2022-08-14T17:58:55Z</time>
      </trkpt>
      <trkpt lat="40.7583920" lon="-8.3107910">
        <ele>299.6</ele>
        <time>2022-08-14T17:58:58Z</time>
      </trkpt>
      <trkpt lat="40.7583780" lon="-8.3108140">
        <ele>299.4</ele>
        <time>2022-08-14T17:58:59Z</time>
      </trkpt>
      <trkpt lat="40.7583260" lon="-8.3108810">
        <ele>298.4</ele>
        <time>2022-08-14T17:59:02Z</time>
      </trkpt>
      <trkpt lat="40.7582960" lon="-8.3109650">
        <ele>297.6</ele>
        <time>2022-08-14T17:59:05Z</time>
      </trkpt>
      <trkpt lat="40.7583050" lon="-8.3110200">
        <ele>297.0</ele>
        <time>2022-08-14T17:59:06Z</time>
      </trkpt>
      <trkpt lat="40.7583320" lon="-8.3111780">
        <ele>296.0</ele>
        <time>2022-08-14T17:59:09Z</time>
      </trkpt>
      <trkpt lat="40.7583700" lon="-8.3112580">
        <ele>294.8</ele>
        <time>2022-08-14T17:59:11Z</time>
      </trkpt>
      <trkpt lat="40.7584100" lon="-8.3113550">
        <ele>293.6</ele>
        <time>2022-08-14T17:59:14Z</time>
      </trkpt>
      <trkpt lat="40.7585370" lon="-8.3115580">
        <ele>292.8</ele>
        <time>2022-08-14T17:59:19Z</time>
      </trkpt>
      <trkpt lat="40.7585410" lon="-8.3115970">
        <ele>292.8</ele>
        <time>2022-08-14T17:59:20Z</time>
      </trkpt>
      <trkpt lat="40.7585360" lon="-8.3117160">
        <ele>292.6</ele>
        <time>2022-08-14T17:59:22Z</time>
      </trkpt>
      <trkpt lat="40.7585200" lon="-8.3118320">
        <ele>291.6</ele>
        <time>2022-08-14T17:59:26Z</time>
      </trkpt>
      <trkpt lat="40.7585070" lon="-8.3118490">
        <ele>291.6</ele>
        <time>2022-08-14T17:59:27Z</time>
      </trkpt>
      <trkpt lat="40.7584850" lon="-8.3119180">
        <ele>291.6</ele>
        <time>2022-08-14T17:59:31Z</time>
      </trkpt>
      <trkpt lat="40.7584790" lon="-8.3119300">
        <ele>291.8</ele>
        <time>2022-08-14T17:59:32Z</time>
      </trkpt>
      <trkpt lat="40.7584790" lon="-8.3119800">
        <ele>292.0</ele>
        <time>2022-08-14T17:59:36Z</time>
      </trkpt>
      <trkpt lat="40.7584250" lon="-8.3120480">
        <ele>293.2</ele>
        <time>2022-08-14T17:59:43Z</time>
      </trkpt>
      <trkpt lat="40.7584170" lon="-8.3120590">
        <ele>293.4</ele>
        <time>2022-08-14T17:59:44Z</time>
      </trkpt>
      <trkpt lat="40.7583680" lon="-8.3121270">
        <ele>294.6</ele>
        <time>2022-08-14T17:59:49Z</time>
      </trkpt>
      <trkpt lat="40.7583380" lon="-8.3121420">
        <ele>295.0</ele>
        <time>2022-08-14T17:59:51Z</time>
      </trkpt>
      <trkpt lat="40.7583100" lon="-8.3121680">
        <ele>295.6</ele>
        <time>2022-08-14T17:59:53Z</time>
      </trkpt>
      <trkpt lat="40.7582850" lon="-8.3122370">
        <ele>296.4</ele>
        <time>2022-08-14T17:59:58Z</time>
      </trkpt>
      <trkpt lat="40.7582780" lon="-8.3122930">
        <ele>297.6</ele>
        <time>2022-08-14T18:00:02Z</time>
      </trkpt>
      <trkpt lat="40.7582860" lon="-8.3123300">
        <ele>297.8</ele>
        <time>2022-08-14T18:00:03Z</time>
      </trkpt>
      <trkpt lat="40.7582780" lon="-8.3123790">
        <ele>298.6</ele>
        <time>2022-08-14T18:00:06Z</time>
      </trkpt>
      <trkpt lat="40.7582810" lon="-8.3123970">
        <ele>299.0</ele>
        <time>2022-08-14T18:00:08Z</time>
      </trkpt>
      <trkpt lat="40.7582150" lon="-8.3124950">
        <ele>299.4</ele>
        <time>2022-08-14T18:00:14Z</time>
      </trkpt>
      <trkpt lat="40.7582000" lon="-8.3125110">
        <ele>299.6</ele>
        <time>2022-08-14T18:00:15Z</time>
      </trkpt>
      <trkpt lat="40.7581860" lon="-8.3125440">
        <ele>300.8</ele>
        <time>2022-08-14T18:00:18Z</time>
      </trkpt>
      <trkpt lat="40.7581720" lon="-8.3125640">
        <ele>301.2</ele>
        <time>2022-08-14T18:00:21Z</time>
      </trkpt>
      <trkpt lat="40.7581720" lon="-8.3125640">
        <ele>301.4</ele>
        <time>2022-08-14T18:00:22Z</time>
      </trkpt>
      <trkpt lat="40.7584540" lon="-8.3131300">
        <ele>310.4</ele>
        <time>2022-08-14T18:01:09Z</time>
      </trkpt>
      <trkpt lat="40.7584870" lon="-8.3131720">
        <ele>310.8</ele>
        <time>2022-08-14T18:01:11Z</time>
      </trkpt>
      <trkpt lat="40.7585010" lon="-8.3132130">
        <ele>311.4</ele>
        <time>2022-08-14T18:01:14Z</time>
      </trkpt>
      <trkpt lat="40.7585130" lon="-8.3132620">
        <ele>311.8</ele>
        <time>2022-08-14T18:01:16Z</time>
      </trkpt>
      <trkpt lat="40.7585100" lon="-8.3132810">
        <ele>311.8</ele>
        <time>2022-08-14T18:01:17Z</time>
      </trkpt>
      <trkpt lat="40.7585180" lon="-8.3133160">
        <ele>312.4</ele>
        <time>2022-08-14T18:01:19Z</time>
      </trkpt>
      <trkpt lat="40.7585220" lon="-8.3133600">
        <ele>313.4</ele>
        <time>2022-08-14T18:01:22Z</time>
      </trkpt>
      <trkpt lat="40.7585150" lon="-8.3133800">
        <ele>314.2</ele>
        <time>2022-08-14T18:01:24Z</time>
      </trkpt>
      <trkpt lat="40.7585210" lon="-8.3133940">
        <ele>314.6</ele>
        <time>2022-08-14T18:01:25Z</time>
      </trkpt>
      <trkpt lat="40.7585380" lon="-8.3134280">
        <ele>315.2</ele>
        <time>2022-08-14T18:01:30Z</time>
      </trkpt>
      <trkpt lat="40.7585380" lon="-8.3134280">
        <ele>315.6</ele>
        <time>2022-08-14T18:01:32Z</time>
      </trkpt>
      <trkpt lat="40.7585660" lon="-8.3134860">
        <ele>315.6</ele>
        <time>2022-08-14T18:02:17Z</time>
      </trkpt>
      <trkpt lat="40.7585890" lon="-8.3135420">
        <ele>315.6</ele>
        <time>2022-08-14T18:02:19Z</time>
      </trkpt>
      <trkpt lat="40.7585960" lon="-8.3135860">
        <ele>315.6</ele>
        <time>2022-08-14T18:02:21Z</time>
      </trkpt>
      <trkpt lat="40.7586070" lon="-8.3136300">
        <ele>315.6</ele>
        <time>2022-08-14T18:02:23Z</time>
      </trkpt>
      <trkpt lat="40.7586180" lon="-8.3136480">
        <ele>315.6</ele>
        <time>2022-08-14T18:02:24Z</time>
      </trkpt>
      <trkpt lat="40.7586680" lon="-8.3137210">
        <ele>315.8</ele>
        <time>2022-08-14T18:02:27Z</time>
      </trkpt>
      <trkpt lat="40.7587480" lon="-8.3138550">
        <ele>316.2</ele>
        <time>2022-08-14T18:02:33Z</time>
      </trkpt>
      <trkpt lat="40.7587560" lon="-8.3138780">
        <ele>316.4</ele>
        <time>2022-08-14T18:02:34Z</time>
      </trkpt>
      <trkpt lat="40.7587730" lon="-8.3139230">
        <ele>316.8</ele>
        <time>2022-08-14T18:02:36Z</time>
      </trkpt>
      <trkpt lat="40.7587970" lon="-8.3139640">
        <ele>317.2</ele>
        <time>2022-08-14T18:02:38Z</time>
      </trkpt>
      <trkpt lat="40.7588150" lon="-8.3140490">
        <ele>318.0</ele>
        <time>2022-08-14T18:02:41Z</time>
      </trkpt>
      <trkpt lat="40.7588090" lon="-8.3141200">
        <ele>319.2</ele>
        <time>2022-08-14T18:02:44Z</time>
      </trkpt>
      <trkpt lat="40.7588030" lon="-8.3141410">
        <ele>319.4</ele>
        <time>2022-08-14T18:02:45Z</time>
      </trkpt>
      <trkpt lat="40.7588230" lon="-8.3141820">
        <ele>319.8</ele>
        <time>2022-08-14T18:02:47Z</time>
      </trkpt>
      <trkpt lat="40.7588350" lon="-8.3142050">
        <ele>320.0</ele>
        <time>2022-08-14T18:02:48Z</time>
      </trkpt>
      <trkpt lat="40.7588440" lon="-8.3142420">
        <ele>320.6</ele>
        <time>2022-08-14T18:02:50Z</time>
      </trkpt>
      <trkpt lat="40.7588900" lon="-8.3143300">
        <ele>321.2</ele>
        <time>2022-08-14T18:02:54Z</time>
      </trkpt>
      <trkpt lat="40.7589240" lon="-8.3144110">
        <ele>321.4</ele>
        <time>2022-08-14T18:02:58Z</time>
      </trkpt>
      <trkpt lat="40.7589500" lon="-8.3145200">
        <ele>321.6</ele>
        <time>2022-08-14T18:03:02Z</time>
      </trkpt>
      <trkpt lat="40.7589340" lon="-8.3146120">
        <ele>321.8</ele>
        <time>2022-08-14T18:03:06Z</time>
      </trkpt>
      <trkpt lat="40.7589480" lon="-8.3146400">
        <ele>321.8</ele>
        <time>2022-08-14T18:03:07Z</time>
      </trkpt>
      <trkpt lat="40.7589760" lon="-8.3146680">
        <ele>321.6</ele>
        <time>2022-08-14T18:03:09Z</time>
      </trkpt>
      <trkpt lat="40.7590250" lon="-8.3146900">
        <ele>321.8</ele>
        <time>2022-08-14T18:03:13Z</time>
      </trkpt>
      <trkpt lat="40.7590340" lon="-8.3147240">
        <ele>322.0</ele>
        <time>2022-08-14T18:03:15Z</time>
      </trkpt>
      <trkpt lat="40.7590310" lon="-8.3147470">
        <ele>322.0</ele>
        <time>2022-08-14T18:03:16Z</time>
      </trkpt>
      <trkpt lat="40.7590250" lon="-8.3147850">
        <ele>322.4</ele>
        <time>2022-08-14T18:03:18Z</time>
      </trkpt>
      <trkpt lat="40.7590400" lon="-8.3148340">
        <ele>322.8</ele>
        <time>2022-08-14T18:03:21Z</time>
      </trkpt>
      <trkpt lat="40.7590630" lon="-8.3148650">
        <ele>323.2</ele>
        <time>2022-08-14T18:03:23Z</time>
      </trkpt>
      <trkpt lat="40.7590570" lon="-8.3148920">
        <ele>323.8</ele>
        <time>2022-08-14T18:03:25Z</time>
      </trkpt>
      <trkpt lat="40.7590370" lon="-8.3149330">
        <ele>324.2</ele>
        <time>2022-08-14T18:03:27Z</time>
      </trkpt>
      <trkpt lat="40.7590310" lon="-8.3149680">
        <ele>324.6</ele>
        <time>2022-08-14T18:03:29Z</time>
      </trkpt>
      <trkpt lat="40.7590480" lon="-8.3149940">
        <ele>325.0</ele>
        <time>2022-08-14T18:03:31Z</time>
      </trkpt>
      <trkpt lat="40.7590600" lon="-8.3149910">
        <ele>325.2</ele>
        <time>2022-08-14T18:03:32Z</time>
      </trkpt>
      <trkpt lat="40.7590720" lon="-8.3150150">
        <ele>325.6</ele>
        <time>2022-08-14T18:03:34Z</time>
      </trkpt>
      <trkpt lat="40.7590440" lon="-8.3150560">
        <ele>326.0</ele>
        <time>2022-08-14T18:03:37Z</time>
      </trkpt>
      <trkpt lat="40.7590610" lon="-8.3151230">
        <ele>326.8</ele>
        <time>2022-08-14T18:03:41Z</time>
      </trkpt>
      <trkpt lat="40.7590840" lon="-8.3151500">
        <ele>327.4</ele>
        <time>2022-08-14T18:03:43Z</time>
      </trkpt>
      <trkpt lat="40.7590920" lon="-8.3151890">
        <ele>328.2</ele>
        <time>2022-08-14T18:03:46Z</time>
      </trkpt>
      <trkpt lat="40.7590830" lon="-8.3152270">
        <ele>328.4</ele>
        <time>2022-08-14T18:03:48Z</time>
      </trkpt>
      <trkpt lat="40.7590940" lon="-8.3152490">
        <ele>328.6</ele>
        <time>2022-08-14T18:03:49Z</time>
      </trkpt>
      <trkpt lat="40.7591470" lon="-8.3153200">
        <ele>329.6</ele>
        <time>2022-08-14T18:03:53Z</time>
      </trkpt>
      <trkpt lat="40.7591530" lon="-8.3153420">
        <ele>329.8</ele>
        <time>2022-08-14T18:03:54Z</time>
      </trkpt>
      <trkpt lat="40.7591450" lon="-8.3153690">
        <ele>330.0</ele>
        <time>2022-08-14T18:03:56Z</time>
      </trkpt>
      <trkpt lat="40.7591520" lon="-8.3154180">
        <ele>330.4</ele>
        <time>2022-08-14T18:03:58Z</time>
      </trkpt>
      <trkpt lat="40.7591820" lon="-8.3154470">
        <ele>330.6</ele>
        <time>2022-08-14T18:04:00Z</time>
      </trkpt>
      <trkpt lat="40.7591940" lon="-8.3154590">
        <ele>330.8</ele>
        <time>2022-08-14T18:04:01Z</time>
      </trkpt>
      <trkpt lat="40.7592310" lon="-8.3154880">
        <ele>331.2</ele>
        <time>2022-08-14T18:04:03Z</time>
      </trkpt>
      <trkpt lat="40.7592390" lon="-8.3155280">
        <ele>332.0</ele>
        <time>2022-08-14T18:04:05Z</time>
      </trkpt>
      <trkpt lat="40.7592390" lon="-8.3155440">
        <ele>332.0</ele>
        <time>2022-08-14T18:04:06Z</time>
      </trkpt>
      <trkpt lat="40.7592300" lon="-8.3155960">
        <ele>332.4</ele>
        <time>2022-08-14T18:04:08Z</time>
      </trkpt>
      <trkpt lat="40.7592640" lon="-8.3156450">
        <ele>333.0</ele>
        <time>2022-08-14T18:04:11Z</time>
      </trkpt>
      <trkpt lat="40.7592810" lon="-8.3156540">
        <ele>333.0</ele>
        <time>2022-08-14T18:04:12Z</time>
      </trkpt>
      <trkpt lat="40.7593130" lon="-8.3156830">
        <ele>333.6</ele>
        <time>2022-08-14T18:04:15Z</time>
      </trkpt>
      <trkpt lat="40.7593070" lon="-8.3157250">
        <ele>333.8</ele>
        <time>2022-08-14T18:04:17Z</time>
      </trkpt>
      <trkpt lat="40.7593030" lon="-8.3157460">
        <ele>334.0</ele>
        <time>2022-08-14T18:04:18Z</time>
      </trkpt>
      <trkpt lat="40.7593300" lon="-8.3157940">
        <ele>334.6</ele>
        <time>2022-08-14T18:04:21Z</time>
      </trkpt>
      <trkpt lat="40.7593580" lon="-8.3158250">
        <ele>335.2</ele>
        <time>2022-08-14T18:04:24Z</time>
      </trkpt>
      <trkpt lat="40.7593410" lon="-8.3158620">
        <ele>335.6</ele>
        <time>2022-08-14T18:04:26Z</time>
      </trkpt>
      <trkpt lat="40.7593230" lon="-8.3159000">
        <ele>335.8</ele>
        <time>2022-08-14T18:04:28Z</time>
      </trkpt>
      <trkpt lat="40.7593270" lon="-8.3159170">
        <ele>336.0</ele>
        <time>2022-08-14T18:04:29Z</time>
      </trkpt>
      <trkpt lat="40.7593340" lon="-8.3159240">
        <ele>336.2</ele>
        <time>2022-08-14T18:04:30Z</time>
      </trkpt>
      <trkpt lat="40.7593570" lon="-8.3159620">
        <ele>337.0</ele>
        <time>2022-08-14T18:04:34Z</time>
      </trkpt>
      <trkpt lat="40.7593540" lon="-8.3159790">
        <ele>337.2</ele>
        <time>2022-08-14T18:04:35Z</time>
      </trkpt>
      <trkpt lat="40.7593450" lon="-8.3160170">
        <ele>337.4</ele>
        <time>2022-08-14T18:04:37Z</time>
      </trkpt>
      <trkpt lat="40.7593410" lon="-8.3160350">
        <ele>337.6</ele>
        <time>2022-08-14T18:04:38Z</time>
      </trkpt>
      <trkpt lat="40.7593490" lon="-8.3160730">
        <ele>338.0</ele>
        <time>2022-08-14T18:04:40Z</time>
      </trkpt>
      <trkpt lat="40.7593620" lon="-8.3160870">
        <ele>338.2</ele>
        <time>2022-08-14T18:04:41Z</time>
      </trkpt>
      <trkpt lat="40.7593750" lon="-8.3160990">
        <ele>338.6</ele>
        <time>2022-08-14T18:04:42Z</time>
      </trkpt>
      <trkpt lat="40.7593990" lon="-8.3161420">
        <ele>339.0</ele>
        <time>2022-08-14T18:04:45Z</time>
      </trkpt>
      <trkpt lat="40.7594000" lon="-8.3161610">
        <ele>339.2</ele>
        <time>2022-08-14T18:04:46Z</time>
      </trkpt>
      <trkpt lat="40.7593950" lon="-8.3161830">
        <ele>339.4</ele>
        <time>2022-08-14T18:04:47Z</time>
      </trkpt>
      <trkpt lat="40.7593850" lon="-8.3162480">
        <ele>340.0</ele>
        <time>2022-08-14T18:04:50Z</time>
      </trkpt>
      <trkpt lat="40.7593900" lon="-8.3162710">
        <ele>340.2</ele>
        <time>2022-08-14T18:04:51Z</time>
      </trkpt>
      <trkpt lat="40.7594040" lon="-8.3162850">
        <ele>340.4</ele>
        <time>2022-08-14T18:04:52Z</time>
      </trkpt>
      <trkpt lat="40.7594280" lon="-8.3163000">
        <ele>340.8</ele>
        <time>2022-08-14T18:04:54Z</time>
      </trkpt>
      <trkpt lat="40.7594420" lon="-8.3163290">
        <ele>341.0</ele>
        <time>2022-08-14T18:04:56Z</time>
      </trkpt>
      <trkpt lat="40.7594440" lon="-8.3163480">
        <ele>341.2</ele>
        <time>2022-08-14T18:04:57Z</time>
      </trkpt>
      <trkpt lat="40.7594330" lon="-8.3163840">
        <ele>341.4</ele>
        <time>2022-08-14T18:04:59Z</time>
      </trkpt>
      <trkpt lat="40.7594360" lon="-8.3164180">
        <ele>341.8</ele>
        <time>2022-08-14T18:05:01Z</time>
      </trkpt>
      <trkpt lat="40.7594580" lon="-8.3164470">
        <ele>342.0</ele>
        <time>2022-08-14T18:05:03Z</time>
      </trkpt>
      <trkpt lat="40.7594690" lon="-8.3164540">
        <ele>342.2</ele>
        <time>2022-08-14T18:05:04Z</time>
      </trkpt>
      <trkpt lat="40.7594850" lon="-8.3164640">
        <ele>342.4</ele>
        <time>2022-08-14T18:05:05Z</time>
      </trkpt>
      <trkpt lat="40.7595070" lon="-8.3164900">
        <ele>342.6</ele>
        <time>2022-08-14T18:05:07Z</time>
      </trkpt>
      <trkpt lat="40.7595150" lon="-8.3165250">
        <ele>342.8</ele>
        <time>2022-08-14T18:05:09Z</time>
      </trkpt>
      <trkpt lat="40.7595310" lon="-8.3165770">
        <ele>343.2</ele>
        <time>2022-08-14T18:05:12Z</time>
      </trkpt>
      <trkpt lat="40.7595570" lon="-8.3166190">
        <ele>344.0</ele>
        <time>2022-08-14T18:05:15Z</time>
      </trkpt>
      <trkpt lat="40.7595690" lon="-8.3166300">
        <ele>344.2</ele>
        <time>2022-08-14T18:05:16Z</time>
      </trkpt>
      <trkpt lat="40.7595810" lon="-8.3166350">
        <ele>344.4</ele>
        <time>2022-08-14T18:05:17Z</time>
      </trkpt>
      <trkpt lat="40.7596230" lon="-8.3166550">
        <ele>345.2</ele>
        <time>2022-08-14T18:05:20Z</time>
      </trkpt>
      <trkpt lat="40.7596480" lon="-8.3166880">
        <ele>345.4</ele>
        <time>2022-08-14T18:05:22Z</time>
      </trkpt>
      <trkpt lat="40.7596500" lon="-8.3167150">
        <ele>345.6</ele>
        <time>2022-08-14T18:05:24Z</time>
      </trkpt>
      <trkpt lat="40.7596550" lon="-8.3167270">
        <ele>345.8</ele>
        <time>2022-08-14T18:05:25Z</time>
      </trkpt>
      <trkpt lat="40.7596720" lon="-8.3167480">
        <ele>346.2</ele>
        <time>2022-08-14T18:05:27Z</time>
      </trkpt>
      <trkpt lat="40.7597360" lon="-8.3167790">
        <ele>346.8</ele>
        <time>2022-08-14T18:05:31Z</time>
      </trkpt>
      <trkpt lat="40.7597470" lon="-8.3167960">
        <ele>346.8</ele>
        <time>2022-08-14T18:05:32Z</time>
      </trkpt>
      <trkpt lat="40.7598320" lon="-8.3168780">
        <ele>347.4</ele>
        <time>2022-08-14T18:05:37Z</time>
      </trkpt>
      <trkpt lat="40.7598980" lon="-8.3168940">
        <ele>347.8</ele>
        <time>2022-08-14T18:05:41Z</time>
      </trkpt>
      <trkpt lat="40.7599420" lon="-8.3169480">
        <ele>348.2</ele>
        <time>2022-08-14T18:05:45Z</time>
      </trkpt>
      <trkpt lat="40.7599800" lon="-8.3169890">
        <ele>348.8</ele>
        <time>2022-08-14T18:05:48Z</time>
      </trkpt>
      <trkpt lat="40.7600090" lon="-8.3170080">
        <ele>349.0</ele>
        <time>2022-08-14T18:05:50Z</time>
      </trkpt>
      <trkpt lat="40.7600590" lon="-8.3170490">
        <ele>350.2</ele>
        <time>2022-08-14T18:05:54Z</time>
      </trkpt>
      <trkpt lat="40.7601000" lon="-8.3170690">
        <ele>350.8</ele>
        <time>2022-08-14T18:05:57Z</time>
      </trkpt>
      <trkpt lat="40.7601120" lon="-8.3170750">
        <ele>350.8</ele>
        <time>2022-08-14T18:05:58Z</time>
      </trkpt>
      <trkpt lat="40.7601670" lon="-8.3171170">
        <ele>351.2</ele>
        <time>2022-08-14T18:06:02Z</time>
      </trkpt>
      <trkpt lat="40.7601790" lon="-8.3171250">
        <ele>351.4</ele>
        <time>2022-08-14T18:06:03Z</time>
      </trkpt>
      <trkpt lat="40.7602570" lon="-8.3171830">
        <ele>352.2</ele>
        <time>2022-08-14T18:06:09Z</time>
      </trkpt>
      <trkpt lat="40.7603020" lon="-8.3172050">
        <ele>353.0</ele>
        <time>2022-08-14T18:06:13Z</time>
      </trkpt>
      <trkpt lat="40.7603240" lon="-8.3172130">
        <ele>353.2</ele>
        <time>2022-08-14T18:06:15Z</time>
      </trkpt>
      <trkpt lat="40.7603460" lon="-8.3172210">
        <ele>353.4</ele>
        <time>2022-08-14T18:06:16Z</time>
      </trkpt>
      <trkpt lat="40.7604010" lon="-8.3172420">
        <ele>353.8</ele>
        <time>2022-08-14T18:06:19Z</time>
      </trkpt>
      <trkpt lat="40.7604710" lon="-8.3172770">
        <ele>354.2</ele>
        <time>2022-08-14T18:06:22Z</time>
      </trkpt>
      <trkpt lat="40.7605430" lon="-8.3173260">
        <ele>354.8</ele>
        <time>2022-08-14T18:06:26Z</time>
      </trkpt>
      <trkpt lat="40.7606100" lon="-8.3173670">
        <ele>355.2</ele>
        <time>2022-08-14T18:06:29Z</time>
      </trkpt>
      <trkpt lat="40.7606600" lon="-8.3174410">
        <ele>355.8</ele>
        <time>2022-08-14T18:06:33Z</time>
      </trkpt>
      <trkpt lat="40.7607110" lon="-8.3174760">
        <ele>356.4</ele>
        <time>2022-08-14T18:06:36Z</time>
      </trkpt>
      <trkpt lat="40.7607880" lon="-8.3175040">
        <ele>357.0</ele>
        <time>2022-08-14T18:06:41Z</time>
      </trkpt>
      <trkpt lat="40.7608020" lon="-8.3175110">
        <ele>357.0</ele>
        <time>2022-08-14T18:06:42Z</time>
      </trkpt>
      <trkpt lat="40.7608300" lon="-8.3175220">
        <ele>357.2</ele>
        <time>2022-08-14T18:06:44Z</time>
      </trkpt>
      <trkpt lat="40.7609020" lon="-8.3175520">
        <ele>357.6</ele>
        <time>2022-08-14T18:06:48Z</time>
      </trkpt>
      <trkpt lat="40.7610440" lon="-8.3176360">
        <ele>357.8</ele>
        <time>2022-08-14T18:06:56Z</time>
      </trkpt>
      <trkpt lat="40.7611850" lon="-8.3177430">
        <ele>357.8</ele>
        <time>2022-08-14T18:07:03Z</time>
      </trkpt>
      <trkpt lat="40.7613350" lon="-8.3178220">
        <ele>357.4</ele>
        <time>2022-08-14T18:07:07Z</time>
      </trkpt>
      <trkpt lat="40.7614550" lon="-8.3178400">
        <ele>357.2</ele>
        <time>2022-08-14T18:07:09Z</time>
      </trkpt>
      <trkpt lat="40.7616010" lon="-8.3178430">
        <ele>356.6</ele>
        <time>2022-08-14T18:07:11Z</time>
      </trkpt>
      <trkpt lat="40.7617540" lon="-8.3178100">
        <ele>356.0</ele>
        <time>2022-08-14T18:07:13Z</time>
      </trkpt>
      <trkpt lat="40.7619480" lon="-8.3177610">
        <ele>354.8</ele>
        <time>2022-08-14T18:07:15Z</time>
      </trkpt>
      <trkpt lat="40.7620400" lon="-8.3177570">
        <ele>354.0</ele>
        <time>2022-08-14T18:07:16Z</time>
      </trkpt>
      <trkpt lat="40.7621980" lon="-8.3177880">
        <ele>353.4</ele>
        <time>2022-08-14T18:07:18Z</time>
      </trkpt>
      <trkpt lat="40.7622940" lon="-8.3178400">
        <ele>352.2</ele>
        <time>2022-08-14T18:07:19Z</time>
      </trkpt>
      <trkpt lat="40.7624580" lon="-8.3179600">
        <ele>350.8</ele>
        <time>2022-08-14T18:07:21Z</time>
      </trkpt>
      <trkpt lat="40.7625420" lon="-8.3180230">
        <ele>350.4</ele>
        <time>2022-08-14T18:07:22Z</time>
      </trkpt>
      <trkpt lat="40.7626230" lon="-8.3180610">
        <ele>349.8</ele>
        <time>2022-08-14T18:07:23Z</time>
      </trkpt>
      <trkpt lat="40.7627970" lon="-8.3180890">
        <ele>348.6</ele>
        <time>2022-08-14T18:07:25Z</time>
      </trkpt>
      <trkpt lat="40.7629400" lon="-8.3180890">
        <ele>347.4</ele>
        <time>2022-08-14T18:07:27Z</time>
      </trkpt>
      <trkpt lat="40.7630190" lon="-8.3181090">
        <ele>346.6</ele>
        <time>2022-08-14T18:07:28Z</time>
      </trkpt>
      <trkpt lat="40.7631030" lon="-8.3181690">
        <ele>346.4</ele>
        <time>2022-08-14T18:07:29Z</time>
      </trkpt>
      <trkpt lat="40.7631620" lon="-8.3182350">
        <ele>346.0</ele>
        <time>2022-08-14T18:07:30Z</time>
      </trkpt>
      <trkpt lat="40.7632400" lon="-8.3184010">
        <ele>345.4</ele>
        <time>2022-08-14T18:07:32Z</time>
      </trkpt>
      <trkpt lat="40.7632910" lon="-8.3185110">
        <ele>344.6</ele>
        <time>2022-08-14T18:07:33Z</time>
      </trkpt>
      <trkpt lat="40.7633260" lon="-8.3186070">
        <ele>344.2</ele>
        <time>2022-08-14T18:07:34Z</time>
      </trkpt>
      <trkpt lat="40.7633750" lon="-8.3188110">
        <ele>343.4</ele>
        <time>2022-08-14T18:07:36Z</time>
      </trkpt>
      <trkpt lat="40.7634310" lon="-8.3192660">
        <ele>342.4</ele>
        <time>2022-08-14T18:07:41Z</time>
      </trkpt>
      <trkpt lat="40.7634870" lon="-8.3194890">
        <ele>342.0</ele>
        <time>2022-08-14T18:07:44Z</time>
      </trkpt>
      <trkpt lat="40.7635260" lon="-8.3196050">
        <ele>342.0</ele>
        <time>2022-08-14T18:07:46Z</time>
      </trkpt>
      <trkpt lat="40.7635550" lon="-8.3196620">
        <ele>342.0</ele>
        <time>2022-08-14T18:07:47Z</time>
      </trkpt>
      <trkpt lat="40.7636430" lon="-8.3197460">
        <ele>342.0</ele>
        <time>2022-08-14T18:07:49Z</time>
      </trkpt>
      <trkpt lat="40.7637050" lon="-8.3197820">
        <ele>341.8</ele>
        <time>2022-08-14T18:07:50Z</time>
      </trkpt>
      <trkpt lat="40.7638200" lon="-8.3198040">
        <ele>341.6</ele>
        <time>2022-08-14T18:07:52Z</time>
      </trkpt>
      <trkpt lat="40.7638840" lon="-8.3198040">
        <ele>341.4</ele>
        <time>2022-08-14T18:07:53Z</time>
      </trkpt>
      <trkpt lat="40.7639530" lon="-8.3198010">
        <ele>341.2</ele>
        <time>2022-08-14T18:07:54Z</time>
      </trkpt>
      <trkpt lat="40.7641800" lon="-8.3197790">
        <ele>340.0</ele>
        <time>2022-08-14T18:07:57Z</time>
      </trkpt>
      <trkpt lat="40.7644460" lon="-8.3197690">
        <ele>339.0</ele>
        <time>2022-08-14T18:08:00Z</time>
      </trkpt>
      <trkpt lat="40.7646080" lon="-8.3197670">
        <ele>337.8</ele>
        <time>2022-08-14T18:08:02Z</time>
      </trkpt>
      <trkpt lat="40.7646900" lon="-8.3197710">
        <ele>337.2</ele>
        <time>2022-08-14T18:08:03Z</time>
      </trkpt>
      <trkpt lat="40.7648300" lon="-8.3198500">
        <ele>335.8</ele>
        <time>2022-08-14T18:08:05Z</time>
      </trkpt>
      <trkpt lat="40.7649200" lon="-8.3199960">
        <ele>334.8</ele>
        <time>2022-08-14T18:08:07Z</time>
      </trkpt>
      <trkpt lat="40.7649510" lon="-8.3200740">
        <ele>334.4</ele>
        <time>2022-08-14T18:08:08Z</time>
      </trkpt>
      <trkpt lat="40.7650150" lon="-8.3202150">
        <ele>333.8</ele>
        <time>2022-08-14T18:08:10Z</time>
      </trkpt>
      <trkpt lat="40.7650500" lon="-8.3202690">
        <ele>333.8</ele>
        <time>2022-08-14T18:08:11Z</time>
      </trkpt>
      <trkpt lat="40.7651100" lon="-8.3203430">
        <ele>333.4</ele>
        <time>2022-08-14T18:08:12Z</time>
      </trkpt>
      <trkpt lat="40.7652430" lon="-8.3204280">
        <ele>333.0</ele>
        <time>2022-08-14T18:08:14Z</time>
      </trkpt>
      <trkpt lat="40.7653160" lon="-8.3204200">
        <ele>332.8</ele>
        <time>2022-08-14T18:08:15Z</time>
      </trkpt>
      <trkpt lat="40.7653790" lon="-8.3203860">
        <ele>332.4</ele>
        <time>2022-08-14T18:08:16Z</time>
      </trkpt>
      <trkpt lat="40.7654710" lon="-8.3203060">
        <ele>332.2</ele>
        <time>2022-08-14T18:08:17Z</time>
      </trkpt>
      <trkpt lat="40.7656310" lon="-8.3201470">
        <ele>331.6</ele>
        <time>2022-08-14T18:08:19Z</time>
      </trkpt>
      <trkpt lat="40.7657870" lon="-8.3200570">
        <ele>331.0</ele>
        <time>2022-08-14T18:08:21Z</time>
      </trkpt>
      <trkpt lat="40.7658510" lon="-8.3200820">
        <ele>330.2</ele>
        <time>2022-08-14T18:08:22Z</time>
      </trkpt>
      <trkpt lat="40.7659000" lon="-8.3201430">
        <ele>329.8</ele>
        <time>2022-08-14T18:08:23Z</time>
      </trkpt>
      <trkpt lat="40.7659200" lon="-8.3202260">
        <ele>328.4</ele>
        <time>2022-08-14T18:08:24Z</time>
      </trkpt>
      <trkpt lat="40.7659190" lon="-8.3202820">
        <ele>328.0</ele>
        <time>2022-08-14T18:08:25Z</time>
      </trkpt>
      <trkpt lat="40.7658990" lon="-8.3204200">
        <ele>327.4</ele>
        <time>2022-08-14T18:08:27Z</time>
      </trkpt>
      <trkpt lat="40.7658710" lon="-8.3205250">
        <ele>326.8</ele>
        <time>2022-08-14T18:08:29Z</time>
      </trkpt>
      <trkpt lat="40.7658710" lon="-8.3205750">
        <ele>326.8</ele>
        <time>2022-08-14T18:08:30Z</time>
      </trkpt>
      <trkpt lat="40.7658910" lon="-8.3207040">
        <ele>326.6</ele>
        <time>2022-08-14T18:08:32Z</time>
      </trkpt>
      <trkpt lat="40.7660130" lon="-8.3208420">
        <ele>326.4</ele>
        <time>2022-08-14T18:08:36Z</time>
      </trkpt>
      <trkpt lat="40.7661460" lon="-8.3208670">
        <ele>326.2</ele>
        <time>2022-08-14T18:08:39Z</time>
      </trkpt>
      <trkpt lat="40.7661950" lon="-8.3208490">
        <ele>326.0</ele>
        <time>2022-08-14T18:08:40Z</time>
      </trkpt>
      <trkpt lat="40.7663880" lon="-8.3207530">
        <ele>325.8</ele>
        <time>2022-08-14T18:08:44Z</time>
      </trkpt>
      <trkpt lat="40.7664250" lon="-8.3207270">
        <ele>325.6</ele>
        <time>2022-08-14T18:08:45Z</time>
      </trkpt>
      <trkpt lat="40.7664640" lon="-8.3207080">
        <ele>325.6</ele>
        <time>2022-08-14T18:08:46Z</time>
      </trkpt>
      <trkpt lat="40.7665660" lon="-8.3206520">
        <ele>325.2</ele>
        <time>2022-08-14T18:08:48Z</time>
      </trkpt>
      <trkpt lat="40.7667470" lon="-8.3205740">
        <ele>324.6</ele>
        <time>2022-08-14T18:08:52Z</time>
      </trkpt>
      <trkpt lat="40.7669560" lon="-8.3204290">
        <ele>324.0</ele>
        <time>2022-08-14T18:08:57Z</time>
      </trkpt>
      <trkpt lat="40.7670010" lon="-8.3203990">
        <ele>323.6</ele>
        <time>2022-08-14T18:08:58Z</time>
      </trkpt>
      <trkpt lat="40.7670590" lon="-8.3203740">
        <ele>323.2</ele>
        <time>2022-08-14T18:08:59Z</time>
      </trkpt>
      <trkpt lat="40.7671840" lon="-8.3203990">
        <ele>323.0</ele>
        <time>2022-08-14T18:09:01Z</time>
      </trkpt>
      <trkpt lat="40.7672770" lon="-8.3205140">
        <ele>322.6</ele>
        <time>2022-08-14T18:09:03Z</time>
      </trkpt>
      <trkpt lat="40.7673100" lon="-8.3205790">
        <ele>322.0</ele>
        <time>2022-08-14T18:09:04Z</time>
      </trkpt>
      <trkpt lat="40.7673440" lon="-8.3206560">
        <ele>321.8</ele>
        <time>2022-08-14T18:09:05Z</time>
      </trkpt>
      <trkpt lat="40.7674010" lon="-8.3207890">
        <ele>321.2</ele>
        <time>2022-08-14T18:09:07Z</time>
      </trkpt>
      <trkpt lat="40.7674180" lon="-8.3209060">
        <ele>320.8</ele>
        <time>2022-08-14T18:09:09Z</time>
      </trkpt>
      <trkpt lat="40.7673600" lon="-8.3210370">
        <ele>320.6</ele>
        <time>2022-08-14T18:09:13Z</time>
      </trkpt>
      <trkpt lat="40.7672660" lon="-8.3211410">
        <ele>321.2</ele>
        <time>2022-08-14T18:09:19Z</time>
      </trkpt>
      <trkpt lat="40.7672370" lon="-8.3211690">
        <ele>322.0</ele>
        <time>2022-08-14T18:09:21Z</time>
      </trkpt>
      <trkpt lat="40.7671560" lon="-8.3212130">
        <ele>323.2</ele>
        <time>2022-08-14T18:09:26Z</time>
      </trkpt>
      <trkpt lat="40.7670280" lon="-8.3212910">
        <ele>324.0</ele>
        <time>2022-08-14T18:09:34Z</time>
      </trkpt>
      <trkpt lat="40.7669640" lon="-8.3213040">
        <ele>325.0</ele>
        <time>2022-08-14T18:09:38Z</time>
      </trkpt>
      <trkpt lat="40.7669120" lon="-8.3213290">
        <ele>326.2</ele>
        <time>2022-08-14T18:09:41Z</time>
      </trkpt>
      <trkpt lat="40.7668710" lon="-8.3213480">
        <ele>326.6</ele>
        <time>2022-08-14T18:09:43Z</time>
      </trkpt>
      <trkpt lat="40.7667940" lon="-8.3213990">
        <ele>327.2</ele>
        <time>2022-08-14T18:09:47Z</time>
      </trkpt>
      <trkpt lat="40.7667210" lon="-8.3214360">
        <ele>328.2</ele>
        <time>2022-08-14T18:09:51Z</time>
      </trkpt>
      <trkpt lat="40.7667100" lon="-8.3214440">
        <ele>328.4</ele>
        <time>2022-08-14T18:09:52Z</time>
      </trkpt>
      <trkpt lat="40.7666980" lon="-8.3214500">
        <ele>328.4</ele>
        <time>2022-08-14T18:09:53Z</time>
      </trkpt>
      <trkpt lat="40.7666490" lon="-8.3214890">
        <ele>328.8</ele>
        <time>2022-08-14T18:09:56Z</time>
      </trkpt>
      <trkpt lat="40.7666130" lon="-8.3215070">
        <ele>329.0</ele>
        <time>2022-08-14T18:09:58Z</time>
      </trkpt>
      <trkpt lat="40.7665910" lon="-8.3215550">
        <ele>329.6</ele>
        <time>2022-08-14T18:10:00Z</time>
      </trkpt>
      <trkpt lat="40.7665810" lon="-8.3215780">
        <ele>329.6</ele>
        <time>2022-08-14T18:10:01Z</time>
      </trkpt>
      <trkpt lat="40.7665220" lon="-8.3216330">
        <ele>330.2</ele>
        <time>2022-08-14T18:10:05Z</time>
      </trkpt>
      <trkpt lat="40.7664900" lon="-8.3216480">
        <ele>330.6</ele>
        <time>2022-08-14T18:10:07Z</time>
      </trkpt>
      <trkpt lat="40.7664450" lon="-8.3216830">
        <ele>331.0</ele>
        <time>2022-08-14T18:10:10Z</time>
      </trkpt>
      <trkpt lat="40.7664160" lon="-8.3217320">
        <ele>331.2</ele>
        <time>2022-08-14T18:10:13Z</time>
      </trkpt>
      <trkpt lat="40.7663580" lon="-8.3217860">
        <ele>331.4</ele>
        <time>2022-08-14T18:10:17Z</time>
      </trkpt>
      <trkpt lat="40.7663010" lon="-8.3218500">
        <ele>331.8</ele>
        <time>2022-08-14T18:10:21Z</time>
      </trkpt>
      <trkpt lat="40.7662100" lon="-8.3219520">
        <ele>332.6</ele>
        <time>2022-08-14T18:10:27Z</time>
      </trkpt>
      <trkpt lat="40.7661990" lon="-8.3219730">
        <ele>332.8</ele>
        <time>2022-08-14T18:10:28Z</time>
      </trkpt>
      <trkpt lat="40.7661760" lon="-8.3220110">
        <ele>333.4</ele>
        <time>2022-08-14T18:10:30Z</time>
      </trkpt>
      <trkpt lat="40.7660950" lon="-8.3220710">
        <ele>333.8</ele>
        <time>2022-08-14T18:10:35Z</time>
      </trkpt>
      <trkpt lat="40.7660470" lon="-8.3221320">
        <ele>334.4</ele>
        <time>2022-08-14T18:10:39Z</time>
      </trkpt>
      <trkpt lat="40.7660340" lon="-8.3221970">
        <ele>334.8</ele>
        <time>2022-08-14T18:10:42Z</time>
      </trkpt>
      <trkpt lat="40.7660550" lon="-8.3222890">
        <ele>335.4</ele>
        <time>2022-08-14T18:10:46Z</time>
      </trkpt>
      <trkpt lat="40.7660800" lon="-8.3223810">
        <ele>336.0</ele>
        <time>2022-08-14T18:10:50Z</time>
      </trkpt>
      <trkpt lat="40.7661350" lon="-8.3224470">
        <ele>336.4</ele>
        <time>2022-08-14T18:10:54Z</time>
      </trkpt>
      <trkpt lat="40.7662390" lon="-8.3224950">
        <ele>337.0</ele>
        <time>2022-08-14T18:11:01Z</time>
      </trkpt>
      <trkpt lat="40.7662570" lon="-8.3224990">
        <ele>337.0</ele>
        <time>2022-08-14T18:11:02Z</time>
      </trkpt>
      <trkpt lat="40.7664350" lon="-8.3225420">
        <ele>338.0</ele>
        <time>2022-08-14T18:11:12Z</time>
      </trkpt>
      <trkpt lat="40.7664700" lon="-8.3225430">
        <ele>338.2</ele>
        <time>2022-08-14T18:11:14Z</time>
      </trkpt>
      <trkpt lat="40.7666230" lon="-8.3225460">
        <ele>339.2</ele>
        <time>2022-08-14T18:11:23Z</time>
      </trkpt>
      <trkpt lat="40.7666380" lon="-8.3225450">
        <ele>339.6</ele>
        <time>2022-08-14T18:11:24Z</time>
      </trkpt>
      <trkpt lat="40.7667180" lon="-8.3225300">
        <ele>340.2</ele>
        <time>2022-08-14T18:11:29Z</time>
      </trkpt>
      <trkpt lat="40.7667460" lon="-8.3225260">
        <ele>340.6</ele>
        <time>2022-08-14T18:11:31Z</time>
      </trkpt>
      <trkpt lat="40.7667800" lon="-8.3225220">
        <ele>340.8</ele>
        <time>2022-08-14T18:11:33Z</time>
      </trkpt>
      <trkpt lat="40.7668370" lon="-8.3225500">
        <ele>341.2</ele>
        <time>2022-08-14T18:11:37Z</time>
      </trkpt>
      <trkpt lat="40.7668520" lon="-8.3225530">
        <ele>341.4</ele>
        <time>2022-08-14T18:11:38Z</time>
      </trkpt>
      <trkpt lat="40.7669560" lon="-8.3225550">
        <ele>342.6</ele>
        <time>2022-08-14T18:11:45Z</time>
      </trkpt>
      <trkpt lat="40.7669710" lon="-8.3225530">
        <ele>342.6</ele>
        <time>2022-08-14T18:11:46Z</time>
      </trkpt>
      <trkpt lat="40.7670730" lon="-8.3225340">
        <ele>343.6</ele>
        <time>2022-08-14T18:11:54Z</time>
      </trkpt>
      <trkpt lat="40.7671290" lon="-8.3225300">
        <ele>344.8</ele>
        <time>2022-08-14T18:11:58Z</time>
      </trkpt>
      <trkpt lat="40.7671670" lon="-8.3225200">
        <ele>345.2</ele>
        <time>2022-08-14T18:12:01Z</time>
      </trkpt>
      <trkpt lat="40.7672070" lon="-8.3225100">
        <ele>345.8</ele>
        <time>2022-08-14T18:12:04Z</time>
      </trkpt>
      <trkpt lat="40.7672890" lon="-8.3224760">
        <ele>347.0</ele>
        <time>2022-08-14T18:12:11Z</time>
      </trkpt>
      <trkpt lat="40.7673340" lon="-8.3224050">
        <ele>347.6</ele>
        <time>2022-08-14T18:12:16Z</time>
      </trkpt>
      <trkpt lat="40.7673470" lon="-8.3223980">
        <ele>347.6</ele>
        <time>2022-08-14T18:12:17Z</time>
      </trkpt>
      <trkpt lat="40.7673680" lon="-8.3223920">
        <ele>347.8</ele>
        <time>2022-08-14T18:12:19Z</time>
      </trkpt>
      <trkpt lat="40.7673770" lon="-8.3223850">
        <ele>347.8</ele>
        <time>2022-08-14T18:12:20Z</time>
      </trkpt>
      <trkpt lat="40.7674140" lon="-8.3223750">
        <ele>348.4</ele>
        <time>2022-08-14T18:12:23Z</time>
      </trkpt>
      <trkpt lat="40.7674790" lon="-8.3223460">
        <ele>348.8</ele>
        <time>2022-08-14T18:12:28Z</time>
      </trkpt>
      <trkpt lat="40.7675090" lon="-8.3223220">
        <ele>349.6</ele>
        <time>2022-08-14T18:12:31Z</time>
      </trkpt>
      <trkpt lat="40.7675180" lon="-8.3223140">
        <ele>349.8</ele>
        <time>2022-08-14T18:12:32Z</time>
      </trkpt>
      <trkpt lat="40.7675590" lon="-8.3223130">
        <ele>351.2</ele>
        <time>2022-08-14T18:12:36Z</time>
      </trkpt>
      <trkpt lat="40.7675660" lon="-8.3223230">
        <ele>351.4</ele>
        <time>2022-08-14T18:12:37Z</time>
      </trkpt>
      <trkpt lat="40.7675760" lon="-8.3223610">
        <ele>351.6</ele>
        <time>2022-08-14T18:12:39Z</time>
      </trkpt>
      <trkpt lat="40.7675860" lon="-8.3224000">
        <ele>352.2</ele>
        <time>2022-08-14T18:12:41Z</time>
      </trkpt>
      <trkpt lat="40.7675930" lon="-8.3224160">
        <ele>352.4</ele>
        <time>2022-08-14T18:12:42Z</time>
      </trkpt>
      <trkpt lat="40.7676040" lon="-8.3224320">
        <ele>352.6</ele>
        <time>2022-08-14T18:12:43Z</time>
      </trkpt>
      <trkpt lat="40.7676140" lon="-8.3224470">
        <ele>353.4</ele>
        <time>2022-08-14T18:12:44Z</time>
      </trkpt>
      <trkpt lat="40.7676520" lon="-8.3225090">
        <ele>354.6</ele>
        <time>2022-08-14T18:12:48Z</time>
      </trkpt>
      <trkpt lat="40.7676720" lon="-8.3225380">
        <ele>356.0</ele>
        <time>2022-08-14T18:12:50Z</time>
      </trkpt>
      <trkpt lat="40.7676740" lon="-8.3225520">
        <ele>356.4</ele>
        <time>2022-08-14T18:12:51Z</time>
      </trkpt>
      <trkpt lat="40.7676710" lon="-8.3225670">
        <ele>356.8</ele>
        <time>2022-08-14T18:12:53Z</time>
      </trkpt>
      <trkpt lat="40.7676670" lon="-8.3225750">
        <ele>357.0</ele>
        <time>2022-08-14T18:12:54Z</time>
      </trkpt>
      <trkpt lat="40.7676550" lon="-8.3226020">
        <ele>357.4</ele>
        <time>2022-08-14T18:12:56Z</time>
      </trkpt>
      <trkpt lat="40.7676280" lon="-8.3226210">
        <ele>358.0</ele>
        <time>2022-08-14T18:12:58Z</time>
      </trkpt>
      <trkpt lat="40.7676150" lon="-8.3226340">
        <ele>358.0</ele>
        <time>2022-08-14T18:12:59Z</time>
      </trkpt>
      <trkpt lat="40.7676020" lon="-8.3226640">
        <ele>358.4</ele>
        <time>2022-08-14T18:13:01Z</time>
      </trkpt>
      <trkpt lat="40.7675980" lon="-8.3226900">
        <ele>358.6</ele>
        <time>2022-08-14T18:13:04Z</time>
      </trkpt>
      <trkpt lat="40.7675990" lon="-8.3226850">
        <ele>358.6</ele>
        <time>2022-08-14T18:13:05Z</time>
      </trkpt>
      <trkpt lat="40.7676100" lon="-8.3226610">
        <ele>358.6</ele>
        <time>2022-08-14T18:13:10Z</time>
      </trkpt>
      <trkpt lat="40.7676350" lon="-8.3226230">
        <ele>358.4</ele>
        <time>2022-08-14T18:13:13Z</time>
      </trkpt>
      <trkpt lat="40.7676670" lon="-8.3225760">
        <ele>358.6</ele>
        <time>2022-08-14T18:13:17Z</time>
      </trkpt>
      <trkpt lat="40.7676700" lon="-8.3225690">
        <ele>358.6</ele>
        <time>2022-08-14T18:13:20Z</time>
      </trkpt>
      <trkpt lat="40.7676840" lon="-8.3225830">
        <ele>358.8</ele>
        <time>2022-08-14T18:13:30Z</time>
      </trkpt>
      <trkpt lat="40.7676940" lon="-8.3225900">
        <ele>359.0</ele>
        <time>2022-08-14T18:13:31Z</time>
      </trkpt>
      <trkpt lat="40.7677220" lon="-8.3225900">
        <ele>359.2</ele>
        <time>2022-08-14T18:13:33Z</time>
      </trkpt>
      <trkpt lat="40.7677670" lon="-8.3225670">
        <ele>359.4</ele>
        <time>2022-08-14T18:13:36Z</time>
      </trkpt>
      <trkpt lat="40.7677830" lon="-8.3225660">
        <ele>359.4</ele>
        <time>2022-08-14T18:13:37Z</time>
      </trkpt>
      <trkpt lat="40.7678060" lon="-8.3225840">
        <ele>360.0</ele>
        <time>2022-08-14T18:13:39Z</time>
      </trkpt>
      <trkpt lat="40.7678170" lon="-8.3225980">
        <ele>360.2</ele>
        <time>2022-08-14T18:13:41Z</time>
      </trkpt>
      <trkpt lat="40.7678320" lon="-8.3226230">
        <ele>360.8</ele>
        <time>2022-08-14T18:13:43Z</time>
      </trkpt>
      <trkpt lat="40.7678360" lon="-8.3226350">
        <ele>361.0</ele>
        <time>2022-08-14T18:13:44Z</time>
      </trkpt>
      <trkpt lat="40.7678470" lon="-8.3226840">
        <ele>361.8</ele>
        <time>2022-08-14T18:13:48Z</time>
      </trkpt>
      <trkpt lat="40.7678460" lon="-8.3226970">
        <ele>362.4</ele>
        <time>2022-08-14T18:13:49Z</time>
      </trkpt>
      <trkpt lat="40.7678460" lon="-8.3227500">
        <ele>363.4</ele>
        <time>2022-08-14T18:13:52Z</time>
      </trkpt>
      <trkpt lat="40.7678530" lon="-8.3228080">
        <ele>364.0</ele>
        <time>2022-08-14T18:13:56Z</time>
      </trkpt>
      <trkpt lat="40.7678580" lon="-8.3228350">
        <ele>364.2</ele>
        <time>2022-08-14T18:13:58Z</time>
      </trkpt>
      <trkpt lat="40.7678540" lon="-8.3228490">
        <ele>364.6</ele>
        <time>2022-08-14T18:13:59Z</time>
      </trkpt>
      <trkpt lat="40.7678540" lon="-8.3228630">
        <ele>364.8</ele>
        <time>2022-08-14T18:14:00Z</time>
      </trkpt>
      <trkpt lat="40.7678640" lon="-8.3229050">
        <ele>365.4</ele>
        <time>2022-08-14T18:14:03Z</time>
      </trkpt>
      <trkpt lat="40.7678660" lon="-8.3229170">
        <ele>365.6</ele>
        <time>2022-08-14T18:14:04Z</time>
      </trkpt>
      <trkpt lat="40.7678650" lon="-8.3229280">
        <ele>366.0</ele>
        <time>2022-08-14T18:14:05Z</time>
      </trkpt>
      <trkpt lat="40.7678610" lon="-8.3229530">
        <ele>366.6</ele>
        <time>2022-08-14T18:14:07Z</time>
      </trkpt>
      <trkpt lat="40.7678620" lon="-8.3229820">
        <ele>367.0</ele>
        <time>2022-08-14T18:14:09Z</time>
      </trkpt>
      <trkpt lat="40.7678500" lon="-8.3230190">
        <ele>368.0</ele>
        <time>2022-08-14T18:14:12Z</time>
      </trkpt>
      <trkpt lat="40.7678410" lon="-8.3231000">
        <ele>368.8</ele>
        <time>2022-08-14T18:14:17Z</time>
      </trkpt>
      <trkpt lat="40.7678420" lon="-8.3231270">
        <ele>369.2</ele>
        <time>2022-08-14T18:14:19Z</time>
      </trkpt>
      <trkpt lat="40.7678410" lon="-8.3231650">
        <ele>370.2</ele>
        <time>2022-08-14T18:14:22Z</time>
      </trkpt>
      <trkpt lat="40.7678380" lon="-8.3231680">
        <ele>370.2</ele>
        <time>2022-08-14T18:14:23Z</time>
      </trkpt>
      <trkpt lat="40.7678380" lon="-8.3231680">
        <ele>370.4</ele>
        <time>2022-08-14T18:14:24Z</time>
      </trkpt>
      <trkpt lat="40.7678380" lon="-8.3231680">
        <ele>370.8</ele>
        <time>2022-08-14T18:14:25Z</time>
      </trkpt>
      <trkpt lat="40.7678240" lon="-8.3232230">
        <ele>371.4</ele>
        <time>2022-08-14T18:14:58Z</time>
      </trkpt>
      <trkpt lat="40.7678040" lon="-8.3233020">
        <ele>371.4</ele>
        <time>2022-08-14T18:15:01Z</time>
      </trkpt>
      <trkpt lat="40.7677410" lon="-8.3234540">
        <ele>372.2</ele>
        <time>2022-08-14T18:15:08Z</time>
      </trkpt>
      <trkpt lat="40.7677200" lon="-8.3234760">
        <ele>372.4</ele>
        <time>2022-08-14T18:15:10Z</time>
      </trkpt>
      <trkpt lat="40.7676620" lon="-8.3235470">
        <ele>373.6</ele>
        <time>2022-08-14T18:15:16Z</time>
      </trkpt>
      <trkpt lat="40.7676010" lon="-8.3236130">
        <ele>374.6</ele>
        <time>2022-08-14T18:15:22Z</time>
      </trkpt>
      <trkpt lat="40.7675940" lon="-8.3236300">
        <ele>374.8</ele>
        <time>2022-08-14T18:15:23Z</time>
      </trkpt>
      <trkpt lat="40.7675910" lon="-8.3236460">
        <ele>375.0</ele>
        <time>2022-08-14T18:15:24Z</time>
      </trkpt>
      <trkpt lat="40.7675820" lon="-8.3236640">
        <ele>375.6</ele>
        <time>2022-08-14T18:15:26Z</time>
      </trkpt>
      <trkpt lat="40.7675750" lon="-8.3236720">
        <ele>375.8</ele>
        <time>2022-08-14T18:15:27Z</time>
      </trkpt>
      <trkpt lat="40.7675680" lon="-8.3236810">
        <ele>375.8</ele>
        <time>2022-08-14T18:15:28Z</time>
      </trkpt>
      <trkpt lat="40.7675570" lon="-8.3237040">
        <ele>376.4</ele>
        <time>2022-08-14T18:15:30Z</time>
      </trkpt>
      <trkpt lat="40.7675550" lon="-8.3237480">
        <ele>376.8</ele>
        <time>2022-08-14T18:15:33Z</time>
      </trkpt>
      <trkpt lat="40.7675500" lon="-8.3237590">
        <ele>377.0</ele>
        <time>2022-08-14T18:15:34Z</time>
      </trkpt>
      <trkpt lat="40.7675320" lon="-8.3238110">
        <ele>378.0</ele>
        <time>2022-08-14T18:15:38Z</time>
      </trkpt>
      <trkpt lat="40.7675200" lon="-8.3238520">
        <ele>378.6</ele>
        <time>2022-08-14T18:15:41Z</time>
      </trkpt>
      <trkpt lat="40.7675130" lon="-8.3238660">
        <ele>379.0</ele>
        <time>2022-08-14T18:15:42Z</time>
      </trkpt>
      <trkpt lat="40.7674910" lon="-8.3239320">
        <ele>380.0</ele>
        <time>2022-08-14T18:15:47Z</time>
      </trkpt>
      <trkpt lat="40.7674940" lon="-8.3239440">
        <ele>380.2</ele>
        <time>2022-08-14T18:15:48Z</time>
      </trkpt>
      <trkpt lat="40.7675010" lon="-8.3239580">
        <ele>380.4</ele>
        <time>2022-08-14T18:15:49Z</time>
      </trkpt>
      <trkpt lat="40.7675280" lon="-8.3239940">
        <ele>381.0</ele>
        <time>2022-08-14T18:15:52Z</time>
      </trkpt>
      <trkpt lat="40.7675320" lon="-8.3240060">
        <ele>381.2</ele>
        <time>2022-08-14T18:15:53Z</time>
      </trkpt>
      <trkpt lat="40.7675400" lon="-8.3240570">
        <ele>381.6</ele>
        <time>2022-08-14T18:15:56Z</time>
      </trkpt>
      <trkpt lat="40.7675760" lon="-8.3241100">
        <ele>382.2</ele>
        <time>2022-08-14T18:16:01Z</time>
      </trkpt>
      <trkpt lat="40.7675870" lon="-8.3241090">
        <ele>382.6</ele>
        <time>2022-08-14T18:16:02Z</time>
      </trkpt>
      <trkpt lat="40.7675980" lon="-8.3241030">
        <ele>382.8</ele>
        <time>2022-08-14T18:16:03Z</time>
      </trkpt>
      <trkpt lat="40.7676070" lon="-8.3240960">
        <ele>382.8</ele>
        <time>2022-08-14T18:16:04Z</time>
      </trkpt>
      <trkpt lat="40.7676280" lon="-8.3240260">
        <ele>383.8</ele>
        <time>2022-08-14T18:16:09Z</time>
      </trkpt>
      <trkpt lat="40.7676820" lon="-8.3239710">
        <ele>384.8</ele>
        <time>2022-08-14T18:16:15Z</time>
      </trkpt>
      <trkpt lat="40.7676910" lon="-8.3239620">
        <ele>385.0</ele>
        <time>2022-08-14T18:16:16Z</time>
      </trkpt>
      <trkpt lat="40.7677550" lon="-8.3239660">
        <ele>386.0</ele>
        <time>2022-08-14T18:16:22Z</time>
      </trkpt>
      <trkpt lat="40.7677950" lon="-8.3239670">
        <ele>386.8</ele>
        <time>2022-08-14T18:16:26Z</time>
      </trkpt>
      <trkpt lat="40.7678140" lon="-8.3239600">
        <ele>387.4</ele>
        <time>2022-08-14T18:16:28Z</time>
      </trkpt>
      <trkpt lat="40.7678450" lon="-8.3239720">
        <ele>387.6</ele>
        <time>2022-08-14T18:16:31Z</time>
      </trkpt>
      <trkpt lat="40.7678780" lon="-8.3239770">
        <ele>388.4</ele>
        <time>2022-08-14T18:16:35Z</time>
      </trkpt>
      <trkpt lat="40.7679000" lon="-8.3239650">
        <ele>389.0</ele>
        <time>2022-08-14T18:16:38Z</time>
      </trkpt>
      <trkpt lat="40.7679270" lon="-8.3239670">
        <ele>389.6</ele>
        <time>2022-08-14T18:16:40Z</time>
      </trkpt>
      <trkpt lat="40.7679730" lon="-8.3239840">
        <ele>390.4</ele>
        <time>2022-08-14T18:16:44Z</time>
      </trkpt>
      <trkpt lat="40.7679950" lon="-8.3239820">
        <ele>390.8</ele>
        <time>2022-08-14T18:16:46Z</time>
      </trkpt>
      <trkpt lat="40.7680460" lon="-8.3239860">
        <ele>391.8</ele>
        <time>2022-08-14T18:16:50Z</time>
      </trkpt>
      <trkpt lat="40.7680590" lon="-8.3239930">
        <ele>392.0</ele>
        <time>2022-08-14T18:16:51Z</time>
      </trkpt>
      <trkpt lat="40.7680730" lon="-8.3240000">
        <ele>391.8</ele>
        <time>2022-08-14T18:16:52Z</time>
      </trkpt>
      <trkpt lat="40.7681710" lon="-8.3240610">
        <ele>392.8</ele>
        <time>2022-08-14T18:17:00Z</time>
      </trkpt>
      <trkpt lat="40.7681950" lon="-8.3240520">
        <ele>393.2</ele>
        <time>2022-08-14T18:17:02Z</time>
      </trkpt>
      <trkpt lat="40.7682600" lon="-8.3239990">
        <ele>394.2</ele>
        <time>2022-08-14T18:17:08Z</time>
      </trkpt>
      <trkpt lat="40.7682610" lon="-8.3239970">
        <ele>394.6</ele>
        <time>2022-08-14T18:17:11Z</time>
      </trkpt>
      <trkpt lat="40.7683440" lon="-8.3237960">
        <ele>395.6</ele>
        <time>2022-08-14T18:17:27Z</time>
      </trkpt>
      <trkpt lat="40.7683570" lon="-8.3237800">
        <ele>396.0</ele>
        <time>2022-08-14T18:17:28Z</time>
      </trkpt>
      <trkpt lat="40.7683830" lon="-8.3237250">
        <ele>396.6</ele>
        <time>2022-08-14T18:17:31Z</time>
      </trkpt>
      <trkpt lat="40.7684140" lon="-8.3236490">
        <ele>397.2</ele>
        <time>2022-08-14T18:17:35Z</time>
      </trkpt>
      <trkpt lat="40.7684470" lon="-8.3235880">
        <ele>397.6</ele>
        <time>2022-08-14T18:17:38Z</time>
      </trkpt>
      <trkpt lat="40.7684770" lon="-8.3235150">
        <ele>398.4</ele>
        <time>2022-08-14T18:17:42Z</time>
      </trkpt>
      <trkpt lat="40.7685040" lon="-8.3234500">
        <ele>398.8</ele>
        <time>2022-08-14T18:17:45Z</time>
      </trkpt>
      <trkpt lat="40.7685490" lon="-8.3233830">
        <ele>399.2</ele>
        <time>2022-08-14T18:17:48Z</time>
      </trkpt>
      <trkpt lat="40.7686680" lon="-8.3231550">
        <ele>399.4</ele>
        <time>2022-08-14T18:17:57Z</time>
      </trkpt>
      <trkpt lat="40.7687370" lon="-8.3230700">
        <ele>399.6</ele>
        <time>2022-08-14T18:18:02Z</time>
      </trkpt>
      <trkpt lat="40.7687490" lon="-8.3230630">
        <ele>399.8</ele>
        <time>2022-08-14T18:18:03Z</time>
      </trkpt>
      <trkpt lat="40.7687570" lon="-8.3230540">
        <ele>399.8</ele>
        <time>2022-08-14T18:18:04Z</time>
      </trkpt>
      <trkpt lat="40.7687820" lon="-8.3230230">
        <ele>400.4</ele>
        <time>2022-08-14T18:18:07Z</time>
      </trkpt>
      <trkpt lat="40.7688350" lon="-8.3229660">
        <ele>401.0</ele>
        <time>2022-08-14T18:18:11Z</time>
      </trkpt>
      <trkpt lat="40.7688810" lon="-8.3229410">
        <ele>401.4</ele>
        <time>2022-08-14T18:18:14Z</time>
      </trkpt>
      <trkpt lat="40.7688980" lon="-8.3229350">
        <ele>401.8</ele>
        <time>2022-08-14T18:18:16Z</time>
      </trkpt>
      <trkpt lat="40.7689090" lon="-8.3229380">
        <ele>402.0</ele>
        <time>2022-08-14T18:18:17Z</time>
      </trkpt>
      <trkpt lat="40.7689180" lon="-8.3229420">
        <ele>402.2</ele>
        <time>2022-08-14T18:18:18Z</time>
      </trkpt>
      <trkpt lat="40.7689260" lon="-8.3229520">
        <ele>402.2</ele>
        <time>2022-08-14T18:18:19Z</time>
      </trkpt>
      <trkpt lat="40.7689350" lon="-8.3229570">
        <ele>402.4</ele>
        <time>2022-08-14T18:18:20Z</time>
      </trkpt>
      <trkpt lat="40.7689820" lon="-8.3229380">
        <ele>402.8</ele>
        <time>2022-08-14T18:18:24Z</time>
      </trkpt>
      <trkpt lat="40.7690790" lon="-8.3228800">
        <ele>402.8</ele>
        <time>2022-08-14T18:18:30Z</time>
      </trkpt>
      <trkpt lat="40.7690760" lon="-8.3228650">
        <ele>402.8</ele>
        <time>2022-08-14T18:18:31Z</time>
      </trkpt>
      <trkpt lat="40.7690660" lon="-8.3228520">
        <ele>402.6</ele>
        <time>2022-08-14T18:18:32Z</time>
      </trkpt>
      <trkpt lat="40.7690300" lon="-8.3228630">
        <ele>402.6</ele>
        <time>2022-08-14T18:18:34Z</time>
      </trkpt>
      <trkpt lat="40.7689280" lon="-8.3229690">
        <ele>402.6</ele>
        <time>2022-08-14T18:18:39Z</time>
      </trkpt>
      <trkpt lat="40.7688480" lon="-8.3231000">
        <ele>403.0</ele>
        <time>2022-08-14T18:18:45Z</time>
      </trkpt>
      <trkpt lat="40.7687850" lon="-8.3232410">
        <ele>404.0</ele>
        <time>2022-08-14T18:18:51Z</time>
      </trkpt>
      <trkpt lat="40.7687770" lon="-8.3232620">
        <ele>404.0</ele>
        <time>2022-08-14T18:18:52Z</time>
      </trkpt>
      <trkpt lat="40.7687680" lon="-8.3232880">
        <ele>405.0</ele>
        <time>2022-08-14T18:18:53Z</time>
      </trkpt>
      <trkpt lat="40.7687500" lon="-8.3233750">
        <ele>406.2</ele>
        <time>2022-08-14T18:18:56Z</time>
      </trkpt>
      <trkpt lat="40.7687460" lon="-8.3234040">
        <ele>406.4</ele>
        <time>2022-08-14T18:18:57Z</time>
      </trkpt>
      <trkpt lat="40.7687270" lon="-8.3235680">
        <ele>407.0</ele>
        <time>2022-08-14T18:19:03Z</time>
      </trkpt>
      <trkpt lat="40.7687200" lon="-8.3235990">
        <ele>407.2</ele>
        <time>2022-08-14T18:19:04Z</time>
      </trkpt>
      <trkpt lat="40.7686820" lon="-8.3237870">
        <ele>408.2</ele>
        <time>2022-08-14T18:19:10Z</time>
      </trkpt>
      <trkpt lat="40.7686820" lon="-8.3237870">
        <ele>408.4</ele>
        <time>2022-08-14T18:19:11Z</time>
      </trkpt>
      <trkpt lat="40.7686970" lon="-8.3240040">
        <ele>409.0</ele>
        <time>2022-08-14T18:19:16Z</time>
      </trkpt>
      <trkpt lat="40.7687220" lon="-8.3241030">
        <ele>409.4</ele>
        <time>2022-08-14T18:19:19Z</time>
      </trkpt>
      <trkpt lat="40.7687860" lon="-8.3242800">
        <ele>410.6</ele>
        <time>2022-08-14T18:19:25Z</time>
      </trkpt>
      <trkpt lat="40.7688560" lon="-8.3244730">
        <ele>411.6</ele>
        <time>2022-08-14T18:19:32Z</time>
      </trkpt>
      <trkpt lat="40.7688750" lon="-8.3245260">
        <ele>411.8</ele>
        <time>2022-08-14T18:19:34Z</time>
      </trkpt>
      <trkpt lat="40.7689440" lon="-8.3247140">
        <ele>412.8</ele>
        <time>2022-08-14T18:19:42Z</time>
      </trkpt>
      <trkpt lat="40.7690330" lon="-8.3248530">
        <ele>414.0</ele>
        <time>2022-08-14T18:19:49Z</time>
      </trkpt>
      <trkpt lat="40.7691110" lon="-8.3249570">
        <ele>415.2</ele>
        <time>2022-08-14T18:19:55Z</time>
      </trkpt>
      <trkpt lat="40.7691360" lon="-8.3249890">
        <ele>415.2</ele>
        <time>2022-08-14T18:19:57Z</time>
      </trkpt>
      <trkpt lat="40.7691620" lon="-8.3250290">
        <ele>415.6</ele>
        <time>2022-08-14T18:20:00Z</time>
      </trkpt>
      <trkpt lat="40.7691950" lon="-8.3250690">
        <ele>415.8</ele>
        <time>2022-08-14T18:20:03Z</time>
      </trkpt>
      <trkpt lat="40.7692130" lon="-8.3251050">
        <ele>416.2</ele>
        <time>2022-08-14T18:20:05Z</time>
      </trkpt>
      <trkpt lat="40.7692920" lon="-8.3252310">
        <ele>416.8</ele>
        <time>2022-08-14T18:20:12Z</time>
      </trkpt>
      <trkpt lat="40.7693640" lon="-8.3253340">
        <ele>417.2</ele>
        <time>2022-08-14T18:20:18Z</time>
      </trkpt>
      <trkpt lat="40.7694770" lon="-8.3254580">
        <ele>418.0</ele>
        <time>2022-08-14T18:20:25Z</time>
      </trkpt>
      <trkpt lat="40.7695280" lon="-8.3255070">
        <ele>418.4</ele>
        <time>2022-08-14T18:20:28Z</time>
      </trkpt>
      <trkpt lat="40.7695930" lon="-8.3256100">
        <ele>418.6</ele>
        <time>2022-08-14T18:20:34Z</time>
      </trkpt>
      <trkpt lat="40.7696480" lon="-8.3257460">
        <ele>418.8</ele>
        <time>2022-08-14T18:20:40Z</time>
      </trkpt>
      <trkpt lat="40.7696240" lon="-8.3257970">
        <ele>418.8</ele>
        <time>2022-08-14T18:20:43Z</time>
      </trkpt>
      <trkpt lat="40.7695960" lon="-8.3258360">
        <ele>419.0</ele>
        <time>2022-08-14T18:20:45Z</time>
      </trkpt>
      <trkpt lat="40.7695730" lon="-8.3258560">
        <ele>419.4</ele>
        <time>2022-08-14T18:20:47Z</time>
      </trkpt>
      <trkpt lat="40.7695100" lon="-8.3259170">
        <ele>420.2</ele>
        <time>2022-08-14T18:20:52Z</time>
      </trkpt>
      <trkpt lat="40.7694990" lon="-8.3259260">
        <ele>420.4</ele>
        <time>2022-08-14T18:20:53Z</time>
      </trkpt>
      <trkpt lat="40.7694860" lon="-8.3259390">
        <ele>420.6</ele>
        <time>2022-08-14T18:20:54Z</time>
      </trkpt>
      <trkpt lat="40.7694390" lon="-8.3260320">
        <ele>421.0</ele>
        <time>2022-08-14T18:20:59Z</time>
      </trkpt>
      <trkpt lat="40.7694290" lon="-8.3260720">
        <ele>421.6</ele>
        <time>2022-08-14T18:21:01Z</time>
      </trkpt>
      <trkpt lat="40.7694020" lon="-8.3261330">
        <ele>422.0</ele>
        <time>2022-08-14T18:21:04Z</time>
      </trkpt>
      <trkpt lat="40.7693960" lon="-8.3261810">
        <ele>422.2</ele>
        <time>2022-08-14T18:21:06Z</time>
      </trkpt>
      <trkpt lat="40.7694020" lon="-8.3262560">
        <ele>422.6</ele>
        <time>2022-08-14T18:21:09Z</time>
      </trkpt>
      <trkpt lat="40.7694130" lon="-8.3263480">
        <ele>422.6</ele>
        <time>2022-08-14T18:21:13Z</time>
      </trkpt>
      <trkpt lat="40.7694350" lon="-8.3265090">
        <ele>423.4</ele>
        <time>2022-08-14T18:21:20Z</time>
      </trkpt>
      <trkpt lat="40.7694440" lon="-8.3265270">
        <ele>423.6</ele>
        <time>2022-08-14T18:21:21Z</time>
      </trkpt>
      <trkpt lat="40.7694610" lon="-8.3267020">
        <ele>424.6</ele>
        <time>2022-08-14T18:21:27Z</time>
      </trkpt>
      <trkpt lat="40.7694560" lon="-8.3267190">
        <ele>424.8</ele>
        <time>2022-08-14T18:21:28Z</time>
      </trkpt>
      <trkpt lat="40.7694400" lon="-8.3267360">
        <ele>425.0</ele>
        <time>2022-08-14T18:21:29Z</time>
      </trkpt>
      <trkpt lat="40.7694110" lon="-8.3268440">
        <ele>425.8</ele>
        <time>2022-08-14T18:21:34Z</time>
      </trkpt>
      <trkpt lat="40.7694200" lon="-8.3268750">
        <ele>426.0</ele>
        <time>2022-08-14T18:21:35Z</time>
      </trkpt>
      <trkpt lat="40.7693860" lon="-8.3269100">
        <ele>426.0</ele>
        <time>2022-08-14T18:21:37Z</time>
      </trkpt>
      <trkpt lat="40.7693540" lon="-8.3269310">
        <ele>426.6</ele>
        <time>2022-08-14T18:21:40Z</time>
      </trkpt>
      <trkpt lat="40.7693270" lon="-8.3269510">
        <ele>427.2</ele>
        <time>2022-08-14T18:21:43Z</time>
      </trkpt>
      <trkpt lat="40.7693020" lon="-8.3269880">
        <ele>427.8</ele>
        <time>2022-08-14T18:21:46Z</time>
      </trkpt>
      <trkpt lat="40.7692670" lon="-8.3270090">
        <ele>429.0</ele>
        <time>2022-08-14T18:21:50Z</time>
      </trkpt>
      <trkpt lat="40.7692460" lon="-8.3270280">
        <ele>429.4</ele>
        <time>2022-08-14T18:21:52Z</time>
      </trkpt>
      <trkpt lat="40.7692050" lon="-8.3270890">
        <ele>430.2</ele>
        <time>2022-08-14T18:21:55Z</time>
      </trkpt>
      <trkpt lat="40.7691980" lon="-8.3271050">
        <ele>430.2</ele>
        <time>2022-08-14T18:21:56Z</time>
      </trkpt>
      <trkpt lat="40.7691620" lon="-8.3271740">
        <ele>430.8</ele>
        <time>2022-08-14T18:22:00Z</time>
      </trkpt>
      <trkpt lat="40.7691580" lon="-8.3271950">
        <ele>431.4</ele>
        <time>2022-08-14T18:22:02Z</time>
      </trkpt>
      <trkpt lat="40.7691590" lon="-8.3272470">
        <ele>431.8</ele>
        <time>2022-08-14T18:22:04Z</time>
      </trkpt>
      <trkpt lat="40.7691500" lon="-8.3272670">
        <ele>432.0</ele>
        <time>2022-08-14T18:22:05Z</time>
      </trkpt>
      <trkpt lat="40.7690980" lon="-8.3273360">
        <ele>432.6</ele>
        <time>2022-08-14T18:22:08Z</time>
      </trkpt>
      <trkpt lat="40.7690900" lon="-8.3273810">
        <ele>433.0</ele>
        <time>2022-08-14T18:22:10Z</time>
      </trkpt>
      <trkpt lat="40.7690410" lon="-8.3274520">
        <ele>433.0</ele>
        <time>2022-08-14T18:22:12Z</time>
      </trkpt>
      <trkpt lat="40.7690300" lon="-8.3275130">
        <ele>433.2</ele>
        <time>2022-08-14T18:22:14Z</time>
      </trkpt>
      <trkpt lat="40.7690320" lon="-8.3275680">
        <ele>433.6</ele>
        <time>2022-08-14T18:22:16Z</time>
      </trkpt>
      <trkpt lat="40.7689690" lon="-8.3276660">
        <ele>434.6</ele>
        <time>2022-08-14T18:22:24Z</time>
      </trkpt>
      <trkpt lat="40.7689550" lon="-8.3276850">
        <ele>434.8</ele>
        <time>2022-08-14T18:22:25Z</time>
      </trkpt>
      <trkpt lat="40.7689420" lon="-8.3277030">
        <ele>435.0</ele>
        <time>2022-08-14T18:22:26Z</time>
      </trkpt>
      <trkpt lat="40.7689090" lon="-8.3277210">
        <ele>435.2</ele>
        <time>2022-08-14T18:22:29Z</time>
      </trkpt>
      <trkpt lat="40.7688620" lon="-8.3277520">
        <ele>435.6</ele>
        <time>2022-08-14T18:22:32Z</time>
      </trkpt>
      <trkpt lat="40.7688380" lon="-8.3277720">
        <ele>436.0</ele>
        <time>2022-08-14T18:22:34Z</time>
      </trkpt>
      <trkpt lat="40.7687940" lon="-8.3277780">
        <ele>436.6</ele>
        <time>2022-08-14T18:22:38Z</time>
      </trkpt>
      <trkpt lat="40.7687780" lon="-8.3277730">
        <ele>436.6</ele>
        <time>2022-08-14T18:22:39Z</time>
      </trkpt>
      <trkpt lat="40.7687540" lon="-8.3277770">
        <ele>437.0</ele>
        <time>2022-08-14T18:22:41Z</time>
      </trkpt>
      <trkpt lat="40.7686970" lon="-8.3278070">
        <ele>437.6</ele>
        <time>2022-08-14T18:22:46Z</time>
      </trkpt>
      <trkpt lat="40.7686690" lon="-8.3278230">
        <ele>438.0</ele>
        <time>2022-08-14T18:22:48Z</time>
      </trkpt>
      <trkpt lat="40.7686040" lon="-8.3278440">
        <ele>438.8</ele>
        <time>2022-08-14T18:22:52Z</time>
      </trkpt>
      <trkpt lat="40.7685930" lon="-8.3278500">
        <ele>439.0</ele>
        <time>2022-08-14T18:22:53Z</time>
      </trkpt>
      <trkpt lat="40.7685480" lon="-8.3278890">
        <ele>439.2</ele>
        <time>2022-08-14T18:22:56Z</time>
      </trkpt>
      <trkpt lat="40.7685010" lon="-8.3279310">
        <ele>439.8</ele>
        <time>2022-08-14T18:23:00Z</time>
      </trkpt>
      <trkpt lat="40.7684640" lon="-8.3279750">
        <ele>440.4</ele>
        <time>2022-08-14T18:23:03Z</time>
      </trkpt>
      <trkpt lat="40.7684380" lon="-8.3280130">
        <ele>441.0</ele>
        <time>2022-08-14T18:23:06Z</time>
      </trkpt>
      <trkpt lat="40.7683900" lon="-8.3280600">
        <ele>441.6</ele>
        <time>2022-08-14T18:23:10Z</time>
      </trkpt>
      <trkpt lat="40.7683760" lon="-8.3280760">
        <ele>441.6</ele>
        <time>2022-08-14T18:23:11Z</time>
      </trkpt>
      <trkpt lat="40.7683540" lon="-8.3281030">
        <ele>441.8</ele>
        <time>2022-08-14T18:23:13Z</time>
      </trkpt>
      <trkpt lat="40.7683490" lon="-8.3281160">
        <ele>442.0</ele>
        <time>2022-08-14T18:23:14Z</time>
      </trkpt>
      <trkpt lat="40.7683470" lon="-8.3281280">
        <ele>442.0</ele>
        <time>2022-08-14T18:23:15Z</time>
      </trkpt>
      <trkpt lat="40.7683320" lon="-8.3281530">
        <ele>442.2</ele>
        <time>2022-08-14T18:23:17Z</time>
      </trkpt>
      <trkpt lat="40.7682850" lon="-8.3282030">
        <ele>442.6</ele>
        <time>2022-08-14T18:23:21Z</time>
      </trkpt>
      <trkpt lat="40.7682720" lon="-8.3282200">
        <ele>442.6</ele>
        <time>2022-08-14T18:23:22Z</time>
      </trkpt>
      <trkpt lat="40.7682390" lon="-8.3282570">
        <ele>442.8</ele>
        <time>2022-08-14T18:23:25Z</time>
      </trkpt>
      <trkpt lat="40.7682100" lon="-8.3282960">
        <ele>443.0</ele>
        <time>2022-08-14T18:23:27Z</time>
      </trkpt>
      <trkpt lat="40.7681980" lon="-8.3283080">
        <ele>443.0</ele>
        <time>2022-08-14T18:23:28Z</time>
      </trkpt>
      <trkpt lat="40.7681570" lon="-8.3283520">
        <ele>443.2</ele>
        <time>2022-08-14T18:23:32Z</time>
      </trkpt>
      <trkpt lat="40.7681420" lon="-8.3283720">
        <ele>443.2</ele>
        <time>2022-08-14T18:23:33Z</time>
      </trkpt>
      <trkpt lat="40.7680940" lon="-8.3284330">
        <ele>443.4</ele>
        <time>2022-08-14T18:23:37Z</time>
      </trkpt>
      <trkpt lat="40.7680400" lon="-8.3284700">
        <ele>443.8</ele>
        <time>2022-08-14T18:23:40Z</time>
      </trkpt>
      <trkpt lat="40.7679200" lon="-8.3285550">
        <ele>444.6</ele>
        <time>2022-08-14T18:23:47Z</time>
      </trkpt>
      <trkpt lat="40.7679070" lon="-8.3285760">
        <ele>444.6</ele>
        <time>2022-08-14T18:23:48Z</time>
      </trkpt>
      <trkpt lat="40.7678600" lon="-8.3286030">
        <ele>444.8</ele>
        <time>2022-08-14T18:23:51Z</time>
      </trkpt>
      <trkpt lat="40.7678410" lon="-8.3286180">
        <ele>445.0</ele>
        <time>2022-08-14T18:23:52Z</time>
      </trkpt>
      <trkpt lat="40.7677730" lon="-8.3286880">
        <ele>445.2</ele>
        <time>2022-08-14T18:23:58Z</time>
      </trkpt>
      <trkpt lat="40.7677490" lon="-8.3287440">
        <ele>445.8</ele>
        <time>2022-08-14T18:24:02Z</time>
      </trkpt>
      <trkpt lat="40.7677370" lon="-8.3288080">
        <ele>446.6</ele>
        <time>2022-08-14T18:24:05Z</time>
      </trkpt>
      <trkpt lat="40.7677330" lon="-8.3288590">
        <ele>446.8</ele>
        <time>2022-08-14T18:24:07Z</time>
      </trkpt>
      <trkpt lat="40.7677240" lon="-8.3289540">
        <ele>447.2</ele>
        <time>2022-08-14T18:24:11Z</time>
      </trkpt>
      <trkpt lat="40.7677490" lon="-8.3292040">
        <ele>447.4</ele>
        <time>2022-08-14T18:24:19Z</time>
      </trkpt>
      <trkpt lat="40.7677860" lon="-8.3294170">
        <ele>447.0</ele>
        <time>2022-08-14T18:24:26Z</time>
      </trkpt>
      <trkpt lat="40.7679220" lon="-8.3297320">
        <ele>446.4</ele>
        <time>2022-08-14T18:24:32Z</time>
      </trkpt>
      <trkpt lat="40.7680330" lon="-8.3299240">
        <ele>445.8</ele>
        <time>2022-08-14T18:24:36Z</time>
      </trkpt>
      <trkpt lat="40.7680620" lon="-8.3299680">
        <ele>445.6</ele>
        <time>2022-08-14T18:24:37Z</time>
      </trkpt>
      <trkpt lat="40.7681010" lon="-8.3300200">
        <ele>445.6</ele>
        <time>2022-08-14T18:24:38Z</time>
      </trkpt>
      <trkpt lat="40.7683460" lon="-8.3303260">
        <ele>444.8</ele>
        <time>2022-08-14T18:24:44Z</time>
      </trkpt>
      <trkpt lat="40.7684180" lon="-8.3304370">
        <ele>444.4</ele>
        <time>2022-08-14T18:24:46Z</time>
      </trkpt>
      <trkpt lat="40.7684790" lon="-8.3305580">
        <ele>444.0</ele>
        <time>2022-08-14T18:24:48Z</time>
      </trkpt>
      <trkpt lat="40.7685040" lon="-8.3306310">
        <ele>443.8</ele>
        <time>2022-08-14T18:24:49Z</time>
      </trkpt>
      <trkpt lat="40.7685290" lon="-8.3307070">
        <ele>443.8</ele>
        <time>2022-08-14T18:24:50Z</time>
      </trkpt>
      <trkpt lat="40.7686400" lon="-8.3309950">
        <ele>443.0</ele>
        <time>2022-08-14T18:24:54Z</time>
      </trkpt>
      <trkpt lat="40.7687610" lon="-8.3311560">
        <ele>442.4</ele>
        <time>2022-08-14T18:24:57Z</time>
      </trkpt>
      <trkpt lat="40.7687990" lon="-8.3311910">
        <ele>442.2</ele>
        <time>2022-08-14T18:24:58Z</time>
      </trkpt>
      <trkpt lat="40.7689180" lon="-8.3312680">
        <ele>441.4</ele>
        <time>2022-08-14T18:25:01Z</time>
      </trkpt>
      <trkpt lat="40.7690030" lon="-8.3313210">
        <ele>441.2</ele>
        <time>2022-08-14T18:25:03Z</time>
      </trkpt>
      <trkpt lat="40.7691820" lon="-8.3313940">
        <ele>440.8</ele>
        <time>2022-08-14T18:25:07Z</time>
      </trkpt>
      <trkpt lat="40.7693270" lon="-8.3314510">
        <ele>440.8</ele>
        <time>2022-08-14T18:25:10Z</time>
      </trkpt>
      <trkpt lat="40.7696140" lon="-8.3315740">
        <ele>440.4</ele>
        <time>2022-08-14T18:25:17Z</time>
      </trkpt>
      <trkpt lat="40.7696470" lon="-8.3316010">
        <ele>440.2</ele>
        <time>2022-08-14T18:25:18Z</time>
      </trkpt>
      <trkpt lat="40.7697680" lon="-8.3316610">
        <ele>440.0</ele>
        <time>2022-08-14T18:25:21Z</time>
      </trkpt>
      <trkpt lat="40.7698800" lon="-8.3316970">
        <ele>439.6</ele>
        <time>2022-08-14T18:25:24Z</time>
      </trkpt>
      <trkpt lat="40.7699930" lon="-8.3317210">
        <ele>439.6</ele>
        <time>2022-08-14T18:25:27Z</time>
      </trkpt>
      <trkpt lat="40.7701150" lon="-8.3317590">
        <ele>439.4</ele>
        <time>2022-08-14T18:25:30Z</time>
      </trkpt>
      <trkpt lat="40.7703400" lon="-8.3318470">
        <ele>439.2</ele>
        <time>2022-08-14T18:25:36Z</time>
      </trkpt>
      <trkpt lat="40.7705170" lon="-8.3319680">
        <ele>439.0</ele>
        <time>2022-08-14T18:25:41Z</time>
      </trkpt>
      <trkpt lat="40.7706990" lon="-8.3320700">
        <ele>439.0</ele>
        <time>2022-08-14T18:25:46Z</time>
      </trkpt>
      <trkpt lat="40.7708660" lon="-8.3321400">
        <ele>438.8</ele>
        <time>2022-08-14T18:25:50Z</time>
      </trkpt>
      <trkpt lat="40.7710880" lon="-8.3323730">
        <ele>438.4</ele>
        <time>2022-08-14T18:25:56Z</time>
      </trkpt>
      <trkpt lat="40.7711210" lon="-8.3324470">
        <ele>438.4</ele>
        <time>2022-08-14T18:25:57Z</time>
      </trkpt>
      <trkpt lat="40.7711250" lon="-8.3325980">
        <ele>438.0</ele>
        <time>2022-08-14T18:25:59Z</time>
      </trkpt>
      <trkpt lat="40.7711140" lon="-8.3326620">
        <ele>437.8</ele>
        <time>2022-08-14T18:26:00Z</time>
      </trkpt>
      <trkpt lat="40.7710950" lon="-8.3327460">
        <ele>437.2</ele>
        <time>2022-08-14T18:26:02Z</time>
      </trkpt>
      <trkpt lat="40.7710930" lon="-8.3327440">
        <ele>437.2</ele>
        <time>2022-08-14T18:26:03Z</time>
      </trkpt>
      <trkpt lat="40.7710070" lon="-8.3327130">
        <ele>437.0</ele>
        <time>2022-08-14T18:26:07Z</time>
      </trkpt>
      <trkpt lat="40.7709250" lon="-8.3326740">
        <ele>437.4</ele>
        <time>2022-08-14T18:26:12Z</time>
      </trkpt>
      <trkpt lat="40.7708150" lon="-8.3326660">
        <ele>438.0</ele>
        <time>2022-08-14T18:26:18Z</time>
      </trkpt>
      <trkpt lat="40.7707830" lon="-8.3326730">
        <ele>438.6</ele>
        <time>2022-08-14T18:26:20Z</time>
      </trkpt>
      <trkpt lat="40.7707430" lon="-8.3326680">
        <ele>439.0</ele>
        <time>2022-08-14T18:26:23Z</time>
      </trkpt>
      <trkpt lat="40.7707070" lon="-8.3326650">
        <ele>439.4</ele>
        <time>2022-08-14T18:26:25Z</time>
      </trkpt>
      <trkpt lat="40.7706900" lon="-8.3326650">
        <ele>439.6</ele>
        <time>2022-08-14T18:26:26Z</time>
      </trkpt>
      <trkpt lat="40.7706040" lon="-8.3326710">
        <ele>440.0</ele>
        <time>2022-08-14T18:26:31Z</time>
      </trkpt>
      <trkpt lat="40.7705580" lon="-8.3326760">
        <ele>440.4</ele>
        <time>2022-08-14T18:26:33Z</time>
      </trkpt>
      <trkpt lat="40.7704510" lon="-8.3326910">
        <ele>441.2</ele>
        <time>2022-08-14T18:26:38Z</time>
      </trkpt>
      <trkpt lat="40.7704200" lon="-8.3327000">
        <ele>441.2</ele>
        <time>2022-08-14T18:26:39Z</time>
      </trkpt>
      <trkpt lat="40.7703590" lon="-8.3327130">
        <ele>441.6</ele>
        <time>2022-08-14T18:26:42Z</time>
      </trkpt>
      <trkpt lat="40.7702870" lon="-8.3327390">
        <ele>441.8</ele>
        <time>2022-08-14T18:26:46Z</time>
      </trkpt>
      <trkpt lat="40.7702480" lon="-8.3327440">
        <ele>442.4</ele>
        <time>2022-08-14T18:26:48Z</time>
      </trkpt>
      <trkpt lat="40.7701230" lon="-8.3327650">
        <ele>443.2</ele>
        <time>2022-08-14T18:26:54Z</time>
      </trkpt>
      <trkpt lat="40.7701060" lon="-8.3327710">
        <ele>443.4</ele>
        <time>2022-08-14T18:26:55Z</time>
      </trkpt>
      <trkpt lat="40.7699930" lon="-8.3328220">
        <ele>444.4</ele>
        <time>2022-08-14T18:27:02Z</time>
      </trkpt>
      <trkpt lat="40.7698560" lon="-8.3328760">
        <ele>445.4</ele>
        <time>2022-08-14T18:27:09Z</time>
      </trkpt>
      <trkpt lat="40.7698150" lon="-8.3328850">
        <ele>445.6</ele>
        <time>2022-08-14T18:27:11Z</time>
      </trkpt>
      <trkpt lat="40.7696600" lon="-8.3328970">
        <ele>446.6</ele>
        <time>2022-08-14T18:27:18Z</time>
      </trkpt>
      <trkpt lat="40.7696050" lon="-8.3328940">
        <ele>447.0</ele>
        <time>2022-08-14T18:27:20Z</time>
      </trkpt>
      <trkpt lat="40.7695110" lon="-8.3328930">
        <ele>447.6</ele>
        <time>2022-08-14T18:27:24Z</time>
      </trkpt>
      <trkpt lat="40.7694900" lon="-8.3328980">
        <ele>447.6</ele>
        <time>2022-08-14T18:27:25Z</time>
      </trkpt>
      <trkpt lat="40.7694460" lon="-8.3328990">
        <ele>448.0</ele>
        <time>2022-08-14T18:27:27Z</time>
      </trkpt>
      <trkpt lat="40.7692940" lon="-8.3329020">
        <ele>448.6</ele>
        <time>2022-08-14T18:27:33Z</time>
      </trkpt>
      <trkpt lat="40.7692680" lon="-8.3329050">
        <ele>448.8</ele>
        <time>2022-08-14T18:27:34Z</time>
      </trkpt>
      <trkpt lat="40.7690780" lon="-8.3329460">
        <ele>449.6</ele>
        <time>2022-08-14T18:27:41Z</time>
      </trkpt>
      <trkpt lat="40.7690580" lon="-8.3329520">
        <ele>450.0</ele>
        <time>2022-08-14T18:27:42Z</time>
      </trkpt>
      <trkpt lat="40.7689610" lon="-8.3330200">
        <ele>450.8</ele>
        <time>2022-08-14T18:27:47Z</time>
      </trkpt>
      <trkpt lat="40.7689290" lon="-8.3330360">
        <ele>451.0</ele>
        <time>2022-08-14T18:27:49Z</time>
      </trkpt>
      <trkpt lat="40.7688320" lon="-8.3330720">
        <ele>451.8</ele>
        <time>2022-08-14T18:27:54Z</time>
      </trkpt>
      <trkpt lat="40.7687750" lon="-8.3330960">
        <ele>452.2</ele>
        <time>2022-08-14T18:27:57Z</time>
      </trkpt>
      <trkpt lat="40.7686980" lon="-8.3331290">
        <ele>452.8</ele>
        <time>2022-08-14T18:28:01Z</time>
      </trkpt>
      <trkpt lat="40.7686570" lon="-8.3331510">
        <ele>453.2</ele>
        <time>2022-08-14T18:28:03Z</time>
      </trkpt>
      <trkpt lat="40.7685690" lon="-8.3331850">
        <ele>453.8</ele>
        <time>2022-08-14T18:28:07Z</time>
      </trkpt>
      <trkpt lat="40.7685150" lon="-8.3332030">
        <ele>454.2</ele>
        <time>2022-08-14T18:28:09Z</time>
      </trkpt>
      <trkpt lat="40.7684560" lon="-8.3332050">
        <ele>454.4</ele>
        <time>2022-08-14T18:28:11Z</time>
      </trkpt>
      <trkpt lat="40.7683900" lon="-8.3332290">
        <ele>454.8</ele>
        <time>2022-08-14T18:28:14Z</time>
      </trkpt>
      <trkpt lat="40.7682790" lon="-8.3332700">
        <ele>455.8</ele>
        <time>2022-08-14T18:28:19Z</time>
      </trkpt>
      <trkpt lat="40.7682370" lon="-8.3332930">
        <ele>456.0</ele>
        <time>2022-08-14T18:28:21Z</time>
      </trkpt>
      <trkpt lat="40.7681280" lon="-8.3333470">
        <ele>456.8</ele>
        <time>2022-08-14T18:28:26Z</time>
      </trkpt>
      <trkpt lat="40.7681060" lon="-8.3333530">
        <ele>456.8</ele>
        <time>2022-08-14T18:28:27Z</time>
      </trkpt>
      <trkpt lat="40.7679600" lon="-8.3333830">
        <ele>458.0</ele>
        <time>2022-08-14T18:28:33Z</time>
      </trkpt>
      <trkpt lat="40.7678710" lon="-8.3334550">
        <ele>458.6</ele>
        <time>2022-08-14T18:28:38Z</time>
      </trkpt>
      <trkpt lat="40.7677980" lon="-8.3334860">
        <ele>459.0</ele>
        <time>2022-08-14T18:28:42Z</time>
      </trkpt>
      <trkpt lat="40.7677430" lon="-8.3335070">
        <ele>459.4</ele>
        <time>2022-08-14T18:28:45Z</time>
      </trkpt>
      <trkpt lat="40.7676720" lon="-8.3335350">
        <ele>460.2</ele>
        <time>2022-08-14T18:28:49Z</time>
      </trkpt>
      <trkpt lat="40.7676310" lon="-8.3335460">
        <ele>461.4</ele>
        <time>2022-08-14T18:28:52Z</time>
      </trkpt>
      <trkpt lat="40.7676160" lon="-8.3335530">
        <ele>461.6</ele>
        <time>2022-08-14T18:28:53Z</time>
      </trkpt>
      <trkpt lat="40.7675330" lon="-8.3335760">
        <ele>462.0</ele>
        <time>2022-08-14T18:28:58Z</time>
      </trkpt>
      <trkpt lat="40.7674990" lon="-8.3335730">
        <ele>462.2</ele>
        <time>2022-08-14T18:29:00Z</time>
      </trkpt>
      <trkpt lat="40.7674790" lon="-8.3335760">
        <ele>462.4</ele>
        <time>2022-08-14T18:29:01Z</time>
      </trkpt>
      <trkpt lat="40.7673780" lon="-8.3335870">
        <ele>463.2</ele>
        <time>2022-08-14T18:29:05Z</time>
      </trkpt>
      <trkpt lat="40.7673430" lon="-8.3335800">
        <ele>463.6</ele>
        <time>2022-08-14T18:29:06Z</time>
      </trkpt>
      <trkpt lat="40.7673150" lon="-8.3335800">
        <ele>463.8</ele>
        <time>2022-08-14T18:29:07Z</time>
      </trkpt>
      <trkpt lat="40.7671430" lon="-8.3335130">
        <ele>463.8</ele>
        <time>2022-08-14T18:29:13Z</time>
      </trkpt>
      <trkpt lat="40.7669830" lon="-8.3334870">
        <ele>463.8</ele>
        <time>2022-08-14T18:29:18Z</time>
      </trkpt>
      <trkpt lat="40.7668180" lon="-8.3334290">
        <ele>464.0</ele>
        <time>2022-08-14T18:29:23Z</time>
      </trkpt>
      <trkpt lat="40.7666250" lon="-8.3332530">
        <ele>464.4</ele>
        <time>2022-08-14T18:29:30Z</time>
      </trkpt>
      <trkpt lat="40.7664830" lon="-8.3331600">
        <ele>464.2</ele>
        <time>2022-08-14T18:29:34Z</time>
      </trkpt>
      <trkpt lat="40.7662060" lon="-8.3329590">
        <ele>463.8</ele>
        <time>2022-08-14T18:29:40Z</time>
      </trkpt>
      <trkpt lat="40.7659930" lon="-8.3327180">
        <ele>462.6</ele>
        <time>2022-08-14T18:29:44Z</time>
      </trkpt>
      <trkpt lat="40.7659060" lon="-8.3325880">
        <ele>462.2</ele>
        <time>2022-08-14T18:29:46Z</time>
      </trkpt>
      <trkpt lat="40.7658620" lon="-8.3325300">
        <ele>461.8</ele>
        <time>2022-08-14T18:29:47Z</time>
      </trkpt>
      <trkpt lat="40.7657770" lon="-8.3324140">
        <ele>461.2</ele>
        <time>2022-08-14T18:29:49Z</time>
      </trkpt>
      <trkpt lat="40.7657330" lon="-8.3323540">
        <ele>460.8</ele>
        <time>2022-08-14T18:29:50Z</time>
      </trkpt>
      <trkpt lat="40.7655800" lon="-8.3321520">
        <ele>460.0</ele>
        <time>2022-08-14T18:29:54Z</time>
      </trkpt>
      <trkpt lat="40.7655020" lon="-8.3320570">
        <ele>459.8</ele>
        <time>2022-08-14T18:29:56Z</time>
      </trkpt>
      <trkpt lat="40.7654200" lon="-8.3319910">
        <ele>459.6</ele>
        <time>2022-08-14T18:29:58Z</time>
      </trkpt>
      <trkpt lat="40.7653860" lon="-8.3319770">
        <ele>459.6</ele>
        <time>2022-08-14T18:29:59Z</time>
      </trkpt>
      <trkpt lat="40.7653430" lon="-8.3319700">
        <ele>459.6</ele>
        <time>2022-08-14T18:30:00Z</time>
      </trkpt>
      <trkpt lat="40.7652220" lon="-8.3319720">
        <ele>459.6</ele>
        <time>2022-08-14T18:30:03Z</time>
      </trkpt>
      <trkpt lat="40.7651030" lon="-8.3320260">
        <ele>459.8</ele>
        <time>2022-08-14T18:30:08Z</time>
      </trkpt>
      <trkpt lat="40.7649800" lon="-8.3321220">
        <ele>461.0</ele>
        <time>2022-08-14T18:30:14Z</time>
      </trkpt>
      <trkpt lat="40.7649500" lon="-8.3321270">
        <ele>461.2</ele>
        <time>2022-08-14T18:30:16Z</time>
      </trkpt>
      <trkpt lat="40.7649110" lon="-8.3321240">
        <ele>461.4</ele>
        <time>2022-08-14T18:30:18Z</time>
      </trkpt>
      <trkpt lat="40.7648920" lon="-8.3321360">
        <ele>461.6</ele>
        <time>2022-08-14T18:30:19Z</time>
      </trkpt>
      <trkpt lat="40.7648810" lon="-8.3321540">
        <ele>461.6</ele>
        <time>2022-08-14T18:30:20Z</time>
      </trkpt>
      <trkpt lat="40.7648460" lon="-8.3322300">
        <ele>462.0</ele>
        <time>2022-08-14T18:30:23Z</time>
      </trkpt>
      <trkpt lat="40.7648250" lon="-8.3322450">
        <ele>462.0</ele>
        <time>2022-08-14T18:30:24Z</time>
      </trkpt>
      <trkpt lat="40.7646910" lon="-8.3323540">
        <ele>462.2</ele>
        <time>2022-08-14T18:30:29Z</time>
      </trkpt>
      <trkpt lat="40.7644670" lon="-8.3325340">
        <ele>462.2</ele>
        <time>2022-08-14T18:30:37Z</time>
      </trkpt>
      <trkpt lat="40.7643240" lon="-8.3325340">
        <ele>462.2</ele>
        <time>2022-08-14T18:30:42Z</time>
      </trkpt>
      <trkpt lat="40.7641420" lon="-8.3324500">
        <ele>462.6</ele>
        <time>2022-08-14T18:30:49Z</time>
      </trkpt>
      <trkpt lat="40.7640010" lon="-8.3324260">
        <ele>463.0</ele>
        <time>2022-08-14T18:30:55Z</time>
      </trkpt>
      <trkpt lat="40.7639280" lon="-8.3324120">
        <ele>463.2</ele>
        <time>2022-08-14T18:30:58Z</time>
      </trkpt>
      <trkpt lat="40.7637220" lon="-8.3323940">
        <ele>463.2</ele>
        <time>2022-08-14T18:31:03Z</time>
      </trkpt>
      <trkpt lat="40.7636080" lon="-8.3323780">
        <ele>463.2</ele>
        <time>2022-08-14T18:31:05Z</time>
      </trkpt>
      <trkpt lat="40.7634060" lon="-8.3323810">
        <ele>462.6</ele>
        <time>2022-08-14T18:31:08Z</time>
      </trkpt>
      <trkpt lat="40.7632100" lon="-8.3323570">
        <ele>462.0</ele>
        <time>2022-08-14T18:31:11Z</time>
      </trkpt>
      <trkpt lat="40.7630900" lon="-8.3323120">
        <ele>461.0</ele>
        <time>2022-08-14T18:31:13Z</time>
      </trkpt>
      <trkpt lat="40.7630160" lon="-8.3322920">
        <ele>460.6</ele>
        <time>2022-08-14T18:31:14Z</time>
      </trkpt>
      <trkpt lat="40.7628370" lon="-8.3322850">
        <ele>460.0</ele>
        <time>2022-08-14T18:31:17Z</time>
      </trkpt>
      <trkpt lat="40.7626930" lon="-8.3323300">
        <ele>459.8</ele>
        <time>2022-08-14T18:31:19Z</time>
      </trkpt>
      <trkpt lat="40.7626180" lon="-8.3323670">
        <ele>459.6</ele>
        <time>2022-08-14T18:31:20Z</time>
      </trkpt>
      <trkpt lat="40.7625430" lon="-8.3324040">
        <ele>459.0</ele>
        <time>2022-08-14T18:31:21Z</time>
      </trkpt>
      <trkpt lat="40.7624490" lon="-8.3324390">
        <ele>458.8</ele>
        <time>2022-08-14T18:31:22Z</time>
      </trkpt>
      <trkpt lat="40.7623800" lon="-8.3324540">
        <ele>458.4</ele>
        <time>2022-08-14T18:31:23Z</time>
      </trkpt>
      <trkpt lat="40.7621220" lon="-8.3325280">
        <ele>457.4</ele>
        <time>2022-08-14T18:31:26Z</time>
      </trkpt>
      <trkpt lat="40.7620330" lon="-8.3325620">
        <ele>456.8</ele>
        <time>2022-08-14T18:31:27Z</time>
      </trkpt>
      <trkpt lat="40.7618700" lon="-8.3326910">
        <ele>456.2</ele>
        <time>2022-08-14T18:31:29Z</time>
      </trkpt>
      <trkpt lat="40.7618050" lon="-8.3327740">
        <ele>455.6</ele>
        <time>2022-08-14T18:31:30Z</time>
      </trkpt>
      <trkpt lat="40.7617470" lon="-8.3328660">
        <ele>455.4</ele>
        <time>2022-08-14T18:31:31Z</time>
      </trkpt>
      <trkpt lat="40.7616480" lon="-8.3330510">
        <ele>454.0</ele>
        <time>2022-08-14T18:31:33Z</time>
      </trkpt>
      <trkpt lat="40.7615950" lon="-8.3331610">
        <ele>453.4</ele>
        <time>2022-08-14T18:31:34Z</time>
      </trkpt>
      <trkpt lat="40.7615350" lon="-8.3333380">
        <ele>452.8</ele>
        <time>2022-08-14T18:31:36Z</time>
      </trkpt>
      <trkpt lat="40.7615090" lon="-8.3334330">
        <ele>452.6</ele>
        <time>2022-08-14T18:31:37Z</time>
      </trkpt>
      <trkpt lat="40.7614740" lon="-8.3338140">
        <ele>451.6</ele>
        <time>2022-08-14T18:31:41Z</time>
      </trkpt>
      <trkpt lat="40.7614920" lon="-8.3341780">
        <ele>450.6</ele>
        <time>2022-08-14T18:31:45Z</time>
      </trkpt>
      <trkpt lat="40.7615120" lon="-8.3344350">
        <ele>450.0</ele>
        <time>2022-08-14T18:31:48Z</time>
      </trkpt>
      <trkpt lat="40.7615350" lon="-8.3347090">
        <ele>449.6</ele>
        <time>2022-08-14T18:31:51Z</time>
      </trkpt>
      <trkpt lat="40.7615610" lon="-8.3349090">
        <ele>449.2</ele>
        <time>2022-08-14T18:31:53Z</time>
      </trkpt>
      <trkpt lat="40.7616280" lon="-8.3351050">
        <ele>449.0</ele>
        <time>2022-08-14T18:31:55Z</time>
      </trkpt>
      <trkpt lat="40.7617320" lon="-8.3353060">
        <ele>448.4</ele>
        <time>2022-08-14T18:31:57Z</time>
      </trkpt>
      <trkpt lat="40.7619060" lon="-8.3356470">
        <ele>446.8</ele>
        <time>2022-08-14T18:32:00Z</time>
      </trkpt>
      <trkpt lat="40.7620160" lon="-8.3359010">
        <ele>445.2</ele>
        <time>2022-08-14T18:32:02Z</time>
      </trkpt>
      <trkpt lat="40.7620910" lon="-8.3361870">
        <ele>443.6</ele>
        <time>2022-08-14T18:32:04Z</time>
      </trkpt>
      <trkpt lat="40.7621420" lon="-8.3363530">
        <ele>442.0</ele>
        <time>2022-08-14T18:32:05Z</time>
      </trkpt>
      <trkpt lat="40.7621950" lon="-8.3364490">
        <ele>441.2</ele>
        <time>2022-08-14T18:32:06Z</time>
      </trkpt>
      <trkpt lat="40.7622650" lon="-8.3365640">
        <ele>440.0</ele>
        <time>2022-08-14T18:32:07Z</time>
      </trkpt>
      <trkpt lat="40.7623270" lon="-8.3366860">
        <ele>439.4</ele>
        <time>2022-08-14T18:32:08Z</time>
      </trkpt>
      <trkpt lat="40.7623640" lon="-8.3368520">
        <ele>438.2</ele>
        <time>2022-08-14T18:32:09Z</time>
      </trkpt>
      <trkpt lat="40.7623580" lon="-8.3370010">
        <ele>437.8</ele>
        <time>2022-08-14T18:32:10Z</time>
      </trkpt>
      <trkpt lat="40.7623430" lon="-8.3371180">
        <ele>436.4</ele>
        <time>2022-08-14T18:32:11Z</time>
      </trkpt>
      <trkpt lat="40.7623220" lon="-8.3372640">
        <ele>435.6</ele>
        <time>2022-08-14T18:32:12Z</time>
      </trkpt>
      <trkpt lat="40.7623060" lon="-8.3374150">
        <ele>435.2</ele>
        <time>2022-08-14T18:32:13Z</time>
      </trkpt>
      <trkpt lat="40.7623000" lon="-8.3375990">
        <ele>434.2</ele>
        <time>2022-08-14T18:32:14Z</time>
      </trkpt>
      <trkpt lat="40.7623020" lon="-8.3377240">
        <ele>433.8</ele>
        <time>2022-08-14T18:32:15Z</time>
      </trkpt>
      <trkpt lat="40.7623020" lon="-8.3378810">
        <ele>433.0</ele>
        <time>2022-08-14T18:32:16Z</time>
      </trkpt>
      <trkpt lat="40.7622940" lon="-8.3380420">
        <ele>432.0</ele>
        <time>2022-08-14T18:32:17Z</time>
      </trkpt>
      <trkpt lat="40.7622830" lon="-8.3382060">
        <ele>430.8</ele>
        <time>2022-08-14T18:32:18Z</time>
      </trkpt>
      <trkpt lat="40.7622810" lon="-8.3384010">
        <ele>430.0</ele>
        <time>2022-08-14T18:32:19Z</time>
      </trkpt>
      <trkpt lat="40.7623010" lon="-8.3385250">
        <ele>429.4</ele>
        <time>2022-08-14T18:32:20Z</time>
      </trkpt>
      <trkpt lat="40.7623540" lon="-8.3386510">
        <ele>428.2</ele>
        <time>2022-08-14T18:32:21Z</time>
      </trkpt>
      <trkpt lat="40.7624410" lon="-8.3387430">
        <ele>427.4</ele>
        <time>2022-08-14T18:32:22Z</time>
      </trkpt>
      <trkpt lat="40.7625450" lon="-8.3387980">
        <ele>425.6</ele>
        <time>2022-08-14T18:32:23Z</time>
      </trkpt>
      <trkpt lat="40.7626800" lon="-8.3388240">
        <ele>425.2</ele>
        <time>2022-08-14T18:32:24Z</time>
      </trkpt>
      <trkpt lat="40.7627770" lon="-8.3388170">
        <ele>423.2</ele>
        <time>2022-08-14T18:32:25Z</time>
      </trkpt>
      <trkpt lat="40.7628920" lon="-8.3388120">
        <ele>421.4</ele>
        <time>2022-08-14T18:32:26Z</time>
      </trkpt>
      <trkpt lat="40.7630010" lon="-8.3388360">
        <ele>420.6</ele>
        <time>2022-08-14T18:32:27Z</time>
      </trkpt>
      <trkpt lat="40.7630920" lon="-8.3388880">
        <ele>419.2</ele>
        <time>2022-08-14T18:32:28Z</time>
      </trkpt>
      <trkpt lat="40.7631510" lon="-8.3389730">
        <ele>418.6</ele>
        <time>2022-08-14T18:32:29Z</time>
      </trkpt>
      <trkpt lat="40.7631710" lon="-8.3390910">
        <ele>417.4</ele>
        <time>2022-08-14T18:32:30Z</time>
      </trkpt>
      <trkpt lat="40.7631420" lon="-8.3392230">
        <ele>416.4</ele>
        <time>2022-08-14T18:32:31Z</time>
      </trkpt>
      <trkpt lat="40.7630880" lon="-8.3393460">
        <ele>415.0</ele>
        <time>2022-08-14T18:32:32Z</time>
      </trkpt>
      <trkpt lat="40.7630240" lon="-8.3394560">
        <ele>414.2</ele>
        <time>2022-08-14T18:32:33Z</time>
      </trkpt>
      <trkpt lat="40.7629500" lon="-8.3395510">
        <ele>413.2</ele>
        <time>2022-08-14T18:32:34Z</time>
      </trkpt>
      <trkpt lat="40.7628720" lon="-8.3396480">
        <ele>412.0</ele>
        <time>2022-08-14T18:32:35Z</time>
      </trkpt>
      <trkpt lat="40.7627180" lon="-8.3398670">
        <ele>410.2</ele>
        <time>2022-08-14T18:32:37Z</time>
      </trkpt>
      <trkpt lat="40.7626400" lon="-8.3399820">
        <ele>410.0</ele>
        <time>2022-08-14T18:32:38Z</time>
      </trkpt>
      <trkpt lat="40.7625500" lon="-8.3400900">
        <ele>409.2</ele>
        <time>2022-08-14T18:32:39Z</time>
      </trkpt>
      <trkpt lat="40.7623490" lon="-8.3402300">
        <ele>407.0</ele>
        <time>2022-08-14T18:32:41Z</time>
      </trkpt>
      <trkpt lat="40.7622050" lon="-8.3402580">
        <ele>405.4</ele>
        <time>2022-08-14T18:32:42Z</time>
      </trkpt>
      <trkpt lat="40.7619850" lon="-8.3402940">
        <ele>403.8</ele>
        <time>2022-08-14T18:32:44Z</time>
      </trkpt>
      <trkpt lat="40.7617550" lon="-8.3404160">
        <ele>401.4</ele>
        <time>2022-08-14T18:32:46Z</time>
      </trkpt>
      <trkpt lat="40.7616400" lon="-8.3404840">
        <ele>400.8</ele>
        <time>2022-08-14T18:32:47Z</time>
      </trkpt>
      <trkpt lat="40.7615130" lon="-8.3405150">
        <ele>399.4</ele>
        <time>2022-08-14T18:32:48Z</time>
      </trkpt>
      <trkpt lat="40.7613830" lon="-8.3405100">
        <ele>398.2</ele>
        <time>2022-08-14T18:32:49Z</time>
      </trkpt>
      <trkpt lat="40.7611130" lon="-8.3405410">
        <ele>396.2</ele>
        <time>2022-08-14T18:32:51Z</time>
      </trkpt>
      <trkpt lat="40.7610250" lon="-8.3405920">
        <ele>395.4</ele>
        <time>2022-08-14T18:32:52Z</time>
      </trkpt>
      <trkpt lat="40.7609310" lon="-8.3406920">
        <ele>393.6</ele>
        <time>2022-08-14T18:32:53Z</time>
      </trkpt>
      <trkpt lat="40.7608650" lon="-8.3408090">
        <ele>393.0</ele>
        <time>2022-08-14T18:32:54Z</time>
      </trkpt>
      <trkpt lat="40.7608170" lon="-8.3409380">
        <ele>392.2</ele>
        <time>2022-08-14T18:32:55Z</time>
      </trkpt>
      <trkpt lat="40.7607200" lon="-8.3411880">
        <ele>390.6</ele>
        <time>2022-08-14T18:32:57Z</time>
      </trkpt>
      <trkpt lat="40.7606700" lon="-8.3413120">
        <ele>389.6</ele>
        <time>2022-08-14T18:32:58Z</time>
      </trkpt>
      <trkpt lat="40.7605750" lon="-8.3415600">
        <ele>388.2</ele>
        <time>2022-08-14T18:33:00Z</time>
      </trkpt>
      <trkpt lat="40.7604940" lon="-8.3418160">
        <ele>387.2</ele>
        <time>2022-08-14T18:33:02Z</time>
      </trkpt>
      <trkpt lat="40.7604540" lon="-8.3419340">
        <ele>386.6</ele>
        <time>2022-08-14T18:33:03Z</time>
      </trkpt>
      <trkpt lat="40.7603920" lon="-8.3420290">
        <ele>386.2</ele>
        <time>2022-08-14T18:33:04Z</time>
      </trkpt>
      <trkpt lat="40.7603160" lon="-8.3420890">
        <ele>385.2</ele>
        <time>2022-08-14T18:33:05Z</time>
      </trkpt>
      <trkpt lat="40.7602300" lon="-8.3421210">
        <ele>384.8</ele>
        <time>2022-08-14T18:33:06Z</time>
      </trkpt>
      <trkpt lat="40.7601390" lon="-8.3421400">
        <ele>384.2</ele>
        <time>2022-08-14T18:33:07Z</time>
      </trkpt>
      <trkpt lat="40.7599660" lon="-8.3422050">
        <ele>383.2</ele>
        <time>2022-08-14T18:33:09Z</time>
      </trkpt>
      <trkpt lat="40.7598810" lon="-8.3422550">
        <ele>382.6</ele>
        <time>2022-08-14T18:33:10Z</time>
      </trkpt>
      <trkpt lat="40.7597840" lon="-8.3423240">
        <ele>382.4</ele>
        <time>2022-08-14T18:33:11Z</time>
      </trkpt>
      <trkpt lat="40.7596460" lon="-8.3424540">
        <ele>381.8</ele>
        <time>2022-08-14T18:33:13Z</time>
      </trkpt>
      <trkpt lat="40.7595710" lon="-8.3425260">
        <ele>381.4</ele>
        <time>2022-08-14T18:33:14Z</time>
      </trkpt>
      <trkpt lat="40.7595060" lon="-8.3426120">
        <ele>380.8</ele>
        <time>2022-08-14T18:33:15Z</time>
      </trkpt>
      <trkpt lat="40.7594680" lon="-8.3427130">
        <ele>380.2</ele>
        <time>2022-08-14T18:33:16Z</time>
      </trkpt>
      <trkpt lat="40.7594680" lon="-8.3428220">
        <ele>379.6</ele>
        <time>2022-08-14T18:33:17Z</time>
      </trkpt>
      <trkpt lat="40.7595000" lon="-8.3429560">
        <ele>378.8</ele>
        <time>2022-08-14T18:33:18Z</time>
      </trkpt>
      <trkpt lat="40.7595360" lon="-8.3430450">
        <ele>377.8</ele>
        <time>2022-08-14T18:33:19Z</time>
      </trkpt>
      <trkpt lat="40.7595890" lon="-8.3431510">
        <ele>377.4</ele>
        <time>2022-08-14T18:33:20Z</time>
      </trkpt>
      <trkpt lat="40.7596300" lon="-8.3432660">
        <ele>376.6</ele>
        <time>2022-08-14T18:33:21Z</time>
      </trkpt>
      <trkpt lat="40.7596360" lon="-8.3435100">
        <ele>375.2</ele>
        <time>2022-08-14T18:33:23Z</time>
      </trkpt>
      <trkpt lat="40.7595980" lon="-8.3436270">
        <ele>374.6</ele>
        <time>2022-08-14T18:33:24Z</time>
      </trkpt>
      <trkpt lat="40.7595560" lon="-8.3437420">
        <ele>373.2</ele>
        <time>2022-08-14T18:33:25Z</time>
      </trkpt>
      <trkpt lat="40.7595130" lon="-8.3438640">
        <ele>371.8</ele>
        <time>2022-08-14T18:33:26Z</time>
      </trkpt>
      <trkpt lat="40.7594840" lon="-8.3441180">
        <ele>370.4</ele>
        <time>2022-08-14T18:33:28Z</time>
      </trkpt>
      <trkpt lat="40.7595430" lon="-8.3443750">
        <ele>369.2</ele>
        <time>2022-08-14T18:33:30Z</time>
      </trkpt>
      <trkpt lat="40.7595830" lon="-8.3445010">
        <ele>368.8</ele>
        <time>2022-08-14T18:33:31Z</time>
      </trkpt>
      <trkpt lat="40.7596330" lon="-8.3446220">
        <ele>367.6</ele>
        <time>2022-08-14T18:33:32Z</time>
      </trkpt>
      <trkpt lat="40.7597420" lon="-8.3448600">
        <ele>366.2</ele>
        <time>2022-08-14T18:33:34Z</time>
      </trkpt>
      <trkpt lat="40.7598400" lon="-8.3451160">
        <ele>365.2</ele>
        <time>2022-08-14T18:33:36Z</time>
      </trkpt>
      <trkpt lat="40.7598810" lon="-8.3452500">
        <ele>363.8</ele>
        <time>2022-08-14T18:33:37Z</time>
      </trkpt>
      <trkpt lat="40.7599100" lon="-8.3453950">
        <ele>363.0</ele>
        <time>2022-08-14T18:33:38Z</time>
      </trkpt>
      <trkpt lat="40.7599390" lon="-8.3455400">
        <ele>362.0</ele>
        <time>2022-08-14T18:33:39Z</time>
      </trkpt>
      <trkpt lat="40.7600030" lon="-8.3458290">
        <ele>360.8</ele>
        <time>2022-08-14T18:33:41Z</time>
      </trkpt>
      <trkpt lat="40.7600390" lon="-8.3459620">
        <ele>359.6</ele>
        <time>2022-08-14T18:33:42Z</time>
      </trkpt>
      <trkpt lat="40.7601140" lon="-8.3462140">
        <ele>358.0</ele>
        <time>2022-08-14T18:33:44Z</time>
      </trkpt>
      <trkpt lat="40.7600460" lon="-8.3464330">
        <ele>356.2</ele>
        <time>2022-08-14T18:33:46Z</time>
      </trkpt>
      <trkpt lat="40.7599680" lon="-8.3465000">
        <ele>355.0</ele>
        <time>2022-08-14T18:33:47Z</time>
      </trkpt>
      <trkpt lat="40.7598760" lon="-8.3465630">
        <ele>354.2</ele>
        <time>2022-08-14T18:33:48Z</time>
      </trkpt>
      <trkpt lat="40.7598130" lon="-8.3465960">
        <ele>353.2</ele>
        <time>2022-08-14T18:33:49Z</time>
      </trkpt>
      <trkpt lat="40.7597350" lon="-8.3466290">
        <ele>352.8</ele>
        <time>2022-08-14T18:33:50Z</time>
      </trkpt>
      <trkpt lat="40.7596610" lon="-8.3466650">
        <ele>351.8</ele>
        <time>2022-08-14T18:33:51Z</time>
      </trkpt>
      <trkpt lat="40.7595930" lon="-8.3467070">
        <ele>351.4</ele>
        <time>2022-08-14T18:33:52Z</time>
      </trkpt>
      <trkpt lat="40.7594750" lon="-8.3468050">
        <ele>350.4</ele>
        <time>2022-08-14T18:33:54Z</time>
      </trkpt>
      <trkpt lat="40.7593780" lon="-8.3469140">
        <ele>350.0</ele>
        <time>2022-08-14T18:33:56Z</time>
      </trkpt>
      <trkpt lat="40.7591750" lon="-8.3471210">
        <ele>349.8</ele>
        <time>2022-08-14T18:34:01Z</time>
      </trkpt>
      <trkpt lat="40.7590810" lon="-8.3472260">
        <ele>349.8</ele>
        <time>2022-08-14T18:34:04Z</time>
      </trkpt>
      <trkpt lat="40.7590010" lon="-8.3473100">
        <ele>350.0</ele>
        <time>2022-08-14T18:34:07Z</time>
      </trkpt>
      <trkpt lat="40.7588680" lon="-8.3474530">
        <ele>351.0</ele>
        <time>2022-08-14T18:34:13Z</time>
      </trkpt>
      <trkpt lat="40.7587820" lon="-8.3475470">
        <ele>351.6</ele>
        <time>2022-08-14T18:34:17Z</time>
      </trkpt>
      <trkpt lat="40.7586670" lon="-8.3476840">
        <ele>352.2</ele>
        <time>2022-08-14T18:34:22Z</time>
      </trkpt>
      <trkpt lat="40.7585880" lon="-8.3477790">
        <ele>352.6</ele>
        <time>2022-08-14T18:34:25Z</time>
      </trkpt>
      <trkpt lat="40.7584740" lon="-8.3479150">
        <ele>353.0</ele>
        <time>2022-08-14T18:34:29Z</time>
      </trkpt>
      <trkpt lat="40.7583180" lon="-8.3479520">
        <ele>353.0</ele>
        <time>2022-08-14T18:34:33Z</time>
      </trkpt>
      <trkpt lat="40.7581370" lon="-8.3478350">
        <ele>353.0</ele>
        <time>2022-08-14T18:34:38Z</time>
      </trkpt>
      <trkpt lat="40.7580370" lon="-8.3475910">
        <ele>353.2</ele>
        <time>2022-08-14T18:34:44Z</time>
      </trkpt>
      <trkpt lat="40.7579950" lon="-8.3474680">
        <ele>353.6</ele>
        <time>2022-08-14T18:34:48Z</time>
      </trkpt>
      <trkpt lat="40.7579720" lon="-8.3474230">
        <ele>354.0</ele>
        <time>2022-08-14T18:34:50Z</time>
      </trkpt>
      <trkpt lat="40.7579610" lon="-8.3473070">
        <ele>355.0</ele>
        <time>2022-08-14T18:34:54Z</time>
      </trkpt>
      <trkpt lat="40.7579570" lon="-8.3472790">
        <ele>355.2</ele>
        <time>2022-08-14T18:34:55Z</time>
      </trkpt>
      <trkpt lat="40.7579130" lon="-8.3471150">
        <ele>356.0</ele>
        <time>2022-08-14T18:35:01Z</time>
      </trkpt>
      <trkpt lat="40.7578930" lon="-8.3469400">
        <ele>357.2</ele>
        <time>2022-08-14T18:35:06Z</time>
      </trkpt>
      <trkpt lat="40.7578880" lon="-8.3468690">
        <ele>357.6</ele>
        <time>2022-08-14T18:35:08Z</time>
      </trkpt>
      <trkpt lat="40.7578690" lon="-8.3467750">
        <ele>358.2</ele>
        <time>2022-08-14T18:35:11Z</time>
      </trkpt>
      <trkpt lat="40.7578050" lon="-8.3466390">
        <ele>358.8</ele>
        <time>2022-08-14T18:35:15Z</time>
      </trkpt>
      <trkpt lat="40.7577380" lon="-8.3465520">
        <ele>359.4</ele>
        <time>2022-08-14T18:35:18Z</time>
      </trkpt>
      <trkpt lat="40.7576480" lon="-8.3464700">
        <ele>360.4</ele>
        <time>2022-08-14T18:35:23Z</time>
      </trkpt>
      <trkpt lat="40.7576290" lon="-8.3464600">
        <ele>360.6</ele>
        <time>2022-08-14T18:35:24Z</time>
      </trkpt>
      <trkpt lat="40.7575010" lon="-8.3463930">
        <ele>361.8</ele>
        <time>2022-08-14T18:35:30Z</time>
      </trkpt>
      <trkpt lat="40.7574640" lon="-8.3463750">
        <ele>362.2</ele>
        <time>2022-08-14T18:35:32Z</time>
      </trkpt>
      <trkpt lat="40.7574000" lon="-8.3463580">
        <ele>362.8</ele>
        <time>2022-08-14T18:35:35Z</time>
      </trkpt>
      <trkpt lat="40.7573240" lon="-8.3463650">
        <ele>363.4</ele>
        <time>2022-08-14T18:35:40Z</time>
      </trkpt>
      <trkpt lat="40.7572210" lon="-8.3463740">
        <ele>364.0</ele>
        <time>2022-08-14T18:35:44Z</time>
      </trkpt>
      <trkpt lat="40.7571320" lon="-8.3464110">
        <ele>364.6</ele>
        <time>2022-08-14T18:35:48Z</time>
      </trkpt>
      <trkpt lat="40.7570700" lon="-8.3464310">
        <ele>365.2</ele>
        <time>2022-08-14T18:35:51Z</time>
      </trkpt>
      <trkpt lat="40.7569740" lon="-8.3464380">
        <ele>365.8</ele>
        <time>2022-08-14T18:35:56Z</time>
      </trkpt>
      <trkpt lat="40.7569390" lon="-8.3464380">
        <ele>366.2</ele>
        <time>2022-08-14T18:35:58Z</time>
      </trkpt>
      <trkpt lat="40.7568050" lon="-8.3464540">
        <ele>367.6</ele>
        <time>2022-08-14T18:36:04Z</time>
      </trkpt>
      <trkpt lat="40.7566550" lon="-8.3464650">
        <ele>368.8</ele>
        <time>2022-08-14T18:36:10Z</time>
      </trkpt>
      <trkpt lat="40.7566330" lon="-8.3464660">
        <ele>369.2</ele>
        <time>2022-08-14T18:36:11Z</time>
      </trkpt>
      <trkpt lat="40.7565070" lon="-8.3464860">
        <ele>370.0</ele>
        <time>2022-08-14T18:36:16Z</time>
      </trkpt>
      <trkpt lat="40.7564300" lon="-8.3465000">
        <ele>370.2</ele>
        <time>2022-08-14T18:36:19Z</time>
      </trkpt>
      <trkpt lat="40.7563130" lon="-8.3465430">
        <ele>371.0</ele>
        <time>2022-08-14T18:36:24Z</time>
      </trkpt>
      <trkpt lat="40.7562320" lon="-8.3465900">
        <ele>371.8</ele>
        <time>2022-08-14T18:36:28Z</time>
      </trkpt>
      <trkpt lat="40.7562130" lon="-8.3465980">
        <ele>372.0</ele>
        <time>2022-08-14T18:36:29Z</time>
      </trkpt>
      <trkpt lat="40.7561080" lon="-8.3466570">
        <ele>372.8</ele>
        <time>2022-08-14T18:36:34Z</time>
      </trkpt>
      <trkpt lat="40.7560910" lon="-8.3466680">
        <ele>373.0</ele>
        <time>2022-08-14T18:36:35Z</time>
      </trkpt>
      <trkpt lat="40.7559650" lon="-8.3467930">
        <ele>374.0</ele>
        <time>2022-08-14T18:36:41Z</time>
      </trkpt>
      <trkpt lat="40.7559470" lon="-8.3468100">
        <ele>374.2</ele>
        <time>2022-08-14T18:36:42Z</time>
      </trkpt>
      <trkpt lat="40.7558250" lon="-8.3469830">
        <ele>375.2</ele>
        <time>2022-08-14T18:36:48Z</time>
      </trkpt>
      <trkpt lat="40.7558040" lon="-8.3470140">
        <ele>375.4</ele>
        <time>2022-08-14T18:36:49Z</time>
      </trkpt>
      <trkpt lat="40.7557690" lon="-8.3471940">
        <ele>376.4</ele>
        <time>2022-08-14T18:36:55Z</time>
      </trkpt>
      <trkpt lat="40.7558600" lon="-8.3473660">
        <ele>377.2</ele>
        <time>2022-08-14T18:37:01Z</time>
      </trkpt>
      <trkpt lat="40.7559250" lon="-8.3474120">
        <ele>377.6</ele>
        <time>2022-08-14T18:37:04Z</time>
      </trkpt>
      <trkpt lat="40.7560530" lon="-8.3474900">
        <ele>378.4</ele>
        <time>2022-08-14T18:37:09Z</time>
      </trkpt>
      <trkpt lat="40.7561430" lon="-8.3475400">
        <ele>378.6</ele>
        <time>2022-08-14T18:37:13Z</time>
      </trkpt>
      <trkpt lat="40.7561890" lon="-8.3475530">
        <ele>378.8</ele>
        <time>2022-08-14T18:37:15Z</time>
      </trkpt>
      <trkpt lat="40.7563410" lon="-8.3476760">
        <ele>379.4</ele>
        <time>2022-08-14T18:37:22Z</time>
      </trkpt>
      <trkpt lat="40.7564420" lon="-8.3477910">
        <ele>379.8</ele>
        <time>2022-08-14T18:37:27Z</time>
      </trkpt>
      <trkpt lat="40.7565150" lon="-8.3479020">
        <ele>380.2</ele>
        <time>2022-08-14T18:37:31Z</time>
      </trkpt>
      <trkpt lat="40.7565910" lon="-8.3480800">
        <ele>380.6</ele>
        <time>2022-08-14T18:37:37Z</time>
      </trkpt>
      <trkpt lat="40.7565860" lon="-8.3481510">
        <ele>380.8</ele>
        <time>2022-08-14T18:37:39Z</time>
      </trkpt>
      <trkpt lat="40.7565290" lon="-8.3483190">
        <ele>381.4</ele>
        <time>2022-08-14T18:37:44Z</time>
      </trkpt>
      <trkpt lat="40.7564270" lon="-8.3484670">
        <ele>381.8</ele>
        <time>2022-08-14T18:37:49Z</time>
      </trkpt>
      <trkpt lat="40.7563770" lon="-8.3485180">
        <ele>381.8</ele>
        <time>2022-08-14T18:37:51Z</time>
      </trkpt>
      <trkpt lat="40.7561410" lon="-8.3486140">
        <ele>382.0</ele>
        <time>2022-08-14T18:37:58Z</time>
      </trkpt>
      <trkpt lat="40.7559150" lon="-8.3487460">
        <ele>382.0</ele>
        <time>2022-08-14T18:38:05Z</time>
      </trkpt>
      <trkpt lat="40.7557920" lon="-8.3489470">
        <ele>382.0</ele>
        <time>2022-08-14T18:38:10Z</time>
      </trkpt>
      <trkpt lat="40.7557640" lon="-8.3491830">
        <ele>382.0</ele>
        <time>2022-08-14T18:38:15Z</time>
      </trkpt>
      <trkpt lat="40.7557390" lon="-8.3494230">
        <ele>382.2</ele>
        <time>2022-08-14T18:38:20Z</time>
      </trkpt>
      <trkpt lat="40.7556320" lon="-8.3495140">
        <ele>382.0</ele>
        <time>2022-08-14T18:38:24Z</time>
      </trkpt>
      <trkpt lat="40.7553360" lon="-8.3495060">
        <ele>382.4</ele>
        <time>2022-08-14T18:38:32Z</time>
      </trkpt>
      <trkpt lat="40.7551420" lon="-8.3494580">
        <ele>382.4</ele>
        <time>2022-08-14T18:38:37Z</time>
      </trkpt>
      <trkpt lat="40.7548370" lon="-8.3494010">
        <ele>382.4</ele>
        <time>2022-08-14T18:38:45Z</time>
      </trkpt>
      <trkpt lat="40.7547610" lon="-8.3494420">
        <ele>383.0</ele>
        <time>2022-08-14T18:38:47Z</time>
      </trkpt>
      <trkpt lat="40.7545570" lon="-8.3495980">
        <ele>383.6</ele>
        <time>2022-08-14T18:38:53Z</time>
      </trkpt>
      <trkpt lat="40.7543410" lon="-8.3497410">
        <ele>382.6</ele>
        <time>2022-08-14T18:38:59Z</time>
      </trkpt>
      <trkpt lat="40.7542660" lon="-8.3497790">
        <ele>382.0</ele>
        <time>2022-08-14T18:39:01Z</time>
      </trkpt>
      <trkpt lat="40.7540310" lon="-8.3498750">
        <ele>381.2</ele>
        <time>2022-08-14T18:39:06Z</time>
      </trkpt>
      <trkpt lat="40.7538800" lon="-8.3499530">
        <ele>381.0</ele>
        <time>2022-08-14T18:39:09Z</time>
      </trkpt>
      <trkpt lat="40.7537730" lon="-8.3499800">
        <ele>380.8</ele>
        <time>2022-08-14T18:39:11Z</time>
      </trkpt>
      <trkpt lat="40.7535780" lon="-8.3500370">
        <ele>380.2</ele>
        <time>2022-08-14T18:39:14Z</time>
      </trkpt>
      <trkpt lat="40.7534490" lon="-8.3501140">
        <ele>380.0</ele>
        <time>2022-08-14T18:39:16Z</time>
      </trkpt>
      <trkpt lat="40.7533950" lon="-8.3501790">
        <ele>379.6</ele>
        <time>2022-08-14T18:39:17Z</time>
      </trkpt>
      <trkpt lat="40.7533650" lon="-8.3502540">
        <ele>379.4</ele>
        <time>2022-08-14T18:39:18Z</time>
      </trkpt>
      <trkpt lat="40.7533410" lon="-8.3503460">
        <ele>379.2</ele>
        <time>2022-08-14T18:39:19Z</time>
      </trkpt>
      <trkpt lat="40.7533180" lon="-8.3505280">
        <ele>378.2</ele>
        <time>2022-08-14T18:39:21Z</time>
      </trkpt>
      <trkpt lat="40.7532760" lon="-8.3507970">
        <ele>377.2</ele>
        <time>2022-08-14T18:39:24Z</time>
      </trkpt>
      <trkpt lat="40.7532540" lon="-8.3509070">
        <ele>377.0</ele>
        <time>2022-08-14T18:39:25Z</time>
      </trkpt>
      <trkpt lat="40.7531880" lon="-8.3512870">
        <ele>376.0</ele>
        <time>2022-08-14T18:39:29Z</time>
      </trkpt>
      <trkpt lat="40.7531740" lon="-8.3513950">
        <ele>375.6</ele>
        <time>2022-08-14T18:39:30Z</time>
      </trkpt>
      <trkpt lat="40.7531500" lon="-8.3517260">
        <ele>374.6</ele>
        <time>2022-08-14T18:39:33Z</time>
      </trkpt>
      <trkpt lat="40.7531390" lon="-8.3520540">
        <ele>373.8</ele>
        <time>2022-08-14T18:39:36Z</time>
      </trkpt>
      <trkpt lat="40.7531310" lon="-8.3521580">
        <ele>373.0</ele>
        <time>2022-08-14T18:39:37Z</time>
      </trkpt>
      <trkpt lat="40.7531180" lon="-8.3522560">
        <ele>372.6</ele>
        <time>2022-08-14T18:39:38Z</time>
      </trkpt>
      <trkpt lat="40.7530760" lon="-8.3524370">
        <ele>372.0</ele>
        <time>2022-08-14T18:39:40Z</time>
      </trkpt>
      <trkpt lat="40.7529880" lon="-8.3526750">
        <ele>371.6</ele>
        <time>2022-08-14T18:39:43Z</time>
      </trkpt>
      <trkpt lat="40.7529060" lon="-8.3527940">
        <ele>371.4</ele>
        <time>2022-08-14T18:39:45Z</time>
      </trkpt>
      <trkpt lat="40.7528360" lon="-8.3528380">
        <ele>371.4</ele>
        <time>2022-08-14T18:39:47Z</time>
      </trkpt>
      <trkpt lat="40.7527680" lon="-8.3528560">
        <ele>371.4</ele>
        <time>2022-08-14T18:39:49Z</time>
      </trkpt>
      <trkpt lat="40.7526320" lon="-8.3528280">
        <ele>372.4</ele>
        <time>2022-08-14T18:39:54Z</time>
      </trkpt>
      <trkpt lat="40.7524940" lon="-8.3527720">
        <ele>373.2</ele>
        <time>2022-08-14T18:39:59Z</time>
      </trkpt>
      <trkpt lat="40.7524350" lon="-8.3527530">
        <ele>373.4</ele>
        <time>2022-08-14T18:40:01Z</time>
      </trkpt>
      <trkpt lat="40.7522400" lon="-8.3526730">
        <ele>374.4</ele>
        <time>2022-08-14T18:40:08Z</time>
      </trkpt>
      <trkpt lat="40.7521630" lon="-8.3526250">
        <ele>374.8</ele>
        <time>2022-08-14T18:40:11Z</time>
      </trkpt>
      <trkpt lat="40.7520800" lon="-8.3525880">
        <ele>375.4</ele>
        <time>2022-08-14T18:40:15Z</time>
      </trkpt>
      <trkpt lat="40.7520330" lon="-8.3526020">
        <ele>375.8</ele>
        <time>2022-08-14T18:40:17Z</time>
      </trkpt>
      <trkpt lat="40.7519880" lon="-8.3526390">
        <ele>376.4</ele>
        <time>2022-08-14T18:40:20Z</time>
      </trkpt>
      <trkpt lat="40.7519600" lon="-8.3526760">
        <ele>376.8</ele>
        <time>2022-08-14T18:40:22Z</time>
      </trkpt>
      <trkpt lat="40.7519200" lon="-8.3527550">
        <ele>377.8</ele>
        <time>2022-08-14T18:40:26Z</time>
      </trkpt>
      <trkpt lat="40.7519060" lon="-8.3528280">
        <ele>378.6</ele>
        <time>2022-08-14T18:40:29Z</time>
      </trkpt>
      <trkpt lat="40.7518950" lon="-8.3528800">
        <ele>379.0</ele>
        <time>2022-08-14T18:40:31Z</time>
      </trkpt>
      <trkpt lat="40.7518730" lon="-8.3530070">
        <ele>380.2</ele>
        <time>2022-08-14T18:40:35Z</time>
      </trkpt>
      <trkpt lat="40.7518530" lon="-8.3531720">
        <ele>381.4</ele>
        <time>2022-08-14T18:40:40Z</time>
      </trkpt>
      <trkpt lat="40.7518540" lon="-8.3532010">
        <ele>381.6</ele>
        <time>2022-08-14T18:40:41Z</time>
      </trkpt>
      <trkpt lat="40.7518410" lon="-8.3533120">
        <ele>382.6</ele>
        <time>2022-08-14T18:40:45Z</time>
      </trkpt>
      <trkpt lat="40.7518270" lon="-8.3533960">
        <ele>383.4</ele>
        <time>2022-08-14T18:40:48Z</time>
      </trkpt>
      <trkpt lat="40.7518150" lon="-8.3534530">
        <ele>383.8</ele>
        <time>2022-08-14T18:40:50Z</time>
      </trkpt>
      <trkpt lat="40.7517810" lon="-8.3535600">
        <ele>384.8</ele>
        <time>2022-08-14T18:40:54Z</time>
      </trkpt>
      <trkpt lat="40.7517700" lon="-8.3535850">
        <ele>385.0</ele>
        <time>2022-08-14T18:40:55Z</time>
      </trkpt>
      <trkpt lat="40.7517380" lon="-8.3536940">
        <ele>386.0</ele>
        <time>2022-08-14T18:40:59Z</time>
      </trkpt>
      <trkpt lat="40.7517040" lon="-8.3538020">
        <ele>386.4</ele>
        <time>2022-08-14T18:41:03Z</time>
      </trkpt>
      <trkpt lat="40.7516740" lon="-8.3539130">
        <ele>387.2</ele>
        <time>2022-08-14T18:41:07Z</time>
      </trkpt>
      <trkpt lat="40.7516340" lon="-8.3540100">
        <ele>388.0</ele>
        <time>2022-08-14T18:41:11Z</time>
      </trkpt>
      <trkpt lat="40.7516210" lon="-8.3540340">
        <ele>388.2</ele>
        <time>2022-08-14T18:41:12Z</time>
      </trkpt>
      <trkpt lat="40.7514890" lon="-8.3542770">
        <ele>388.6</ele>
        <time>2022-08-14T18:41:20Z</time>
      </trkpt>
      <trkpt lat="40.7513350" lon="-8.3544270">
        <ele>388.4</ele>
        <time>2022-08-14T18:41:26Z</time>
      </trkpt>
      <trkpt lat="40.7511080" lon="-8.3545500">
        <ele>388.2</ele>
        <time>2022-08-14T18:41:33Z</time>
      </trkpt>
      <trkpt lat="40.7509120" lon="-8.3545740">
        <ele>387.8</ele>
        <time>2022-08-14T18:41:39Z</time>
      </trkpt>
      <trkpt lat="40.7508790" lon="-8.3545710">
        <ele>387.8</ele>
        <time>2022-08-14T18:41:40Z</time>
      </trkpt>
      <trkpt lat="40.7507470" lon="-8.3545210">
        <ele>387.6</ele>
        <time>2022-08-14T18:41:43Z</time>
      </trkpt>
      <trkpt lat="40.7505210" lon="-8.3544350">
        <ele>387.2</ele>
        <time>2022-08-14T18:41:47Z</time>
      </trkpt>
      <trkpt lat="40.7504610" lon="-8.3544010">
        <ele>387.0</ele>
        <time>2022-08-14T18:41:48Z</time>
      </trkpt>
      <trkpt lat="40.7502860" lon="-8.3542900">
        <ele>386.8</ele>
        <time>2022-08-14T18:41:51Z</time>
      </trkpt>
      <trkpt lat="40.7501570" lon="-8.3542360">
        <ele>386.4</ele>
        <time>2022-08-14T18:41:53Z</time>
      </trkpt>
      <trkpt lat="40.7500870" lon="-8.3542050">
        <ele>386.2</ele>
        <time>2022-08-14T18:41:54Z</time>
      </trkpt>
      <trkpt lat="40.7500170" lon="-8.3541660">
        <ele>385.6</ele>
        <time>2022-08-14T18:41:55Z</time>
      </trkpt>
      <trkpt lat="40.7498810" lon="-8.3540770">
        <ele>385.0</ele>
        <time>2022-08-14T18:41:57Z</time>
      </trkpt>
      <trkpt lat="40.7497810" lon="-8.3539440">
        <ele>384.4</ele>
        <time>2022-08-14T18:41:59Z</time>
      </trkpt>
      <trkpt lat="40.7497460" lon="-8.3538610">
        <ele>384.0</ele>
        <time>2022-08-14T18:42:00Z</time>
      </trkpt>
      <trkpt lat="40.7497250" lon="-8.3537900">
        <ele>383.8</ele>
        <time>2022-08-14T18:42:01Z</time>
      </trkpt>
      <trkpt lat="40.7497020" lon="-8.3537010">
        <ele>383.4</ele>
        <time>2022-08-14T18:42:02Z</time>
      </trkpt>
      <trkpt lat="40.7495990" lon="-8.3533540">
        <ele>383.0</ele>
        <time>2022-08-14T18:42:06Z</time>
      </trkpt>
      <trkpt lat="40.7494610" lon="-8.3529400">
        <ele>382.2</ele>
        <time>2022-08-14T18:42:11Z</time>
      </trkpt>
      <trkpt lat="40.7493300" lon="-8.3525970">
        <ele>381.8</ele>
        <time>2022-08-14T18:42:15Z</time>
      </trkpt>
      <trkpt lat="40.7492040" lon="-8.3523430">
        <ele>380.8</ele>
        <time>2022-08-14T18:42:18Z</time>
      </trkpt>
      <trkpt lat="40.7491560" lon="-8.3522660">
        <ele>380.6</ele>
        <time>2022-08-14T18:42:19Z</time>
      </trkpt>
      <trkpt lat="40.7491000" lon="-8.3522000">
        <ele>380.4</ele>
        <time>2022-08-14T18:42:20Z</time>
      </trkpt>
      <trkpt lat="40.7490370" lon="-8.3521440">
        <ele>380.0</ele>
        <time>2022-08-14T18:42:21Z</time>
      </trkpt>
      <trkpt lat="40.7489700" lon="-8.3520940">
        <ele>379.8</ele>
        <time>2022-08-14T18:42:22Z</time>
      </trkpt>
      <trkpt lat="40.7488320" lon="-8.3520160">
        <ele>379.2</ele>
        <time>2022-08-14T18:42:24Z</time>
      </trkpt>
      <trkpt lat="40.7486400" lon="-8.3519550">
        <ele>378.6</ele>
        <time>2022-08-14T18:42:27Z</time>
      </trkpt>
      <trkpt lat="40.7485780" lon="-8.3519470">
        <ele>378.4</ele>
        <time>2022-08-14T18:42:28Z</time>
      </trkpt>
      <trkpt lat="40.7485180" lon="-8.3519320">
        <ele>378.4</ele>
        <time>2022-08-14T18:42:29Z</time>
      </trkpt>
      <trkpt lat="40.7482660" lon="-8.3518650">
        <ele>378.0</ele>
        <time>2022-08-14T18:42:33Z</time>
      </trkpt>
      <trkpt lat="40.7481330" lon="-8.3518760">
        <ele>377.8</ele>
        <time>2022-08-14T18:42:35Z</time>
      </trkpt>
      <trkpt lat="40.7480220" lon="-8.3519370">
        <ele>377.8</ele>
        <time>2022-08-14T18:42:37Z</time>
      </trkpt>
      <trkpt lat="40.7478300" lon="-8.3521450">
        <ele>377.8</ele>
        <time>2022-08-14T18:42:42Z</time>
      </trkpt>
      <trkpt lat="40.7476780" lon="-8.3523020">
        <ele>378.2</ele>
        <time>2022-08-14T18:42:47Z</time>
      </trkpt>
      <trkpt lat="40.7475040" lon="-8.3524060">
        <ele>378.2</ele>
        <time>2022-08-14T18:42:53Z</time>
      </trkpt>
      <trkpt lat="40.7473570" lon="-8.3524210">
        <ele>378.4</ele>
        <time>2022-08-14T18:42:58Z</time>
      </trkpt>
      <trkpt lat="40.7471730" lon="-8.3524400">
        <ele>378.4</ele>
        <time>2022-08-14T18:43:04Z</time>
      </trkpt>
      <trkpt lat="40.7469950" lon="-8.3524420">
        <ele>378.4</ele>
        <time>2022-08-14T18:43:09Z</time>
      </trkpt>
      <trkpt lat="40.7467600" lon="-8.3524240">
        <ele>378.4</ele>
        <time>2022-08-14T18:43:16Z</time>
      </trkpt>
      <trkpt lat="40.7463990" lon="-8.3524180">
        <ele>378.4</ele>
        <time>2022-08-14T18:43:25Z</time>
      </trkpt>
      <trkpt lat="40.7461630" lon="-8.3525300">
        <ele>378.2</ele>
        <time>2022-08-14T18:43:31Z</time>
      </trkpt>
      <trkpt lat="40.7460650" lon="-8.3525710">
        <ele>378.2</ele>
        <time>2022-08-14T18:43:34Z</time>
      </trkpt>
      <trkpt lat="40.7460560" lon="-8.3525520">
        <ele>378.0</ele>
        <time>2022-08-14T18:43:35Z</time>
      </trkpt>
      <trkpt lat="40.7461160" lon="-8.3525190">
        <ele>378.0</ele>
        <time>2022-08-14T18:43:38Z</time>
      </trkpt>
      <trkpt lat="40.7463150" lon="-8.3525380">
        <ele>377.8</ele>
        <time>2022-08-14T18:43:44Z</time>
      </trkpt>
      <trkpt lat="40.7464960" lon="-8.3525510">
        <ele>378.2</ele>
        <time>2022-08-14T18:43:50Z</time>
      </trkpt>
      <trkpt lat="40.7466830" lon="-8.3525850">
        <ele>379.6</ele>
        <time>2022-08-14T18:43:55Z</time>
      </trkpt>
      <trkpt lat="40.7467230" lon="-8.3525920">
        <ele>380.2</ele>
        <time>2022-08-14T18:43:56Z</time>
      </trkpt>
      <trkpt lat="40.7468030" lon="-8.3526010">
        <ele>381.4</ele>
        <time>2022-08-14T18:43:58Z</time>
      </trkpt>
      <trkpt lat="40.7469870" lon="-8.3526280">
        <ele>382.4</ele>
        <time>2022-08-14T18:44:02Z</time>
      </trkpt>
      <trkpt lat="40.7470300" lon="-8.3526390">
        <ele>383.2</ele>
        <time>2022-08-14T18:44:03Z</time>
      </trkpt>
      <trkpt lat="40.7470750" lon="-8.3526450">
        <ele>383.4</ele>
        <time>2022-08-14T18:44:04Z</time>
      </trkpt>
      <trkpt lat="40.7471680" lon="-8.3526520">
        <ele>385.0</ele>
        <time>2022-08-14T18:44:06Z</time>
      </trkpt>
      <trkpt lat="40.7472500" lon="-8.3526620">
        <ele>386.2</ele>
        <time>2022-08-14T18:44:08Z</time>
      </trkpt>
      <trkpt lat="40.7473130" lon="-8.3526720">
        <ele>387.2</ele>
        <time>2022-08-14T18:44:10Z</time>
      </trkpt>
      <trkpt lat="40.7473370" lon="-8.3526690">
        <ele>387.4</ele>
        <time>2022-08-14T18:44:11Z</time>
      </trkpt>
      <trkpt lat="40.7473790" lon="-8.3526690">
        <ele>388.4</ele>
        <time>2022-08-14T18:44:13Z</time>
      </trkpt>
      <trkpt lat="40.7473930" lon="-8.3526630">
        <ele>388.8</ele>
        <time>2022-08-14T18:44:14Z</time>
      </trkpt>
      <trkpt lat="40.7474060" lon="-8.3526500">
        <ele>389.2</ele>
        <time>2022-08-14T18:44:15Z</time>
      </trkpt>
      <trkpt lat="40.7474360" lon="-8.3526390">
        <ele>389.8</ele>
        <time>2022-08-14T18:44:17Z</time>
      </trkpt>
      <trkpt lat="40.7474850" lon="-8.3526550">
        <ele>390.4</ele>
        <time>2022-08-14T18:44:20Z</time>
      </trkpt>
      <trkpt lat="40.7474980" lon="-8.3526550">
        <ele>390.6</ele>
        <time>2022-08-14T18:44:21Z</time>
      </trkpt>
      <trkpt lat="40.7475180" lon="-8.3526430">
        <ele>391.0</ele>
        <time>2022-08-14T18:44:23Z</time>
      </trkpt>
      <trkpt lat="40.7475520" lon="-8.3526060">
        <ele>391.6</ele>
        <time>2022-08-14T18:44:26Z</time>
      </trkpt>
      <trkpt lat="40.7475880" lon="-8.3525880">
        <ele>392.0</ele>
        <time>2022-08-14T18:44:29Z</time>
      </trkpt>
      <trkpt lat="40.7476380" lon="-8.3525710">
        <ele>392.4</ele>
        <time>2022-08-14T18:44:32Z</time>
      </trkpt>
      <trkpt lat="40.7476970" lon="-8.3525660">
        <ele>393.0</ele>
        <time>2022-08-14T18:44:37Z</time>
      </trkpt>
      <trkpt lat="40.7477000" lon="-8.3525540">
        <ele>393.0</ele>
        <time>2022-08-14T18:44:38Z</time>
      </trkpt>
      <trkpt lat="40.7477000" lon="-8.3525450">
        <ele>393.2</ele>
        <time>2022-08-14T18:44:40Z</time>
      </trkpt>
      <trkpt lat="40.7476980" lon="-8.3525710">
        <ele>393.2</ele>
        <time>2022-08-14T18:44:42Z</time>
      </trkpt>
      <trkpt lat="40.7476680" lon="-8.3525960">
        <ele>393.4</ele>
        <time>2022-08-14T18:44:50Z</time>
      </trkpt>
      <trkpt lat="40.7476720" lon="-8.3525800">
        <ele>393.2</ele>
        <time>2022-08-14T18:44:54Z</time>
      </trkpt>
      <trkpt lat="40.7476720" lon="-8.3525800">
        <ele>393.0</ele>
        <time>2022-08-14T18:44:55Z</time>
      </trkpt>
      <trkpt lat="40.7479910" lon="-8.3524500">
        <ele>393.6</ele>
        <time>2022-08-14T18:45:17Z</time>
      </trkpt>
      <trkpt lat="40.7480510" lon="-8.3524090">
        <ele>393.8</ele>
        <time>2022-08-14T18:45:20Z</time>
      </trkpt>
      <trkpt lat="40.7481060" lon="-8.3523620">
        <ele>393.8</ele>
        <time>2022-08-14T18:45:22Z</time>
      </trkpt>
      <trkpt lat="40.7481750" lon="-8.3522920">
        <ele>394.0</ele>
        <time>2022-08-14T18:45:25Z</time>
      </trkpt>
      <trkpt lat="40.7483270" lon="-8.3522800">
        <ele>393.8</ele>
        <time>2022-08-14T18:45:29Z</time>
      </trkpt>
      <trkpt lat="40.7485560" lon="-8.3522770">
        <ele>393.4</ele>
        <time>2022-08-14T18:45:34Z</time>
      </trkpt>
      <trkpt lat="40.7486320" lon="-8.3522720">
        <ele>393.2</ele>
        <time>2022-08-14T18:45:35Z</time>
      </trkpt>
      <trkpt lat="40.7487830" lon="-8.3522860">
        <ele>392.8</ele>
        <time>2022-08-14T18:45:37Z</time>
      </trkpt>
      <trkpt lat="40.7489430" lon="-8.3523460">
        <ele>392.2</ele>
        <time>2022-08-14T18:45:39Z</time>
      </trkpt>
      <trkpt lat="40.7490780" lon="-8.3524640">
        <ele>391.6</ele>
        <time>2022-08-14T18:45:41Z</time>
      </trkpt>
      <trkpt lat="40.7491300" lon="-8.3525350">
        <ele>391.2</ele>
        <time>2022-08-14T18:45:42Z</time>
      </trkpt>
      <trkpt lat="40.7492350" lon="-8.3527000">
        <ele>390.4</ele>
        <time>2022-08-14T18:45:44Z</time>
      </trkpt>
      <trkpt lat="40.7493440" lon="-8.3528490">
        <ele>389.2</ele>
        <time>2022-08-14T18:45:46Z</time>
      </trkpt>
      <trkpt lat="40.7494250" lon="-8.3529700">
        <ele>388.2</ele>
        <time>2022-08-14T18:45:48Z</time>
      </trkpt>
      <trkpt lat="40.7494490" lon="-8.3530220">
        <ele>387.8</ele>
        <time>2022-08-14T18:45:49Z</time>
      </trkpt>
      <trkpt lat="40.7494840" lon="-8.3530960">
        <ele>386.6</ele>
        <time>2022-08-14T18:45:51Z</time>
      </trkpt>
      <trkpt lat="40.7495040" lon="-8.3530960">
        <ele>385.8</ele>
        <time>2022-08-14T18:45:52Z</time>
      </trkpt>
      <trkpt lat="40.7495120" lon="-8.3530740">
        <ele>385.2</ele>
        <time>2022-08-14T18:45:53Z</time>
      </trkpt>
      <trkpt lat="40.7494970" lon="-8.3530100">
        <ele>384.0</ele>
        <time>2022-08-14T18:45:55Z</time>
      </trkpt>
      <trkpt lat="40.7494600" lon="-8.3529360">
        <ele>383.0</ele>
        <time>2022-08-14T18:45:57Z</time>
      </trkpt>
      <trkpt lat="40.7493750" lon="-8.3527510">
        <ele>381.6</ele>
        <time>2022-08-14T18:46:01Z</time>
      </trkpt>
      <trkpt lat="40.7493330" lon="-8.3526380">
        <ele>381.0</ele>
        <time>2022-08-14T18:46:03Z</time>
      </trkpt>
      <trkpt lat="40.7492570" lon="-8.3524610">
        <ele>380.4</ele>
        <time>2022-08-14T18:46:06Z</time>
      </trkpt>
      <trkpt lat="40.7491540" lon="-8.3522790">
        <ele>379.8</ele>
        <time>2022-08-14T18:46:09Z</time>
      </trkpt>
      <trkpt lat="40.7490170" lon="-8.3521540">
        <ele>379.2</ele>
        <time>2022-08-14T18:46:12Z</time>
      </trkpt>
      <trkpt lat="40.7489800" lon="-8.3521290">
        <ele>379.2</ele>
        <time>2022-08-14T18:46:13Z</time>
      </trkpt>
      <trkpt lat="40.7486270" lon="-8.3519810">
        <ele>378.2</ele>
        <time>2022-08-14T18:46:20Z</time>
      </trkpt>
      <trkpt lat="40.7485790" lon="-8.3519650">
        <ele>378.2</ele>
        <time>2022-08-14T18:46:21Z</time>
      </trkpt>
      <trkpt lat="40.7482010" lon="-8.3518720">
        <ele>377.8</ele>
        <time>2022-08-14T18:46:29Z</time>
      </trkpt>
      <trkpt lat="40.7480360" lon="-8.3519730">
        <ele>377.8</ele>
        <time>2022-08-14T18:46:33Z</time>
      </trkpt>
      <trkpt lat="40.7480020" lon="-8.3520030">
        <ele>377.8</ele>
        <time>2022-08-14T18:46:34Z</time>
      </trkpt>
      <trkpt lat="40.7477240" lon="-8.3523030">
        <ele>377.8</ele>
        <time>2022-08-14T18:46:43Z</time>
      </trkpt>
      <trkpt lat="40.7475870" lon="-8.3523740">
        <ele>377.8</ele>
        <time>2022-08-14T18:46:48Z</time>
      </trkpt>
      <trkpt lat="40.7473300" lon="-8.3524430">
        <ele>378.2</ele>
        <time>2022-08-14T18:46:56Z</time>
      </trkpt>
      <trkpt lat="40.7470900" lon="-8.3524610">
        <ele>378.2</ele>
        <time>2022-08-14T18:47:03Z</time>
      </trkpt>
      <trkpt lat="40.7469140" lon="-8.3524660">
        <ele>378.2</ele>
        <time>2022-08-14T18:47:09Z</time>
      </trkpt>
      <trkpt lat="40.7466490" lon="-8.3524190">
        <ele>378.2</ele>
        <time>2022-08-14T18:47:16Z</time>
      </trkpt>
      <trkpt lat="40.7463940" lon="-8.3524450">
        <ele>378.2</ele>
        <time>2022-08-14T18:47:22Z</time>
      </trkpt>
      <trkpt lat="40.7461410" lon="-8.3525620">
        <ele>378.0</ele>
        <time>2022-08-14T18:47:28Z</time>
      </trkpt>
      <trkpt lat="40.7458230" lon="-8.3528100">
        <ele>377.8</ele>
        <time>2022-08-14T18:47:36Z</time>
      </trkpt>
      <trkpt lat="40.7457050" lon="-8.3529330">
        <ele>377.8</ele>
        <time>2022-08-14T18:47:39Z</time>
      </trkpt>
      <trkpt lat="40.7456180" lon="-8.3530730">
        <ele>377.8</ele>
        <time>2022-08-14T18:47:42Z</time>
      </trkpt>
      <trkpt lat="40.7455990" lon="-8.3531230">
        <ele>377.8</ele>
        <time>2022-08-14T18:47:43Z</time>
      </trkpt>
      <trkpt lat="40.7455750" lon="-8.3532380">
        <ele>377.8</ele>
        <time>2022-08-14T18:47:45Z</time>
      </trkpt>
      <trkpt lat="40.7455780" lon="-8.3532970">
        <ele>377.6</ele>
        <time>2022-08-14T18:47:46Z</time>
      </trkpt>
      <trkpt lat="40.7455800" lon="-8.3533570">
        <ele>377.6</ele>
        <time>2022-08-14T18:47:47Z</time>
      </trkpt>
      <trkpt lat="40.7456170" lon="-8.3535560">
        <ele>377.8</ele>
        <time>2022-08-14T18:47:51Z</time>
      </trkpt>
      <trkpt lat="40.7456820" lon="-8.3538200">
        <ele>378.2</ele>
        <time>2022-08-14T18:47:57Z</time>
      </trkpt>
      <trkpt lat="40.7457030" lon="-8.3539910">
        <ele>378.4</ele>
        <time>2022-08-14T18:48:01Z</time>
      </trkpt>
      <trkpt lat="40.7456930" lon="-8.3540340">
        <ele>378.6</ele>
        <time>2022-08-14T18:48:02Z</time>
      </trkpt>
      <trkpt lat="40.7456720" lon="-8.3541840">
        <ele>378.6</ele>
        <time>2022-08-14T18:48:05Z</time>
      </trkpt>
      <trkpt lat="40.7456070" lon="-8.3542760">
        <ele>378.8</ele>
        <time>2022-08-14T18:48:07Z</time>
      </trkpt>
      <trkpt lat="40.7453320" lon="-8.3545050">
        <ele>378.8</ele>
        <time>2022-08-14T18:48:14Z</time>
      </trkpt>
      <trkpt lat="40.7450970" lon="-8.3546950">
        <ele>378.6</ele>
        <time>2022-08-14T18:48:20Z</time>
      </trkpt>
      <trkpt lat="40.7450620" lon="-8.3547370">
        <ele>378.6</ele>
        <time>2022-08-14T18:48:21Z</time>
      </trkpt>
      <trkpt lat="40.7450320" lon="-8.3547800">
        <ele>378.4</ele>
        <time>2022-08-14T18:48:22Z</time>
      </trkpt>
      <trkpt lat="40.7450040" lon="-8.3548900">
        <ele>378.4</ele>
        <time>2022-08-14T18:48:24Z</time>
      </trkpt>
      <trkpt lat="40.7450040" lon="-8.3549510">
        <ele>378.4</ele>
        <time>2022-08-14T18:48:25Z</time>
      </trkpt>
      <trkpt lat="40.7450140" lon="-8.3550080">
        <ele>378.4</ele>
        <time>2022-08-14T18:48:26Z</time>
      </trkpt>
      <trkpt lat="40.7450570" lon="-8.3551030">
        <ele>378.4</ele>
        <time>2022-08-14T18:48:28Z</time>
      </trkpt>
      <trkpt lat="40.7450890" lon="-8.3551390">
        <ele>378.4</ele>
        <time>2022-08-14T18:48:29Z</time>
      </trkpt>
      <trkpt lat="40.7451240" lon="-8.3551730">
        <ele>378.4</ele>
        <time>2022-08-14T18:48:30Z</time>
      </trkpt>
      <trkpt lat="40.7452230" lon="-8.3552550">
        <ele>378.4</ele>
        <time>2022-08-14T18:48:33Z</time>
      </trkpt>
      <trkpt lat="40.7452520" lon="-8.3552830">
        <ele>378.4</ele>
        <time>2022-08-14T18:48:34Z</time>
      </trkpt>
      <trkpt lat="40.7453760" lon="-8.3554530">
        <ele>378.6</ele>
        <time>2022-08-14T18:48:39Z</time>
      </trkpt>
      <trkpt lat="40.7453860" lon="-8.3554970">
        <ele>378.6</ele>
        <time>2022-08-14T18:48:40Z</time>
      </trkpt>
      <trkpt lat="40.7453670" lon="-8.3557230">
        <ele>378.8</ele>
        <time>2022-08-14T18:48:45Z</time>
      </trkpt>
      <trkpt lat="40.7452420" lon="-8.3559470">
        <ele>379.4</ele>
        <time>2022-08-14T18:48:51Z</time>
      </trkpt>
      <trkpt lat="40.7452220" lon="-8.3559830">
        <ele>379.4</ele>
        <time>2022-08-14T18:48:52Z</time>
      </trkpt>
      <trkpt lat="40.7450730" lon="-8.3562310">
        <ele>380.4</ele>
        <time>2022-08-14T18:48:59Z</time>
      </trkpt>
      <trkpt lat="40.7450310" lon="-8.3562940">
        <ele>380.8</ele>
        <time>2022-08-14T18:49:01Z</time>
      </trkpt>
      <trkpt lat="40.7449600" lon="-8.3564390">
        <ele>381.4</ele>
        <time>2022-08-14T18:49:05Z</time>
      </trkpt>
      <trkpt lat="40.7449250" lon="-8.3565630">
        <ele>381.8</ele>
        <time>2022-08-14T18:49:08Z</time>
      </trkpt>
      <trkpt lat="40.7448880" lon="-8.3567520">
        <ele>382.4</ele>
        <time>2022-08-14T18:49:12Z</time>
      </trkpt>
      <trkpt lat="40.7448650" lon="-8.3569970">
        <ele>383.0</ele>
        <time>2022-08-14T18:49:17Z</time>
      </trkpt>
      <trkpt lat="40.7448400" lon="-8.3572810">
        <ele>383.6</ele>
        <time>2022-08-14T18:49:23Z</time>
      </trkpt>
      <trkpt lat="40.7447340" lon="-8.3575430">
        <ele>383.6</ele>
        <time>2022-08-14T18:49:29Z</time>
      </trkpt>
      <trkpt lat="40.7445770" lon="-8.3575870">
        <ele>383.4</ele>
        <time>2022-08-14T18:49:32Z</time>
      </trkpt>
      <trkpt lat="40.7444460" lon="-8.3575930">
        <ele>383.0</ele>
        <time>2022-08-14T18:49:34Z</time>
      </trkpt>
      <trkpt lat="40.7443240" lon="-8.3576630">
        <ele>382.8</ele>
        <time>2022-08-14T18:49:36Z</time>
      </trkpt>
      <trkpt lat="40.7442400" lon="-8.3577770">
        <ele>382.2</ele>
        <time>2022-08-14T18:49:38Z</time>
      </trkpt>
      <trkpt lat="40.7442150" lon="-8.3578360">
        <ele>381.8</ele>
        <time>2022-08-14T18:49:39Z</time>
      </trkpt>
      <trkpt lat="40.7441980" lon="-8.3578960">
        <ele>381.2</ele>
        <time>2022-08-14T18:49:40Z</time>
      </trkpt>
      <trkpt lat="40.7441830" lon="-8.3580320">
        <ele>380.0</ele>
        <time>2022-08-14T18:49:42Z</time>
      </trkpt>
      <trkpt lat="40.7441810" lon="-8.3580990">
        <ele>379.8</ele>
        <time>2022-08-14T18:49:43Z</time>
      </trkpt>
      <trkpt lat="40.7441820" lon="-8.3581640">
        <ele>379.0</ele>
        <time>2022-08-14T18:49:44Z</time>
      </trkpt>
      <trkpt lat="40.7441860" lon="-8.3582230">
        <ele>378.6</ele>
        <time>2022-08-14T18:49:45Z</time>
      </trkpt>
      <trkpt lat="40.7442070" lon="-8.3583080">
        <ele>377.2</ele>
        <time>2022-08-14T18:49:47Z</time>
      </trkpt>
      <trkpt lat="40.7442270" lon="-8.3583660">
        <ele>376.6</ele>
        <time>2022-08-14T18:49:49Z</time>
      </trkpt>
      <trkpt lat="40.7442400" lon="-8.3583920">
        <ele>376.0</ele>
        <time>2022-08-14T18:49:51Z</time>
      </trkpt>
      <trkpt lat="40.7442400" lon="-8.3583920">
        <ele>375.6</ele>
        <time>2022-08-14T18:49:53Z</time>
      </trkpt>
    </trkseg>
  </trk>
</gpx>
